<?xml version='1.0' encoding='UTF-8'?><gpx version="1.1" creator="JPX - https://github.com/jenetics/jpx" xmlns="http://www.topografix.com/GPX/1/1"><trk><trkseg><trkpt lat="45.14024906160563" lon="10.545431263342303"><ele>29.0</ele><time>2026-05-02T06:40:48.999Z</time></trkpt><trkpt lat="45.14030689449833" lon="10.545480969228722"><ele>29.0</ele><time>2026-05-02T06:40:49.999Z</time></trkpt><trkpt lat="45.140389504757636" lon="10.545537756517902"><ele>29.0</ele><time>2026-05-02T06:40:50.999Z</time></trkpt><trkpt lat="45.140480341446846" lon="10.545599316156517"><ele>29.0</ele><time>2026-05-02T06:40:51.999Z</time></trkpt><trkpt lat="45.14056971617632" lon="10.545657095415333"><ele>29.0</ele><time>2026-05-02T06:40:52.999Z</time></trkpt><trkpt lat="45.14065449382536" lon="10.545708125603396"><ele>28.75</ele><time>2026-05-02T06:40:53.999Z</time></trkpt><trkpt lat="45.140742699882594" lon="10.545754124240476"><ele>28.5</ele><time>2026-05-02T06:40:54.999Z</time></trkpt><trkpt lat="45.140860439925255" lon="10.54582052856542"><ele>28.25</ele><time>2026-05-02T06:40:55.999Z</time></trkpt><trkpt lat="45.14097078740461" lon="10.545889829144084"><ele>28.0</ele><time>2026-05-02T06:40:56.998Z</time></trkpt><trkpt lat="45.14109301718736" lon="10.545962157201068"><ele>28.0</ele><time>2026-05-02T06:40:57.998Z</time></trkpt><trkpt lat="45.141241208594806" lon="10.546059125165806"><ele>28.0</ele><time>2026-05-02T06:40:58.998Z</time></trkpt><trkpt lat="45.14139247361551" lon="10.546160268292885"><ele>28.0</ele><time>2026-05-02T06:40:59.998Z</time></trkpt><trkpt lat="45.14152774217387" lon="10.546238077533129"><ele>27.75</ele><time>2026-05-02T06:41:00.998Z</time></trkpt><trkpt lat="45.14165533939119" lon="10.546313800708036"><ele>27.5</ele><time>2026-05-02T06:41:01.998Z</time></trkpt><trkpt lat="45.1417742977339" lon="10.546395317870822"><ele>27.25</ele><time>2026-05-02T06:41:02.998Z</time></trkpt><trkpt lat="45.14188842455673" lon="10.546462356090057"><ele>27.0</ele><time>2026-05-02T06:41:03.998Z</time></trkpt><trkpt lat="45.14200452475431" lon="10.546533586221456"><ele>27.0</ele><time>2026-05-02T06:41:04.998Z</time></trkpt><trkpt lat="45.142120412130915" lon="10.546607633653162"><ele>27.0</ele><time>2026-05-02T06:41:05.998Z</time></trkpt><trkpt lat="45.1422354207041" lon="10.546677178998701"><ele>27.0</ele><time>2026-05-02T06:41:06.998Z</time></trkpt><trkpt lat="45.14235182962848" lon="10.546750940218091"><ele>27.0</ele><time>2026-05-02T06:41:07.998Z</time></trkpt><trkpt lat="45.14246625402135" lon="10.546834174614245"><ele>27.0</ele><time>2026-05-02T06:41:09Z</time></trkpt><trkpt lat="45.14258710312826" lon="10.546911916918516"><ele>27.0</ele><time>2026-05-02T06:41:10Z</time></trkpt><trkpt lat="45.14270915995089" lon="10.546988689167774"><ele>27.0</ele><time>2026-05-02T06:41:11Z</time></trkpt><trkpt lat="45.142826121134696" lon="10.547059817753416"><ele>27.0</ele><time>2026-05-02T06:41:12Z</time></trkpt><trkpt lat="45.14293089075823" lon="10.547125711892106"><ele>27.166666666666668</ele><time>2026-05-02T06:41:13Z</time></trkpt><trkpt lat="45.14302718986599" lon="10.547188936686492"><ele>27.333333333333336</ele><time>2026-05-02T06:41:14Z</time></trkpt><trkpt lat="45.14311572201418" lon="10.547245020572241"><ele>27.5</ele><time>2026-05-02T06:41:15Z</time></trkpt><trkpt lat="45.14319561844232" lon="10.547298436119274"><ele>27.666666666666668</ele><time>2026-05-02T06:41:16Z</time></trkpt><trkpt lat="45.14326808604553" lon="10.547351695020538"><ele>27.833333333333336</ele><time>2026-05-02T06:41:17Z</time></trkpt><trkpt lat="45.14333339120068" lon="10.54740469796728"><ele>28.0</ele><time>2026-05-02T06:41:18Z</time></trkpt><trkpt lat="45.14338977361541" lon="10.547453280240124"><ele>28.0</ele><time>2026-05-02T06:41:19Z</time></trkpt><trkpt lat="45.14349710754468" lon="10.54755034769423"><ele>27.999999999999996</ele><time>2026-05-02T06:41:21Z</time></trkpt><trkpt lat="45.1435743776667" lon="10.547599781078487"><ele>27.999999999999996</ele><time>2026-05-02T06:41:22Z</time></trkpt><trkpt lat="45.143659044185135" lon="10.547649876439937"><ele>28.0</ele><time>2026-05-02T06:41:23Z</time></trkpt><trkpt lat="45.1437520912626" lon="10.547687565711854"><ele>28.0</ele><time>2026-05-02T06:41:24Z</time></trkpt><trkpt lat="45.1438560277413" lon="10.547682001900817"><ele>28.0</ele><time>2026-05-02T06:41:25Z</time></trkpt><trkpt lat="45.143961521720456" lon="10.547643388055075"><ele>28.0</ele><time>2026-05-02T06:41:26Z</time></trkpt><trkpt lat="45.144064966079384" lon="10.547572581395592"><ele>28.0</ele><time>2026-05-02T06:41:27Z</time></trkpt><trkpt lat="45.14416699586576" lon="10.547461035408634"><ele>28.0</ele><time>2026-05-02T06:41:28Z</time></trkpt><trkpt lat="45.1442693749972" lon="10.54733121793974"><ele>27.75</ele><time>2026-05-02T06:41:29Z</time></trkpt><trkpt lat="45.14437749664022" lon="10.547184061870375"><ele>27.5</ele><time>2026-05-02T06:41:30Z</time></trkpt><trkpt lat="45.14447247261152" lon="10.547052609516959"><ele>27.25</ele><time>2026-05-02T06:41:31Z</time></trkpt><trkpt lat="45.144554397220375" lon="10.546936675981154"><ele>27.0</ele><time>2026-05-02T06:41:32Z</time></trkpt><trkpt lat="45.144627563319744" lon="10.54682570752095"><ele>27.0</ele><time>2026-05-02T06:41:33Z</time></trkpt><trkpt lat="45.1446893054356" lon="10.546720414582824"><ele>27.0</ele><time>2026-05-02T06:41:34Z</time></trkpt><trkpt lat="45.144775625933384" lon="10.54658496237228"><ele>27.0</ele><time>2026-05-02T06:41:35Z</time></trkpt><trkpt lat="45.14489254872611" lon="10.546386082625581"><ele>27.0</ele><time>2026-05-02T06:41:36Z</time></trkpt><trkpt lat="45.145019370187825" lon="10.54613918779298"><ele>27.0</ele><time>2026-05-02T06:41:37Z</time></trkpt><trkpt lat="45.14516338589993" lon="10.54584689965616"><ele>27.0</ele><time>2026-05-02T06:41:38Z</time></trkpt><trkpt lat="45.14531924785987" lon="10.545541258860823"><ele>26.5</ele><time>2026-05-02T06:41:39Z</time></trkpt><trkpt lat="45.145475169287394" lon="10.545234877422333"><ele>26.0</ele><time>2026-05-02T06:41:39.999Z</time></trkpt><trkpt lat="45.1456107466292" lon="10.544963236679557"><ele>26.0</ele><time>2026-05-02T06:41:40.999Z</time></trkpt><trkpt lat="45.145729650372296" lon="10.544728092766945"><ele>26.0</ele><time>2026-05-02T06:41:41.999Z</time></trkpt><trkpt lat="45.14582474747944" lon="10.544535404334779"><ele>26.0</ele><time>2026-05-02T06:41:42.999Z</time></trkpt><trkpt lat="45.145910981825786" lon="10.544364204921989"><ele>25.8</ele><time>2026-05-02T06:41:43.999Z</time></trkpt><trkpt lat="45.145976064541635" lon="10.544236453591136"><ele>25.6</ele><time>2026-05-02T06:41:44.999Z</time></trkpt><trkpt lat="45.146038837204316" lon="10.544111236274794"><ele>25.4</ele><time>2026-05-02T06:41:45.999Z</time></trkpt><trkpt lat="45.14610457732683" lon="10.543987251490332"><ele>25.2</ele><time>2026-05-02T06:41:46.999Z</time></trkpt><trkpt lat="45.146168251983575" lon="10.543870345375101"><ele>25.0</ele><time>2026-05-02T06:41:47.999Z</time></trkpt><trkpt lat="45.146230523739675" lon="10.543753835763605"><ele>24.75</ele><time>2026-05-02T06:41:48.999Z</time></trkpt><trkpt lat="45.14629463178929" lon="10.543627546698447"><ele>24.5</ele><time>2026-05-02T06:41:49.999Z</time></trkpt><trkpt lat="45.1463618249734" lon="10.543489131316859"><ele>24.25</ele><time>2026-05-02T06:41:50.999Z</time></trkpt><trkpt lat="45.146437296530756" lon="10.543343425522156"><ele>24.0</ele><time>2026-05-02T06:41:51.999Z</time></trkpt><trkpt lat="45.14651698727075" lon="10.543192211525726"><ele>24.25</ele><time>2026-05-02T06:41:52.999Z</time></trkpt><trkpt lat="45.146593492430426" lon="10.543040863652966"><ele>24.5</ele><time>2026-05-02T06:41:53.999Z</time></trkpt><trkpt lat="45.14666286885605" lon="10.542909121782456"><ele>24.75</ele><time>2026-05-02T06:41:54.999Z</time></trkpt><trkpt lat="45.14672670084767" lon="10.542785636162233"><ele>25.0</ele><time>2026-05-02T06:41:55.999Z</time></trkpt><trkpt lat="45.14679277932625" lon="10.542660178732392"><ele>25.0</ele><time>2026-05-02T06:41:56.999Z</time></trkpt><trkpt lat="45.14686364508494" lon="10.542538848176958"><ele>25.0</ele><time>2026-05-02T06:41:57.999Z</time></trkpt><trkpt lat="45.14694955946069" lon="10.542420911268211"><ele>25.0</ele><time>2026-05-02T06:41:58.999Z</time></trkpt><trkpt lat="45.14706154449238" lon="10.542343579388168"><ele>25.0</ele><time>2026-05-02T06:41:59.999Z</time></trkpt><trkpt lat="45.14718589508034" lon="10.542309767474777"><ele>25.0</ele><time>2026-05-02T06:42:00.999Z</time></trkpt><trkpt lat="45.14731642682128" lon="10.542322974232352"><ele>25.0</ele><time>2026-05-02T06:42:01.999Z</time></trkpt><trkpt lat="45.147459797377756" lon="10.542383895111609"><ele>25.0</ele><time>2026-05-02T06:42:02.999Z</time></trkpt><trkpt lat="45.14761458974705" lon="10.542467406789916"><ele>25.0</ele><time>2026-05-02T06:42:03.999Z</time></trkpt><trkpt lat="45.14777728467343" lon="10.542555456962809"><ele>25.333333333333336</ele><time>2026-05-02T06:42:04.999Z</time></trkpt><trkpt lat="45.14793324997092" lon="10.542640619764468"><ele>25.666666666666664</ele><time>2026-05-02T06:42:05.999Z</time></trkpt><trkpt lat="45.14809239846422" lon="10.54273048642338"><ele>26.0</ele><time>2026-05-02T06:42:06.999Z</time></trkpt><trkpt lat="45.148253783517326" lon="10.542817996106589"><ele>26.0</ele><time>2026-05-02T06:42:07.999Z</time></trkpt><trkpt lat="45.14841643572329" lon="10.542903790974231"><ele>26.0</ele><time>2026-05-02T06:42:08.999Z</time></trkpt><trkpt lat="45.148582557583936" lon="10.54299192688223"><ele>26.0</ele><time>2026-05-02T06:42:09.999Z</time></trkpt><trkpt lat="45.14875187203272" lon="10.543081612514198"><ele>26.0</ele><time>2026-05-02T06:42:10.999Z</time></trkpt><trkpt lat="45.14892433868018" lon="10.543173222269026"><ele>26.0</ele><time>2026-05-02T06:42:11.999Z</time></trkpt><trkpt lat="45.14910032139427" lon="10.54326520850322"><ele>26.0</ele><time>2026-05-02T06:42:12.999Z</time></trkpt><trkpt lat="45.149282406302326" lon="10.543359054432388"><ele>26.333333333333332</ele><time>2026-05-02T06:42:13.999Z</time></trkpt><trkpt lat="45.149466515773256" lon="10.543461169677682"><ele>26.666666666666664</ele><time>2026-05-02T06:42:14.999Z</time></trkpt><trkpt lat="45.14965194629052" lon="10.543566352378065"><ele>27.0</ele><time>2026-05-02T06:42:15.999Z</time></trkpt><trkpt lat="45.14984097144996" lon="10.54367280090552"><ele>26.333333333333336</ele><time>2026-05-02T06:42:16.999Z</time></trkpt><trkpt lat="45.150032239234484" lon="10.543777605498974"><ele>25.666666666666668</ele><time>2026-05-02T06:42:17.999Z</time></trkpt><trkpt lat="45.15022564764451" lon="10.543883252055693"><ele>25.0</ele><time>2026-05-02T06:42:18.999Z</time></trkpt><trkpt lat="45.15042165660489" lon="10.543991880472197"><ele>25.0</ele><time>2026-05-02T06:42:19.999Z</time></trkpt><trkpt lat="45.150625093495535" lon="10.544107800325369"><ele>25.0</ele><time>2026-05-02T06:42:20.999Z</time></trkpt><trkpt lat="45.15084157910807" lon="10.54422962802588"><ele>26.5</ele><time>2026-05-02T06:42:21.999Z</time></trkpt><trkpt lat="45.15108452257404" lon="10.544381093445622"><ele>28.0</ele><time>2026-05-02T06:42:22.999Z</time></trkpt><trkpt lat="45.151355707376815" lon="10.544530081735136"><ele>27.5</ele><time>2026-05-02T06:42:23.999Z</time></trkpt><trkpt lat="45.15162046320951" lon="10.54467363823778"><ele>27.0</ele><time>2026-05-02T06:42:24.999Z</time></trkpt><trkpt lat="45.151880682838616" lon="10.54481679362634"><ele>27.0</ele><time>2026-05-02T06:42:25.999Z</time></trkpt><trkpt lat="45.15214124175247" lon="10.544959018531179"><ele>27.0</ele><time>2026-05-02T06:42:26.999Z</time></trkpt><trkpt lat="45.15239718578692" lon="10.54510555060663"><ele>27.0</ele><time>2026-05-02T06:42:27.999Z</time></trkpt><trkpt lat="45.15265675126395" lon="10.545260017446928"><ele>27.0</ele><time>2026-05-02T06:42:28.999Z</time></trkpt><trkpt lat="45.152934054081754" lon="10.545428841371061"><ele>27.0</ele><time>2026-05-02T06:42:29.999Z</time></trkpt><trkpt lat="45.153240241924344" lon="10.54561525069965"><ele>27.0</ele><time>2026-05-02T06:42:30.999Z</time></trkpt><trkpt lat="45.15354680078897" lon="10.545802711712676"><ele>27.0</ele><time>2026-05-02T06:42:31.999Z</time></trkpt><trkpt lat="45.15387422480662" lon="10.54600167507785"><ele>27.0</ele><time>2026-05-02T06:42:32.999Z</time></trkpt><trkpt lat="45.154209946608546" lon="10.546206304781458"><ele>27.0</ele><time>2026-05-02T06:42:33.999Z</time></trkpt><trkpt lat="45.15453718335668" lon="10.546401903071214"><ele>27.0</ele><time>2026-05-02T06:42:34.999Z</time></trkpt><trkpt lat="45.15486985083481" lon="10.54660155488415"><ele>28.5</ele><time>2026-05-02T06:42:35.999Z</time></trkpt><trkpt lat="45.155197468377004" lon="10.546799234502744"><ele>30.0</ele><time>2026-05-02T06:42:36.999Z</time></trkpt><trkpt lat="45.15551639007528" lon="10.546993970068405"><ele>28.5</ele><time>2026-05-02T06:42:37.999Z</time></trkpt><trkpt lat="45.155833723040175" lon="10.547184540739385"><ele>27.0</ele><time>2026-05-02T06:42:38.999Z</time></trkpt><trkpt lat="45.15615087003157" lon="10.547378993588278"><ele>27.0</ele><time>2026-05-02T06:42:39.999Z</time></trkpt><trkpt lat="45.15646716731183" lon="10.547572631943662"><ele>27.0</ele><time>2026-05-02T06:42:40.999Z</time></trkpt><trkpt lat="45.15678087641076" lon="10.54776316320521"><ele>27.0</ele><time>2026-05-02T06:42:41.999Z</time></trkpt><trkpt lat="45.15709112979166" lon="10.547952139925357"><ele>27.0</ele><time>2026-05-02T06:42:42.999Z</time></trkpt><trkpt lat="45.15740034330321" lon="10.548143037546359"><ele>26.5</ele><time>2026-05-02T06:42:43.999Z</time></trkpt><trkpt lat="45.15770622168676" lon="10.548326481888617"><ele>26.0</ele><time>2026-05-02T06:42:44.999Z</time></trkpt><trkpt lat="45.158009900407045" lon="10.548513778075256"><ele>26.5</ele><time>2026-05-02T06:42:45.999Z</time></trkpt><trkpt lat="45.15831137029031" lon="10.548698627879801"><ele>27.0</ele><time>2026-05-02T06:42:46.999Z</time></trkpt><trkpt lat="45.15861017152538" lon="10.548880330606998"><ele>28.0</ele><time>2026-05-02T06:42:47.999Z</time></trkpt><trkpt lat="45.15890551039852" lon="10.549060470443143"><ele>29.0</ele><time>2026-05-02T06:42:48.999Z</time></trkpt><trkpt lat="45.15919845420804" lon="10.549240985243665"><ele>29.0</ele><time>2026-05-02T06:42:49.999Z</time></trkpt><trkpt lat="45.15949126580586" lon="10.549415800139302"><ele>29.0</ele><time>2026-05-02T06:42:50.999Z</time></trkpt><trkpt lat="45.15978247449424" lon="10.549597025978837"><ele>29.5</ele><time>2026-05-02T06:42:51.999Z</time></trkpt><trkpt lat="45.16007238087281" lon="10.549776810845033"><ele>30.0</ele><time>2026-05-02T06:42:52.999Z</time></trkpt><trkpt lat="45.16036342629944" lon="10.549952163979246"><ele>30.0</ele><time>2026-05-02T06:42:53.999Z</time></trkpt><trkpt lat="45.16065319091335" lon="10.55012456680779"><ele>30.0</ele><time>2026-05-02T06:42:54.999Z</time></trkpt><trkpt lat="45.16093641136757" lon="10.550291941763732"><ele>29.5</ele><time>2026-05-02T06:42:55.999Z</time></trkpt><trkpt lat="45.161208891440396" lon="10.55045310703139"><ele>29.0</ele><time>2026-05-02T06:42:56.999Z</time></trkpt><trkpt lat="45.161477961769044" lon="10.550608431437366"><ele>28.5</ele><time>2026-05-02T06:42:57.999Z</time></trkpt><trkpt lat="45.161747512121416" lon="10.550764155284758"><ele>28.0</ele><time>2026-05-02T06:42:58.999Z</time></trkpt><trkpt lat="45.162004685312056" lon="10.550909352329478"><ele>28.0</ele><time>2026-05-02T06:42:59.999Z</time></trkpt><trkpt lat="45.16225474427793" lon="10.551052205326535"><ele>28.0</ele><time>2026-05-02T06:43:00.999Z</time></trkpt><trkpt lat="45.16251122967599" lon="10.551199708280992"><ele>28.0</ele><time>2026-05-02T06:43:01.999Z</time></trkpt><trkpt lat="45.16275429903105" lon="10.551337542224143"><ele>28.0</ele><time>2026-05-02T06:43:02.999Z</time></trkpt><trkpt lat="45.16298360972513" lon="10.551467083145829"><ele>28.5</ele><time>2026-05-02T06:43:03.999Z</time></trkpt><trkpt lat="45.16320638166883" lon="10.551592930225787"><ele>29.0</ele><time>2026-05-02T06:43:04.999Z</time></trkpt><trkpt lat="45.16343255079883" lon="10.55172069640747"><ele>29.0</ele><time>2026-05-02T06:43:05.999Z</time></trkpt><trkpt lat="45.1636620141909" lon="10.551851753801296"><ele>29.0</ele><time>2026-05-02T06:43:06.999Z</time></trkpt><trkpt lat="45.16388406871235" lon="10.551976301052546"><ele>28.5</ele><time>2026-05-02T06:43:07.999Z</time></trkpt><trkpt lat="45.16410305899586" lon="10.552101504180413"><ele>28.0</ele><time>2026-05-02T06:43:08.999Z</time></trkpt><trkpt lat="45.164329282391215" lon="10.552198467118403"><ele>28.0</ele><time>2026-05-02T06:43:09.999Z</time></trkpt><trkpt lat="45.16454689178076" lon="10.552316652742663"><ele>28.0</ele><time>2026-05-02T06:43:10.999Z</time></trkpt><trkpt lat="45.1647642144004" lon="10.552431859845731"><ele>28.5</ele><time>2026-05-02T06:43:11.999Z</time></trkpt><trkpt lat="45.16498336357837" lon="10.552540006185632"><ele>29.0</ele><time>2026-05-02T06:43:12.999Z</time></trkpt><trkpt lat="45.16520270269" lon="10.552648420854831"><ele>29.0</ele><time>2026-05-02T06:43:13.999Z</time></trkpt><trkpt lat="45.16542069758562" lon="10.552759973658302"><ele>29.0</ele><time>2026-05-02T06:43:15Z</time></trkpt><trkpt lat="45.165632256517256" lon="10.552891359623128"><ele>28.5</ele><time>2026-05-02T06:43:16Z</time></trkpt><trkpt lat="45.165848814191556" lon="10.553003336556355"><ele>28.0</ele><time>2026-05-02T06:43:17Z</time></trkpt><trkpt lat="45.166063938618564" lon="10.553110965091992"><ele>28.0</ele><time>2026-05-02T06:43:18Z</time></trkpt><trkpt lat="45.166278562187706" lon="10.55321979428116"><ele>28.0</ele><time>2026-05-02T06:43:19Z</time></trkpt><trkpt lat="45.16649183783071" lon="10.55332830727353"><ele>28.0</ele><time>2026-05-02T06:43:20Z</time></trkpt><trkpt lat="45.166703609246994" lon="10.553437580591126"><ele>28.0</ele><time>2026-05-02T06:43:21Z</time></trkpt><trkpt lat="45.166911358736954" lon="10.553544682104759"><ele>28.0</ele><time>2026-05-02T06:43:22Z</time></trkpt><trkpt lat="45.16710870811387" lon="10.55364642202303"><ele>28.333333333333336</ele><time>2026-05-02T06:43:23Z</time></trkpt><trkpt lat="45.167303690086975" lon="10.553746941461899"><ele>28.666666666666664</ele><time>2026-05-02T06:43:24Z</time></trkpt><trkpt lat="45.16749039681127" lon="10.553844741675645"><ele>29.0</ele><time>2026-05-02T06:43:25Z</time></trkpt><trkpt lat="45.16767551127035" lon="10.553941797980908"><ele>29.0</ele><time>2026-05-02T06:43:26Z</time></trkpt><trkpt lat="45.16786249661544" lon="10.554039835179514"><ele>29.0</ele><time>2026-05-02T06:43:27Z</time></trkpt><trkpt lat="45.16804965094264" lon="10.554137960990541"><ele>29.0</ele><time>2026-05-02T06:43:28Z</time></trkpt><trkpt lat="45.16823820812247" lon="10.554232702678865"><ele>29.0</ele><time>2026-05-02T06:43:29Z</time></trkpt><trkpt lat="45.16842432141755" lon="10.554323645626074"><ele>29.0</ele><time>2026-05-02T06:43:30Z</time></trkpt><trkpt lat="45.16860850433381" lon="10.554413645337492"><ele>29.0</ele><time>2026-05-02T06:43:31Z</time></trkpt><trkpt lat="45.16879267849203" lon="10.554503640760249"><ele>29.333333333333332</ele><time>2026-05-02T06:43:32Z</time></trkpt><trkpt lat="45.16897937273802" lon="10.55459065403616"><ele>29.666666666666664</ele><time>2026-05-02T06:43:33Z</time></trkpt><trkpt lat="45.16916929497096" lon="10.554677165698449"><ele>30.0</ele><time>2026-05-02T06:43:34Z</time></trkpt><trkpt lat="45.16936053877933" lon="10.554761686856102"><ele>30.0</ele><time>2026-05-02T06:43:35Z</time></trkpt><trkpt lat="45.16956114422015" lon="10.554850343661055"><ele>30.0</ele><time>2026-05-02T06:43:36Z</time></trkpt><trkpt lat="45.169771163181785" lon="10.554943160539349"><ele>30.0</ele><time>2026-05-02T06:43:37Z</time></trkpt><trkpt lat="45.169984995784105" lon="10.555037662850104"><ele>30.5</ele><time>2026-05-02T06:43:38Z</time></trkpt><trkpt lat="45.17020666479998" lon="10.555136371303439"><ele>31.0</ele><time>2026-05-02T06:43:39Z</time></trkpt><trkpt lat="45.17044776793891" lon="10.555223178651197"><ele>31.0</ele><time>2026-05-02T06:43:40Z</time></trkpt><trkpt lat="45.170662168710805" lon="10.555328190064682"><ele>31.0</ele><time>2026-05-02T06:43:41Z</time></trkpt><trkpt lat="45.17086354384955" lon="10.55542175051855"><ele>31.0</ele><time>2026-05-02T06:43:42Z</time></trkpt><trkpt lat="45.171036795253855" lon="10.555503284481343"><ele>31.0</ele><time>2026-05-02T06:43:43Z</time></trkpt><trkpt lat="45.17118347750827" lon="10.555567942547242"><ele>31.0</ele><time>2026-05-02T06:43:44Z</time></trkpt><trkpt lat="45.17130836805317" lon="10.555604735418509"><ele>31.0</ele><time>2026-05-02T06:43:45Z</time></trkpt><trkpt lat="45.17143217580548" lon="10.55559459062467"><ele>31.0</ele><time>2026-05-02T06:43:46Z</time></trkpt><trkpt lat="45.17155546211686" lon="10.555535474851267"><ele>31.0</ele><time>2026-05-02T06:43:47Z</time></trkpt><trkpt lat="45.171666998526284" lon="10.555427294941067"><ele>31.0</ele><time>2026-05-02T06:43:48Z</time></trkpt><trkpt lat="45.171752813391784" lon="10.55526975901062"><ele>31.0</ele><time>2026-05-02T06:43:49Z</time></trkpt><trkpt lat="45.17180312117482" lon="10.555090270683126"><ele>31.0</ele><time>2026-05-02T06:43:50Z</time></trkpt><trkpt lat="45.1718186733993" lon="10.554901984758828"><ele>31.0</ele><time>2026-05-02T06:43:51Z</time></trkpt><trkpt lat="45.17182008706247" lon="10.554703755259784"><ele>31.0</ele><time>2026-05-02T06:43:52Z</time></trkpt><trkpt lat="45.1718064265636" lon="10.554489719992292"><ele>31.0</ele><time>2026-05-02T06:43:52.999Z</time></trkpt><trkpt lat="45.17180141718225" lon="10.55421923688716"><ele>31.666666666666668</ele><time>2026-05-02T06:43:53.999Z</time></trkpt><trkpt lat="45.17180011740076" lon="10.55389701717181"><ele>32.333333333333336</ele><time>2026-05-02T06:43:54.999Z</time></trkpt><trkpt lat="45.171800511509076" lon="10.553593379844964"><ele>33.0</ele><time>2026-05-02T06:43:55.999Z</time></trkpt><trkpt lat="45.17183596025991" lon="10.553308095378458"><ele>33.0</ele><time>2026-05-02T06:43:56.999Z</time></trkpt><trkpt lat="45.17189868406536" lon="10.5530205971304"><ele>33.0</ele><time>2026-05-02T06:43:57.999Z</time></trkpt><trkpt lat="45.1719803949859" lon="10.55270783773051"><ele>33.0</ele><time>2026-05-02T06:43:58.999Z</time></trkpt><trkpt lat="45.17210897387039" lon="10.552388457438386"><ele>32.0</ele><time>2026-05-02T06:43:59.999Z</time></trkpt><trkpt lat="45.172269608453846" lon="10.552059543216615"><ele>31.0</ele><time>2026-05-02T06:44:00.999Z</time></trkpt><trkpt lat="45.17242525494579" lon="10.55174645007514"><ele>31.0</ele><time>2026-05-02T06:44:01.999Z</time></trkpt><trkpt lat="45.17260370973558" lon="10.551486460125444"><ele>31.0</ele><time>2026-05-02T06:44:02.999Z</time></trkpt><trkpt lat="45.17278537243335" lon="10.551229087090363"><ele>30.5</ele><time>2026-05-02T06:44:03.999Z</time></trkpt><trkpt lat="45.172951252863285" lon="10.550979122633175"><ele>30.0</ele><time>2026-05-02T06:44:04.999Z</time></trkpt><trkpt lat="45.173127998048884" lon="10.55076623360025"><ele>30.0</ele><time>2026-05-02T06:44:05.999Z</time></trkpt><trkpt lat="45.17329541774546" lon="10.550565356263435"><ele>30.0</ele><time>2026-05-02T06:44:06.999Z</time></trkpt><trkpt lat="45.173457797553745" lon="10.550377725902647"><ele>30.0</ele><time>2026-05-02T06:44:07.999Z</time></trkpt><trkpt lat="45.173628108427884" lon="10.550216329434164"><ele>30.333333333333336</ele><time>2026-05-02T06:44:08.999Z</time></trkpt><trkpt lat="45.173820190573146" lon="10.550084185385325"><ele>30.666666666666668</ele><time>2026-05-02T06:44:09.999Z</time></trkpt><trkpt lat="45.17401839531252" lon="10.54997211629754"><ele>31.0</ele><time>2026-05-02T06:44:10.999Z</time></trkpt><trkpt lat="45.17421782949244" lon="10.54986090437694"><ele>31.0</ele><time>2026-05-02T06:44:11.999Z</time></trkpt><trkpt lat="45.174420911727" lon="10.549746186127907"><ele>31.0</ele><time>2026-05-02T06:44:12.999Z</time></trkpt><trkpt lat="45.17462850173393" lon="10.549611767896575"><ele>31.0</ele><time>2026-05-02T06:44:13.999Z</time></trkpt><trkpt lat="45.17483023438264" lon="10.549466455982204"><ele>31.0</ele><time>2026-05-02T06:44:14.999Z</time></trkpt><trkpt lat="45.17502443526959" lon="10.549330229513048"><ele>31.0</ele><time>2026-05-02T06:44:15.999Z</time></trkpt><trkpt lat="45.17521144968176" lon="10.549193769201766"><ele>31.0</ele><time>2026-05-02T06:44:16.999Z</time></trkpt><trkpt lat="45.17539526169747" lon="10.54905240834164"><ele>31.0</ele><time>2026-05-02T06:44:17.999Z</time></trkpt><trkpt lat="45.17556317933582" lon="10.54890161947276"><ele>31.0</ele><time>2026-05-02T06:44:18.999Z</time></trkpt><trkpt lat="45.17570540798063" lon="10.548765426527268"><ele>31.0</ele><time>2026-05-02T06:44:19.999Z</time></trkpt><trkpt lat="45.17583831879377" lon="10.548638289249515"><ele>30.5</ele><time>2026-05-02T06:44:20.999Z</time></trkpt><trkpt lat="45.17596255718377" lon="10.548517071489588"><ele>30.0</ele><time>2026-05-02T06:44:21.999Z</time></trkpt><trkpt lat="45.17608606855415" lon="10.548406351538917"><ele>29.5</ele><time>2026-05-02T06:44:22.999Z</time></trkpt><trkpt lat="45.17620783077332" lon="10.548301692321091"><ele>29.0</ele><time>2026-05-02T06:44:23.999Z</time></trkpt><trkpt lat="45.176329864764924" lon="10.548222834592481"><ele>29.0</ele><time>2026-05-02T06:44:24.999Z</time></trkpt><trkpt lat="45.176463706299785" lon="10.548195859221288"><ele>29.0</ele><time>2026-05-02T06:44:25.999Z</time></trkpt><trkpt lat="45.1765975648237" lon="10.548223040011521"><ele>29.0</ele><time>2026-05-02T06:44:26.999Z</time></trkpt><trkpt lat="45.176729408986354" lon="10.548297189847613"><ele>29.0</ele><time>2026-05-02T06:44:27.999Z</time></trkpt><trkpt lat="45.17687398259787" lon="10.54835954293533"><ele>29.666666666666664</ele><time>2026-05-02T06:44:28.999Z</time></trkpt><trkpt lat="45.17703484139428" lon="10.548353148542516"><ele>30.333333333333336</ele><time>2026-05-02T06:44:29.999Z</time></trkpt><trkpt lat="45.17720850818541" lon="10.548291890153884"><ele>31.0</ele><time>2026-05-02T06:44:30.999Z</time></trkpt><trkpt lat="45.17739315430375" lon="10.548189412878765"><ele>31.0</ele><time>2026-05-02T06:44:31.999Z</time></trkpt><trkpt lat="45.17757961386823" lon="10.548054627295192"><ele>31.0</ele><time>2026-05-02T06:44:32.999Z</time></trkpt><trkpt lat="45.17776217508643" lon="10.547902186671784"><ele>31.0</ele><time>2026-05-02T06:44:33.999Z</time></trkpt><trkpt lat="45.1779237168039" lon="10.547785933758526"><ele>31.0</ele><time>2026-05-02T06:44:34.999Z</time></trkpt><trkpt lat="45.17809884331633" lon="10.547614805015302"><ele>31.0</ele><time>2026-05-02T06:44:35.999Z</time></trkpt><trkpt lat="45.17826613663692" lon="10.547459486563062"><ele>31.0</ele><time>2026-05-02T06:44:36.999Z</time></trkpt><trkpt lat="45.17841901107732" lon="10.5473108520394"><ele>31.0</ele><time>2026-05-02T06:44:37.999Z</time></trkpt><trkpt lat="45.178545568899594" lon="10.54713219760221"><ele>31.0</ele><time>2026-05-02T06:44:38.999Z</time></trkpt><trkpt lat="45.17863356628258" lon="10.546933367534288"><ele>31.0</ele><time>2026-05-02T06:44:39.999Z</time></trkpt><trkpt lat="45.178725548919914" lon="10.546773321449788"><ele>31.000000000000004</ele><time>2026-05-02T06:44:40.999Z</time></trkpt><trkpt lat="45.17877530268278" lon="10.546644363281938"><ele>31.0</ele><time>2026-05-02T06:44:41.999Z</time></trkpt><trkpt lat="45.178834465518705" lon="10.546539147548744"><ele>31.0</ele><time>2026-05-02T06:44:42.999Z</time></trkpt><trkpt lat="45.1789009483124" lon="10.54646242433315"><ele>31.0</ele><time>2026-05-02T06:44:43.999Z</time></trkpt><trkpt lat="45.17895703496601" lon="10.546405427019481"><ele>31.000000000000004</ele><time>2026-05-02T06:44:44.999Z</time></trkpt><trkpt lat="45.17902343188758" lon="10.54631802138955"><ele>31.0</ele><time>2026-05-02T06:44:46.999Z</time></trkpt><trkpt lat="45.17913051899198" lon="10.546525624899214"><ele>31.0</ele><time>2026-05-02T06:44:47.999Z</time></trkpt><trkpt lat="45.17918793696747" lon="10.54662205986962"><ele>31.0</ele><time>2026-05-02T06:44:48.999Z</time></trkpt><trkpt lat="45.17925693177969" lon="10.546737937313656"><ele>31.0</ele><time>2026-05-02T06:44:49.999Z</time></trkpt><trkpt lat="45.179334226538685" lon="10.546867755184293"><ele>31.0</ele><time>2026-05-02T06:44:50.999Z</time></trkpt><trkpt lat="45.17942248129143" lon="10.547014012222581"><ele>30.666666666666668</ele><time>2026-05-02T06:44:51.999Z</time></trkpt><trkpt lat="45.17951628488683" lon="10.547171690217455"><ele>30.333333333333336</ele><time>2026-05-02T06:44:52.999Z</time></trkpt><trkpt lat="45.17963463027847" lon="10.54733466773235"><ele>30.0</ele><time>2026-05-02T06:44:53.999Z</time></trkpt><trkpt lat="45.17973762083442" lon="10.54752600712363"><ele>30.0</ele><time>2026-05-02T06:44:54.999Z</time></trkpt><trkpt lat="45.17984726128591" lon="10.547724043828778"><ele>30.0</ele><time>2026-05-02T06:44:55.999Z</time></trkpt><trkpt lat="45.17996633108042" lon="10.547926920124638"><ele>30.0</ele><time>2026-05-02T06:44:56.999Z</time></trkpt><trkpt lat="45.180084390051654" lon="10.548124956029868"><ele>30.0</ele><time>2026-05-02T06:44:57.999Z</time></trkpt><trkpt lat="45.18020701774056" lon="10.548326970328343"><ele>30.0</ele><time>2026-05-02T06:44:58.999Z</time></trkpt><trkpt lat="45.18033542347691" lon="10.548537034466891"><ele>30.0</ele><time>2026-05-02T06:44:59.999Z</time></trkpt><trkpt lat="45.18046673200552" lon="10.548756723573158"><ele>30.333333333333336</ele><time>2026-05-02T06:45:00.999Z</time></trkpt><trkpt lat="45.18060051386405" lon="10.548982141987215"><ele>30.666666666666668</ele><time>2026-05-02T06:45:01.999Z</time></trkpt><trkpt lat="45.18074271735072" lon="10.549217165100965"><ele>31.0</ele><time>2026-05-02T06:45:02.999Z</time></trkpt><trkpt lat="45.18088859895033" lon="10.549460929815929"><ele>30.5</ele><time>2026-05-02T06:45:03.999Z</time></trkpt><trkpt lat="45.18104028189893" lon="10.549713242701172"><ele>30.0</ele><time>2026-05-02T06:45:04.999Z</time></trkpt><trkpt lat="45.181199388052754" lon="10.54997872706049"><ele>30.0</ele><time>2026-05-02T06:45:05.999Z</time></trkpt><trkpt lat="45.1813793052337" lon="10.550277551829822"><ele>30.0</ele><time>2026-05-02T06:45:06.999Z</time></trkpt><trkpt lat="45.18157352674601" lon="10.550600150338811"><ele>31.0</ele><time>2026-05-02T06:45:07.999Z</time></trkpt><trkpt lat="45.1817693349235" lon="10.550931393628098"><ele>32.0</ele><time>2026-05-02T06:45:08.999Z</time></trkpt><trkpt lat="45.1819599577616" lon="10.551251936918625"><ele>32.0</ele><time>2026-05-02T06:45:09.999Z</time></trkpt><trkpt lat="45.18214647315619" lon="10.551565344582752"><ele>32.0</ele><time>2026-05-02T06:45:10.999Z</time></trkpt><trkpt lat="45.18233034014684" lon="10.551873431085411"><ele>32.5</ele><time>2026-05-02T06:45:11.999Z</time></trkpt><trkpt lat="45.1825098015155" lon="10.552176485500313"><ele>33.0</ele><time>2026-05-02T06:45:12.999Z</time></trkpt><trkpt lat="45.182679986124114" lon="10.55246443804266"><ele>33.0</ele><time>2026-05-02T06:45:13.999Z</time></trkpt><trkpt lat="45.18284674440201" lon="10.552740330794844"><ele>33.0</ele><time>2026-05-02T06:45:14.999Z</time></trkpt><trkpt lat="45.183011086348905" lon="10.553013889398681"><ele>32.5</ele><time>2026-05-02T06:45:15.999Z</time></trkpt><trkpt lat="45.183173754325956" lon="10.553285688177452"><ele>32.0</ele><time>2026-05-02T06:45:16.999Z</time></trkpt><trkpt lat="45.18332418742573" lon="10.553567735424572"><ele>32.0</ele><time>2026-05-02T06:45:17.999Z</time></trkpt><trkpt lat="45.18348994748885" lon="10.553843828828423"><ele>32.0</ele><time>2026-05-02T06:45:18.999Z</time></trkpt><trkpt lat="45.18365623433455" lon="10.554120799784627"><ele>32.0</ele><time>2026-05-02T06:45:19.999Z</time></trkpt><trkpt lat="45.183823113125264" lon="10.554398756707142"><ele>32.0</ele><time>2026-05-02T06:45:21Z</time></trkpt><trkpt lat="45.18399101056002" lon="10.554678408794146"><ele>32.5</ele><time>2026-05-02T06:45:22Z</time></trkpt><trkpt lat="45.18418146199687" lon="10.554936870313508"><ele>33.0</ele><time>2026-05-02T06:45:23Z</time></trkpt><trkpt lat="45.184345236589174" lon="10.555227822230362"><ele>33.0</ele><time>2026-05-02T06:45:24Z</time></trkpt><trkpt lat="45.18451178477734" lon="10.555517625133607"><ele>33.0</ele><time>2026-05-02T06:45:25Z</time></trkpt><trkpt lat="45.18467805728548" lon="10.555795489921424"><ele>33.0</ele><time>2026-05-02T06:45:26Z</time></trkpt><trkpt lat="45.184836259892926" lon="10.556053094926806"><ele>33.0</ele><time>2026-05-02T06:45:27Z</time></trkpt><trkpt lat="45.18498019541758" lon="10.556294283693875"><ele>33.0</ele><time>2026-05-02T06:45:28Z</time></trkpt><trkpt lat="45.185112450524855" lon="10.55652216038284"><ele>33.0</ele><time>2026-05-02T06:45:29Z</time></trkpt><trkpt lat="45.1852358059279" lon="10.556733686625925"><ele>33.0</ele><time>2026-05-02T06:45:30Z</time></trkpt><trkpt lat="45.18535698498872" lon="10.556929931734002"><ele>33.0</ele><time>2026-05-02T06:45:31Z</time></trkpt><trkpt lat="45.185482298344226" lon="10.557124857250095"><ele>33.0</ele><time>2026-05-02T06:45:32Z</time></trkpt><trkpt lat="45.18560834668839" lon="10.557324388602071"><ele>33.0</ele><time>2026-05-02T06:45:33Z</time></trkpt><trkpt lat="45.18571680984973" lon="10.557564933717691"><ele>33.0</ele><time>2026-05-02T06:45:34Z</time></trkpt><trkpt lat="45.185854135947295" lon="10.557795985936623"><ele>33.0</ele><time>2026-05-02T06:45:35Z</time></trkpt><trkpt lat="45.186011709769645" lon="10.558036366505153"><ele>33.0</ele><time>2026-05-02T06:45:36Z</time></trkpt><trkpt lat="45.18617976182223" lon="10.558315363732113"><ele>32.5</ele><time>2026-05-02T06:45:37Z</time></trkpt><trkpt lat="45.186349251403115" lon="10.558596969560499"><ele>32.0</ele><time>2026-05-02T06:45:38Z</time></trkpt><trkpt lat="45.18651604188704" lon="10.558873151941965"><ele>33.0</ele><time>2026-05-02T06:45:39Z</time></trkpt><trkpt lat="45.1866822633271" lon="10.559148543674112"><ele>34.0</ele><time>2026-05-02T06:45:40Z</time></trkpt><trkpt lat="45.18684386581082" lon="10.559420683001358"><ele>33.5</ele><time>2026-05-02T06:45:41Z</time></trkpt><trkpt lat="45.18700952744451" lon="10.559699640412994"><ele>33.0</ele><time>2026-05-02T06:45:42Z</time></trkpt><trkpt lat="45.18718673681906" lon="10.559996305093003"><ele>33.0</ele><time>2026-05-02T06:45:43Z</time></trkpt><trkpt lat="45.187368765062395" lon="10.560296822407519"><ele>33.0</ele><time>2026-05-02T06:45:44Z</time></trkpt><trkpt lat="45.18754923951497" lon="10.560589974271764"><ele>33.0</ele><time>2026-05-02T06:45:45Z</time></trkpt><trkpt lat="45.187710889196026" lon="10.560897347423646"><ele>33.0</ele><time>2026-05-02T06:45:46Z</time></trkpt><trkpt lat="45.187882527085584" lon="10.56118552563786"><ele>32.5</ele><time>2026-05-02T06:45:47Z</time></trkpt><trkpt lat="45.18805265750681" lon="10.56147072320602"><ele>32.0</ele><time>2026-05-02T06:45:48Z</time></trkpt><trkpt lat="45.18823107030838" lon="10.561746782460656"><ele>32.0</ele><time>2026-05-02T06:45:49Z</time></trkpt><trkpt lat="45.18839821412112" lon="10.562034952918976"><ele>32.0</ele><time>2026-05-02T06:45:50Z</time></trkpt><trkpt lat="45.18856663816571" lon="10.562319821472652"><ele>32.0</ele><time>2026-05-02T06:45:51Z</time></trkpt><trkpt lat="45.18873285056109" lon="10.562601028308457"><ele>32.0</ele><time>2026-05-02T06:45:52Z</time></trkpt><trkpt lat="45.18889825674101" lon="10.562877288048444"><ele>32.0</ele><time>2026-05-02T06:45:53Z</time></trkpt><trkpt lat="45.1890609518038" lon="10.56314828554243"><ele>32.0</ele><time>2026-05-02T06:45:54Z</time></trkpt><trkpt lat="45.1892175063255" lon="10.563410951635035"><ele>32.0</ele><time>2026-05-02T06:45:55Z</time></trkpt><trkpt lat="45.18936716928713" lon="10.563666618141799"><ele>32.0</ele><time>2026-05-02T06:45:56Z</time></trkpt><trkpt lat="45.18951908493091" lon="10.563920709447142"><ele>32.0</ele><time>2026-05-02T06:45:57Z</time></trkpt><trkpt lat="45.189672387371736" lon="10.56417472329724"><ele>32.0</ele><time>2026-05-02T06:45:58Z</time></trkpt><trkpt lat="45.18982962044868" lon="10.564431672169984"><ele>32.5</ele><time>2026-05-02T06:45:59Z</time></trkpt><trkpt lat="45.189986030575675" lon="10.564693518088523"><ele>33.0</ele><time>2026-05-02T06:46:00Z</time></trkpt><trkpt lat="45.19014331865975" lon="10.564958535408103"><ele>33.0</ele><time>2026-05-02T06:46:01Z</time></trkpt><trkpt lat="45.19029766201937" lon="10.565220815339359"><ele>33.0</ele><time>2026-05-02T06:46:02Z</time></trkpt><trkpt lat="45.19045042499819" lon="10.565478793614709"><ele>33.0</ele><time>2026-05-02T06:46:03Z</time></trkpt><trkpt lat="45.19059275714183" lon="10.565721370217458"><ele>33.0</ele><time>2026-05-02T06:46:04Z</time></trkpt><trkpt lat="45.190725655564975" lon="10.565945853191176"><ele>33.0</ele><time>2026-05-02T06:46:05Z</time></trkpt><trkpt lat="45.19085496130683" lon="10.56616041558413"><ele>33.0</ele><time>2026-05-02T06:46:06Z</time></trkpt><trkpt lat="45.190981443845985" lon="10.566371168205393"><ele>33.0</ele><time>2026-05-02T06:46:07Z</time></trkpt><trkpt lat="45.19111050481009" lon="10.566585317602346"><ele>33.0</ele><time>2026-05-02T06:46:08Z</time></trkpt><trkpt lat="45.19123721959816" lon="10.566798927083992"><ele>33.0</ele><time>2026-05-02T06:46:09Z</time></trkpt><trkpt lat="45.19136117940541" lon="10.56700679610749"><ele>33.0</ele><time>2026-05-02T06:46:10Z</time></trkpt><trkpt lat="45.19148191277188" lon="10.567206966159794"><ele>33.0</ele><time>2026-05-02T06:46:11Z</time></trkpt><trkpt lat="45.191600708840525" lon="10.567403303617418"><ele>33.333333333333336</ele><time>2026-05-02T06:46:12Z</time></trkpt><trkpt lat="45.191718260340636" lon="10.567599919760768"><ele>33.66666666666667</ele><time>2026-05-02T06:46:13Z</time></trkpt><trkpt lat="45.191834787161454" lon="10.567791696342743"><ele>34.0</ele><time>2026-05-02T06:46:14Z</time></trkpt><trkpt lat="45.19195193867516" lon="10.567983079341534"><ele>33.333333333333336</ele><time>2026-05-02T06:46:15Z</time></trkpt><trkpt lat="45.19206952231927" lon="10.56817638640708"><ele>32.666666666666664</ele><time>2026-05-02T06:46:16Z</time></trkpt><trkpt lat="45.192187567668924" lon="10.568371771968735"><ele>32.0</ele><time>2026-05-02T06:46:16.999Z</time></trkpt><trkpt lat="45.19230581143076" lon="10.568569544600283"><ele>32.0</ele><time>2026-05-02T06:46:17.999Z</time></trkpt><trkpt lat="45.192422498923364" lon="10.568765372290072"><ele>32.0</ele><time>2026-05-02T06:46:18.999Z</time></trkpt><trkpt lat="45.19254089061769" lon="10.568960696995859"><ele>32.0</ele><time>2026-05-02T06:46:19.999Z</time></trkpt><trkpt lat="45.192649986397754" lon="10.569147334032841"><ele>32.0</ele><time>2026-05-02T06:46:20.999Z</time></trkpt><trkpt lat="45.19276242820977" lon="10.56933578460939"><ele>32.0</ele><time>2026-05-02T06:46:21.999Z</time></trkpt><trkpt lat="45.19287598793799" lon="10.56952862848816"><ele>32.0</ele><time>2026-05-02T06:46:22.999Z</time></trkpt><trkpt lat="45.1929921598567" lon="10.569722137465368"><ele>31.666666666666664</ele><time>2026-05-02T06:46:23.999Z</time></trkpt><trkpt lat="45.1931036366569" lon="10.56990656134744"><ele>31.333333333333336</ele><time>2026-05-02T06:46:24.999Z</time></trkpt><trkpt lat="45.19320796832955" lon="10.570077722104655"><ele>31.0</ele><time>2026-05-02T06:46:25.999Z</time></trkpt><trkpt lat="45.193306994111005" lon="10.570243644283346"><ele>31.75</ele><time>2026-05-02T06:46:26.999Z</time></trkpt><trkpt lat="45.1933919686168" lon="10.570390722128693"><ele>32.5</ele><time>2026-05-02T06:46:27.999Z</time></trkpt><trkpt lat="45.193474197007696" lon="10.570524174519722"><ele>33.25</ele><time>2026-05-02T06:46:28.999Z</time></trkpt><trkpt lat="45.19354753104609" lon="10.570655437760369"><ele>34.0</ele><time>2026-05-02T06:46:29.999Z</time></trkpt><trkpt lat="45.193615211411576" lon="10.570779201226966"><ele>34.0</ele><time>2026-05-02T06:46:30.999Z</time></trkpt><trkpt lat="45.19368437823293" lon="10.570890963937124"><ele>34.0</ele><time>2026-05-02T06:46:31.999Z</time></trkpt><trkpt lat="45.19375170426913" lon="10.570997123504837"><ele>34.0</ele><time>2026-05-02T06:46:32.999Z</time></trkpt><trkpt lat="45.193827133221085" lon="10.571094530033175"><ele>34.0</ele><time>2026-05-02T06:46:33.999Z</time></trkpt><trkpt lat="45.19391276684011" lon="10.571174427187874"><ele>34.0</ele><time>2026-05-02T06:46:34.999Z</time></trkpt><trkpt lat="45.194001802708044" lon="10.571241104535117"><ele>33.66666666666667</ele><time>2026-05-02T06:46:35.999Z</time></trkpt><trkpt lat="45.194089648342725" lon="10.57130453638407"><ele>33.333333333333336</ele><time>2026-05-02T06:46:36.999Z</time></trkpt><trkpt lat="45.194166791056794" lon="10.571359983088588"><ele>33.0</ele><time>2026-05-02T06:46:37.999Z</time></trkpt><trkpt lat="45.19423839667065" lon="10.571429762525668"><ele>32.666666666666664</ele><time>2026-05-02T06:46:38.999Z</time></trkpt><trkpt lat="45.19429121680581" lon="10.571514574339346"><ele>32.33333333333333</ele><time>2026-05-02T06:46:39.999Z</time></trkpt><trkpt lat="45.194340006153986" lon="10.57161990969423"><ele>32.0</ele><time>2026-05-02T06:46:40.999Z</time></trkpt><trkpt lat="45.19438418053302" lon="10.571728375226463"><ele>31.999999999999996</ele><time>2026-05-02T06:46:41.999Z</time></trkpt><trkpt lat="45.19442581387276" lon="10.571827718073731"><ele>32.0</ele><time>2026-05-02T06:46:42.999Z</time></trkpt><trkpt lat="45.194483859613975" lon="10.571925087425056"><ele>32.0</ele><time>2026-05-02T06:46:43.999Z</time></trkpt><trkpt lat="45.194555339056066" lon="10.572000203638323"><ele>32.0</ele><time>2026-05-02T06:46:44.999Z</time></trkpt><trkpt lat="45.194626440780425" lon="10.572063489103801"><ele>31.999999999999996</ele><time>2026-05-02T06:46:45.999Z</time></trkpt><trkpt lat="45.194686621737524" lon="10.572141164822167"><ele>32.0</ele><time>2026-05-02T06:46:46.999Z</time></trkpt><trkpt lat="45.19473103627567" lon="10.572253448738193"><ele>32.0</ele><time>2026-05-02T06:46:47.999Z</time></trkpt><trkpt lat="45.19476155217861" lon="10.572386680375008"><ele>32.0</ele><time>2026-05-02T06:46:48.999Z</time></trkpt><trkpt lat="45.194785198848415" lon="10.5725337257286"><ele>32.0</ele><time>2026-05-02T06:46:49.999Z</time></trkpt><trkpt lat="45.194814718019096" lon="10.57268589057643"><ele>32.0</ele><time>2026-05-02T06:46:50.999Z</time></trkpt><trkpt lat="45.19485422113516" lon="10.572824661492858"><ele>32.0</ele><time>2026-05-02T06:46:51.999Z</time></trkpt><trkpt lat="45.194907046693" lon="10.572943486777945"><ele>32.25</ele><time>2026-05-02T06:46:52.999Z</time></trkpt><trkpt lat="45.194970085238324" lon="10.573055085607034"><ele>32.5</ele><time>2026-05-02T06:46:53.999Z</time></trkpt><trkpt lat="45.19504687005621" lon="10.573169654485396"><ele>32.75</ele><time>2026-05-02T06:46:54.999Z</time></trkpt><trkpt lat="45.19513315440007" lon="10.573302183639708"><ele>33.0</ele><time>2026-05-02T06:46:55.999Z</time></trkpt><trkpt lat="45.195225739747144" lon="10.57345563862605"><ele>33.0</ele><time>2026-05-02T06:46:56.999Z</time></trkpt><trkpt lat="45.19532202560227" lon="10.573613665793914"><ele>33.0</ele><time>2026-05-02T06:46:57.999Z</time></trkpt><trkpt lat="45.19541578120872" lon="10.573775658929419"><ele>33.0</ele><time>2026-05-02T06:46:58.999Z</time></trkpt><trkpt lat="45.195506515974465" lon="10.573929770150086"><ele>33.0</ele><time>2026-05-02T06:46:59.999Z</time></trkpt><trkpt lat="45.19559391376088" lon="10.574077001377958"><ele>33.0</ele><time>2026-05-02T06:47:00.999Z</time></trkpt><trkpt lat="45.19568007472121" lon="10.57421953196434"><ele>33.0</ele><time>2026-05-02T06:47:01.999Z</time></trkpt><trkpt lat="45.19576430406566" lon="10.574361681119635"><ele>33.0</ele><time>2026-05-02T06:47:02.999Z</time></trkpt><trkpt lat="45.19585161950394" lon="10.574503104916367"><ele>33.0</ele><time>2026-05-02T06:47:03.999Z</time></trkpt><trkpt lat="45.19593855294697" lon="10.574644793840609"><ele>33.0</ele><time>2026-05-02T06:47:04.999Z</time></trkpt><trkpt lat="45.196015945414985" lon="10.574774881778513"><ele>33.0</ele><time>2026-05-02T06:47:05.999Z</time></trkpt><trkpt lat="45.19608113519239" lon="10.574883558030647"><ele>33.0</ele><time>2026-05-02T06:47:06.999Z</time></trkpt><trkpt lat="45.19614367907685" lon="10.574983981165751"><ele>33.0</ele><time>2026-05-02T06:47:07.999Z</time></trkpt><trkpt lat="45.19620454931015" lon="10.575078670393115"><ele>33.0</ele><time>2026-05-02T06:47:08.999Z</time></trkpt><trkpt lat="45.196260571343586" lon="10.575173736378584"><ele>33.0</ele><time>2026-05-02T06:47:09.999Z</time></trkpt><trkpt lat="45.19631461024587" lon="10.575260882863882"><ele>33.0</ele><time>2026-05-02T06:47:10.999Z</time></trkpt><trkpt lat="45.19636344866187" lon="10.575347909988526"><ele>33.0</ele><time>2026-05-02T06:47:11.999Z</time></trkpt><trkpt lat="45.19641170533195" lon="10.575431489421382"><ele>33.0</ele><time>2026-05-02T06:47:12.999Z</time></trkpt><trkpt lat="45.19646399183925" lon="10.575519696344607"><ele>33.0</ele><time>2026-05-02T06:47:13.999Z</time></trkpt><trkpt lat="45.196521490396016" lon="10.575618113651169"><ele>33.0</ele><time>2026-05-02T06:47:14.999Z</time></trkpt><trkpt lat="45.196585841810695" lon="10.575722378718023"><ele>33.5</ele><time>2026-05-02T06:47:15.999Z</time></trkpt><trkpt lat="45.19665869512296" lon="10.57583446162741"><ele>34.0</ele><time>2026-05-02T06:47:16.999Z</time></trkpt><trkpt lat="45.19673166542446" lon="10.57595461226771"><ele>34.5</ele><time>2026-05-02T06:47:17.999Z</time></trkpt><trkpt lat="45.19680907589035" lon="10.576083934888354"><ele>35.0</ele><time>2026-05-02T06:47:18.999Z</time></trkpt><trkpt lat="45.196884799422115" lon="10.576212822098212"><ele>35.0</ele><time>2026-05-02T06:47:19.999Z</time></trkpt><trkpt lat="45.1969545873498" lon="10.576341919728943"><ele>35.0</ele><time>2026-05-02T06:47:20.999Z</time></trkpt><trkpt lat="45.197025074404316" lon="10.576467239773892"><ele>35.0</ele><time>2026-05-02T06:47:21.999Z</time></trkpt><trkpt lat="45.19710059917497" lon="10.576593270326589"><ele>35.0</ele><time>2026-05-02T06:47:22.999Z</time></trkpt><trkpt lat="45.197178962667266" lon="10.576719018001102"><ele>35.0</ele><time>2026-05-02T06:47:23.999Z</time></trkpt><trkpt lat="45.197258428220074" lon="10.576852120240448"><ele>35.0</ele><time>2026-05-02T06:47:24.999Z</time></trkpt><trkpt lat="45.19733949904039" lon="10.576988445084945"><ele>35.0</ele><time>2026-05-02T06:47:25.999Z</time></trkpt><trkpt lat="45.197420627338026" lon="10.577123435814674"><ele>35.0</ele><time>2026-05-02T06:47:27Z</time></trkpt><trkpt lat="45.19749997837542" lon="10.57725531688049"><ele>34.75</ele><time>2026-05-02T06:47:28Z</time></trkpt><trkpt lat="45.197579606876495" lon="10.577386913129978"><ele>34.5</ele><time>2026-05-02T06:47:29Z</time></trkpt><trkpt lat="45.19766096535762" lon="10.577520581146517"><ele>34.25</ele><time>2026-05-02T06:47:30Z</time></trkpt><trkpt lat="45.1977421201344" lon="10.577655905964079"><ele>34.0</ele><time>2026-05-02T06:47:31Z</time></trkpt><trkpt lat="45.19782338366623" lon="10.57779253840741"><ele>34.0</ele><time>2026-05-02T06:47:32Z</time></trkpt><trkpt lat="45.19790520570586" lon="10.577929306749736"><ele>34.0</ele><time>2026-05-02T06:47:33Z</time></trkpt><trkpt lat="45.19799107016732" lon="10.578068904748093"><ele>34.0</ele><time>2026-05-02T06:47:34Z</time></trkpt><trkpt lat="45.198078046492114" lon="10.578211783407196"><ele>34.0</ele><time>2026-05-02T06:47:35Z</time></trkpt><trkpt lat="45.198166873569" lon="10.57835612963421"><ele>34.25</ele><time>2026-05-02T06:47:36Z</time></trkpt><trkpt lat="45.198253388024625" lon="10.578502798389856"><ele>34.5</ele><time>2026-05-02T06:47:37Z</time></trkpt><trkpt lat="45.198330857112765" lon="10.578640286769835"><ele>34.75</ele><time>2026-05-02T06:47:38Z</time></trkpt><trkpt lat="45.19840611635883" lon="10.578776075570419"><ele>35.0</ele><time>2026-05-02T06:47:39Z</time></trkpt><trkpt lat="45.19848057397141" lon="10.578914058080676"><ele>35.25</ele><time>2026-05-02T06:47:40Z</time></trkpt><trkpt lat="45.19855622444136" lon="10.57904940459168"><ele>35.5</ele><time>2026-05-02T06:47:41Z</time></trkpt><trkpt lat="45.19862898076976" lon="10.579180707348483"><ele>35.75</ele><time>2026-05-02T06:47:42Z</time></trkpt><trkpt lat="45.19870429770166" lon="10.57930892536798"><ele>36.0</ele><time>2026-05-02T06:47:43Z</time></trkpt><trkpt lat="45.198778411005584" lon="10.579440500553803"><ele>35.75</ele><time>2026-05-02T06:47:44Z</time></trkpt><trkpt lat="45.1988521650136" lon="10.579573988542478"><ele>35.5</ele><time>2026-05-02T06:47:45Z</time></trkpt><trkpt lat="45.198927833674595" lon="10.579708069135165"><ele>35.25</ele><time>2026-05-02T06:47:46Z</time></trkpt><trkpt lat="45.19900271463733" lon="10.579838057124336"><ele>35.0</ele><time>2026-05-02T06:47:47Z</time></trkpt><trkpt lat="45.19907574646143" lon="10.57996301172067"><ele>35.25</ele><time>2026-05-02T06:47:48Z</time></trkpt><trkpt lat="45.199150630473014" lon="10.580087108110597"><ele>35.5</ele><time>2026-05-02T06:47:49Z</time></trkpt><trkpt lat="45.19922459691907" lon="10.5802140172712"><ele>35.75</ele><time>2026-05-02T06:47:50Z</time></trkpt><trkpt lat="45.199296711616384" lon="10.580341448146793"><ele>36.0</ele><time>2026-05-02T06:47:51Z</time></trkpt><trkpt lat="45.1993696762221" lon="10.580467544835772"><ele>36.0</ele><time>2026-05-02T06:47:52Z</time></trkpt><trkpt lat="45.19944292320572" lon="10.580590344190888"><ele>36.0</ele><time>2026-05-02T06:47:53Z</time></trkpt><trkpt lat="45.19951256367913" lon="10.580708365786455"><ele>36.0</ele><time>2026-05-02T06:47:54Z</time></trkpt><trkpt lat="45.19958157572448" lon="10.5808199336812"><ele>36.0</ele><time>2026-05-02T06:47:55Z</time></trkpt><trkpt lat="45.199647545948594" lon="10.580931311953192"><ele>36.0</ele><time>2026-05-02T06:47:56Z</time></trkpt><trkpt lat="45.19970169772651" lon="10.581060296961757"><ele>36.0</ele><time>2026-05-02T06:47:57Z</time></trkpt><trkpt lat="45.19977987973017" lon="10.581156649273659"><ele>36.0</ele><time>2026-05-02T06:47:58Z</time></trkpt><trkpt lat="45.19984442505727" lon="10.581263402945238"><ele>36.0</ele><time>2026-05-02T06:47:59Z</time></trkpt><trkpt lat="45.199914061391574" lon="10.581368840904192"><ele>36.0</ele><time>2026-05-02T06:48:00Z</time></trkpt><trkpt lat="45.19998797576367" lon="10.581474267620395"><ele>36.0</ele><time>2026-05-02T06:48:01Z</time></trkpt><trkpt lat="45.20006622107126" lon="10.58158528851577"><ele>35.75</ele><time>2026-05-02T06:48:02Z</time></trkpt><trkpt lat="45.20014746517598" lon="10.581700040067078"><ele>35.5</ele><time>2026-05-02T06:48:03Z</time></trkpt><trkpt lat="45.20022785229288" lon="10.581816712265532"><ele>35.25</ele><time>2026-05-02T06:48:04Z</time></trkpt><trkpt lat="45.200308661214635" lon="10.581937073471966"><ele>35.0</ele><time>2026-05-02T06:48:05Z</time></trkpt><trkpt lat="45.200387510280564" lon="10.582058223767199"><ele>34.75</ele><time>2026-05-02T06:48:06Z</time></trkpt><trkpt lat="45.20046059896506" lon="10.582188080911957"><ele>34.5</ele><time>2026-05-02T06:48:07Z</time></trkpt><trkpt lat="45.20053039295214" lon="10.582320197604638"><ele>34.25</ele><time>2026-05-02T06:48:08Z</time></trkpt><trkpt lat="45.20059422535028" lon="10.582454247594471"><ele>34.0</ele><time>2026-05-02T06:48:09Z</time></trkpt><trkpt lat="45.20065547090183" lon="10.582588428605023"><ele>34.25</ele><time>2026-05-02T06:48:10Z</time></trkpt><trkpt lat="45.200718199538734" lon="10.582723334114954"><ele>34.5</ele><time>2026-05-02T06:48:11Z</time></trkpt><trkpt lat="45.200784506018024" lon="10.582855784483776"><ele>34.75</ele><time>2026-05-02T06:48:12Z</time></trkpt><trkpt lat="45.200854972085054" lon="10.582986046072504"><ele>35.0</ele><time>2026-05-02T06:48:13Z</time></trkpt><trkpt lat="45.20092630250096" lon="10.583115820616907"><ele>35.0</ele><time>2026-05-02T06:48:14Z</time></trkpt><trkpt lat="45.20099825672638" lon="10.58324544351164"><ele>35.0</ele><time>2026-05-02T06:48:15Z</time></trkpt><trkpt lat="45.201059981287294" lon="10.583389912154226"><ele>35.0</ele><time>2026-05-02T06:48:16Z</time></trkpt><trkpt lat="45.20114905531871" lon="10.58350683860477"><ele>35.0</ele><time>2026-05-02T06:48:17Z</time></trkpt><trkpt lat="45.20122719785427" lon="10.583639606888081"><ele>35.0</ele><time>2026-05-02T06:48:18Z</time></trkpt><trkpt lat="45.201303117451985" lon="10.583774114386019"><ele>35.0</ele><time>2026-05-02T06:48:19Z</time></trkpt><trkpt lat="45.20138141148777" lon="10.583910710210368"><ele>35.0</ele><time>2026-05-02T06:48:20Z</time></trkpt><trkpt lat="45.20146392851121" lon="10.58404915337121"><ele>35.0</ele><time>2026-05-02T06:48:21Z</time></trkpt><trkpt lat="45.20154936592266" lon="10.584186701230589"><ele>35.0</ele><time>2026-05-02T06:48:22Z</time></trkpt><trkpt lat="45.20162363309188" lon="10.58434067136154"><ele>35.0</ele><time>2026-05-02T06:48:23Z</time></trkpt><trkpt lat="45.201712165861004" lon="10.584480111470757"><ele>35.0</ele><time>2026-05-02T06:48:24Z</time></trkpt><trkpt lat="45.201816148091936" lon="10.58460285796219"><ele>35.0</ele><time>2026-05-02T06:48:25Z</time></trkpt><trkpt lat="45.20189566471039" lon="10.584756589921309"><ele>35.0</ele><time>2026-05-02T06:48:26Z</time></trkpt><trkpt lat="45.20198884013242" lon="10.58489534105476"><ele>35.0</ele><time>2026-05-02T06:48:27Z</time></trkpt><trkpt lat="45.20208271709556" lon="10.585035136942313"><ele>35.0</ele><time>2026-05-02T06:48:28Z</time></trkpt><trkpt lat="45.20217776716732" lon="10.585176676885032"><ele>35.0</ele><time>2026-05-02T06:48:29Z</time></trkpt><trkpt lat="45.20227250862125" lon="10.585318360961404"><ele>35.0</ele><time>2026-05-02T06:48:30Z</time></trkpt><trkpt lat="45.20237872290469" lon="10.585444992749926"><ele>35.0</ele><time>2026-05-02T06:48:31Z</time></trkpt><trkpt lat="45.20247108526562" lon="10.585586094444364"><ele>35.0</ele><time>2026-05-02T06:48:32Z</time></trkpt><trkpt lat="45.20256054613182" lon="10.585725474055831"><ele>35.0</ele><time>2026-05-02T06:48:33Z</time></trkpt><trkpt lat="45.20264285974339" lon="10.58586184486783"><ele>35.0</ele><time>2026-05-02T06:48:34Z</time></trkpt><trkpt lat="45.20272655978106" lon="10.586001190489002"><ele>35.0</ele><time>2026-05-02T06:48:35Z</time></trkpt><trkpt lat="45.202812160810616" lon="10.58614213479046"><ele>35.0</ele><time>2026-05-02T06:48:36Z</time></trkpt><trkpt lat="45.20289511643365" lon="10.586283819690497"><ele>35.0</ele><time>2026-05-02T06:48:37Z</time></trkpt><trkpt lat="45.20297892188932" lon="10.586427314561368"><ele>35.0</ele><time>2026-05-02T06:48:38Z</time></trkpt><trkpt lat="45.2030640574824" lon="10.586574472199578"><ele>35.0</ele><time>2026-05-02T06:48:39Z</time></trkpt><trkpt lat="45.20315012640468" lon="10.586724324966198"><ele>35.0</ele><time>2026-05-02T06:48:39.999Z</time></trkpt><trkpt lat="45.20323801308331" lon="10.586875250368175"><ele>35.0</ele><time>2026-05-02T06:48:40.999Z</time></trkpt><trkpt lat="45.20332671004584" lon="10.587028833613804"><ele>34.75</ele><time>2026-05-02T06:48:41.999Z</time></trkpt><trkpt lat="45.203416240725595" lon="10.587183435280979"><ele>34.5</ele><time>2026-05-02T06:48:42.999Z</time></trkpt><trkpt lat="45.203508171669846" lon="10.587341634357536"><ele>34.25</ele><time>2026-05-02T06:48:43.999Z</time></trkpt><trkpt lat="45.203602820756025" lon="10.587504011990902"><ele>34.0</ele><time>2026-05-02T06:48:44.999Z</time></trkpt><trkpt lat="45.20370082910704" lon="10.587674350981677"><ele>34.0</ele><time>2026-05-02T06:48:45.999Z</time></trkpt><trkpt lat="45.20380068494922" lon="10.587851807332369"><ele>34.0</ele><time>2026-05-02T06:48:46.999Z</time></trkpt><trkpt lat="45.20390559586456" lon="10.588030134707244"><ele>34.0</ele><time>2026-05-02T06:48:47.999Z</time></trkpt><trkpt lat="45.204009729909565" lon="10.58820885496268"><ele>34.0</ele><time>2026-05-02T06:48:48.999Z</time></trkpt><trkpt lat="45.20411310965045" lon="10.588389329388255"><ele>34.0</ele><time>2026-05-02T06:48:49.999Z</time></trkpt><trkpt lat="45.204217680277395" lon="10.588571963800002"><ele>34.0</ele><time>2026-05-02T06:48:50.999Z</time></trkpt><trkpt lat="45.20432351964007" lon="10.588757735157921"><ele>34.0</ele><time>2026-05-02T06:48:51.999Z</time></trkpt><trkpt lat="45.204433416693725" lon="10.588946356632185"><ele>34.0</ele><time>2026-05-02T06:48:52.999Z</time></trkpt><trkpt lat="45.20454639883045" lon="10.589139740688893"><ele>34.0</ele><time>2026-05-02T06:48:53.999Z</time></trkpt><trkpt lat="45.20466403385536" lon="10.589342175180876"><ele>34.0</ele><time>2026-05-02T06:48:54.999Z</time></trkpt><trkpt lat="45.20478652094747" lon="10.589546446897334"><ele>34.0</ele><time>2026-05-02T06:48:55.999Z</time></trkpt><trkpt lat="45.2049091368327" lon="10.589752220015058"><ele>34.0</ele><time>2026-05-02T06:48:56.999Z</time></trkpt><trkpt lat="45.20503273889503" lon="10.58995945806742"><ele>34.0</ele><time>2026-05-02T06:48:57.999Z</time></trkpt><trkpt lat="45.20515304890864" lon="10.590166507564177"><ele>34.0</ele><time>2026-05-02T06:48:58.999Z</time></trkpt><trkpt lat="45.20526814545107" lon="10.590365500937537"><ele>34.0</ele><time>2026-05-02T06:48:59.999Z</time></trkpt><trkpt lat="45.20538108949124" lon="10.590557688388092"><ele>34.0</ele><time>2026-05-02T06:49:00.999Z</time></trkpt><trkpt lat="45.20549198825512" lon="10.590741451682907"><ele>34.0</ele><time>2026-05-02T06:49:01.999Z</time></trkpt><trkpt lat="45.205603948324146" lon="10.590926503071413"><ele>34.0</ele><time>2026-05-02T06:49:02.999Z</time></trkpt><trkpt lat="45.20571860954548" lon="10.591116604459193"><ele>34.0</ele><time>2026-05-02T06:49:03.999Z</time></trkpt><trkpt lat="45.20583576607538" lon="10.591310592040847"><ele>34.0</ele><time>2026-05-02T06:49:04.999Z</time></trkpt><trkpt lat="45.205954794431086" lon="10.591507720940472"><ele>34.0</ele><time>2026-05-02T06:49:05.999Z</time></trkpt><trkpt lat="45.2060736688621" lon="10.591706520668728"><ele>34.0</ele><time>2026-05-02T06:49:06.999Z</time></trkpt><trkpt lat="45.20619315843453" lon="10.591906287329875"><ele>34.0</ele><time>2026-05-02T06:49:07.999Z</time></trkpt><trkpt lat="45.20631287521596" lon="10.592104074296273"><ele>34.0</ele><time>2026-05-02T06:49:08.999Z</time></trkpt><trkpt lat="45.206427913042724" lon="10.59229427676588"><ele>33.66666666666667</ele><time>2026-05-02T06:49:09.999Z</time></trkpt><trkpt lat="45.206537121046686" lon="10.592469930499398"><ele>33.333333333333336</ele><time>2026-05-02T06:49:10.999Z</time></trkpt><trkpt lat="45.206648519212834" lon="10.592643832309333"><ele>33.0</ele><time>2026-05-02T06:49:11.999Z</time></trkpt><trkpt lat="45.206753348943714" lon="10.592819710031222"><ele>33.666666666666664</ele><time>2026-05-02T06:49:12.999Z</time></trkpt><trkpt lat="45.20685491226342" lon="10.592991602818799"><ele>34.33333333333333</ele><time>2026-05-02T06:49:13.999Z</time></trkpt><trkpt lat="45.20695469283302" lon="10.593161425546919"><ele>35.0</ele><time>2026-05-02T06:49:14.999Z</time></trkpt><trkpt lat="45.207055041988426" lon="10.593330923762428"><ele>35.0</ele><time>2026-05-02T06:49:15.999Z</time></trkpt><trkpt lat="45.20715517074328" lon="10.593496637212953"><ele>35.0</ele><time>2026-05-02T06:49:16.999Z</time></trkpt><trkpt lat="45.207254287674814" lon="10.593662359250152"><ele>35.0</ele><time>2026-05-02T06:49:17.999Z</time></trkpt><trkpt lat="45.20735324609916" lon="10.59382916849123"><ele>35.0</ele><time>2026-05-02T06:49:18.999Z</time></trkpt><trkpt lat="45.20745572003797" lon="10.594000138564834"><ele>35.0</ele><time>2026-05-02T06:49:19.999Z</time></trkpt><trkpt lat="45.2075615968091" lon="10.594175867291323"><ele>35.0</ele><time>2026-05-02T06:49:20.999Z</time></trkpt><trkpt lat="45.20767054111879" lon="10.594357418299499"><ele>35.33333333333333</ele><time>2026-05-02T06:49:21.999Z</time></trkpt><trkpt lat="45.20778362365369" lon="10.59454373219217"><ele>35.666666666666664</ele><time>2026-05-02T06:49:22.999Z</time></trkpt><trkpt lat="45.20790100275772" lon="10.594736539400378"><ele>36.0</ele><time>2026-05-02T06:49:23.999Z</time></trkpt><trkpt lat="45.20801708825395" lon="10.594925719583829"><ele>36.0</ele><time>2026-05-02T06:49:24.999Z</time></trkpt><trkpt lat="45.20813519422052" lon="10.595110599746613"><ele>36.0</ele><time>2026-05-02T06:49:25.999Z</time></trkpt><trkpt lat="45.20825195859434" lon="10.595295699462289"><ele>36.0</ele><time>2026-05-02T06:49:26.999Z</time></trkpt><trkpt lat="45.20836830198706" lon="10.595479224588807"><ele>36.0</ele><time>2026-05-02T06:49:27.999Z</time></trkpt><trkpt lat="45.208486160478095" lon="10.595665568559326"><ele>36.0</ele><time>2026-05-02T06:49:28.999Z</time></trkpt><trkpt lat="45.20860712621334" lon="10.595856011728218"><ele>36.0</ele><time>2026-05-02T06:49:29.999Z</time></trkpt><trkpt lat="45.20873113431502" lon="10.596050523631074"><ele>36.333333333333336</ele><time>2026-05-02T06:49:30.999Z</time></trkpt><trkpt lat="45.208854414876136" lon="10.59624469913269"><ele>36.66666666666667</ele><time>2026-05-02T06:49:31.999Z</time></trkpt><trkpt lat="45.2089829669908" lon="10.596441307720285"><ele>37.0</ele><time>2026-05-02T06:49:33Z</time></trkpt><trkpt lat="45.20910936813323" lon="10.596643585010607"><ele>36.66666666666667</ele><time>2026-05-02T06:49:34Z</time></trkpt><trkpt lat="45.2092399954445" lon="10.596850085019007"><ele>36.333333333333336</ele><time>2026-05-02T06:49:35Z</time></trkpt><trkpt lat="45.209373430717406" lon="10.597060512882827"><ele>36.0</ele><time>2026-05-02T06:49:36Z</time></trkpt><trkpt lat="45.209507944302956" lon="10.597277765798514"><ele>36.0</ele><time>2026-05-02T06:49:37Z</time></trkpt><trkpt lat="45.20964705499877" lon="10.597499234552178"><ele>36.0</ele><time>2026-05-02T06:49:38Z</time></trkpt><trkpt lat="45.209789050560815" lon="10.597727694499401"><ele>36.0</ele><time>2026-05-02T06:49:39Z</time></trkpt><trkpt lat="45.209936301115235" lon="10.597967321216252"><ele>35.0</ele><time>2026-05-02T06:49:40Z</time></trkpt><trkpt lat="45.21009144821896" lon="10.598223742392042"><ele>34.0</ele><time>2026-05-02T06:49:41Z</time></trkpt><trkpt lat="45.21025196379423" lon="10.598491048053276"><ele>34.0</ele><time>2026-05-02T06:49:42Z</time></trkpt><trkpt lat="45.210422644526176" lon="10.598775838257719"><ele>34.0</ele><time>2026-05-02T06:49:43Z</time></trkpt><trkpt lat="45.21059861515772" lon="10.599069293840614"><ele>34.0</ele><time>2026-05-02T06:49:44Z</time></trkpt><trkpt lat="45.210774697177364" lon="10.599362009730639"><ele>34.0</ele><time>2026-05-02T06:49:45Z</time></trkpt><trkpt lat="45.21094868589326" lon="10.5996516541069"><ele>34.0</ele><time>2026-05-02T06:49:46Z</time></trkpt><trkpt lat="45.21112511211143" lon="10.59994302523589"><ele>34.0</ele><time>2026-05-02T06:49:47Z</time></trkpt><trkpt lat="45.211301331236335" lon="10.600234841306486"><ele>34.0</ele><time>2026-05-02T06:49:48Z</time></trkpt><trkpt lat="45.211476598015864" lon="10.600530525263569"><ele>34.0</ele><time>2026-05-02T06:49:49Z</time></trkpt><trkpt lat="45.21165528012478" lon="10.60083262578137"><ele>34.0</ele><time>2026-05-02T06:49:50Z</time></trkpt><trkpt lat="45.21183532171078" lon="10.601137946303732"><ele>34.0</ele><time>2026-05-02T06:49:51Z</time></trkpt><trkpt lat="45.21201890664785" lon="10.601441341518543"><ele>34.5</ele><time>2026-05-02T06:49:52Z</time></trkpt><trkpt lat="45.21220254895084" lon="10.601746272022664"><ele>35.0</ele><time>2026-05-02T06:49:53Z</time></trkpt><trkpt lat="45.21238365158346" lon="10.602045707421974"><ele>35.0</ele><time>2026-05-02T06:49:54Z</time></trkpt><trkpt lat="45.21256356343669" lon="10.602339095600358"><ele>35.0</ele><time>2026-05-02T06:49:55Z</time></trkpt><trkpt lat="45.212741617479814" lon="10.60262797203833"><ele>35.5</ele><time>2026-05-02T06:49:56Z</time></trkpt><trkpt lat="45.21291797025023" lon="10.602913601847224"><ele>36.0</ele><time>2026-05-02T06:49:57Z</time></trkpt><trkpt lat="45.213093654754836" lon="10.60319749808409"><ele>36.0</ele><time>2026-05-02T06:49:58Z</time></trkpt><trkpt lat="45.21326733719885" lon="10.603477956142928"><ele>36.0</ele><time>2026-05-02T06:49:59Z</time></trkpt><trkpt lat="45.21343447695021" lon="10.603752651473002"><ele>36.0</ele><time>2026-05-02T06:50:00Z</time></trkpt><trkpt lat="45.21359762138746" lon="10.604024119586596"><ele>36.0</ele><time>2026-05-02T06:50:01Z</time></trkpt><trkpt lat="45.213758183804025" lon="10.604291863795053"><ele>35.0</ele><time>2026-05-02T06:50:02Z</time></trkpt><trkpt lat="45.213918468106684" lon="10.604557016097697"><ele>34.0</ele><time>2026-05-02T06:50:03Z</time></trkpt><trkpt lat="45.2140794198743" lon="10.604823069847978"><ele>34.0</ele><time>2026-05-02T06:50:04Z</time></trkpt><trkpt lat="45.2142409502547" lon="10.60508917909102"><ele>34.0</ele><time>2026-05-02T06:50:05Z</time></trkpt><trkpt lat="45.21440303154298" lon="10.605356096259513"><ele>34.0</ele><time>2026-05-02T06:50:06Z</time></trkpt><trkpt lat="45.21456601105918" lon="10.605623223043846"><ele>34.0</ele><time>2026-05-02T06:50:07Z</time></trkpt><trkpt lat="45.214736938518605" lon="10.605903337375427"><ele>34.5</ele><time>2026-05-02T06:50:08Z</time></trkpt><trkpt lat="45.214912489751676" lon="10.606196077203"><ele>35.0</ele><time>2026-05-02T06:50:09Z</time></trkpt><trkpt lat="45.21509602282121" lon="10.6064981904066"><ele>35.0</ele><time>2026-05-02T06:50:10Z</time></trkpt><trkpt lat="45.215284094855306" lon="10.60680518411863"><ele>35.0</ele><time>2026-05-02T06:50:11Z</time></trkpt><trkpt lat="45.215468380998615" lon="10.60711266075464"><ele>35.0</ele><time>2026-05-02T06:50:12Z</time></trkpt><trkpt lat="45.2156328071362" lon="10.607414706561492"><ele>35.0</ele><time>2026-05-02T06:50:13Z</time></trkpt><trkpt lat="45.21579685493614" lon="10.607694486955848"><ele>35.0</ele><time>2026-05-02T06:50:14Z</time></trkpt><trkpt lat="45.216012961213195" lon="10.608003183859477"><ele>35.0</ele><time>2026-05-02T06:50:15Z</time></trkpt><trkpt lat="45.21618640360151" lon="10.608280736969956"><ele>35.0</ele><time>2026-05-02T06:50:16Z</time></trkpt><trkpt lat="45.21635167440687" lon="10.60855816910347"><ele>35.0</ele><time>2026-05-02T06:50:17Z</time></trkpt><trkpt lat="45.21651235480452" lon="10.608833310258243"><ele>35.0</ele><time>2026-05-02T06:50:18Z</time></trkpt><trkpt lat="45.21667698860534" lon="10.609100843055467"><ele>35.0</ele><time>2026-05-02T06:50:19Z</time></trkpt><trkpt lat="45.216834889264774" lon="10.609371130952272"><ele>35.0</ele><time>2026-05-02T06:50:20Z</time></trkpt><trkpt lat="45.21699995759821" lon="10.609644033266433"><ele>35.0</ele><time>2026-05-02T06:50:21Z</time></trkpt><trkpt lat="45.217170900148176" lon="10.60991524850502"><ele>35.5</ele><time>2026-05-02T06:50:22Z</time></trkpt><trkpt lat="45.2173436056455" lon="10.61020124575376"><ele>36.0</ele><time>2026-05-02T06:50:23Z</time></trkpt><trkpt lat="45.217530343174055" lon="10.610516401196687"><ele>35.0</ele><time>2026-05-02T06:50:24Z</time></trkpt><trkpt lat="45.217725612188445" lon="10.610839526955376"><ele>34.0</ele><time>2026-05-02T06:50:25Z</time></trkpt><trkpt lat="45.21792075835978" lon="10.611166675401398"><ele>34.0</ele><time>2026-05-02T06:50:26Z</time></trkpt><trkpt lat="45.21811662195606" lon="10.611478744341547"><ele>34.0</ele><time>2026-05-02T06:50:27Z</time></trkpt><trkpt lat="45.21830101902258" lon="10.61178118899015"><ele>33.5</ele><time>2026-05-02T06:50:28Z</time></trkpt><trkpt lat="45.21847531814023" lon="10.612070397371289"><ele>33.0</ele><time>2026-05-02T06:50:29Z</time></trkpt><trkpt lat="45.21863827513943" lon="10.612337219824703"><ele>33.0</ele><time>2026-05-02T06:50:30Z</time></trkpt><trkpt lat="45.21879593146856" lon="10.61258768211677"><ele>33.0</ele><time>2026-05-02T06:50:31Z</time></trkpt><trkpt lat="45.21894313498006" lon="10.612826202340125"><ele>32.666666666666664</ele><time>2026-05-02T06:50:32Z</time></trkpt><trkpt lat="45.21908173963271" lon="10.613053290425848"><ele>32.33333333333333</ele><time>2026-05-02T06:50:33Z</time></trkpt><trkpt lat="45.21920750115023" lon="10.613265133569099"><ele>32.0</ele><time>2026-05-02T06:50:34Z</time></trkpt><trkpt lat="45.219319800169664" lon="10.613457216043896"><ele>32.0</ele><time>2026-05-02T06:50:35Z</time></trkpt><trkpt lat="45.219425582445794" lon="10.613638770203977"><ele>32.0</ele><time>2026-05-02T06:50:36Z</time></trkpt><trkpt lat="45.21951931826468" lon="10.613818512795508"><ele>32.0</ele><time>2026-05-02T06:50:37Z</time></trkpt><trkpt lat="45.21957541658669" lon="10.613988945418624"><ele>32.25</ele><time>2026-05-02T06:50:38Z</time></trkpt><trkpt lat="45.21964291773159" lon="10.614169136324692"><ele>32.5</ele><time>2026-05-02T06:50:39Z</time></trkpt><trkpt lat="45.219706142655745" lon="10.614347397136937"><ele>32.75</ele><time>2026-05-02T06:50:40Z</time></trkpt><trkpt lat="45.219773149422664" lon="10.61452706211197"><ele>33.0</ele><time>2026-05-02T06:50:41Z</time></trkpt><trkpt lat="45.21986165454222" lon="10.614704035764309"><ele>33.666666666666664</ele><time>2026-05-02T06:50:42Z</time></trkpt><trkpt lat="45.21997602641832" lon="10.614873189744182"><ele>34.33333333333333</ele><time>2026-05-02T06:50:43Z</time></trkpt><trkpt lat="45.220123302232416" lon="10.615035217562392"><ele>35.0</ele><time>2026-05-02T06:50:44Z</time></trkpt><trkpt lat="45.22027952444597" lon="10.615195285092959"><ele>35.0</ele><time>2026-05-02T06:50:45Z</time></trkpt><trkpt lat="45.22043068905263" lon="10.615360143030987"><ele>35.0</ele><time>2026-05-02T06:50:46Z</time></trkpt><trkpt lat="45.220575030242756" lon="10.615536746636899"><ele>35.0</ele><time>2026-05-02T06:50:47Z</time></trkpt><trkpt lat="45.220705852938686" lon="10.615735022936182"><ele>35.0</ele><time>2026-05-02T06:50:48Z</time></trkpt><trkpt lat="45.220837242865784" lon="10.615940527741857"><ele>35.0</ele><time>2026-05-02T06:50:49Z</time></trkpt><trkpt lat="45.22096943779552" lon="10.616156404901202"><ele>35.0</ele><time>2026-05-02T06:50:50Z</time></trkpt><trkpt lat="45.221108628120604" lon="10.6163818438395"><ele>35.0</ele><time>2026-05-02T06:50:51Z</time></trkpt><trkpt lat="45.221259537939716" lon="10.616630918435364"><ele>35.0</ele><time>2026-05-02T06:50:52Z</time></trkpt><trkpt lat="45.22142342255965" lon="10.616904168160803"><ele>34.5</ele><time>2026-05-02T06:50:53Z</time></trkpt><trkpt lat="45.22160649194811" lon="10.617203923451623"><ele>34.0</ele><time>2026-05-02T06:50:53.999Z</time></trkpt><trkpt lat="45.22179204360986" lon="10.617507545610943"><ele>34.0</ele><time>2026-05-02T06:50:54.999Z</time></trkpt><trkpt lat="45.22198050294543" lon="10.617816730246856"><ele>34.0</ele><time>2026-05-02T06:50:55.999Z</time></trkpt><trkpt lat="45.22217837046855" lon="10.618136353671522"><ele>34.0</ele><time>2026-05-02T06:50:56.999Z</time></trkpt><trkpt lat="45.22238248538272" lon="10.618466550474713"><ele>34.0</ele><time>2026-05-02T06:50:57.999Z</time></trkpt><trkpt lat="45.22259081464409" lon="10.618800371013274"><ele>34.0</ele><time>2026-05-02T06:50:58.999Z</time></trkpt><trkpt lat="45.2227854815884" lon="10.619149263722191"><ele>34.0</ele><time>2026-05-02T06:50:59.999Z</time></trkpt><trkpt lat="45.222992794470876" lon="10.619491626958764"><ele>34.5</ele><time>2026-05-02T06:51:00.999Z</time></trkpt><trkpt lat="45.223204822869455" lon="10.619838483316416"><ele>35.0</ele><time>2026-05-02T06:51:01.999Z</time></trkpt><trkpt lat="45.22341827765859" lon="10.620185771684861"><ele>34.5</ele><time>2026-05-02T06:51:02.999Z</time></trkpt><trkpt lat="45.223631776038985" lon="10.6205343496385"><ele>34.0</ele><time>2026-05-02T06:51:03.999Z</time></trkpt><trkpt lat="45.22385593456295" lon="10.620871543081078"><ele>34.5</ele><time>2026-05-02T06:51:04.999Z</time></trkpt><trkpt lat="45.224062165144275" lon="10.621227915925713"><ele>35.0</ele><time>2026-05-02T06:51:05.999Z</time></trkpt><trkpt lat="45.22426911589074" lon="10.621576467280473"><ele>35.0</ele><time>2026-05-02T06:51:06.999Z</time></trkpt><trkpt lat="45.224477500902225" lon="10.62191697055015"><ele>35.0</ele><time>2026-05-02T06:51:07.999Z</time></trkpt><trkpt lat="45.224684120389504" lon="10.622252353690214"><ele>35.0</ele><time>2026-05-02T06:51:08.999Z</time></trkpt><trkpt lat="45.224883114178375" lon="10.622575628235381"><ele>35.0</ele><time>2026-05-02T06:51:09.999Z</time></trkpt><trkpt lat="45.22507543982144" lon="10.62289080254242"><ele>34.5</ele><time>2026-05-02T06:51:10.999Z</time></trkpt><trkpt lat="45.22526424540859" lon="10.623204321306309"><ele>34.0</ele><time>2026-05-02T06:51:11.999Z</time></trkpt><trkpt lat="45.22544446837676" lon="10.623506807915168"><ele>34.0</ele><time>2026-05-02T06:51:12.999Z</time></trkpt><trkpt lat="45.22562374363686" lon="10.623801047130202"><ele>34.0</ele><time>2026-05-02T06:51:13.999Z</time></trkpt><trkpt lat="45.22580335820126" lon="10.62409629996515"><ele>34.0</ele><time>2026-05-02T06:51:14.999Z</time></trkpt><trkpt lat="45.22598595025179" lon="10.624394749523358"><ele>34.0</ele><time>2026-05-02T06:51:15.999Z</time></trkpt><trkpt lat="45.226168261946206" lon="10.624694336413114"><ele>34.0</ele><time>2026-05-02T06:51:16.999Z</time></trkpt><trkpt lat="45.22634903360844" lon="10.624992068025222"><ele>34.0</ele><time>2026-05-02T06:51:17.999Z</time></trkpt><trkpt lat="45.226528826487126" lon="10.625289012908821"><ele>34.5</ele><time>2026-05-02T06:51:18.999Z</time></trkpt><trkpt lat="45.22671035972148" lon="10.625584587974702"><ele>35.0</ele><time>2026-05-02T06:51:19.999Z</time></trkpt><trkpt lat="45.22689562699205" lon="10.625887403244938"><ele>34.5</ele><time>2026-05-02T06:51:20.999Z</time></trkpt><trkpt lat="45.22708259521529" lon="10.626192643084167"><ele>34.0</ele><time>2026-05-02T06:51:21.999Z</time></trkpt><trkpt lat="45.227272684930306" lon="10.62650318774236"><ele>34.0</ele><time>2026-05-02T06:51:22.999Z</time></trkpt><trkpt lat="45.22746263192124" lon="10.626817082967095"><ele>34.0</ele><time>2026-05-02T06:51:23.999Z</time></trkpt><trkpt lat="45.22764907674573" lon="10.627127696154325"><ele>34.0</ele><time>2026-05-02T06:51:24.999Z</time></trkpt><trkpt lat="45.2278303369383" lon="10.627426925547056"><ele>34.0</ele><time>2026-05-02T06:51:25.999Z</time></trkpt><trkpt lat="45.2280032943677" lon="10.627710288735477"><ele>34.0</ele><time>2026-05-02T06:51:26.999Z</time></trkpt><trkpt lat="45.22817336119003" lon="10.6279900510605"><ele>34.0</ele><time>2026-05-02T06:51:27.999Z</time></trkpt><trkpt lat="45.22834199325031" lon="10.628265799674146"><ele>34.0</ele><time>2026-05-02T06:51:28.999Z</time></trkpt><trkpt lat="45.228508985791834" lon="10.628539542619615"><ele>34.0</ele><time>2026-05-02T06:51:29.999Z</time></trkpt><trkpt lat="45.22867503885896" lon="10.628811156996784"><ele>34.0</ele><time>2026-05-02T06:51:30.999Z</time></trkpt><trkpt lat="45.22883879373529" lon="10.629081702903358"><ele>34.0</ele><time>2026-05-02T06:51:31.999Z</time></trkpt><trkpt lat="45.22899857239679" lon="10.629345203711688"><ele>34.0</ele><time>2026-05-02T06:51:32.999Z</time></trkpt><trkpt lat="45.22915406303984" lon="10.629603356097128"><ele>34.0</ele><time>2026-05-02T06:51:33.999Z</time></trkpt><trkpt lat="45.22930682281504" lon="10.629857810304793"><ele>34.0</ele><time>2026-05-02T06:51:34.999Z</time></trkpt><trkpt lat="45.229463383983905" lon="10.630113922878369"><ele>34.0</ele><time>2026-05-02T06:51:35.999Z</time></trkpt><trkpt lat="45.22962496897926" lon="10.630376807046373"><ele>34.5</ele><time>2026-05-02T06:51:36.999Z</time></trkpt><trkpt lat="45.22978986395759" lon="10.63064446030379"><ele>35.0</ele><time>2026-05-02T06:51:38Z</time></trkpt><trkpt lat="45.229952985747396" lon="10.630911758320499"><ele>34.5</ele><time>2026-05-02T06:51:39Z</time></trkpt><trkpt lat="45.230113945284565" lon="10.631178205584678"><ele>34.0</ele><time>2026-05-02T06:51:40Z</time></trkpt><trkpt lat="45.23027083797824" lon="10.631437632475658"><ele>34.0</ele><time>2026-05-02T06:51:41Z</time></trkpt><trkpt lat="45.23041870550393" lon="10.631681617712552"><ele>34.0</ele><time>2026-05-02T06:51:42Z</time></trkpt><trkpt lat="45.23056754568152" lon="10.631925469040006"><ele>33.5</ele><time>2026-05-02T06:51:43Z</time></trkpt><trkpt lat="45.230718492122826" lon="10.632176242447166"><ele>33.0</ele><time>2026-05-02T06:51:44Z</time></trkpt><trkpt lat="45.23087811484469" lon="10.632434801173199"><ele>33.0</ele><time>2026-05-02T06:51:45Z</time></trkpt><trkpt lat="45.23104208746533" lon="10.632700574046156"><ele>33.0</ele><time>2026-05-02T06:51:46Z</time></trkpt><trkpt lat="45.23120742546892" lon="10.632973940329057"><ele>34.0</ele><time>2026-05-02T06:51:47Z</time></trkpt><trkpt lat="45.23137839907238" lon="10.633251700118462"><ele>35.0</ele><time>2026-05-02T06:51:48Z</time></trkpt><trkpt lat="45.23155354196845" lon="10.633536540323783"><ele>35.0</ele><time>2026-05-02T06:51:49Z</time></trkpt><trkpt lat="45.23173230040043" lon="10.633832043990488"><ele>35.0</ele><time>2026-05-02T06:51:50Z</time></trkpt><trkpt lat="45.23191753548452" lon="10.634134285535756"><ele>35.0</ele><time>2026-05-02T06:51:51Z</time></trkpt><trkpt lat="45.23210815450683" lon="10.63443725417542"><ele>35.0</ele><time>2026-05-02T06:51:52Z</time></trkpt><trkpt lat="45.232296789542175" lon="10.634773749770014"><ele>34.5</ele><time>2026-05-02T06:51:53Z</time></trkpt><trkpt lat="45.23249235659619" lon="10.63509545986141"><ele>34.0</ele><time>2026-05-02T06:51:54Z</time></trkpt><trkpt lat="45.23267725646447" lon="10.635399842101524"><ele>34.0</ele><time>2026-05-02T06:51:55Z</time></trkpt><trkpt lat="45.232852765702006" lon="10.635689776273086"><ele>34.0</ele><time>2026-05-02T06:51:56Z</time></trkpt><trkpt lat="45.23303136162319" lon="10.635984810600826"><ele>35.0</ele><time>2026-05-02T06:51:57Z</time></trkpt><trkpt lat="45.2332063431356" lon="10.636273872842233"><ele>36.0</ele><time>2026-05-02T06:51:58Z</time></trkpt><trkpt lat="45.23337911049935" lon="10.636559277484963"><ele>36.0</ele><time>2026-05-02T06:51:59Z</time></trkpt><trkpt lat="45.23354502028958" lon="10.636833497904727"><ele>36.0</ele><time>2026-05-02T06:52:00Z</time></trkpt><trkpt lat="45.23370561818057" lon="10.637101891290875"><ele>35.5</ele><time>2026-05-02T06:52:01Z</time></trkpt><trkpt lat="45.23386869724964" lon="10.637374431345018"><ele>35.0</ele><time>2026-05-02T06:52:02Z</time></trkpt><trkpt lat="45.23403431858028" lon="10.637651477204706"><ele>34.666666666666664</ele><time>2026-05-02T06:52:03Z</time></trkpt><trkpt lat="45.2341862982799" lon="10.637912329050785"><ele>34.333333333333336</ele><time>2026-05-02T06:52:04Z</time></trkpt><trkpt lat="45.2343252653912" lon="10.638124525579197"><ele>34.0</ele><time>2026-05-02T06:52:05Z</time></trkpt><trkpt lat="45.23444538389005" lon="10.63834381240303"><ele>34.0</ele><time>2026-05-02T06:52:06Z</time></trkpt><trkpt lat="45.234565057718875" lon="10.638555191343931"><ele>34.0</ele><time>2026-05-02T06:52:07Z</time></trkpt><trkpt lat="45.23468657733701" lon="10.638757076027172"><ele>34.0</ele><time>2026-05-02T06:52:08Z</time></trkpt><trkpt lat="45.2348160610164" lon="10.638961893212617"><ele>34.0</ele><time>2026-05-02T06:52:09Z</time></trkpt><trkpt lat="45.23494270255059" lon="10.639211336206888"><ele>34.0</ele><time>2026-05-02T06:52:10Z</time></trkpt><trkpt lat="45.23509443211949" lon="10.639464445793669"><ele>33.66666666666667</ele><time>2026-05-02T06:52:11Z</time></trkpt><trkpt lat="45.2352448522884" lon="10.63969926705356"><ele>33.333333333333336</ele><time>2026-05-02T06:52:12Z</time></trkpt><trkpt lat="45.235387596606884" lon="10.63992210594243"><ele>33.0</ele><time>2026-05-02T06:52:13Z</time></trkpt><trkpt lat="45.235537905846655" lon="10.640126632187037"><ele>34.0</ele><time>2026-05-02T06:52:14Z</time></trkpt><trkpt lat="45.235683650452074" lon="10.640357745302056"><ele>35.0</ele><time>2026-05-02T06:52:15Z</time></trkpt><trkpt lat="45.23584514111876" lon="10.640604018056626"><ele>35.0</ele><time>2026-05-02T06:52:16Z</time></trkpt><trkpt lat="45.23601491526026" lon="10.640861418535305"><ele>35.0</ele><time>2026-05-02T06:52:17Z</time></trkpt><trkpt lat="45.23618204494886" lon="10.641143160097966"><ele>34.5</ele><time>2026-05-02T06:52:18Z</time></trkpt><trkpt lat="45.23637641160014" lon="10.64143839492172"><ele>34.0</ele><time>2026-05-02T06:52:19Z</time></trkpt><trkpt lat="45.23658016555354" lon="10.641748311118931"><ele>35.0</ele><time>2026-05-02T06:52:20Z</time></trkpt><trkpt lat="45.23678747645639" lon="10.642066698673936"><ele>36.0</ele><time>2026-05-02T06:52:21Z</time></trkpt><trkpt lat="45.23699028526806" lon="10.642377956658732"><ele>36.0</ele><time>2026-05-02T06:52:22Z</time></trkpt><trkpt lat="45.23719984978331" lon="10.642676310568257"><ele>36.0</ele><time>2026-05-02T06:52:23Z</time></trkpt><trkpt lat="45.23739337796499" lon="10.642986274992435"><ele>34.5</ele><time>2026-05-02T06:52:24Z</time></trkpt><trkpt lat="45.23758891136029" lon="10.643295007376123"><ele>33.0</ele><time>2026-05-02T06:52:25Z</time></trkpt><trkpt lat="45.2377869225275" lon="10.643609506205038"><ele>33.0</ele><time>2026-05-02T06:52:26Z</time></trkpt><trkpt lat="45.237980020895634" lon="10.643924631163017"><ele>33.0</ele><time>2026-05-02T06:52:27Z</time></trkpt><trkpt lat="45.23817151053391" lon="10.644239306815455"><ele>33.0</ele><time>2026-05-02T06:52:28Z</time></trkpt><trkpt lat="45.238360145098525" lon="10.644547873995025"><ele>33.0</ele><time>2026-05-02T06:52:29Z</time></trkpt><trkpt lat="45.23853977301032" lon="10.644837250843965"><ele>33.0</ele><time>2026-05-02T06:52:30Z</time></trkpt><trkpt lat="45.23870648889859" lon="10.645104362297452"><ele>33.0</ele><time>2026-05-02T06:52:31Z</time></trkpt><trkpt lat="45.238868642539636" lon="10.64535988640469"><ele>33.5</ele><time>2026-05-02T06:52:32Z</time></trkpt><trkpt lat="45.23902033504462" lon="10.645609865683774"><ele>34.0</ele><time>2026-05-02T06:52:33Z</time></trkpt><trkpt lat="45.23917504709147" lon="10.645857632853069"><ele>34.0</ele><time>2026-05-02T06:52:34Z</time></trkpt><trkpt lat="45.23933070869312" lon="10.646106749438111"><ele>34.0</ele><time>2026-05-02T06:52:35Z</time></trkpt><trkpt lat="45.239487796918446" lon="10.646362536512008"><ele>34.0</ele><time>2026-05-02T06:52:36Z</time></trkpt><trkpt lat="45.239647833565435" lon="10.64662363406434"><ele>34.0</ele><time>2026-05-02T06:52:37Z</time></trkpt><trkpt lat="45.239810507612724" lon="10.646888302566236"><ele>33.5</ele><time>2026-05-02T06:52:38Z</time></trkpt><trkpt lat="45.239976858603725" lon="10.647157569416065"><ele>33.0</ele><time>2026-05-02T06:52:39Z</time></trkpt><trkpt lat="45.24015213337904" lon="10.647445129234713"><ele>33.0</ele><time>2026-05-02T06:52:40Z</time></trkpt><trkpt lat="45.24034330573715" lon="10.647737780967292"><ele>33.0</ele><time>2026-05-02T06:52:41Z</time></trkpt><trkpt lat="45.24051763308287" lon="10.648036887515957"><ele>33.5</ele><time>2026-05-02T06:52:42Z</time></trkpt><trkpt lat="45.240695856862146" lon="10.648328030934774"><ele>34.0</ele><time>2026-05-02T06:52:43Z</time></trkpt><trkpt lat="45.240862838815254" lon="10.648597744976007"><ele>34.0</ele><time>2026-05-02T06:52:44Z</time></trkpt><trkpt lat="45.24101754549485" lon="10.648854808064133"><ele>34.0</ele><time>2026-05-02T06:52:45Z</time></trkpt><trkpt lat="45.241166509728956" lon="10.649097679719038"><ele>34.0</ele><time>2026-05-02T06:52:46Z</time></trkpt><trkpt lat="45.241318910587694" lon="10.64934735037709"><ele>34.0</ele><time>2026-05-02T06:52:47Z</time></trkpt><trkpt lat="45.2414754072384" lon="10.649597635214336"><ele>34.0</ele><time>2026-05-02T06:52:48Z</time></trkpt><trkpt lat="45.24163314577854" lon="10.649847608837838"><ele>34.0</ele><time>2026-05-02T06:52:49Z</time></trkpt><trkpt lat="45.2417963918973" lon="10.650105071456435"><ele>34.5</ele><time>2026-05-02T06:52:50Z</time></trkpt><trkpt lat="45.241952684416404" lon="10.650386697345018"><ele>35.0</ele><time>2026-05-02T06:52:51Z</time></trkpt><trkpt lat="45.24212464453688" lon="10.650666546233515"><ele>35.0</ele><time>2026-05-02T06:52:52Z</time></trkpt><trkpt lat="45.242303128301366" lon="10.650957011806408"><ele>35.0</ele><time>2026-05-02T06:52:53Z</time></trkpt><trkpt lat="45.242481135949454" lon="10.651244699151738"><ele>35.0</ele><time>2026-05-02T06:52:54Z</time></trkpt><trkpt lat="45.24266047621887" lon="10.651533766012095"><ele>35.0</ele><time>2026-05-02T06:52:55Z</time></trkpt><trkpt lat="45.242848809849015" lon="10.65181429072262"><ele>35.0</ele><time>2026-05-02T06:52:56Z</time></trkpt><trkpt lat="45.2430224353318" lon="10.652102820036072"><ele>35.0</ele><time>2026-05-02T06:52:57Z</time></trkpt><trkpt lat="45.24319636286907" lon="10.652388355770036"><ele>35.0</ele><time>2026-05-02T06:52:58Z</time></trkpt><trkpt lat="45.243368136648115" lon="10.65266965113187"><ele>35.0</ele><time>2026-05-02T06:52:59Z</time></trkpt><trkpt lat="45.24353050761138" lon="10.652935510758816"><ele>35.0</ele><time>2026-05-02T06:53:00Z</time></trkpt><trkpt lat="45.243687406571965" lon="10.653191652125578"><ele>35.0</ele><time>2026-05-02T06:53:01Z</time></trkpt><trkpt lat="45.243845677645304" lon="10.653444942333502"><ele>34.0</ele><time>2026-05-02T06:53:02Z</time></trkpt><trkpt lat="45.24400011581149" lon="10.653696701557278"><ele>33.0</ele><time>2026-05-02T06:53:03Z</time></trkpt><trkpt lat="45.244153894716" lon="10.653946979698102"><ele>33.0</ele><time>2026-05-02T06:53:04Z</time></trkpt><trkpt lat="45.24430685997939" lon="10.654196021656597"><ele>33.0</ele><time>2026-05-02T06:53:05Z</time></trkpt><trkpt lat="45.24446013027544" lon="10.654446578642334"><ele>32.5</ele><time>2026-05-02T06:53:05.999Z</time></trkpt><trkpt lat="45.24461691709637" lon="10.654697230951875"><ele>32.0</ele><time>2026-05-02T06:53:06.999Z</time></trkpt><trkpt lat="45.244765646112526" lon="10.654938229106747"><ele>31.666666666666664</ele><time>2026-05-02T06:53:07.999Z</time></trkpt><trkpt lat="45.24490609455705" lon="10.655171268461537"><ele>31.333333333333336</ele><time>2026-05-02T06:53:08.999Z</time></trkpt><trkpt lat="45.24504790227755" lon="10.655404745869776"><ele>31.0</ele><time>2026-05-02T06:53:09.999Z</time></trkpt><trkpt lat="45.24518776098058" lon="10.655634234080024"><ele>31.666666666666668</ele><time>2026-05-02T06:53:10.999Z</time></trkpt><trkpt lat="45.24532751755653" lon="10.655859213835031"><ele>32.333333333333336</ele><time>2026-05-02T06:53:11.999Z</time></trkpt><trkpt lat="45.24546549527416" lon="10.656079204421337"><ele>33.0</ele><time>2026-05-02T06:53:12.999Z</time></trkpt><trkpt lat="45.2455976066649" lon="10.656288803980612"><ele>33.333333333333336</ele><time>2026-05-02T06:53:13.999Z</time></trkpt><trkpt lat="45.245719058778754" lon="10.656487820683225"><ele>33.66666666666667</ele><time>2026-05-02T06:53:14.999Z</time></trkpt><trkpt lat="45.24583947022641" lon="10.656685599919662"><ele>34.0</ele><time>2026-05-02T06:53:15.999Z</time></trkpt><trkpt lat="45.2459593476262" lon="10.656881803148941"><ele>34.333333333333336</ele><time>2026-05-02T06:53:16.999Z</time></trkpt><trkpt lat="45.24607658476483" lon="10.65707249508551"><ele>34.666666666666664</ele><time>2026-05-02T06:53:17.999Z</time></trkpt><trkpt lat="45.246191286483395" lon="10.65725808322735"><ele>35.0</ele><time>2026-05-02T06:53:18.999Z</time></trkpt><trkpt lat="45.24630757494975" lon="10.657445931937497"><ele>35.0</ele><time>2026-05-02T06:53:19.999Z</time></trkpt><trkpt lat="45.246422757448116" lon="10.657631248162707"><ele>35.0</ele><time>2026-05-02T06:53:20.999Z</time></trkpt><trkpt lat="45.24653620935501" lon="10.657814474811754"><ele>35.0</ele><time>2026-05-02T06:53:21.999Z</time></trkpt><trkpt lat="45.246647521771315" lon="10.657996659844619"><ele>35.33333333333333</ele><time>2026-05-02T06:53:22.999Z</time></trkpt><trkpt lat="45.24675835878961" lon="10.65817781348357"><ele>35.666666666666664</ele><time>2026-05-02T06:53:23.999Z</time></trkpt><trkpt lat="45.246866550132125" lon="10.658355082473365"><ele>36.0</ele><time>2026-05-02T06:53:24.999Z</time></trkpt><trkpt lat="45.24696846335564" lon="10.658521095393368"><ele>35.75</ele><time>2026-05-02T06:53:25.999Z</time></trkpt><trkpt lat="45.247066292059834" lon="10.658678187355275"><ele>35.5</ele><time>2026-05-02T06:53:26.999Z</time></trkpt><trkpt lat="45.24716360048756" lon="10.65883508698215"><ele>35.25</ele><time>2026-05-02T06:53:27.999Z</time></trkpt><trkpt lat="45.24725951752462" lon="10.658992438349552"><ele>35.0</ele><time>2026-05-02T06:53:28.999Z</time></trkpt><trkpt lat="45.247355281419935" lon="10.659148125780083"><ele>35.0</ele><time>2026-05-02T06:53:29.999Z</time></trkpt><trkpt lat="45.24745059186956" lon="10.659302278299453"><ele>35.0</ele><time>2026-05-02T06:53:30.999Z</time></trkpt><trkpt lat="45.24754362649725" lon="10.659455408024138"><ele>35.0</ele><time>2026-05-02T06:53:31.999Z</time></trkpt><trkpt lat="45.247634703705884" lon="10.65960473621939"><ele>35.0</ele><time>2026-05-02T06:53:32.999Z</time></trkpt><trkpt lat="45.24772265078401" lon="10.659749859003194"><ele>35.5</ele><time>2026-05-02T06:53:33.999Z</time></trkpt><trkpt lat="45.247813129099356" lon="10.659896578114846"><ele>36.0</ele><time>2026-05-02T06:53:34.999Z</time></trkpt><trkpt lat="45.24790488945994" lon="10.660044381914625"><ele>36.5</ele><time>2026-05-02T06:53:35.999Z</time></trkpt><trkpt lat="45.24799908349671" lon="10.660196908161737"><ele>37.0</ele><time>2026-05-02T06:53:36.999Z</time></trkpt><trkpt lat="45.24809688015916" lon="10.660353989972107"><ele>37.0</ele><time>2026-05-02T06:53:37.999Z</time></trkpt><trkpt lat="45.24819781077506" lon="10.660515851937435"><ele>37.0</ele><time>2026-05-02T06:53:38.999Z</time></trkpt><trkpt lat="45.24830160711022" lon="10.660679233777802"><ele>37.0</ele><time>2026-05-02T06:53:39.999Z</time></trkpt><trkpt lat="45.248403675654785" lon="10.66084110553946"><ele>37.0</ele><time>2026-05-02T06:53:40.999Z</time></trkpt><trkpt lat="45.24850477833285" lon="10.661005798698993"><ele>37.0</ele><time>2026-05-02T06:53:41.999Z</time></trkpt><trkpt lat="45.24860396081442" lon="10.66116550179545"><ele>37.0</ele><time>2026-05-02T06:53:42.999Z</time></trkpt><trkpt lat="45.24870062735941" lon="10.661320417013167"><ele>37.0</ele><time>2026-05-02T06:53:44Z</time></trkpt><trkpt lat="45.24879641883922" lon="10.661471780002191"><ele>37.25</ele><time>2026-05-02T06:53:45Z</time></trkpt><trkpt lat="45.24889136033186" lon="10.661625098485779"><ele>37.5</ele><time>2026-05-02T06:53:46Z</time></trkpt><trkpt lat="45.24898448772702" lon="10.6617800629185"><ele>37.75</ele><time>2026-05-02T06:53:47Z</time></trkpt><trkpt lat="45.249077236403956" lon="10.661932100932397"><ele>38.0</ele><time>2026-05-02T06:53:48Z</time></trkpt><trkpt lat="45.249169954714866" lon="10.662082428272441"><ele>38.25</ele><time>2026-05-02T06:53:49Z</time></trkpt><trkpt lat="45.24926344539363" lon="10.66223259885019"><ele>38.5</ele><time>2026-05-02T06:53:50Z</time></trkpt><trkpt lat="45.249356998830926" lon="10.662382964398338"><ele>38.75</ele><time>2026-05-02T06:53:51Z</time></trkpt><trkpt lat="45.24945149168955" lon="10.662532143076982"><ele>39.0</ele><time>2026-05-02T06:53:52Z</time></trkpt><trkpt lat="45.24954185735352" lon="10.66268056789429"><ele>39.0</ele><time>2026-05-02T06:53:53Z</time></trkpt><trkpt lat="45.2496273246592" lon="10.662818919301321"><ele>39.0</ele><time>2026-05-02T06:53:54Z</time></trkpt><trkpt lat="45.249706907823956" lon="10.662950080524928"><ele>39.0</ele><time>2026-05-02T06:53:55Z</time></trkpt><trkpt lat="45.249783693086755" lon="10.66307742372504"><ele>39.0</ele><time>2026-05-02T06:53:56Z</time></trkpt><trkpt lat="45.24986457985402" lon="10.663206982174135"><ele>39.0</ele><time>2026-05-02T06:53:57Z</time></trkpt><trkpt lat="45.24994915909324" lon="10.663338724909197"><ele>39.0</ele><time>2026-05-02T06:53:58Z</time></trkpt><trkpt lat="45.25003187328998" lon="10.663476038086197"><ele>39.0</ele><time>2026-05-02T06:53:59Z</time></trkpt><trkpt lat="45.25011635195637" lon="10.663616163430055"><ele>39.0</ele><time>2026-05-02T06:54:00Z</time></trkpt><trkpt lat="45.250202018487514" lon="10.663753947303299"><ele>38.75</ele><time>2026-05-02T06:54:01Z</time></trkpt><trkpt lat="45.25028326562996" lon="10.663884854927765"><ele>38.5</ele><time>2026-05-02T06:54:02Z</time></trkpt><trkpt lat="45.250362041570064" lon="10.664009891246472"><ele>38.25</ele><time>2026-05-02T06:54:03Z</time></trkpt><trkpt lat="45.25044272708739" lon="10.664135560055378"><ele>38.0</ele><time>2026-05-02T06:54:04Z</time></trkpt><trkpt lat="45.25052379799498" lon="10.664263806053977"><ele>38.0</ele><time>2026-05-02T06:54:05Z</time></trkpt><trkpt lat="45.25060251852123" lon="10.664391884606374"><ele>38.0</ele><time>2026-05-02T06:54:06Z</time></trkpt><trkpt lat="45.25067759675569" lon="10.664517344901752"><ele>38.0</ele><time>2026-05-02T06:54:07Z</time></trkpt><trkpt lat="45.25074854683045" lon="10.664636154009928"><ele>38.0</ele><time>2026-05-02T06:54:08Z</time></trkpt><trkpt lat="45.25081156327855" lon="10.664743518906885"><ele>38.0</ele><time>2026-05-02T06:54:09Z</time></trkpt><trkpt lat="45.25086972732121" lon="10.664841640761649"><ele>38.166666666666664</ele><time>2026-05-02T06:54:10Z</time></trkpt><trkpt lat="45.2509211669336" lon="10.664929818759996"><ele>38.33333333333333</ele><time>2026-05-02T06:54:11Z</time></trkpt><trkpt lat="45.25096544830883" lon="10.665005469763285"><ele>38.5</ele><time>2026-05-02T06:54:12Z</time></trkpt><trkpt lat="45.25103180797839" lon="10.66512909612917"><ele>38.666666666666664</ele><time>2026-05-02T06:54:14Z</time></trkpt><trkpt lat="45.25107831530027" lon="10.665212002779667"><ele>38.833333333333336</ele><time>2026-05-02T06:54:16Z</time></trkpt><trkpt lat="45.251114519501115" lon="10.66529376408786"><ele>39.0</ele><time>2026-05-02T06:54:19Z</time></trkpt><trkpt lat="45.251173731784185" lon="10.665420382511696"><ele>39.0</ele><time>2026-05-02T06:54:22Z</time></trkpt><trkpt lat="45.251223274299186" lon="10.6655765754403"><ele>39.0</ele><time>2026-05-02T06:54:24Z</time></trkpt><trkpt lat="45.25123757432619" lon="10.665665113733699"><ele>39.0</ele><time>2026-05-02T06:54:25Z</time></trkpt><trkpt lat="45.25123829079246" lon="10.6657570129379"><ele>39.0</ele><time>2026-05-02T06:54:26Z</time></trkpt><trkpt lat="45.25124259016817" lon="10.665849878805204"><ele>39.0</ele><time>2026-05-02T06:54:27Z</time></trkpt><trkpt lat="45.25126589766336" lon="10.665938011327496"><ele>39.0</ele><time>2026-05-02T06:54:28Z</time></trkpt><trkpt lat="45.251315479440585" lon="10.666009517621752"><ele>39.0</ele><time>2026-05-02T06:54:29Z</time></trkpt><trkpt lat="45.25138064170622" lon="10.666062604406093"><ele>39.0</ele><time>2026-05-02T06:54:30Z</time></trkpt><trkpt lat="45.25147877918321" lon="10.666073347195207"><ele>39.0</ele><time>2026-05-02T06:54:31Z</time></trkpt><trkpt lat="45.25158268718884" lon="10.66608464581698"><ele>39.0</ele><time>2026-05-02T06:54:32Z</time></trkpt><trkpt lat="45.25168752490896" lon="10.666143772200403"><ele>39.0</ele><time>2026-05-02T06:54:33Z</time></trkpt><trkpt lat="45.25180032911534" lon="10.66624167439575"><ele>38.5</ele><time>2026-05-02T06:54:34Z</time></trkpt><trkpt lat="45.251911574062774" lon="10.66635533670363"><ele>38.0</ele><time>2026-05-02T06:54:35Z</time></trkpt><trkpt lat="45.25201258880996" lon="10.66647833532474"><ele>37.5</ele><time>2026-05-02T06:54:36Z</time></trkpt><trkpt lat="45.25210109754852" lon="10.66659937737097"><ele>37.0</ele><time>2026-05-02T06:54:37Z</time></trkpt><trkpt lat="45.25218858537239" lon="10.666720350180004"><ele>37.0</ele><time>2026-05-02T06:54:38Z</time></trkpt><trkpt lat="45.25227739553628" lon="10.666838261338523"><ele>37.0</ele><time>2026-05-02T06:54:39Z</time></trkpt><trkpt lat="45.25235880824187" lon="10.666944426386587"><ele>37.0</ele><time>2026-05-02T06:54:40Z</time></trkpt><trkpt lat="45.25243374254591" lon="10.667050783179358"><ele>37.0</ele><time>2026-05-02T06:54:41Z</time></trkpt><trkpt lat="45.25250087086889" lon="10.66716068167732"><ele>37.0</ele><time>2026-05-02T06:54:42Z</time></trkpt><trkpt lat="45.252554356299804" lon="10.667278003992445"><ele>36.800000000000004</ele><time>2026-05-02T06:54:43Z</time></trkpt><trkpt lat="45.252597081104064" lon="10.667399439221107"><ele>36.6</ele><time>2026-05-02T06:54:44Z</time></trkpt><trkpt lat="45.252627164127716" lon="10.667523887098017"><ele>36.400000000000006</ele><time>2026-05-02T06:54:45Z</time></trkpt><trkpt lat="45.25265797611754" lon="10.667646177854051"><ele>36.2</ele><time>2026-05-02T06:54:46Z</time></trkpt><trkpt lat="45.252695492378" lon="10.667762020705077"><ele>36.0</ele><time>2026-05-02T06:54:47Z</time></trkpt><trkpt lat="45.25274174114207" lon="10.667878081597797"><ele>35.5</ele><time>2026-05-02T06:54:48Z</time></trkpt><trkpt lat="45.25279447765462" lon="10.667991940362622"><ele>35.0</ele><time>2026-05-02T06:54:49Z</time></trkpt><trkpt lat="45.252847581251714" lon="10.668097340158754"><ele>34.5</ele><time>2026-05-02T06:54:50Z</time></trkpt><trkpt lat="45.2529020823543" lon="10.668192635914531"><ele>34.0</ele><time>2026-05-02T06:54:51Z</time></trkpt><trkpt lat="45.25293912973429" lon="10.668297069652803"><ele>33.5</ele><time>2026-05-02T06:54:52Z</time></trkpt><trkpt lat="45.25300875343004" lon="10.668366189220311"><ele>33.0</ele><time>2026-05-02T06:54:53Z</time></trkpt><trkpt lat="45.25306051972403" lon="10.668449908988048"><ele>33.0</ele><time>2026-05-02T06:54:54Z</time></trkpt><trkpt lat="45.25310880963258" lon="10.668526812172777"><ele>33.0</ele><time>2026-05-02T06:54:55Z</time></trkpt><trkpt lat="45.253151227719556" lon="10.66859727375012"><ele>33.0</ele><time>2026-05-02T06:54:56Z</time></trkpt><trkpt lat="45.25322252578702" lon="10.668715486223103"><ele>33.0</ele><time>2026-05-02T06:54:58Z</time></trkpt><trkpt lat="45.25328468324204" lon="10.668811745443723"><ele>33.0</ele><time>2026-05-02T06:55:00Z</time></trkpt><trkpt lat="45.25334930123785" lon="10.668919053970043"><ele>33.0</ele><time>2026-05-02T06:55:02Z</time></trkpt><trkpt lat="45.253423650578796" lon="10.6690490310348"><ele>33.0</ele><time>2026-05-02T06:55:04Z</time></trkpt><trkpt lat="45.253468188890864" lon="10.669128767206159"><ele>33.0</ele><time>2026-05-02T06:55:05Z</time></trkpt><trkpt lat="45.25352470853003" lon="10.669218584531572"><ele>33.0</ele><time>2026-05-02T06:55:06Z</time></trkpt><trkpt lat="45.253586755173174" lon="10.669319976462011"><ele>33.0</ele><time>2026-05-02T06:55:07Z</time></trkpt><trkpt lat="45.25364859987848" lon="10.669418980969793"><ele>33.0</ele><time>2026-05-02T06:55:08Z</time></trkpt><trkpt lat="45.25371259151573" lon="10.669515889884021"><ele>33.0</ele><time>2026-05-02T06:55:09Z</time></trkpt><trkpt lat="45.2537790753098" lon="10.669613551125998"><ele>32.8</ele><time>2026-05-02T06:55:10Z</time></trkpt><trkpt lat="45.25384748965179" lon="10.669715364286256"><ele>32.599999999999994</ele><time>2026-05-02T06:55:11Z</time></trkpt><trkpt lat="45.253919019877195" lon="10.669822976668303"><ele>32.400000000000006</ele><time>2026-05-02T06:55:12Z</time></trkpt><trkpt lat="45.25399319976615" lon="10.6699450433554"><ele>32.2</ele><time>2026-05-02T06:55:13Z</time></trkpt><trkpt lat="45.25406568631954" lon="10.67007908893496"><ele>32.0</ele><time>2026-05-02T06:55:14Z</time></trkpt><trkpt lat="45.25413251885696" lon="10.670214729275827"><ele>31.6</ele><time>2026-05-02T06:55:15Z</time></trkpt><trkpt lat="45.25419280653297" lon="10.670352994763181"><ele>31.200000000000003</ele><time>2026-05-02T06:55:16Z</time></trkpt><trkpt lat="45.25424197251855" lon="10.670494606403073"><ele>30.8</ele><time>2026-05-02T06:55:17Z</time></trkpt><trkpt lat="45.25427941934544" lon="10.670639444420022"><ele>30.4</ele><time>2026-05-02T06:55:18Z</time></trkpt><trkpt lat="45.25431108637886" lon="10.670793773996737"><ele>30.0</ele><time>2026-05-02T06:55:19Z</time></trkpt><trkpt lat="45.25433805819195" lon="10.670951107701521"><ele>30.5</ele><time>2026-05-02T06:55:20Z</time></trkpt><trkpt lat="45.25436521488968" lon="10.6711093059267"><ele>31.0</ele><time>2026-05-02T06:55:21Z</time></trkpt><trkpt lat="45.25439319552086" lon="10.671266818123714"><ele>31.5</ele><time>2026-05-02T06:55:21.999Z</time></trkpt><trkpt lat="45.25441938881607" lon="10.67142597150465"><ele>32.0</ele><time>2026-05-02T06:55:22.999Z</time></trkpt><trkpt lat="45.254442098364066" lon="10.671585340930827"><ele>32.0</ele><time>2026-05-02T06:55:23.999Z</time></trkpt><trkpt lat="45.254462831307215" lon="10.671736507018284"><ele>32.0</ele><time>2026-05-02T06:55:24.999Z</time></trkpt><trkpt lat="45.254481902357476" lon="10.671882127564542"><ele>32.0</ele><time>2026-05-02T06:55:25.999Z</time></trkpt><trkpt lat="45.2544975463459" lon="10.672024900778371"><ele>32.0</ele><time>2026-05-02T06:55:26.999Z</time></trkpt><trkpt lat="45.25450606465702" lon="10.672165346888017"><ele>32.0</ele><time>2026-05-02T06:55:27.999Z</time></trkpt><trkpt lat="45.254508443886856" lon="10.67230196615978"><ele>31.833333333333332</ele><time>2026-05-02T06:55:28.999Z</time></trkpt><trkpt lat="45.254503879701495" lon="10.67242726338896"><ele>31.666666666666664</ele><time>2026-05-02T06:55:29.999Z</time></trkpt><trkpt lat="45.25449476084019" lon="10.672540672092543"><ele>31.5</ele><time>2026-05-02T06:55:30.999Z</time></trkpt><trkpt lat="45.25448251871867" lon="10.672648984705305"><ele>31.333333333333336</ele><time>2026-05-02T06:55:31.999Z</time></trkpt><trkpt lat="45.25446977494459" lon="10.672758052144982"><ele>31.166666666666668</ele><time>2026-05-02T06:55:32.999Z</time></trkpt><trkpt lat="45.25445886035077" lon="10.672870422632077"><ele>31.0</ele><time>2026-05-02T06:55:33.999Z</time></trkpt><trkpt lat="45.254447292140455" lon="10.67299110826506"><ele>31.0</ele><time>2026-05-02T06:55:34.999Z</time></trkpt><trkpt lat="45.25443331549525" lon="10.67312119180481"><ele>31.0</ele><time>2026-05-02T06:55:35.999Z</time></trkpt><trkpt lat="45.25441653646411" lon="10.673255202772982"><ele>31.0</ele><time>2026-05-02T06:55:36.999Z</time></trkpt><trkpt lat="45.254394846077865" lon="10.673394688706825"><ele>31.0</ele><time>2026-05-02T06:55:37.999Z</time></trkpt><trkpt lat="45.25436922345597" lon="10.673543506615605"><ele>31.0</ele><time>2026-05-02T06:55:38.999Z</time></trkpt><trkpt lat="45.254339836591825" lon="10.673702404923548"><ele>31.25</ele><time>2026-05-02T06:55:39.999Z</time></trkpt><trkpt lat="45.25430563271886" lon="10.673870573172271"><ele>31.5</ele><time>2026-05-02T06:55:40.999Z</time></trkpt><trkpt lat="45.25426589218269" lon="10.674047380451908"><ele>31.75</ele><time>2026-05-02T06:55:41.999Z</time></trkpt><trkpt lat="45.2542227400071" lon="10.674225737633417"><ele>32.0</ele><time>2026-05-02T06:55:42.999Z</time></trkpt><trkpt lat="45.25417552773914" lon="10.674405287489634"><ele>32.0</ele><time>2026-05-02T06:55:43.999Z</time></trkpt><trkpt lat="45.25412420820396" lon="10.674583232187151"><ele>32.0</ele><time>2026-05-02T06:55:44.999Z</time></trkpt><trkpt lat="45.2540710279686" lon="10.674761128167416"><ele>32.0</ele><time>2026-05-02T06:55:45.999Z</time></trkpt><trkpt lat="45.25401774357398" lon="10.674939202840799"><ele>32.0</ele><time>2026-05-02T06:55:46.999Z</time></trkpt><trkpt lat="45.25394772140019" lon="10.675108609755354"><ele>31.75</ele><time>2026-05-02T06:55:47.999Z</time></trkpt><trkpt lat="45.25389174162002" lon="10.675286268504301"><ele>31.5</ele><time>2026-05-02T06:55:48.999Z</time></trkpt><trkpt lat="45.253834748963186" lon="10.675466888808154"><ele>31.25</ele><time>2026-05-02T06:55:50Z</time></trkpt><trkpt lat="45.253777644119964" lon="10.67565014364652"><ele>31.0</ele><time>2026-05-02T06:55:51Z</time></trkpt><trkpt lat="45.25372037614411" lon="10.675835086099111"><ele>31.0</ele><time>2026-05-02T06:55:52Z</time></trkpt><trkpt lat="45.25366667501669" lon="10.676007600388822"><ele>31.0</ele><time>2026-05-02T06:55:53Z</time></trkpt><trkpt lat="45.253616920160006" lon="10.676168506872742"><ele>31.0</ele><time>2026-05-02T06:55:54Z</time></trkpt><trkpt lat="45.25357594722488" lon="10.676301012745103"><ele>31.0</ele><time>2026-05-02T06:55:55Z</time></trkpt><trkpt lat="45.25354212038728" lon="10.676408283580127"><ele>31.0</ele><time>2026-05-02T06:55:56Z</time></trkpt><trkpt lat="45.253516573395494" lon="10.676490935715636"><ele>31.166666666666668</ele><time>2026-05-02T06:55:57Z</time></trkpt><trkpt lat="45.25348237315433" lon="10.676600246435745"><ele>31.333333333333336</ele><time>2026-05-02T06:55:59Z</time></trkpt><trkpt lat="45.253446031345376" lon="10.676715746210771"><ele>31.5</ele><time>2026-05-02T06:56:02Z</time></trkpt><trkpt lat="45.25340905090625" lon="10.676828439845677"><ele>31.666666666666664</ele><time>2026-05-02T06:56:04Z</time></trkpt><trkpt lat="45.253453291494225" lon="10.676943616509874"><ele>31.833333333333332</ele><time>2026-05-02T06:56:05Z</time></trkpt><trkpt lat="45.253463399418564" lon="10.677039758401918"><ele>32.0</ele><time>2026-05-02T06:56:06Z</time></trkpt><trkpt lat="45.25348743750371" lon="10.677140428915015"><ele>31.999999999999996</ele><time>2026-05-02T06:56:07Z</time></trkpt><trkpt lat="45.25351764627097" lon="10.677242235288112"><ele>32.0</ele><time>2026-05-02T06:56:08Z</time></trkpt><trkpt lat="45.253548774134885" lon="10.677348693304582"><ele>32.0</ele><time>2026-05-02T06:56:09Z</time></trkpt><trkpt lat="45.25357421315184" lon="10.677469086893021"><ele>32.0</ele><time>2026-05-02T06:56:10Z</time></trkpt><trkpt lat="45.253596266451886" lon="10.677601109662643"><ele>31.999999999999996</ele><time>2026-05-02T06:56:11Z</time></trkpt><trkpt lat="45.25360061297338" lon="10.677751245852413"><ele>32.0</ele><time>2026-05-02T06:56:12Z</time></trkpt><trkpt lat="45.25358266152667" lon="10.677919345083415"><ele>32.0</ele><time>2026-05-02T06:56:13Z</time></trkpt><trkpt lat="45.25354721205867" lon="10.678100266365268"><ele>32.0</ele><time>2026-05-02T06:56:14Z</time></trkpt><trkpt lat="45.2535042779796" lon="10.678293334943803"><ele>32.0</ele><time>2026-05-02T06:56:15Z</time></trkpt><trkpt lat="45.25346341284203" lon="10.67849767567413"><ele>32.0</ele><time>2026-05-02T06:56:16Z</time></trkpt><trkpt lat="45.253419096634005" lon="10.678716235599817"><ele>31.333333333333332</ele><time>2026-05-02T06:56:17Z</time></trkpt><trkpt lat="45.253375983141616" lon="10.678939217560394"><ele>30.666666666666664</ele><time>2026-05-02T06:56:18Z</time></trkpt><trkpt lat="45.25333153607069" lon="10.679162214359213"><ele>30.0</ele><time>2026-05-02T06:56:19Z</time></trkpt><trkpt lat="45.25328617314556" lon="10.679382182834866"><ele>29.666666666666664</ele><time>2026-05-02T06:56:20Z</time></trkpt><trkpt lat="45.25324486958663" lon="10.679601667211605"><ele>29.333333333333332</ele><time>2026-05-02T06:56:21Z</time></trkpt><trkpt lat="45.25320832631457" lon="10.679823671015718"><ele>29.0</ele><time>2026-05-02T06:56:22Z</time></trkpt><trkpt lat="45.25317279829344" lon="10.68005345504482"><ele>29.0</ele><time>2026-05-02T06:56:23Z</time></trkpt><trkpt lat="45.25313176512548" lon="10.68028997043867"><ele>29.0</ele><time>2026-05-02T06:56:24Z</time></trkpt><trkpt lat="45.253085546627815" lon="10.68053271768856"><ele>29.0</ele><time>2026-05-02T06:56:25Z</time></trkpt><trkpt lat="45.253030031145954" lon="10.68077355494873"><ele>30.0</ele><time>2026-05-02T06:56:26Z</time></trkpt><trkpt lat="45.252981029149744" lon="10.681019163089774"><ele>31.0</ele><time>2026-05-02T06:56:27Z</time></trkpt><trkpt lat="45.25295285984395" lon="10.681265468198067"><ele>32.0</ele><time>2026-05-02T06:56:28Z</time></trkpt><trkpt lat="45.25294576598231" lon="10.681511739926629"><ele>32.33333333333333</ele><time>2026-05-02T06:56:29Z</time></trkpt><trkpt lat="45.25297183137623" lon="10.681760224380755"><ele>32.666666666666664</ele><time>2026-05-02T06:56:30Z</time></trkpt><trkpt lat="45.25302224665715" lon="10.682014910932757"><ele>33.0</ele><time>2026-05-02T06:56:31Z</time></trkpt><trkpt lat="45.25307253392364" lon="10.682278755365648"><ele>33.0</ele><time>2026-05-02T06:56:32Z</time></trkpt><trkpt lat="45.25312786721635" lon="10.682551155962656"><ele>33.0</ele><time>2026-05-02T06:56:33Z</time></trkpt><trkpt lat="45.253190454197515" lon="10.682824970317506"><ele>33.0</ele><time>2026-05-02T06:56:34Z</time></trkpt><trkpt lat="45.25325951435758" lon="10.683095050737627"><ele>33.0</ele><time>2026-05-02T06:56:35Z</time></trkpt><trkpt lat="45.253330959157346" lon="10.683366238416754"><ele>33.0</ele><time>2026-05-02T06:56:36Z</time></trkpt><trkpt lat="45.253398783314054" lon="10.683634024828478"><ele>33.0</ele><time>2026-05-02T06:56:37Z</time></trkpt><trkpt lat="45.25346515607518" lon="10.68389825209561"><ele>33.0</ele><time>2026-05-02T06:56:38Z</time></trkpt><trkpt lat="45.25353165972345" lon="10.68416500079675"><ele>33.0</ele><time>2026-05-02T06:56:39Z</time></trkpt><trkpt lat="45.253600245663684" lon="10.684441626810857"><ele>33.0</ele><time>2026-05-02T06:56:40Z</time></trkpt><trkpt lat="45.253671066865586" lon="10.684734349476535"><ele>32.5</ele><time>2026-05-02T06:56:41Z</time></trkpt><trkpt lat="45.25374484640222" lon="10.6850473374331"><ele>32.0</ele><time>2026-05-02T06:56:42Z</time></trkpt><trkpt lat="45.25382792054575" lon="10.685370998978577"><ele>32.0</ele><time>2026-05-02T06:56:43Z</time></trkpt><trkpt lat="45.25391380787731" lon="10.685697756496738"><ele>32.0</ele><time>2026-05-02T06:56:44Z</time></trkpt><trkpt lat="45.254009193230196" lon="10.68602134057055"><ele>31.5</ele><time>2026-05-02T06:56:45Z</time></trkpt><trkpt lat="45.25412018479043" lon="10.686336304838626"><ele>31.0</ele><time>2026-05-02T06:56:46Z</time></trkpt><trkpt lat="45.25423929270578" lon="10.686648241443482"><ele>31.0</ele><time>2026-05-02T06:56:47Z</time></trkpt><trkpt lat="45.25436685535578" lon="10.686960058541267"><ele>31.0</ele><time>2026-05-02T06:56:48Z</time></trkpt><trkpt lat="45.25449533224352" lon="10.687277811184346"><ele>31.0</ele><time>2026-05-02T06:56:49Z</time></trkpt><trkpt lat="45.2546181072573" lon="10.687594280723678"><ele>31.0</ele><time>2026-05-02T06:56:50Z</time></trkpt><trkpt lat="45.254729757677964" lon="10.687912505069507"><ele>32.5</ele><time>2026-05-02T06:56:51Z</time></trkpt><trkpt lat="45.25482834475214" lon="10.688232180256984"><ele>34.0</ele><time>2026-05-02T06:56:52Z</time></trkpt><trkpt lat="45.25491766506937" lon="10.688553057232388"><ele>33.5</ele><time>2026-05-02T06:56:53Z</time></trkpt><trkpt lat="45.254981614891534" lon="10.688878753215583"><ele>33.0</ele><time>2026-05-02T06:56:54Z</time></trkpt><trkpt lat="45.25502006413828" lon="10.689206840862647"><ele>32.5</ele><time>2026-05-02T06:56:55Z</time></trkpt><trkpt lat="45.25505300642346" lon="10.689532427036681"><ele>32.0</ele><time>2026-05-02T06:56:56Z</time></trkpt><trkpt lat="45.25507666880691" lon="10.689854583453466"><ele>32.0</ele><time>2026-05-02T06:56:57Z</time></trkpt><trkpt lat="45.2550892620235" lon="10.690173815741947"><ele>32.0</ele><time>2026-05-02T06:56:58Z</time></trkpt><trkpt lat="45.255098624539066" lon="10.690488227077724"><ele>32.0</ele><time>2026-05-02T06:56:59Z</time></trkpt><trkpt lat="45.255107998913715" lon="10.690798000777349"><ele>32.0</ele><time>2026-05-02T06:57:00Z</time></trkpt><trkpt lat="45.25511752446555" lon="10.69110649516889"><ele>32.0</ele><time>2026-05-02T06:57:01Z</time></trkpt><trkpt lat="45.25512849610638" lon="10.6914205718124"><ele>32.0</ele><time>2026-05-02T06:57:02Z</time></trkpt><trkpt lat="45.25514059311321" lon="10.691737498802986"><ele>32.33333333333333</ele><time>2026-05-02T06:57:03Z</time></trkpt><trkpt lat="45.25515367255979" lon="10.692051076220581"><ele>32.666666666666664</ele><time>2026-05-02T06:57:04Z</time></trkpt><trkpt lat="45.2551684538555" lon="10.69236586885169"><ele>33.0</ele><time>2026-05-02T06:57:05Z</time></trkpt><trkpt lat="45.25518265233166" lon="10.692682028645864"><ele>33.0</ele><time>2026-05-02T06:57:06Z</time></trkpt><trkpt lat="45.255194197415626" lon="10.693002484532121"><ele>33.0</ele><time>2026-05-02T06:57:07Z</time></trkpt><trkpt lat="45.25520521608024" lon="10.693325756967772"><ele>33.0</ele><time>2026-05-02T06:57:08Z</time></trkpt><trkpt lat="45.25522017818261" lon="10.693649685337295"><ele>33.0</ele><time>2026-05-02T06:57:09Z</time></trkpt><trkpt lat="45.25523311419054" lon="10.693976451010663"><ele>33.0</ele><time>2026-05-02T06:57:10Z</time></trkpt><trkpt lat="45.25524548713705" lon="10.694301437131879"><ele>33.0</ele><time>2026-05-02T06:57:11Z</time></trkpt><trkpt lat="45.25525831898529" lon="10.69462260740464"><ele>33.0</ele><time>2026-05-02T06:57:12Z</time></trkpt><trkpt lat="45.255272277175706" lon="10.6949450233438"><ele>33.0</ele><time>2026-05-02T06:57:13Z</time></trkpt><trkpt lat="45.25528747317588" lon="10.695268461046943"><ele>33.0</ele><time>2026-05-02T06:57:14Z</time></trkpt><trkpt lat="45.25529250327546" lon="10.6955871266878"><ele>33.0</ele><time>2026-05-02T06:57:15Z</time></trkpt><trkpt lat="45.255276347267106" lon="10.695903245211053"><ele>33.0</ele><time>2026-05-02T06:57:16Z</time></trkpt><trkpt lat="45.25524748153242" lon="10.696216529871569"><ele>33.0</ele><time>2026-05-02T06:57:17Z</time></trkpt><trkpt lat="45.2552067454698" lon="10.696524539004164"><ele>33.0</ele><time>2026-05-02T06:57:18Z</time></trkpt><trkpt lat="45.25516318481495" lon="10.696830797587822"><ele>33.0</ele><time>2026-05-02T06:57:19Z</time></trkpt><trkpt lat="45.255117512389916" lon="10.697136106186782"><ele>33.333333333333336</ele><time>2026-05-02T06:57:20Z</time></trkpt><trkpt lat="45.25507096151223" lon="10.69743670447147"><ele>33.66666666666667</ele><time>2026-05-02T06:57:21Z</time></trkpt><trkpt lat="45.255027475511724" lon="10.697732869002776"><ele>34.0</ele><time>2026-05-02T06:57:22Z</time></trkpt><trkpt lat="45.25499867589162" lon="10.698025495429043"><ele>33.333333333333336</ele><time>2026-05-02T06:57:23Z</time></trkpt><trkpt lat="45.25499372223675" lon="10.698317610310989"><ele>32.666666666666664</ele><time>2026-05-02T06:57:24Z</time></trkpt><trkpt lat="45.2550168310188" lon="10.698611945549603"><ele>32.0</ele><time>2026-05-02T06:57:25Z</time></trkpt><trkpt lat="45.25505150006193" lon="10.69890889667777"><ele>32.0</ele><time>2026-05-02T06:57:26Z</time></trkpt><trkpt lat="45.255091710089445" lon="10.699217323101642"><ele>32.0</ele><time>2026-05-02T06:57:27Z</time></trkpt><trkpt lat="45.25513395218331" lon="10.69953704692286"><ele>31.5</ele><time>2026-05-02T06:57:28Z</time></trkpt><trkpt lat="45.25517829597579" lon="10.699865403329781"><ele>31.0</ele><time>2026-05-02T06:57:29Z</time></trkpt><trkpt lat="45.255221836575636" lon="10.700200631594198"><ele>32.0</ele><time>2026-05-02T06:57:30Z</time></trkpt><trkpt lat="45.25526633157875" lon="10.700533991873828"><ele>33.0</ele><time>2026-05-02T06:57:31Z</time></trkpt><trkpt lat="45.255310742603776" lon="10.700873634074593"><ele>32.0</ele><time>2026-05-02T06:57:32Z</time></trkpt><trkpt lat="45.25535334563209" lon="10.701216067051146"><ele>31.0</ele><time>2026-05-02T06:57:32.999Z</time></trkpt><trkpt lat="45.255391907748134" lon="10.701562003130029"><ele>31.0</ele><time>2026-05-02T06:57:33.999Z</time></trkpt><trkpt lat="45.25542550380483" lon="10.70191067789903"><ele>31.0</ele><time>2026-05-02T06:57:34.999Z</time></trkpt><trkpt lat="45.25545189773236" lon="10.70226751090144"><ele>32.0</ele><time>2026-05-02T06:57:35.999Z</time></trkpt><trkpt lat="45.25547597266673" lon="10.702634388929752"><ele>33.0</ele><time>2026-05-02T06:57:36.999Z</time></trkpt><trkpt lat="45.255495210999854" lon="10.703007396932573"><ele>33.0</ele><time>2026-05-02T06:57:37.999Z</time></trkpt><trkpt lat="45.25550873771805" lon="10.703382280097703"><ele>33.0</ele><time>2026-05-02T06:57:38.999Z</time></trkpt><trkpt lat="45.255521055100665" lon="10.703759738029527"><ele>33.0</ele><time>2026-05-02T06:57:39.999Z</time></trkpt><trkpt lat="45.25553311349973" lon="10.704134137671296"><ele>33.0</ele><time>2026-05-02T06:57:40.999Z</time></trkpt><trkpt lat="45.25554172855271" lon="10.70450611922939"><ele>33.5</ele><time>2026-05-02T06:57:41.999Z</time></trkpt><trkpt lat="45.25555030303621" lon="10.704873580998173"><ele>34.0</ele><time>2026-05-02T06:57:42.999Z</time></trkpt><trkpt lat="45.25555744234685" lon="10.705234045029334"><ele>33.5</ele><time>2026-05-02T06:57:43.999Z</time></trkpt><trkpt lat="45.25556337031943" lon="10.705586965358545"><ele>33.0</ele><time>2026-05-02T06:57:44.999Z</time></trkpt><trkpt lat="45.25556880999776" lon="10.705933965000495"><ele>33.0</ele><time>2026-05-02T06:57:45.999Z</time></trkpt><trkpt lat="45.25557551718771" lon="10.706284810441991"><ele>33.0</ele><time>2026-05-02T06:57:46.999Z</time></trkpt><trkpt lat="45.25557983616625" lon="10.706636274210226"><ele>33.5</ele><time>2026-05-02T06:57:47.999Z</time></trkpt><trkpt lat="45.25557997631252" lon="10.706981050802225"><ele>34.0</ele><time>2026-05-02T06:57:48.999Z</time></trkpt><trkpt lat="45.25558348255928" lon="10.707326051207392"><ele>34.0</ele><time>2026-05-02T06:57:49.999Z</time></trkpt><trkpt lat="45.25558814660118" lon="10.707668485242204"><ele>34.0</ele><time>2026-05-02T06:57:50.999Z</time></trkpt><trkpt lat="45.25558864847465" lon="10.708005948736071"><ele>34.0</ele><time>2026-05-02T06:57:51.999Z</time></trkpt><trkpt lat="45.25557874814804" lon="10.708344708504429"><ele>34.0</ele><time>2026-05-02T06:57:52.999Z</time></trkpt><trkpt lat="45.255540911536606" lon="10.708682810592753"><ele>34.0</ele><time>2026-05-02T06:57:53.999Z</time></trkpt><trkpt lat="45.25548814942087" lon="10.709027318591678"><ele>34.0</ele><time>2026-05-02T06:57:54.999Z</time></trkpt><trkpt lat="45.255431411745874" lon="10.709379769874596"><ele>35.0</ele><time>2026-05-02T06:57:56Z</time></trkpt><trkpt lat="45.255374786143015" lon="10.7097332391076"><ele>36.0</ele><time>2026-05-02T06:57:57Z</time></trkpt><trkpt lat="45.25531314194941" lon="10.710089416473114"><ele>37.5</ele><time>2026-05-02T06:57:58Z</time></trkpt><trkpt lat="45.25525085671123" lon="10.710445463115992"><ele>39.0</ele><time>2026-05-02T06:57:59Z</time></trkpt><trkpt lat="45.25519130226046" lon="10.71080282810696"><ele>40.0</ele><time>2026-05-02T06:58:00Z</time></trkpt><trkpt lat="45.255134715580255" lon="10.711162382758218"><ele>41.0</ele><time>2026-05-02T06:58:01Z</time></trkpt><trkpt lat="45.255076368425435" lon="10.711520210024066"><ele>41.0</ele><time>2026-05-02T06:58:02Z</time></trkpt><trkpt lat="45.25501735718769" lon="10.711872308822844"><ele>41.0</ele><time>2026-05-02T06:58:03Z</time></trkpt><trkpt lat="45.254959201261116" lon="10.712213852350544"><ele>41.0</ele><time>2026-05-02T06:58:04Z</time></trkpt><trkpt lat="45.254906480882845" lon="10.712534466260061"><ele>41.0</ele><time>2026-05-02T06:58:05Z</time></trkpt><trkpt lat="45.25485670168155" lon="10.712844898652143"><ele>40.666666666666664</ele><time>2026-05-02T06:58:06Z</time></trkpt><trkpt lat="45.25480656161077" lon="10.713150581090474"><ele>40.333333333333336</ele><time>2026-05-02T06:58:07Z</time></trkpt><trkpt lat="45.25475556864087" lon="10.713460217710317"><ele>40.0</ele><time>2026-05-02T06:58:08Z</time></trkpt><trkpt lat="45.2547049005922" lon="10.7137688511928"><ele>38.66666666666667</ele><time>2026-05-02T06:58:09Z</time></trkpt><trkpt lat="45.25465548583153" lon="10.71407866979135"><ele>37.333333333333336</ele><time>2026-05-02T06:58:10Z</time></trkpt><trkpt lat="45.254608377008864" lon="10.714387992177029"><ele>36.0</ele><time>2026-05-02T06:58:11Z</time></trkpt><trkpt lat="45.25456220779135" lon="10.714696430508324"><ele>36.0</ele><time>2026-05-02T06:58:12Z</time></trkpt><trkpt lat="45.25451620191034" lon="10.715004682655367"><ele>36.0</ele><time>2026-05-02T06:58:13Z</time></trkpt><trkpt lat="45.25447171757331" lon="10.715319471794015"><ele>36.0</ele><time>2026-05-02T06:58:14Z</time></trkpt><trkpt lat="45.25442785484797" lon="10.715642334444883"><ele>35.5</ele><time>2026-05-02T06:58:15Z</time></trkpt><trkpt lat="45.2543810931688" lon="10.71597424199461"><ele>35.0</ele><time>2026-05-02T06:58:16Z</time></trkpt><trkpt lat="45.25433180584195" lon="10.716323946680866"><ele>35.0</ele><time>2026-05-02T06:58:17Z</time></trkpt><trkpt lat="45.25428210207354" lon="10.716685677283913"><ele>35.0</ele><time>2026-05-02T06:58:18Z</time></trkpt><trkpt lat="45.2542312598537" lon="10.717049444082022"><ele>35.5</ele><time>2026-05-02T06:58:19Z</time></trkpt><trkpt lat="45.25418029847376" lon="10.717416407337508"><ele>36.0</ele><time>2026-05-02T06:58:20Z</time></trkpt><trkpt lat="45.25412877376155" lon="10.717782614953814"><ele>36.5</ele><time>2026-05-02T06:58:21Z</time></trkpt><trkpt lat="45.25407884058296" lon="10.718147234593703"><ele>37.0</ele><time>2026-05-02T06:58:21.999Z</time></trkpt><trkpt lat="45.25403264465212" lon="10.718498125545315"><ele>37.5</ele><time>2026-05-02T06:58:22.999Z</time></trkpt><trkpt lat="45.25398710571196" lon="10.718843874449952"><ele>38.0</ele><time>2026-05-02T06:58:23.999Z</time></trkpt><trkpt lat="45.253926838674985" lon="10.719183243274369"><ele>37.5</ele><time>2026-05-02T06:58:24.999Z</time></trkpt><trkpt lat="45.25390483379874" lon="10.719526485309325"><ele>37.0</ele><time>2026-05-02T06:58:25.999Z</time></trkpt><trkpt lat="45.25389115334351" lon="10.719864504956723"><ele>37.0</ele><time>2026-05-02T06:58:26.999Z</time></trkpt><trkpt lat="45.25389749802725" lon="10.72020556516874"><ele>37.0</ele><time>2026-05-02T06:58:27.999Z</time></trkpt><trkpt lat="45.25390850658798" lon="10.720549056778639"><ele>37.0</ele><time>2026-05-02T06:58:28.999Z</time></trkpt><trkpt lat="45.253921119826344" lon="10.720897133438239"><ele>37.0</ele><time>2026-05-02T06:58:29.999Z</time></trkpt><trkpt lat="45.253930018117494" lon="10.721256448557494"><ele>36.5</ele><time>2026-05-02T06:58:30.999Z</time></trkpt><trkpt lat="45.25393848880918" lon="10.721625147035043"><ele>36.0</ele><time>2026-05-02T06:58:31.999Z</time></trkpt><trkpt lat="45.25395361098761" lon="10.722006804436889"><ele>36.0</ele><time>2026-05-02T06:58:32.999Z</time></trkpt><trkpt lat="45.25397115231113" lon="10.722394758356163"><ele>36.0</ele><time>2026-05-02T06:58:33.999Z</time></trkpt><trkpt lat="45.25398951392187" lon="10.722790623160654"><ele>36.0</ele><time>2026-05-02T06:58:34.999Z</time></trkpt><trkpt lat="45.25401104297808" lon="10.72320051287922"><ele>36.0</ele><time>2026-05-02T06:58:35.999Z</time></trkpt><trkpt lat="45.254036827509914" lon="10.72362767642947"><ele>35.5</ele><time>2026-05-02T06:58:36.999Z</time></trkpt><trkpt lat="45.25406972178553" lon="10.724077524723358"><ele>35.0</ele><time>2026-05-02T06:58:37.999Z</time></trkpt><trkpt lat="45.25410659581744" lon="10.724535949388928"><ele>34.5</ele><time>2026-05-02T06:58:38.999Z</time></trkpt><trkpt lat="45.25412294469753" lon="10.72500813132899"><ele>34.0</ele><time>2026-05-02T06:58:39.999Z</time></trkpt><trkpt lat="45.254140828199795" lon="10.725393542959447"><ele>34.0</ele><time>2026-05-02T06:58:40.999Z</time></trkpt><trkpt lat="45.25417319794486" lon="10.72583778806094"><ele>34.0</ele><time>2026-05-02T06:58:41.999Z</time></trkpt><trkpt lat="45.2542022553822" lon="10.726272692122134"><ele>34.5</ele><time>2026-05-02T06:58:42.999Z</time></trkpt><trkpt lat="45.2542273481259" lon="10.726699637469153"><ele>35.0</ele><time>2026-05-02T06:58:43.999Z</time></trkpt><trkpt lat="45.254253143896634" lon="10.72712520964222"><ele>34.5</ele><time>2026-05-02T06:58:44.999Z</time></trkpt><trkpt lat="45.254280364317076" lon="10.727549921152178"><ele>34.0</ele><time>2026-05-02T06:58:45.999Z</time></trkpt><trkpt lat="45.254310760481" lon="10.727973679455593"><ele>34.0</ele><time>2026-05-02T06:58:46.999Z</time></trkpt><trkpt lat="45.254335887341824" lon="10.728392225340652"><ele>34.0</ele><time>2026-05-02T06:58:47.999Z</time></trkpt><trkpt lat="45.25436296952114" lon="10.72881980584106"><ele>34.5</ele><time>2026-05-02T06:58:48.999Z</time></trkpt><trkpt lat="45.254387201152575" lon="10.729242033708141"><ele>35.0</ele><time>2026-05-02T06:58:49.999Z</time></trkpt><trkpt lat="45.25441240661239" lon="10.729653301050616"><ele>34.5</ele><time>2026-05-02T06:58:50.999Z</time></trkpt><trkpt lat="45.25442964508794" lon="10.730036276347036"><ele>34.0</ele><time>2026-05-02T06:58:51.999Z</time></trkpt><trkpt lat="45.2544421768557" lon="10.730398196313123"><ele>34.0</ele><time>2026-05-02T06:58:52.999Z</time></trkpt><trkpt lat="45.2544583273231" lon="10.730738405380114"><ele>34.0</ele><time>2026-05-02T06:58:53.999Z</time></trkpt><trkpt lat="45.25447263343055" lon="10.731053163217657"><ele>34.333333333333336</ele><time>2026-05-02T06:58:54.999Z</time></trkpt><trkpt lat="45.25448486888133" lon="10.731346720863652"><ele>34.666666666666664</ele><time>2026-05-02T06:58:55.999Z</time></trkpt><trkpt lat="45.25449754496143" lon="10.731628812721071"><ele>35.0</ele><time>2026-05-02T06:58:56.999Z</time></trkpt><trkpt lat="45.25451037710286" lon="10.731915449275567"><ele>35.0</ele><time>2026-05-02T06:58:57.999Z</time></trkpt><trkpt lat="45.254528111069106" lon="10.732217039108134"><ele>35.0</ele><time>2026-05-02T06:58:58.999Z</time></trkpt><trkpt lat="45.25455667723468" lon="10.732538396143605"><ele>35.0</ele><time>2026-05-02T06:58:59.999Z</time></trkpt><trkpt lat="45.25459676010916" lon="10.732859200221577"><ele>35.0</ele><time>2026-05-02T06:59:00.999Z</time></trkpt><trkpt lat="45.25463781438231" lon="10.733154242078012"><ele>35.0</ele><time>2026-05-02T06:59:01.999Z</time></trkpt><trkpt lat="45.25465415002345" lon="10.733427387629298"><ele>35.0</ele><time>2026-05-02T06:59:02.999Z</time></trkpt><trkpt lat="45.254680746283896" lon="10.733668871504399"><ele>35.0</ele><time>2026-05-02T06:59:03.999Z</time></trkpt><trkpt lat="45.25470291952721" lon="10.733870192528947"><ele>35.0</ele><time>2026-05-02T06:59:04.999Z</time></trkpt><trkpt lat="45.254723607253716" lon="10.73405802586915"><ele>35.0</ele><time>2026-05-02T06:59:05.999Z</time></trkpt><trkpt lat="45.25475763684761" lon="10.73422005296219"><ele>35.0</ele><time>2026-05-02T06:59:06.999Z</time></trkpt><trkpt lat="45.25476534954183" lon="10.734366746910245"><ele>34.8</ele><time>2026-05-02T06:59:07.999Z</time></trkpt><trkpt lat="45.254781233527304" lon="10.73449563774492"><ele>34.6</ele><time>2026-05-02T06:59:08.999Z</time></trkpt><trkpt lat="45.254795495648054" lon="10.734624626143686"><ele>34.4</ele><time>2026-05-02T06:59:09.999Z</time></trkpt><trkpt lat="45.25481164995498" lon="10.734771571427855"><ele>34.2</ele><time>2026-05-02T06:59:10.999Z</time></trkpt><trkpt lat="45.25483272133025" lon="10.734925462910171"><ele>34.0</ele><time>2026-05-02T06:59:11.999Z</time></trkpt><trkpt lat="45.254862134334786" lon="10.735075655148293"><ele>34.6</ele><time>2026-05-02T06:59:12.999Z</time></trkpt><trkpt lat="45.25489917646534" lon="10.73521965846394"><ele>35.2</ele><time>2026-05-02T06:59:13.999Z</time></trkpt><trkpt lat="45.25494419103259" lon="10.735361106339521"><ele>35.800000000000004</ele><time>2026-05-02T06:59:14.999Z</time></trkpt><trkpt lat="45.25498880906793" lon="10.735500394845737"><ele>36.4</ele><time>2026-05-02T06:59:15.999Z</time></trkpt><trkpt lat="45.255031395249944" lon="10.735642236774462"><ele>37.0</ele><time>2026-05-02T06:59:16.999Z</time></trkpt><trkpt lat="45.2550709646132" lon="10.735784828195738"><ele>37.5</ele><time>2026-05-02T06:59:17.999Z</time></trkpt><trkpt lat="45.255111242254905" lon="10.735918943500177"><ele>38.0</ele><time>2026-05-02T06:59:18.999Z</time></trkpt><trkpt lat="45.255144089805725" lon="10.736039768170144"><ele>38.5</ele><time>2026-05-02T06:59:19.999Z</time></trkpt><trkpt lat="45.255181895947764" lon="10.736150037395749"><ele>39.0</ele><time>2026-05-02T06:59:20.999Z</time></trkpt><trkpt lat="45.2552268430827" lon="10.736245551747501"><ele>39.5</ele><time>2026-05-02T06:59:21.999Z</time></trkpt><trkpt lat="45.25528838306649" lon="10.736308818370821"><ele>40.0</ele><time>2026-05-02T06:59:22.999Z</time></trkpt><trkpt lat="45.25535329863081" lon="10.7363629410477"><ele>40.4</ele><time>2026-05-02T06:59:23.999Z</time></trkpt><trkpt lat="45.25543190310676" lon="10.736394321707"><ele>40.8</ele><time>2026-05-02T06:59:24.999Z</time></trkpt><trkpt lat="45.25551645289933" lon="10.73643464676985"><ele>41.2</ele><time>2026-05-02T06:59:25.999Z</time></trkpt><trkpt lat="45.25559751621912" lon="10.736509888987039"><ele>41.6</ele><time>2026-05-02T06:59:26.999Z</time></trkpt><trkpt lat="45.25567199689515" lon="10.736625899243295"><ele>42.0</ele><time>2026-05-02T06:59:27.999Z</time></trkpt><trkpt lat="45.25573089001716" lon="10.73675178824076"><ele>42.0</ele><time>2026-05-02T06:59:28.999Z</time></trkpt><trkpt lat="45.25577639969897" lon="10.73688930802029"><ele>42.0</ele><time>2026-05-02T06:59:29.999Z</time></trkpt><trkpt lat="45.25581498683791" lon="10.737037096429173"><ele>42.0</ele><time>2026-05-02T06:59:30.999Z</time></trkpt><trkpt lat="45.25585787330253" lon="10.73718906009443"><ele>42.0</ele><time>2026-05-02T06:59:31.999Z</time></trkpt><trkpt lat="45.25590692675063" lon="10.737335492367299"><ele>42.0</ele><time>2026-05-02T06:59:32.999Z</time></trkpt><trkpt lat="45.25595443072682" lon="10.737484626640999"><ele>42.0</ele><time>2026-05-02T06:59:33.999Z</time></trkpt><trkpt lat="45.25600221948728" lon="10.737639287248175"><ele>42.0</ele><time>2026-05-02T06:59:34.999Z</time></trkpt><trkpt lat="45.25605122182718" lon="10.737795083060385"><ele>42.0</ele><time>2026-05-02T06:59:35.999Z</time></trkpt><trkpt lat="45.25610002481762" lon="10.737951026649313"><ele>42.0</ele><time>2026-05-02T06:59:36.999Z</time></trkpt><trkpt lat="45.25614827823395" lon="10.738106966177696"><ele>41.6</ele><time>2026-05-02T06:59:37.999Z</time></trkpt><trkpt lat="45.25619309975315" lon="10.738250387135102"><ele>41.2</ele><time>2026-05-02T06:59:38.999Z</time></trkpt><trkpt lat="45.25623459618427" lon="10.738384418977656"><ele>40.8</ele><time>2026-05-02T06:59:39.999Z</time></trkpt><trkpt lat="45.25627408288342" lon="10.738516290168391"><ele>40.4</ele><time>2026-05-02T06:59:40.999Z</time></trkpt><trkpt lat="45.2563067228784" lon="10.738646131866798"><ele>40.0</ele><time>2026-05-02T06:59:41.999Z</time></trkpt><trkpt lat="45.25632436377428" lon="10.73877706424564"><ele>39.8</ele><time>2026-05-02T06:59:42.999Z</time></trkpt><trkpt lat="45.25632293302078" lon="10.738910008272969"><ele>39.6</ele><time>2026-05-02T06:59:43.999Z</time></trkpt><trkpt lat="45.25631585149825" lon="10.739037940818763"><ele>39.4</ele><time>2026-05-02T06:59:44.999Z</time></trkpt><trkpt lat="45.25631181358478" lon="10.739156361976102"><ele>39.2</ele><time>2026-05-02T06:59:45.999Z</time></trkpt><trkpt lat="45.25633422967895" lon="10.739275988641266"><ele>39.0</ele><time>2026-05-02T06:59:46.999Z</time></trkpt><trkpt lat="45.25638843429062" lon="10.739402426831141"><ele>39.0</ele><time>2026-05-02T06:59:47.999Z</time></trkpt><trkpt lat="45.256467365332654" lon="10.739524310229315"><ele>39.0</ele><time>2026-05-02T06:59:48.999Z</time></trkpt><trkpt lat="45.25655208045262" lon="10.739634133235715"><ele>39.0</ele><time>2026-05-02T06:59:49.999Z</time></trkpt><trkpt lat="45.25663536962859" lon="10.739744104290747"><ele>39.0</ele><time>2026-05-02T06:59:50.999Z</time></trkpt><trkpt lat="45.256705932732636" lon="10.739874338251957"><ele>39.0</ele><time>2026-05-02T06:59:51.999Z</time></trkpt><trkpt lat="45.256762427919845" lon="10.740036211237568"><ele>39.0</ele><time>2026-05-02T06:59:52.998Z</time></trkpt><trkpt lat="45.25681626366174" lon="10.740227860881326"><ele>39.0</ele><time>2026-05-02T06:59:53.998Z</time></trkpt><trkpt lat="45.25688316484002" lon="10.740448384439876"><ele>39.0</ele><time>2026-05-02T06:59:54.998Z</time></trkpt><trkpt lat="45.25696110083754" lon="10.740699013084809"><ele>39.333333333333336</ele><time>2026-05-02T06:59:55.998Z</time></trkpt><trkpt lat="45.25704475752818" lon="10.740956216540074"><ele>39.66666666666667</ele><time>2026-05-02T06:59:56.998Z</time></trkpt><trkpt lat="45.257125955350126" lon="10.741216787835013"><ele>40.0</ele><time>2026-05-02T06:59:57.998Z</time></trkpt><trkpt lat="45.25720141944642" lon="10.741459453433604"><ele>39.66666666666667</ele><time>2026-05-02T06:59:58.998Z</time></trkpt><trkpt lat="45.2572783009644" lon="10.741707114095593"><ele>39.333333333333336</ele><time>2026-05-02T06:59:59.998Z</time></trkpt><trkpt lat="45.25736114746565" lon="10.741964610807555"><ele>39.0</ele><time>2026-05-02T07:00:00.998Z</time></trkpt><trkpt lat="45.257444774573166" lon="10.742227390795856"><ele>39.0</ele><time>2026-05-02T07:00:01.999Z</time></trkpt><trkpt lat="45.25752897294393" lon="10.742490670286978"><ele>39.0</ele><time>2026-05-02T07:00:02.999Z</time></trkpt><trkpt lat="45.25761349346865" lon="10.742752371045297"><ele>39.0</ele><time>2026-05-02T07:00:03.999Z</time></trkpt><trkpt lat="45.257695762893924" lon="10.743008834369014"><ele>39.0</ele><time>2026-05-02T07:00:04.999Z</time></trkpt><trkpt lat="45.25777990482425" lon="10.743267816862325"><ele>39.0</ele><time>2026-05-02T07:00:05.999Z</time></trkpt><trkpt lat="45.25787184205301" lon="10.74355263664526"><ele>39.0</ele><time>2026-05-02T07:00:06.999Z</time></trkpt><trkpt lat="45.25796464796789" lon="10.743844904113075"><ele>39.0</ele><time>2026-05-02T07:00:07.999Z</time></trkpt><trkpt lat="45.25805488093263" lon="10.744127615087775"><ele>39.0</ele><time>2026-05-02T07:00:08.999Z</time></trkpt><trkpt lat="45.25814502093761" lon="10.744405165422505"><ele>39.0</ele><time>2026-05-02T07:00:09.999Z</time></trkpt><trkpt lat="45.258235574413895" lon="10.744683919307816"><ele>39.0</ele><time>2026-05-02T07:00:10.999Z</time></trkpt><trkpt lat="45.25832876930705" lon="10.744964648830045"><ele>39.0</ele><time>2026-05-02T07:00:11.999Z</time></trkpt><trkpt lat="45.258406620168884" lon="10.745260524936933"><ele>39.0</ele><time>2026-05-02T07:00:12.999Z</time></trkpt><trkpt lat="45.25850263407695" lon="10.745563806551534"><ele>39.0</ele><time>2026-05-02T07:00:13.999Z</time></trkpt><trkpt lat="45.25860215333993" lon="10.745877612585053"><ele>39.0</ele><time>2026-05-02T07:00:14.999Z</time></trkpt><trkpt lat="45.258705951341284" lon="10.746203360832244"><ele>38.5</ele><time>2026-05-02T07:00:15.999Z</time></trkpt><trkpt lat="45.25880968258511" lon="10.746531125816416"><ele>38.0</ele><time>2026-05-02T07:00:16.999Z</time></trkpt><trkpt lat="45.25892340264681" lon="10.74684492610909"><ele>39.5</ele><time>2026-05-02T07:00:17.999Z</time></trkpt><trkpt lat="45.25901777908873" lon="10.747160921628776"><ele>41.0</ele><time>2026-05-02T07:00:18.999Z</time></trkpt><trkpt lat="45.25910975022723" lon="10.747465693451801"><ele>40.5</ele><time>2026-05-02T07:00:19.999Z</time></trkpt><trkpt lat="45.25920406988661" lon="10.747761723104222"><ele>40.0</ele><time>2026-05-02T07:00:20.999Z</time></trkpt><trkpt lat="45.25929918852321" lon="10.748064676229188"><ele>40.0</ele><time>2026-05-02T07:00:21.999Z</time></trkpt><trkpt lat="45.25939563711327" lon="10.748371970582404"><ele>40.0</ele><time>2026-05-02T07:00:22.999Z</time></trkpt><trkpt lat="45.259493347992574" lon="10.748680165380724"><ele>39.0</ele><time>2026-05-02T07:00:23.999Z</time></trkpt><trkpt lat="45.25959382132051" lon="10.74899505172265"><ele>38.0</ele><time>2026-05-02T07:00:24.999Z</time></trkpt><trkpt lat="45.259696084995895" lon="10.74931482596852"><ele>38.0</ele><time>2026-05-02T07:00:25.999Z</time></trkpt><trkpt lat="45.259795776187005" lon="10.74963465412946"><ele>38.0</ele><time>2026-05-02T07:00:26.999Z</time></trkpt><trkpt lat="45.25989766198975" lon="10.749954039143901"><ele>37.5</ele><time>2026-05-02T07:00:27.999Z</time></trkpt><trkpt lat="45.259994837938684" lon="10.750260946129474"><ele>37.0</ele><time>2026-05-02T07:00:28.999Z</time></trkpt><trkpt lat="45.26008727836089" lon="10.750548005576755"><ele>37.0</ele><time>2026-05-02T07:00:29.999Z</time></trkpt><trkpt lat="45.26017367973401" lon="10.75082336788031"><ele>37.0</ele><time>2026-05-02T07:00:30.999Z</time></trkpt><trkpt lat="45.26025912407427" lon="10.751086915579336"><ele>37.0</ele><time>2026-05-02T07:00:31.999Z</time></trkpt><trkpt lat="45.26034169542427" lon="10.751331239816915"><ele>37.333333333333336</ele><time>2026-05-02T07:00:32.999Z</time></trkpt><trkpt lat="45.26041757173161" lon="10.751553246255158"><ele>37.666666666666664</ele><time>2026-05-02T07:00:33.999Z</time></trkpt><trkpt lat="45.26049261865666" lon="10.751759681827572"><ele>38.0</ele><time>2026-05-02T07:00:34.999Z</time></trkpt><trkpt lat="45.26056285134327" lon="10.75195989930267"><ele>38.25</ele><time>2026-05-02T07:00:35.999Z</time></trkpt><trkpt lat="45.26061494095814" lon="10.752168200975097"><ele>38.5</ele><time>2026-05-02T07:00:36.999Z</time></trkpt><trkpt lat="45.260675970756516" lon="10.752361979399153"><ele>38.75</ele><time>2026-05-02T07:00:37.999Z</time></trkpt><trkpt lat="45.26073158915421" lon="10.752535680790347"><ele>39.0</ele><time>2026-05-02T07:00:38.999Z</time></trkpt><trkpt lat="45.260787125889586" lon="10.752709125751563"><ele>39.166666666666664</ele><time>2026-05-02T07:00:39.999Z</time></trkpt><trkpt lat="45.260863324555025" lon="10.752853585680546"><ele>39.333333333333336</ele><time>2026-05-02T07:00:40.999Z</time></trkpt><trkpt lat="45.26090611413196" lon="10.752983494941017"><ele>39.5</ele><time>2026-05-02T07:00:41.999Z</time></trkpt><trkpt lat="45.26094522215095" lon="10.753088481707376"><ele>39.66666666666667</ele><time>2026-05-02T07:00:42.999Z</time></trkpt><trkpt lat="45.260989412900265" lon="10.753168378743695"><ele>39.833333333333336</ele><time>2026-05-02T07:00:43.999Z</time></trkpt><trkpt lat="45.2609633090527" lon="10.753252957303058"><ele>40.0</ele><time>2026-05-02T07:00:44.999Z</time></trkpt><trkpt lat="45.26112609155657" lon="10.7531911708119"><ele>40.0</ele><time>2026-05-02T07:00:45.999Z</time></trkpt><trkpt lat="45.26122215931266" lon="10.753164611455329"><ele>40.0</ele><time>2026-05-02T07:00:46.999Z</time></trkpt><trkpt lat="45.26133752460465" lon="10.753123251063808"><ele>40.0</ele><time>2026-05-02T07:00:47.999Z</time></trkpt><trkpt lat="45.261468761297884" lon="10.753076838909381"><ele>40.0</ele><time>2026-05-02T07:00:48.999Z</time></trkpt><trkpt lat="45.26161125425797" lon="10.753037021784301"><ele>40.0</ele><time>2026-05-02T07:00:49.999Z</time></trkpt><trkpt lat="45.26175842354865" lon="10.752996372730879"><ele>40.0</ele><time>2026-05-02T07:00:50.999Z</time></trkpt><trkpt lat="45.26191448808396" lon="10.752955037439202"><ele>40.0</ele><time>2026-05-02T07:00:51.999Z</time></trkpt><trkpt lat="45.26207538150006" lon="10.752914234447452"><ele>40.0</ele><time>2026-05-02T07:00:52.999Z</time></trkpt><trkpt lat="45.26224260369363" lon="10.752870403087805"><ele>40.0</ele><time>2026-05-02T07:00:53.999Z</time></trkpt><trkpt lat="45.26241311920749" lon="10.75282417891937"><ele>40.0</ele><time>2026-05-02T07:00:54.999Z</time></trkpt><trkpt lat="45.26258273370361" lon="10.752777152402706"><ele>39.66666666666667</ele><time>2026-05-02T07:00:55.999Z</time></trkpt><trkpt lat="45.26274172200121" lon="10.752733697404366"><ele>39.333333333333336</ele><time>2026-05-02T07:00:56.999Z</time></trkpt><trkpt lat="45.26289055157115" lon="10.752693041404797"><ele>39.0</ele><time>2026-05-02T07:00:57.999Z</time></trkpt><trkpt lat="45.26303215474092" lon="10.752651096856109"><ele>39.0</ele><time>2026-05-02T07:00:58.999Z</time></trkpt><trkpt lat="45.26317513331426" lon="10.75260666607923"><ele>39.0</ele><time>2026-05-02T07:00:59.999Z</time></trkpt><trkpt lat="45.263313187453846" lon="10.752570868544222"><ele>39.0</ele><time>2026-05-02T07:01:00.999Z</time></trkpt><trkpt lat="45.263445414084806" lon="10.752533417418283"><ele>39.0</ele><time>2026-05-02T07:01:01.999Z</time></trkpt><trkpt lat="45.2635779469957" lon="10.752498899335956"><ele>39.0</ele><time>2026-05-02T07:01:02.999Z</time></trkpt><trkpt lat="45.263710185077315" lon="10.752459850873864"><ele>39.0</ele><time>2026-05-02T07:01:03.999Z</time></trkpt><trkpt lat="45.26384404986904" lon="10.752419257937722"><ele>39.0</ele><time>2026-05-02T07:01:04.999Z</time></trkpt><trkpt lat="45.26398453517558" lon="10.752379064401145"><ele>39.0</ele><time>2026-05-02T07:01:05.999Z</time></trkpt><trkpt lat="45.26412939774745" lon="10.752337591367729"><ele>39.75</ele><time>2026-05-02T07:01:06.999Z</time></trkpt><trkpt lat="45.26427526930962" lon="10.752297877832484"><ele>40.5</ele><time>2026-05-02T07:01:07.999Z</time></trkpt><trkpt lat="45.26442065790366" lon="10.752255274646481"><ele>41.25</ele><time>2026-05-02T07:01:08.999Z</time></trkpt><trkpt lat="45.264567300859554" lon="10.752211848225084"><ele>42.0</ele><time>2026-05-02T07:01:09.999Z</time></trkpt><trkpt lat="45.264720881111145" lon="10.75216527238848"><ele>41.666666666666664</ele><time>2026-05-02T07:01:10.999Z</time></trkpt><trkpt lat="45.26488088937053" lon="10.752121225215205"><ele>41.33333333333333</ele><time>2026-05-02T07:01:11.999Z</time></trkpt><trkpt lat="45.265043457637454" lon="10.75207382467378"><ele>41.0</ele><time>2026-05-02T07:01:12.999Z</time></trkpt><trkpt lat="45.265208133340096" lon="10.752026388202296"><ele>41.0</ele><time>2026-05-02T07:01:13.999Z</time></trkpt><trkpt lat="45.265374645588324" lon="10.751978298099873"><ele>41.0</ele><time>2026-05-02T07:01:14.999Z</time></trkpt><trkpt lat="45.26553937522997" lon="10.751926778172848"><ele>41.0</ele><time>2026-05-02T07:01:15.999Z</time></trkpt><trkpt lat="45.265712855043276" lon="10.751876062208312"><ele>41.33333333333333</ele><time>2026-05-02T07:01:16.999Z</time></trkpt><trkpt lat="45.26589757470282" lon="10.751823607726994"><ele>41.666666666666664</ele><time>2026-05-02T07:01:17.999Z</time></trkpt><trkpt lat="45.266088498259364" lon="10.75177016752726"><ele>42.0</ele><time>2026-05-02T07:01:18.999Z</time></trkpt><trkpt lat="45.26628923338128" lon="10.751706724383734"><ele>41.666666666666664</ele><time>2026-05-02T07:01:19.999Z</time></trkpt><trkpt lat="45.26649364499722" lon="10.751652917290247"><ele>41.33333333333333</ele><time>2026-05-02T07:01:20.999Z</time></trkpt><trkpt lat="45.266701743068104" lon="10.751588947222059"><ele>41.0</ele><time>2026-05-02T07:01:21.999Z</time></trkpt><trkpt lat="45.26689551468564" lon="10.751534703593117"><ele>41.0</ele><time>2026-05-02T07:01:22.999Z</time></trkpt><trkpt lat="45.267079874960906" lon="10.751482172946824"><ele>41.0</ele><time>2026-05-02T07:01:23.999Z</time></trkpt><trkpt lat="45.267263719050604" lon="10.75142519751867"><ele>41.0</ele><time>2026-05-02T07:01:24.999Z</time></trkpt><trkpt lat="45.26743941690027" lon="10.75137507712417"><ele>40.666666666666664</ele><time>2026-05-02T07:01:25.999Z</time></trkpt><trkpt lat="45.26761524589661" lon="10.7513273619149"><ele>40.333333333333336</ele><time>2026-05-02T07:01:26.999Z</time></trkpt><trkpt lat="45.26779561516774" lon="10.751279510858092"><ele>40.0</ele><time>2026-05-02T07:01:27.999Z</time></trkpt><trkpt lat="45.26797644722138" lon="10.751228251298178"><ele>40.333333333333336</ele><time>2026-05-02T07:01:28.999Z</time></trkpt><trkpt lat="45.26815978172281" lon="10.75117555487833"><ele>40.666666666666664</ele><time>2026-05-02T07:01:29.999Z</time></trkpt><trkpt lat="45.26834413164486" lon="10.751122903942854"><ele>41.0</ele><time>2026-05-02T07:01:30.999Z</time></trkpt><trkpt lat="45.268531884794214" lon="10.751063689197645"><ele>40.666666666666664</ele><time>2026-05-02T07:01:31.999Z</time></trkpt><trkpt lat="45.26871508799909" lon="10.751000562389121"><ele>40.333333333333336</ele><time>2026-05-02T07:01:32.999Z</time></trkpt><trkpt lat="45.26889647145711" lon="10.750928664990642"><ele>40.0</ele><time>2026-05-02T07:01:33.999Z</time></trkpt><trkpt lat="45.269081143749816" lon="10.75084842493374"><ele>40.66666666666667</ele><time>2026-05-02T07:01:34.999Z</time></trkpt><trkpt lat="45.26926902181952" lon="10.75076560094477"><ele>41.333333333333336</ele><time>2026-05-02T07:01:35.999Z</time></trkpt><trkpt lat="45.26945803243434" lon="10.750679203924573"><ele>42.0</ele><time>2026-05-02T07:01:36.999Z</time></trkpt><trkpt lat="45.269649370492154" lon="10.750583916835863"><ele>42.0</ele><time>2026-05-02T07:01:37.999Z</time></trkpt><trkpt lat="45.26984330017784" lon="10.750482025124677"><ele>42.0</ele><time>2026-05-02T07:01:38.999Z</time></trkpt><trkpt lat="45.27004001755616" lon="10.750377101442274"><ele>42.0</ele><time>2026-05-02T07:01:39.999Z</time></trkpt><trkpt lat="45.270239341183206" lon="10.750269553123397"><ele>41.666666666666664</ele><time>2026-05-02T07:01:40.999Z</time></trkpt><trkpt lat="45.27043575211431" lon="10.750162723875626"><ele>41.33333333333333</ele><time>2026-05-02T07:01:41.999Z</time></trkpt><trkpt lat="45.27063445561005" lon="10.75005720990687"><ele>41.0</ele><time>2026-05-02T07:01:42.999Z</time></trkpt><trkpt lat="45.27083627491676" lon="10.749952083317037"><ele>41.0</ele><time>2026-05-02T07:01:43.999Z</time></trkpt><trkpt lat="45.27103943958643" lon="10.749845204759199"><ele>41.0</ele><time>2026-05-02T07:01:44.999Z</time></trkpt><trkpt lat="45.27124390198651" lon="10.749736379951809"><ele>41.0</ele><time>2026-05-02T07:01:45.999Z</time></trkpt><trkpt lat="45.27144809494512" lon="10.749629042555759"><ele>41.33333333333333</ele><time>2026-05-02T07:01:46.999Z</time></trkpt><trkpt lat="45.27164218202849" lon="10.749526394118242"><ele>41.666666666666664</ele><time>2026-05-02T07:01:47.999Z</time></trkpt><trkpt lat="45.27182578066306" lon="10.749426947034728"><ele>42.0</ele><time>2026-05-02T07:01:48.999Z</time></trkpt><trkpt lat="45.272007501804026" lon="10.7493306623957"><ele>42.0</ele><time>2026-05-02T07:01:49.999Z</time></trkpt><trkpt lat="45.2721867148223" lon="10.749237634075829"><ele>42.0</ele><time>2026-05-02T07:01:50.999Z</time></trkpt><trkpt lat="45.27235970702591" lon="10.74914798482329"><ele>42.0</ele><time>2026-05-02T07:01:51.999Z</time></trkpt><trkpt lat="45.27252103015875" lon="10.749063848387525"><ele>42.333333333333336</ele><time>2026-05-02T07:01:52.999Z</time></trkpt><trkpt lat="45.27267695043044" lon="10.748981084928603"><ele>42.66666666666667</ele><time>2026-05-02T07:01:53.999Z</time></trkpt><trkpt lat="45.27283118324494" lon="10.748901383251061"><ele>43.0</ele><time>2026-05-02T07:01:54.999Z</time></trkpt><trkpt lat="45.27297325653312" lon="10.748832418325419"><ele>43.0</ele><time>2026-05-02T07:01:55.999Z</time></trkpt><trkpt lat="45.27309311078395" lon="10.748772658751456"><ele>43.0</ele><time>2026-05-02T07:01:56.999Z</time></trkpt><trkpt lat="45.27319382974774" lon="10.748723825716901"><ele>43.0</ele><time>2026-05-02T07:01:57.999Z</time></trkpt><trkpt lat="45.273273873349154" lon="10.748687332303962"><ele>43.0</ele><time>2026-05-02T07:01:58.999Z</time></trkpt><trkpt lat="45.27333949968985" lon="10.74865927684584"><ele>43.0</ele><time>2026-05-02T07:01:59.999Z</time></trkpt><trkpt lat="45.273400866345305" lon="10.748633522458046"><ele>43.0</ele><time>2026-05-02T07:02:00.999Z</time></trkpt><trkpt lat="45.27347804536459" lon="10.748598309843814"><ele>43.0</ele><time>2026-05-02T07:02:01.999Z</time></trkpt><trkpt lat="45.27356540565176" lon="10.748561457217978"><ele>43.0</ele><time>2026-05-02T07:02:02.999Z</time></trkpt><trkpt lat="45.27365459228377" lon="10.748525000311933"><ele>43.0</ele><time>2026-05-02T07:02:03.999Z</time></trkpt><trkpt lat="45.27373537104149" lon="10.748489793569636"><ele>43.0</ele><time>2026-05-02T07:02:04.999Z</time></trkpt><trkpt lat="45.27380262325385" lon="10.748458433668945"><ele>43.0</ele><time>2026-05-02T07:02:05.998Z</time></trkpt><trkpt lat="45.273867225970164" lon="10.748427928908216"><ele>43.0</ele><time>2026-05-02T07:02:06.998Z</time></trkpt><trkpt lat="45.27393258915122" lon="10.748397665406952"><ele>43.0</ele><time>2026-05-02T07:02:07.999Z</time></trkpt><trkpt lat="45.2740121633981" lon="10.748362211837929"><ele>43.0</ele><time>2026-05-02T07:02:08.999Z</time></trkpt><trkpt lat="45.27410895682008" lon="10.748318778458332"><ele>43.0</ele><time>2026-05-02T07:02:09.999Z</time></trkpt><trkpt lat="45.274214686383885" lon="10.748276662420226"><ele>43.0</ele><time>2026-05-02T07:02:10.999Z</time></trkpt><trkpt lat="45.27433147696651" lon="10.748226420471953"><ele>43.0</ele><time>2026-05-02T07:02:11.999Z</time></trkpt><trkpt lat="45.27445938072032" lon="10.748169570655032"><ele>43.0</ele><time>2026-05-02T07:02:12.999Z</time></trkpt><trkpt lat="45.27459928625" lon="10.748107448458894"><ele>43.0</ele><time>2026-05-02T07:02:13.999Z</time></trkpt><trkpt lat="45.274751618924796" lon="10.748042505346522"><ele>43.0</ele><time>2026-05-02T07:02:14.999Z</time></trkpt><trkpt lat="45.27490931422557" lon="10.747974330779611"><ele>43.66666666666667</ele><time>2026-05-02T07:02:15.999Z</time></trkpt><trkpt lat="45.27506654356582" lon="10.747904913538846"><ele>44.333333333333336</ele><time>2026-05-02T07:02:16.999Z</time></trkpt><trkpt lat="45.275223695920324" lon="10.747835957142437"><ele>45.0</ele><time>2026-05-02T07:02:17.999Z</time></trkpt><trkpt lat="45.27538582915515" lon="10.747767528904616"><ele>44.666666666666664</ele><time>2026-05-02T07:02:18.999Z</time></trkpt><trkpt lat="45.275557066743055" lon="10.74769699756254"><ele>44.33333333333333</ele><time>2026-05-02T07:02:19.999Z</time></trkpt><trkpt lat="45.2757325191751" lon="10.747629099618491"><ele>44.0</ele><time>2026-05-02T07:02:20.999Z</time></trkpt><trkpt lat="45.27590763576551" lon="10.747564372738662"><ele>44.666666666666664</ele><time>2026-05-02T07:02:21.999Z</time></trkpt><trkpt lat="45.276081211225026" lon="10.747498525346426"><ele>45.333333333333336</ele><time>2026-05-02T07:02:22.999Z</time></trkpt><trkpt lat="45.27624150972196" lon="10.747432965586224"><ele>46.0</ele><time>2026-05-02T07:02:23.999Z</time></trkpt><trkpt lat="45.276394548056786" lon="10.747369792983978"><ele>46.333333333333336</ele><time>2026-05-02T07:02:24.999Z</time></trkpt><trkpt lat="45.27654890219956" lon="10.747310949724218"><ele>46.666666666666664</ele><time>2026-05-02T07:02:25.999Z</time></trkpt><trkpt lat="45.276713155215525" lon="10.747250653671609"><ele>47.0</ele><time>2026-05-02T07:02:26.999Z</time></trkpt><trkpt lat="45.27688485198584" lon="10.747186253237393"><ele>47.0</ele><time>2026-05-02T07:02:27.999Z</time></trkpt><trkpt lat="45.27705599554682" lon="10.747125330478328"><ele>47.0</ele><time>2026-05-02T07:02:28.999Z</time></trkpt><trkpt lat="45.27723013125219" lon="10.747063128602147"><ele>47.0</ele><time>2026-05-02T07:02:29.999Z</time></trkpt><trkpt lat="45.27741023322085" lon="10.74700536821335"><ele>46.666666666666664</ele><time>2026-05-02T07:02:30.999Z</time></trkpt><trkpt lat="45.27759126074149" lon="10.746954827236502"><ele>46.333333333333336</ele><time>2026-05-02T07:02:31.999Z</time></trkpt><trkpt lat="45.277774269147066" lon="10.746907542179734"><ele>46.0</ele><time>2026-05-02T07:02:32.999Z</time></trkpt><trkpt lat="45.277958859247626" lon="10.746862889116548"><ele>46.0</ele><time>2026-05-02T07:02:33.999Z</time></trkpt><trkpt lat="45.278143530629926" lon="10.746820107287187"><ele>46.0</ele><time>2026-05-02T07:02:34.999Z</time></trkpt><trkpt lat="45.27833324319903" lon="10.746782544927589"><ele>46.0</ele><time>2026-05-02T07:02:35.999Z</time></trkpt><trkpt lat="45.2785248383719" lon="10.74675642710113"><ele>46.0</ele><time>2026-05-02T07:02:36.999Z</time></trkpt><trkpt lat="45.27872330205111" lon="10.74675074287907"><ele>46.0</ele><time>2026-05-02T07:02:37.999Z</time></trkpt><trkpt lat="45.27891983729481" lon="10.746768191444824"><ele>46.0</ele><time>2026-05-02T07:02:38.999Z</time></trkpt><trkpt lat="45.27907638362033" lon="10.746772724883957"><ele>45.8</ele><time>2026-05-02T07:02:39.999Z</time></trkpt><trkpt lat="45.279198802966484" lon="10.746795347860905"><ele>45.599999999999994</ele><time>2026-05-02T07:02:40.999Z</time></trkpt><trkpt lat="45.27929151929843" lon="10.746806113622686"><ele>45.4</ele><time>2026-05-02T07:02:41.999Z</time></trkpt><trkpt lat="45.27936709448162" lon="10.746817579103107"><ele>45.2</ele><time>2026-05-02T07:02:42.999Z</time></trkpt><trkpt lat="45.27947624994726" lon="10.746829715893387"><ele>45.0</ele><time>2026-05-02T07:02:44.999Z</time></trkpt><trkpt lat="45.27954882039091" lon="10.74683393969936"><ele>45.0</ele><time>2026-05-02T07:02:46.999Z</time></trkpt><trkpt lat="45.27961095509443" lon="10.746851658672604"><ele>45.0</ele><time>2026-05-02T07:02:49.999Z</time></trkpt><trkpt lat="45.27968150062352" lon="10.746861483779792"><ele>45.0</ele><time>2026-05-02T07:02:51.999Z</time></trkpt><trkpt lat="45.279805802564894" lon="10.746893697822355"><ele>45.0</ele><time>2026-05-02T07:02:53.999Z</time></trkpt><trkpt lat="45.27989990601912" lon="10.746912447920463"><ele>45.0</ele><time>2026-05-02T07:02:54.999Z</time></trkpt><trkpt lat="45.27999754239454" lon="10.7469314645253"><ele>45.5</ele><time>2026-05-02T07:02:55.999Z</time></trkpt><trkpt lat="45.28010673817334" lon="10.746946542115959"><ele>46.0</ele><time>2026-05-02T07:02:56.999Z</time></trkpt><trkpt lat="45.28023325985281" lon="10.746963823285013"><ele>46.5</ele><time>2026-05-02T07:02:57.999Z</time></trkpt><trkpt lat="45.280364785642504" lon="10.7469854220585"><ele>47.0</ele><time>2026-05-02T07:02:58.999Z</time></trkpt><trkpt lat="45.28050218520749" lon="10.747016394036214"><ele>47.0</ele><time>2026-05-02T07:02:59.999Z</time></trkpt><trkpt lat="45.280648132730214" lon="10.747051380708369"><ele>47.0</ele><time>2026-05-02T07:03:00.999Z</time></trkpt><trkpt lat="45.28080070825301" lon="10.747084352123387"><ele>47.0</ele><time>2026-05-02T07:03:01.999Z</time></trkpt><trkpt lat="45.280954548775064" lon="10.747120194220392"><ele>47.0</ele><time>2026-05-02T07:03:02.999Z</time></trkpt><trkpt lat="45.28112173024436" lon="10.74714369061955"><ele>47.0</ele><time>2026-05-02T07:03:03.999Z</time></trkpt><trkpt lat="45.28128783332314" lon="10.747169802539506"><ele>47.0</ele><time>2026-05-02T07:03:04.999Z</time></trkpt><trkpt lat="45.2814620744662" lon="10.74720250338164"><ele>47.33333333333333</ele><time>2026-05-02T07:03:05.999Z</time></trkpt><trkpt lat="45.281648691992345" lon="10.747232154073247"><ele>47.666666666666664</ele><time>2026-05-02T07:03:06.999Z</time></trkpt><trkpt lat="45.28183248476601" lon="10.747264283992939"><ele>48.0</ele><time>2026-05-02T07:03:07.999Z</time></trkpt><trkpt lat="45.28202017226258" lon="10.747296000877721"><ele>48.0</ele><time>2026-05-02T07:03:08.999Z</time></trkpt><trkpt lat="45.28220386166927" lon="10.747330888498052"><ele>48.0</ele><time>2026-05-02T07:03:09.999Z</time></trkpt><trkpt lat="45.28238702614933" lon="10.747345292907491"><ele>48.0</ele><time>2026-05-02T07:03:10.999Z</time></trkpt><trkpt lat="45.28257279178307" lon="10.747354095044594"><ele>48.0</ele><time>2026-05-02T07:03:11.999Z</time></trkpt><trkpt lat="45.28276379087887" lon="10.747367600096547"><ele>48.0</ele><time>2026-05-02T07:03:12.999Z</time></trkpt><trkpt lat="45.28296025240962" lon="10.747379990644454"><ele>48.0</ele><time>2026-05-02T07:03:13.999Z</time></trkpt><trkpt lat="45.28314967993061" lon="10.74739842977313"><ele>48.0</ele><time>2026-05-02T07:03:14.999Z</time></trkpt><trkpt lat="45.28333914782922" lon="10.747416466310016"><ele>48.0</ele><time>2026-05-02T07:03:15.999Z</time></trkpt><trkpt lat="45.283524821835044" lon="10.747434735371536"><ele>48.0</ele><time>2026-05-02T07:03:16.999Z</time></trkpt><trkpt lat="45.28371359684178" lon="10.747446823810966"><ele>48.0</ele><time>2026-05-02T07:03:17.999Z</time></trkpt><trkpt lat="45.28389841436272" lon="10.747469517356132"><ele>48.0</ele><time>2026-05-02T07:03:18.999Z</time></trkpt><trkpt lat="45.2840886496257" lon="10.747486690020807"><ele>48.0</ele><time>2026-05-02T07:03:19.999Z</time></trkpt><trkpt lat="45.28426834212615" lon="10.747500223122563"><ele>48.33333333333333</ele><time>2026-05-02T07:03:20.999Z</time></trkpt><trkpt lat="45.28443059962725" lon="10.747523395676751"><ele>48.666666666666664</ele><time>2026-05-02T07:03:21.999Z</time></trkpt><trkpt lat="45.28458734458274" lon="10.74753921855949"><ele>49.0</ele><time>2026-05-02T07:03:22.999Z</time></trkpt><trkpt lat="45.28474098894635" lon="10.747552081137353"><ele>49.666666666666664</ele><time>2026-05-02T07:03:23.999Z</time></trkpt><trkpt lat="45.284893260971394" lon="10.747566089578676"><ele>50.33333333333333</ele><time>2026-05-02T07:03:24.999Z</time></trkpt><trkpt lat="45.285046218732965" lon="10.74758254268025"><ele>51.0</ele><time>2026-05-02T07:03:25.999Z</time></trkpt><trkpt lat="45.28519692849467" lon="10.74759340447593"><ele>51.0</ele><time>2026-05-02T07:03:26.999Z</time></trkpt><trkpt lat="45.28533899922651" lon="10.74760454047728"><ele>51.0</ele><time>2026-05-02T07:03:27.999Z</time></trkpt><trkpt lat="45.28547616399207" lon="10.747619875018543"><ele>51.0</ele><time>2026-05-02T07:03:28.999Z</time></trkpt><trkpt lat="45.2856027397129" lon="10.747636339937218"><ele>51.0</ele><time>2026-05-02T07:03:29.999Z</time></trkpt><trkpt lat="45.2857236292221" lon="10.747650123295099"><ele>51.0</ele><time>2026-05-02T07:03:30.999Z</time></trkpt><trkpt lat="45.285836032235615" lon="10.74765484646667"><ele>51.0</ele><time>2026-05-02T07:03:31.999Z</time></trkpt><trkpt lat="45.28593438225292" lon="10.74766384069447"><ele>51.0</ele><time>2026-05-02T07:03:32.999Z</time></trkpt><trkpt lat="45.28602226760308" lon="10.747670354803455"><ele>51.0</ele><time>2026-05-02T07:03:33.999Z</time></trkpt><trkpt lat="45.28609921844299" lon="10.747676987088608"><ele>51.0</ele><time>2026-05-02T07:03:34.999Z</time></trkpt><trkpt lat="45.28616816712251" lon="10.74769117225653"><ele>51.0</ele><time>2026-05-02T07:03:35.999Z</time></trkpt><trkpt lat="45.28626673058102" lon="10.747720310341107"><ele>51.0</ele><time>2026-05-02T07:03:37.999Z</time></trkpt><trkpt lat="45.28633091538701" lon="10.74774685552051"><ele>51.0</ele><time>2026-05-02T07:03:39.999Z</time></trkpt><trkpt lat="45.28639228074374" lon="10.747771098896802"><ele>51.0</ele><time>2026-05-02T07:03:40.999Z</time></trkpt><trkpt lat="45.2864861090198" lon="10.747777120187498"><ele>51.0</ele><time>2026-05-02T07:03:41.999Z</time></trkpt><trkpt lat="45.28660462837702" lon="10.747759376460603"><ele>51.0</ele><time>2026-05-02T07:03:42.999Z</time></trkpt><trkpt lat="45.286757355378136" lon="10.747748796890608"><ele>50.66666666666667</ele><time>2026-05-02T07:03:43.999Z</time></trkpt><trkpt lat="45.28692613393242" lon="10.747763361322535"><ele>50.333333333333336</ele><time>2026-05-02T07:03:44.999Z</time></trkpt><trkpt lat="45.28710367267685" lon="10.747782019172218"><ele>50.0</ele><time>2026-05-02T07:03:45.999Z</time></trkpt><trkpt lat="45.28728218379913" lon="10.747800723950176"><ele>51.0</ele><time>2026-05-02T07:03:46.999Z</time></trkpt><trkpt lat="45.28746913812535" lon="10.747815807484255"><ele>52.0</ele><time>2026-05-02T07:03:47.999Z</time></trkpt><trkpt lat="45.287671586538856" lon="10.747835078089253"><ele>53.0</ele><time>2026-05-02T07:03:48.999Z</time></trkpt><trkpt lat="45.28787567669384" lon="10.747858611557037"><ele>53.0</ele><time>2026-05-02T07:03:49.999Z</time></trkpt><trkpt lat="45.28807615097866" lon="10.747876258867505"><ele>53.0</ele><time>2026-05-02T07:03:50.999Z</time></trkpt><trkpt lat="45.288284189525925" lon="10.747893025234285"><ele>53.0</ele><time>2026-05-02T07:03:51.999Z</time></trkpt><trkpt lat="45.288502356189056" lon="10.747906754967069"><ele>53.0</ele><time>2026-05-02T07:03:52.999Z</time></trkpt><trkpt lat="45.28872181304183" lon="10.747918536999217"><ele>53.0</ele><time>2026-05-02T07:03:53.999Z</time></trkpt><trkpt lat="45.288943911544706" lon="10.74792594384624"><ele>53.0</ele><time>2026-05-02T07:03:54.999Z</time></trkpt><trkpt lat="45.28916986746718" lon="10.747935342458838"><ele>52.0</ele><time>2026-05-02T07:03:55.999Z</time></trkpt><trkpt lat="45.28939834552616" lon="10.747947427470478"><ele>51.0</ele><time>2026-05-02T07:03:56.999Z</time></trkpt><trkpt lat="45.289628618219886" lon="10.747957369679986"><ele>51.0</ele><time>2026-05-02T07:03:57.999Z</time></trkpt><trkpt lat="45.28986810830208" lon="10.747965560003642"><ele>51.0</ele><time>2026-05-02T07:03:58.999Z</time></trkpt><trkpt lat="45.29011438265352" lon="10.747977795717706"><ele>51.0</ele><time>2026-05-02T07:03:59.999Z</time></trkpt><trkpt lat="45.29036819066405" lon="10.747997360033294"><ele>51.0</ele><time>2026-05-02T07:04:00.999Z</time></trkpt><trkpt lat="45.29062460287855" lon="10.748024498719023"><ele>51.5</ele><time>2026-05-02T07:04:01.999Z</time></trkpt><trkpt lat="45.290883652673514" lon="10.748063489060064"><ele>52.0</ele><time>2026-05-02T07:04:02.999Z</time></trkpt><trkpt lat="45.29113660723867" lon="10.748103785699486"><ele>52.0</ele><time>2026-05-02T07:04:03.999Z</time></trkpt><trkpt lat="45.29137091382394" lon="10.748138466614737"><ele>52.0</ele><time>2026-05-02T07:04:04.999Z</time></trkpt><trkpt lat="45.2915830781157" lon="10.748169777421932"><ele>52.0</ele><time>2026-05-02T07:04:05.999Z</time></trkpt><trkpt lat="45.29177620900299" lon="10.748197421013996"><ele>52.0</ele><time>2026-05-02T07:04:06.999Z</time></trkpt><trkpt lat="45.29195761501921" lon="10.748223859093146"><ele>52.0</ele><time>2026-05-02T07:04:07.999Z</time></trkpt><trkpt lat="45.292132543296674" lon="10.748247996722437"><ele>52.0</ele><time>2026-05-02T07:04:08.999Z</time></trkpt><trkpt lat="45.29231691249429" lon="10.748272294793926"><ele>52.33333333333333</ele><time>2026-05-02T07:04:09.999Z</time></trkpt><trkpt lat="45.29251473414317" lon="10.748300461609839"><ele>52.66666666666667</ele><time>2026-05-02T07:04:10.999Z</time></trkpt><trkpt lat="45.292715682211146" lon="10.748330280312878"><ele>53.0</ele><time>2026-05-02T07:04:11.999Z</time></trkpt><trkpt lat="45.29291094133663" lon="10.748360077311094"><ele>53.0</ele><time>2026-05-02T07:04:12.999Z</time></trkpt><trkpt lat="45.2930890464425" lon="10.748387740625963"><ele>53.0</ele><time>2026-05-02T07:04:14Z</time></trkpt><trkpt lat="45.293253880772774" lon="10.748413406565625"><ele>53.0</ele><time>2026-05-02T07:04:15Z</time></trkpt><trkpt lat="45.293403887269555" lon="10.748434187452066"><ele>53.0</ele><time>2026-05-02T07:04:16Z</time></trkpt><trkpt lat="45.29354736442562" lon="10.748453425511785"><ele>53.0</ele><time>2026-05-02T07:04:17Z</time></trkpt><trkpt lat="45.29368448124705" lon="10.74847457501694"><ele>53.0</ele><time>2026-05-02T07:04:18Z</time></trkpt><trkpt lat="45.2938178688819" lon="10.74849524050033"><ele>53.0</ele><time>2026-05-02T07:04:19Z</time></trkpt><trkpt lat="45.29395746659257" lon="10.748514476860782"><ele>53.333333333333336</ele><time>2026-05-02T07:04:20Z</time></trkpt><trkpt lat="45.29410348884399" lon="10.748534404860411"><ele>53.66666666666667</ele><time>2026-05-02T07:04:21Z</time></trkpt><trkpt lat="45.29425389171712" lon="10.748552203786033"><ele>54.0</ele><time>2026-05-02T07:04:22Z</time></trkpt><trkpt lat="45.294409502966424" lon="10.748560465681097"><ele>54.0</ele><time>2026-05-02T07:04:23Z</time></trkpt><trkpt lat="45.294569757275376" lon="10.748557896835674"><ele>54.0</ele><time>2026-05-02T07:04:24Z</time></trkpt><trkpt lat="45.29473766435393" lon="10.748540336793637"><ele>54.0</ele><time>2026-05-02T07:04:25Z</time></trkpt><trkpt lat="45.29491657774925" lon="10.74852234447743"><ele>53.66666666666667</ele><time>2026-05-02T07:04:26Z</time></trkpt><trkpt lat="45.29510449432637" lon="10.748506686649987"><ele>53.333333333333336</ele><time>2026-05-02T07:04:27Z</time></trkpt><trkpt lat="45.29530072169437" lon="10.748490262005479"><ele>53.0</ele><time>2026-05-02T07:04:28Z</time></trkpt><trkpt lat="45.29550703496221" lon="10.748479410688915"><ele>53.0</ele><time>2026-05-02T07:04:29Z</time></trkpt><trkpt lat="45.29571477002766" lon="10.748470561066632"><ele>53.0</ele><time>2026-05-02T07:04:30Z</time></trkpt><trkpt lat="45.29592899903731" lon="10.748467745591427"><ele>53.0</ele><time>2026-05-02T07:04:31Z</time></trkpt><trkpt lat="45.296153331518674" lon="10.748474995795263"><ele>53.0</ele><time>2026-05-02T07:04:32Z</time></trkpt><trkpt lat="45.29639112663877" lon="10.748496106955866"><ele>53.0</ele><time>2026-05-02T07:04:33Z</time></trkpt><trkpt lat="45.29665212805593" lon="10.748540478366692"><ele>55.0</ele><time>2026-05-02T07:04:34Z</time></trkpt><trkpt lat="45.296924922013545" lon="10.748587995538173"><ele>57.0</ele><time>2026-05-02T07:04:35Z</time></trkpt><trkpt lat="45.297202173276546" lon="10.74863894167418"><ele>56.5</ele><time>2026-05-02T07:04:36Z</time></trkpt><trkpt lat="45.297478584360796" lon="10.748697508078576"><ele>56.0</ele><time>2026-05-02T07:04:37Z</time></trkpt><trkpt lat="45.297747918533325" lon="10.74875394756049"><ele>56.0</ele><time>2026-05-02T07:04:38Z</time></trkpt><trkpt lat="45.29800939503683" lon="10.748807376202546"><ele>56.0</ele><time>2026-05-02T07:04:39Z</time></trkpt><trkpt lat="45.29826688181781" lon="10.748864395101148"><ele>56.0</ele><time>2026-05-02T07:04:40Z</time></trkpt><trkpt lat="45.29851489925487" lon="10.748931158858456"><ele>56.0</ele><time>2026-05-02T07:04:41Z</time></trkpt><trkpt lat="45.29875500395798" lon="10.749003847092766"><ele>55.0</ele><time>2026-05-02T07:04:42Z</time></trkpt><trkpt lat="45.298986426186346" lon="10.749075337415436"><ele>54.0</ele><time>2026-05-02T07:04:43Z</time></trkpt><trkpt lat="45.29920964141879" lon="10.749135531872549"><ele>54.0</ele><time>2026-05-02T07:04:44Z</time></trkpt><trkpt lat="45.29942199897846" lon="10.749177522053902"><ele>54.0</ele><time>2026-05-02T07:04:45Z</time></trkpt><trkpt lat="45.29963372644937" lon="10.749208273762592"><ele>54.0</ele><time>2026-05-02T07:04:46Z</time></trkpt><trkpt lat="45.299835838052374" lon="10.74923914204555"><ele>55.0</ele><time>2026-05-02T07:04:47Z</time></trkpt><trkpt lat="45.300041845758294" lon="10.749265846850566"><ele>56.0</ele><time>2026-05-02T07:04:48Z</time></trkpt><trkpt lat="45.30026013244768" lon="10.749290175559514"><ele>57.0</ele><time>2026-05-02T07:04:48.999Z</time></trkpt><trkpt lat="45.30049713690877" lon="10.749319250974704"><ele>56.5</ele><time>2026-05-02T07:04:49.999Z</time></trkpt><trkpt lat="45.30075196743022" lon="10.749340651582804"><ele>56.0</ele><time>2026-05-02T07:04:50.999Z</time></trkpt><trkpt lat="45.301005935384545" lon="10.749353822976977"><ele>56.0</ele><time>2026-05-02T07:04:51.999Z</time></trkpt><trkpt lat="45.30126651116229" lon="10.749362118107767"><ele>56.0</ele><time>2026-05-02T07:04:52.999Z</time></trkpt><trkpt lat="45.3015290039507" lon="10.749392979185675"><ele>56.5</ele><time>2026-05-02T07:04:53.999Z</time></trkpt><trkpt lat="45.30179625161648" lon="10.749403908568853"><ele>57.0</ele><time>2026-05-02T07:04:54.999Z</time></trkpt><trkpt lat="45.3020690568543" lon="10.749391602262984"><ele>58.0</ele><time>2026-05-02T07:04:55.999Z</time></trkpt><trkpt lat="45.30236461541231" lon="10.749427152427529"><ele>59.0</ele><time>2026-05-02T07:04:56.999Z</time></trkpt><trkpt lat="45.302677506989674" lon="10.749439948161125"><ele>59.0</ele><time>2026-05-02T07:04:57.999Z</time></trkpt><trkpt lat="45.302970640518325" lon="10.749451935804448"><ele>59.0</ele><time>2026-05-02T07:04:58.999Z</time></trkpt><trkpt lat="45.303245684378695" lon="10.749442646272362"><ele>59.0</ele><time>2026-05-02T07:04:59.999Z</time></trkpt><trkpt lat="45.30351273984764" lon="10.74944889718603"><ele>59.0</ele><time>2026-05-02T07:05:00.999Z</time></trkpt><trkpt lat="45.30377422368265" lon="10.749448889222114"><ele>59.0</ele><time>2026-05-02T07:05:01.999Z</time></trkpt><trkpt lat="45.304030063708524" lon="10.749442463802017"><ele>59.0</ele><time>2026-05-02T07:05:02.999Z</time></trkpt><trkpt lat="45.304272595264074" lon="10.749437222320502"><ele>59.0</ele><time>2026-05-02T07:05:03.999Z</time></trkpt><trkpt lat="45.30448154057902" lon="10.749432505405778"><ele>59.0</ele><time>2026-05-02T07:05:04.999Z</time></trkpt><trkpt lat="45.304671982530316" lon="10.749428841573936"><ele>59.0</ele><time>2026-05-02T07:05:05.999Z</time></trkpt><trkpt lat="45.30484855888974" lon="10.749428610853961"><ele>59.333333333333336</ele><time>2026-05-02T07:05:06.999Z</time></trkpt><trkpt lat="45.305019879933354" lon="10.749429638728143"><ele>59.66666666666667</ele><time>2026-05-02T07:05:07.999Z</time></trkpt><trkpt lat="45.305189448025814" lon="10.749428978697114"><ele>60.0</ele><time>2026-05-02T07:05:08.999Z</time></trkpt><trkpt lat="45.3053641520287" lon="10.749428525212195"><ele>60.0</ele><time>2026-05-02T07:05:09.999Z</time></trkpt><trkpt lat="45.30555359225174" lon="10.749430564254318"><ele>60.0</ele><time>2026-05-02T07:05:10.999Z</time></trkpt><trkpt lat="45.30576024732975" lon="10.749434498574649"><ele>60.0</ele><time>2026-05-02T07:05:11.999Z</time></trkpt><trkpt lat="45.30598925686293" lon="10.749443122139096"><ele>60.0</ele><time>2026-05-02T07:05:12.999Z</time></trkpt><trkpt lat="45.30623053766265" lon="10.749466537421291"><ele>60.0</ele><time>2026-05-02T07:05:13.999Z</time></trkpt><trkpt lat="45.30649051063346" lon="10.749504521673733"><ele>60.5</ele><time>2026-05-02T07:05:14.999Z</time></trkpt><trkpt lat="45.30673618827032" lon="10.74955294010192"><ele>61.0</ele><time>2026-05-02T07:05:15.999Z</time></trkpt><trkpt lat="45.30694833999772" lon="10.749598652484595"><ele>61.0</ele><time>2026-05-02T07:05:16.999Z</time></trkpt><trkpt lat="45.30716291093598" lon="10.749639108963638"><ele>61.0</ele><time>2026-05-02T07:05:17.999Z</time></trkpt><trkpt lat="45.30736849430567" lon="10.749677003283276"><ele>61.0</ele><time>2026-05-02T07:05:18.999Z</time></trkpt><trkpt lat="45.30755437490192" lon="10.749707807928136"><ele>61.0</ele><time>2026-05-02T07:05:19.999Z</time></trkpt><trkpt lat="45.30773250225214" lon="10.74973129730813"><ele>61.0</ele><time>2026-05-02T07:05:20.999Z</time></trkpt><trkpt lat="45.30792109224899" lon="10.749750552726216"><ele>61.0</ele><time>2026-05-02T07:05:21.999Z</time></trkpt><trkpt lat="45.30812054386107" lon="10.749762368508808"><ele>61.0</ele><time>2026-05-02T07:05:22.999Z</time></trkpt><trkpt lat="45.3083349651476" lon="10.749769729885669"><ele>61.0</ele><time>2026-05-02T07:05:23.999Z</time></trkpt><trkpt lat="45.30856418264862" lon="10.749769869845867"><ele>61.0</ele><time>2026-05-02T07:05:24.999Z</time></trkpt><trkpt lat="45.30881292702092" lon="10.74975989751701"><ele>61.0</ele><time>2026-05-02T07:05:25.999Z</time></trkpt><trkpt lat="45.30908469156553" lon="10.749751912832068"><ele>61.0</ele><time>2026-05-02T07:05:26.999Z</time></trkpt><trkpt lat="45.309358845797945" lon="10.749737206704783"><ele>61.0</ele><time>2026-05-02T07:05:27.999Z</time></trkpt><trkpt lat="45.30964776180195" lon="10.74971984080479"><ele>61.0</ele><time>2026-05-02T07:05:28.999Z</time></trkpt><trkpt lat="45.30996383472213" lon="10.749705189476511"><ele>61.0</ele><time>2026-05-02T07:05:29.999Z</time></trkpt><trkpt lat="45.310291229147225" lon="10.749683489401615"><ele>61.0</ele><time>2026-05-02T07:05:30.999Z</time></trkpt><trkpt lat="45.310585231838665" lon="10.749657587735946"><ele>61.5</ele><time>2026-05-02T07:05:31.999Z</time></trkpt><trkpt lat="45.310853666162735" lon="10.749633297301564"><ele>62.0</ele><time>2026-05-02T07:05:32.999Z</time></trkpt><trkpt lat="45.311117220519264" lon="10.74960717443828"><ele>62.0</ele><time>2026-05-02T07:05:33.999Z</time></trkpt><trkpt lat="45.311389895053544" lon="10.749580427792884"><ele>62.0</ele><time>2026-05-02T07:05:34.999Z</time></trkpt><trkpt lat="45.311678143338476" lon="10.749574112291985"><ele>62.0</ele><time>2026-05-02T07:05:35.999Z</time></trkpt><trkpt lat="45.311976629894055" lon="10.749587291634365"><ele>62.0</ele><time>2026-05-02T07:05:36.999Z</time></trkpt><trkpt lat="45.31228003961698" lon="10.749606904704157"><ele>62.5</ele><time>2026-05-02T07:05:37.999Z</time></trkpt><trkpt lat="45.31258855285886" lon="10.749619834973888"><ele>63.0</ele><time>2026-05-02T07:05:38.999Z</time></trkpt><trkpt lat="45.312889858622526" lon="10.749623328229397"><ele>63.5</ele><time>2026-05-02T07:05:39.999Z</time></trkpt><trkpt lat="45.31320665904069" lon="10.749626396426676"><ele>64.0</ele><time>2026-05-02T07:05:40.999Z</time></trkpt><trkpt lat="45.31351716433198" lon="10.749605728881722"><ele>64.0</ele><time>2026-05-02T07:05:41.999Z</time></trkpt><trkpt lat="45.31383268976363" lon="10.749577698325629"><ele>64.0</ele><time>2026-05-02T07:05:42.999Z</time></trkpt><trkpt lat="45.314141112153635" lon="10.74952956525474"><ele>64.0</ele><time>2026-05-02T07:05:43.999Z</time></trkpt><trkpt lat="45.31446019621131" lon="10.749465437354775"><ele>64.0</ele><time>2026-05-02T07:05:44.999Z</time></trkpt><trkpt lat="45.314786944188555" lon="10.74940439178606"><ele>64.0</ele><time>2026-05-02T07:05:45.999Z</time></trkpt><trkpt lat="45.31511203756469" lon="10.74934840429246"><ele>64.0</ele><time>2026-05-02T07:05:46.999Z</time></trkpt><trkpt lat="45.31543552291981" lon="10.749293868675196"><ele>64.5</ele><time>2026-05-02T07:05:47.999Z</time></trkpt><trkpt lat="45.31573922030547" lon="10.749250256650376"><ele>65.0</ele><time>2026-05-02T07:05:48.999Z</time></trkpt><trkpt lat="45.3160378523561" lon="10.749211719800227"><ele>65.0</ele><time>2026-05-02T07:05:49.999Z</time></trkpt><trkpt lat="45.31633558768772" lon="10.749177961527124"><ele>65.0</ele><time>2026-05-02T07:05:50.999Z</time></trkpt><trkpt lat="45.316633796332106" lon="10.749156547506185"><ele>65.0</ele><time>2026-05-02T07:05:51.999Z</time></trkpt><trkpt lat="45.31693225064958" lon="10.749144923892207"><ele>65.0</ele><time>2026-05-02T07:05:52.999Z</time></trkpt><trkpt lat="45.3172292144305" lon="10.749137250091819"><ele>66.0</ele><time>2026-05-02T07:05:53.999Z</time></trkpt><trkpt lat="45.31753053807013" lon="10.749132900425836"><ele>67.0</ele><time>2026-05-02T07:05:54.999Z</time></trkpt><trkpt lat="45.31783548135845" lon="10.749131147560608"><ele>67.5</ele><time>2026-05-02T07:05:55.999Z</time></trkpt><trkpt lat="45.318143738849855" lon="10.7491305682032"><ele>68.0</ele><time>2026-05-02T07:05:56.999Z</time></trkpt><trkpt lat="45.31845033989481" lon="10.749129151622249"><ele>68.0</ele><time>2026-05-02T07:05:57.999Z</time></trkpt><trkpt lat="45.318762561562956" lon="10.749119200982344"><ele>68.0</ele><time>2026-05-02T07:05:58.999Z</time></trkpt><trkpt lat="45.3190758859371" lon="10.749110304661938"><ele>68.0</ele><time>2026-05-02T07:05:59.999Z</time></trkpt><trkpt lat="45.31939159243672" lon="10.74909314808388"><ele>68.0</ele><time>2026-05-02T07:06:00.999Z</time></trkpt><trkpt lat="45.31971469019408" lon="10.749081904168651"><ele>67.0</ele><time>2026-05-02T07:06:01.999Z</time></trkpt><trkpt lat="45.32003610845501" lon="10.749065810323303"><ele>66.0</ele><time>2026-05-02T07:06:02.999Z</time></trkpt><trkpt lat="45.320358105601365" lon="10.749037758213497"><ele>67.0</ele><time>2026-05-02T07:06:03.999Z</time></trkpt><trkpt lat="45.32068137468772" lon="10.748988547721183"><ele>68.0</ele><time>2026-05-02T07:06:04.999Z</time></trkpt><trkpt lat="45.321006565231734" lon="10.748929344343667"><ele>68.0</ele><time>2026-05-02T07:06:05.999Z</time></trkpt><trkpt lat="45.321333762381556" lon="10.748862313230415"><ele>68.0</ele><time>2026-05-02T07:06:06.999Z</time></trkpt><trkpt lat="45.32166089583963" lon="10.748792502780914"><ele>69.0</ele><time>2026-05-02T07:06:07.999Z</time></trkpt><trkpt lat="45.3219898528234" lon="10.748723741538"><ele>70.0</ele><time>2026-05-02T07:06:08.999Z</time></trkpt><trkpt lat="45.322318010088075" lon="10.748654577542686"><ele>70.0</ele><time>2026-05-02T07:06:09.999Z</time></trkpt><trkpt lat="45.322646683244095" lon="10.748586405803879"><ele>70.0</ele><time>2026-05-02T07:06:10.999Z</time></trkpt><trkpt lat="45.32297713908229" lon="10.748520343887586"><ele>69.0</ele><time>2026-05-02T07:06:11.999Z</time></trkpt><trkpt lat="45.32330540670525" lon="10.748450643560636"><ele>68.0</ele><time>2026-05-02T07:06:12.999Z</time></trkpt><trkpt lat="45.323627865710684" lon="10.748381381429295"><ele>68.0</ele><time>2026-05-02T07:06:13.999Z</time></trkpt><trkpt lat="45.3239381730283" lon="10.748314342241777"><ele>68.0</ele><time>2026-05-02T07:06:14.999Z</time></trkpt><trkpt lat="45.32423381604135" lon="10.748248917225144"><ele>68.0</ele><time>2026-05-02T07:06:15.999Z</time></trkpt><trkpt lat="45.324523803912676" lon="10.748187472328398"><ele>68.0</ele><time>2026-05-02T07:06:16.999Z</time></trkpt><trkpt lat="45.32480387651402" lon="10.748129189738366"><ele>69.0</ele><time>2026-05-02T07:06:17.999Z</time></trkpt><trkpt lat="45.325079283999145" lon="10.748072008818564"><ele>70.0</ele><time>2026-05-02T07:06:19Z</time></trkpt><trkpt lat="45.32534559696042" lon="10.74801733482608"><ele>70.5</ele><time>2026-05-02T07:06:20Z</time></trkpt><trkpt lat="45.32561004034342" lon="10.7479726061591"><ele>71.0</ele><time>2026-05-02T07:06:21Z</time></trkpt><trkpt lat="45.32586115390119" lon="10.747947354603568"><ele>71.0</ele><time>2026-05-02T07:06:22Z</time></trkpt><trkpt lat="45.32609651677907" lon="10.747931718617684"><ele>71.0</ele><time>2026-05-02T07:06:23Z</time></trkpt><trkpt lat="45.32632836623164" lon="10.74791736225789"><ele>71.0</ele><time>2026-05-02T07:06:24Z</time></trkpt><trkpt lat="45.32656537962031" lon="10.747903011852282"><ele>71.0</ele><time>2026-05-02T07:06:25Z</time></trkpt><trkpt lat="45.32680656437651" lon="10.747879018468737"><ele>71.0</ele><time>2026-05-02T07:06:26Z</time></trkpt><trkpt lat="45.327053597545174" lon="10.747843017964492"><ele>71.0</ele><time>2026-05-02T07:06:27Z</time></trkpt><trkpt lat="45.32730684039292" lon="10.747807232835672"><ele>71.0</ele><time>2026-05-02T07:06:28Z</time></trkpt><trkpt lat="45.32756411386971" lon="10.74776521693424"><ele>71.0</ele><time>2026-05-02T07:06:29Z</time></trkpt><trkpt lat="45.32782102951182" lon="10.747714846060394"><ele>71.0</ele><time>2026-05-02T07:06:30Z</time></trkpt><trkpt lat="45.32807660895294" lon="10.747661471398011"><ele>71.0</ele><time>2026-05-02T07:06:31Z</time></trkpt><trkpt lat="45.328322157042024" lon="10.747610844344953"><ele>71.0</ele><time>2026-05-02T07:06:32Z</time></trkpt><trkpt lat="45.32856080817968" lon="10.747566109818607"><ele>71.0</ele><time>2026-05-02T07:06:33Z</time></trkpt><trkpt lat="45.3288035120132" lon="10.747515998302662"><ele>71.5</ele><time>2026-05-02T07:06:34Z</time></trkpt><trkpt lat="45.32904608487343" lon="10.747488262550819"><ele>72.0</ele><time>2026-05-02T07:06:35Z</time></trkpt><trkpt lat="45.32927953211409" lon="10.747448132645385"><ele>72.0</ele><time>2026-05-02T07:06:36Z</time></trkpt><trkpt lat="45.329503818999754" lon="10.747405935996873"><ele>72.0</ele><time>2026-05-02T07:06:37Z</time></trkpt><trkpt lat="45.32971883054829" lon="10.74734420658565"><ele>72.0</ele><time>2026-05-02T07:06:38Z</time></trkpt><trkpt lat="45.329928105073336" lon="10.747296399349073"><ele>72.0</ele><time>2026-05-02T07:06:39Z</time></trkpt><trkpt lat="45.3300969926721" lon="10.747228018146643"><ele>72.0</ele><time>2026-05-02T07:06:40Z</time></trkpt><trkpt lat="45.330231374333856" lon="10.747152437128157"><ele>72.0</ele><time>2026-05-02T07:06:41Z</time></trkpt><trkpt lat="45.33036843325771" lon="10.74707295796127"><ele>72.0</ele><time>2026-05-02T07:06:42Z</time></trkpt><trkpt lat="45.33051435946719" lon="10.746994970705027"><ele>72.0</ele><time>2026-05-02T07:06:43Z</time></trkpt><trkpt lat="45.33066163410305" lon="10.746920958745292"><ele>72.0</ele><time>2026-05-02T07:06:44Z</time></trkpt><trkpt lat="45.33081558102401" lon="10.746845423506736"><ele>72.0</ele><time>2026-05-02T07:06:45Z</time></trkpt><trkpt lat="45.33097927716606" lon="10.746762253162832"><ele>72.0</ele><time>2026-05-02T07:06:46Z</time></trkpt><trkpt lat="45.331148573002565" lon="10.746677989116966"><ele>72.0</ele><time>2026-05-02T07:06:47Z</time></trkpt><trkpt lat="45.331322398525444" lon="10.746590773005847"><ele>72.0</ele><time>2026-05-02T07:06:48Z</time></trkpt><trkpt lat="45.3315006653326" lon="10.746495397606944"><ele>72.0</ele><time>2026-05-02T07:06:49Z</time></trkpt><trkpt lat="45.33168781167022" lon="10.746398749911098"><ele>72.0</ele><time>2026-05-02T07:06:50Z</time></trkpt><trkpt lat="45.33188681930594" lon="10.746299381944905"><ele>72.0</ele><time>2026-05-02T07:06:51Z</time></trkpt><trkpt lat="45.332095962898244" lon="10.74619275240116"><ele>72.0</ele><time>2026-05-02T07:06:52Z</time></trkpt><trkpt lat="45.332317353419874" lon="10.746081907966724"><ele>73.5</ele><time>2026-05-02T07:06:53Z</time></trkpt><trkpt lat="45.33254804387607" lon="10.745963534210835"><ele>75.0</ele><time>2026-05-02T07:06:54Z</time></trkpt><trkpt lat="45.33277884495261" lon="10.745842779511825"><ele>75.0</ele><time>2026-05-02T07:06:55Z</time></trkpt><trkpt lat="45.333010590810034" lon="10.74572360698033"><ele>75.0</ele><time>2026-05-02T07:06:56Z</time></trkpt><trkpt lat="45.33324269191939" lon="10.74560639208526"><ele>74.0</ele><time>2026-05-02T07:06:57Z</time></trkpt><trkpt lat="45.33347318572803" lon="10.745488164005582"><ele>73.0</ele><time>2026-05-02T07:06:58Z</time></trkpt><trkpt lat="45.33370032076019" lon="10.745364044054702"><ele>73.0</ele><time>2026-05-02T07:06:59Z</time></trkpt><trkpt lat="45.33392494176493" lon="10.745235919448332"><ele>73.0</ele><time>2026-05-02T07:07:00Z</time></trkpt><trkpt lat="45.334139560510266" lon="10.745107743384319"><ele>74.0</ele><time>2026-05-02T07:07:01Z</time></trkpt><trkpt lat="45.334339022026676" lon="10.744981385599385"><ele>75.0</ele><time>2026-05-02T07:07:02Z</time></trkpt><trkpt lat="45.33453109985991" lon="10.744853223990376"><ele>76.0</ele><time>2026-05-02T07:07:03Z</time></trkpt><trkpt lat="45.33472240031156" lon="10.744723003370453"><ele>76.0</ele><time>2026-05-02T07:07:04Z</time></trkpt><trkpt lat="45.334915054992294" lon="10.744590846834692"><ele>76.0</ele><time>2026-05-02T07:07:05Z</time></trkpt><trkpt lat="45.33511056170262" lon="10.744453378659347"><ele>76.0</ele><time>2026-05-02T07:07:06Z</time></trkpt><trkpt lat="45.335308465347175" lon="10.744316153558142"><ele>75.66666666666666</ele><time>2026-05-02T07:07:06.999Z</time></trkpt><trkpt lat="45.33550933210582" lon="10.744178462084824"><ele>75.33333333333333</ele><time>2026-05-02T07:07:07.999Z</time></trkpt><trkpt lat="45.33571224597136" lon="10.744046380149987"><ele>75.0</ele><time>2026-05-02T07:07:08.999Z</time></trkpt><trkpt lat="45.33591097360324" lon="10.743918380865221"><ele>74.66666666666667</ele><time>2026-05-02T07:07:09.999Z</time></trkpt><trkpt lat="45.33609070722254" lon="10.74379732940135"><ele>74.33333333333334</ele><time>2026-05-02T07:07:10.999Z</time></trkpt><trkpt lat="45.336265371120085" lon="10.743681336966493"><ele>74.0</ele><time>2026-05-02T07:07:11.999Z</time></trkpt><trkpt lat="45.336426959707254" lon="10.743570994938764"><ele>75.0</ele><time>2026-05-02T07:07:12.999Z</time></trkpt><trkpt lat="45.33658165477986" lon="10.743463038981426"><ele>76.0</ele><time>2026-05-02T07:07:13.999Z</time></trkpt><trkpt lat="45.33672820086974" lon="10.743360382591964"><ele>77.0</ele><time>2026-05-02T07:07:14.999Z</time></trkpt><trkpt lat="45.33686616483098" lon="10.743262490891624"><ele>77.0</ele><time>2026-05-02T07:07:15.999Z</time></trkpt><trkpt lat="45.33699265427435" lon="10.743168311529367"><ele>77.0</ele><time>2026-05-02T07:07:16.999Z</time></trkpt><trkpt lat="45.337118277359785" lon="10.743070537818681"><ele>77.0</ele><time>2026-05-02T07:07:17.999Z</time></trkpt><trkpt lat="45.33724503986107" lon="10.742978079445372"><ele>77.0</ele><time>2026-05-02T07:07:18.999Z</time></trkpt><trkpt lat="45.33736397601406" lon="10.74289011713724"><ele>77.0</ele><time>2026-05-02T07:07:19.999Z</time></trkpt><trkpt lat="45.337488348573636" lon="10.742797733966794"><ele>77.0</ele><time>2026-05-02T07:07:20.999Z</time></trkpt><trkpt lat="45.33761111121542" lon="10.742703214250668"><ele>77.0</ele><time>2026-05-02T07:07:21.999Z</time></trkpt><trkpt lat="45.33773975451065" lon="10.742604461819568"><ele>77.0</ele><time>2026-05-02T07:07:22.999Z</time></trkpt><trkpt lat="45.337872847898204" lon="10.742511388091083"><ele>77.33333333333334</ele><time>2026-05-02T07:07:23.999Z</time></trkpt><trkpt lat="45.33800678336951" lon="10.742415957217444"><ele>77.66666666666667</ele><time>2026-05-02T07:07:24.999Z</time></trkpt><trkpt lat="45.33813890369449" lon="10.74232261583207"><ele>78.0</ele><time>2026-05-02T07:07:25.999Z</time></trkpt><trkpt lat="45.338273879260726" lon="10.742220863853666"><ele>78.0</ele><time>2026-05-02T07:07:26.999Z</time></trkpt><trkpt lat="45.33841077453223" lon="10.742118764104182"><ele>78.0</ele><time>2026-05-02T07:07:27.999Z</time></trkpt><trkpt lat="45.33854803396035" lon="10.742026454295388"><ele>78.0</ele><time>2026-05-02T07:07:28.999Z</time></trkpt><trkpt lat="45.33867998042606" lon="10.741944224684437"><ele>77.75</ele><time>2026-05-02T07:07:29.999Z</time></trkpt><trkpt lat="45.33880308465714" lon="10.741874021745467"><ele>77.5</ele><time>2026-05-02T07:07:30.999Z</time></trkpt><trkpt lat="45.338922237489506" lon="10.741810153746139"><ele>77.25</ele><time>2026-05-02T07:07:31.999Z</time></trkpt><trkpt lat="45.339034740804514" lon="10.741755969245668"><ele>77.0</ele><time>2026-05-02T07:07:32.999Z</time></trkpt><trkpt lat="45.339140772722494" lon="10.741709355701465"><ele>76.8</ele><time>2026-05-02T07:07:33.999Z</time></trkpt><trkpt lat="45.33922905615236" lon="10.741670089846759"><ele>76.6</ele><time>2026-05-02T07:07:34.999Z</time></trkpt><trkpt lat="45.339311849197145" lon="10.741637757812061"><ele>76.39999999999999</ele><time>2026-05-02T07:07:35.999Z</time></trkpt><trkpt lat="45.339401080547404" lon="10.741607198222804"><ele>76.2</ele><time>2026-05-02T07:07:36.999Z</time></trkpt><trkpt lat="45.33949835221909" lon="10.741578946737256"><ele>76.0</ele><time>2026-05-02T07:07:37.999Z</time></trkpt><trkpt lat="45.339601027203365" lon="10.741553334660887"><ele>76.0</ele><time>2026-05-02T07:07:38.999Z</time></trkpt><trkpt lat="45.33971699306146" lon="10.741556544558293"><ele>76.0</ele><time>2026-05-02T07:07:39.999Z</time></trkpt><trkpt lat="45.33982343872873" lon="10.741530044659326"><ele>76.0</ele><time>2026-05-02T07:07:40.999Z</time></trkpt><trkpt lat="45.339904173906454" lon="10.74150962669064"><ele>76.0</ele><time>2026-05-02T07:07:41.999Z</time></trkpt><trkpt lat="45.339970349944245" lon="10.741510143554986"><ele>76.0</ele><time>2026-05-02T07:07:42.999Z</time></trkpt><trkpt lat="45.34007109371538" lon="10.741510824725044"><ele>76.16666666666666</ele><time>2026-05-02T07:07:44.999Z</time></trkpt><trkpt lat="45.34015016559222" lon="10.741508650748631"><ele>76.33333333333333</ele><time>2026-05-02T07:07:46.999Z</time></trkpt><trkpt lat="45.34024341196783" lon="10.741514554895076"><ele>76.5</ele><time>2026-05-02T07:07:48.999Z</time></trkpt><trkpt lat="45.34030715786324" lon="10.741519846836294"><ele>76.66666666666667</ele><time>2026-05-02T07:07:49.999Z</time></trkpt><trkpt lat="45.34038028548937" lon="10.74152813422092"><ele>76.83333333333334</ele><time>2026-05-02T07:07:50.999Z</time></trkpt><trkpt lat="45.34046539795942" lon="10.741548147389464"><ele>77.0</ele><time>2026-05-02T07:07:51.999Z</time></trkpt><trkpt lat="45.34056764743112" lon="10.741574122317568"><ele>77.0</ele><time>2026-05-02T07:07:52.999Z</time></trkpt><trkpt lat="45.34067367414451" lon="10.741608654916606"><ele>77.0</ele><time>2026-05-02T07:07:53.999Z</time></trkpt><trkpt lat="45.34078670201055" lon="10.741650212913568"><ele>77.0</ele><time>2026-05-02T07:07:54.999Z</time></trkpt><trkpt lat="45.34090542808055" lon="10.741699711555569"><ele>77.0</ele><time>2026-05-02T07:07:55.999Z</time></trkpt><trkpt lat="45.34102975076419" lon="10.741756908709558"><ele>77.0</ele><time>2026-05-02T07:07:56.999Z</time></trkpt><trkpt lat="45.34115770065591" lon="10.741825262606344"><ele>77.0</ele><time>2026-05-02T07:07:57.999Z</time></trkpt><trkpt lat="45.34128631169056" lon="10.741899339413033"><ele>77.0</ele><time>2026-05-02T07:07:58.999Z</time></trkpt><trkpt lat="45.341416308516955" lon="10.741978335157015"><ele>77.0</ele><time>2026-05-02T07:07:59.999Z</time></trkpt><trkpt lat="45.34154978909169" lon="10.742066514448045"><ele>77.33333333333334</ele><time>2026-05-02T07:08:00.999Z</time></trkpt><trkpt lat="45.34169466590255" lon="10.74216239454447"><ele>77.66666666666667</ele><time>2026-05-02T07:08:01.999Z</time></trkpt><trkpt lat="45.34185300259899" lon="10.742270224339386"><ele>78.0</ele><time>2026-05-02T07:08:02.999Z</time></trkpt><trkpt lat="45.34202773819485" lon="10.742399614516268"><ele>77.66666666666667</ele><time>2026-05-02T07:08:03.999Z</time></trkpt><trkpt lat="45.34221541469576" lon="10.742536183147276"><ele>77.33333333333334</ele><time>2026-05-02T07:08:04.999Z</time></trkpt><trkpt lat="45.34241694213438" lon="10.742679238443078"><ele>77.0</ele><time>2026-05-02T07:08:05.999Z</time></trkpt><trkpt lat="45.342626825929024" lon="10.742831244964288"><ele>77.0</ele><time>2026-05-02T07:08:06.999Z</time></trkpt><trkpt lat="45.34285054739129" lon="10.74299226724655"><ele>77.0</ele><time>2026-05-02T07:08:07.999Z</time></trkpt><trkpt lat="45.34309793965743" lon="10.743168306074992"><ele>77.5</ele><time>2026-05-02T07:08:08.999Z</time></trkpt><trkpt lat="45.343355277877166" lon="10.743355844985405"><ele>78.0</ele><time>2026-05-02T07:08:09.999Z</time></trkpt><trkpt lat="45.34361115684257" lon="10.743539948127385"><ele>78.0</ele><time>2026-05-02T07:08:10.999Z</time></trkpt><trkpt lat="45.34387080449948" lon="10.743737596136205"><ele>78.0</ele><time>2026-05-02T07:08:11.999Z</time></trkpt><trkpt lat="45.34413980780172" lon="10.743941730253754"><ele>78.0</ele><time>2026-05-02T07:08:12.999Z</time></trkpt><trkpt lat="45.34443624786619" lon="10.744157715381606"><ele>78.0</ele><time>2026-05-02T07:08:13.999Z</time></trkpt><trkpt lat="45.344744320495984" lon="10.744383490467914"><ele>77.5</ele><time>2026-05-02T07:08:14.999Z</time></trkpt><trkpt lat="45.34504144664888" lon="10.744610066965274"><ele>77.0</ele><time>2026-05-02T07:08:15.999Z</time></trkpt><trkpt lat="45.3453240442598" lon="10.74482182943916"><ele>78.0</ele><time>2026-05-02T07:08:16.999Z</time></trkpt><trkpt lat="45.34558481814908" lon="10.745026339827676"><ele>79.0</ele><time>2026-05-02T07:08:17.999Z</time></trkpt><trkpt lat="45.3458341375481" lon="10.745220908622533"><ele>79.0</ele><time>2026-05-02T07:08:18.999Z</time></trkpt><trkpt lat="45.34606510790895" lon="10.745404295645573"><ele>79.0</ele><time>2026-05-02T07:08:19.999Z</time></trkpt><trkpt lat="45.34628500480761" lon="10.745575406072657"><ele>78.5</ele><time>2026-05-02T07:08:20.999Z</time></trkpt><trkpt lat="45.34649636319096" lon="10.745740859873036"><ele>78.0</ele><time>2026-05-02T07:08:21.999Z</time></trkpt><trkpt lat="45.346712831237646" lon="10.745907515367682"><ele>78.5</ele><time>2026-05-02T07:08:22.999Z</time></trkpt><trkpt lat="45.3469225628459" lon="10.746071087427646"><ele>79.0</ele><time>2026-05-02T07:08:23.999Z</time></trkpt><trkpt lat="45.347128134036794" lon="10.746228802486508"><ele>78.5</ele><time>2026-05-02T07:08:25Z</time></trkpt><trkpt lat="45.34733355540475" lon="10.746381670625183"><ele>78.0</ele><time>2026-05-02T07:08:26Z</time></trkpt><trkpt lat="45.34753435353404" lon="10.746530303604874"><ele>78.0</ele><time>2026-05-02T07:08:27Z</time></trkpt><trkpt lat="45.347729190996446" lon="10.746675453150065"><ele>78.0</ele><time>2026-05-02T07:08:28Z</time></trkpt><trkpt lat="45.347927757308916" lon="10.746826862287225"><ele>78.0</ele><time>2026-05-02T07:08:29Z</time></trkpt><trkpt lat="45.34812710103608" lon="10.746979839681986"><ele>79.5</ele><time>2026-05-02T07:08:30Z</time></trkpt><trkpt lat="45.348325601018644" lon="10.747133529493603"><ele>81.0</ele><time>2026-05-02T07:08:31Z</time></trkpt><trkpt lat="45.34852201484239" lon="10.747285541388672"><ele>81.0</ele><time>2026-05-02T07:08:32Z</time></trkpt><trkpt lat="45.34871379170451" lon="10.747431953315544"><ele>81.0</ele><time>2026-05-02T07:08:33Z</time></trkpt><trkpt lat="45.3488994488395" lon="10.747564888267199"><ele>81.0</ele><time>2026-05-02T07:08:34Z</time></trkpt><trkpt lat="45.34908468046236" lon="10.747689718544342"><ele>81.33333333333333</ele><time>2026-05-02T07:08:35Z</time></trkpt><trkpt lat="45.34927435268107" lon="10.747810317764003"><ele>81.66666666666666</ele><time>2026-05-02T07:08:36Z</time></trkpt><trkpt lat="45.349471275022594" lon="10.747921926794477"><ele>82.0</ele><time>2026-05-02T07:08:37Z</time></trkpt><trkpt lat="45.349677207759946" lon="10.748024655904015"><ele>82.0</ele><time>2026-05-02T07:08:38Z</time></trkpt><trkpt lat="45.349894774570686" lon="10.748116423768062"><ele>82.0</ele><time>2026-05-02T07:08:39Z</time></trkpt><trkpt lat="45.3501130029249" lon="10.748194984075248"><ele>82.0</ele><time>2026-05-02T07:08:40Z</time></trkpt><trkpt lat="45.35034396707944" lon="10.748255754332476"><ele>82.0</ele><time>2026-05-02T07:08:41Z</time></trkpt><trkpt lat="45.350581208151425" lon="10.74829940256779"><ele>82.0</ele><time>2026-05-02T07:08:42Z</time></trkpt><trkpt lat="45.35083482535913" lon="10.748313360203335"><ele>82.0</ele><time>2026-05-02T07:08:43Z</time></trkpt><trkpt lat="45.35110613221637" lon="10.748311947503302"><ele>81.5</ele><time>2026-05-02T07:08:44Z</time></trkpt><trkpt lat="45.35139089664961" lon="10.748294323676868"><ele>81.0</ele><time>2026-05-02T07:08:45Z</time></trkpt><trkpt lat="45.351695186278484" lon="10.748268088511933"><ele>81.0</ele><time>2026-05-02T07:08:46Z</time></trkpt><trkpt lat="45.35197991403334" lon="10.748246743876452"><ele>81.0</ele><time>2026-05-02T07:08:47Z</time></trkpt><trkpt lat="45.35230302875232" lon="10.748212618981913"><ele>81.5</ele><time>2026-05-02T07:08:48Z</time></trkpt><trkpt lat="45.35262912417042" lon="10.748204351606313"><ele>82.0</ele><time>2026-05-02T07:08:49Z</time></trkpt><trkpt lat="45.352951204368736" lon="10.748174890633363"><ele>83.5</ele><time>2026-05-02T07:08:50Z</time></trkpt><trkpt lat="45.35326541000021" lon="10.748126578486593"><ele>85.0</ele><time>2026-05-02T07:08:51Z</time></trkpt><trkpt lat="45.35357187353984" lon="10.748110266566854"><ele>85.0</ele><time>2026-05-02T07:08:52Z</time></trkpt><trkpt lat="45.35386816516592" lon="10.748095489981601"><ele>85.0</ele><time>2026-05-02T07:08:53Z</time></trkpt><trkpt lat="45.35415212162368" lon="10.748070655512816"><ele>85.5</ele><time>2026-05-02T07:08:54Z</time></trkpt><trkpt lat="45.354438714822706" lon="10.748048405476903"><ele>86.0</ele><time>2026-05-02T07:08:55Z</time></trkpt><trkpt lat="45.35469775592062" lon="10.748018943432271"><ele>86.0</ele><time>2026-05-02T07:08:56Z</time></trkpt><trkpt lat="45.35494731521301" lon="10.74799431622468"><ele>86.0</ele><time>2026-05-02T07:08:57Z</time></trkpt><trkpt lat="45.355195694716606" lon="10.747974260068395"><ele>86.0</ele><time>2026-05-02T07:08:58Z</time></trkpt><trkpt lat="45.355446862863566" lon="10.74795034545525"><ele>86.0</ele><time>2026-05-02T07:08:59Z</time></trkpt><trkpt lat="45.355697607473815" lon="10.747926985485186"><ele>87.0</ele><time>2026-05-02T07:09:00Z</time></trkpt><trkpt lat="45.35594117091791" lon="10.747908410417107"><ele>88.0</ele><time>2026-05-02T07:09:01Z</time></trkpt><trkpt lat="45.3561814133269" lon="10.747888282667567"><ele>87.5</ele><time>2026-05-02T07:09:02Z</time></trkpt><trkpt lat="45.35642425987833" lon="10.74786328546375"><ele>87.0</ele><time>2026-05-02T07:09:03Z</time></trkpt><trkpt lat="45.35666406361771" lon="10.747839938349497"><ele>87.0</ele><time>2026-05-02T07:09:04Z</time></trkpt><trkpt lat="45.3569092874255" lon="10.74781280166702"><ele>87.0</ele><time>2026-05-02T07:09:05Z</time></trkpt><trkpt lat="45.3571588585814" lon="10.747780959345054"><ele>87.0</ele><time>2026-05-02T07:09:06Z</time></trkpt><trkpt lat="45.35741305845081" lon="10.74773828233788"><ele>87.0</ele><time>2026-05-02T07:09:07Z</time></trkpt><trkpt lat="45.35768098058107" lon="10.747677339726293"><ele>87.5</ele><time>2026-05-02T07:09:08Z</time></trkpt><trkpt lat="45.35795595262087" lon="10.747584512848269"><ele>88.0</ele><time>2026-05-02T07:09:09Z</time></trkpt><trkpt lat="45.35823195965934" lon="10.747435148365334"><ele>88.0</ele><time>2026-05-02T07:09:10Z</time></trkpt><trkpt lat="45.35851636893025" lon="10.747333314664916"><ele>88.0</ele><time>2026-05-02T07:09:11Z</time></trkpt><trkpt lat="45.35879845586954" lon="10.747220553363743"><ele>88.5</ele><time>2026-05-02T07:09:12Z</time></trkpt><trkpt lat="45.35905079596341" lon="10.746947666677155"><ele>89.0</ele><time>2026-05-02T07:09:13Z</time></trkpt><trkpt lat="45.35931198563294" lon="10.746733399033772"><ele>88.5</ele><time>2026-05-02T07:09:14Z</time></trkpt><trkpt lat="45.35956294916358" lon="10.746489810768793"><ele>88.0</ele><time>2026-05-02T07:09:15Z</time></trkpt><trkpt lat="45.359808343372116" lon="10.746232700362182"><ele>88.5</ele><time>2026-05-02T07:09:16Z</time></trkpt><trkpt lat="45.360053051563554" lon="10.74597428261494"><ele>89.0</ele><time>2026-05-02T07:09:17Z</time></trkpt><trkpt lat="45.36028908120243" lon="10.745711162350952"><ele>89.0</ele><time>2026-05-02T07:09:18Z</time></trkpt><trkpt lat="45.360504525745945" lon="10.745459034906753"><ele>89.0</ele><time>2026-05-02T07:09:19Z</time></trkpt><trkpt lat="45.36072013585824" lon="10.74520793431737"><ele>89.5</ele><time>2026-05-02T07:09:20Z</time></trkpt><trkpt lat="45.36094500105894" lon="10.744944268157804"><ele>90.0</ele><time>2026-05-02T07:09:21Z</time></trkpt><trkpt lat="45.36117316520967" lon="10.744681769509203"><ele>90.5</ele><time>2026-05-02T07:09:22Z</time></trkpt><trkpt lat="45.361404196753114" lon="10.744409438170434"><ele>91.0</ele><time>2026-05-02T07:09:23Z</time></trkpt><trkpt lat="45.36163576461335" lon="10.744134416758808"><ele>91.0</ele><time>2026-05-02T07:09:24Z</time></trkpt><trkpt lat="45.36186987967407" lon="10.743860912900551"><ele>91.0</ele><time>2026-05-02T07:09:25Z</time></trkpt><trkpt lat="45.36210774131366" lon="10.743591985728811"><ele>91.5</ele><time>2026-05-02T07:09:26Z</time></trkpt><trkpt lat="45.36234438124578" lon="10.743321789810672"><ele>92.0</ele><time>2026-05-02T07:09:26.999Z</time></trkpt><trkpt lat="45.36257891558698" lon="10.743053728134024"><ele>92.0</ele><time>2026-05-02T07:09:27.999Z</time></trkpt><trkpt lat="45.36281281771918" lon="10.742781429222845"><ele>92.0</ele><time>2026-05-02T07:09:28.999Z</time></trkpt><trkpt lat="45.36304168385085" lon="10.742514692583722"><ele>92.0</ele><time>2026-05-02T07:09:29.999Z</time></trkpt><trkpt lat="45.36326342277399" lon="10.742259708013592"><ele>92.0</ele><time>2026-05-02T07:09:30.999Z</time></trkpt><trkpt lat="45.363468853148774" lon="10.74202662587162"><ele>93.5</ele><time>2026-05-02T07:09:31.999Z</time></trkpt><trkpt lat="45.36366708312127" lon="10.741797007181209"><ele>95.0</ele><time>2026-05-02T07:09:32.999Z</time></trkpt><trkpt lat="45.36386247923962" lon="10.74156778639591"><ele>95.0</ele><time>2026-05-02T07:09:33.999Z</time></trkpt><trkpt lat="45.36405436880074" lon="10.741340979781018"><ele>95.0</ele><time>2026-05-02T07:09:34.999Z</time></trkpt><trkpt lat="45.36424371049279" lon="10.741113379020957"><ele>95.5</ele><time>2026-05-02T07:09:35.999Z</time></trkpt><trkpt lat="45.364432187738046" lon="10.740882017175604"><ele>96.0</ele><time>2026-05-02T07:09:36.999Z</time></trkpt><trkpt lat="45.36462090213308" lon="10.740644953131607"><ele>96.5</ele><time>2026-05-02T07:09:37.999Z</time></trkpt><trkpt lat="45.364801843845406" lon="10.74040016841758"><ele>97.0</ele><time>2026-05-02T07:09:38.999Z</time></trkpt><trkpt lat="45.36497468881574" lon="10.740146378568829"><ele>97.0</ele><time>2026-05-02T07:09:39.999Z</time></trkpt><trkpt lat="45.36514196765577" lon="10.739882601105204"><ele>97.0</ele><time>2026-05-02T07:09:40.999Z</time></trkpt><trkpt lat="45.36530462459313" lon="10.739606802634354"><ele>97.0</ele><time>2026-05-02T07:09:41.999Z</time></trkpt><trkpt lat="45.36546601934009" lon="10.7393243145845"><ele>97.0</ele><time>2026-05-02T07:09:42.999Z</time></trkpt><trkpt lat="45.36562532125486" lon="10.73903481142822"><ele>98.0</ele><time>2026-05-02T07:09:43.999Z</time></trkpt><trkpt lat="45.36577999219682" lon="10.738743895136558"><ele>99.0</ele><time>2026-05-02T07:09:44.999Z</time></trkpt><trkpt lat="45.36592757779082" lon="10.738463173479566"><ele>99.33333333333334</ele><time>2026-05-02T07:09:45.999Z</time></trkpt><trkpt lat="45.36606513690345" lon="10.738203118476294"><ele>99.66666666666667</ele><time>2026-05-02T07:09:46.999Z</time></trkpt><trkpt lat="45.36619486757524" lon="10.737956363802784"><ele>100.0</ele><time>2026-05-02T07:09:47.999Z</time></trkpt><trkpt lat="45.366317223692334" lon="10.737722100365415"><ele>100.33333333333334</ele><time>2026-05-02T07:09:48.999Z</time></trkpt><trkpt lat="45.366441154282576" lon="10.737486450451717"><ele>100.66666666666666</ele><time>2026-05-02T07:09:49.999Z</time></trkpt><trkpt lat="45.36657279800623" lon="10.737235875571447"><ele>101.0</ele><time>2026-05-02T07:09:50.999Z</time></trkpt><trkpt lat="45.366704156040846" lon="10.736985927714253"><ele>101.0</ele><time>2026-05-02T07:09:51.999Z</time></trkpt><trkpt lat="45.36683909426777" lon="10.736744358030581"><ele>101.0</ele><time>2026-05-02T07:09:52.999Z</time></trkpt><trkpt lat="45.36696571987145" lon="10.736508399530761"><ele>101.0</ele><time>2026-05-02T07:09:53.999Z</time></trkpt><trkpt lat="45.36707840575274" lon="10.736299740916296"><ele>101.0</ele><time>2026-05-02T07:09:54.999Z</time></trkpt><trkpt lat="45.36717279098497" lon="10.736121038932074"><ele>101.0</ele><time>2026-05-02T07:09:55.999Z</time></trkpt><trkpt lat="45.36725881055352" lon="10.735965294583178"><ele>101.0</ele><time>2026-05-02T07:09:56.999Z</time></trkpt><trkpt lat="45.3673329007901" lon="10.735825099954539"><ele>101.0</ele><time>2026-05-02T07:09:57.999Z</time></trkpt><trkpt lat="45.36739545979392" lon="10.735706907727593"><ele>101.16666666666666</ele><time>2026-05-02T07:09:58.999Z</time></trkpt><trkpt lat="45.3674523757166" lon="10.735601648543502"><ele>101.33333333333333</ele><time>2026-05-02T07:09:59.999Z</time></trkpt><trkpt lat="45.36750698933669" lon="10.735504340801256"><ele>101.5</ele><time>2026-05-02T07:10:00.999Z</time></trkpt><trkpt lat="45.36755072204912" lon="10.735418904618001"><ele>101.66666666666666</ele><time>2026-05-02T07:10:01.999Z</time></trkpt><trkpt lat="45.36758875962949" lon="10.735344070037488"><ele>101.83333333333333</ele><time>2026-05-02T07:10:02.999Z</time></trkpt><trkpt lat="45.36765296987281" lon="10.735212326874604"><ele>102.0</ele><time>2026-05-02T07:10:04.999Z</time></trkpt><trkpt lat="45.36769011305579" lon="10.73513268714999"><ele>102.19999999999999</ele><time>2026-05-02T07:10:05.999Z</time></trkpt><trkpt lat="45.36773137228399" lon="10.735051281553144"><ele>102.4</ele><time>2026-05-02T07:10:06.999Z</time></trkpt><trkpt lat="45.367784511126374" lon="10.734950609160933"><ele>102.6</ele><time>2026-05-02T07:10:07.999Z</time></trkpt><trkpt lat="45.36784708082897" lon="10.73483144947415"><ele>102.80000000000001</ele><time>2026-05-02T07:10:08.999Z</time></trkpt><trkpt lat="45.36791473682373" lon="10.734700173525422"><ele>103.0</ele><time>2026-05-02T07:10:09.999Z</time></trkpt><trkpt lat="45.36798700771581" lon="10.734558185324648"><ele>103.75</ele><time>2026-05-02T07:10:10.999Z</time></trkpt><trkpt lat="45.36805989203745" lon="10.734421224735021"><ele>104.5</ele><time>2026-05-02T07:10:11.999Z</time></trkpt><trkpt lat="45.368123034635275" lon="10.73430240467313"><ele>105.25</ele><time>2026-05-02T07:10:12.999Z</time></trkpt><trkpt lat="45.368187529060876" lon="10.734182540756894"><ele>106.0</ele><time>2026-05-02T07:10:13.999Z</time></trkpt><trkpt lat="45.368267058308625" lon="10.734042112237589"><ele>106.0</ele><time>2026-05-02T07:10:14.999Z</time></trkpt><trkpt lat="45.36835930204181" lon="10.733890590487647"><ele>106.0</ele><time>2026-05-02T07:10:15.999Z</time></trkpt><trkpt lat="45.36845529892483" lon="10.733739064584517"><ele>106.0</ele><time>2026-05-02T07:10:16.999Z</time></trkpt><trkpt lat="45.36855732843103" lon="10.733590722280816"><ele>106.0</ele><time>2026-05-02T07:10:17.999Z</time></trkpt><trkpt lat="45.368668922193216" lon="10.73344371488357"><ele>105.66666666666667</ele><time>2026-05-02T07:10:18.999Z</time></trkpt><trkpt lat="45.368792748289714" lon="10.733308863358198"><ele>105.33333333333334</ele><time>2026-05-02T07:10:19.999Z</time></trkpt><trkpt lat="45.3689326747363" lon="10.733169706010917"><ele>105.0</ele><time>2026-05-02T07:10:20.999Z</time></trkpt><trkpt lat="45.36907867010302" lon="10.733034987189127"><ele>105.66666666666666</ele><time>2026-05-02T07:10:21.999Z</time></trkpt><trkpt lat="45.36922502010058" lon="10.732916838345705"><ele>106.33333333333333</ele><time>2026-05-02T07:10:22.999Z</time></trkpt><trkpt lat="45.36936993774815" lon="10.732813320541526"><ele>107.0</ele><time>2026-05-02T07:10:23.999Z</time></trkpt><trkpt lat="45.36951846078177" lon="10.73272737340954"><ele>106.66666666666666</ele><time>2026-05-02T07:10:24.999Z</time></trkpt><trkpt lat="45.36967124940941" lon="10.732654754537451"><ele>106.33333333333334</ele><time>2026-05-02T07:10:25.999Z</time></trkpt><trkpt lat="45.3698231307171" lon="10.732600168837903"><ele>106.0</ele><time>2026-05-02T07:10:26.999Z</time></trkpt><trkpt lat="45.36997505112705" lon="10.732558305144599"><ele>106.0</ele><time>2026-05-02T07:10:27.999Z</time></trkpt><trkpt lat="45.370125868186015" lon="10.732518374988919"><ele>106.0</ele><time>2026-05-02T07:10:28.999Z</time></trkpt><trkpt lat="45.37028588427465" lon="10.732493242498208"><ele>106.0</ele><time>2026-05-02T07:10:29.999Z</time></trkpt><trkpt lat="45.370449227662185" lon="10.732484980928502"><ele>107.0</ele><time>2026-05-02T07:10:31Z</time></trkpt><trkpt lat="45.37061648417521" lon="10.732492059598426"><ele>108.0</ele><time>2026-05-02T07:10:32Z</time></trkpt><trkpt lat="45.37078561319734" lon="10.73251726013533"><ele>109.0</ele><time>2026-05-02T07:10:33Z</time></trkpt><trkpt lat="45.37095304887845" lon="10.732544267395369"><ele>109.0</ele><time>2026-05-02T07:10:34Z</time></trkpt><trkpt lat="45.37110141188469" lon="10.732571177085227"><ele>109.0</ele><time>2026-05-02T07:10:35Z</time></trkpt><trkpt lat="45.37122792344949" lon="10.73259453059071"><ele>109.0</ele><time>2026-05-02T07:10:36Z</time></trkpt><trkpt lat="45.37133726179953" lon="10.732608489203004"><ele>109.0</ele><time>2026-05-02T07:10:37Z</time></trkpt><trkpt lat="45.37142693725784" lon="10.732616694564008"><ele>109.33333333333334</ele><time>2026-05-02T07:10:38Z</time></trkpt><trkpt lat="45.37150633951452" lon="10.73261933093092"><ele>109.66666666666667</ele><time>2026-05-02T07:10:39Z</time></trkpt><trkpt lat="45.371579374069476" lon="10.732618215979674"><ele>110.0</ele><time>2026-05-02T07:10:40Z</time></trkpt><trkpt lat="45.37164525585753" lon="10.732637491396716"><ele>110.33333333333334</ele><time>2026-05-02T07:10:41Z</time></trkpt><trkpt lat="45.37171073721964" lon="10.732685891391464"><ele>110.66666666666667</ele><time>2026-05-02T07:10:42Z</time></trkpt><trkpt lat="45.37178636260367" lon="10.73275182498555"><ele>111.0</ele><time>2026-05-02T07:10:43Z</time></trkpt><trkpt lat="45.37188823792963" lon="10.7328170943423"><ele>111.25</ele><time>2026-05-02T07:10:44Z</time></trkpt><trkpt lat="45.372012470248336" lon="10.732869814942658"><ele>111.5</ele><time>2026-05-02T07:10:45Z</time></trkpt><trkpt lat="45.3721537420522" lon="10.732899013001045"><ele>111.75</ele><time>2026-05-02T07:10:46Z</time></trkpt><trkpt lat="45.372308743554974" lon="10.732910669113126"><ele>112.0</ele><time>2026-05-02T07:10:47Z</time></trkpt><trkpt lat="45.37246491615291" lon="10.73292274261587"><ele>112.0</ele><time>2026-05-02T07:10:48Z</time></trkpt><trkpt lat="45.372637271077295" lon="10.732951569810833"><ele>112.0</ele><time>2026-05-02T07:10:49Z</time></trkpt><trkpt lat="45.37278695221677" lon="10.73303282856981"><ele>112.0</ele><time>2026-05-02T07:10:50Z</time></trkpt><trkpt lat="45.3729169845234" lon="10.733093140303799"><ele>111.75</ele><time>2026-05-02T07:10:51Z</time></trkpt><trkpt lat="45.373039291637205" lon="10.733136937698085"><ele>111.5</ele><time>2026-05-02T07:10:52Z</time></trkpt><trkpt lat="45.373143028543765" lon="10.73321641132581"><ele>111.25</ele><time>2026-05-02T07:10:53Z</time></trkpt><trkpt lat="45.37325332640316" lon="10.733295643720023"><ele>111.0</ele><time>2026-05-02T07:10:54Z</time></trkpt><trkpt lat="45.373371737760735" lon="10.73337882370536"><ele>111.0</ele><time>2026-05-02T07:10:55Z</time></trkpt><trkpt lat="45.37349125403927" lon="10.73346737677579"><ele>111.0</ele><time>2026-05-02T07:10:56Z</time></trkpt><trkpt lat="45.373608427552334" lon="10.733558180082488"><ele>111.0</ele><time>2026-05-02T07:10:57Z</time></trkpt><trkpt lat="45.373731122998585" lon="10.733643274691426"><ele>111.0</ele><time>2026-05-02T07:10:58Z</time></trkpt><trkpt lat="45.373872965983345" lon="10.733722425821908"><ele>111.66666666666666</ele><time>2026-05-02T07:10:59Z</time></trkpt><trkpt lat="45.37403488703362" lon="10.733819033301144"><ele>112.33333333333333</ele><time>2026-05-02T07:11:00Z</time></trkpt><trkpt lat="45.37420501783107" lon="10.733890293054499"><ele>113.0</ele><time>2026-05-02T07:11:01Z</time></trkpt><trkpt lat="45.374365282720035" lon="10.733954235050147"><ele>113.0</ele><time>2026-05-02T07:11:02Z</time></trkpt><trkpt lat="45.37450522303588" lon="10.734012654634544"><ele>113.0</ele><time>2026-05-02T07:11:03Z</time></trkpt><trkpt lat="45.374624621762784" lon="10.734045165581422"><ele>113.0</ele><time>2026-05-02T07:11:04Z</time></trkpt><trkpt lat="45.37472853622572" lon="10.734097336851189"><ele>113.0</ele><time>2026-05-02T07:11:05Z</time></trkpt><trkpt lat="45.37481963328087" lon="10.734144912823675"><ele>113.0</ele><time>2026-05-02T07:11:06Z</time></trkpt><trkpt lat="45.3749125896951" lon="10.734192724201348"><ele>113.00000000000001</ele><time>2026-05-02T07:11:07Z</time></trkpt><trkpt lat="45.375007292195406" lon="10.734243638110163"><ele>113.00000000000001</ele><time>2026-05-02T07:11:08Z</time></trkpt><trkpt lat="45.375101311188686" lon="10.734291508521691"><ele>113.0</ele><time>2026-05-02T07:11:09Z</time></trkpt><trkpt lat="45.37520996176557" lon="10.73434557391272"><ele>113.0</ele><time>2026-05-02T07:11:10Z</time></trkpt><trkpt lat="45.37533030790405" lon="10.734409015434524"><ele>113.0</ele><time>2026-05-02T07:11:11Z</time></trkpt><trkpt lat="45.37545460000369" lon="10.734475693620812"><ele>113.0</ele><time>2026-05-02T07:11:12Z</time></trkpt><trkpt lat="45.37557789442648" lon="10.734541599851521"><ele>113.0</ele><time>2026-05-02T07:11:13Z</time></trkpt><trkpt lat="45.37570315538287" lon="10.734607009262751"><ele>113.0</ele><time>2026-05-02T07:11:14Z</time></trkpt><trkpt lat="45.37583085528864" lon="10.734672129603315"><ele>113.25</ele><time>2026-05-02T07:11:15Z</time></trkpt><trkpt lat="45.375959379952434" lon="10.734733351838434"><ele>113.5</ele><time>2026-05-02T07:11:16Z</time></trkpt><trkpt lat="45.376091460492106" lon="10.734791658227193"><ele>113.75</ele><time>2026-05-02T07:11:17Z</time></trkpt><trkpt lat="45.376226384237945" lon="10.734845535183675"><ele>114.0</ele><time>2026-05-02T07:11:18Z</time></trkpt><trkpt lat="45.37636345007744" lon="10.734891287819336"><ele>114.5</ele><time>2026-05-02T07:11:19Z</time></trkpt><trkpt lat="45.37650253586952" lon="10.734935780544122"><ele>115.0</ele><time>2026-05-02T07:11:20Z</time></trkpt><trkpt lat="45.376640341872125" lon="10.734980547136471"><ele>115.5</ele><time>2026-05-02T07:11:21Z</time></trkpt><trkpt lat="45.376776572496" lon="10.735024889074355"><ele>116.0</ele><time>2026-05-02T07:11:22Z</time></trkpt><trkpt lat="45.37690795234047" lon="10.735065818791652"><ele>116.0</ele><time>2026-05-02T07:11:23Z</time></trkpt><trkpt lat="45.37703721533371" lon="10.735105456425941"><ele>116.0</ele><time>2026-05-02T07:11:24Z</time></trkpt><trkpt lat="45.37716588841718" lon="10.735142381086991"><ele>116.0</ele><time>2026-05-02T07:11:25Z</time></trkpt><trkpt lat="45.37729100462745" lon="10.735176026931763"><ele>116.0</ele><time>2026-05-02T07:11:26Z</time></trkpt><trkpt lat="45.3774177389453" lon="10.735207751798125"><ele>116.5</ele><time>2026-05-02T07:11:27Z</time></trkpt><trkpt lat="45.37754536087778" lon="10.735233760566253"><ele>117.0</ele><time>2026-05-02T07:11:28Z</time></trkpt><trkpt lat="45.3776676694509" lon="10.73525294914703"><ele>117.5</ele><time>2026-05-02T07:11:29Z</time></trkpt><trkpt lat="45.37778334970144" lon="10.735269471093199"><ele>118.0</ele><time>2026-05-02T07:11:30Z</time></trkpt><trkpt lat="45.37789792529056" lon="10.735283948133244"><ele>118.0</ele><time>2026-05-02T07:11:31Z</time></trkpt><trkpt lat="45.378011048885654" lon="10.735294106491095"><ele>118.0</ele><time>2026-05-02T07:11:32Z</time></trkpt><trkpt lat="45.37812315965026" lon="10.73530609818723"><ele>118.0</ele><time>2026-05-02T07:11:33Z</time></trkpt><trkpt lat="45.378236789258374" lon="10.735315488622026"><ele>118.0</ele><time>2026-05-02T07:11:34Z</time></trkpt><trkpt lat="45.37835237451686" lon="10.735327091548834"><ele>118.5</ele><time>2026-05-02T07:11:35Z</time></trkpt><trkpt lat="45.37847260078157" lon="10.735338349903191"><ele>119.0</ele><time>2026-05-02T07:11:36Z</time></trkpt><trkpt lat="45.37859728618463" lon="10.735347627461127"><ele>119.5</ele><time>2026-05-02T07:11:37Z</time></trkpt><trkpt lat="45.37872589670092" lon="10.735355149248"><ele>120.0</ele><time>2026-05-02T07:11:38Z</time></trkpt><trkpt lat="45.37885188155346" lon="10.735363795498706"><ele>121.0</ele><time>2026-05-02T07:11:39Z</time></trkpt><trkpt lat="45.378976079387684" lon="10.735374451332437"><ele>122.0</ele><time>2026-05-02T07:11:40Z</time></trkpt><trkpt lat="45.379095065269084" lon="10.73538699834573"><ele>123.0</ele><time>2026-05-02T07:11:41Z</time></trkpt><trkpt lat="45.37920778666957" lon="10.73539721038172"><ele>124.0</ele><time>2026-05-02T07:11:42Z</time></trkpt><trkpt lat="45.37931093531548" lon="10.73540485282035"><ele>124.0</ele><time>2026-05-02T07:11:43Z</time></trkpt><trkpt lat="45.379417248332814" lon="10.73541062188984"><ele>124.0</ele><time>2026-05-02T07:11:44Z</time></trkpt><trkpt lat="45.3795245510558" lon="10.735417651011467"><ele>124.0</ele><time>2026-05-02T07:11:45Z</time></trkpt><trkpt lat="45.379633746773486" lon="10.735421518976088"><ele>124.0</ele><time>2026-05-02T07:11:46Z</time></trkpt><trkpt lat="45.379742062310775" lon="10.735431606373357"><ele>124.0</ele><time>2026-05-02T07:11:47Z</time></trkpt><trkpt lat="45.37985047289603" lon="10.735440547849704"><ele>124.25</ele><time>2026-05-02T07:11:48Z</time></trkpt><trkpt lat="45.379960512976716" lon="10.735450244098699"><ele>124.5</ele><time>2026-05-02T07:11:49Z</time></trkpt><trkpt lat="45.38007256290468" lon="10.735461287003533"><ele>124.75</ele><time>2026-05-02T07:11:50Z</time></trkpt><trkpt lat="45.38018612442362" lon="10.735469961996"><ele>125.0</ele><time>2026-05-02T07:11:51Z</time></trkpt><trkpt lat="45.38029968035306" lon="10.735475781776445"><ele>125.0</ele><time>2026-05-02T07:11:52Z</time></trkpt><trkpt lat="45.38041606699412" lon="10.735482601397992"><ele>125.0</ele><time>2026-05-02T07:11:52.999Z</time></trkpt><trkpt lat="45.38053422770199" lon="10.735492558906843"><ele>125.0</ele><time>2026-05-02T07:11:53.999Z</time></trkpt><trkpt lat="45.38065356883467" lon="10.735502182847128"><ele>125.0</ele><time>2026-05-02T07:11:54.999Z</time></trkpt><trkpt lat="45.38077531094328" lon="10.735511373569784"><ele>125.0</ele><time>2026-05-02T07:11:55.999Z</time></trkpt><trkpt lat="45.380897351732685" lon="10.735522299689684"><ele>125.0</ele><time>2026-05-02T07:11:56.999Z</time></trkpt><trkpt lat="45.381016649408274" lon="10.735531802404065"><ele>125.0</ele><time>2026-05-02T07:11:57.999Z</time></trkpt><trkpt lat="45.3811318403907" lon="10.735541160931755"><ele>125.0</ele><time>2026-05-02T07:11:58.999Z</time></trkpt><trkpt lat="45.38124628899544" lon="10.73556089677252"><ele>125.5</ele><time>2026-05-02T07:11:59.999Z</time></trkpt><trkpt lat="45.38136365713278" lon="10.735583167673218"><ele>126.0</ele><time>2026-05-02T07:12:00.999Z</time></trkpt><trkpt lat="45.381482023659856" lon="10.735607619755323"><ele>126.5</ele><time>2026-05-02T07:12:01.999Z</time></trkpt><trkpt lat="45.38159316621407" lon="10.735633748318723"><ele>127.0</ele><time>2026-05-02T07:12:02.999Z</time></trkpt><trkpt lat="45.381695205633406" lon="10.735656384422313"><ele>127.0</ele><time>2026-05-02T07:12:03.999Z</time></trkpt><trkpt lat="45.38179349561598" lon="10.735680876865477"><ele>126.99999999999999</ele><time>2026-05-02T07:12:04.999Z</time></trkpt><trkpt lat="45.381882509748614" lon="10.735702463604875"><ele>126.99999999999999</ele><time>2026-05-02T07:12:05.999Z</time></trkpt><trkpt lat="45.38196808458042" lon="10.735725723122924"><ele>127.0</ele><time>2026-05-02T07:12:06.999Z</time></trkpt><trkpt lat="45.382056158561966" lon="10.73574977923889"><ele>127.0</ele><time>2026-05-02T07:12:07.999Z</time></trkpt><trkpt lat="45.382151286374146" lon="10.735774855936656"><ele>127.39999999999999</ele><time>2026-05-02T07:12:08.999Z</time></trkpt><trkpt lat="45.38224930769162" lon="10.73579893346419"><ele>127.79999999999998</ele><time>2026-05-02T07:12:09.999Z</time></trkpt><trkpt lat="45.38234768923629" lon="10.735822780746577"><ele>128.2</ele><time>2026-05-02T07:12:10.999Z</time></trkpt><trkpt lat="45.382451090132776" lon="10.735847579319653"><ele>128.6</ele><time>2026-05-02T07:12:11.999Z</time></trkpt><trkpt lat="45.38256169427157" lon="10.735872854564086"><ele>129.0</ele><time>2026-05-02T07:12:12.999Z</time></trkpt><trkpt lat="45.38267739913489" lon="10.735891088511526"><ele>129.0</ele><time>2026-05-02T07:12:13.999Z</time></trkpt><trkpt lat="45.38279581732417" lon="10.735900452397491"><ele>129.0</ele><time>2026-05-02T07:12:14.999Z</time></trkpt><trkpt lat="45.38291463130783" lon="10.735900819128524"><ele>129.0</ele><time>2026-05-02T07:12:15.999Z</time></trkpt><trkpt lat="45.38303411837641" lon="10.735899267666914"><ele>129.0</ele><time>2026-05-02T07:12:16.999Z</time></trkpt><trkpt lat="45.383153896548826" lon="10.735900322406943"><ele>129.75</ele><time>2026-05-02T07:12:17.999Z</time></trkpt><trkpt lat="45.383272638644634" lon="10.735901456505527"><ele>130.5</ele><time>2026-05-02T07:12:18.999Z</time></trkpt><trkpt lat="45.383389589165894" lon="10.735902037495638"><ele>131.25</ele><time>2026-05-02T07:12:19.999Z</time></trkpt><trkpt lat="45.38350722860266" lon="10.735902110635182"><ele>132.0</ele><time>2026-05-02T07:12:20.999Z</time></trkpt><trkpt lat="45.38362844170966" lon="10.735904455230761"><ele>132.0</ele><time>2026-05-02T07:12:21.999Z</time></trkpt><trkpt lat="45.38375420203598" lon="10.735917241707016"><ele>132.0</ele><time>2026-05-02T07:12:22.999Z</time></trkpt><trkpt lat="45.38387804726177" lon="10.735934050816224"><ele>132.0</ele><time>2026-05-02T07:12:23.999Z</time></trkpt><trkpt lat="45.38399530856251" lon="10.735950306078632"><ele>132.0</ele><time>2026-05-02T07:12:24.999Z</time></trkpt><trkpt lat="45.38411831776096" lon="10.735966643639665"><ele>132.25</ele><time>2026-05-02T07:12:25.999Z</time></trkpt><trkpt lat="45.384247366904326" lon="10.735986541750803"><ele>132.5</ele><time>2026-05-02T07:12:26.999Z</time></trkpt><trkpt lat="45.38438156672617" lon="10.736009154722888"><ele>132.75</ele><time>2026-05-02T07:12:27.999Z</time></trkpt><trkpt lat="45.384515109719395" lon="10.736033992732995"><ele>133.0</ele><time>2026-05-02T07:12:28.999Z</time></trkpt><trkpt lat="45.384647502165606" lon="10.736062125550498"><ele>136.25</ele><time>2026-05-02T07:12:29.999Z</time></trkpt><trkpt lat="45.38477976827273" lon="10.736094373602466"><ele>139.5</ele><time>2026-05-02T07:12:30.999Z</time></trkpt><trkpt lat="45.3849062669045" lon="10.736126410468025"><ele>142.75</ele><time>2026-05-02T07:12:31.999Z</time></trkpt><trkpt lat="45.385027249010164" lon="10.736153884338583"><ele>146.0</ele><time>2026-05-02T07:12:32.999Z</time></trkpt><trkpt lat="45.38514401485737" lon="10.736180112595813"><ele>146.0</ele><time>2026-05-02T07:12:33.999Z</time></trkpt><trkpt lat="45.385256389709994" lon="10.73620655993039"><ele>146.0</ele><time>2026-05-02T07:12:34.999Z</time></trkpt><trkpt lat="45.3853676926197" lon="10.736239401154492"><ele>146.0</ele><time>2026-05-02T07:12:35.999Z</time></trkpt><trkpt lat="45.385479493512" lon="10.736279119840644"><ele>146.0</ele><time>2026-05-02T07:12:37Z</time></trkpt><trkpt lat="45.385583422917335" lon="10.73631962204225"><ele>144.4</ele><time>2026-05-02T07:12:38Z</time></trkpt><trkpt lat="45.385687608939115" lon="10.736359807001724"><ele>142.8</ele><time>2026-05-02T07:12:39Z</time></trkpt><trkpt lat="45.38579267745892" lon="10.736401099784855"><ele>141.20000000000002</ele><time>2026-05-02T07:12:40Z</time></trkpt><trkpt lat="45.38589870544894" lon="10.736439766513453"><ele>139.6</ele><time>2026-05-02T07:12:41Z</time></trkpt><trkpt lat="45.386002265211644" lon="10.736478175719693"><ele>138.0</ele><time>2026-05-02T07:12:42Z</time></trkpt><trkpt lat="45.386111253374864" lon="10.736518764163892"><ele>138.0</ele><time>2026-05-02T07:12:43Z</time></trkpt><trkpt lat="45.38622386328757" lon="10.736562589875646"><ele>138.0</ele><time>2026-05-02T07:12:44Z</time></trkpt><trkpt lat="45.386330660705134" lon="10.736604946634547"><ele>138.0</ele><time>2026-05-02T07:12:45Z</time></trkpt><trkpt lat="45.38643245548004" lon="10.736643700851802"><ele>138.0</ele><time>2026-05-02T07:12:46Z</time></trkpt><trkpt lat="45.38653128105789" lon="10.736682672076489"><ele>138.0</ele><time>2026-05-02T07:12:47Z</time></trkpt><trkpt lat="45.386626374970575" lon="10.736717279253812"><ele>137.6</ele><time>2026-05-02T07:12:48Z</time></trkpt><trkpt lat="45.38672108836048" lon="10.736752388665915"><ele>137.20000000000002</ele><time>2026-05-02T07:12:49Z</time></trkpt><trkpt lat="45.38681800215005" lon="10.736786635204815"><ele>136.8</ele><time>2026-05-02T07:12:50Z</time></trkpt><trkpt lat="45.386918022428304" lon="10.736824060606349"><ele>136.4</ele><time>2026-05-02T07:12:51Z</time></trkpt><trkpt lat="45.38701430076734" lon="10.736861946838006"><ele>136.0</ele><time>2026-05-02T07:12:52Z</time></trkpt><trkpt lat="45.3871084142105" lon="10.736898386133497"><ele>136.0</ele><time>2026-05-02T07:12:53Z</time></trkpt><trkpt lat="45.3871994779592" lon="10.73693323805409"><ele>136.0</ele><time>2026-05-02T07:12:54Z</time></trkpt><trkpt lat="45.38728791471887" lon="10.736966174392247"><ele>136.0</ele><time>2026-05-02T07:12:55Z</time></trkpt><trkpt lat="45.38737526661805" lon="10.736998721930266"><ele>136.0</ele><time>2026-05-02T07:12:56Z</time></trkpt><trkpt lat="45.38746492964661" lon="10.737039537761905"><ele>136.0</ele><time>2026-05-02T07:12:57Z</time></trkpt><trkpt lat="45.387561459294986" lon="10.73709099568911"><ele>136.0</ele><time>2026-05-02T07:12:58Z</time></trkpt><trkpt lat="45.3876607085822" lon="10.737143616600392"><ele>136.0</ele><time>2026-05-02T07:12:59Z</time></trkpt><trkpt lat="45.38776207019418" lon="10.737202455061782"><ele>136.0</ele><time>2026-05-02T07:13:00Z</time></trkpt><trkpt lat="45.3878648205605" lon="10.737268860737029"><ele>136.0</ele><time>2026-05-02T07:13:01Z</time></trkpt><trkpt lat="45.387969619297834" lon="10.737342424953695"><ele>136.0</ele><time>2026-05-02T07:13:02Z</time></trkpt><trkpt lat="45.38807723726862" lon="10.737422277493609"><ele>132.25</ele><time>2026-05-02T07:13:03Z</time></trkpt><trkpt lat="45.388187965293554" lon="10.737513900479033"><ele>128.5</ele><time>2026-05-02T07:13:04Z</time></trkpt><trkpt lat="45.388302956595695" lon="10.737617886989609"><ele>124.75</ele><time>2026-05-02T07:13:05Z</time></trkpt><trkpt lat="45.38842331087416" lon="10.737739156170798"><ele>121.0</ele><time>2026-05-02T07:13:06Z</time></trkpt><trkpt lat="45.38855163687899" lon="10.737871737666405"><ele>120.0</ele><time>2026-05-02T07:13:07Z</time></trkpt><trkpt lat="45.388688816514176" lon="10.738006592701913"><ele>119.0</ele><time>2026-05-02T07:13:08Z</time></trkpt><trkpt lat="45.38881807721284" lon="10.73816817619401"><ele>118.0</ele><time>2026-05-02T07:13:09Z</time></trkpt><trkpt lat="45.38896178354365" lon="10.738318046639652"><ele>116.33333333333334</ele><time>2026-05-02T07:13:10Z</time></trkpt><trkpt lat="45.389113141357775" lon="10.738475897003598"><ele>114.66666666666666</ele><time>2026-05-02T07:13:11Z</time></trkpt><trkpt lat="45.38927543215311" lon="10.73864514923286"><ele>113.0</ele><time>2026-05-02T07:13:12Z</time></trkpt><trkpt lat="45.38944096890333" lon="10.738817104609003"><ele>112.66666666666666</ele><time>2026-05-02T07:13:13Z</time></trkpt><trkpt lat="45.38960650282359" lon="10.738988996883855"><ele>112.33333333333334</ele><time>2026-05-02T07:13:14Z</time></trkpt><trkpt lat="45.389781450031904" lon="10.739144176226967"><ele>112.0</ele><time>2026-05-02T07:13:15Z</time></trkpt><trkpt lat="45.3899387874552" lon="10.73931907535586"><ele>111.33333333333334</ele><time>2026-05-02T07:13:16Z</time></trkpt><trkpt lat="45.39009584206168" lon="10.73948628523803"><ele>110.66666666666666</ele><time>2026-05-02T07:13:17Z</time></trkpt><trkpt lat="45.39025663636673" lon="10.739645994998224"><ele>110.0</ele><time>2026-05-02T07:13:18Z</time></trkpt><trkpt lat="45.39042506481778" lon="10.739779476274162"><ele>109.33333333333333</ele><time>2026-05-02T07:13:19Z</time></trkpt><trkpt lat="45.39060448652732" lon="10.739869974803323"><ele>108.66666666666666</ele><time>2026-05-02T07:13:20Z</time></trkpt><trkpt lat="45.39078762446281" lon="10.739936679199843"><ele>108.0</ele><time>2026-05-02T07:13:21Z</time></trkpt><trkpt lat="45.39096386400373" lon="10.74004430828766"><ele>108.0</ele><time>2026-05-02T07:13:22Z</time></trkpt><trkpt lat="45.391148230015574" lon="10.74013044102116"><ele>108.0</ele><time>2026-05-02T07:13:23Z</time></trkpt><trkpt lat="45.39136993339513" lon="10.740084556800278"><ele>108.0</ele><time>2026-05-02T07:13:24Z</time></trkpt><trkpt lat="45.39157647209377" lon="10.740136840189566"><ele>107.66666666666666</ele><time>2026-05-02T07:13:25Z</time></trkpt><trkpt lat="45.39178838877418" lon="10.740196589553658"><ele>107.33333333333333</ele><time>2026-05-02T07:13:26Z</time></trkpt><trkpt lat="45.39200409325078" lon="10.740278736426925"><ele>107.0</ele><time>2026-05-02T07:13:27Z</time></trkpt><trkpt lat="45.392221213114254" lon="10.740368964369884"><ele>105.5</ele><time>2026-05-02T07:13:28Z</time></trkpt><trkpt lat="45.392439462046994" lon="10.740460341954673"><ele>104.0</ele><time>2026-05-02T07:13:29Z</time></trkpt><trkpt lat="45.39265994593357" lon="10.740550830594024"><ele>104.0</ele><time>2026-05-02T07:13:30Z</time></trkpt><trkpt lat="45.392877249961" lon="10.740642959265493"><ele>104.0</ele><time>2026-05-02T07:13:31Z</time></trkpt><trkpt lat="45.39308484475125" lon="10.740739333427932"><ele>104.0</ele><time>2026-05-02T07:13:32Z</time></trkpt><trkpt lat="45.39328410962834" lon="10.740866735230538"><ele>103.5</ele><time>2026-05-02T07:13:33Z</time></trkpt><trkpt lat="45.39347433322936" lon="10.741037105497135"><ele>103.0</ele><time>2026-05-02T07:13:34Z</time></trkpt><trkpt lat="45.39364972353847" lon="10.741237800252549"><ele>103.0</ele><time>2026-05-02T07:13:35Z</time></trkpt><trkpt lat="45.393814673208226" lon="10.741450560125783"><ele>103.0</ele><time>2026-05-02T07:13:36Z</time></trkpt><trkpt lat="45.39397582642769" lon="10.741661808425734"><ele>103.0</ele><time>2026-05-02T07:13:37Z</time></trkpt><trkpt lat="45.39413974964495" lon="10.741872251528976"><ele>103.0</ele><time>2026-05-02T07:13:38Z</time></trkpt><trkpt lat="45.39430013876011" lon="10.742086924968678"><ele>103.0</ele><time>2026-05-02T07:13:39Z</time></trkpt><trkpt lat="45.394449192233544" lon="10.7423112174098"><ele>103.0</ele><time>2026-05-02T07:13:40Z</time></trkpt><trkpt lat="45.39458569250161" lon="10.742530997804936"><ele>102.33333333333334</ele><time>2026-05-02T07:13:41Z</time></trkpt><trkpt lat="45.394711890823054" lon="10.742742619057541"><ele>101.66666666666666</ele><time>2026-05-02T07:13:42Z</time></trkpt><trkpt lat="45.39484295227689" lon="10.742930476129025"><ele>101.0</ele><time>2026-05-02T07:13:43Z</time></trkpt><trkpt lat="45.394996142149296" lon="10.743086636741308"><ele>101.0</ele><time>2026-05-02T07:13:44Z</time></trkpt><trkpt lat="45.39517616330794" lon="10.74320645401486"><ele>101.0</ele><time>2026-05-02T07:13:44.999Z</time></trkpt><trkpt lat="45.395374489100156" lon="10.743308373973244"><ele>101.0</ele><time>2026-05-02T07:13:45.999Z</time></trkpt><trkpt lat="45.395590141420264" lon="10.743415770254234"><ele>100.0</ele><time>2026-05-02T07:13:46.999Z</time></trkpt><trkpt lat="45.39581477898954" lon="10.743527115689723"><ele>99.0</ele><time>2026-05-02T07:13:47.999Z</time></trkpt><trkpt lat="45.39605014271944" lon="10.743648342346019"><ele>98.5</ele><time>2026-05-02T07:13:48.999Z</time></trkpt><trkpt lat="45.39629415851319" lon="10.743775261432157"><ele>98.0</ele><time>2026-05-02T07:13:49.999Z</time></trkpt><trkpt lat="45.396545638622236" lon="10.743907789992114"><ele>98.0</ele><time>2026-05-02T07:13:50.999Z</time></trkpt><trkpt lat="45.396802021052146" lon="10.744036515211064"><ele>98.0</ele><time>2026-05-02T07:13:51.999Z</time></trkpt><trkpt lat="45.39705497280682" lon="10.74416480207552"><ele>98.5</ele><time>2026-05-02T07:13:52.999Z</time></trkpt><trkpt lat="45.39730510344319" lon="10.744291614840659"><ele>99.0</ele><time>2026-05-02T07:13:53.999Z</time></trkpt><trkpt lat="45.39755959564373" lon="10.744420446405254"><ele>98.0</ele><time>2026-05-02T07:13:54.999Z</time></trkpt><trkpt lat="45.39781355800391" lon="10.744548612267376"><ele>97.0</ele><time>2026-05-02T07:13:55.999Z</time></trkpt><trkpt lat="45.398065573617274" lon="10.74466930778535"><ele>97.0</ele><time>2026-05-02T07:13:56.999Z</time></trkpt><trkpt lat="45.3983177877815" lon="10.74476735531428"><ele>97.0</ele><time>2026-05-02T07:13:57.999Z</time></trkpt><trkpt lat="45.39857530354197" lon="10.744836534665202"><ele>97.0</ele><time>2026-05-02T07:13:58.999Z</time></trkpt><trkpt lat="45.39883697369258" lon="10.74488398587898"><ele>97.0</ele><time>2026-05-02T07:13:59.999Z</time></trkpt><trkpt lat="45.39908615776991" lon="10.744916278578799"><ele>97.0</ele><time>2026-05-02T07:14:00.999Z</time></trkpt><trkpt lat="45.39931998713843" lon="10.744944231097177"><ele>97.0</ele><time>2026-05-02T07:14:01.999Z</time></trkpt><trkpt lat="45.399546498206966" lon="10.744950420381533"><ele>96.0</ele><time>2026-05-02T07:14:02.999Z</time></trkpt><trkpt lat="45.399778623418854" lon="10.744918335449869"><ele>95.0</ele><time>2026-05-02T07:14:03.999Z</time></trkpt><trkpt lat="45.400013943322556" lon="10.744839608454205"><ele>95.0</ele><time>2026-05-02T07:14:04.999Z</time></trkpt><trkpt lat="45.40024338724185" lon="10.744766108054531"><ele>95.0</ele><time>2026-05-02T07:14:05.999Z</time></trkpt><trkpt lat="45.40046908287614" lon="10.744741549478201"><ele>95.0</ele><time>2026-05-02T07:14:06.999Z</time></trkpt><trkpt lat="45.40069461853787" lon="10.744753728250554"><ele>95.0</ele><time>2026-05-02T07:14:07.999Z</time></trkpt><trkpt lat="45.40093162749718" lon="10.74477408759525"><ele>95.0</ele><time>2026-05-02T07:14:08.999Z</time></trkpt><trkpt lat="45.40116768803193" lon="10.744800153777192"><ele>95.0</ele><time>2026-05-02T07:14:09.999Z</time></trkpt><trkpt lat="45.401397039648906" lon="10.744826708375228"><ele>94.5</ele><time>2026-05-02T07:14:10.999Z</time></trkpt><trkpt lat="45.40162262694194" lon="10.744866259669347"><ele>94.0</ele><time>2026-05-02T07:14:11.999Z</time></trkpt><trkpt lat="45.40184583853701" lon="10.744947232996381"><ele>94.0</ele><time>2026-05-02T07:14:12.999Z</time></trkpt><trkpt lat="45.402048792590335" lon="10.745039636213692"><ele>94.0</ele><time>2026-05-02T07:14:13.999Z</time></trkpt><trkpt lat="45.402239188533926" lon="10.745156317605659"><ele>94.0</ele><time>2026-05-02T07:14:14.999Z</time></trkpt><trkpt lat="45.402422324267995" lon="10.745318863964663"><ele>94.0</ele><time>2026-05-02T07:14:15.999Z</time></trkpt><trkpt lat="45.40260245276079" lon="10.745520168750758"><ele>94.0</ele><time>2026-05-02T07:14:16.999Z</time></trkpt><trkpt lat="45.402793811399995" lon="10.745729539935292"><ele>94.0</ele><time>2026-05-02T07:14:17.999Z</time></trkpt><trkpt lat="45.40299779800623" lon="10.745946019788159"><ele>94.0</ele><time>2026-05-02T07:14:18.999Z</time></trkpt><trkpt lat="45.403201864766764" lon="10.746162500386047"><ele>94.0</ele><time>2026-05-02T07:14:19.999Z</time></trkpt><trkpt lat="45.40339183577201" lon="10.746362441555736"><ele>94.0</ele><time>2026-05-02T07:14:20.999Z</time></trkpt><trkpt lat="45.403574336588804" lon="10.746551043035145"><ele>94.0</ele><time>2026-05-02T07:14:21.999Z</time></trkpt><trkpt lat="45.40375338440592" lon="10.746714814176553"><ele>94.0</ele><time>2026-05-02T07:14:22.999Z</time></trkpt><trkpt lat="45.403942780825005" lon="10.746834901344489"><ele>94.0</ele><time>2026-05-02T07:14:23.999Z</time></trkpt><trkpt lat="45.40416251309175" lon="10.746924274844893"><ele>94.5</ele><time>2026-05-02T07:14:24.999Z</time></trkpt><trkpt lat="45.404404987414104" lon="10.747011351755669"><ele>95.0</ele><time>2026-05-02T07:14:25.999Z</time></trkpt><trkpt lat="45.404644480076975" lon="10.74710458092277"><ele>96.5</ele><time>2026-05-02T07:14:26.999Z</time></trkpt><trkpt lat="45.40492992057513" lon="10.747179850908426"><ele>98.0</ele><time>2026-05-02T07:14:27.999Z</time></trkpt><trkpt lat="45.40520791650428" lon="10.747271457576273"><ele>98.0</ele><time>2026-05-02T07:14:28.999Z</time></trkpt><trkpt lat="45.40548917154162" lon="10.74736116270889"><ele>98.0</ele><time>2026-05-02T07:14:29.999Z</time></trkpt><trkpt lat="45.40575481429777" lon="10.747449316896487"><ele>97.0</ele><time>2026-05-02T07:14:30.999Z</time></trkpt><trkpt lat="45.40599985786476" lon="10.747532333659747"><ele>96.0</ele><time>2026-05-02T07:14:31.999Z</time></trkpt><trkpt lat="45.40622791103204" lon="10.747611896021631"><ele>95.66666666666667</ele><time>2026-05-02T07:14:32.999Z</time></trkpt><trkpt lat="45.40644759474804" lon="10.747684752271706"><ele>95.33333333333334</ele><time>2026-05-02T07:14:33.999Z</time></trkpt><trkpt lat="45.4066490264518" lon="10.747758812913021"><ele>95.0</ele><time>2026-05-02T07:14:34.999Z</time></trkpt><trkpt lat="45.40682611760792" lon="10.747823145990203"><ele>95.25</ele><time>2026-05-02T07:14:35.999Z</time></trkpt><trkpt lat="45.40698157040519" lon="10.74788313906841"><ele>95.5</ele><time>2026-05-02T07:14:36.999Z</time></trkpt><trkpt lat="45.407117984856285" lon="10.747923360851793"><ele>95.75</ele><time>2026-05-02T07:14:37.999Z</time></trkpt><trkpt lat="45.40724198878717" lon="10.747951240284348"><ele>96.0</ele><time>2026-05-02T07:14:38.999Z</time></trkpt><trkpt lat="45.40734494025343" lon="10.747997851243342"><ele>96.0</ele><time>2026-05-02T07:14:39.999Z</time></trkpt><trkpt lat="45.40742512291963" lon="10.748071832390037"><ele>96.0</ele><time>2026-05-02T07:14:40.999Z</time></trkpt><trkpt lat="45.407481324744374" lon="10.748168550772588"><ele>96.0</ele><time>2026-05-02T07:14:41.999Z</time></trkpt><trkpt lat="45.407557925532856" lon="10.748210882012074"><ele>96.0</ele><time>2026-05-02T07:14:43Z</time></trkpt><trkpt lat="45.4076484374957" lon="10.748193908858504"><ele>96.0</ele><time>2026-05-02T07:14:44Z</time></trkpt><trkpt lat="45.40775772948116" lon="10.748101588914116"><ele>96.0</ele><time>2026-05-02T07:14:45Z</time></trkpt><trkpt lat="45.40789699455219" lon="10.748020509306082"><ele>96.0</ele><time>2026-05-02T07:14:46Z</time></trkpt><trkpt lat="45.408076918332846" lon="10.748029701326026"><ele>96.0</ele><time>2026-05-02T07:14:47Z</time></trkpt><trkpt lat="45.40826686031839" lon="10.74805252802745"><ele>96.0</ele><time>2026-05-02T07:14:48Z</time></trkpt><trkpt lat="45.40847392093127" lon="10.74806995895029"><ele>96.0</ele><time>2026-05-02T07:14:49Z</time></trkpt><trkpt lat="45.408783189103254" lon="10.748122079733328"><ele>96.0</ele><time>2026-05-02T07:14:50Z</time></trkpt><trkpt lat="45.40902924292098" lon="10.748128223629616"><ele>96.0</ele><time>2026-05-02T07:14:51Z</time></trkpt><trkpt lat="45.40931295145874" lon="10.748133537324348"><ele>96.0</ele><time>2026-05-02T07:14:52Z</time></trkpt><trkpt lat="45.40958091261972" lon="10.748135487316004"><ele>96.0</ele><time>2026-05-02T07:14:53Z</time></trkpt><trkpt lat="45.40984131465346" lon="10.748157471145003"><ele>97.0</ele><time>2026-05-02T07:14:54Z</time></trkpt><trkpt lat="45.410104909055455" lon="10.74818873604746"><ele>98.0</ele><time>2026-05-02T07:14:55Z</time></trkpt><trkpt lat="45.41037588184962" lon="10.748220112105185"><ele>99.0</ele><time>2026-05-02T07:14:56Z</time></trkpt><trkpt lat="45.41065097942244" lon="10.748250921280711"><ele>100.0</ele><time>2026-05-02T07:14:57Z</time></trkpt><trkpt lat="45.41091822942772" lon="10.748274773234362"><ele>100.0</ele><time>2026-05-02T07:14:58Z</time></trkpt><trkpt lat="45.4111771163852" lon="10.748300257271884"><ele>100.0</ele><time>2026-05-02T07:14:59Z</time></trkpt><trkpt lat="45.411438761317214" lon="10.748331207622316"><ele>101.0</ele><time>2026-05-02T07:15:00Z</time></trkpt><trkpt lat="45.41170368747811" lon="10.748365716246644"><ele>102.0</ele><time>2026-05-02T07:15:01Z</time></trkpt><trkpt lat="45.41197273941554" lon="10.748402346428765"><ele>101.5</ele><time>2026-05-02T07:15:02Z</time></trkpt><trkpt lat="45.412242541657044" lon="10.74843627576418"><ele>101.0</ele><time>2026-05-02T07:15:03Z</time></trkpt><trkpt lat="45.41251230211677" lon="10.748469237613508"><ele>101.0</ele><time>2026-05-02T07:15:04Z</time></trkpt><trkpt lat="45.412779139430526" lon="10.748500282017275"><ele>101.0</ele><time>2026-05-02T07:15:05Z</time></trkpt><trkpt lat="45.41303663091742" lon="10.748540554375372"><ele>103.5</ele><time>2026-05-02T07:15:06Z</time></trkpt><trkpt lat="45.4132725981069" lon="10.748588032808513"><ele>106.0</ele><time>2026-05-02T07:15:07Z</time></trkpt><trkpt lat="45.41349251936906" lon="10.748641132436747"><ele>106.0</ele><time>2026-05-02T07:15:08Z</time></trkpt><trkpt lat="45.41370814286045" lon="10.748715680486361"><ele>106.0</ele><time>2026-05-02T07:15:09Z</time></trkpt><trkpt lat="45.413929049519126" lon="10.748805858070304"><ele>104.5</ele><time>2026-05-02T07:15:10Z</time></trkpt><trkpt lat="45.41415871989543" lon="10.748903543736516"><ele>103.0</ele><time>2026-05-02T07:15:11Z</time></trkpt><trkpt lat="45.41439359221141" lon="10.749004604692622"><ele>103.0</ele><time>2026-05-02T07:15:12Z</time></trkpt><trkpt lat="45.414631773243016" lon="10.749081984641476"><ele>103.0</ele><time>2026-05-02T07:15:13Z</time></trkpt><trkpt lat="45.41487253177347" lon="10.749131837761077"><ele>102.5</ele><time>2026-05-02T07:15:14Z</time></trkpt><trkpt lat="45.415097537756935" lon="10.749182697568244"><ele>102.0</ele><time>2026-05-02T07:15:15Z</time></trkpt><trkpt lat="45.415314421293964" lon="10.74925413428401"><ele>102.5</ele><time>2026-05-02T07:15:16Z</time></trkpt><trkpt lat="45.41553236925772" lon="10.749347442237505"><ele>103.0</ele><time>2026-05-02T07:15:17Z</time></trkpt><trkpt lat="45.415750123873366" lon="10.749444261231291"><ele>103.0</ele><time>2026-05-02T07:15:18Z</time></trkpt><trkpt lat="45.41596625549093" lon="10.749538311947463"><ele>103.0</ele><time>2026-05-02T07:15:19Z</time></trkpt><trkpt lat="45.41617474388804" lon="10.74962099088999"><ele>103.0</ele><time>2026-05-02T07:15:20Z</time></trkpt><trkpt lat="45.4163931425984" lon="10.749680295975926"><ele>102.0</ele><time>2026-05-02T07:15:21Z</time></trkpt><trkpt lat="45.416634773656135" lon="10.749693194099985"><ele>101.0</ele><time>2026-05-02T07:15:22Z</time></trkpt><trkpt lat="45.416898430942254" lon="10.749683619279194"><ele>101.0</ele><time>2026-05-02T07:15:23Z</time></trkpt><trkpt lat="45.417163616191914" lon="10.749683711709116"><ele>101.0</ele><time>2026-05-02T07:15:24Z</time></trkpt><trkpt lat="45.41743050584436" lon="10.749713669580245"><ele>101.0</ele><time>2026-05-02T07:15:25Z</time></trkpt><trkpt lat="45.4176960821213" lon="10.749781352007378"><ele>101.0</ele><time>2026-05-02T07:15:26Z</time></trkpt><trkpt lat="45.41794916071858" lon="10.749856892830765"><ele>102.0</ele><time>2026-05-02T07:15:27Z</time></trkpt><trkpt lat="45.418181658245906" lon="10.749936486527718"><ele>103.0</ele><time>2026-05-02T07:15:28Z</time></trkpt><trkpt lat="45.41839709563716" lon="10.750008314146605"><ele>103.0</ele><time>2026-05-02T07:15:29Z</time></trkpt><trkpt lat="45.41860554717977" lon="10.750075288160087"><ele>103.0</ele><time>2026-05-02T07:15:30Z</time></trkpt><trkpt lat="45.41881230042555" lon="10.750139121503572"><ele>103.0</ele><time>2026-05-02T07:15:31Z</time></trkpt><trkpt lat="45.4190302658399" lon="10.750198266534605"><ele>102.0</ele><time>2026-05-02T07:15:32Z</time></trkpt><trkpt lat="45.41925583435659" lon="10.750267681029532"><ele>101.0</ele><time>2026-05-02T07:15:33Z</time></trkpt><trkpt lat="45.419479417206496" lon="10.750340449322763"><ele>101.33333333333333</ele><time>2026-05-02T07:15:34Z</time></trkpt><trkpt lat="45.419695738986064" lon="10.750409194772555"><ele>101.66666666666666</ele><time>2026-05-02T07:15:35Z</time></trkpt><trkpt lat="45.41990026998594" lon="10.750475692061372"><ele>102.0</ele><time>2026-05-02T07:15:36Z</time></trkpt><trkpt lat="45.42009615636882" lon="10.750545864170562"><ele>102.0</ele><time>2026-05-02T07:15:37Z</time></trkpt><trkpt lat="45.42029060700913" lon="10.750631384366487"><ele>102.0</ele><time>2026-05-02T07:15:38Z</time></trkpt><trkpt lat="45.42048349985544" lon="10.750728730633076"><ele>102.0</ele><time>2026-05-02T07:15:39Z</time></trkpt><trkpt lat="45.42066294209615" lon="10.750840336950901"><ele>102.0</ele><time>2026-05-02T07:15:40Z</time></trkpt><trkpt lat="45.42082997590455" lon="10.750955272474753"><ele>102.0</ele><time>2026-05-02T07:15:41Z</time></trkpt><trkpt lat="45.42099941478564" lon="10.751070361682336"><ele>102.0</ele><time>2026-05-02T07:15:42Z</time></trkpt><trkpt lat="45.42116778324734" lon="10.751183501482869"><ele>102.0</ele><time>2026-05-02T07:15:43Z</time></trkpt><trkpt lat="45.421334214751234" lon="10.751297472868918"><ele>102.0</ele><time>2026-05-02T07:15:44Z</time></trkpt><trkpt lat="45.42149949005516" lon="10.751419385130674"><ele>102.0</ele><time>2026-05-02T07:15:45Z</time></trkpt><trkpt lat="45.421662128788164" lon="10.751544159798273"><ele>102.0</ele><time>2026-05-02T07:15:46Z</time></trkpt><trkpt lat="45.421823756588196" lon="10.751666796626235"><ele>102.0</ele><time>2026-05-02T07:15:47Z</time></trkpt><trkpt lat="45.42197436836569" lon="10.751782967111458"><ele>102.0</ele><time>2026-05-02T07:15:48Z</time></trkpt><trkpt lat="45.42211564803555" lon="10.751889714222173"><ele>102.33333333333334</ele><time>2026-05-02T07:15:49Z</time></trkpt><trkpt lat="45.4222607058474" lon="10.751997546649553"><ele>102.66666666666667</ele><time>2026-05-02T07:15:50Z</time></trkpt><trkpt lat="45.42241751843307" lon="10.75211945799773"><ele>103.0</ele><time>2026-05-02T07:15:51Z</time></trkpt><trkpt lat="45.42257860392058" lon="10.752255012191178"><ele>103.0</ele><time>2026-05-02T07:15:52Z</time></trkpt><trkpt lat="45.422750888696626" lon="10.752408908443792"><ele>103.0</ele><time>2026-05-02T07:15:53Z</time></trkpt><trkpt lat="45.422939280089444" lon="10.752583712961536"><ele>103.0</ele><time>2026-05-02T07:15:54Z</time></trkpt><trkpt lat="45.423126605349786" lon="10.75275795986454"><ele>102.5</ele><time>2026-05-02T07:15:55Z</time></trkpt><trkpt lat="45.42332233898323" lon="10.75292845406285"><ele>102.0</ele><time>2026-05-02T07:15:56Z</time></trkpt><trkpt lat="45.42349970756343" lon="10.753120980042322"><ele>102.0</ele><time>2026-05-02T07:15:57Z</time></trkpt><trkpt lat="45.42366751160391" lon="10.753281010432989"><ele>102.0</ele><time>2026-05-02T07:15:58Z</time></trkpt><trkpt lat="45.42382297175833" lon="10.753406390137624"><ele>102.0</ele><time>2026-05-02T07:15:59Z</time></trkpt><trkpt lat="45.423956287768576" lon="10.753534592852597"><ele>102.0</ele><time>2026-05-02T07:16:00Z</time></trkpt><trkpt lat="45.424073447209715" lon="10.753647346627519"><ele>102.0</ele><time>2026-05-02T07:16:01Z</time></trkpt><trkpt lat="45.424165180863994" lon="10.753762820350529"><ele>102.0</ele><time>2026-05-02T07:16:02Z</time></trkpt><trkpt lat="45.424252326573" lon="10.75384787148106"><ele>102.0</ele><time>2026-05-02T07:16:03Z</time></trkpt><trkpt lat="45.424334758994036" lon="10.753903063959397"><ele>102.0</ele><time>2026-05-02T07:16:04Z</time></trkpt><trkpt lat="45.42440589127153" lon="10.753979394883572"><ele>102.0</ele><time>2026-05-02T07:16:05Z</time></trkpt><trkpt lat="45.42447288045624" lon="10.754057312137231"><ele>102.0</ele><time>2026-05-02T07:16:06Z</time></trkpt><trkpt lat="45.42452566613828" lon="10.754149874967032"><ele>102.0</ele><time>2026-05-02T07:16:07Z</time></trkpt><trkpt lat="45.42454871567716" lon="10.754268502755814"><ele>102.0</ele><time>2026-05-02T07:16:08Z</time></trkpt><trkpt lat="45.424556844055815" lon="10.754401058204605"><ele>102.0</ele><time>2026-05-02T07:16:09Z</time></trkpt><trkpt lat="45.424576266501816" lon="10.754528182252995"><ele>102.0</ele><time>2026-05-02T07:16:10Z</time></trkpt><trkpt lat="45.424641982798775" lon="10.754615191206572"><ele>102.0</ele><time>2026-05-02T07:16:11Z</time></trkpt><trkpt lat="45.42473595509902" lon="10.754673054628135"><ele>102.0</ele><time>2026-05-02T07:16:12Z</time></trkpt><trkpt lat="45.42470638813353" lon="10.754940483967529"><ele>102.0</ele><time>2026-05-02T07:16:13Z</time></trkpt><trkpt lat="45.42493672661749" lon="10.75489551893876"><ele>102.33333333333334</ele><time>2026-05-02T07:16:14Z</time></trkpt><trkpt lat="45.42502594673258" lon="10.75506772992072"><ele>102.66666666666667</ele><time>2026-05-02T07:16:15Z</time></trkpt><trkpt lat="45.42513234543294" lon="10.75522096332141"><ele>103.0</ele><time>2026-05-02T07:16:16Z</time></trkpt><trkpt lat="45.42526782735188" lon="10.755360961441651"><ele>103.0</ele><time>2026-05-02T07:16:16.999Z</time></trkpt><trkpt lat="45.42541638782799" lon="10.755489556432218"><ele>103.0</ele><time>2026-05-02T07:16:17.999Z</time></trkpt><trkpt lat="45.42556003261792" lon="10.755598377374952"><ele>103.0</ele><time>2026-05-02T07:16:18.999Z</time></trkpt><trkpt lat="45.42569807458796" lon="10.75569080984149"><ele>102.75</ele><time>2026-05-02T07:16:19.999Z</time></trkpt><trkpt lat="45.42583531893153" lon="10.755788760648793"><ele>102.5</ele><time>2026-05-02T07:16:20.999Z</time></trkpt><trkpt lat="45.425968568863496" lon="10.755883793574927"><ele>102.25</ele><time>2026-05-02T07:16:21.999Z</time></trkpt><trkpt lat="45.42609012214257" lon="10.755974539412593"><ele>102.0</ele><time>2026-05-02T07:16:22.999Z</time></trkpt><trkpt lat="45.42620763094218" lon="10.756063242327045"><ele>101.75</ele><time>2026-05-02T07:16:23.999Z</time></trkpt><trkpt lat="45.426323330035025" lon="10.756147565874642"><ele>101.5</ele><time>2026-05-02T07:16:24.999Z</time></trkpt><trkpt lat="45.42645362699819" lon="10.756239446031714"><ele>101.25</ele><time>2026-05-02T07:16:25.999Z</time></trkpt><trkpt lat="45.42659575012448" lon="10.75634177617775"><ele>101.0</ele><time>2026-05-02T07:16:26.999Z</time></trkpt><trkpt lat="45.426748209776186" lon="10.756450783168239"><ele>101.0</ele><time>2026-05-02T07:16:27.999Z</time></trkpt><trkpt lat="45.42689485472864" lon="10.756560268742236"><ele>101.0</ele><time>2026-05-02T07:16:28.999Z</time></trkpt><trkpt lat="45.42702519489289" lon="10.75665933996066"><ele>101.0</ele><time>2026-05-02T07:16:29.999Z</time></trkpt><trkpt lat="45.427144547782746" lon="10.75675107721228"><ele>101.0</ele><time>2026-05-02T07:16:30.999Z</time></trkpt><trkpt lat="45.42726822973223" lon="10.75684529135948"><ele>101.0</ele><time>2026-05-02T07:16:31.999Z</time></trkpt><trkpt lat="45.42740544170893" lon="10.756944762393784"><ele>101.0</ele><time>2026-05-02T07:16:32.999Z</time></trkpt><trkpt lat="45.42758675657367" lon="10.75708270480927"><ele>101.0</ele><time>2026-05-02T07:16:33.999Z</time></trkpt><trkpt lat="45.42780608528882" lon="10.757211563450213"><ele>101.33333333333333</ele><time>2026-05-02T07:16:34.999Z</time></trkpt><trkpt lat="45.42801182347947" lon="10.757289904661508"><ele>101.66666666666666</ele><time>2026-05-02T07:16:35.999Z</time></trkpt><trkpt lat="45.428183986618556" lon="10.757375607383866"><ele>102.0</ele><time>2026-05-02T07:16:36.999Z</time></trkpt><trkpt lat="45.428333628997436" lon="10.757443287445327"><ele>102.0</ele><time>2026-05-02T07:16:37.999Z</time></trkpt><trkpt lat="45.42844854253992" lon="10.757494684086524"><ele>102.0</ele><time>2026-05-02T07:16:38.999Z</time></trkpt><trkpt lat="45.42854893532896" lon="10.757558551035661"><ele>102.0</ele><time>2026-05-02T07:16:39.999Z</time></trkpt><trkpt lat="45.428638221878444" lon="10.757643669390427"><ele>102.0</ele><time>2026-05-02T07:16:40.999Z</time></trkpt><trkpt lat="45.42873122338328" lon="10.757695907071339"><ele>102.0</ele><time>2026-05-02T07:16:41.999Z</time></trkpt><trkpt lat="45.42882266609073" lon="10.757685343818801"><ele>102.75</ele><time>2026-05-02T07:16:42.999Z</time></trkpt><trkpt lat="45.428909808338" lon="10.757621168040766"><ele>103.5</ele><time>2026-05-02T07:16:43.999Z</time></trkpt><trkpt lat="45.429001178860716" lon="10.757518461927729"><ele>104.25</ele><time>2026-05-02T07:16:44.999Z</time></trkpt><trkpt lat="45.42911507599467" lon="10.757468141601695"><ele>105.0</ele><time>2026-05-02T07:16:45.999Z</time></trkpt><trkpt lat="45.42925193008393" lon="10.757486082176861"><ele>105.0</ele><time>2026-05-02T07:16:46.999Z</time></trkpt><trkpt lat="45.42937491159408" lon="10.757533126503702"><ele>105.0</ele><time>2026-05-02T07:16:48Z</time></trkpt><trkpt lat="45.42949758772797" lon="10.757574943567946"><ele>105.0</ele><time>2026-05-02T07:16:49Z</time></trkpt><trkpt lat="45.42962722414507" lon="10.757621414082585"><ele>105.0</ele><time>2026-05-02T07:16:50Z</time></trkpt><trkpt lat="45.42976964677536" lon="10.757675102782468"><ele>104.0</ele><time>2026-05-02T07:16:51Z</time></trkpt><trkpt lat="45.42992323974468" lon="10.75773878884725"><ele>103.0</ele><time>2026-05-02T07:16:52Z</time></trkpt><trkpt lat="45.43008644382672" lon="10.757811692141274"><ele>102.0</ele><time>2026-05-02T07:16:53Z</time></trkpt><trkpt lat="45.4302479862073" lon="10.757880171891772"><ele>102.0</ele><time>2026-05-02T07:16:54Z</time></trkpt><trkpt lat="45.43041970854007" lon="10.757937852623819"><ele>102.0</ele><time>2026-05-02T07:16:55Z</time></trkpt><trkpt lat="45.430595287477196" lon="10.757982531972859"><ele>102.0</ele><time>2026-05-02T07:16:56Z</time></trkpt><trkpt lat="45.430772514014706" lon="10.758028380173382"><ele>102.66666666666666</ele><time>2026-05-02T07:16:57Z</time></trkpt><trkpt lat="45.43094593732199" lon="10.75808577847717"><ele>103.33333333333333</ele><time>2026-05-02T07:16:58Z</time></trkpt><trkpt lat="45.43111389324077" lon="10.75814920690867"><ele>104.0</ele><time>2026-05-02T07:16:59Z</time></trkpt><trkpt lat="45.43128691846118" lon="10.75820186126076"><ele>103.66666666666666</ele><time>2026-05-02T07:17:00Z</time></trkpt><trkpt lat="45.43145882591677" lon="10.758262618343743"><ele>103.33333333333334</ele><time>2026-05-02T07:17:01Z</time></trkpt><trkpt lat="45.43161424006522" lon="10.758351161448694"><ele>103.0</ele><time>2026-05-02T07:17:02Z</time></trkpt><trkpt lat="45.43177619825844" lon="10.758459173596394"><ele>103.0</ele><time>2026-05-02T07:17:03Z</time></trkpt><trkpt lat="45.43193699978349" lon="10.758564930049124"><ele>103.0</ele><time>2026-05-02T07:17:04Z</time></trkpt><trkpt lat="45.43209937627232" lon="10.758665758013647"><ele>103.0</ele><time>2026-05-02T07:17:05Z</time></trkpt><trkpt lat="45.432257979602454" lon="10.758774177473077"><ele>103.0</ele><time>2026-05-02T07:17:06Z</time></trkpt><trkpt lat="45.4324073902416" lon="10.758895803765345"><ele>103.0</ele><time>2026-05-02T07:17:07Z</time></trkpt><trkpt lat="45.43254771247089" lon="10.759023125409241"><ele>103.0</ele><time>2026-05-02T07:17:08Z</time></trkpt><trkpt lat="45.4326802254283" lon="10.759140034205371"><ele>103.0</ele><time>2026-05-02T07:17:09Z</time></trkpt><trkpt lat="45.432807291525556" lon="10.759252419243387"><ele>103.0</ele><time>2026-05-02T07:17:10Z</time></trkpt><trkpt lat="45.43293648789112" lon="10.759365311968674"><ele>103.0</ele><time>2026-05-02T07:17:11Z</time></trkpt><trkpt lat="45.43307181974602" lon="10.75948213733893"><ele>103.0</ele><time>2026-05-02T07:17:12Z</time></trkpt><trkpt lat="45.433206069829374" lon="10.759598537730158"><ele>103.0</ele><time>2026-05-02T07:17:13Z</time></trkpt><trkpt lat="45.43333521033255" lon="10.759716488922567"><ele>103.0</ele><time>2026-05-02T07:17:14Z</time></trkpt><trkpt lat="45.43346023416665" lon="10.759827011534208"><ele>103.0</ele><time>2026-05-02T07:17:15Z</time></trkpt><trkpt lat="45.43358631294206" lon="10.759924106751848"><ele>103.0</ele><time>2026-05-02T07:17:16Z</time></trkpt><trkpt lat="45.43371867205363" lon="10.759994694427961"><ele>103.0</ele><time>2026-05-02T07:17:17Z</time></trkpt><trkpt lat="45.433857415292955" lon="10.76003794314781"><ele>103.0</ele><time>2026-05-02T07:17:18Z</time></trkpt><trkpt lat="45.43400704104684" lon="10.760060205157448"><ele>103.33333333333334</ele><time>2026-05-02T07:17:19Z</time></trkpt><trkpt lat="45.43416549446273" lon="10.76006451812886"><ele>103.66666666666666</ele><time>2026-05-02T07:17:20Z</time></trkpt><trkpt lat="45.43433474591398" lon="10.760049984361675"><ele>104.0</ele><time>2026-05-02T07:17:21Z</time></trkpt><trkpt lat="45.43450802454344" lon="10.76003268848245"><ele>104.66666666666666</ele><time>2026-05-02T07:17:22Z</time></trkpt><trkpt lat="45.434684558977594" lon="10.760015069385684"><ele>105.33333333333334</ele><time>2026-05-02T07:17:23Z</time></trkpt><trkpt lat="45.43485781570558" lon="10.76000251442413"><ele>106.0</ele><time>2026-05-02T07:17:24Z</time></trkpt><trkpt lat="45.43502713461397" lon="10.760010689327464"><ele>106.0</ele><time>2026-05-02T07:17:25Z</time></trkpt><trkpt lat="45.435188531234076" lon="10.760039452037077"><ele>106.0</ele><time>2026-05-02T07:17:26Z</time></trkpt><trkpt lat="45.43534698430178" lon="10.760076482011657"><ele>106.0</ele><time>2026-05-02T07:17:27Z</time></trkpt><trkpt lat="45.43549903508758" lon="10.760113301555394"><ele>106.0</ele><time>2026-05-02T07:17:28Z</time></trkpt><trkpt lat="45.435655265668345" lon="10.760145815238042"><ele>106.0</ele><time>2026-05-02T07:17:29Z</time></trkpt><trkpt lat="45.43580037896455" lon="10.760166104173996"><ele>106.0</ele><time>2026-05-02T07:17:30Z</time></trkpt><trkpt lat="45.435937965626984" lon="10.76017534858007"><ele>106.0</ele><time>2026-05-02T07:17:31Z</time></trkpt><trkpt lat="45.43606814728793" lon="10.760173060057285"><ele>106.0</ele><time>2026-05-02T07:17:32Z</time></trkpt><trkpt lat="45.436190174797154" lon="10.760161046513664"><ele>106.0</ele><time>2026-05-02T07:17:33Z</time></trkpt><trkpt lat="45.43630639051954" lon="10.760149109811827"><ele>106.0</ele><time>2026-05-02T07:17:34Z</time></trkpt><trkpt lat="45.43641824093064" lon="10.760135934763952"><ele>106.0</ele><time>2026-05-02T07:17:35Z</time></trkpt><trkpt lat="45.436531625369184" lon="10.760118833523657"><ele>105.5</ele><time>2026-05-02T07:17:36Z</time></trkpt><trkpt lat="45.436649160649296" lon="10.76009981501596"><ele>105.0</ele><time>2026-05-02T07:17:37Z</time></trkpt><trkpt lat="45.436768964703965" lon="10.760082715379538"><ele>104.5</ele><time>2026-05-02T07:17:38Z</time></trkpt><trkpt lat="45.436887034888144" lon="10.760071259346013"><ele>104.0</ele><time>2026-05-02T07:17:39Z</time></trkpt><trkpt lat="45.436995054666404" lon="10.760060018919154"><ele>104.0</ele><time>2026-05-02T07:17:40Z</time></trkpt><trkpt lat="45.43709666486136" lon="10.760052544541312"><ele>104.0</ele><time>2026-05-02T07:17:41Z</time></trkpt><trkpt lat="45.43719199146081" lon="10.760055662271773"><ele>104.0</ele><time>2026-05-02T07:17:42Z</time></trkpt><trkpt lat="45.43728891664616" lon="10.760064926107736"><ele>104.0</ele><time>2026-05-02T07:17:43Z</time></trkpt><trkpt lat="45.437383650954295" lon="10.760086686251675"><ele>104.0</ele><time>2026-05-02T07:17:44Z</time></trkpt><trkpt lat="45.43747088885653" lon="10.760122557789385"><ele>104.16666666666666</ele><time>2026-05-02T07:17:45Z</time></trkpt><trkpt lat="45.437562342760266" lon="10.760162381999569"><ele>104.33333333333333</ele><time>2026-05-02T07:17:46Z</time></trkpt><trkpt lat="45.43765523024262" lon="10.760205446596375"><ele>104.5</ele><time>2026-05-02T07:17:47Z</time></trkpt><trkpt lat="45.43773693115569" lon="10.76024951050231"><ele>104.66666666666666</ele><time>2026-05-02T07:17:48Z</time></trkpt><trkpt lat="45.437806601007416" lon="10.760288830078755"><ele>104.83333333333333</ele><time>2026-05-02T07:17:49Z</time></trkpt><trkpt lat="45.43785904631134" lon="10.760342348587272"><ele>105.0</ele><time>2026-05-02T07:17:50Z</time></trkpt><trkpt lat="45.43794673674209" lon="10.760399075545406"><ele>104.5</ele><time>2026-05-02T07:17:52Z</time></trkpt><trkpt lat="45.43800678249637" lon="10.76043845353277"><ele>104.0</ele><time>2026-05-02T07:17:54Z</time></trkpt><trkpt lat="45.43806590755377" lon="10.760474107481006"><ele>103.5</ele><time>2026-05-02T07:17:56Z</time></trkpt><trkpt lat="45.43813027220286" lon="10.76053689257113"><ele>103.0</ele><time>2026-05-02T07:17:59Z</time></trkpt><trkpt lat="45.438214114305296" lon="10.760661843888277"><ele>102.5</ele><time>2026-05-02T07:18:01Z</time></trkpt><trkpt lat="45.43826512904105" lon="10.760735212667237"><ele>102.0</ele><time>2026-05-02T07:18:02Z</time></trkpt><trkpt lat="45.4383125583404" lon="10.760806626048927"><ele>102.0</ele><time>2026-05-02T07:18:03Z</time></trkpt><trkpt lat="45.43835126721574" lon="10.760894592113434"><ele>102.0</ele><time>2026-05-02T07:18:04Z</time></trkpt><trkpt lat="45.43837426925922" lon="10.761004200400176"><ele>102.0</ele><time>2026-05-02T07:18:05Z</time></trkpt><trkpt lat="45.438382042333906" lon="10.761117864608488"><ele>102.0</ele><time>2026-05-02T07:18:06Z</time></trkpt><trkpt lat="45.438387896277135" lon="10.761251807466456"><ele>102.0</ele><time>2026-05-02T07:18:07Z</time></trkpt><trkpt lat="45.43839801267474" lon="10.761403972227969"><ele>102.0</ele><time>2026-05-02T07:18:08Z</time></trkpt><trkpt lat="45.438406879194275" lon="10.761563201095862"><ele>102.0</ele><time>2026-05-02T07:18:09Z</time></trkpt><trkpt lat="45.43841703480352" lon="10.761723660065286"><ele>102.0</ele><time>2026-05-02T07:18:10Z</time></trkpt><trkpt lat="45.43842742288997" lon="10.761887870472863"><ele>102.0</ele><time>2026-05-02T07:18:11Z</time></trkpt><trkpt lat="45.438441439732955" lon="10.762055706840178"><ele>102.0</ele><time>2026-05-02T07:18:12Z</time></trkpt><trkpt lat="45.438457138329866" lon="10.76222855477913"><ele>102.0</ele><time>2026-05-02T07:18:13Z</time></trkpt><trkpt lat="45.43847290446406" lon="10.76239424321938"><ele>102.0</ele><time>2026-05-02T07:18:14Z</time></trkpt><trkpt lat="45.4384931868239" lon="10.762554825506484"><ele>102.0</ele><time>2026-05-02T07:18:15Z</time></trkpt><trkpt lat="45.43851578968905" lon="10.762709580354176"><ele>102.0</ele><time>2026-05-02T07:18:16Z</time></trkpt><trkpt lat="45.43853932049386" lon="10.762861906678898"><ele>102.0</ele><time>2026-05-02T07:18:17Z</time></trkpt><trkpt lat="45.43856431825928" lon="10.763014862255739"><ele>102.0</ele><time>2026-05-02T07:18:18Z</time></trkpt><trkpt lat="45.438586961335936" lon="10.76316430863801"><ele>102.0</ele><time>2026-05-02T07:18:19Z</time></trkpt><trkpt lat="45.438609340995846" lon="10.763309102600365"><ele>102.0</ele><time>2026-05-02T07:18:20Z</time></trkpt><trkpt lat="45.438631892827175" lon="10.763451398719472"><ele>102.0</ele><time>2026-05-02T07:18:21Z</time></trkpt><trkpt lat="45.43865352654844" lon="10.763584989859222"><ele>102.0</ele><time>2026-05-02T07:18:22Z</time></trkpt><trkpt lat="45.438675168896054" lon="10.763717479375055"><ele>102.0</ele><time>2026-05-02T07:18:23Z</time></trkpt><trkpt lat="45.438701504530925" lon="10.763866610347796"><ele>102.0</ele><time>2026-05-02T07:18:24Z</time></trkpt><trkpt lat="45.43873259592679" lon="10.76404173248674"><ele>102.0</ele><time>2026-05-02T07:18:25Z</time></trkpt><trkpt lat="45.438772597738726" lon="10.76425687511396"><ele>103.66666666666666</ele><time>2026-05-02T07:18:26Z</time></trkpt><trkpt lat="45.43881602761518" lon="10.76446543994081"><ele>105.33333333333333</ele><time>2026-05-02T07:18:27Z</time></trkpt><trkpt lat="45.43886232654461" lon="10.764682501073015"><ele>107.0</ele><time>2026-05-02T07:18:28Z</time></trkpt><trkpt lat="45.43890885508234" lon="10.764903213744665"><ele>107.0</ele><time>2026-05-02T07:18:29Z</time></trkpt><trkpt lat="45.43895435536844" lon="10.765120038825705"><ele>107.0</ele><time>2026-05-02T07:18:30Z</time></trkpt><trkpt lat="45.43900066550399" lon="10.76533397098414"><ele>107.0</ele><time>2026-05-02T07:18:31Z</time></trkpt><trkpt lat="45.43904915196599" lon="10.765543158623705"><ele>107.5</ele><time>2026-05-02T07:18:32Z</time></trkpt><trkpt lat="45.43909875110002" lon="10.765746211023872"><ele>108.0</ele><time>2026-05-02T07:18:33Z</time></trkpt><trkpt lat="45.43914860222398" lon="10.765938170588255"><ele>108.5</ele><time>2026-05-02T07:18:34Z</time></trkpt><trkpt lat="45.439196261848785" lon="10.766113766815161"><ele>109.0</ele><time>2026-05-02T07:18:35Z</time></trkpt><trkpt lat="45.43924355769624" lon="10.76627663352042"><ele>109.75</ele><time>2026-05-02T07:18:36Z</time></trkpt><trkpt lat="45.439292018206935" lon="10.766434523282978"><ele>110.5</ele><time>2026-05-02T07:18:37Z</time></trkpt><trkpt lat="45.43932634257057" lon="10.766605509123657"><ele>111.25</ele><time>2026-05-02T07:18:38Z</time></trkpt><trkpt lat="45.43937922554317" lon="10.766763766290916"><ele>112.0</ele><time>2026-05-02T07:18:39Z</time></trkpt><trkpt lat="45.439431551195504" lon="10.766919200237103"><ele>112.19999999999999</ele><time>2026-05-02T07:18:40Z</time></trkpt><trkpt lat="45.439486831660915" lon="10.76706163472762"><ele>112.39999999999999</ele><time>2026-05-02T07:18:41Z</time></trkpt><trkpt lat="45.439539181461114" lon="10.767188393750564"><ele>112.60000000000001</ele><time>2026-05-02T07:18:41.999Z</time></trkpt><trkpt lat="45.439586708493444" lon="10.767302397828946"><ele>112.80000000000001</ele><time>2026-05-02T07:18:42.999Z</time></trkpt><trkpt lat="45.43962845262742" lon="10.767405233858359"><ele>113.0</ele><time>2026-05-02T07:18:43.999Z</time></trkpt><trkpt lat="45.439660242365015" lon="10.767483547276854"><ele>114.0</ele><time>2026-05-02T07:18:44.999Z</time></trkpt><trkpt lat="45.43970455819287" lon="10.767592718917523"><ele>115.00000000000001</ele><time>2026-05-02T07:18:46.999Z</time></trkpt><trkpt lat="45.43975849148484" lon="10.767726900959834"><ele>116.00000000000001</ele><time>2026-05-02T07:18:48.999Z</time></trkpt><trkpt lat="45.43979182429202" lon="10.767810292258027"><ele>117.0</ele><time>2026-05-02T07:18:49.999Z</time></trkpt><trkpt lat="45.43982415844043" lon="10.76789118733653"><ele>118.0</ele><time>2026-05-02T07:18:50.999Z</time></trkpt><trkpt lat="45.43997853754385" lon="10.767869055219364"><ele>118.25</ele><time>2026-05-02T07:18:51.999Z</time></trkpt><trkpt lat="45.44010483435255" lon="10.767881386455304"><ele>118.5</ele><time>2026-05-02T07:18:52.999Z</time></trkpt><trkpt lat="45.44024156683327" lon="10.767899505166602"><ele>118.75</ele><time>2026-05-02T07:18:54Z</time></trkpt><trkpt lat="45.44040036831413" lon="10.767937146998854"><ele>119.0</ele><time>2026-05-02T07:18:55Z</time></trkpt><trkpt lat="45.44055858094045" lon="10.767981787277042"><ele>119.66666666666666</ele><time>2026-05-02T07:18:56Z</time></trkpt><trkpt lat="45.44071687497931" lon="10.768027956015828"><ele>120.33333333333334</ele><time>2026-05-02T07:18:57Z</time></trkpt><trkpt lat="45.440883959318704" lon="10.768081101329868"><ele>121.0</ele><time>2026-05-02T07:18:58Z</time></trkpt><trkpt lat="45.441055303889556" lon="10.768131694054274"><ele>121.0</ele><time>2026-05-02T07:18:59Z</time></trkpt><trkpt lat="45.44122963322058" lon="10.76818176429359"><ele>121.0</ele><time>2026-05-02T07:19:00Z</time></trkpt><trkpt lat="45.441412734067676" lon="10.768227881039204"><ele>121.0</ele><time>2026-05-02T07:19:01Z</time></trkpt><trkpt lat="45.44159828091458" lon="10.768277980332812"><ele>120.66666666666667</ele><time>2026-05-02T07:19:02Z</time></trkpt><trkpt lat="45.4417907143702" lon="10.76832320982122"><ele>120.33333333333334</ele><time>2026-05-02T07:19:03Z</time></trkpt><trkpt lat="45.44199281570728" lon="10.76834632955693"><ele>120.0</ele><time>2026-05-02T07:19:04Z</time></trkpt><trkpt lat="45.44221661680549" lon="10.768337572096733"><ele>119.5</ele><time>2026-05-02T07:19:05Z</time></trkpt><trkpt lat="45.44248383737519" lon="10.76830953823988"><ele>119.0</ele><time>2026-05-02T07:19:06Z</time></trkpt><trkpt lat="45.44277398045818" lon="10.768276190428695"><ele>117.0</ele><time>2026-05-02T07:19:07Z</time></trkpt><trkpt lat="45.44306615422585" lon="10.768240854502677"><ele>115.0</ele><time>2026-05-02T07:19:08Z</time></trkpt><trkpt lat="45.44335186044476" lon="10.76820681530971"><ele>115.0</ele><time>2026-05-02T07:19:09Z</time></trkpt><trkpt lat="45.4436391815481" lon="10.768192042441937"><ele>115.0</ele><time>2026-05-02T07:19:10Z</time></trkpt><trkpt lat="45.44386787785775" lon="10.76816240258319"><ele>115.5</ele><time>2026-05-02T07:19:11Z</time></trkpt><trkpt lat="45.44411393497093" lon="10.768143084002483"><ele>116.0</ele><time>2026-05-02T07:19:12Z</time></trkpt><trkpt lat="45.44434867922315" lon="10.76812325673789"><ele>116.0</ele><time>2026-05-02T07:19:13Z</time></trkpt><trkpt lat="45.444585016765906" lon="10.768100151393826"><ele>116.0</ele><time>2026-05-02T07:19:14Z</time></trkpt><trkpt lat="45.4448177957444" lon="10.768079635690146"><ele>116.0</ele><time>2026-05-02T07:19:15Z</time></trkpt><trkpt lat="45.445034902135454" lon="10.768058626282565"><ele>116.0</ele><time>2026-05-02T07:19:16Z</time></trkpt><trkpt lat="45.44523926363251" lon="10.768032926346214"><ele>116.0</ele><time>2026-05-02T07:19:17Z</time></trkpt><trkpt lat="45.445434244398996" lon="10.7680108736006"><ele>115.33333333333333</ele><time>2026-05-02T07:19:18Z</time></trkpt><trkpt lat="45.44562390244538" lon="10.767992586676145"><ele>114.66666666666666</ele><time>2026-05-02T07:19:19Z</time></trkpt><trkpt lat="45.445801369387674" lon="10.7679826902544"><ele>114.0</ele><time>2026-05-02T07:19:20Z</time></trkpt><trkpt lat="45.44598164564605" lon="10.767987461758523"><ele>114.0</ele><time>2026-05-02T07:19:21Z</time></trkpt><trkpt lat="45.446166223199924" lon="10.768012176519255"><ele>114.0</ele><time>2026-05-02T07:19:22Z</time></trkpt><trkpt lat="45.44635842413643" lon="10.768065773270528"><ele>114.0</ele><time>2026-05-02T07:19:23Z</time></trkpt><trkpt lat="45.44655540425083" lon="10.768147770850275"><ele>113.0</ele><time>2026-05-02T07:19:24Z</time></trkpt><trkpt lat="45.446768562187884" lon="10.768247942934076"><ele>112.0</ele><time>2026-05-02T07:19:25Z</time></trkpt><trkpt lat="45.4469781736932" lon="10.768389101160912"><ele>113.0</ele><time>2026-05-02T07:19:26Z</time></trkpt><trkpt lat="45.447188197975514" lon="10.7685169148722"><ele>114.0</ele><time>2026-05-02T07:19:27Z</time></trkpt><trkpt lat="45.447405284578146" lon="10.76862935768178"><ele>114.5</ele><time>2026-05-02T07:19:28Z</time></trkpt><trkpt lat="45.44761922611337" lon="10.768782261600016"><ele>115.0</ele><time>2026-05-02T07:19:29Z</time></trkpt><trkpt lat="45.447839716036555" lon="10.7689324563497"><ele>114.5</ele><time>2026-05-02T07:19:30Z</time></trkpt><trkpt lat="45.448045662197664" lon="10.769083004050712"><ele>114.0</ele><time>2026-05-02T07:19:31Z</time></trkpt><trkpt lat="45.448244673642286" lon="10.769236907782417"><ele>113.5</ele><time>2026-05-02T07:19:32Z</time></trkpt><trkpt lat="45.44844315280078" lon="10.769418039468999"><ele>113.0</ele><time>2026-05-02T07:19:33Z</time></trkpt><trkpt lat="45.44863196168831" lon="10.769611870767227"><ele>113.66666666666666</ele><time>2026-05-02T07:19:34Z</time></trkpt><trkpt lat="45.44880095540805" lon="10.769809635772626"><ele>114.33333333333334</ele><time>2026-05-02T07:19:35Z</time></trkpt><trkpt lat="45.448952380769526" lon="10.770003381215146"><ele>115.0</ele><time>2026-05-02T07:19:36Z</time></trkpt><trkpt lat="45.44908121244235" lon="10.770197399711051"><ele>115.0</ele><time>2026-05-02T07:19:37Z</time></trkpt><trkpt lat="45.4491933471874" lon="10.770389734825418"><ele>115.0</ele><time>2026-05-02T07:19:38Z</time></trkpt><trkpt lat="45.44929633358336" lon="10.770575213872917"><ele>115.0</ele><time>2026-05-02T07:19:39Z</time></trkpt><trkpt lat="45.449387184647705" lon="10.770746695373235"><ele>115.0</ele><time>2026-05-02T07:19:40Z</time></trkpt><trkpt lat="45.44947330083602" lon="10.770929225174477"><ele>115.0</ele><time>2026-05-02T07:19:41Z</time></trkpt><trkpt lat="45.44955633435338" lon="10.771129042265766"><ele>115.0</ele><time>2026-05-02T07:19:42Z</time></trkpt><trkpt lat="45.44963625687274" lon="10.771338223288739"><ele>114.66666666666667</ele><time>2026-05-02T07:19:43Z</time></trkpt><trkpt lat="45.44970795807041" lon="10.771542921454536"><ele>114.33333333333334</ele><time>2026-05-02T07:19:44Z</time></trkpt><trkpt lat="45.44976718710214" lon="10.77173858348014"><ele>114.0</ele><time>2026-05-02T07:19:45Z</time></trkpt><trkpt lat="45.449822140043956" lon="10.7719273581067"><ele>114.5</ele><time>2026-05-02T07:19:46Z</time></trkpt><trkpt lat="45.44987198045739" lon="10.772117863901665"><ele>115.0</ele><time>2026-05-02T07:19:47Z</time></trkpt><trkpt lat="45.44992450722776" lon="10.772302414691474"><ele>115.5</ele><time>2026-05-02T07:19:48Z</time></trkpt><trkpt lat="45.44998821242244" lon="10.772488623110743"><ele>116.0</ele><time>2026-05-02T07:19:49Z</time></trkpt><trkpt lat="45.45006239075862" lon="10.772676900112511"><ele>116.0</ele><time>2026-05-02T07:19:50Z</time></trkpt><trkpt lat="45.450144515523725" lon="10.772870844102505"><ele>116.0</ele><time>2026-05-02T07:19:51Z</time></trkpt><trkpt lat="45.450225294608735" lon="10.77307976126239"><ele>116.0</ele><time>2026-05-02T07:19:52Z</time></trkpt><trkpt lat="45.450346245107724" lon="10.77325500058134"><ele>116.66666666666666</ele><time>2026-05-02T07:19:53Z</time></trkpt><trkpt lat="45.450469691933094" lon="10.773440182538351"><ele>117.33333333333334</ele><time>2026-05-02T07:19:54Z</time></trkpt><trkpt lat="45.450620524735776" lon="10.773623733334713"><ele>118.0</ele><time>2026-05-02T07:19:55Z</time></trkpt><trkpt lat="45.450790196923435" lon="10.773841279452354"><ele>118.0</ele><time>2026-05-02T07:19:56Z</time></trkpt><trkpt lat="45.450971070071624" lon="10.774054870024663"><ele>118.0</ele><time>2026-05-02T07:19:57Z</time></trkpt><trkpt lat="45.451141595823806" lon="10.77425624150099"><ele>118.0</ele><time>2026-05-02T07:19:58Z</time></trkpt><trkpt lat="45.45128473200463" lon="10.77442231295994"><ele>118.0</ele><time>2026-05-02T07:19:59Z</time></trkpt><trkpt lat="45.45141857469555" lon="10.774535978608116"><ele>118.0</ele><time>2026-05-02T07:20:00Z</time></trkpt><trkpt lat="45.451521753742554" lon="10.774664696233996"><ele>118.0</ele><time>2026-05-02T07:20:01Z</time></trkpt><trkpt lat="45.45161578363874" lon="10.774781592910031"><ele>118.0</ele><time>2026-05-02T07:20:02Z</time></trkpt><trkpt lat="45.45171765466997" lon="10.774900755369913"><ele>118.0</ele><time>2026-05-02T07:20:03Z</time></trkpt><trkpt lat="45.45181992163849" lon="10.775020151703947"><ele>118.0</ele><time>2026-05-02T07:20:04Z</time></trkpt><trkpt lat="45.45192697927814" lon="10.77514201966382"><ele>118.0</ele><time>2026-05-02T07:20:05Z</time></trkpt><trkpt lat="45.452043138889046" lon="10.775265876259565"><ele>118.0</ele><time>2026-05-02T07:20:06Z</time></trkpt><trkpt lat="45.45219491431579" lon="10.775416460958754"><ele>118.0</ele><time>2026-05-02T07:20:07Z</time></trkpt><trkpt lat="45.45232659700071" lon="10.775555567032617"><ele>118.00000000000001</ele><time>2026-05-02T07:20:08Z</time></trkpt><trkpt lat="45.45242751167578" lon="10.775660857986248"><ele>118.0</ele><time>2026-05-02T07:20:09Z</time></trkpt><trkpt lat="45.45250017699285" lon="10.775740963868394"><ele>118.0</ele><time>2026-05-02T07:20:10Z</time></trkpt><trkpt lat="45.4525545641213" lon="10.775824316204504"><ele>118.0</ele><time>2026-05-02T07:20:11Z</time></trkpt><trkpt lat="45.452590414254004" lon="10.775916290942943"><ele>118.00000000000001</ele><time>2026-05-02T07:20:12Z</time></trkpt><trkpt lat="45.452629874169126" lon="10.776007976132464"><ele>118.0</ele><time>2026-05-02T07:20:13Z</time></trkpt><trkpt lat="45.45269492938325" lon="10.776075934611047"><ele>118.33333333333334</ele><time>2026-05-02T07:20:14Z</time></trkpt><trkpt lat="45.45279533983834" lon="10.776161131750712"><ele>118.66666666666666</ele><time>2026-05-02T07:20:15Z</time></trkpt><trkpt lat="45.45292161678381" lon="10.776292021801016"><ele>119.0</ele><time>2026-05-02T07:20:16Z</time></trkpt><trkpt lat="45.45306707322435" lon="10.77647083105257"><ele>118.66666666666666</ele><time>2026-05-02T07:20:17Z</time></trkpt><trkpt lat="45.453221101392174" lon="10.776657718505904"><ele>118.33333333333334</ele><time>2026-05-02T07:20:18Z</time></trkpt><trkpt lat="45.453382254176354" lon="10.776844144306539"><ele>118.0</ele><time>2026-05-02T07:20:19Z</time></trkpt><trkpt lat="45.45356008113966" lon="10.777049205951744"><ele>118.0</ele><time>2026-05-02T07:20:20Z</time></trkpt><trkpt lat="45.4537537543764" lon="10.77725666839123"><ele>118.0</ele><time>2026-05-02T07:20:21Z</time></trkpt><trkpt lat="45.45396054362119" lon="10.777448202826662"><ele>118.0</ele><time>2026-05-02T07:20:22Z</time></trkpt><trkpt lat="45.45419745528101" lon="10.77763160921409"><ele>118.0</ele><time>2026-05-02T07:20:23Z</time></trkpt><trkpt lat="45.45445817939826" lon="10.777810161408674"><ele>119.0</ele><time>2026-05-02T07:20:24Z</time></trkpt><trkpt lat="45.45472785627557" lon="10.777973791957493"><ele>120.0</ele><time>2026-05-02T07:20:25Z</time></trkpt><trkpt lat="45.45499625258776" lon="10.7781301185595"><ele>120.0</ele><time>2026-05-02T07:20:26Z</time></trkpt><trkpt lat="45.45527135697153" lon="10.778283023729081"><ele>120.0</ele><time>2026-05-02T07:20:27Z</time></trkpt><trkpt lat="45.455546809488844" lon="10.77843552247173"><ele>121.0</ele><time>2026-05-02T07:20:28Z</time></trkpt><trkpt lat="45.45582815790161" lon="10.778597156030468"><ele>122.0</ele><time>2026-05-02T07:20:29Z</time></trkpt><trkpt lat="45.45609928813752" lon="10.778755989864589"><ele>124.0</ele><time>2026-05-02T07:20:30Z</time></trkpt><trkpt lat="45.456350698324535" lon="10.778901652253788"><ele>126.0</ele><time>2026-05-02T07:20:31Z</time></trkpt><trkpt lat="45.45658413377526" lon="10.779037004555404"><ele>126.0</ele><time>2026-05-02T07:20:32Z</time></trkpt><trkpt lat="45.45679967839626" lon="10.779165713009348"><ele>126.0</ele><time>2026-05-02T07:20:33Z</time></trkpt><trkpt lat="45.457003582874684" lon="10.779285677409796"><ele>127.33333333333334</ele><time>2026-05-02T07:20:34Z</time></trkpt><trkpt lat="45.457210748161074" lon="10.779410143614891"><ele>128.66666666666669</ele><time>2026-05-02T07:20:35Z</time></trkpt><trkpt lat="45.45740931365629" lon="10.779526916240476"><ele>130.0</ele><time>2026-05-02T07:20:36Z</time></trkpt><trkpt lat="45.457601263189495" lon="10.779638759567975"><ele>130.0</ele><time>2026-05-02T07:20:37Z</time></trkpt><trkpt lat="45.45778178050164" lon="10.77974628415632"><ele>130.0</ele><time>2026-05-02T07:20:38Z</time></trkpt><trkpt lat="45.457955074476274" lon="10.77985283837021"><ele>130.0</ele><time>2026-05-02T07:20:39Z</time></trkpt><trkpt lat="45.45811976636245" lon="10.779961798169534"><ele>131.0</ele><time>2026-05-02T07:20:40Z</time></trkpt><trkpt lat="45.45825385467984" lon="10.780125294479637"><ele>132.0</ele><time>2026-05-02T07:20:41Z</time></trkpt><trkpt lat="45.45839155588141" lon="10.780289702585092"><ele>133.0</ele><time>2026-05-02T07:20:42Z</time></trkpt><trkpt lat="45.45853642551037" lon="10.780465290601082"><ele>134.0</ele><time>2026-05-02T07:20:43Z</time></trkpt><trkpt lat="45.458686075662115" lon="10.780625825049288"><ele>135.0</ele><time>2026-05-02T07:20:44Z</time></trkpt><trkpt lat="45.458828005770535" lon="10.780790094529145"><ele>136.0</ele><time>2026-05-02T07:20:45Z</time></trkpt><trkpt lat="45.45895848811964" lon="10.78094270711279"><ele>135.5</ele><time>2026-05-02T07:20:46Z</time></trkpt><trkpt lat="45.459073554702634" lon="10.781088334931562"><ele>135.0</ele><time>2026-05-02T07:20:47Z</time></trkpt><trkpt lat="45.45918424309957" lon="10.781225205256003"><ele>134.5</ele><time>2026-05-02T07:20:48Z</time></trkpt><trkpt lat="45.45928959486216" lon="10.781343043868345"><ele>134.0</ele><time>2026-05-02T07:20:49Z</time></trkpt><trkpt lat="45.45939017904145" lon="10.78145621303966"><ele>134.0</ele><time>2026-05-02T07:20:50Z</time></trkpt><trkpt lat="45.45948706254559" lon="10.78156182989982"><ele>134.0</ele><time>2026-05-02T07:20:51Z</time></trkpt><trkpt lat="45.459577103531295" lon="10.7816627995131"><ele>134.0</ele><time>2026-05-02T07:20:52Z</time></trkpt><trkpt lat="45.45965412375674" lon="10.781764604504271"><ele>134.0</ele><time>2026-05-02T07:20:53Z</time></trkpt><trkpt lat="45.45970375179344" lon="10.781868649185965"><ele>134.0</ele><time>2026-05-02T07:20:54Z</time></trkpt><trkpt lat="45.459727053331285" lon="10.78196435560738"><ele>135.75</ele><time>2026-05-02T07:20:55Z</time></trkpt><trkpt lat="45.459806915388434" lon="10.782076417687556"><ele>137.5</ele><time>2026-05-02T07:20:57Z</time></trkpt><trkpt lat="45.45989797064777" lon="10.782109710442729"><ele>139.25</ele><time>2026-05-02T07:20:58Z</time></trkpt><trkpt lat="45.45999687496821" lon="10.782195844434204"><ele>141.0</ele><time>2026-05-02T07:20:59Z</time></trkpt><trkpt lat="45.46011564935754" lon="10.782327580508232"><ele>141.0</ele><time>2026-05-02T07:21:00Z</time></trkpt><trkpt lat="45.46021691019127" lon="10.782504750614782"><ele>141.0</ele><time>2026-05-02T07:21:01Z</time></trkpt><trkpt lat="45.46031248584606" lon="10.782705348586033"><ele>141.0</ele><time>2026-05-02T07:21:02Z</time></trkpt><trkpt lat="45.46039455621686" lon="10.782900957299944"><ele>142.5</ele><time>2026-05-02T07:21:03Z</time></trkpt><trkpt lat="45.46047926799295" lon="10.783067678728253"><ele>144.0</ele><time>2026-05-02T07:21:04Z</time></trkpt><trkpt lat="45.460535776727234" lon="10.78322874621484"><ele>145.5</ele><time>2026-05-02T07:21:05Z</time></trkpt><trkpt lat="45.46059340396361" lon="10.783391039508931"><ele>147.0</ele><time>2026-05-02T07:21:06Z</time></trkpt><trkpt lat="45.46065871573859" lon="10.783568037178977"><ele>147.0</ele><time>2026-05-02T07:21:07Z</time></trkpt><trkpt lat="45.46073064523707" lon="10.783759262719418"><ele>147.0</ele><time>2026-05-02T07:21:08Z</time></trkpt><trkpt lat="45.46078557884721" lon="10.783970836780496"><ele>147.0</ele><time>2026-05-02T07:21:09Z</time></trkpt><trkpt lat="45.46086629107619" lon="10.784191528269341"><ele>147.33333333333334</ele><time>2026-05-02T07:21:10Z</time></trkpt><trkpt lat="45.460948704804494" lon="10.784411456781035"><ele>147.66666666666669</ele><time>2026-05-02T07:21:11Z</time></trkpt><trkpt lat="45.46104156375315" lon="10.784609130495875"><ele>148.0</ele><time>2026-05-02T07:21:12Z</time></trkpt><trkpt lat="45.46111577572917" lon="10.78478967550615"><ele>148.0</ele><time>2026-05-02T07:21:13Z</time></trkpt><trkpt lat="45.4611983519286" lon="10.78494628969961"><ele>148.0</ele><time>2026-05-02T07:21:14Z</time></trkpt><trkpt lat="45.46129583660724" lon="10.785086366992815"><ele>148.0</ele><time>2026-05-02T07:21:15Z</time></trkpt><trkpt lat="45.461395629725835" lon="10.78522320930291"><ele>148.0</ele><time>2026-05-02T07:21:16Z</time></trkpt><trkpt lat="45.46149833678289" lon="10.78536023242287"><ele>149.0</ele><time>2026-05-02T07:21:17Z</time></trkpt><trkpt lat="45.46160917377666" lon="10.785508858092934"><ele>150.0</ele><time>2026-05-02T07:21:18Z</time></trkpt><trkpt lat="45.46172283755632" lon="10.785664281332869"><ele>151.0</ele><time>2026-05-02T07:21:19Z</time></trkpt><trkpt lat="45.46184025651106" lon="10.78583108914306"><ele>151.0</ele><time>2026-05-02T07:21:20Z</time></trkpt><trkpt lat="45.461963580243825" lon="10.786003487940716"><ele>151.0</ele><time>2026-05-02T07:21:21Z</time></trkpt><trkpt lat="45.46209058331729" lon="10.786178227909424"><ele>151.0</ele><time>2026-05-02T07:21:22Z</time></trkpt><trkpt lat="45.46221163914642" lon="10.786345982950488"><ele>151.33333333333334</ele><time>2026-05-02T07:21:23Z</time></trkpt><trkpt lat="45.46233140900372" lon="10.78651041476365"><ele>151.66666666666666</ele><time>2026-05-02T07:21:24Z</time></trkpt><trkpt lat="45.46245079888305" lon="10.786678257643734"><ele>152.0</ele><time>2026-05-02T07:21:25Z</time></trkpt><trkpt lat="45.46257471837976" lon="10.786847242897332"><ele>153.0</ele><time>2026-05-02T07:21:26Z</time></trkpt><trkpt lat="45.462694692647624" lon="10.787014259020532"><ele>154.0</ele><time>2026-05-02T07:21:27Z</time></trkpt><trkpt lat="45.46280763090651" lon="10.787173030301354"><ele>155.0</ele><time>2026-05-02T07:21:28Z</time></trkpt><trkpt lat="45.46291802653856" lon="10.78732566621006"><ele>154.75</ele><time>2026-05-02T07:21:29Z</time></trkpt><trkpt lat="45.463023879481455" lon="10.7874717321514"><ele>154.5</ele><time>2026-05-02T07:21:30Z</time></trkpt><trkpt lat="45.46312444416007" lon="10.787607574481164"><ele>154.25</ele><time>2026-05-02T07:21:31Z</time></trkpt><trkpt lat="45.46322685787428" lon="10.787743231486795"><ele>154.0</ele><time>2026-05-02T07:21:32Z</time></trkpt><trkpt lat="45.463325364925105" lon="10.787880008208722"><ele>155.25</ele><time>2026-05-02T07:21:33Z</time></trkpt><trkpt lat="45.46341856450375" lon="10.788016195229286"><ele>156.5</ele><time>2026-05-02T07:21:34Z</time></trkpt><trkpt lat="45.46350781611409" lon="10.788154382529179"><ele>157.75</ele><time>2026-05-02T07:21:35Z</time></trkpt><trkpt lat="45.463589813875004" lon="10.788293950364384"><ele>159.0</ele><time>2026-05-02T07:21:36Z</time></trkpt><trkpt lat="45.46366447281738" lon="10.7884356702991"><ele>158.75</ele><time>2026-05-02T07:21:37Z</time></trkpt><trkpt lat="45.463738648474674" lon="10.788581645402427"><ele>158.5</ele><time>2026-05-02T07:21:38Z</time></trkpt><trkpt lat="45.46381497498054" lon="10.788736604090834"><ele>158.25</ele><time>2026-05-02T07:21:39Z</time></trkpt><trkpt lat="45.463892140915625" lon="10.788902753994916"><ele>158.0</ele><time>2026-05-02T07:21:40Z</time></trkpt><trkpt lat="45.4639867382108" lon="10.789063255129141"><ele>158.0</ele><time>2026-05-02T07:21:41Z</time></trkpt><trkpt lat="45.46410584800822" lon="10.789205859977285"><ele>158.0</ele><time>2026-05-02T07:21:42Z</time></trkpt><trkpt lat="45.464228969039745" lon="10.789338127706824"><ele>158.0</ele><time>2026-05-02T07:21:43Z</time></trkpt><trkpt lat="45.464334367063536" lon="10.789470416109076"><ele>157.66666666666666</ele><time>2026-05-02T07:21:44Z</time></trkpt><trkpt lat="45.464434732243255" lon="10.789619654490558"><ele>157.33333333333334</ele><time>2026-05-02T07:21:45Z</time></trkpt><trkpt lat="45.46453081030723" lon="10.789799194971886"><ele>157.0</ele><time>2026-05-02T07:21:46Z</time></trkpt><trkpt lat="45.46461888335529" lon="10.78998304208327"><ele>156.0</ele><time>2026-05-02T07:21:47Z</time></trkpt><trkpt lat="45.464707223213786" lon="10.790171848749317"><ele>155.0</ele><time>2026-05-02T07:21:48Z</time></trkpt><trkpt lat="45.46479626566446" lon="10.790364646822377"><ele>154.0</ele><time>2026-05-02T07:21:49Z</time></trkpt><trkpt lat="45.46489086676199" lon="10.790559062159739"><ele>153.33333333333334</ele><time>2026-05-02T07:21:50Z</time></trkpt><trkpt lat="45.46499127783264" lon="10.790748026563573"><ele>152.66666666666666</ele><time>2026-05-02T07:21:51Z</time></trkpt><trkpt lat="45.46509420221294" lon="10.790928507619032"><ele>152.0</ele><time>2026-05-02T07:21:52Z</time></trkpt><trkpt lat="45.4652052669048" lon="10.79109631183955"><ele>151.25</ele><time>2026-05-02T07:21:53Z</time></trkpt><trkpt lat="45.46532339945414" lon="10.79123751875468"><ele>150.5</ele><time>2026-05-02T07:21:54Z</time></trkpt><trkpt lat="45.46544694902779" lon="10.79135024880349"><ele>149.75</ele><time>2026-05-02T07:21:55Z</time></trkpt><trkpt lat="45.46557614164123" lon="10.791441948672377"><ele>149.0</ele><time>2026-05-02T07:21:56Z</time></trkpt><trkpt lat="45.46572673011042" lon="10.791521552229328"><ele>148.66666666666666</ele><time>2026-05-02T07:21:57Z</time></trkpt><trkpt lat="45.46588472940663" lon="10.79158436079789"><ele>148.33333333333334</ele><time>2026-05-02T07:21:58Z</time></trkpt><trkpt lat="45.46603708358098" lon="10.7916262617398"><ele>148.0</ele><time>2026-05-02T07:21:59Z</time></trkpt><trkpt lat="45.4661782848165" lon="10.791676352175328"><ele>147.5</ele><time>2026-05-02T07:22:00Z</time></trkpt><trkpt lat="45.46631412161092" lon="10.791730650846182"><ele>147.0</ele><time>2026-05-02T07:22:01Z</time></trkpt><trkpt lat="45.46643779841546" lon="10.791792579501374"><ele>146.5</ele><time>2026-05-02T07:22:02Z</time></trkpt><trkpt lat="45.46656109810841" lon="10.791882168423852"><ele>146.0</ele><time>2026-05-02T07:22:03Z</time></trkpt><trkpt lat="45.466695638160864" lon="10.791964077865652"><ele>146.0</ele><time>2026-05-02T07:22:04Z</time></trkpt><trkpt lat="45.46684693450685" lon="10.792060395917225"><ele>146.0</ele><time>2026-05-02T07:22:05Z</time></trkpt><trkpt lat="45.467026783132255" lon="10.792175840081114"><ele>146.0</ele><time>2026-05-02T07:22:06Z</time></trkpt><trkpt lat="45.46723856605342" lon="10.792313671637185"><ele>144.0</ele><time>2026-05-02T07:22:07Z</time></trkpt><trkpt lat="45.46744553138752" lon="10.79245043315036"><ele>142.0</ele><time>2026-05-02T07:22:08Z</time></trkpt><trkpt lat="45.46761113942116" lon="10.792557287926797"><ele>140.0</ele><time>2026-05-02T07:22:09Z</time></trkpt><trkpt lat="45.46775713571753" lon="10.792649771307964"><ele>138.5</ele><time>2026-05-02T07:22:10Z</time></trkpt><trkpt lat="45.467896995474874" lon="10.79273501482272"><ele>137.0</ele><time>2026-05-02T07:22:11Z</time></trkpt><trkpt lat="45.468033520816334" lon="10.792791693042645"><ele>135.5</ele><time>2026-05-02T07:22:12Z</time></trkpt><trkpt lat="45.46817357710478" lon="10.792864482921525"><ele>134.0</ele><time>2026-05-02T07:22:13Z</time></trkpt><trkpt lat="45.468327196294325" lon="10.79291097288573"><ele>132.66666666666666</ele><time>2026-05-02T07:22:14Z</time></trkpt><trkpt lat="45.4684947890518" lon="10.79294283693997"><ele>131.33333333333334</ele><time>2026-05-02T07:22:15Z</time></trkpt><trkpt lat="45.46867135852986" lon="10.7929623678528"><ele>130.0</ele><time>2026-05-02T07:22:16Z</time></trkpt><trkpt lat="45.468851841491976" lon="10.792965278618228"><ele>130.0</ele><time>2026-05-02T07:22:17Z</time></trkpt><trkpt lat="45.46904658663448" lon="10.79294281683762"><ele>130.0</ele><time>2026-05-02T07:22:18Z</time></trkpt><trkpt lat="45.469252883592446" lon="10.79288871068333"><ele>130.0</ele><time>2026-05-02T07:22:19Z</time></trkpt><trkpt lat="45.46947921877026" lon="10.792785624428586"><ele>130.0</ele><time>2026-05-02T07:22:20Z</time></trkpt><trkpt lat="45.46972516521118" lon="10.792649097711724"><ele>130.0</ele><time>2026-05-02T07:22:21Z</time></trkpt><trkpt lat="45.470030149255045" lon="10.792549700509245"><ele>130.0</ele><time>2026-05-02T07:22:22Z</time></trkpt><trkpt lat="45.470363849896415" lon="10.7923912547003"><ele>130.0</ele><time>2026-05-02T07:22:23Z</time></trkpt><trkpt lat="45.47073851989747" lon="10.79225478231309"><ele>129.5</ele><time>2026-05-02T07:22:24Z</time></trkpt><trkpt lat="45.471071963659696" lon="10.792127034532184"><ele>129.0</ele><time>2026-05-02T07:22:25Z</time></trkpt><trkpt lat="45.471369633204624" lon="10.792019993007374"><ele>129.0</ele><time>2026-05-02T07:22:26Z</time></trkpt><trkpt lat="45.47161951192217" lon="10.791945221551542"><ele>129.0</ele><time>2026-05-02T07:22:27Z</time></trkpt><trkpt lat="45.47185761470993" lon="10.791896386396905"><ele>129.0</ele><time>2026-05-02T07:22:28Z</time></trkpt><trkpt lat="45.47209910634806" lon="10.791858794302263"><ele>129.0</ele><time>2026-05-02T07:22:29Z</time></trkpt><trkpt lat="45.47232729272636" lon="10.791829575785355"><ele>129.0</ele><time>2026-05-02T07:22:30Z</time></trkpt><trkpt lat="45.47256292510603" lon="10.791833365125845"><ele>129.0</ele><time>2026-05-02T07:22:31Z</time></trkpt><trkpt lat="45.47282447032987" lon="10.79184638165956"><ele>128.0</ele><time>2026-05-02T07:22:32Z</time></trkpt><trkpt lat="45.47312484789415" lon="10.79186676780832"><ele>127.0</ele><time>2026-05-02T07:22:33Z</time></trkpt><trkpt lat="45.47347170964781" lon="10.791890593285284"><ele>128.5</ele><time>2026-05-02T07:22:34Z</time></trkpt><trkpt lat="45.47385115559256" lon="10.791902879921913"><ele>130.0</ele><time>2026-05-02T07:22:35Z</time></trkpt><trkpt lat="45.47422718161831" lon="10.791936174187576"><ele>130.0</ele><time>2026-05-02T07:22:36Z</time></trkpt><trkpt lat="45.47455053713803" lon="10.791959057493694"><ele>130.0</ele><time>2026-05-02T07:22:37Z</time></trkpt><trkpt lat="45.47484423637893" lon="10.791983864321068"><ele>130.5</ele><time>2026-05-02T07:22:38Z</time></trkpt><trkpt lat="45.475115783211734" lon="10.792004772974263"><ele>131.0</ele><time>2026-05-02T07:22:39Z</time></trkpt><trkpt lat="45.47536862174479" lon="10.792020872971598"><ele>131.0</ele><time>2026-05-02T07:22:40Z</time></trkpt><trkpt lat="45.47561651006157" lon="10.792037064116895"><ele>131.0</ele><time>2026-05-02T07:22:41Z</time></trkpt><trkpt lat="45.47586906052852" lon="10.792055108171544"><ele>131.0</ele><time>2026-05-02T07:22:42Z</time></trkpt><trkpt lat="45.47608286445905" lon="10.792072049044153"><ele>131.0</ele><time>2026-05-02T07:22:43Z</time></trkpt><trkpt lat="45.476268843462215" lon="10.792087186714094"><ele>131.0</ele><time>2026-05-02T07:22:44Z</time></trkpt><trkpt lat="45.47644421331388" lon="10.792108634147898"><ele>130.66666666666666</ele><time>2026-05-02T07:22:45Z</time></trkpt><trkpt lat="45.476635059145984" lon="10.792145464418716"><ele>130.33333333333334</ele><time>2026-05-02T07:22:46Z</time></trkpt><trkpt lat="45.47684177955387" lon="10.79218252868801"><ele>130.0</ele><time>2026-05-02T07:22:47Z</time></trkpt><trkpt lat="45.47707460427499" lon="10.792241803386744"><ele>129.66666666666669</ele><time>2026-05-02T07:22:48Z</time></trkpt><trkpt lat="45.4772955679391" lon="10.792330172559215"><ele>129.33333333333334</ele><time>2026-05-02T07:22:49Z</time></trkpt><trkpt lat="45.477473431872454" lon="10.792415336815486"><ele>129.0</ele><time>2026-05-02T07:22:50Z</time></trkpt><trkpt lat="45.47760714138483" lon="10.792482527671806"><ele>129.0</ele><time>2026-05-02T07:22:51Z</time></trkpt><trkpt lat="45.47771376285246" lon="10.79253966093623"><ele>129.0</ele><time>2026-05-02T07:22:52Z</time></trkpt><trkpt lat="45.47780338466155" lon="10.792604997448864"><ele>129.0</ele><time>2026-05-02T07:22:53Z</time></trkpt><trkpt lat="45.47788429247792" lon="10.792707705752605"><ele>129.0</ele><time>2026-05-02T07:22:54Z</time></trkpt><trkpt lat="45.4779578475032" lon="10.79281351428211"><ele>129.0</ele><time>2026-05-02T07:22:55Z</time></trkpt><trkpt lat="45.47801881365531" lon="10.792891189348808"><ele>129.16666666666666</ele><time>2026-05-02T07:22:56Z</time></trkpt><trkpt lat="45.478094951373535" lon="10.792918146735918"><ele>129.33333333333334</ele><time>2026-05-02T07:22:57Z</time></trkpt><trkpt lat="45.478172834315146" lon="10.792903984346248"><ele>129.5</ele><time>2026-05-02T07:22:58Z</time></trkpt><trkpt lat="45.47824237688207" lon="10.792861922703429"><ele>129.66666666666669</ele><time>2026-05-02T07:22:59Z</time></trkpt><trkpt lat="45.47831418764527" lon="10.792814461627753"><ele>129.83333333333334</ele><time>2026-05-02T07:23:00Z</time></trkpt><trkpt lat="45.47840464977588" lon="10.792780578749708"><ele>130.0</ele><time>2026-05-02T07:23:01Z</time></trkpt><trkpt lat="45.47849658999856" lon="10.792772649480424"><ele>130.0</ele><time>2026-05-02T07:23:02Z</time></trkpt><trkpt lat="45.47857835526049" lon="10.792784608777357"><ele>130.0</ele><time>2026-05-02T07:23:03Z</time></trkpt><trkpt lat="45.47866134286904" lon="10.792813102178778"><ele>130.0</ele><time>2026-05-02T07:23:04Z</time></trkpt><trkpt lat="45.47877054916579" lon="10.792864044267077"><ele>130.0</ele><time>2026-05-02T07:23:05.001Z</time></trkpt><trkpt lat="45.47891033566063" lon="10.79292374799364"><ele>130.0</ele><time>2026-05-02T07:23:06.001Z</time></trkpt><trkpt lat="45.47909024566383" lon="10.79299329986429"><ele>130.0</ele><time>2026-05-02T07:23:07.001Z</time></trkpt><trkpt lat="45.479290383560134" lon="10.793057585919845"><ele>130.0</ele><time>2026-05-02T07:23:08.001Z</time></trkpt><trkpt lat="45.47947354213854" lon="10.793124537948176"><ele>130.0</ele><time>2026-05-02T07:23:09.001Z</time></trkpt><trkpt lat="45.479648075321975" lon="10.793191620653715"><ele>130.33333333333334</ele><time>2026-05-02T07:23:10.001Z</time></trkpt><trkpt lat="45.47983379465412" lon="10.793256680818"><ele>130.66666666666666</ele><time>2026-05-02T07:23:11.001Z</time></trkpt><trkpt lat="45.4800270477189" lon="10.79332273095419"><ele>131.0</ele><time>2026-05-02T07:23:12.001Z</time></trkpt><trkpt lat="45.48021715423402" lon="10.793389725735073"><ele>131.0</ele><time>2026-05-02T07:23:13.001Z</time></trkpt><trkpt lat="45.480407972869465" lon="10.793460992404409"><ele>131.0</ele><time>2026-05-02T07:23:14.001Z</time></trkpt><trkpt lat="45.48060408686393" lon="10.793533688744056"><ele>131.0</ele><time>2026-05-02T07:23:15.001Z</time></trkpt><trkpt lat="45.48080676697519" lon="10.79360848370861"><ele>131.0</ele><time>2026-05-02T07:23:16.001Z</time></trkpt><trkpt lat="45.48100660567899" lon="10.793674174295912"><ele>131.0</ele><time>2026-05-02T07:23:17.001Z</time></trkpt><trkpt lat="45.481207848097654" lon="10.793713045108454"><ele>131.0</ele><time>2026-05-02T07:23:18.001Z</time></trkpt><trkpt lat="45.48141426328799" lon="10.7937334292906"><ele>131.33333333333331</ele><time>2026-05-02T07:23:19.001Z</time></trkpt><trkpt lat="45.481626636862295" lon="10.793735113738165"><ele>131.66666666666666</ele><time>2026-05-02T07:23:20.001Z</time></trkpt><trkpt lat="45.48183976499191" lon="10.793714246859063"><ele>132.0</ele><time>2026-05-02T07:23:21.001Z</time></trkpt><trkpt lat="45.48206045677796" lon="10.793668430057213"><ele>132.5</ele><time>2026-05-02T07:23:22.001Z</time></trkpt><trkpt lat="45.482288103508296" lon="10.793607903424439"><ele>133.0</ele><time>2026-05-02T07:23:23.001Z</time></trkpt><trkpt lat="45.48251786629074" lon="10.793547692914467"><ele>132.66666666666669</ele><time>2026-05-02T07:23:24.001Z</time></trkpt><trkpt lat="45.482738705559484" lon="10.793485869725204"><ele>132.33333333333334</ele><time>2026-05-02T07:23:25.001Z</time></trkpt><trkpt lat="45.48294347382144" lon="10.793433506477388"><ele>132.0</ele><time>2026-05-02T07:23:26.001Z</time></trkpt><trkpt lat="45.48313776998573" lon="10.7934082524229"><ele>133.0</ele><time>2026-05-02T07:23:27.001Z</time></trkpt><trkpt lat="45.48332873332773" lon="10.793425189315856"><ele>134.0</ele><time>2026-05-02T07:23:28.001Z</time></trkpt><trkpt lat="45.48352974337784" lon="10.793475160430807"><ele>135.0</ele><time>2026-05-02T07:23:29.001Z</time></trkpt><trkpt lat="45.48373382079434" lon="10.793551128679967"><ele>137.33333333333334</ele><time>2026-05-02T07:23:30.001Z</time></trkpt><trkpt lat="45.48394276248661" lon="10.793647534852365"><ele>139.66666666666669</ele><time>2026-05-02T07:23:31.001Z</time></trkpt><trkpt lat="45.48415933278639" lon="10.793749718920266"><ele>142.0</ele><time>2026-05-02T07:23:32.001Z</time></trkpt><trkpt lat="45.48437879122713" lon="10.79385093438675"><ele>143.0</ele><time>2026-05-02T07:23:33Z</time></trkpt><trkpt lat="45.48460067398107" lon="10.793952996675374"><ele>144.0</ele><time>2026-05-02T07:23:34Z</time></trkpt><trkpt lat="45.48482402760082" lon="10.794056113490825"><ele>144.0</ele><time>2026-05-02T07:23:35Z</time></trkpt><trkpt lat="45.48504504432287" lon="10.794156383398631"><ele>144.0</ele><time>2026-05-02T07:23:36Z</time></trkpt><trkpt lat="45.48526626100772" lon="10.794254876385752"><ele>148.5</ele><time>2026-05-02T07:23:37Z</time></trkpt><trkpt lat="45.48548922334877" lon="10.79435378490381"><ele>153.0</ele><time>2026-05-02T07:23:38Z</time></trkpt><trkpt lat="45.48572450022551" lon="10.794458529982792"><ele>153.0</ele><time>2026-05-02T07:23:39Z</time></trkpt><trkpt lat="45.4859648831103" lon="10.794565244789512"><ele>153.0</ele><time>2026-05-02T07:23:40Z</time></trkpt><trkpt lat="45.4861989920979" lon="10.794666794173626"><ele>153.33333333333334</ele><time>2026-05-02T07:23:41Z</time></trkpt><trkpt lat="45.48641768910901" lon="10.794762565399166"><ele>153.66666666666669</ele><time>2026-05-02T07:23:42Z</time></trkpt><trkpt lat="45.48662642438431" lon="10.794852551502307"><ele>154.0</ele><time>2026-05-02T07:23:43Z</time></trkpt><trkpt lat="45.48683539448515" lon="10.794939786269792"><ele>154.0</ele><time>2026-05-02T07:23:44Z</time></trkpt><trkpt lat="45.48701740843957" lon="10.795070973537255"><ele>154.0</ele><time>2026-05-02T07:23:45Z</time></trkpt><trkpt lat="45.4871838882215" lon="10.795242725340987"><ele>154.0</ele><time>2026-05-02T07:23:46Z</time></trkpt><trkpt lat="45.48737646552254" lon="10.795381894440935"><ele>155.33333333333334</ele><time>2026-05-02T07:23:47Z</time></trkpt><trkpt lat="45.487555493835686" lon="10.795545558220347"><ele>156.66666666666666</ele><time>2026-05-02T07:23:48Z</time></trkpt><trkpt lat="45.48772454396926" lon="10.795700651750494"><ele>158.0</ele><time>2026-05-02T07:23:49Z</time></trkpt><trkpt lat="45.487874551374006" lon="10.795851466016664"><ele>156.66666666666666</ele><time>2026-05-02T07:23:50Z</time></trkpt><trkpt lat="45.48801668777416" lon="10.796000298909815"><ele>155.33333333333334</ele><time>2026-05-02T07:23:51Z</time></trkpt><trkpt lat="45.488145879964584" lon="10.796138461482277"><ele>154.0</ele><time>2026-05-02T07:23:52Z</time></trkpt><trkpt lat="45.48826471403242" lon="10.79627325433672"><ele>156.25</ele><time>2026-05-02T07:23:53Z</time></trkpt><trkpt lat="45.48837555718177" lon="10.796404623169927"><ele>158.5</ele><time>2026-05-02T07:23:54Z</time></trkpt><trkpt lat="45.488485019377656" lon="10.796540910026305"><ele>160.75</ele><time>2026-05-02T07:23:55Z</time></trkpt><trkpt lat="45.488602262292574" lon="10.79667280967232"><ele>163.0</ele><time>2026-05-02T07:23:56Z</time></trkpt><trkpt lat="45.488722156679444" lon="10.796793322962202"><ele>164.2</ele><time>2026-05-02T07:23:57Z</time></trkpt><trkpt lat="45.488830693574236" lon="10.796885839793541"><ele>165.4</ele><time>2026-05-02T07:23:58Z</time></trkpt><trkpt lat="45.48892594206221" lon="10.79695863723914"><ele>166.6</ele><time>2026-05-02T07:23:59Z</time></trkpt><trkpt lat="45.48900655654788" lon="10.79700804973706"><ele>167.79999999999998</ele><time>2026-05-02T07:24:00Z</time></trkpt><trkpt lat="45.48908274395793" lon="10.797050636314683"><ele>169.0</ele><time>2026-05-02T07:24:01Z</time></trkpt><trkpt lat="45.48914803591655" lon="10.797086687448632"><ele>169.0</ele><time>2026-05-02T07:24:02Z</time></trkpt><trkpt lat="45.489230895840166" lon="10.797131788106567"><ele>169.0</ele><time>2026-05-02T07:24:04Z</time></trkpt><trkpt lat="45.48931813972428" lon="10.797206434521893"><ele>169.0</ele><time>2026-05-02T07:24:06Z</time></trkpt><trkpt lat="45.48937187870283" lon="10.797275864166863"><ele>169.0</ele><time>2026-05-02T07:24:07Z</time></trkpt><trkpt lat="45.48943412681602" lon="10.79734670418534"><ele>169.0</ele><time>2026-05-02T07:24:08Z</time></trkpt><trkpt lat="45.489510370986196" lon="10.797405926509859"><ele>169.0</ele><time>2026-05-02T07:24:09Z</time></trkpt><trkpt lat="45.48959735904431" lon="10.797459403218822"><ele>171.0</ele><time>2026-05-02T07:24:10Z</time></trkpt><trkpt lat="45.4896947020818" lon="10.797523471567787"><ele>173.0</ele><time>2026-05-02T07:24:11Z</time></trkpt><trkpt lat="45.48979264908981" lon="10.797596432824069"><ele>175.0</ele><time>2026-05-02T07:24:12Z</time></trkpt><trkpt lat="45.48989418327251" lon="10.797676640786554"><ele>177.0</ele><time>2026-05-02T07:24:13Z</time></trkpt><trkpt lat="45.48999937852444" lon="10.797764395912031"><ele>179.25</ele><time>2026-05-02T07:24:14Z</time></trkpt><trkpt lat="45.490106238866794" lon="10.79785370913474"><ele>181.5</ele><time>2026-05-02T07:24:15Z</time></trkpt><trkpt lat="45.49020767817227" lon="10.797936704253338"><ele>183.75</ele><time>2026-05-02T07:24:16Z</time></trkpt><trkpt lat="45.49031073318169" lon="10.798031923317467"><ele>186.0</ele><time>2026-05-02T07:24:17Z</time></trkpt><trkpt lat="45.490416035589455" lon="10.79813051589218"><ele>186.0</ele><time>2026-05-02T07:24:18Z</time></trkpt><trkpt lat="45.49051564520459" lon="10.798232854130033"><ele>186.0</ele><time>2026-05-02T07:24:19Z</time></trkpt><trkpt lat="45.49060421363996" lon="10.798335584794772"><ele>186.0</ele><time>2026-05-02T07:24:20Z</time></trkpt><trkpt lat="45.49067642135941" lon="10.7984365941977"><ele>186.0</ele><time>2026-05-02T07:24:21Z</time></trkpt><trkpt lat="45.49073494407979" lon="10.798547457891624"><ele>186.0</ele><time>2026-05-02T07:24:22Z</time></trkpt><trkpt lat="45.49077407163554" lon="10.798669164782726"><ele>186.0</ele><time>2026-05-02T07:24:23Z</time></trkpt><trkpt lat="45.490798047258664" lon="10.798787565599397"><ele>186.0</ele><time>2026-05-02T07:24:24Z</time></trkpt><trkpt lat="45.490821054442456" lon="10.798901017626937"><ele>186.0</ele><time>2026-05-02T07:24:25Z</time></trkpt><trkpt lat="45.490858841197266" lon="10.799011272343945"><ele>186.0</ele><time>2026-05-02T07:24:26Z</time></trkpt><trkpt lat="45.4909105341814" lon="10.799119640614903"><ele>186.0</ele><time>2026-05-02T07:24:27Z</time></trkpt><trkpt lat="45.490966339213394" lon="10.79922514372067"><ele>186.0</ele><time>2026-05-02T07:24:28Z</time></trkpt><trkpt lat="45.49101773194555" lon="10.799325590003356"><ele>186.16666666666666</ele><time>2026-05-02T07:24:29Z</time></trkpt><trkpt lat="45.49105581395118" lon="10.799416117739394"><ele>186.33333333333334</ele><time>2026-05-02T07:24:30Z</time></trkpt><trkpt lat="45.491093072072964" lon="10.799492261545428"><ele>186.5</ele><time>2026-05-02T07:24:31Z</time></trkpt><trkpt lat="45.49113251989894" lon="10.79956376258028"><ele>186.66666666666669</ele><time>2026-05-02T07:24:32Z</time></trkpt><trkpt lat="45.49123984360917" lon="10.799655024481535"><ele>186.83333333333334</ele><time>2026-05-02T07:24:34Z</time></trkpt><trkpt lat="45.491308063069724" lon="10.799667584500996"><ele>187.0</ele><time>2026-05-02T07:24:35Z</time></trkpt><trkpt lat="45.49138051880469" lon="10.799666478505067"><ele>187.0</ele><time>2026-05-02T07:24:36Z</time></trkpt><trkpt lat="45.49146698550287" lon="10.799650966180913"><ele>187.0</ele><time>2026-05-02T07:24:37Z</time></trkpt><trkpt lat="45.49155960396878" lon="10.799653983451352"><ele>187.0</ele><time>2026-05-02T07:24:38Z</time></trkpt><trkpt lat="45.491653894408266" lon="10.799657766161078"><ele>187.0</ele><time>2026-05-02T07:24:39Z</time></trkpt><trkpt lat="45.49174742180772" lon="10.79967016968394"><ele>187.0</ele><time>2026-05-02T07:24:40Z</time></trkpt><trkpt lat="45.49183394570458" lon="10.799683480686326"><ele>187.0</ele><time>2026-05-02T07:24:41Z</time></trkpt><trkpt lat="45.49190856858313" lon="10.799696298535986"><ele>187.0</ele><time>2026-05-02T07:24:42Z</time></trkpt><trkpt lat="45.491976396492966" lon="10.799710788501857"><ele>187.0</ele><time>2026-05-02T07:24:42.999Z</time></trkpt><trkpt lat="45.492040060981644" lon="10.799719473569752"><ele>187.0</ele><time>2026-05-02T07:24:43.999Z</time></trkpt><trkpt lat="45.49210280167516" lon="10.79972961408769"><ele>187.0</ele><time>2026-05-02T07:24:44.999Z</time></trkpt><trkpt lat="45.49217076214305" lon="10.799716505100601"><ele>187.0</ele><time>2026-05-02T07:24:45.999Z</time></trkpt><trkpt lat="45.492235793430915" lon="10.799686066433049"><ele>187.0</ele><time>2026-05-02T07:24:46.999Z</time></trkpt><trkpt lat="45.492294238271285" lon="10.79963667612007"><ele>187.16666666666669</ele><time>2026-05-02T07:24:47.999Z</time></trkpt><trkpt lat="45.492355519709875" lon="10.799602087959336"><ele>187.33333333333334</ele><time>2026-05-02T07:24:48.999Z</time></trkpt><trkpt lat="45.49240937131858" lon="10.79955035346743"><ele>187.5</ele><time>2026-05-02T07:24:49.999Z</time></trkpt><trkpt lat="45.49249289233702" lon="10.79946509662598"><ele>187.66666666666666</ele><time>2026-05-02T07:24:51.999Z</time></trkpt><trkpt lat="45.4925827334856" lon="10.799364037540641"><ele>187.83333333333331</ele><time>2026-05-02T07:25:00.999Z</time></trkpt><trkpt lat="45.492657649867304" lon="10.799279576596764"><ele>188.0</ele><time>2026-05-02T07:25:01.999Z</time></trkpt><trkpt lat="45.49273655513256" lon="10.799163391456903"><ele>188.0</ele><time>2026-05-02T07:25:02.999Z</time></trkpt><trkpt lat="45.49282948417993" lon="10.799085579894324"><ele>188.0</ele><time>2026-05-02T07:25:03.999Z</time></trkpt><trkpt lat="45.49292450742531" lon="10.799022725110826"><ele>188.0</ele><time>2026-05-02T07:25:04.999Z</time></trkpt><trkpt lat="45.49302412609684" lon="10.798974040391691"><ele>188.0</ele><time>2026-05-02T07:25:05.999Z</time></trkpt><trkpt lat="45.493127687929984" lon="10.798938302419991"><ele>188.0</ele><time>2026-05-02T07:25:06.999Z</time></trkpt><trkpt lat="45.49323053605507" lon="10.798925383832204"><ele>188.25</ele><time>2026-05-02T07:25:07.999Z</time></trkpt><trkpt lat="45.4933432162606" lon="10.79895152576854"><ele>188.5</ele><time>2026-05-02T07:25:08.999Z</time></trkpt><trkpt lat="45.49345962820496" lon="10.799037853317776"><ele>188.75</ele><time>2026-05-02T07:25:09.999Z</time></trkpt><trkpt lat="45.4936143955015" lon="10.79915814311138"><ele>189.0</ele><time>2026-05-02T07:25:11Z</time></trkpt><trkpt lat="45.493780021881626" lon="10.799270887190202"><ele>189.33333333333334</ele><time>2026-05-02T07:25:12Z</time></trkpt><trkpt lat="45.493943178286614" lon="10.799416524996165"><ele>189.66666666666669</ele><time>2026-05-02T07:25:13Z</time></trkpt><trkpt lat="45.49412127131491" lon="10.799516938815508"><ele>190.0</ele><time>2026-05-02T07:25:14Z</time></trkpt><trkpt lat="45.49431207439896" lon="10.799568006953228"><ele>190.0</ele><time>2026-05-02T07:25:15Z</time></trkpt><trkpt lat="45.494504706998754" lon="10.799600242901235"><ele>190.0</ele><time>2026-05-02T07:25:16Z</time></trkpt><trkpt lat="45.49469702080414" lon="10.79961951045814"><ele>190.0</ele><time>2026-05-02T07:25:17Z</time></trkpt><trkpt lat="45.49488837898416" lon="10.79965587140737"><ele>189.0</ele><time>2026-05-02T07:25:18Z</time></trkpt><trkpt lat="45.49507372363993" lon="10.79969471896791"><ele>188.0</ele><time>2026-05-02T07:25:19Z</time></trkpt><trkpt lat="45.49525046741796" lon="10.799730464680461"><ele>187.0</ele><time>2026-05-02T07:25:20Z</time></trkpt><trkpt lat="45.495424553693475" lon="10.799765739097554"><ele>186.0</ele><time>2026-05-02T07:25:21Z</time></trkpt><trkpt lat="45.495607473072326" lon="10.79979654721753"><ele>185.0</ele><time>2026-05-02T07:25:22Z</time></trkpt><trkpt lat="45.495790618615246" lon="10.79982775709821"><ele>184.0</ele><time>2026-05-02T07:25:23Z</time></trkpt><trkpt lat="45.495972827261845" lon="10.799842373097285"><ele>184.0</ele><time>2026-05-02T07:25:24Z</time></trkpt><trkpt lat="45.496154857086225" lon="10.79982645030715"><ele>184.0</ele><time>2026-05-02T07:25:25Z</time></trkpt><trkpt lat="45.496346301906776" lon="10.799789126187068"><ele>184.0</ele><time>2026-05-02T07:25:26Z</time></trkpt><trkpt lat="45.496544838530944" lon="10.799746370147453"><ele>183.33333333333334</ele><time>2026-05-02T07:25:27Z</time></trkpt><trkpt lat="45.496746816948715" lon="10.799708805487658"><ele>182.66666666666666</ele><time>2026-05-02T07:25:28Z</time></trkpt><trkpt lat="45.496950299104796" lon="10.79967046629708"><ele>182.0</ele><time>2026-05-02T07:25:29Z</time></trkpt><trkpt lat="45.4971494726537" lon="10.799621140961369"><ele>181.0</ele><time>2026-05-02T07:25:30Z</time></trkpt><trkpt lat="45.49733291459829" lon="10.799570651285798"><ele>180.0</ele><time>2026-05-02T07:25:31Z</time></trkpt><trkpt lat="45.49749970657087" lon="10.799519370685166"><ele>179.0</ele><time>2026-05-02T07:25:32Z</time></trkpt><trkpt lat="45.49766086797738" lon="10.799465062098589"><ele>179.0</ele><time>2026-05-02T07:25:33Z</time></trkpt><trkpt lat="45.49781307460626" lon="10.79940886738451"><ele>179.0</ele><time>2026-05-02T07:25:34Z</time></trkpt><trkpt lat="45.49796983139848" lon="10.79932691946167"><ele>179.0</ele><time>2026-05-02T07:25:35Z</time></trkpt><trkpt lat="45.498137632603104" lon="10.799214774448627"><ele>177.33333333333331</ele><time>2026-05-02T07:25:36Z</time></trkpt><trkpt lat="45.49830871847647" lon="10.79908760776539"><ele>175.66666666666666</ele><time>2026-05-02T07:25:37Z</time></trkpt><trkpt lat="45.49848173444955" lon="10.79896039010455"><ele>174.0</ele><time>2026-05-02T07:25:38Z</time></trkpt><trkpt lat="45.49867088053587" lon="10.798853704441905"><ele>172.33333333333334</ele><time>2026-05-02T07:25:39Z</time></trkpt><trkpt lat="45.49885691588454" lon="10.798751683634094"><ele>170.66666666666669</ele><time>2026-05-02T07:25:40Z</time></trkpt><trkpt lat="45.49904441598757" lon="10.798660777110376"><ele>169.0</ele><time>2026-05-02T07:25:41Z</time></trkpt><trkpt lat="45.49922537681656" lon="10.7985776111022"><ele>169.0</ele><time>2026-05-02T07:25:42Z</time></trkpt><trkpt lat="45.49941522140383" lon="10.798506816042305"><ele>169.0</ele><time>2026-05-02T07:25:43Z</time></trkpt><trkpt lat="45.49961965710507" lon="10.798451912335391"><ele>169.0</ele><time>2026-05-02T07:25:44Z</time></trkpt><trkpt lat="45.49982706825433" lon="10.798415239207936"><ele>168.0</ele><time>2026-05-02T07:25:45Z</time></trkpt><trkpt lat="45.5000376887006" lon="10.798385469369707"><ele>167.0</ele><time>2026-05-02T07:25:46Z</time></trkpt><trkpt lat="45.500248759879725" lon="10.798354826008666"><ele>166.0</ele><time>2026-05-02T07:25:47Z</time></trkpt><trkpt lat="45.50045292554608" lon="10.798326056469572"><ele>166.0</ele><time>2026-05-02T07:25:48Z</time></trkpt><trkpt lat="45.50066488760394" lon="10.798299115677361"><ele>166.0</ele><time>2026-05-02T07:25:49Z</time></trkpt><trkpt lat="45.500879274909494" lon="10.798278596992562"><ele>166.0</ele><time>2026-05-02T07:25:50Z</time></trkpt><trkpt lat="45.50109143867643" lon="10.798264921268867"><ele>165.33333333333334</ele><time>2026-05-02T07:25:51Z</time></trkpt><trkpt lat="45.501293240530394" lon="10.798253634011482"><ele>164.66666666666666</ele><time>2026-05-02T07:25:51.999Z</time></trkpt><trkpt lat="45.50149469653475" lon="10.79824660604168"><ele>164.0</ele><time>2026-05-02T07:25:52.999Z</time></trkpt><trkpt lat="45.50169107671708" lon="10.798247640030855"><ele>164.0</ele><time>2026-05-02T07:25:53.999Z</time></trkpt><trkpt lat="45.50189277646935" lon="10.79825346460495"><ele>164.0</ele><time>2026-05-02T07:25:54.999Z</time></trkpt><trkpt lat="45.50209963380665" lon="10.798253904713407"><ele>164.0</ele><time>2026-05-02T07:25:55.999Z</time></trkpt><trkpt lat="45.50230127166862" lon="10.798251226188329"><ele>163.66666666666666</ele><time>2026-05-02T07:25:56.999Z</time></trkpt><trkpt lat="45.502499129313165" lon="10.798247342594305"><ele>163.33333333333334</ele><time>2026-05-02T07:25:57.999Z</time></trkpt><trkpt lat="45.50270474858728" lon="10.798235385691509"><ele>163.0</ele><time>2026-05-02T07:25:58.999Z</time></trkpt><trkpt lat="45.50291398026486" lon="10.798211974060285"><ele>161.0</ele><time>2026-05-02T07:25:59.999Z</time></trkpt><trkpt lat="45.50311978115802" lon="10.798176513114765"><ele>159.0</ele><time>2026-05-02T07:26:00.999Z</time></trkpt><trkpt lat="45.50331316568889" lon="10.798131024752395"><ele>157.0</ele><time>2026-05-02T07:26:01.999Z</time></trkpt><trkpt lat="45.5034966333157" lon="10.798069325844137"><ele>157.0</ele><time>2026-05-02T07:26:02.999Z</time></trkpt><trkpt lat="45.50366916939736" lon="10.797985812974563"><ele>157.0</ele><time>2026-05-02T07:26:03.999Z</time></trkpt><trkpt lat="45.50382530088361" lon="10.797882344428952"><ele>157.0</ele><time>2026-05-02T07:26:04.999Z</time></trkpt><trkpt lat="45.50395834862481" lon="10.797756968058858"><ele>156.0</ele><time>2026-05-02T07:26:05.999Z</time></trkpt><trkpt lat="45.50406876769486" lon="10.79760449942067"><ele>155.0</ele><time>2026-05-02T07:26:06.999Z</time></trkpt><trkpt lat="45.50415940098782" lon="10.79743340009938"><ele>154.0</ele><time>2026-05-02T07:26:07.999Z</time></trkpt><trkpt lat="45.50425093298004" lon="10.797265684533533"><ele>154.0</ele><time>2026-05-02T07:26:08.999Z</time></trkpt><trkpt lat="45.50433658075359" lon="10.797098450899572"><ele>154.0</ele><time>2026-05-02T07:26:09.999Z</time></trkpt><trkpt lat="45.50441794561986" lon="10.7969294281977"><ele>154.0</ele><time>2026-05-02T07:26:10.999Z</time></trkpt><trkpt lat="45.50450169978878" lon="10.796756995244273"><ele>154.0</ele><time>2026-05-02T07:26:11.999Z</time></trkpt><trkpt lat="45.504592518790524" lon="10.796582527742446"><ele>153.66666666666669</ele><time>2026-05-02T07:26:12.999Z</time></trkpt><trkpt lat="45.504686189948615" lon="10.796398923507272"><ele>153.33333333333334</ele><time>2026-05-02T07:26:13.999Z</time></trkpt><trkpt lat="45.50478147984138" lon="10.796223538239335"><ele>153.0</ele><time>2026-05-02T07:26:14.999Z</time></trkpt><trkpt lat="45.50488405610992" lon="10.796066201521617"><ele>153.0</ele><time>2026-05-02T07:26:15.999Z</time></trkpt><trkpt lat="45.504997497379755" lon="10.795935870833272"><ele>153.0</ele><time>2026-05-02T07:26:16.999Z</time></trkpt><trkpt lat="45.505126888801826" lon="10.79586106425183"><ele>153.0</ele><time>2026-05-02T07:26:17.999Z</time></trkpt><trkpt lat="45.505270453578724" lon="10.79581964927928"><ele>153.0</ele><time>2026-05-02T07:26:18.999Z</time></trkpt><trkpt lat="45.50541832541554" lon="10.795786472931148"><ele>152.0</ele><time>2026-05-02T07:26:19.999Z</time></trkpt><trkpt lat="45.50556916021547" lon="10.795747127550971"><ele>151.0</ele><time>2026-05-02T07:26:20.999Z</time></trkpt><trkpt lat="45.50572268585986" lon="10.79569949943669"><ele>150.0</ele><time>2026-05-02T07:26:21.999Z</time></trkpt><trkpt lat="45.50587653131576" lon="10.795641785269057"><ele>150.0</ele><time>2026-05-02T07:26:22.999Z</time></trkpt><trkpt lat="45.50601897047603" lon="10.79557758302565"><ele>150.0</ele><time>2026-05-02T07:26:23.999Z</time></trkpt><trkpt lat="45.50614208245252" lon="10.795506468293919"><ele>150.0</ele><time>2026-05-02T07:26:24.999Z</time></trkpt><trkpt lat="45.50625712956108" lon="10.795427970142432"><ele>150.0</ele><time>2026-05-02T07:26:25.999Z</time></trkpt><trkpt lat="45.50636090830547" lon="10.795359138264686"><ele>150.0</ele><time>2026-05-02T07:26:26.999Z</time></trkpt><trkpt lat="45.506454980489536" lon="10.79531541509678"><ele>150.0</ele><time>2026-05-02T07:26:27.999Z</time></trkpt><trkpt lat="45.506547307968034" lon="10.795305783911996"><ele>150.0</ele><time>2026-05-02T07:26:28.999Z</time></trkpt><trkpt lat="45.506625751389755" lon="10.795343223067267"><ele>150.0</ele><time>2026-05-02T07:26:29.999Z</time></trkpt><trkpt lat="45.506698144859406" lon="10.795403587562381"><ele>150.0</ele><time>2026-05-02T07:26:30.999Z</time></trkpt><trkpt lat="45.50679564757282" lon="10.795439773497469"><ele>150.0</ele><time>2026-05-02T07:26:31.999Z</time></trkpt><trkpt lat="45.50693421869555" lon="10.795451407158017"><ele>150.0</ele><time>2026-05-02T07:26:32.999Z</time></trkpt><trkpt lat="45.50710273368348" lon="10.795456919314093"><ele>150.0</ele><time>2026-05-02T07:26:33.999Z</time></trkpt><trkpt lat="45.50728243940069" lon="10.795467194420677"><ele>149.66666666666666</ele><time>2026-05-02T07:26:34.999Z</time></trkpt><trkpt lat="45.507457362066745" lon="10.79551401481258"><ele>149.33333333333331</ele><time>2026-05-02T07:26:35.999Z</time></trkpt><trkpt lat="45.507627534868995" lon="10.79559812157987"><ele>149.0</ele><time>2026-05-02T07:26:36.999Z</time></trkpt><trkpt lat="45.50778674435933" lon="10.795720091981188"><ele>148.0</ele><time>2026-05-02T07:26:37.999Z</time></trkpt><trkpt lat="45.50793871565975" lon="10.795863766433722"><ele>147.0</ele><time>2026-05-02T07:26:38.999Z</time></trkpt><trkpt lat="45.508091618556854" lon="10.796041835202642"><ele>146.0</ele><time>2026-05-02T07:26:39.999Z</time></trkpt><trkpt lat="45.50823836591665" lon="10.796254397379903"><ele>143.66666666666666</ele><time>2026-05-02T07:26:40.999Z</time></trkpt><trkpt lat="45.508372397121015" lon="10.79648202474647"><ele>141.33333333333334</ele><time>2026-05-02T07:26:41.999Z</time></trkpt><trkpt lat="45.50849948861624" lon="10.79670385852103"><ele>139.0</ele><time>2026-05-02T07:26:42.999Z</time></trkpt><trkpt lat="45.508635293951386" lon="10.796901340972916"><ele>133.66666666666669</ele><time>2026-05-02T07:26:43.999Z</time></trkpt><trkpt lat="45.508775164701206" lon="10.79705895762144"><ele>128.33333333333334</ele><time>2026-05-02T07:26:44.999Z</time></trkpt><trkpt lat="45.50890013464018" lon="10.797199685624893"><ele>123.0</ele><time>2026-05-02T07:26:45.999Z</time></trkpt><trkpt lat="45.509017413781855" lon="10.797317750251809"><ele>123.0</ele><time>2026-05-02T07:26:46.999Z</time></trkpt><trkpt lat="45.50914025443801" lon="10.797405950832902"><ele>123.0</ele><time>2026-05-02T07:26:47.999Z</time></trkpt><trkpt lat="45.50927607608618" lon="10.797435130678183"><ele>123.0</ele><time>2026-05-02T07:26:48.999Z</time></trkpt><trkpt lat="45.50943018072355" lon="10.797406914640243"><ele>123.0</ele><time>2026-05-02T07:26:49.999Z</time></trkpt><trkpt lat="45.5096112874616" lon="10.79735501647161"><ele>121.0</ele><time>2026-05-02T07:26:50.999Z</time></trkpt><trkpt lat="45.50981185086816" lon="10.797307583146958"><ele>119.0</ele><time>2026-05-02T07:26:51.999Z</time></trkpt><trkpt lat="45.510029958846054" lon="10.797263411796715"><ele>117.0</ele><time>2026-05-02T07:26:52.999Z</time></trkpt><trkpt lat="45.51025916351452" lon="10.797209838584825"><ele>115.5</ele><time>2026-05-02T07:26:53.999Z</time></trkpt><trkpt lat="45.510489904073765" lon="10.797180269333868"><ele>114.0</ele><time>2026-05-02T07:26:54.999Z</time></trkpt><trkpt lat="45.5107211281502" lon="10.797235405828266"><ele>114.0</ele><time>2026-05-02T07:26:55.999Z</time></trkpt><trkpt lat="45.510968865982655" lon="10.797299859319164"><ele>114.0</ele><time>2026-05-02T07:26:56.999Z</time></trkpt><trkpt lat="45.51120945327392" lon="10.79736864912557"><ele>113.33333333333334</ele><time>2026-05-02T07:26:57.999Z</time></trkpt><trkpt lat="45.511374675599846" lon="10.797395517758792"><ele>112.66666666666667</ele><time>2026-05-02T07:26:58.999Z</time></trkpt><trkpt lat="45.511608338791724" lon="10.797470690584635"><ele>112.0</ele><time>2026-05-02T07:26:59.999Z</time></trkpt><trkpt lat="45.51184804772789" lon="10.797545067936088"><ele>112.0</ele><time>2026-05-02T07:27:00.999Z</time></trkpt><trkpt lat="45.51208580056932" lon="10.797612477315418"><ele>112.0</ele><time>2026-05-02T07:27:01.999Z</time></trkpt><trkpt lat="45.51232185553706" lon="10.797678987861785"><ele>107.5</ele><time>2026-05-02T07:27:02.999Z</time></trkpt><trkpt lat="45.512543780488315" lon="10.797746377684826"><ele>103.0</ele><time>2026-05-02T07:27:03.999Z</time></trkpt><trkpt lat="45.512750587265785" lon="10.797868776996514"><ele>102.66666666666667</ele><time>2026-05-02T07:27:04.999Z</time></trkpt><trkpt lat="45.512951143443665" lon="10.79799376585641"><ele>102.33333333333334</ele><time>2026-05-02T07:27:05.999Z</time></trkpt><trkpt lat="45.51315247841662" lon="10.798127489606744"><ele>102.0</ele><time>2026-05-02T07:27:06.999Z</time></trkpt><trkpt lat="45.51335210473622" lon="10.798253512214103"><ele>102.0</ele><time>2026-05-02T07:27:07.999Z</time></trkpt><trkpt lat="45.51354263558765" lon="10.798390120870629"><ele>102.0</ele><time>2026-05-02T07:27:08.999Z</time></trkpt><trkpt lat="45.5137262877657" lon="10.798527227954281"><ele>102.0</ele><time>2026-05-02T07:27:09.999Z</time></trkpt><trkpt lat="45.513897439982" lon="10.798666269711633"><ele>101.33333333333334</ele><time>2026-05-02T07:27:10.999Z</time></trkpt><trkpt lat="45.51406263799085" lon="10.798799460289507"><ele>100.66666666666667</ele><time>2026-05-02T07:27:11.999Z</time></trkpt><trkpt lat="45.514223027466315" lon="10.798932207009889"><ele>100.0</ele><time>2026-05-02T07:27:12.999Z</time></trkpt><trkpt lat="45.51438492994672" lon="10.79906984485161"><ele>100.0</ele><time>2026-05-02T07:27:13.999Z</time></trkpt><trkpt lat="45.5145242194047" lon="10.79922533956537"><ele>100.0</ele><time>2026-05-02T07:27:14.999Z</time></trkpt><trkpt lat="45.51466957037241" lon="10.799338995090103"><ele>100.0</ele><time>2026-05-02T07:27:15.999Z</time></trkpt><trkpt lat="45.51479607069672" lon="10.799464202708164"><ele>99.5</ele><time>2026-05-02T07:27:17Z</time></trkpt><trkpt lat="45.51490546666153" lon="10.799580630970283"><ele>99.0</ele><time>2026-05-02T07:27:18Z</time></trkpt><trkpt lat="45.51501149485751" lon="10.799685650380068"><ele>98.5</ele><time>2026-05-02T07:27:19Z</time></trkpt><trkpt lat="45.51509323086408" lon="10.799809607649552"><ele>98.0</ele><time>2026-05-02T07:27:20Z</time></trkpt><trkpt lat="45.515178237917354" lon="10.799884125105827"><ele>97.99999999999999</ele><time>2026-05-02T07:27:21Z</time></trkpt><trkpt lat="45.51520928573132" lon="10.799973686944547"><ele>98.0</ele><time>2026-05-02T07:27:22Z</time></trkpt><trkpt lat="45.51524897667227" lon="10.800090560626327"><ele>98.0</ele><time>2026-05-02T07:27:23Z</time></trkpt><trkpt lat="45.515283056930315" lon="10.800206193381003"><ele>98.0</ele><time>2026-05-02T07:27:24Z</time></trkpt><trkpt lat="45.51534154156145" lon="10.800301189276679"><ele>97.99999999999999</ele><time>2026-05-02T07:27:25Z</time></trkpt><trkpt lat="45.515413210276805" lon="10.800381733284281"><ele>98.0</ele><time>2026-05-02T07:27:26Z</time></trkpt><trkpt lat="45.515531710032526" lon="10.800373991700654"><ele>98.5</ele><time>2026-05-02T07:27:27Z</time></trkpt><trkpt lat="45.51564704212412" lon="10.800397258257517"><ele>99.0</ele><time>2026-05-02T07:27:28Z</time></trkpt><trkpt lat="45.515735225730744" lon="10.800517738702537"><ele>99.5</ele><time>2026-05-02T07:27:29Z</time></trkpt><trkpt lat="45.51582864762413" lon="10.80063552956363"><ele>100.0</ele><time>2026-05-02T07:27:30Z</time></trkpt><trkpt lat="45.51594042958929" lon="10.800753574808192"><ele>100.0</ele><time>2026-05-02T07:27:31Z</time></trkpt><trkpt lat="45.51603245472181" lon="10.80087419316431"><ele>100.0</ele><time>2026-05-02T07:27:32Z</time></trkpt><trkpt lat="45.51611198654357" lon="10.800981238645111"><ele>100.0</ele><time>2026-05-02T07:27:33Z</time></trkpt><trkpt lat="45.51620004599428" lon="10.801087915066837"><ele>100.0</ele><time>2026-05-02T07:27:34Z</time></trkpt><trkpt lat="45.516296193906705" lon="10.801201905608998"><ele>99.75</ele><time>2026-05-02T07:27:35Z</time></trkpt><trkpt lat="45.516396819456226" lon="10.801317133247947"><ele>99.5</ele><time>2026-05-02T07:27:36Z</time></trkpt><trkpt lat="45.516494249791876" lon="10.801448913003423"><ele>99.25</ele><time>2026-05-02T07:27:37Z</time></trkpt><trkpt lat="45.516597258409654" lon="10.801568905792424"><ele>99.0</ele><time>2026-05-02T07:27:38Z</time></trkpt><trkpt lat="45.516706576342976" lon="10.801695409051698"><ele>99.0</ele><time>2026-05-02T07:27:39Z</time></trkpt><trkpt lat="45.51681839484948" lon="10.801813940350623"><ele>99.0</ele><time>2026-05-02T07:27:40Z</time></trkpt><trkpt lat="45.516931407873564" lon="10.801912990842425"><ele>99.0</ele><time>2026-05-02T07:27:41Z</time></trkpt><trkpt lat="45.51704955737873" lon="10.8020015821313"><ele>99.0</ele><time>2026-05-02T07:27:42Z</time></trkpt><trkpt lat="45.51717049451841" lon="10.802082734170387"><ele>98.25</ele><time>2026-05-02T07:27:43Z</time></trkpt><trkpt lat="45.517284247292466" lon="10.802163072114864"><ele>97.5</ele><time>2026-05-02T07:27:44Z</time></trkpt><trkpt lat="45.51738900310224" lon="10.802229687483441"><ele>96.75</ele><time>2026-05-02T07:27:45Z</time></trkpt><trkpt lat="45.51748846803501" lon="10.802283170405923"><ele>96.0</ele><time>2026-05-02T07:27:46Z</time></trkpt><trkpt lat="45.5175993629259" lon="10.802300126418888"><ele>96.0</ele><time>2026-05-02T07:27:47Z</time></trkpt><trkpt lat="45.51770926642211" lon="10.802285289179117"><ele>96.0</ele><time>2026-05-02T07:27:48Z</time></trkpt><trkpt lat="45.517803212735465" lon="10.802282278838906"><ele>96.0</ele><time>2026-05-02T07:27:49Z</time></trkpt><trkpt lat="45.51790420633852" lon="10.802263386919927"><ele>96.0</ele><time>2026-05-02T07:27:50Z</time></trkpt><trkpt lat="45.518021639575224" lon="10.802214420452628"><ele>96.0</ele><time>2026-05-02T07:27:51Z</time></trkpt><trkpt lat="45.518140871349715" lon="10.802148561340635"><ele>96.0</ele><time>2026-05-02T07:27:52Z</time></trkpt><trkpt lat="45.51825304949419" lon="10.802067094926016"><ele>96.0</ele><time>2026-05-02T07:27:53Z</time></trkpt><trkpt lat="45.518358122936704" lon="10.801987913961614"><ele>96.0</ele><time>2026-05-02T07:27:54Z</time></trkpt><trkpt lat="45.518461755771035" lon="10.801924188969517"><ele>96.0</ele><time>2026-05-02T07:27:55Z</time></trkpt><trkpt lat="45.51857066192061" lon="10.801875342793462"><ele>96.0</ele><time>2026-05-02T07:27:56Z</time></trkpt><trkpt lat="45.51868866264431" lon="10.801834411874799"><ele>96.0</ele><time>2026-05-02T07:27:57Z</time></trkpt><trkpt lat="45.5188090166126" lon="10.801802040337066"><ele>96.0</ele><time>2026-05-02T07:27:58Z</time></trkpt><trkpt lat="45.51893496877342" lon="10.801793097008478"><ele>96.0</ele><time>2026-05-02T07:27:59Z</time></trkpt><trkpt lat="45.519062054748595" lon="10.801801662986374"><ele>95.5</ele><time>2026-05-02T07:28:00Z</time></trkpt><trkpt lat="45.519182534736814" lon="10.801861032059355"><ele>95.0</ele><time>2026-05-02T07:28:01Z</time></trkpt><trkpt lat="45.51930919497624" lon="10.801896861180188"><ele>94.5</ele><time>2026-05-02T07:28:02Z</time></trkpt><trkpt lat="45.51942778089629" lon="10.801958556651105"><ele>94.0</ele><time>2026-05-02T07:28:03Z</time></trkpt><trkpt lat="45.519546719641674" lon="10.802012139356728"><ele>93.80000000000001</ele><time>2026-05-02T07:28:04Z</time></trkpt><trkpt lat="45.51965722566945" lon="10.802056948957981"><ele>93.60000000000001</ele><time>2026-05-02T07:28:05Z</time></trkpt><trkpt lat="45.519761950168885" lon="10.802096328593398"><ele>93.4</ele><time>2026-05-02T07:28:06Z</time></trkpt><trkpt lat="45.519865561148954" lon="10.802132137883758"><ele>93.2</ele><time>2026-05-02T07:28:07Z</time></trkpt><trkpt lat="45.51997563127638" lon="10.8021601874507"><ele>93.0</ele><time>2026-05-02T07:28:08Z</time></trkpt><trkpt lat="45.52008494116877" lon="10.802185656461091"><ele>93.0</ele><time>2026-05-02T07:28:09Z</time></trkpt><trkpt lat="45.52018825699218" lon="10.80221488663103"><ele>93.0</ele><time>2026-05-02T07:28:09.999Z</time></trkpt><trkpt lat="45.52029240074805" lon="10.802240176870464"><ele>93.0</ele><time>2026-05-02T07:28:10.999Z</time></trkpt><trkpt lat="45.5204011280861" lon="10.802264356785651"><ele>93.0</ele><time>2026-05-02T07:28:11.999Z</time></trkpt><trkpt lat="45.52051134780735" lon="10.802289022666022"><ele>93.0</ele><time>2026-05-02T07:28:12.999Z</time></trkpt><trkpt lat="45.52062377933266" lon="10.80231540493622"><ele>93.5</ele><time>2026-05-02T07:28:13.999Z</time></trkpt><trkpt lat="45.52073495633343" lon="10.802344100087993"><ele>94.0</ele><time>2026-05-02T07:28:14.999Z</time></trkpt><trkpt lat="45.52084931932777" lon="10.802373189830702"><ele>94.5</ele><time>2026-05-02T07:28:15.999Z</time></trkpt><trkpt lat="45.52096293576268" lon="10.802400555781155"><ele>95.0</ele><time>2026-05-02T07:28:16.999Z</time></trkpt><trkpt lat="45.521079436139615" lon="10.802427743452908"><ele>95.0</ele><time>2026-05-02T07:28:17.999Z</time></trkpt><trkpt lat="45.52118899218725" lon="10.802450856890601"><ele>95.0</ele><time>2026-05-02T07:28:18.999Z</time></trkpt><trkpt lat="45.5212867460219" lon="10.80247336985029"><ele>95.0</ele><time>2026-05-02T07:28:19.999Z</time></trkpt><trkpt lat="45.52137154406276" lon="10.802495060108555"><ele>95.0</ele><time>2026-05-02T07:28:20.999Z</time></trkpt><trkpt lat="45.52144861409652" lon="10.802512319496483"><ele>95.0</ele><time>2026-05-02T07:28:21.999Z</time></trkpt><trkpt lat="45.521518959323046" lon="10.802528791086022"><ele>95.0</ele><time>2026-05-02T07:28:22.999Z</time></trkpt><trkpt lat="45.52158928424777" lon="10.802542220784222"><ele>95.4</ele><time>2026-05-02T07:28:23.999Z</time></trkpt><trkpt lat="45.52171023820384" lon="10.802563491358196"><ele>95.8</ele><time>2026-05-02T07:28:25.999Z</time></trkpt><trkpt lat="45.52182729267788" lon="10.802591944285842"><ele>96.19999999999999</ele><time>2026-05-02T07:28:27.999Z</time></trkpt><trkpt lat="45.52189044678101" lon="10.802605631502392"><ele>96.6</ele><time>2026-05-02T07:28:28.999Z</time></trkpt><trkpt lat="45.521955905923896" lon="10.802619707963958"><ele>97.0</ele><time>2026-05-02T07:28:29.999Z</time></trkpt><trkpt lat="45.5220566735128" lon="10.802637605643156"><ele>97.0</ele><time>2026-05-02T07:28:31.999Z</time></trkpt><trkpt lat="45.522134984881575" lon="10.802650675364937"><ele>97.0</ele><time>2026-05-02T07:28:33.999Z</time></trkpt><trkpt lat="45.522249486296495" lon="10.802693543303736"><ele>97.0</ele><time>2026-05-02T07:28:35.999Z</time></trkpt><trkpt lat="45.52231310429713" lon="10.802684356818492"><ele>97.0</ele><time>2026-05-02T07:28:36.999Z</time></trkpt><trkpt lat="45.522406233643515" lon="10.802715932658254"><ele>97.0</ele><time>2026-05-02T07:28:38.999Z</time></trkpt><trkpt lat="45.522496432080935" lon="10.802754515285542"><ele>97.0</ele><time>2026-05-02T07:28:40.999Z</time></trkpt><trkpt lat="45.52259146340596" lon="10.802820529349475"><ele>97.0</ele><time>2026-05-02T07:28:42.999Z</time></trkpt><trkpt lat="45.52266486112746" lon="10.802968853663758"><ele>97.0</ele><time>2026-05-02T07:28:44.999Z</time></trkpt><trkpt lat="45.522687014716226" lon="10.803065852192136"><ele>97.0</ele><time>2026-05-02T07:28:45.999Z</time></trkpt><trkpt lat="45.522702898126894" lon="10.803178014528221"><ele>97.0</ele><time>2026-05-02T07:28:46.999Z</time></trkpt><trkpt lat="45.52269814321784" lon="10.803301244968361"><ele>97.0</ele><time>2026-05-02T07:28:47.999Z</time></trkpt><trkpt lat="45.522676061989245" lon="10.803434741732246"><ele>97.0</ele><time>2026-05-02T07:28:48.999Z</time></trkpt><trkpt lat="45.52264620367437" lon="10.803570496419454"><ele>97.0</ele><time>2026-05-02T07:28:49.999Z</time></trkpt><trkpt lat="45.52260956974239" lon="10.803731438458282"><ele>97.0</ele><time>2026-05-02T07:28:50.999Z</time></trkpt><trkpt lat="45.5225636501438" lon="10.803917623357325"><ele>96.5</ele><time>2026-05-02T07:28:51.999Z</time></trkpt><trkpt lat="45.52249389772176" lon="10.804116502198719"><ele>96.0</ele><time>2026-05-02T07:28:52.999Z</time></trkpt><trkpt lat="45.522443563352475" lon="10.804307909067667"><ele>95.5</ele><time>2026-05-02T07:28:53.999Z</time></trkpt><trkpt lat="45.52239706357804" lon="10.804489475469008"><ele>95.0</ele><time>2026-05-02T07:28:54.999Z</time></trkpt><trkpt lat="45.52235235898332" lon="10.804675752241888"><ele>95.0</ele><time>2026-05-02T07:28:55.999Z</time></trkpt><trkpt lat="45.52231455880985" lon="10.804844585557381"><ele>95.0</ele><time>2026-05-02T07:28:56.999Z</time></trkpt><trkpt lat="45.522279362354745" lon="10.805006632503302"><ele>95.0</ele><time>2026-05-02T07:28:57.999Z</time></trkpt><trkpt lat="45.52224869897959" lon="10.805147808599422"><ele>95.0</ele><time>2026-05-02T07:28:58.999Z</time></trkpt><trkpt lat="45.522221834430724" lon="10.805272288330302"><ele>95.0</ele><time>2026-05-02T07:28:59.999Z</time></trkpt><trkpt lat="45.52219756973157" lon="10.805385004296712"><ele>95.0</ele><time>2026-05-02T07:29:00.999Z</time></trkpt><trkpt lat="45.52217861517394" lon="10.805473197679902"><ele>95.0</ele><time>2026-05-02T07:29:01.999Z</time></trkpt><trkpt lat="45.522140556897206" lon="10.805651670583156"><ele>95.0</ele><time>2026-05-02T07:29:03.999Z</time></trkpt><trkpt lat="45.5221168425251" lon="10.805762878456305"><ele>95.0</ele><time>2026-05-02T07:29:04.999Z</time></trkpt><trkpt lat="45.52208917239088" lon="10.8058926580384"><ele>95.0</ele><time>2026-05-02T07:29:05.999Z</time></trkpt><trkpt lat="45.522065203370126" lon="10.806005921324777"><ele>96.6</ele><time>2026-05-02T07:29:06.999Z</time></trkpt><trkpt lat="45.52205052855964" lon="10.80612169205163"><ele>98.2</ele><time>2026-05-02T07:29:07.999Z</time></trkpt><trkpt lat="45.52206013397346" lon="10.806252216725994"><ele>99.80000000000001</ele><time>2026-05-02T07:29:08.999Z</time></trkpt><trkpt lat="45.52206104684005" lon="10.806387886177564"><ele>101.4</ele><time>2026-05-02T07:29:09.999Z</time></trkpt><trkpt lat="45.522055409120924" lon="10.80654278546607"><ele>103.0</ele><time>2026-05-02T07:29:10.999Z</time></trkpt><trkpt lat="45.52210852994883" lon="10.806706104281414"><ele>105.0</ele><time>2026-05-02T07:29:11.999Z</time></trkpt><trkpt lat="45.52216768603063" lon="10.806911836061317"><ele>107.0</ele><time>2026-05-02T07:29:12.999Z</time></trkpt><trkpt lat="45.52225266592741" lon="10.807129902055618"><ele>109.0</ele><time>2026-05-02T07:29:13.999Z</time></trkpt><trkpt lat="45.52233761696749" lon="10.807351187713952"><ele>109.0</ele><time>2026-05-02T07:29:14.999Z</time></trkpt><trkpt lat="45.522412709384795" lon="10.80755058729533"><ele>109.0</ele><time>2026-05-02T07:29:15.999Z</time></trkpt><trkpt lat="45.522482819972616" lon="10.807738284981538"><ele>109.0</ele><time>2026-05-02T07:29:16.999Z</time></trkpt><trkpt lat="45.52255005537676" lon="10.807911560164323"><ele>109.0</ele><time>2026-05-02T07:29:17.999Z</time></trkpt><trkpt lat="45.522601326320874" lon="10.808095360068855"><ele>109.0</ele><time>2026-05-02T07:29:18.999Z</time></trkpt><trkpt lat="45.522679195901624" lon="10.8082771543201"><ele>109.0</ele><time>2026-05-02T07:29:19.999Z</time></trkpt><trkpt lat="45.52273875485983" lon="10.808475750260776"><ele>109.0</ele><time>2026-05-02T07:29:20.999Z</time></trkpt><trkpt lat="45.522784707416186" lon="10.808679669636346"><ele>109.0</ele><time>2026-05-02T07:29:22Z</time></trkpt><trkpt lat="45.52285241197724" lon="10.808858021698743"><ele>109.0</ele><time>2026-05-02T07:29:23Z</time></trkpt><trkpt lat="45.522907732504365" lon="10.80903974660397"><ele>109.0</ele><time>2026-05-02T07:29:24Z</time></trkpt><trkpt lat="45.52296147777339" lon="10.809223980416805"><ele>109.0</ele><time>2026-05-02T07:29:25Z</time></trkpt><trkpt lat="45.523020257680734" lon="10.80941131686727"><ele>109.5</ele><time>2026-05-02T07:29:26Z</time></trkpt><trkpt lat="45.52308083158312" lon="10.80959422564899"><ele>110.0</ele><time>2026-05-02T07:29:27Z</time></trkpt><trkpt lat="45.52313860905621" lon="10.809776468794766"><ele>110.5</ele><time>2026-05-02T07:29:28Z</time></trkpt><trkpt lat="45.52319379320557" lon="10.809952170256787"><ele>111.0</ele><time>2026-05-02T07:29:29Z</time></trkpt><trkpt lat="45.523231500801245" lon="10.810129354614089"><ele>111.0</ele><time>2026-05-02T07:29:30Z</time></trkpt><trkpt lat="45.52328797783294" lon="10.810303545949475"><ele>111.0</ele><time>2026-05-02T07:29:31Z</time></trkpt><trkpt lat="45.52336024093338" lon="10.810469300360474"><ele>111.0</ele><time>2026-05-02T07:29:32Z</time></trkpt><trkpt lat="45.52341422367783" lon="10.81063947591558"><ele>111.0</ele><time>2026-05-02T07:29:33Z</time></trkpt><trkpt lat="45.52346703400019" lon="10.810803298851773"><ele>111.0</ele><time>2026-05-02T07:29:34Z</time></trkpt><trkpt lat="45.52352279779348" lon="10.81096705230153"><ele>111.0</ele><time>2026-05-02T07:29:35Z</time></trkpt><trkpt lat="45.52358519026091" lon="10.81113717423854"><ele>111.0</ele><time>2026-05-02T07:29:36Z</time></trkpt><trkpt lat="45.52365244369505" lon="10.81131038067743"><ele>111.0</ele><time>2026-05-02T07:29:37Z</time></trkpt><trkpt lat="45.523727120951584" lon="10.811479193609676"><ele>111.5</ele><time>2026-05-02T07:29:38Z</time></trkpt><trkpt lat="45.52380393817375" lon="10.811648123384604"><ele>112.0</ele><time>2026-05-02T07:29:39Z</time></trkpt><trkpt lat="45.523884034193394" lon="10.811819702386538"><ele>112.5</ele><time>2026-05-02T07:29:40Z</time></trkpt><trkpt lat="45.5239670949159" lon="10.811993211998743"><ele>113.0</ele><time>2026-05-02T07:29:41Z</time></trkpt><trkpt lat="45.52404806420474" lon="10.81215632353409"><ele>113.0</ele><time>2026-05-02T07:29:42Z</time></trkpt><trkpt lat="45.52412121498446" lon="10.812309368577075"><ele>113.0</ele><time>2026-05-02T07:29:43Z</time></trkpt><trkpt lat="45.5241977723558" lon="10.81247378753826"><ele>113.0</ele><time>2026-05-02T07:29:44Z</time></trkpt><trkpt lat="45.52427629498427" lon="10.812645336975624"><ele>113.0</ele><time>2026-05-02T07:29:45Z</time></trkpt><trkpt lat="45.52435790764798" lon="10.812820601935611"><ele>113.0</ele><time>2026-05-02T07:29:46Z</time></trkpt><trkpt lat="45.52444890655597" lon="10.813001519111214"><ele>113.0</ele><time>2026-05-02T07:29:47Z</time></trkpt><trkpt lat="45.52455442168605" lon="10.813193516808784"><ele>113.0</ele><time>2026-05-02T07:29:48Z</time></trkpt><trkpt lat="45.52464130407063" lon="10.813406416747846"><ele>113.0</ele><time>2026-05-02T07:29:49Z</time></trkpt><trkpt lat="45.52475008862625" lon="10.813635929692586"><ele>113.0</ele><time>2026-05-02T07:29:50Z</time></trkpt><trkpt lat="45.52488046748229" lon="10.813909705521331"><ele>113.0</ele><time>2026-05-02T07:29:51Z</time></trkpt><trkpt lat="45.5250256589795" lon="10.814213820121532"><ele>113.5</ele><time>2026-05-02T07:29:52Z</time></trkpt><trkpt lat="45.52518647969717" lon="10.814511109296193"><ele>114.0</ele><time>2026-05-02T07:29:53Z</time></trkpt><trkpt lat="45.52532225545647" lon="10.81483885016858"><ele>113.0</ele><time>2026-05-02T07:29:54Z</time></trkpt><trkpt lat="45.52546597454139" lon="10.815143552455343"><ele>112.0</ele><time>2026-05-02T07:29:55Z</time></trkpt><trkpt lat="45.525604022882035" lon="10.815395323484404"><ele>112.0</ele><time>2026-05-02T07:29:56Z</time></trkpt><trkpt lat="45.52570911033199" lon="10.81562047765802"><ele>112.0</ele><time>2026-05-02T07:29:57Z</time></trkpt><trkpt lat="45.52580820978297" lon="10.815836987457583"><ele>112.0</ele><time>2026-05-02T07:29:58Z</time></trkpt><trkpt lat="45.525901920281456" lon="10.81604370599794"><ele>112.33333333333334</ele><time>2026-05-02T07:29:59Z</time></trkpt><trkpt lat="45.52599348619944" lon="10.816239115855407"><ele>112.66666666666666</ele><time>2026-05-02T07:30:00Z</time></trkpt><trkpt lat="45.52608835227112" lon="10.816424258952146"><ele>113.0</ele><time>2026-05-02T07:30:01Z</time></trkpt><trkpt lat="45.526176117297545" lon="10.816596350161952"><ele>113.25</ele><time>2026-05-02T07:30:02Z</time></trkpt><trkpt lat="45.52625298304757" lon="10.81675545548075"><ele>113.5</ele><time>2026-05-02T07:30:03Z</time></trkpt><trkpt lat="45.52632434628303" lon="10.816903273795475"><ele>113.75</ele><time>2026-05-02T07:30:04Z</time></trkpt><trkpt lat="45.52637937562819" lon="10.817061849145691"><ele>114.0</ele><time>2026-05-02T07:30:05Z</time></trkpt><trkpt lat="45.52646220264743" lon="10.81719464903582"><ele>114.0</ele><time>2026-05-02T07:30:06Z</time></trkpt><trkpt lat="45.52651978303921" lon="10.817356101324675"><ele>114.0</ele><time>2026-05-02T07:30:07Z</time></trkpt><trkpt lat="45.526607024103505" lon="10.817490031017464"><ele>114.0</ele><time>2026-05-02T07:30:08Z</time></trkpt><trkpt lat="45.526677075138565" lon="10.817637677065463"><ele>114.0</ele><time>2026-05-02T07:30:09Z</time></trkpt><trkpt lat="45.526735737237466" lon="10.81777028340581"><ele>114.0</ele><time>2026-05-02T07:30:10Z</time></trkpt><trkpt lat="45.52677501721279" lon="10.817879883160524"><ele>114.0</ele><time>2026-05-02T07:30:11Z</time></trkpt><trkpt lat="45.52679482385998" lon="10.818038322495603"><ele>114.0</ele><time>2026-05-02T07:30:13Z</time></trkpt><trkpt lat="45.52675534693104" lon="10.818196440321934"><ele>114.0</ele><time>2026-05-02T07:30:15Z</time></trkpt><trkpt lat="45.526734666867654" lon="10.818294825025758"><ele>114.0</ele><time>2026-05-02T07:30:16Z</time></trkpt><trkpt lat="45.52673902637037" lon="10.818397860767707"><ele>114.0</ele><time>2026-05-02T07:30:17Z</time></trkpt><trkpt lat="45.526831315515196" lon="10.818508256835868"><ele>114.0</ele><time>2026-05-02T07:30:18.999Z</time></trkpt><trkpt lat="45.526911567608096" lon="10.8185058498693"><ele>114.0</ele><time>2026-05-02T07:30:19.999Z</time></trkpt><trkpt lat="45.52701576539756" lon="10.818476842980155"><ele>114.0</ele><time>2026-05-02T07:30:20.999Z</time></trkpt><trkpt lat="45.52714069460057" lon="10.818462259680388"><ele>114.0</ele><time>2026-05-02T07:30:21.999Z</time></trkpt><trkpt lat="45.52730770560546" lon="10.818472108452212"><ele>114.33333333333334</ele><time>2026-05-02T07:30:22.999Z</time></trkpt><trkpt lat="45.52749316796099" lon="10.818477663839749"><ele>114.66666666666667</ele><time>2026-05-02T07:30:23.999Z</time></trkpt><trkpt lat="45.52766463812898" lon="10.818480462796419"><ele>115.0</ele><time>2026-05-02T07:30:24.999Z</time></trkpt><trkpt lat="45.52782470422893" lon="10.818486682782343"><ele>115.0</ele><time>2026-05-02T07:30:25.999Z</time></trkpt><trkpt lat="45.52799537288071" lon="10.818487738923436"><ele>115.0</ele><time>2026-05-02T07:30:26.999Z</time></trkpt><trkpt lat="45.528173421608386" lon="10.8184907989789"><ele>115.0</ele><time>2026-05-02T07:30:27.999Z</time></trkpt><trkpt lat="45.52836486445851" lon="10.81848613978452"><ele>114.0</ele><time>2026-05-02T07:30:28.999Z</time></trkpt><trkpt lat="45.528553727390815" lon="10.818472263463796"><ele>113.0</ele><time>2026-05-02T07:30:29.999Z</time></trkpt><trkpt lat="45.52871996441614" lon="10.818462965797321"><ele>112.0</ele><time>2026-05-02T07:30:30.999Z</time></trkpt><trkpt lat="45.528876589246515" lon="10.818459492283111"><ele>112.0</ele><time>2026-05-02T07:30:31.999Z</time></trkpt><trkpt lat="45.529049986855036" lon="10.818448784920454"><ele>112.0</ele><time>2026-05-02T07:30:32.999Z</time></trkpt><trkpt lat="45.529244503951695" lon="10.818437095079105"><ele>112.0</ele><time>2026-05-02T07:30:33.999Z</time></trkpt><trkpt lat="45.5294417221085" lon="10.8184198395823"><ele>111.66666666666667</ele><time>2026-05-02T07:30:34.999Z</time></trkpt><trkpt lat="45.52964941137158" lon="10.81838655304472"><ele>111.33333333333334</ele><time>2026-05-02T07:30:35.999Z</time></trkpt><trkpt lat="45.529848047000215" lon="10.818350539421669"><ele>111.0</ele><time>2026-05-02T07:30:36.999Z</time></trkpt><trkpt lat="45.530033766901326" lon="10.818323692904084"><ele>111.0</ele><time>2026-05-02T07:30:37.999Z</time></trkpt><trkpt lat="45.5302171317387" lon="10.818300247708345"><ele>111.0</ele><time>2026-05-02T07:30:38.999Z</time></trkpt><trkpt lat="45.530404068971194" lon="10.81828647171959"><ele>111.0</ele><time>2026-05-02T07:30:39.999Z</time></trkpt><trkpt lat="45.53059854941347" lon="10.818277004889195"><ele>111.0</ele><time>2026-05-02T07:30:40.999Z</time></trkpt><trkpt lat="45.53079055953277" lon="10.818274850806842"><ele>111.0</ele><time>2026-05-02T07:30:41.999Z</time></trkpt><trkpt lat="45.53097223228721" lon="10.818281107762129"><ele>111.0</ele><time>2026-05-02T07:30:42.999Z</time></trkpt><trkpt lat="45.531160415731655" lon="10.81828448023301"><ele>111.66666666666666</ele><time>2026-05-02T07:30:43.999Z</time></trkpt><trkpt lat="45.5313478097272" lon="10.81829148282391"><ele>112.33333333333333</ele><time>2026-05-02T07:30:44.999Z</time></trkpt><trkpt lat="45.53153658027884" lon="10.818295133884755"><ele>113.0</ele><time>2026-05-02T07:30:45.999Z</time></trkpt><trkpt lat="45.53172667184061" lon="10.818296719087025"><ele>113.0</ele><time>2026-05-02T07:30:46.999Z</time></trkpt><trkpt lat="45.53192704899331" lon="10.818285298236399"><ele>113.0</ele><time>2026-05-02T07:30:47.999Z</time></trkpt><trkpt lat="45.532160158281236" lon="10.81826501134689"><ele>113.0</ele><time>2026-05-02T07:30:48.999Z</time></trkpt><trkpt lat="45.53242288625685" lon="10.818249411341972"><ele>113.0</ele><time>2026-05-02T07:30:49.999Z</time></trkpt><trkpt lat="45.53275867810068" lon="10.818237392324425"><ele>113.0</ele><time>2026-05-02T07:30:50.999Z</time></trkpt><trkpt lat="45.53305386949116" lon="10.818254642551324"><ele>113.0</ele><time>2026-05-02T07:30:51.999Z</time></trkpt><trkpt lat="45.53333407487722" lon="10.818272219594887"><ele>113.0</ele><time>2026-05-02T07:30:52.999Z</time></trkpt><trkpt lat="45.53362111448294" lon="10.818290032071006"><ele>112.0</ele><time>2026-05-02T07:30:53.999Z</time></trkpt><trkpt lat="45.53390662179583" lon="10.818317104117737"><ele>111.0</ele><time>2026-05-02T07:30:54.999Z</time></trkpt><trkpt lat="45.534190581214446" lon="10.818351247128286"><ele>111.0</ele><time>2026-05-02T07:30:55.999Z</time></trkpt><trkpt lat="45.53446788074458" lon="10.818391111769824"><ele>111.0</ele><time>2026-05-02T07:30:56.999Z</time></trkpt><trkpt lat="45.534736063548216" lon="10.818440000666222"><ele>111.0</ele><time>2026-05-02T07:30:57.999Z</time></trkpt><trkpt lat="45.53498359730417" lon="10.81849916337191"><ele>111.0</ele><time>2026-05-02T07:30:58.999Z</time></trkpt><trkpt lat="45.53521744747978" lon="10.818565455325018"><ele>110.5</ele><time>2026-05-02T07:30:59.999Z</time></trkpt><trkpt lat="45.53544523424039" lon="10.818641501985743"><ele>110.0</ele><time>2026-05-02T07:31:00.999Z</time></trkpt><trkpt lat="45.53567735408911" lon="10.818733350734284"><ele>110.0</ele><time>2026-05-02T07:31:01.999Z</time></trkpt><trkpt lat="45.53591377706311" lon="10.818849849102783"><ele>110.0</ele><time>2026-05-02T07:31:02.999Z</time></trkpt><trkpt lat="45.53614201063249" lon="10.819002827064779"><ele>110.5</ele><time>2026-05-02T07:31:03.999Z</time></trkpt><trkpt lat="45.53635424777079" lon="10.819134856626743"><ele>111.0</ele><time>2026-05-02T07:31:04.999Z</time></trkpt><trkpt lat="45.53656141288805" lon="10.819244267500109"><ele>111.0</ele><time>2026-05-02T07:31:05.999Z</time></trkpt><trkpt lat="45.536755360376496" lon="10.81937766557853"><ele>111.0</ele><time>2026-05-02T07:31:06.999Z</time></trkpt><trkpt lat="45.53695453575901" lon="10.819506432826831"><ele>111.0</ele><time>2026-05-02T07:31:07.999Z</time></trkpt><trkpt lat="45.53715313306211" lon="10.819637352956052"><ele>112.0</ele><time>2026-05-02T07:31:08.999Z</time></trkpt><trkpt lat="45.53735566702461" lon="10.819772483178452"><ele>113.0</ele><time>2026-05-02T07:31:09.999Z</time></trkpt><trkpt lat="45.53757311582085" lon="10.81991856252304"><ele>113.0</ele><time>2026-05-02T07:31:10.999Z</time></trkpt><trkpt lat="45.537801096759395" lon="10.820081626706328"><ele>113.0</ele><time>2026-05-02T07:31:11.999Z</time></trkpt><trkpt lat="45.53803439767355" lon="10.820304852517008"><ele>112.0</ele><time>2026-05-02T07:31:12.999Z</time></trkpt><trkpt lat="45.53827683571203" lon="10.820439034515704"><ele>111.0</ele><time>2026-05-02T07:31:13.999Z</time></trkpt><trkpt lat="45.53848265079253" lon="10.820599989723942"><ele>111.0</ele><time>2026-05-02T07:31:14.999Z</time></trkpt><trkpt lat="45.53864803934171" lon="10.820725804895066"><ele>111.0</ele><time>2026-05-02T07:31:15.999Z</time></trkpt><trkpt lat="45.53880585553728" lon="10.820826867308826"><ele>111.0</ele><time>2026-05-02T07:31:16.999Z</time></trkpt><trkpt lat="45.538959462025446" lon="10.820916248844778"><ele>111.66666666666666</ele><time>2026-05-02T07:31:17.999Z</time></trkpt><trkpt lat="45.53910823566495" lon="10.820999041724038"><ele>112.33333333333333</ele><time>2026-05-02T07:31:18.999Z</time></trkpt><trkpt lat="45.539252006581165" lon="10.821074285133953"><ele>113.0</ele><time>2026-05-02T07:31:19.999Z</time></trkpt><trkpt lat="45.539395768571616" lon="10.82114481329271"><ele>113.0</ele><time>2026-05-02T07:31:20.999Z</time></trkpt><trkpt lat="45.53953644144857" lon="10.821216381932873"><ele>113.0</ele><time>2026-05-02T07:31:21.999Z</time></trkpt><trkpt lat="45.539671543251806" lon="10.821286685198496"><ele>113.0</ele><time>2026-05-02T07:31:22.999Z</time></trkpt><trkpt lat="45.539811986145125" lon="10.821361486130364"><ele>113.0</ele><time>2026-05-02T07:31:23.999Z</time></trkpt><trkpt lat="45.53995192636922" lon="10.821433822545657"><ele>112.66666666666666</ele><time>2026-05-02T07:31:24.999Z</time></trkpt><trkpt lat="45.54009308196985" lon="10.821505857764459"><ele>112.33333333333334</ele><time>2026-05-02T07:31:25.999Z</time></trkpt><trkpt lat="45.540241425610034" lon="10.82158619954788"><ele>112.0</ele><time>2026-05-02T07:31:26.999Z</time></trkpt><trkpt lat="45.54039941583246" lon="10.821675869935234"><ele>112.66666666666667</ele><time>2026-05-02T07:31:28Z</time></trkpt><trkpt lat="45.54057656933505" lon="10.821767044011914"><ele>113.33333333333334</ele><time>2026-05-02T07:31:29Z</time></trkpt><trkpt lat="45.54076885880975" lon="10.82186662436725"><ele>114.0</ele><time>2026-05-02T07:31:30Z</time></trkpt><trkpt lat="45.54096809850025" lon="10.821971461974027"><ele>114.0</ele><time>2026-05-02T07:31:31Z</time></trkpt><trkpt lat="45.54116304656446" lon="10.822076493717653"><ele>114.0</ele><time>2026-05-02T07:31:32Z</time></trkpt><trkpt lat="45.54134844339491" lon="10.82217452555221"><ele>114.0</ele><time>2026-05-02T07:31:33Z</time></trkpt><trkpt lat="45.541534319884114" lon="10.822271872609456"><ele>113.66666666666666</ele><time>2026-05-02T07:31:34Z</time></trkpt><trkpt lat="45.54171632255246" lon="10.822366758102685"><ele>113.33333333333333</ele><time>2026-05-02T07:31:35Z</time></trkpt><trkpt lat="45.54188574085327" lon="10.822458360542257"><ele>113.0</ele><time>2026-05-02T07:31:36Z</time></trkpt><trkpt lat="45.542048599287696" lon="10.82254451721634"><ele>112.66666666666666</ele><time>2026-05-02T07:31:37Z</time></trkpt><trkpt lat="45.54221814123797" lon="10.822620986175048"><ele>112.33333333333334</ele><time>2026-05-02T07:31:38Z</time></trkpt><trkpt lat="45.54239230755842" lon="10.822682751273764"><ele>112.0</ele><time>2026-05-02T07:31:39Z</time></trkpt><trkpt lat="45.54256803590852" lon="10.822727307625884"><ele>111.66666666666667</ele><time>2026-05-02T07:31:40Z</time></trkpt><trkpt lat="45.54274444003456" lon="10.822763794557398"><ele>111.33333333333334</ele><time>2026-05-02T07:31:41Z</time></trkpt><trkpt lat="45.54291113112108" lon="10.822788308898623"><ele>111.0</ele><time>2026-05-02T07:31:42Z</time></trkpt><trkpt lat="45.543055090385316" lon="10.822804295680815"><ele>110.75</ele><time>2026-05-02T07:31:43Z</time></trkpt><trkpt lat="45.543189466997475" lon="10.822814667813022"><ele>110.5</ele><time>2026-05-02T07:31:44Z</time></trkpt><trkpt lat="45.543318381586666" lon="10.822821641390478"><ele>110.25</ele><time>2026-05-02T07:31:45Z</time></trkpt><trkpt lat="45.54344392796124" lon="10.822831040027284"><ele>110.0</ele><time>2026-05-02T07:31:46Z</time></trkpt><trkpt lat="45.54356378901999" lon="10.822840967763547"><ele>110.0</ele><time>2026-05-02T07:31:47Z</time></trkpt><trkpt lat="45.54368058342237" lon="10.822853557718581"><ele>110.0</ele><time>2026-05-02T07:31:48Z</time></trkpt><trkpt lat="45.54379853599772" lon="10.82286412928699"><ele>110.0</ele><time>2026-05-02T07:31:49Z</time></trkpt><trkpt lat="45.54392037120883" lon="10.822871445624536"><ele>110.0</ele><time>2026-05-02T07:31:50Z</time></trkpt><trkpt lat="45.54404867391305" lon="10.822880623248809"><ele>109.66666666666666</ele><time>2026-05-02T07:31:51Z</time></trkpt><trkpt lat="45.54419211845427" lon="10.822891541700574"><ele>109.33333333333334</ele><time>2026-05-02T07:31:52Z</time></trkpt><trkpt lat="45.54435640296924" lon="10.822902346295402"><ele>109.0</ele><time>2026-05-02T07:31:53Z</time></trkpt><trkpt lat="45.54453584729845" lon="10.822915082766212"><ele>108.0</ele><time>2026-05-02T07:31:54Z</time></trkpt><trkpt lat="45.54471310144772" lon="10.822929391970268"><ele>107.0</ele><time>2026-05-02T07:31:55Z</time></trkpt><trkpt lat="45.54488167148903" lon="10.822943521552988"><ele>106.0</ele><time>2026-05-02T07:31:56Z</time></trkpt><trkpt lat="45.545045231608505" lon="10.822959811683749"><ele>106.0</ele><time>2026-05-02T07:31:57Z</time></trkpt><trkpt lat="45.54521102312406" lon="10.822977165207595"><ele>106.0</ele><time>2026-05-02T07:31:58Z</time></trkpt><trkpt lat="45.54538018367377" lon="10.822988953654496"><ele>106.0</ele><time>2026-05-02T07:31:59Z</time></trkpt><trkpt lat="45.545574451135764" lon="10.822995160087515"><ele>105.0</ele><time>2026-05-02T07:32:00Z</time></trkpt><trkpt lat="45.545796314024344" lon="10.823032309189774"><ele>104.0</ele><time>2026-05-02T07:32:01Z</time></trkpt><trkpt lat="45.5460276796887" lon="10.823037202021835"><ele>104.0</ele><time>2026-05-02T07:32:02Z</time></trkpt><trkpt lat="45.546267982472905" lon="10.823063962670625"><ele>104.0</ele><time>2026-05-02T07:32:03Z</time></trkpt><trkpt lat="45.54649687928688" lon="10.823084212798394"><ele>104.0</ele><time>2026-05-02T07:32:04Z</time></trkpt><trkpt lat="45.54670129343438" lon="10.823098809155354"><ele>104.0</ele><time>2026-05-02T07:32:05Z</time></trkpt><trkpt lat="45.54688277443734" lon="10.82311453640778"><ele>104.0</ele><time>2026-05-02T07:32:06Z</time></trkpt><trkpt lat="45.547062439822064" lon="10.823133934130176"><ele>102.33333333333333</ele><time>2026-05-02T07:32:07Z</time></trkpt><trkpt lat="45.54722498351696" lon="10.823161644518192"><ele>100.66666666666666</ele><time>2026-05-02T07:32:08Z</time></trkpt><trkpt lat="45.5473781268301" lon="10.823202660462103"><ele>99.0</ele><time>2026-05-02T07:32:09Z</time></trkpt><trkpt lat="45.54753395256335" lon="10.823254219712382"><ele>99.0</ele><time>2026-05-02T07:32:10Z</time></trkpt><trkpt lat="45.54769506602284" lon="10.823314671730222"><ele>99.0</ele><time>2026-05-02T07:32:11Z</time></trkpt><trkpt lat="45.547857361401554" lon="10.82338120673958"><ele>99.0</ele><time>2026-05-02T07:32:12Z</time></trkpt><trkpt lat="45.54802049343911" lon="10.823459947097632"><ele>98.0</ele><time>2026-05-02T07:32:13Z</time></trkpt><trkpt lat="45.54817834306089" lon="10.823550860824346"><ele>97.0</ele><time>2026-05-02T07:32:14Z</time></trkpt><trkpt lat="45.548333235147794" lon="10.82364884283304"><ele>96.0</ele><time>2026-05-02T07:32:15Z</time></trkpt><trkpt lat="45.54848072161426" lon="10.823754066893116"><ele>96.0</ele><time>2026-05-02T07:32:16Z</time></trkpt><trkpt lat="45.54862371437074" lon="10.823867443266959"><ele>96.0</ele><time>2026-05-02T07:32:17Z</time></trkpt><trkpt lat="45.54875857689743" lon="10.823990056611896"><ele>96.0</ele><time>2026-05-02T07:32:18Z</time></trkpt><trkpt lat="45.548892212469305" lon="10.824120210606283"><ele>96.0</ele><time>2026-05-02T07:32:19Z</time></trkpt><trkpt lat="45.54902373241123" lon="10.824255565226798"><ele>96.0</ele><time>2026-05-02T07:32:20Z</time></trkpt><trkpt lat="45.54915644443765" lon="10.82439135412556"><ele>96.0</ele><time>2026-05-02T07:32:21Z</time></trkpt><trkpt lat="45.549296734840404" lon="10.824534322086267"><ele>96.33333333333334</ele><time>2026-05-02T07:32:22Z</time></trkpt><trkpt lat="45.54943139278072" lon="10.824706155716772"><ele>96.66666666666667</ele><time>2026-05-02T07:32:23Z</time></trkpt><trkpt lat="45.54958991556966" lon="10.824875392388266"><ele>97.0</ele><time>2026-05-02T07:32:24Z</time></trkpt><trkpt lat="45.549754702528006" lon="10.825059851198766"><ele>96.33333333333334</ele><time>2026-05-02T07:32:25Z</time></trkpt><trkpt lat="45.54990664368845" lon="10.825242717272843"><ele>95.66666666666667</ele><time>2026-05-02T07:32:26Z</time></trkpt><trkpt lat="45.55005343392213" lon="10.825406054497806"><ele>95.0</ele><time>2026-05-02T07:32:27Z</time></trkpt><trkpt lat="45.55017812840342" lon="10.825602720712725"><ele>95.0</ele><time>2026-05-02T07:32:28Z</time></trkpt><trkpt lat="45.550308627054825" lon="10.825810748797544"><ele>95.0</ele><time>2026-05-02T07:32:29Z</time></trkpt><trkpt lat="45.55043688713363" lon="10.826028647978262"><ele>95.0</ele><time>2026-05-02T07:32:30Z</time></trkpt><trkpt lat="45.550564770914875" lon="10.826242111140912"><ele>94.0</ele><time>2026-05-02T07:32:31Z</time></trkpt><trkpt lat="45.55068099234022" lon="10.826467864066638"><ele>93.0</ele><time>2026-05-02T07:32:32Z</time></trkpt><trkpt lat="45.55081300988395" lon="10.826690968290169"><ele>92.0</ele><time>2026-05-02T07:32:33Z</time></trkpt><trkpt lat="45.550951962300445" lon="10.826924403517285"><ele>92.33333333333334</ele><time>2026-05-02T07:32:33.999Z</time></trkpt><trkpt lat="45.551093592890744" lon="10.827163225278497"><ele>92.66666666666667</ele><time>2026-05-02T07:32:34.999Z</time></trkpt><trkpt lat="45.551241119924136" lon="10.827412931837353"><ele>93.0</ele><time>2026-05-02T07:32:35.999Z</time></trkpt><trkpt lat="45.55137571586946" lon="10.82764075066371"><ele>102.66666666666666</ele><time>2026-05-02T07:32:36.999Z</time></trkpt><trkpt lat="45.551505526662325" lon="10.827857555719037"><ele>112.33333333333333</ele><time>2026-05-02T07:32:37.999Z</time></trkpt><trkpt lat="45.551651044893674" lon="10.828021043353752"><ele>122.0</ele><time>2026-05-02T07:32:38.999Z</time></trkpt><trkpt lat="45.55180062598842" lon="10.828186044376986"><ele>122.0</ele><time>2026-05-02T07:32:39.999Z</time></trkpt><trkpt lat="45.5519503348754" lon="10.828365649727155"><ele>122.0</ele><time>2026-05-02T07:32:40.999Z</time></trkpt><trkpt lat="45.552095564758744" lon="10.828534761681333"><ele>122.0</ele><time>2026-05-02T07:32:41.999Z</time></trkpt><trkpt lat="45.5522315191021" lon="10.828667877860825"><ele>116.0</ele><time>2026-05-02T07:32:42.999Z</time></trkpt><trkpt lat="45.55234854165942" lon="10.828818882005013"><ele>110.0</ele><time>2026-05-02T07:32:43.999Z</time></trkpt><trkpt lat="45.55247717388778" lon="10.828964172821719"><ele>104.0</ele><time>2026-05-02T07:32:44.999Z</time></trkpt><trkpt lat="45.55259959779794" lon="10.82908775423906"><ele>104.0</ele><time>2026-05-02T07:32:45.999Z</time></trkpt><trkpt lat="45.55270641187892" lon="10.829184006108562"><ele>104.0</ele><time>2026-05-02T07:32:46.999Z</time></trkpt><trkpt lat="45.55281908825333" lon="10.82927710722214"><ele>104.0</ele><time>2026-05-02T07:32:47.999Z</time></trkpt><trkpt lat="45.5529534417663" lon="10.82937895132229"><ele>104.0</ele><time>2026-05-02T07:32:48.999Z</time></trkpt><trkpt lat="45.553106823681965" lon="10.829516555124757"><ele>109.0</ele><time>2026-05-02T07:32:49.999Z</time></trkpt><trkpt lat="45.55331287737682" lon="10.829638674486757"><ele>114.0</ele><time>2026-05-02T07:32:50.999Z</time></trkpt><trkpt lat="45.553561920176456" lon="10.829733559977354"><ele>107.5</ele><time>2026-05-02T07:32:51.999Z</time></trkpt><trkpt lat="45.5537900159029" lon="10.829783087839463"><ele>101.0</ele><time>2026-05-02T07:32:52.999Z</time></trkpt><trkpt lat="45.55399484330488" lon="10.829894788267517"><ele>101.0</ele><time>2026-05-02T07:32:53.999Z</time></trkpt><trkpt lat="45.55420781495694" lon="10.829997904976109"><ele>101.0</ele><time>2026-05-02T07:32:54.999Z</time></trkpt><trkpt lat="45.55443906466268" lon="10.83010723073875"><ele>98.33333333333333</ele><time>2026-05-02T07:32:55.999Z</time></trkpt><trkpt lat="45.55464664080406" lon="10.830246781345277"><ele>95.66666666666666</ele><time>2026-05-02T07:32:56.999Z</time></trkpt><trkpt lat="45.554832561738394" lon="10.830390891622615"><ele>93.0</ele><time>2026-05-02T07:32:57.999Z</time></trkpt><trkpt lat="45.55500856542946" lon="10.830555910376276"><ele>93.0</ele><time>2026-05-02T07:32:58.999Z</time></trkpt><trkpt lat="45.55519103703705" lon="10.830727082476738"><ele>93.0</ele><time>2026-05-02T07:32:59.999Z</time></trkpt><trkpt lat="45.555366771443616" lon="10.83090858982533"><ele>93.0</ele><time>2026-05-02T07:33:00.999Z</time></trkpt><trkpt lat="45.555532057372" lon="10.831084351977568"><ele>140.66666666666669</ele><time>2026-05-02T07:33:01.999Z</time></trkpt><trkpt lat="45.555699156490824" lon="10.831226542836529"><ele>188.33333333333334</ele><time>2026-05-02T07:33:02.999Z</time></trkpt><trkpt lat="45.55587919385458" lon="10.831336496363031"><ele>236.0</ele><time>2026-05-02T07:33:03.999Z</time></trkpt><trkpt lat="45.55606612644206" lon="10.8314444244245"><ele>210.0</ele><time>2026-05-02T07:33:04.999Z</time></trkpt><trkpt lat="45.5563001669778" lon="10.831514087677013"><ele>184.0</ele><time>2026-05-02T07:33:05.999Z</time></trkpt><trkpt lat="45.55658131461208" lon="10.831544871755813"><ele>184.0</ele><time>2026-05-02T07:33:06.999Z</time></trkpt><trkpt lat="45.55685697298062" lon="10.831601009544864"><ele>184.0</ele><time>2026-05-02T07:33:07.999Z</time></trkpt><trkpt lat="45.557101160384576" lon="10.83167268555173"><ele>184.0</ele><time>2026-05-02T07:33:08.999Z</time></trkpt><trkpt lat="45.557327782463666" lon="10.831734033879894"><ele>184.0</ele><time>2026-05-02T07:33:09.999Z</time></trkpt><trkpt lat="45.557543472742886" lon="10.831770184978616"><ele>184.0</ele><time>2026-05-02T07:33:10.999Z</time></trkpt><trkpt lat="45.557750211146754" lon="10.831775853342696"><ele>201.5</ele><time>2026-05-02T07:33:11.999Z</time></trkpt><trkpt lat="45.55797225957732" lon="10.831736984830323"><ele>219.0</ele><time>2026-05-02T07:33:12.999Z</time></trkpt><trkpt lat="45.5581970339219" lon="10.831667720388468"><ele>219.0</ele><time>2026-05-02T07:33:13.999Z</time></trkpt><trkpt lat="45.558425500894565" lon="10.831560227203434"><ele>219.0</ele><time>2026-05-02T07:33:14.999Z</time></trkpt><trkpt lat="45.55864621780778" lon="10.831443291492139"><ele>212.33333333333331</ele><time>2026-05-02T07:33:15.999Z</time></trkpt><trkpt lat="45.55885191884924" lon="10.831334104395037"><ele>205.66666666666666</ele><time>2026-05-02T07:33:16.999Z</time></trkpt><trkpt lat="45.55904036282362" lon="10.831226253294407"><ele>199.0</ele><time>2026-05-02T07:33:17.999Z</time></trkpt><trkpt lat="45.5592258618991" lon="10.831117183456525"><ele>199.0</ele><time>2026-05-02T07:33:18.999Z</time></trkpt><trkpt lat="45.55940166733462" lon="10.830996046729801"><ele>199.0</ele><time>2026-05-02T07:33:19.999Z</time></trkpt><trkpt lat="45.559568382813545" lon="10.83086638365953"><ele>199.0</ele><time>2026-05-02T07:33:20.999Z</time></trkpt><trkpt lat="45.559729619042656" lon="10.83073420828121"><ele>199.0</ele><time>2026-05-02T07:33:21.999Z</time></trkpt><trkpt lat="45.559886501615466" lon="10.830609889544018"><ele>199.0</ele><time>2026-05-02T07:33:22.999Z</time></trkpt><trkpt lat="45.56003746366468" lon="10.830491157591311"><ele>199.0</ele><time>2026-05-02T07:33:23.999Z</time></trkpt><trkpt lat="45.56018973866865" lon="10.830341867007467"><ele>199.0</ele><time>2026-05-02T07:33:24.999Z</time></trkpt><trkpt lat="45.560350179886356" lon="10.83017133059392"><ele>199.0</ele><time>2026-05-02T07:33:25.999Z</time></trkpt><trkpt lat="45.560480024997915" lon="10.829927061037585"><ele>199.0</ele><time>2026-05-02T07:33:26.999Z</time></trkpt><trkpt lat="45.56059271195636" lon="10.829697839919874"><ele>199.0</ele><time>2026-05-02T07:33:27.999Z</time></trkpt><trkpt lat="45.56068611348685" lon="10.829474707554029"><ele>199.0</ele><time>2026-05-02T07:33:28.999Z</time></trkpt><trkpt lat="45.560791467764965" lon="10.829278552014104"><ele>199.0</ele><time>2026-05-02T07:33:29.999Z</time></trkpt><trkpt lat="45.56089961700759" lon="10.829086154190918"><ele>205.33333333333331</ele><time>2026-05-02T07:33:30.999Z</time></trkpt><trkpt lat="45.56101504667733" lon="10.828896950021461"><ele>211.66666666666669</ele><time>2026-05-02T07:33:31.999Z</time></trkpt><trkpt lat="45.56113936429219" lon="10.828721155145193"><ele>218.0</ele><time>2026-05-02T07:33:32.999Z</time></trkpt><trkpt lat="45.561307989589764" lon="10.82853509627818"><ele>168.0</ele><time>2026-05-02T07:33:34Z</time></trkpt><trkpt lat="45.561496690790925" lon="10.828307682532818"><ele>118.0</ele><time>2026-05-02T07:33:35Z</time></trkpt><trkpt lat="45.56167308571469" lon="10.828089664130882"><ele>118.0</ele><time>2026-05-02T07:33:36Z</time></trkpt><trkpt lat="45.56182408687879" lon="10.827897780721184"><ele>118.0</ele><time>2026-05-02T07:33:37Z</time></trkpt><trkpt lat="45.56198714253908" lon="10.827767323211383"><ele>118.0</ele><time>2026-05-02T07:33:38Z</time></trkpt><trkpt lat="45.56212432659423" lon="10.827614162968475"><ele>111.0</ele><time>2026-05-02T07:33:39Z</time></trkpt><trkpt lat="45.56226001825967" lon="10.827447493941312"><ele>104.0</ele><time>2026-05-02T07:33:40Z</time></trkpt><trkpt lat="45.56238018253009" lon="10.827242818524983"><ele>97.0</ele><time>2026-05-02T07:33:41Z</time></trkpt><trkpt lat="45.56250101655313" lon="10.827046484499625"><ele>97.0</ele><time>2026-05-02T07:33:42Z</time></trkpt><trkpt lat="45.56261529990589" lon="10.82686970690649"><ele>97.0</ele><time>2026-05-02T07:33:43Z</time></trkpt><trkpt lat="45.56273017195478" lon="10.826695368761943"><ele>97.0</ele><time>2026-05-02T07:33:44Z</time></trkpt><trkpt lat="45.56285316873248" lon="10.826529968628675"><ele>105.33333333333334</ele><time>2026-05-02T07:33:45Z</time></trkpt><trkpt lat="45.56299249558273" lon="10.826383415346859"><ele>113.66666666666666</ele><time>2026-05-02T07:33:46Z</time></trkpt><trkpt lat="45.5631558112906" lon="10.826258327185961"><ele>122.0</ele><time>2026-05-02T07:33:47Z</time></trkpt><trkpt lat="45.563323860349364" lon="10.82615320856802"><ele>122.0</ele><time>2026-05-02T07:33:48Z</time></trkpt><trkpt lat="45.56349443796934" lon="10.826061730625872"><ele>122.0</ele><time>2026-05-02T07:33:49Z</time></trkpt><trkpt lat="45.56367165923355" lon="10.825985217246767"><ele>122.0</ele><time>2026-05-02T07:33:50Z</time></trkpt><trkpt lat="45.56385442653061" lon="10.825928492580047"><ele>118.66666666666666</ele><time>2026-05-02T07:33:51Z</time></trkpt><trkpt lat="45.56403618940375" lon="10.82590027425684"><ele>115.33333333333334</ele><time>2026-05-02T07:33:52Z</time></trkpt><trkpt lat="45.56422137024892" lon="10.825888665261813"><ele>112.0</ele><time>2026-05-02T07:33:53Z</time></trkpt><trkpt lat="45.564441294416596" lon="10.82588231430297"><ele>124.5</ele><time>2026-05-02T07:33:54Z</time></trkpt><trkpt lat="45.564685405163786" lon="10.825938503997591"><ele>137.0</ele><time>2026-05-02T07:33:55Z</time></trkpt><trkpt lat="45.56495703517554" lon="10.825990911954607"><ele>173.0</ele><time>2026-05-02T07:33:56Z</time></trkpt><trkpt lat="45.565273902548896" lon="10.826039940411453"><ele>209.0</ele><time>2026-05-02T07:33:57Z</time></trkpt><trkpt lat="45.565605713278146" lon="10.826121423011287"><ele>214.5</ele><time>2026-05-02T07:33:58Z</time></trkpt><trkpt lat="45.565910390726934" lon="10.826196805371657"><ele>220.0</ele><time>2026-05-02T07:33:59Z</time></trkpt><trkpt lat="45.566165099827565" lon="10.826245867379988"><ele>227.0</ele><time>2026-05-02T07:34:00Z</time></trkpt><trkpt lat="45.566404628145214" lon="10.826288577490143"><ele>234.0</ele><time>2026-05-02T07:34:01Z</time></trkpt><trkpt lat="45.566598920250414" lon="10.826326143680287"><ele>241.0</ele><time>2026-05-02T07:34:02Z</time></trkpt><trkpt lat="45.56680589602708" lon="10.826359155700363"><ele>241.0</ele><time>2026-05-02T07:34:03Z</time></trkpt><trkpt lat="45.56700457302031" lon="10.826401056505963"><ele>241.0</ele><time>2026-05-02T07:34:04Z</time></trkpt><trkpt lat="45.56717533819825" lon="10.826455989361556"><ele>241.0</ele><time>2026-05-02T07:34:05Z</time></trkpt><trkpt lat="45.567313624432636" lon="10.826492527472283"><ele>216.0</ele><time>2026-05-02T07:34:06Z</time></trkpt><trkpt lat="45.56748266944176" lon="10.826544257663132"><ele>191.0</ele><time>2026-05-02T07:34:07Z</time></trkpt><trkpt lat="45.5676538125064" lon="10.826621492056727"><ele>166.0</ele><time>2026-05-02T07:34:08Z</time></trkpt><trkpt lat="45.56780652352844" lon="10.826716095447496"><ele>166.0</ele><time>2026-05-02T07:34:09Z</time></trkpt><trkpt lat="45.567936916219956" lon="10.826842039299622"><ele>166.0</ele><time>2026-05-02T07:34:10Z</time></trkpt><trkpt lat="45.56809530809222" lon="10.826918006112713"><ele>166.0</ele><time>2026-05-02T07:34:11Z</time></trkpt><trkpt lat="45.568273935149556" lon="10.826971402963505"><ele>166.0</ele><time>2026-05-02T07:34:12Z</time></trkpt><trkpt lat="45.56847062483331" lon="10.82699411631023"><ele>166.0</ele><time>2026-05-02T07:34:13Z</time></trkpt><trkpt lat="45.568701308983265" lon="10.826951023274763"><ele>166.0</ele><time>2026-05-02T07:34:14Z</time></trkpt><trkpt lat="45.568968767961096" lon="10.826889597041287"><ele>163.5</ele><time>2026-05-02T07:34:15Z</time></trkpt><trkpt lat="45.56925916870229" lon="10.826828322416295"><ele>161.0</ele><time>2026-05-02T07:34:16Z</time></trkpt><trkpt lat="45.56942771593713" lon="10.826647238315214"><ele>143.0</ele><time>2026-05-02T07:34:17Z</time></trkpt><trkpt lat="45.56969016666978" lon="10.826568250958431"><ele>125.0</ele><time>2026-05-02T07:34:18Z</time></trkpt><trkpt lat="45.57000200086015" lon="10.826549679710268"><ele>125.0</ele><time>2026-05-02T07:34:19Z</time></trkpt><trkpt lat="45.57032733255374" lon="10.826530434689138"><ele>125.0</ele><time>2026-05-02T07:34:20Z</time></trkpt><trkpt lat="45.57064156028661" lon="10.826600182293555"><ele>127.0</ele><time>2026-05-02T07:34:21Z</time></trkpt><trkpt lat="45.57093300403415" lon="10.826633449320797"><ele>129.0</ele><time>2026-05-02T07:34:22Z</time></trkpt><trkpt lat="45.57119906041215" lon="10.826634443779714"><ele>130.5</ele><time>2026-05-02T07:34:23Z</time></trkpt><trkpt lat="45.57146696902855" lon="10.826606330363802"><ele>132.0</ele><time>2026-05-02T07:34:24Z</time></trkpt><trkpt lat="45.571769669908676" lon="10.826526437039997"><ele>130.5</ele><time>2026-05-02T07:34:25Z</time></trkpt><trkpt lat="45.57207082118283" lon="10.826448810765672"><ele>129.0</ele><time>2026-05-02T07:34:26Z</time></trkpt><trkpt lat="45.572423843415976" lon="10.82638174618823"><ele>129.0</ele><time>2026-05-02T07:34:27Z</time></trkpt><trkpt lat="45.57277454372914" lon="10.826333561839757"><ele>129.0</ele><time>2026-05-02T07:34:28Z</time></trkpt><trkpt lat="45.57310458367851" lon="10.826255881843121"><ele>129.0</ele><time>2026-05-02T07:34:29Z</time></trkpt><trkpt lat="45.573424981392606" lon="10.826174927099894"><ele>129.0</ele><time>2026-05-02T07:34:30Z</time></trkpt><trkpt lat="45.57370700320501" lon="10.826102753306301"><ele>129.0</ele><time>2026-05-02T07:34:31Z</time></trkpt><trkpt lat="45.573967354910835" lon="10.826037561235367"><ele>129.0</ele><time>2026-05-02T07:34:32Z</time></trkpt><trkpt lat="45.574212438560004" lon="10.82598423891249"><ele>127.0</ele><time>2026-05-02T07:34:33Z</time></trkpt><trkpt lat="45.574443348076024" lon="10.825956109434276"><ele>125.0</ele><time>2026-05-02T07:34:34Z</time></trkpt><trkpt lat="45.57467873514319" lon="10.825978805858437"><ele>125.0</ele><time>2026-05-02T07:34:35Z</time></trkpt><trkpt lat="45.57491430800101" lon="10.82601482631119"><ele>125.0</ele><time>2026-05-02T07:34:36Z</time></trkpt><trkpt lat="45.57511502171116" lon="10.826111054848038"><ele>125.0</ele><time>2026-05-02T07:34:37Z</time></trkpt><trkpt lat="45.57529337528862" lon="10.826254186752882"><ele>119.33333333333333</ele><time>2026-05-02T07:34:38Z</time></trkpt><trkpt lat="45.575462642873894" lon="10.826425931213512"><ele>113.66666666666666</ele><time>2026-05-02T07:34:39Z</time></trkpt><trkpt lat="45.57563533060815" lon="10.826639838566221"><ele>108.0</ele><time>2026-05-02T07:34:40Z</time></trkpt><trkpt lat="45.57579977881195" lon="10.82688903736504"><ele>126.5</ele><time>2026-05-02T07:34:41Z</time></trkpt><trkpt lat="45.57595625155318" lon="10.827151817357604"><ele>145.0</ele><time>2026-05-02T07:34:42Z</time></trkpt><trkpt lat="45.57611877574005" lon="10.82740152328446"><ele>131.5</ele><time>2026-05-02T07:34:43Z</time></trkpt><trkpt lat="45.57628166932572" lon="10.827681779684621"><ele>118.0</ele><time>2026-05-02T07:34:44Z</time></trkpt><trkpt lat="45.576432508149395" lon="10.827975430836908"><ele>118.0</ele><time>2026-05-02T07:34:45Z</time></trkpt><trkpt lat="45.57657220080202" lon="10.82830075429327"><ele>118.0</ele><time>2026-05-02T07:34:46Z</time></trkpt><trkpt lat="45.57671442559874" lon="10.828649996910201"><ele>128.5</ele><time>2026-05-02T07:34:47Z</time></trkpt><trkpt lat="45.5768598270997" lon="10.828997241649647"><ele>139.0</ele><time>2026-05-02T07:34:48Z</time></trkpt><trkpt lat="45.57698921762174" lon="10.829316954507886"><ele>121.5</ele><time>2026-05-02T07:34:49Z</time></trkpt><trkpt lat="45.57711243762038" lon="10.829615478006433"><ele>104.0</ele><time>2026-05-02T07:34:50Z</time></trkpt><trkpt lat="45.57722726879216" lon="10.829897203883604"><ele>104.0</ele><time>2026-05-02T07:34:51Z</time></trkpt><trkpt lat="45.57734140629473" lon="10.830171291664074"><ele>104.0</ele><time>2026-05-02T07:34:52Z</time></trkpt><trkpt lat="45.57747664191713" lon="10.83043711259553"><ele>104.0</ele><time>2026-05-02T07:34:53Z</time></trkpt><trkpt lat="45.577635597974776" lon="10.830719518620393"><ele>104.0</ele><time>2026-05-02T07:34:53.999Z</time></trkpt><trkpt lat="45.57780584282758" lon="10.831006807390603"><ele>104.0</ele><time>2026-05-02T07:34:54.999Z</time></trkpt><trkpt lat="45.57799323282287" lon="10.831306313017288"><ele>104.0</ele><time>2026-05-02T07:34:55.999Z</time></trkpt><trkpt lat="45.57819339915695" lon="10.831618158712889"><ele>104.5</ele><time>2026-05-02T07:34:56.999Z</time></trkpt><trkpt lat="45.57841534821617" lon="10.83192634375598"><ele>105.0</ele><time>2026-05-02T07:34:57.999Z</time></trkpt><trkpt lat="45.5786466477013" lon="10.832203736904665"><ele>105.5</ele><time>2026-05-02T07:34:58.999Z</time></trkpt><trkpt lat="45.57887821292076" lon="10.832466952429279"><ele>106.0</ele><time>2026-05-02T07:34:59.999Z</time></trkpt><trkpt lat="45.57911923116706" lon="10.832721685759791"><ele>107.0</ele><time>2026-05-02T07:35:00.999Z</time></trkpt><trkpt lat="45.57934461739469" lon="10.833003827667925"><ele>108.0</ele><time>2026-05-02T07:35:01.999Z</time></trkpt><trkpt lat="45.57957195858527" lon="10.833285126684164"><ele>105.0</ele><time>2026-05-02T07:35:02.999Z</time></trkpt><trkpt lat="45.57979544767546" lon="10.83356465972994"><ele>102.0</ele><time>2026-05-02T07:35:03.999Z</time></trkpt><trkpt lat="45.58001002821324" lon="10.833834335073284"><ele>102.0</ele><time>2026-05-02T07:35:04.999Z</time></trkpt><trkpt lat="45.580217454856346" lon="10.834091281219067"><ele>102.0</ele><time>2026-05-02T07:35:05.999Z</time></trkpt><trkpt lat="45.58040602513306" lon="10.834357855656828"><ele>102.5</ele><time>2026-05-02T07:35:06.999Z</time></trkpt><trkpt lat="45.58057461135224" lon="10.834656833223791"><ele>103.0</ele><time>2026-05-02T07:35:07.999Z</time></trkpt><trkpt lat="45.58072732878629" lon="10.834973677770735"><ele>103.5</ele><time>2026-05-02T07:35:08.999Z</time></trkpt><trkpt lat="45.5808639498482" lon="10.835309406014742"><ele>104.0</ele><time>2026-05-02T07:35:09.999Z</time></trkpt><trkpt lat="45.580989822416754" lon="10.835660261147204"><ele>104.0</ele><time>2026-05-02T07:35:10.999Z</time></trkpt><trkpt lat="45.58111136566202" lon="10.836021978562153"><ele>104.0</ele><time>2026-05-02T07:35:11.999Z</time></trkpt><trkpt lat="45.58121520830786" lon="10.836407235407346"><ele>104.0</ele><time>2026-05-02T07:35:12.999Z</time></trkpt><trkpt lat="45.581342001413724" lon="10.836789488762872"><ele>104.0</ele><time>2026-05-02T07:35:13.999Z</time></trkpt><trkpt lat="45.58146919915727" lon="10.837173086717161"><ele>105.5</ele><time>2026-05-02T07:35:14.999Z</time></trkpt><trkpt lat="45.58159709052861" lon="10.837558991853115"><ele>107.0</ele><time>2026-05-02T07:35:15.999Z</time></trkpt><trkpt lat="45.581725531383334" lon="10.83794577814599"><ele>112.0</ele><time>2026-05-02T07:35:16.999Z</time></trkpt><trkpt lat="45.5818674107989" lon="10.838323706842433"><ele>117.0</ele><time>2026-05-02T07:35:17.999Z</time></trkpt><trkpt lat="45.581992850374625" lon="10.83871386556689"><ele>114.5</ele><time>2026-05-02T07:35:18.999Z</time></trkpt><trkpt lat="45.58212109560724" lon="10.83909617127707"><ele>112.0</ele><time>2026-05-02T07:35:19.999Z</time></trkpt><trkpt lat="45.5822396066414" lon="10.839453801169702"><ele>112.0</ele><time>2026-05-02T07:35:20.999Z</time></trkpt><trkpt lat="45.58234691304917" lon="10.839782740173971"><ele>112.0</ele><time>2026-05-02T07:35:21.999Z</time></trkpt><trkpt lat="45.58244729077277" lon="10.840088304842995"><ele>120.0</ele><time>2026-05-02T07:35:22.999Z</time></trkpt><trkpt lat="45.58254689242502" lon="10.840373282242629"><ele>128.0</ele><time>2026-05-02T07:35:23.999Z</time></trkpt><trkpt lat="45.58266461472041" lon="10.84066014975217"><ele>128.0</ele><time>2026-05-02T07:35:24.999Z</time></trkpt><trkpt lat="45.5828005250758" lon="10.840951718385943"><ele>128.0</ele><time>2026-05-02T07:35:25.999Z</time></trkpt><trkpt lat="45.58295019087238" lon="10.841251321281161"><ele>128.5</ele><time>2026-05-02T07:35:26.999Z</time></trkpt><trkpt lat="45.58310489707869" lon="10.8415545536015"><ele>129.0</ele><time>2026-05-02T07:35:27.999Z</time></trkpt><trkpt lat="45.58327421435067" lon="10.8418630248665"><ele>129.0</ele><time>2026-05-02T07:35:28.999Z</time></trkpt><trkpt lat="45.583453541068096" lon="10.842173063519457"><ele>129.0</ele><time>2026-05-02T07:35:29.999Z</time></trkpt><trkpt lat="45.58364296692848" lon="10.84249494236952"><ele>124.5</ele><time>2026-05-02T07:35:30.999Z</time></trkpt><trkpt lat="45.58382550359642" lon="10.842811453258209"><ele>120.0</ele><time>2026-05-02T07:35:31.999Z</time></trkpt><trkpt lat="45.583993274909204" lon="10.84310438262907"><ele>120.0</ele><time>2026-05-02T07:35:32.999Z</time></trkpt><trkpt lat="45.58416563757699" lon="10.843389175270232"><ele>120.0</ele><time>2026-05-02T07:35:33.999Z</time></trkpt><trkpt lat="45.58435600013881" lon="10.843654342822376"><ele>116.0</ele><time>2026-05-02T07:35:34.999Z</time></trkpt><trkpt lat="45.58456333448944" lon="10.843902355958816"><ele>112.0</ele><time>2026-05-02T07:35:35.999Z</time></trkpt><trkpt lat="45.58478846017129" lon="10.844135592993737"><ele>122.5</ele><time>2026-05-02T07:35:36.999Z</time></trkpt><trkpt lat="45.58501810419095" lon="10.844366787429387"><ele>133.0</ele><time>2026-05-02T07:35:37.999Z</time></trkpt><trkpt lat="45.58523372195101" lon="10.844598313502086"><ele>122.0</ele><time>2026-05-02T07:35:38.999Z</time></trkpt><trkpt lat="45.58543459741149" lon="10.844815104385257"><ele>111.0</ele><time>2026-05-02T07:35:40Z</time></trkpt><trkpt lat="45.58564587770966" lon="10.845023874964722"><ele>120.0</ele><time>2026-05-02T07:35:41Z</time></trkpt><trkpt lat="45.58586200606526" lon="10.84521574182089"><ele>129.0</ele><time>2026-05-02T07:35:42Z</time></trkpt><trkpt lat="45.58607632179437" lon="10.845412361824843"><ele>119.5</ele><time>2026-05-02T07:35:43Z</time></trkpt><trkpt lat="45.58629325980498" lon="10.845620867471666"><ele>110.0</ele><time>2026-05-02T07:35:44Z</time></trkpt><trkpt lat="45.58650656308855" lon="10.845825109109002"><ele>117.5</ele><time>2026-05-02T07:35:45Z</time></trkpt><trkpt lat="45.58672180517263" lon="10.846028934535042"><ele>125.0</ele><time>2026-05-02T07:35:46Z</time></trkpt><trkpt lat="45.58693287706458" lon="10.846225525738934"><ele>119.0</ele><time>2026-05-02T07:35:47Z</time></trkpt><trkpt lat="45.58713400367198" lon="10.846402112212948"><ele>113.0</ele><time>2026-05-02T07:35:48Z</time></trkpt><trkpt lat="45.58732896927852" lon="10.846559738485505"><ele>113.0</ele><time>2026-05-02T07:35:49Z</time></trkpt><trkpt lat="45.587512325113124" lon="10.846701591843011"><ele>113.0</ele><time>2026-05-02T07:35:50Z</time></trkpt><trkpt lat="45.58767869783326" lon="10.846830098141824"><ele>113.0</ele><time>2026-05-02T07:35:51Z</time></trkpt><trkpt lat="45.5878409002394" lon="10.84695794487888"><ele>114.66666666666666</ele><time>2026-05-02T07:35:52Z</time></trkpt><trkpt lat="45.58799800694944" lon="10.84708477521913"><ele>116.33333333333334</ele><time>2026-05-02T07:35:53Z</time></trkpt><trkpt lat="45.58816243400031" lon="10.847212150799056"><ele>118.0</ele><time>2026-05-02T07:35:54Z</time></trkpt><trkpt lat="45.58834454605222" lon="10.847322776645461"><ele>118.0</ele><time>2026-05-02T07:35:55Z</time></trkpt><trkpt lat="45.5885432471317" lon="10.84740870022159"><ele>118.0</ele><time>2026-05-02T07:35:56Z</time></trkpt><trkpt lat="45.58873786543247" lon="10.847478954463785"><ele>118.0</ele><time>2026-05-02T07:35:57Z</time></trkpt><trkpt lat="45.58891781549123" lon="10.847536147017742"><ele>121.33333333333334</ele><time>2026-05-02T07:35:58Z</time></trkpt><trkpt lat="45.589082731405774" lon="10.84763130748267"><ele>124.66666666666666</ele><time>2026-05-02T07:35:59Z</time></trkpt><trkpt lat="45.58924372106755" lon="10.847713602253995"><ele>128.0</ele><time>2026-05-02T07:36:00Z</time></trkpt><trkpt lat="45.58939688102006" lon="10.847797896140888"><ele>122.33333333333333</ele><time>2026-05-02T07:36:01Z</time></trkpt><trkpt lat="45.58955114309316" lon="10.847865924968985"><ele>116.66666666666666</ele><time>2026-05-02T07:36:02Z</time></trkpt><trkpt lat="45.5896882816973" lon="10.84795566690986"><ele>111.0</ele><time>2026-05-02T07:36:03Z</time></trkpt><trkpt lat="45.58982611902421" lon="10.848042751088899"><ele>111.0</ele><time>2026-05-02T07:36:04Z</time></trkpt><trkpt lat="45.5899654120274" lon="10.848130450790364"><ele>111.0</ele><time>2026-05-02T07:36:05Z</time></trkpt><trkpt lat="45.59008645273369" lon="10.84825805894481"><ele>111.0</ele><time>2026-05-02T07:36:06Z</time></trkpt><trkpt lat="45.590207157120986" lon="10.848395170805635"><ele>112.0</ele><time>2026-05-02T07:36:07Z</time></trkpt><trkpt lat="45.59032789617875" lon="10.848553803628269"><ele>113.0</ele><time>2026-05-02T07:36:08Z</time></trkpt><trkpt lat="45.590456136612545" lon="10.84872543264329"><ele>114.0</ele><time>2026-05-02T07:36:09Z</time></trkpt><trkpt lat="45.59062319527229" lon="10.848897735510674"><ele>114.0</ele><time>2026-05-02T07:36:10Z</time></trkpt><trkpt lat="45.59082561317417" lon="10.848995829283387"><ele>114.0</ele><time>2026-05-02T07:36:11Z</time></trkpt><trkpt lat="45.591046586930645" lon="10.849116872936838"><ele>110.5</ele><time>2026-05-02T07:36:12Z</time></trkpt><trkpt lat="45.5913179825548" lon="10.849238394677995"><ele>107.0</ele><time>2026-05-02T07:36:13Z</time></trkpt><trkpt lat="45.59161992939252" lon="10.849370422540595"><ele>111.0</ele><time>2026-05-02T07:36:14Z</time></trkpt><trkpt lat="45.59195181411508" lon="10.849462553484244"><ele>115.0</ele><time>2026-05-02T07:36:15Z</time></trkpt><trkpt lat="45.59227592557564" lon="10.84963476137231"><ele>115.0</ele><time>2026-05-02T07:36:16Z</time></trkpt><trkpt lat="45.59259515858297" lon="10.849807572272747"><ele>115.0</ele><time>2026-05-02T07:36:17Z</time></trkpt><trkpt lat="45.5928813298516" lon="10.849992337927809"><ele>121.0</ele><time>2026-05-02T07:36:18Z</time></trkpt><trkpt lat="45.59315894211424" lon="10.850165397088348"><ele>127.0</ele><time>2026-05-02T07:36:19Z</time></trkpt><trkpt lat="45.593418629860494" lon="10.85030963006232"><ele>116.0</ele><time>2026-05-02T07:36:20Z</time></trkpt><trkpt lat="45.59368667890155" lon="10.85043729139856"><ele>105.0</ele><time>2026-05-02T07:36:21Z</time></trkpt><trkpt lat="45.59396433220305" lon="10.850532607840218"><ele>105.0</ele><time>2026-05-02T07:36:22Z</time></trkpt><trkpt lat="45.5942492818879" lon="10.850577867311808"><ele>105.0</ele><time>2026-05-02T07:36:23Z</time></trkpt><trkpt lat="45.59453621279999" lon="10.850605707682183"><ele>104.5</ele><time>2026-05-02T07:36:24Z</time></trkpt><trkpt lat="45.59483101366126" lon="10.850604557582193"><ele>104.0</ele><time>2026-05-02T07:36:25Z</time></trkpt><trkpt lat="45.59513200367712" lon="10.850563111945025"><ele>103.5</ele><time>2026-05-02T07:36:26Z</time></trkpt><trkpt lat="45.595438417300976" lon="10.85047192509629"><ele>103.0</ele><time>2026-05-02T07:36:27Z</time></trkpt><trkpt lat="45.595772142827805" lon="10.85036898382488"><ele>103.0</ele><time>2026-05-02T07:36:28Z</time></trkpt><trkpt lat="45.59611396577533" lon="10.850271365565337"><ele>103.0</ele><time>2026-05-02T07:36:29Z</time></trkpt><trkpt lat="45.59645118329289" lon="10.850177053209848"><ele>103.0</ele><time>2026-05-02T07:36:30Z</time></trkpt><trkpt lat="45.59677118551755" lon="10.850089719434942"><ele>103.0</ele><time>2026-05-02T07:36:31Z</time></trkpt><trkpt lat="45.597077764459776" lon="10.850008653884142"><ele>103.0</ele><time>2026-05-02T07:36:32Z</time></trkpt><trkpt lat="45.59738170933388" lon="10.849940760616542"><ele>103.0</ele><time>2026-05-02T07:36:33Z</time></trkpt><trkpt lat="45.59768208577132" lon="10.849907706340119"><ele>105.0</ele><time>2026-05-02T07:36:34Z</time></trkpt><trkpt lat="45.5979788232803" lon="10.849901508270252"><ele>107.0</ele><time>2026-05-02T07:36:35Z</time></trkpt><trkpt lat="45.598271960546164" lon="10.849916154449534"><ele>107.0</ele><time>2026-05-02T07:36:36Z</time></trkpt><trkpt lat="45.59856430334558" lon="10.849954373282872"><ele>107.0</ele><time>2026-05-02T07:36:37Z</time></trkpt><trkpt lat="45.59884934209182" lon="10.850017565984032"><ele>109.0</ele><time>2026-05-02T07:36:38Z</time></trkpt><trkpt lat="45.599120002278916" lon="10.850102153147327"><ele>111.0</ele><time>2026-05-02T07:36:39Z</time></trkpt><trkpt lat="45.599372267606554" lon="10.850201634357186"><ele>111.5</ele><time>2026-05-02T07:36:40Z</time></trkpt><trkpt lat="45.59962648344792" lon="10.850316122345777"><ele>112.0</ele><time>2026-05-02T07:36:41Z</time></trkpt><trkpt lat="45.599890564259205" lon="10.850461809416384"><ele>112.0</ele><time>2026-05-02T07:36:42Z</time></trkpt><trkpt lat="45.600149027053696" lon="10.850620470776205"><ele>112.0</ele><time>2026-05-02T07:36:43Z</time></trkpt><trkpt lat="45.60038922570978" lon="10.850804626602457"><ele>113.0</ele><time>2026-05-02T07:36:44Z</time></trkpt><trkpt lat="45.6006230890274" lon="10.850995334952685"><ele>114.0</ele><time>2026-05-02T07:36:45Z</time></trkpt><trkpt lat="45.600857659410764" lon="10.851188313742124"><ele>114.0</ele><time>2026-05-02T07:36:46Z</time></trkpt><trkpt lat="45.60110063431663" lon="10.851381105642481"><ele>114.0</ele><time>2026-05-02T07:36:47Z</time></trkpt><trkpt lat="45.601350407513166" lon="10.851579066154796"><ele>113.5</ele><time>2026-05-02T07:36:48Z</time></trkpt><trkpt lat="45.60160530614648" lon="10.851776542920005"><ele>113.0</ele><time>2026-05-02T07:36:49Z</time></trkpt><trkpt lat="45.60186226953531" lon="10.85196710666799"><ele>114.0</ele><time>2026-05-02T07:36:50Z</time></trkpt><trkpt lat="45.602138733016915" lon="10.852138087077732"><ele>115.0</ele><time>2026-05-02T07:36:51Z</time></trkpt><trkpt lat="45.60243254712164" lon="10.852284188550652"><ele>115.0</ele><time>2026-05-02T07:36:52Z</time></trkpt><trkpt lat="45.60271373799037" lon="10.852413641476"><ele>115.0</ele><time>2026-05-02T07:36:53Z</time></trkpt><trkpt lat="45.60297511477679" lon="10.852543939066244"><ele>119.0</ele><time>2026-05-02T07:36:54Z</time></trkpt><trkpt lat="45.60321222907147" lon="10.852665182777528"><ele>123.0</ele><time>2026-05-02T07:36:55Z</time></trkpt><trkpt lat="45.603436049548584" lon="10.85278469679164"><ele>123.0</ele><time>2026-05-02T07:36:56Z</time></trkpt><trkpt lat="45.60366061764195" lon="10.852919685130546"><ele>123.0</ele><time>2026-05-02T07:36:56.999Z</time></trkpt><trkpt lat="45.60388622780252" lon="10.853077096323146"><ele>124.5</ele><time>2026-05-02T07:36:57.999Z</time></trkpt><trkpt lat="45.60411099361327" lon="10.853280406693637"><ele>126.0</ele><time>2026-05-02T07:36:58.999Z</time></trkpt><trkpt lat="45.60433949813118" lon="10.853513280239035"><ele>120.5</ele><time>2026-05-02T07:36:59.999Z</time></trkpt><trkpt lat="45.604571818626724" lon="10.853770853092277"><ele>115.0</ele><time>2026-05-02T07:37:00.999Z</time></trkpt><trkpt lat="45.60479919749726" lon="10.854027977471729"><ele>119.5</ele><time>2026-05-02T07:37:01.999Z</time></trkpt><trkpt lat="45.60502930298771" lon="10.854288139945778"><ele>124.0</ele><time>2026-05-02T07:37:02.999Z</time></trkpt><trkpt lat="45.6052543817186" lon="10.854523206366453"><ele>118.5</ele><time>2026-05-02T07:37:03.999Z</time></trkpt><trkpt lat="45.6054540258276" lon="10.854745866189496"><ele>113.0</ele><time>2026-05-02T07:37:04.999Z</time></trkpt><trkpt lat="45.60561817627223" lon="10.85497214326992"><ele>115.33333333333333</ele><time>2026-05-02T07:37:05.999Z</time></trkpt><trkpt lat="45.60576009522108" lon="10.855220652999922"><ele>117.66666666666666</ele><time>2026-05-02T07:37:06.999Z</time></trkpt><trkpt lat="45.60589297063653" lon="10.85547727141056"><ele>120.0</ele><time>2026-05-02T07:37:07.999Z</time></trkpt><trkpt lat="45.60603767858575" lon="10.855711324690285"><ele>117.5</ele><time>2026-05-02T07:37:08.999Z</time></trkpt><trkpt lat="45.60620912396403" lon="10.855925729243886"><ele>115.0</ele><time>2026-05-02T07:37:09.999Z</time></trkpt><trkpt lat="45.60640914670358" lon="10.856127984539983"><ele>115.0</ele><time>2026-05-02T07:37:10.999Z</time></trkpt><trkpt lat="45.60662978386569" lon="10.856315589385497"><ele>115.0</ele><time>2026-05-02T07:37:11.999Z</time></trkpt><trkpt lat="45.60684976505411" lon="10.85650081667583"><ele>117.0</ele><time>2026-05-02T07:37:12.999Z</time></trkpt><trkpt lat="45.607066115381876" lon="10.856683668022024"><ele>119.0</ele><time>2026-05-02T07:37:13.999Z</time></trkpt><trkpt lat="45.60727775327625" lon="10.856845414798364"><ele>119.0</ele><time>2026-05-02T07:37:14.999Z</time></trkpt><trkpt lat="45.60751438830605" lon="10.856955136782537"><ele>119.0</ele><time>2026-05-02T07:37:15.999Z</time></trkpt><trkpt lat="45.607765690500145" lon="10.857042020766716"><ele>117.0</ele><time>2026-05-02T07:37:16.999Z</time></trkpt><trkpt lat="45.60803760907293" lon="10.85712859141525"><ele>115.0</ele><time>2026-05-02T07:37:17.999Z</time></trkpt><trkpt lat="45.60831112399056" lon="10.857221805415298"><ele>115.0</ele><time>2026-05-02T07:37:18.999Z</time></trkpt><trkpt lat="45.60855479188588" lon="10.857309065875372"><ele>115.0</ele><time>2026-05-02T07:37:19.999Z</time></trkpt><trkpt lat="45.60878194116339" lon="10.85739443402883"><ele>115.0</ele><time>2026-05-02T07:37:20.999Z</time></trkpt><trkpt lat="45.60899971720339" lon="10.857484663835752"><ele>115.0</ele><time>2026-05-02T07:37:21.999Z</time></trkpt><trkpt lat="45.609180091412284" lon="10.857635611364534"><ele>115.0</ele><time>2026-05-02T07:37:22.999Z</time></trkpt><trkpt lat="45.60936575623217" lon="10.857808854107079"><ele>117.5</ele><time>2026-05-02T07:37:23.999Z</time></trkpt><trkpt lat="45.609539178600535" lon="10.85801700021012"><ele>120.0</ele><time>2026-05-02T07:37:24.999Z</time></trkpt><trkpt lat="45.609725387091444" lon="10.858246285519352"><ele>120.0</ele><time>2026-05-02T07:37:25.999Z</time></trkpt><trkpt lat="45.609915436742675" lon="10.858448715547476"><ele>120.0</ele><time>2026-05-02T07:37:26.999Z</time></trkpt><trkpt lat="45.61013209039279" lon="10.858636372676415"><ele>118.5</ele><time>2026-05-02T07:37:27.999Z</time></trkpt><trkpt lat="45.610372164678466" lon="10.858859785464139"><ele>117.0</ele><time>2026-05-02T07:37:28.999Z</time></trkpt><trkpt lat="45.61060754508065" lon="10.85907696261351"><ele>117.0</ele><time>2026-05-02T07:37:29.999Z</time></trkpt><trkpt lat="45.610839439882525" lon="10.859282397008778"><ele>117.0</ele><time>2026-05-02T07:37:30.999Z</time></trkpt><trkpt lat="45.61107211823391" lon="10.859450499299731"><ele>117.0</ele><time>2026-05-02T07:37:31.999Z</time></trkpt><trkpt lat="45.61129903038506" lon="10.859614356484363"><ele>117.0</ele><time>2026-05-02T07:37:32.999Z</time></trkpt><trkpt lat="45.61149990650984" lon="10.85983520398284"><ele>117.0</ele><time>2026-05-02T07:37:33.999Z</time></trkpt><trkpt lat="45.61173539431063" lon="10.86005027588734"><ele>117.0</ele><time>2026-05-02T07:37:34.999Z</time></trkpt><trkpt lat="45.61196000340096" lon="10.860277313292091"><ele>120.5</ele><time>2026-05-02T07:37:35.999Z</time></trkpt><trkpt lat="45.612188169904215" lon="10.860483115063486"><ele>124.0</ele><time>2026-05-02T07:37:36.999Z</time></trkpt><trkpt lat="45.61242535354726" lon="10.860671451032184"><ele>124.0</ele><time>2026-05-02T07:37:37.999Z</time></trkpt><trkpt lat="45.61267723551899" lon="10.860841574588065"><ele>124.0</ele><time>2026-05-02T07:37:38.999Z</time></trkpt><trkpt lat="45.612924231695956" lon="10.861002249674389"><ele>126.5</ele><time>2026-05-02T07:37:39.999Z</time></trkpt><trkpt lat="45.613153982954984" lon="10.861148409857355"><ele>129.0</ele><time>2026-05-02T07:37:40.999Z</time></trkpt><trkpt lat="45.61336625028292" lon="10.861286838122865"><ele>129.0</ele><time>2026-05-02T07:37:41.999Z</time></trkpt><trkpt lat="45.61357400094001" lon="10.861441496209178"><ele>129.0</ele><time>2026-05-02T07:37:42.999Z</time></trkpt><trkpt lat="45.61378946849003" lon="10.861623092687193"><ele>129.5</ele><time>2026-05-02T07:37:43.999Z</time></trkpt><trkpt lat="45.6139994019457" lon="10.861787936633819"><ele>130.0</ele><time>2026-05-02T07:37:44.999Z</time></trkpt><trkpt lat="45.61422287653923" lon="10.86190255080274"><ele>130.0</ele><time>2026-05-02T07:37:46Z</time></trkpt><trkpt lat="45.614456846767226" lon="10.861938974138099"><ele>130.0</ele><time>2026-05-02T07:37:47Z</time></trkpt><trkpt lat="45.614676213908766" lon="10.862005110930172"><ele>127.0</ele><time>2026-05-02T07:37:48Z</time></trkpt><trkpt lat="45.61489049979839" lon="10.862104416541351"><ele>124.0</ele><time>2026-05-02T07:37:49Z</time></trkpt><trkpt lat="45.61511394145308" lon="10.862243558854827"><ele>125.0</ele><time>2026-05-02T07:37:50Z</time></trkpt><trkpt lat="45.615339340721405" lon="10.862415125889731"><ele>126.0</ele><time>2026-05-02T07:37:51Z</time></trkpt><trkpt lat="45.61556125549058" lon="10.86262185107994"><ele>126.0</ele><time>2026-05-02T07:37:52Z</time></trkpt><trkpt lat="45.615772298473985" lon="10.862839839559932"><ele>126.0</ele><time>2026-05-02T07:37:53Z</time></trkpt><trkpt lat="45.615977839681946" lon="10.863023738016354"><ele>123.5</ele><time>2026-05-02T07:37:54Z</time></trkpt><trkpt lat="45.616208841892316" lon="10.863152871889543"><ele>121.0</ele><time>2026-05-02T07:37:55Z</time></trkpt><trkpt lat="45.61646807917814" lon="10.863260943049402"><ele>121.0</ele><time>2026-05-02T07:37:56Z</time></trkpt><trkpt lat="45.61673024935438" lon="10.863364327160966"><ele>121.0</ele><time>2026-05-02T07:37:57Z</time></trkpt><trkpt lat="45.61697480964063" lon="10.86350208291894"><ele>123.0</ele><time>2026-05-02T07:37:58Z</time></trkpt><trkpt lat="45.61721534034915" lon="10.863676107203785"><ele>125.0</ele><time>2026-05-02T07:37:59Z</time></trkpt><trkpt lat="45.61745945397257" lon="10.86387074201796"><ele>125.0</ele><time>2026-05-02T07:38:00Z</time></trkpt><trkpt lat="45.617696600526635" lon="10.864058400802366"><ele>125.0</ele><time>2026-05-02T07:38:01Z</time></trkpt><trkpt lat="45.617929855805194" lon="10.864234916893388"><ele>126.5</ele><time>2026-05-02T07:38:02Z</time></trkpt><trkpt lat="45.618155632514856" lon="10.864403869524589"><ele>128.0</ele><time>2026-05-02T07:38:03Z</time></trkpt><trkpt lat="45.61835791262227" lon="10.86455325433191"><ele>128.0</ele><time>2026-05-02T07:38:04Z</time></trkpt><trkpt lat="45.618524202477246" lon="10.864675169182338"><ele>128.0</ele><time>2026-05-02T07:38:05Z</time></trkpt><trkpt lat="45.618680433100494" lon="10.864791488735833"><ele>128.0</ele><time>2026-05-02T07:38:06Z</time></trkpt><trkpt lat="45.618824937660015" lon="10.86491527955745"><ele>128.33333333333331</ele><time>2026-05-02T07:38:07Z</time></trkpt><trkpt lat="45.61893812844174" lon="10.8651035451964"><ele>128.66666666666666</ele><time>2026-05-02T07:38:08Z</time></trkpt><trkpt lat="45.61906222499793" lon="10.86530524180564"><ele>129.0</ele><time>2026-05-02T07:38:09Z</time></trkpt><trkpt lat="45.61920088206556" lon="10.865515822719269"><ele>129.0</ele><time>2026-05-02T07:38:10Z</time></trkpt><trkpt lat="45.6193474357835" lon="10.865753967616753"><ele>129.0</ele><time>2026-05-02T07:38:11Z</time></trkpt><trkpt lat="45.6195008228193" lon="10.866006291563924"><ele>125.5</ele><time>2026-05-02T07:38:12Z</time></trkpt><trkpt lat="45.61966544670466" lon="10.866271715322187"><ele>122.0</ele><time>2026-05-02T07:38:13Z</time></trkpt><trkpt lat="45.61983205933051" lon="10.86653758542984"><ele>130.0</ele><time>2026-05-02T07:38:14Z</time></trkpt><trkpt lat="45.61999903205953" lon="10.86679067628489"><ele>138.0</ele><time>2026-05-02T07:38:15Z</time></trkpt><trkpt lat="45.620162087528804" lon="10.867056139224406"><ele>128.5</ele><time>2026-05-02T07:38:16Z</time></trkpt><trkpt lat="45.620357091340914" lon="10.867297821238292"><ele>119.0</ele><time>2026-05-02T07:38:17Z</time></trkpt><trkpt lat="45.62055593414298" lon="10.867571784712117"><ele>127.0</ele><time>2026-05-02T07:38:18Z</time></trkpt><trkpt lat="45.620772259604585" lon="10.867850838533785"><ele>135.0</ele><time>2026-05-02T07:38:19Z</time></trkpt><trkpt lat="45.62100611840255" lon="10.868123139875879"><ele>135.0</ele><time>2026-05-02T07:38:20Z</time></trkpt><trkpt lat="45.621254825945655" lon="10.868382743844"><ele>135.0</ele><time>2026-05-02T07:38:21Z</time></trkpt><trkpt lat="45.621522396075655" lon="10.868617708539977"><ele>135.0</ele><time>2026-05-02T07:38:22Z</time></trkpt><trkpt lat="45.62179745519831" lon="10.868838261612659"><ele>135.0</ele><time>2026-05-02T07:38:23Z</time></trkpt><trkpt lat="45.6220634232213" lon="10.869078632950727"><ele>134.5</ele><time>2026-05-02T07:38:24Z</time></trkpt><trkpt lat="45.62231449860453" lon="10.869323379211004"><ele>134.0</ele><time>2026-05-02T07:38:25Z</time></trkpt><trkpt lat="45.622556140471964" lon="10.869553267684417"><ele>134.0</ele><time>2026-05-02T07:38:26Z</time></trkpt><trkpt lat="45.62280185743496" lon="10.869791243377335"><ele>134.0</ele><time>2026-05-02T07:38:27Z</time></trkpt><trkpt lat="45.62304863475552" lon="10.870036480586775"><ele>133.0</ele><time>2026-05-02T07:38:28Z</time></trkpt><trkpt lat="45.62329063255991" lon="10.870299507982677"><ele>132.0</ele><time>2026-05-02T07:38:29Z</time></trkpt><trkpt lat="45.62352387231455" lon="10.870578727721542"><ele>132.0</ele><time>2026-05-02T07:38:30Z</time></trkpt><trkpt lat="45.623739540763864" lon="10.870850592613534"><ele>132.0</ele><time>2026-05-02T07:38:31Z</time></trkpt><trkpt lat="45.62393814881943" lon="10.871105226543158"><ele>132.0</ele><time>2026-05-02T07:38:32Z</time></trkpt><trkpt lat="45.62413270798406" lon="10.871345612761852"><ele>132.0</ele><time>2026-05-02T07:38:33Z</time></trkpt><trkpt lat="45.62433497718826" lon="10.871578720830929"><ele>130.0</ele><time>2026-05-02T07:38:34Z</time></trkpt><trkpt lat="45.62455351897298" lon="10.87180082089297"><ele>128.0</ele><time>2026-05-02T07:38:35Z</time></trkpt><trkpt lat="45.62478840837755" lon="10.872009306558954"><ele>128.0</ele><time>2026-05-02T07:38:36Z</time></trkpt><trkpt lat="45.625034581012045" lon="10.872212330659142"><ele>128.0</ele><time>2026-05-02T07:38:37Z</time></trkpt><trkpt lat="45.62529034568074" lon="10.872420262901688"><ele>130.0</ele><time>2026-05-02T07:38:38Z</time></trkpt><trkpt lat="45.62554874338231" lon="10.872632514462982"><ele>132.0</ele><time>2026-05-02T07:38:39Z</time></trkpt><trkpt lat="45.62580788106732" lon="10.872847519641208"><ele>132.0</ele><time>2026-05-02T07:38:40Z</time></trkpt><trkpt lat="45.62606297497017" lon="10.87306096856724"><ele>132.0</ele><time>2026-05-02T07:38:41Z</time></trkpt><trkpt lat="45.62630953487646" lon="10.873269487787292"><ele>131.5</ele><time>2026-05-02T07:38:42Z</time></trkpt><trkpt lat="45.626542079591886" lon="10.873466029954155"><ele>131.0</ele><time>2026-05-02T07:38:43Z</time></trkpt><trkpt lat="45.62675796082489" lon="10.873655893346967"><ele>131.0</ele><time>2026-05-02T07:38:44Z</time></trkpt><trkpt lat="45.626964528900885" lon="10.873858762853631"><ele>131.0</ele><time>2026-05-02T07:38:45Z</time></trkpt><trkpt lat="45.627160164086355" lon="10.874081772632195"><ele>130.0</ele><time>2026-05-02T07:38:46Z</time></trkpt><trkpt lat="45.627355342564414" lon="10.874323600154053"><ele>129.0</ele><time>2026-05-02T07:38:47Z</time></trkpt><trkpt lat="45.62754767391952" lon="10.874586922413464"><ele>129.0</ele><time>2026-05-02T07:38:48Z</time></trkpt><trkpt lat="45.627729597256305" lon="10.87488332647742"><ele>129.0</ele><time>2026-05-02T07:38:49Z</time></trkpt><trkpt lat="45.62791008826238" lon="10.875193872571245"><ele>125.0</ele><time>2026-05-02T07:38:50Z</time></trkpt><trkpt lat="45.628089259552546" lon="10.875504897956422"><ele>121.0</ele><time>2026-05-02T07:38:51Z</time></trkpt><trkpt lat="45.628267923129556" lon="10.875807118268169"><ele>126.5</ele><time>2026-05-02T07:38:52Z</time></trkpt><trkpt lat="45.62844403537284" lon="10.876100740479032"><ele>132.0</ele><time>2026-05-02T07:38:53Z</time></trkpt><trkpt lat="45.628614980880315" lon="10.876384660468606"><ele>137.5</ele><time>2026-05-02T07:38:54Z</time></trkpt><trkpt lat="45.62878887246065" lon="10.876657376905493"><ele>143.0</ele><time>2026-05-02T07:38:55Z</time></trkpt><trkpt lat="45.62897465474252" lon="10.876920535918817"><ele>143.0</ele><time>2026-05-02T07:38:56Z</time></trkpt><trkpt lat="45.62917817781652" lon="10.877177017221358"><ele>143.0</ele><time>2026-05-02T07:38:57Z</time></trkpt><trkpt lat="45.629402687747046" lon="10.877424033319032"><ele>144.0</ele><time>2026-05-02T07:38:58Z</time></trkpt><trkpt lat="45.6296360408879" lon="10.877666848514016"><ele>145.0</ele><time>2026-05-02T07:38:59Z</time></trkpt><trkpt lat="45.62987671785717" lon="10.877906455853031"><ele>145.0</ele><time>2026-05-02T07:39:00Z</time></trkpt><trkpt lat="45.630129193518066" lon="10.878134845554952"><ele>145.0</ele><time>2026-05-02T07:39:01Z</time></trkpt><trkpt lat="45.63039090955984" lon="10.878352049379552"><ele>146.0</ele><time>2026-05-02T07:39:02Z</time></trkpt><trkpt lat="45.63065050332194" lon="10.87856048569638"><ele>147.0</ele><time>2026-05-02T07:39:03Z</time></trkpt><trkpt lat="45.63090814537907" lon="10.87877478337262"><ele>135.5</ele><time>2026-05-02T07:39:04Z</time></trkpt><trkpt lat="45.63115117100331" lon="10.878991086000024"><ele>124.0</ele><time>2026-05-02T07:39:04.999Z</time></trkpt><trkpt lat="45.63137951843232" lon="10.879196142025474"><ele>138.5</ele><time>2026-05-02T07:39:05.999Z</time></trkpt><trkpt lat="45.6316144272403" lon="10.879380042603836"><ele>153.0</ele><time>2026-05-02T07:39:06.999Z</time></trkpt><trkpt lat="45.631854998337516" lon="10.879547136843508"><ele>141.0</ele><time>2026-05-02T07:39:07.999Z</time></trkpt><trkpt lat="45.63209899282926" lon="10.879683792818053"><ele>129.0</ele><time>2026-05-02T07:39:08.999Z</time></trkpt><trkpt lat="45.63234982201268" lon="10.879796090536264"><ele>129.0</ele><time>2026-05-02T07:39:09.999Z</time></trkpt><trkpt lat="45.63260024077657" lon="10.879896470478077"><ele>129.0</ele><time>2026-05-02T07:39:10.999Z</time></trkpt><trkpt lat="45.632846446082226" lon="10.879960770027095"><ele>127.0</ele><time>2026-05-02T07:39:11.999Z</time></trkpt><trkpt lat="45.63309466489467" lon="10.880015769703139"><ele>125.0</ele><time>2026-05-02T07:39:12.999Z</time></trkpt><trkpt lat="45.63331225341743" lon="10.880048057005366"><ele>125.0</ele><time>2026-05-02T07:39:13.999Z</time></trkpt><trkpt lat="45.63350495545986" lon="10.8800951094373"><ele>125.0</ele><time>2026-05-02T07:39:14.999Z</time></trkpt><trkpt lat="45.63367796548749" lon="10.880145846286096"><ele>125.0</ele><time>2026-05-02T07:39:15.999Z</time></trkpt><trkpt lat="45.6338516378182" lon="10.880213308020645"><ele>126.0</ele><time>2026-05-02T07:39:16.999Z</time></trkpt><trkpt lat="45.63402355878303" lon="10.880301839299381"><ele>127.0</ele><time>2026-05-02T07:39:17.999Z</time></trkpt><trkpt lat="45.63419733122394" lon="10.880402582440789"><ele>128.0</ele><time>2026-05-02T07:39:18.999Z</time></trkpt><trkpt lat="45.63436267403363" lon="10.880522074202775"><ele>128.66666666666666</ele><time>2026-05-02T07:39:19.999Z</time></trkpt><trkpt lat="45.63452401113629" lon="10.88067316127161"><ele>129.33333333333334</ele><time>2026-05-02T07:39:20.999Z</time></trkpt><trkpt lat="45.63467256198404" lon="10.88083433896846"><ele>130.0</ele><time>2026-05-02T07:39:21.999Z</time></trkpt><trkpt lat="45.63481450164348" lon="10.881003712199252"><ele>130.0</ele><time>2026-05-02T07:39:22.999Z</time></trkpt><trkpt lat="45.63494894311073" lon="10.881183601662658"><ele>130.0</ele><time>2026-05-02T07:39:23.999Z</time></trkpt><trkpt lat="45.63506198756038" lon="10.881400683200042"><ele>130.0</ele><time>2026-05-02T07:39:24.999Z</time></trkpt><trkpt lat="45.63515849227115" lon="10.881647832982326"><ele>129.33333333333334</ele><time>2026-05-02T07:39:25.999Z</time></trkpt><trkpt lat="45.63524210094382" lon="10.881895840000679"><ele>128.66666666666666</ele><time>2026-05-02T07:39:26.999Z</time></trkpt><trkpt lat="45.63532254139892" lon="10.882115593717325"><ele>128.0</ele><time>2026-05-02T07:39:27.999Z</time></trkpt><trkpt lat="45.635399408587936" lon="10.88230585338233"><ele>128.0</ele><time>2026-05-02T07:39:28.999Z</time></trkpt><trkpt lat="45.63547766658089" lon="10.882483316774325"><ele>128.0</ele><time>2026-05-02T07:39:29.999Z</time></trkpt><trkpt lat="45.63555612984623" lon="10.882689369361199"><ele>128.0</ele><time>2026-05-02T07:39:30.999Z</time></trkpt><trkpt lat="45.63567034993655" lon="10.882912614155185"><ele>129.0</ele><time>2026-05-02T07:39:31.999Z</time></trkpt><trkpt lat="45.63579830310854" lon="10.8831492483604"><ele>130.0</ele><time>2026-05-02T07:39:32.999Z</time></trkpt><trkpt lat="45.63591574774872" lon="10.883359575597217"><ele>131.0</ele><time>2026-05-02T07:39:33.999Z</time></trkpt><trkpt lat="45.63603303074801" lon="10.883566872416845"><ele>131.66666666666666</ele><time>2026-05-02T07:39:34.999Z</time></trkpt><trkpt lat="45.63615996538485" lon="10.883774500246636"><ele>132.33333333333334</ele><time>2026-05-02T07:39:35.999Z</time></trkpt><trkpt lat="45.63632515012645" lon="10.883987223720768"><ele>133.0</ele><time>2026-05-02T07:39:36.999Z</time></trkpt><trkpt lat="45.63654032119631" lon="10.884200528347652"><ele>132.5</ele><time>2026-05-02T07:39:37.999Z</time></trkpt><trkpt lat="45.63677899531181" lon="10.88436901061548"><ele>132.0</ele><time>2026-05-02T07:39:38.999Z</time></trkpt><trkpt lat="45.63698046198918" lon="10.884569422570376"><ele>132.0</ele><time>2026-05-02T07:39:39.999Z</time></trkpt><trkpt lat="45.6371584337822" lon="10.884772197932524"><ele>132.0</ele><time>2026-05-02T07:39:40.999Z</time></trkpt><trkpt lat="45.63734192078719" lon="10.885021326362322"><ele>136.0</ele><time>2026-05-02T07:39:41.999Z</time></trkpt><trkpt lat="45.63754470167744" lon="10.88530306349256"><ele>140.0</ele><time>2026-05-02T07:39:42.999Z</time></trkpt><trkpt lat="45.63773411025942" lon="10.88556722804492"><ele>139.0</ele><time>2026-05-02T07:39:43.999Z</time></trkpt><trkpt lat="45.637913149907675" lon="10.885811674438765"><ele>138.0</ele><time>2026-05-02T07:39:44.999Z</time></trkpt><trkpt lat="45.63809975321194" lon="10.886010389780402"><ele>138.0</ele><time>2026-05-02T07:39:45.999Z</time></trkpt><trkpt lat="45.63828633710753" lon="10.886179280335885"><ele>138.0</ele><time>2026-05-02T07:39:46.999Z</time></trkpt><trkpt lat="45.63848207839392" lon="10.886316066873585"><ele>138.0</ele><time>2026-05-02T07:39:47.999Z</time></trkpt><trkpt lat="45.63867699382717" lon="10.886444222220272"><ele>138.0</ele><time>2026-05-02T07:39:48.999Z</time></trkpt><trkpt lat="45.63883796682497" lon="10.886618425145553"><ele>138.0</ele><time>2026-05-02T07:39:49.999Z</time></trkpt><trkpt lat="45.63898125197796" lon="10.886801842628245"><ele>138.0</ele><time>2026-05-02T07:39:50.999Z</time></trkpt><trkpt lat="45.63910726910873" lon="10.8870138246542"><ele>138.0</ele><time>2026-05-02T07:39:52Z</time></trkpt><trkpt lat="45.6392169257067" lon="10.887267327679599"><ele>138.0</ele><time>2026-05-02T07:39:53Z</time></trkpt><trkpt lat="45.63932062801427" lon="10.887543821176548"><ele>138.0</ele><time>2026-05-02T07:39:54Z</time></trkpt><trkpt lat="45.63942115031232" lon="10.887813051149054"><ele>139.33333333333334</ele><time>2026-05-02T07:39:55Z</time></trkpt><trkpt lat="45.63953366781639" lon="10.888059654326637"><ele>140.66666666666669</ele><time>2026-05-02T07:39:56Z</time></trkpt><trkpt lat="45.639630695982675" lon="10.88829258372973"><ele>142.0</ele><time>2026-05-02T07:39:57Z</time></trkpt><trkpt lat="45.63974616563471" lon="10.888498466534125"><ele>142.0</ele><time>2026-05-02T07:39:58Z</time></trkpt><trkpt lat="45.639899579128" lon="10.88868621760867"><ele>142.0</ele><time>2026-05-02T07:39:59Z</time></trkpt><trkpt lat="45.64010191150872" lon="10.888861689948468"><ele>142.0</ele><time>2026-05-02T07:40:00Z</time></trkpt><trkpt lat="45.64031595089846" lon="10.889060984628589"><ele>142.5</ele><time>2026-05-02T07:40:01Z</time></trkpt><trkpt lat="45.64054161490802" lon="10.889249293302232"><ele>143.0</ele><time>2026-05-02T07:40:02Z</time></trkpt><trkpt lat="45.64076412085146" lon="10.889418342890167"><ele>143.0</ele><time>2026-05-02T07:40:03Z</time></trkpt><trkpt lat="45.640964555278764" lon="10.889580305889313"><ele>143.0</ele><time>2026-05-02T07:40:04Z</time></trkpt><trkpt lat="45.64116205952057" lon="10.889711853593516"><ele>143.0</ele><time>2026-05-02T07:40:05Z</time></trkpt><trkpt lat="45.641369840350606" lon="10.88981198863861"><ele>141.0</ele><time>2026-05-02T07:40:06Z</time></trkpt><trkpt lat="45.641611630137206" lon="10.889878750331196"><ele>139.0</ele><time>2026-05-02T07:40:07Z</time></trkpt><trkpt lat="45.64186770734418" lon="10.889914301894633"><ele>138.5</ele><time>2026-05-02T07:40:08Z</time></trkpt><trkpt lat="45.64212784969803" lon="10.88993103001266"><ele>138.0</ele><time>2026-05-02T07:40:09Z</time></trkpt><trkpt lat="45.642384751822135" lon="10.889946526732503"><ele>138.0</ele><time>2026-05-02T07:40:10Z</time></trkpt><trkpt lat="45.642625153921806" lon="10.889970193122545"><ele>138.0</ele><time>2026-05-02T07:40:11Z</time></trkpt><trkpt lat="45.642850411280776" lon="10.890006768219674"><ele>138.33333333333334</ele><time>2026-05-02T07:40:12Z</time></trkpt><trkpt lat="45.64306714709191" lon="10.890062768180666"><ele>138.66666666666669</ele><time>2026-05-02T07:40:13Z</time></trkpt><trkpt lat="45.64327546806369" lon="10.89014753230924"><ele>139.0</ele><time>2026-05-02T07:40:14Z</time></trkpt><trkpt lat="45.64347868474099" lon="10.890203523787989"><ele>135.0</ele><time>2026-05-02T07:40:15Z</time></trkpt><trkpt lat="45.64366593415237" lon="10.890418772253351"><ele>131.0</ele><time>2026-05-02T07:40:16Z</time></trkpt><trkpt lat="45.64385423299389" lon="10.89059079135177"><ele>131.0</ele><time>2026-05-02T07:40:17Z</time></trkpt><trkpt lat="45.64404319099893" lon="10.890797853439624"><ele>131.0</ele><time>2026-05-02T07:40:18Z</time></trkpt><trkpt lat="45.644223955806" lon="10.891013306548386"><ele>129.5</ele><time>2026-05-02T07:40:19Z</time></trkpt><trkpt lat="45.64439569126795" lon="10.891231076551867"><ele>128.0</ele><time>2026-05-02T07:40:20Z</time></trkpt><trkpt lat="45.644566420124264" lon="10.891461197929788"><ele>128.0</ele><time>2026-05-02T07:40:21Z</time></trkpt><trkpt lat="45.64472857673097" lon="10.891714025874244"><ele>128.0</ele><time>2026-05-02T07:40:22Z</time></trkpt><trkpt lat="45.644874522195856" lon="10.891991607700149"><ele>130.0</ele><time>2026-05-02T07:40:23Z</time></trkpt><trkpt lat="45.64500772669291" lon="10.892292050904228"><ele>132.0</ele><time>2026-05-02T07:40:24Z</time></trkpt><trkpt lat="45.645122020026264" lon="10.892601852475822"><ele>134.0</ele><time>2026-05-02T07:40:25Z</time></trkpt><trkpt lat="45.645229052675994" lon="10.89290109557242"><ele>136.0</ele><time>2026-05-02T07:40:26Z</time></trkpt><trkpt lat="45.64533840345162" lon="10.893195216764386"><ele>133.0</ele><time>2026-05-02T07:40:27Z</time></trkpt><trkpt lat="45.64543758865546" lon="10.893472836267595"><ele>130.0</ele><time>2026-05-02T07:40:28Z</time></trkpt><trkpt lat="45.64553572264815" lon="10.8937351875747"><ele>127.0</ele><time>2026-05-02T07:40:29Z</time></trkpt><trkpt lat="45.64564079724182" lon="10.893979332043818"><ele>127.0</ele><time>2026-05-02T07:40:30Z</time></trkpt><trkpt lat="45.645746524664446" lon="10.89421914159411"><ele>127.0</ele><time>2026-05-02T07:40:31Z</time></trkpt><trkpt lat="45.64586276689435" lon="10.894464869243333"><ele>127.0</ele><time>2026-05-02T07:40:32Z</time></trkpt><trkpt lat="45.64599643888333" lon="10.894719690547078"><ele>128.33333333333334</ele><time>2026-05-02T07:40:33Z</time></trkpt><trkpt lat="45.64613828713296" lon="10.89497150756199"><ele>129.66666666666666</ele><time>2026-05-02T07:40:34Z</time></trkpt><trkpt lat="45.646281751119965" lon="10.895211740273377"><ele>131.0</ele><time>2026-05-02T07:40:35Z</time></trkpt><trkpt lat="45.6464337577699" lon="10.895433547208034"><ele>131.0</ele><time>2026-05-02T07:40:36Z</time></trkpt><trkpt lat="45.646596344419386" lon="10.895643176056803"><ele>131.0</ele><time>2026-05-02T07:40:37Z</time></trkpt><trkpt lat="45.64677281831586" lon="10.895849994149211"><ele>131.0</ele><time>2026-05-02T07:40:38Z</time></trkpt><trkpt lat="45.64696460522208" lon="10.896045725788657"><ele>132.0</ele><time>2026-05-02T07:40:39Z</time></trkpt><trkpt lat="45.647159560307365" lon="10.896237162758803"><ele>133.0</ele><time>2026-05-02T07:40:40Z</time></trkpt><trkpt lat="45.647359422543836" lon="10.896419730367608"><ele>133.0</ele><time>2026-05-02T07:40:41Z</time></trkpt><trkpt lat="45.647563137587184" lon="10.896602557183167"><ele>133.0</ele><time>2026-05-02T07:40:42Z</time></trkpt><trkpt lat="45.647772489259864" lon="10.896786527604837"><ele>134.0</ele><time>2026-05-02T07:40:43Z</time></trkpt><trkpt lat="45.647993426694114" lon="10.8969722556102"><ele>135.0</ele><time>2026-05-02T07:40:44Z</time></trkpt><trkpt lat="45.64822928835373" lon="10.897156324169464"><ele>135.0</ele><time>2026-05-02T07:40:45Z</time></trkpt><trkpt lat="45.64848258965756" lon="10.897337072839422"><ele>135.0</ele><time>2026-05-02T07:40:46Z</time></trkpt><trkpt lat="45.64874702437394" lon="10.897514140029337"><ele>138.5</ele><time>2026-05-02T07:40:47Z</time></trkpt><trkpt lat="45.64902436311102" lon="10.897690087201672"><ele>142.0</ele><time>2026-05-02T07:40:48Z</time></trkpt><trkpt lat="45.64930640177858" lon="10.897854961224583"><ele>136.0</ele><time>2026-05-02T07:40:49Z</time></trkpt><trkpt lat="45.64958713680577" lon="10.898014058142504"><ele>130.0</ele><time>2026-05-02T07:40:50Z</time></trkpt><trkpt lat="45.649863397266685" lon="10.898171067132001"><ele>130.0</ele><time>2026-05-02T07:40:51Z</time></trkpt><trkpt lat="45.65013597263273" lon="10.898326061253906"><ele>130.0</ele><time>2026-05-02T07:40:52Z</time></trkpt><trkpt lat="45.6504059040748" lon="10.898481524063099"><ele>136.5</ele><time>2026-05-02T07:40:53Z</time></trkpt><trkpt lat="45.6506730632453" lon="10.898630028739587"><ele>143.0</ele><time>2026-05-02T07:40:54Z</time></trkpt><trkpt lat="45.65092812332774" lon="10.898775779417843"><ele>135.5</ele><time>2026-05-02T07:40:55Z</time></trkpt><trkpt lat="45.65117756579713" lon="10.898925698981401"><ele>128.0</ele><time>2026-05-02T07:40:56Z</time></trkpt><trkpt lat="45.651425370348385" lon="10.899090055865633"><ele>139.0</ele><time>2026-05-02T07:40:57Z</time></trkpt><trkpt lat="45.65167151120042" lon="10.899270969824805"><ele>150.0</ele><time>2026-05-02T07:40:58Z</time></trkpt><trkpt lat="45.65190710267661" lon="10.899465269200128"><ele>141.0</ele><time>2026-05-02T07:40:59Z</time></trkpt><trkpt lat="45.65212768832768" lon="10.89964918036902"><ele>132.0</ele><time>2026-05-02T07:41:00Z</time></trkpt><trkpt lat="45.652337796276385" lon="10.899820197634757"><ele>132.0</ele><time>2026-05-02T07:41:01Z</time></trkpt><trkpt lat="45.6525390140214" lon="10.899981137817633"><ele>132.0</ele><time>2026-05-02T07:41:02Z</time></trkpt><trkpt lat="45.65274329513465" lon="10.900147426162782"><ele>132.66666666666666</ele><time>2026-05-02T07:41:03Z</time></trkpt><trkpt lat="45.65293893889823" lon="10.900311383537838"><ele>133.33333333333331</ele><time>2026-05-02T07:41:04Z</time></trkpt><trkpt lat="45.65311208240182" lon="10.90045531388615"><ele>134.0</ele><time>2026-05-02T07:41:05Z</time></trkpt><trkpt lat="45.65327004530474" lon="10.900583453778316"><ele>134.0</ele><time>2026-05-02T07:41:06Z</time></trkpt><trkpt lat="45.65341830356105" lon="10.900698985174833"><ele>134.0</ele><time>2026-05-02T07:41:07Z</time></trkpt><trkpt lat="45.653553594368596" lon="10.900802349544403"><ele>134.0</ele><time>2026-05-02T07:41:08Z</time></trkpt><trkpt lat="45.65366835151163" lon="10.9008907916578"><ele>135.4</ele><time>2026-05-02T07:41:09Z</time></trkpt><trkpt lat="45.65376915601227" lon="10.900966419443247"><ele>136.8</ele><time>2026-05-02T07:41:10Z</time></trkpt><trkpt lat="45.65385592740107" lon="10.901028608492338"><ele>138.2</ele><time>2026-05-02T07:41:10.999Z</time></trkpt><trkpt lat="45.65393052040144" lon="10.9010773536741"><ele>139.6</ele><time>2026-05-02T07:41:11.999Z</time></trkpt><trkpt lat="45.65400966604341" lon="10.901125149000075"><ele>141.0</ele><time>2026-05-02T07:41:12.999Z</time></trkpt><trkpt lat="45.65409245811862" lon="10.901172480851631"><ele>141.0</ele><time>2026-05-02T07:41:13.999Z</time></trkpt><trkpt lat="45.654189092594876" lon="10.90122668085221"><ele>141.0</ele><time>2026-05-02T07:41:14.999Z</time></trkpt><trkpt lat="45.6543074710171" lon="10.90128162901619"><ele>141.0</ele><time>2026-05-02T07:41:15.999Z</time></trkpt><trkpt lat="45.65444735234812" lon="10.901332540914966"><ele>141.0</ele><time>2026-05-02T07:41:16.999Z</time></trkpt><trkpt lat="45.65461075363477" lon="10.901392653034902"><ele>139.66666666666666</ele><time>2026-05-02T07:41:17.999Z</time></trkpt><trkpt lat="45.65478143719002" lon="10.901457919901882"><ele>138.33333333333331</ele><time>2026-05-02T07:41:18.999Z</time></trkpt><trkpt lat="45.65496506409183" lon="10.901522692753991"><ele>137.0</ele><time>2026-05-02T07:41:19.999Z</time></trkpt><trkpt lat="45.655156178762006" lon="10.901592472650258"><ele>137.66666666666666</ele><time>2026-05-02T07:41:20.999Z</time></trkpt><trkpt lat="45.65533041036979" lon="10.901683176770062"><ele>138.33333333333334</ele><time>2026-05-02T07:41:21.999Z</time></trkpt><trkpt lat="45.65549210958406" lon="10.901745005637471"><ele>139.0</ele><time>2026-05-02T07:41:22.999Z</time></trkpt><trkpt lat="45.6556466197762" lon="10.90180408564467"><ele>140.66666666666669</ele><time>2026-05-02T07:41:23.999Z</time></trkpt><trkpt lat="45.65579721901183" lon="10.901838436123498"><ele>142.33333333333334</ele><time>2026-05-02T07:41:24.999Z</time></trkpt><trkpt lat="45.65594621512471" lon="10.901895463684765"><ele>144.0</ele><time>2026-05-02T07:41:25.999Z</time></trkpt><trkpt lat="45.65610680999274" lon="10.901954610043681"><ele>143.75</ele><time>2026-05-02T07:41:26.999Z</time></trkpt><trkpt lat="45.656263547457236" lon="10.90201290686568"><ele>143.5</ele><time>2026-05-02T07:41:27.999Z</time></trkpt><trkpt lat="45.65640486894943" lon="10.902067995393708"><ele>143.25</ele><time>2026-05-02T07:41:28.999Z</time></trkpt><trkpt lat="45.65653348233633" lon="10.90213981353129"><ele>143.0</ele><time>2026-05-02T07:41:29.999Z</time></trkpt><trkpt lat="45.65666888681117" lon="10.902169337171598"><ele>143.0</ele><time>2026-05-02T07:41:30.999Z</time></trkpt><trkpt lat="45.65680215960063" lon="10.902241848768787"><ele>143.0</ele><time>2026-05-02T07:41:31.999Z</time></trkpt><trkpt lat="45.65694450161907" lon="10.90229595824036"><ele>143.0</ele><time>2026-05-02T07:41:32.999Z</time></trkpt><trkpt lat="45.65709160343656" lon="10.902326457485803"><ele>143.0</ele><time>2026-05-02T07:41:33.999Z</time></trkpt><trkpt lat="45.65723857630898" lon="10.902382887282286"><ele>141.33333333333331</ele><time>2026-05-02T07:41:34.999Z</time></trkpt><trkpt lat="45.657388127885916" lon="10.902444604445545"><ele>139.66666666666666</ele><time>2026-05-02T07:41:35.999Z</time></trkpt><trkpt lat="45.657550305702" lon="10.90250545042984"><ele>138.0</ele><time>2026-05-02T07:41:36.999Z</time></trkpt><trkpt lat="45.65772728002604" lon="10.902565670348665"><ele>143.66666666666666</ele><time>2026-05-02T07:41:37.999Z</time></trkpt><trkpt lat="45.657902824650336" lon="10.902633825204301"><ele>149.33333333333331</ele><time>2026-05-02T07:41:38.999Z</time></trkpt><trkpt lat="45.658074567123116" lon="10.902702254404765"><ele>155.0</ele><time>2026-05-02T07:41:39.999Z</time></trkpt><trkpt lat="45.65825090521273" lon="10.90277140945088"><ele>155.0</ele><time>2026-05-02T07:41:40.999Z</time></trkpt><trkpt lat="45.65843362585117" lon="10.902843433919758"><ele>155.0</ele><time>2026-05-02T07:41:41.999Z</time></trkpt><trkpt lat="45.65861740128082" lon="10.902913568219583"><ele>155.0</ele><time>2026-05-02T07:41:42.999Z</time></trkpt><trkpt lat="45.658793549496295" lon="10.902986336559765"><ele>152.33333333333331</ele><time>2026-05-02T07:41:43.999Z</time></trkpt><trkpt lat="45.658966010517204" lon="10.903053599424402"><ele>149.66666666666666</ele><time>2026-05-02T07:41:44.999Z</time></trkpt><trkpt lat="45.65913552967546" lon="10.903113799122586"><ele>147.0</ele><time>2026-05-02T07:41:45.999Z</time></trkpt><trkpt lat="45.65928650760023" lon="10.90316938610118"><ele>147.0</ele><time>2026-05-02T07:41:46.999Z</time></trkpt><trkpt lat="45.65940537481197" lon="10.90321411998157"><ele>147.0</ele><time>2026-05-02T07:41:47.999Z</time></trkpt><trkpt lat="45.65949658888012" lon="10.903245261171024"><ele>147.0</ele><time>2026-05-02T07:41:48.999Z</time></trkpt><trkpt lat="45.659559113724136" lon="10.903263878977691"><ele>147.0</ele><time>2026-05-02T07:41:49.999Z</time></trkpt><trkpt lat="45.659681856482166" lon="10.903288746882303"><ele>147.0</ele><time>2026-05-02T07:41:51.999Z</time></trkpt><trkpt lat="45.659755558583676" lon="10.903289719396048"><ele>148.4</ele><time>2026-05-02T07:41:52.999Z</time></trkpt><trkpt lat="45.6598486850248" lon="10.903262902531578"><ele>149.79999999999998</ele><time>2026-05-02T07:41:53.999Z</time></trkpt><trkpt lat="45.65995253438024" lon="10.903215962363523"><ele>151.2</ele><time>2026-05-02T07:41:54.999Z</time></trkpt><trkpt lat="45.66005762195938" lon="10.90315391894944"><ele>152.6</ele><time>2026-05-02T07:41:55.999Z</time></trkpt><trkpt lat="45.66016912869291" lon="10.903083172205749"><ele>154.0</ele><time>2026-05-02T07:41:56.999Z</time></trkpt><trkpt lat="45.660291345807" lon="10.903017183108615"><ele>155.33333333333334</ele><time>2026-05-02T07:41:58Z</time></trkpt><trkpt lat="45.66042488317106" lon="10.90295798032355"><ele>156.66666666666666</ele><time>2026-05-02T07:41:59Z</time></trkpt><trkpt lat="45.66057750620166" lon="10.902915141173816"><ele>158.0</ele><time>2026-05-02T07:42:00Z</time></trkpt><trkpt lat="45.66073671386118" lon="10.902886388988462"><ele>158.0</ele><time>2026-05-02T07:42:01Z</time></trkpt><trkpt lat="45.660901910687436" lon="10.902870967121997"><ele>158.0</ele><time>2026-05-02T07:42:02Z</time></trkpt><trkpt lat="45.66108517667424" lon="10.902866320907984"><ele>158.0</ele><time>2026-05-02T07:42:03Z</time></trkpt><trkpt lat="45.66128591043961" lon="10.902866473653846"><ele>158.66666666666666</ele><time>2026-05-02T07:42:04Z</time></trkpt><trkpt lat="45.66149070746036" lon="10.902866375896547"><ele>159.33333333333334</ele><time>2026-05-02T07:42:05Z</time></trkpt><trkpt lat="45.661694928422804" lon="10.902871695463029"><ele>160.0</ele><time>2026-05-02T07:42:06Z</time></trkpt><trkpt lat="45.661897338442095" lon="10.902878298312148"><ele>157.0</ele><time>2026-05-02T07:42:07Z</time></trkpt><trkpt lat="45.66209517444509" lon="10.902889311939562"><ele>154.0</ele><time>2026-05-02T07:42:08Z</time></trkpt><trkpt lat="45.66228708773517" lon="10.902907877225294"><ele>151.0</ele><time>2026-05-02T07:42:09Z</time></trkpt><trkpt lat="45.66248017825557" lon="10.902928840719577"><ele>151.0</ele><time>2026-05-02T07:42:10Z</time></trkpt><trkpt lat="45.662663210001156" lon="10.902962162090283"><ele>151.0</ele><time>2026-05-02T07:42:11Z</time></trkpt><trkpt lat="45.66283676384732" lon="10.903026824991533"><ele>151.0</ele><time>2026-05-02T07:42:12Z</time></trkpt><trkpt lat="45.66302252415079" lon="10.903114805280913"><ele>152.33333333333334</ele><time>2026-05-02T07:42:13Z</time></trkpt><trkpt lat="45.66321925424189" lon="10.903224324805912"><ele>153.66666666666666</ele><time>2026-05-02T07:42:14Z</time></trkpt><trkpt lat="45.663407792040694" lon="10.90333533388781"><ele>155.0</ele><time>2026-05-02T07:42:15Z</time></trkpt><trkpt lat="45.66358155391598" lon="10.903457338709996"><ele>148.33333333333331</ele><time>2026-05-02T07:42:16Z</time></trkpt><trkpt lat="45.66374830247782" lon="10.903588117126743"><ele>141.66666666666666</ele><time>2026-05-02T07:42:17Z</time></trkpt><trkpt lat="45.66390342221716" lon="10.903763895549794"><ele>135.0</ele><time>2026-05-02T07:42:18Z</time></trkpt><trkpt lat="45.66406690069657" lon="10.90391419977859"><ele>135.0</ele><time>2026-05-02T07:42:19Z</time></trkpt><trkpt lat="45.66421081089251" lon="10.90408369079022"><ele>135.0</ele><time>2026-05-02T07:42:20Z</time></trkpt><trkpt lat="45.66434793654714" lon="10.904274288769887"><ele>135.0</ele><time>2026-05-02T07:42:21Z</time></trkpt><trkpt lat="45.66448323928018" lon="10.904478825327972"><ele>135.0</ele><time>2026-05-02T07:42:22Z</time></trkpt><trkpt lat="45.66460781105723" lon="10.904691663478483"><ele>135.0</ele><time>2026-05-02T07:42:23Z</time></trkpt><trkpt lat="45.664722738648535" lon="10.904902343302586"><ele>135.0</ele><time>2026-05-02T07:42:24Z</time></trkpt><trkpt lat="45.66482414865593" lon="10.905111578338857"><ele>135.0</ele><time>2026-05-02T07:42:25Z</time></trkpt><trkpt lat="45.66491887455543" lon="10.905308792501348"><ele>135.0</ele><time>2026-05-02T07:42:26Z</time></trkpt><trkpt lat="45.66502639870981" lon="10.905480773004298"><ele>135.0</ele><time>2026-05-02T07:42:27Z</time></trkpt><trkpt lat="45.66515542411931" lon="10.905618365587058"><ele>130.66666666666666</ele><time>2026-05-02T07:42:28Z</time></trkpt><trkpt lat="45.665310101901646" lon="10.9057272356094"><ele>126.33333333333333</ele><time>2026-05-02T07:42:29Z</time></trkpt><trkpt lat="45.6654863417332" lon="10.905807756541895"><ele>122.0</ele><time>2026-05-02T07:42:30Z</time></trkpt><trkpt lat="45.66567965476902" lon="10.9058699117209"><ele>127.66666666666666</ele><time>2026-05-02T07:42:31Z</time></trkpt><trkpt lat="45.66587113168903" lon="10.905915105910719"><ele>133.33333333333334</ele><time>2026-05-02T07:42:32Z</time></trkpt><trkpt lat="45.66605912210036" lon="10.905932817487928"><ele>139.0</ele><time>2026-05-02T07:42:33Z</time></trkpt><trkpt lat="45.666237894883615" lon="10.905937454819332"><ele>143.33333333333334</ele><time>2026-05-02T07:42:34Z</time></trkpt><trkpt lat="45.66641186979655" lon="10.905926484933914"><ele>147.66666666666666</ele><time>2026-05-02T07:42:35Z</time></trkpt><trkpt lat="45.666587668382824" lon="10.905890795903348"><ele>152.0</ele><time>2026-05-02T07:42:36Z</time></trkpt><trkpt lat="45.666754830672375" lon="10.905832551159863"><ele>146.0</ele><time>2026-05-02T07:42:37Z</time></trkpt><trkpt lat="45.66691038027301" lon="10.905763410920418"><ele>140.0</ele><time>2026-05-02T07:42:38Z</time></trkpt><trkpt lat="45.66705592326856" lon="10.905675479923534"><ele>134.0</ele><time>2026-05-02T07:42:39Z</time></trkpt><trkpt lat="45.667192927294344" lon="10.905555702476297"><ele>134.0</ele><time>2026-05-02T07:42:40Z</time></trkpt><trkpt lat="45.66731232061552" lon="10.905389780977503"><ele>134.0</ele><time>2026-05-02T07:42:41Z</time></trkpt><trkpt lat="45.66741148804727" lon="10.905206694294604"><ele>134.0</ele><time>2026-05-02T07:42:42Z</time></trkpt><trkpt lat="45.667487483833" lon="10.905015649501076"><ele>132.75</ele><time>2026-05-02T07:42:43Z</time></trkpt><trkpt lat="45.66755945062056" lon="10.904824810138937"><ele>131.5</ele><time>2026-05-02T07:42:44Z</time></trkpt><trkpt lat="45.667636024827296" lon="10.904638619044544"><ele>130.25</ele><time>2026-05-02T07:42:45Z</time></trkpt><trkpt lat="45.66771971738706" lon="10.904466283327574"><ele>129.0</ele><time>2026-05-02T07:42:46Z</time></trkpt><trkpt lat="45.667805265488205" lon="10.90430361998038"><ele>128.0</ele><time>2026-05-02T07:42:47Z</time></trkpt><trkpt lat="45.667895309446706" lon="10.904143553176455"><ele>127.0</ele><time>2026-05-02T07:42:48Z</time></trkpt><trkpt lat="45.66798580434763" lon="10.90399225343665"><ele>126.0</ele><time>2026-05-02T07:42:49Z</time></trkpt><trkpt lat="45.66807558973591" lon="10.90385631672033"><ele>125.0</ele><time>2026-05-02T07:42:50Z</time></trkpt><trkpt lat="45.66818411943311" lon="10.90373313726237"><ele>125.0</ele><time>2026-05-02T07:42:51Z</time></trkpt><trkpt lat="45.66831392036636" lon="10.903627546334427"><ele>125.0</ele><time>2026-05-02T07:42:52Z</time></trkpt><trkpt lat="45.66845923103684" lon="10.903541109617368"><ele>125.0</ele><time>2026-05-02T07:42:53Z</time></trkpt><trkpt lat="45.66861374923572" lon="10.903466805834599"><ele>126.66666666666666</ele><time>2026-05-02T07:42:54Z</time></trkpt><trkpt lat="45.668776241907764" lon="10.903406642818394"><ele>128.33333333333334</ele><time>2026-05-02T07:42:55Z</time></trkpt><trkpt lat="45.66895110223429" lon="10.903346749791666"><ele>130.0</ele><time>2026-05-02T07:42:56Z</time></trkpt><trkpt lat="45.669131446368176" lon="10.903287667216812"><ele>130.0</ele><time>2026-05-02T07:42:57Z</time></trkpt><trkpt lat="45.66929828419598" lon="10.903233353587538"><ele>130.0</ele><time>2026-05-02T07:42:58Z</time></trkpt><trkpt lat="45.66944962890839" lon="10.903183624780612"><ele>130.0</ele><time>2026-05-02T07:42:59Z</time></trkpt><trkpt lat="45.669589680663165" lon="10.903158863072944"><ele>131.25</ele><time>2026-05-02T07:43:00Z</time></trkpt><trkpt lat="45.66973039370541" lon="10.90316787835322"><ele>132.5</ele><time>2026-05-02T07:43:01Z</time></trkpt><trkpt lat="45.669865256304426" lon="10.903222140249333"><ele>133.75</ele><time>2026-05-02T07:43:02Z</time></trkpt><trkpt lat="45.66998383814963" lon="10.903338459273657"><ele>135.0</ele><time>2026-05-02T07:43:03Z</time></trkpt><trkpt lat="45.67009035098756" lon="10.903487597105205"><ele>136.33333333333334</ele><time>2026-05-02T07:43:04Z</time></trkpt><trkpt lat="45.67019977030002" lon="10.903654172915656"><ele>137.66666666666669</ele><time>2026-05-02T07:43:05Z</time></trkpt><trkpt lat="45.67032067634089" lon="10.903815286195588"><ele>139.0</ele><time>2026-05-02T07:43:06Z</time></trkpt><trkpt lat="45.67044940320368" lon="10.903959449069797"><ele>140.33333333333334</ele><time>2026-05-02T07:43:07Z</time></trkpt><trkpt lat="45.670593336182534" lon="10.904078531137475"><ele>141.66666666666666</ele><time>2026-05-02T07:43:08Z</time></trkpt><trkpt lat="45.670751736232766" lon="10.904171127655841"><ele>143.0</ele><time>2026-05-02T07:43:09Z</time></trkpt><trkpt lat="45.670914182399244" lon="10.904228888026804"><ele>143.0</ele><time>2026-05-02T07:43:10Z</time></trkpt><trkpt lat="45.67108965451158" lon="10.904243342473665"><ele>143.0</ele><time>2026-05-02T07:43:11Z</time></trkpt><trkpt lat="45.67127334835082" lon="10.904230385723695"><ele>143.0</ele><time>2026-05-02T07:43:12Z</time></trkpt><trkpt lat="45.671469038987794" lon="10.9042059983813"><ele>144.33333333333331</ele><time>2026-05-02T07:43:13Z</time></trkpt><trkpt lat="45.67168023842227" lon="10.904178070913042"><ele>145.66666666666666</ele><time>2026-05-02T07:43:14Z</time></trkpt><trkpt lat="45.67188751173269" lon="10.904151171800391"><ele>147.0</ele><time>2026-05-02T07:43:15Z</time></trkpt><trkpt lat="45.6720732964367" lon="10.904129732872995"><ele>147.33333333333334</ele><time>2026-05-02T07:43:16Z</time></trkpt><trkpt lat="45.67224776261049" lon="10.904110868495959"><ele>147.66666666666669</ele><time>2026-05-02T07:43:17Z</time></trkpt><trkpt lat="45.672408291264695" lon="10.904097397940294"><ele>148.0</ele><time>2026-05-02T07:43:18Z</time></trkpt><trkpt lat="45.67255906292028" lon="10.904092318313953"><ele>148.0</ele><time>2026-05-02T07:43:19Z</time></trkpt><trkpt lat="45.67271156619726" lon="10.904099889339426"><ele>148.0</ele><time>2026-05-02T07:43:20Z</time></trkpt><trkpt lat="45.6728750101892" lon="10.904133465052638"><ele>148.0</ele><time>2026-05-02T07:43:21Z</time></trkpt><trkpt lat="45.67305616921827" lon="10.904184524769024"><ele>147.66666666666669</ele><time>2026-05-02T07:43:22Z</time></trkpt><trkpt lat="45.67326338498302" lon="10.904259695227738"><ele>147.33333333333334</ele><time>2026-05-02T07:43:22.999Z</time></trkpt><trkpt lat="45.6734629293487" lon="10.904345332081183"><ele>147.0</ele><time>2026-05-02T07:43:23.999Z</time></trkpt><trkpt lat="45.6736429997049" lon="10.904420939062337"><ele>147.0</ele><time>2026-05-02T07:43:24.999Z</time></trkpt><trkpt lat="45.67380359509903" lon="10.904485121168678"><ele>147.0</ele><time>2026-05-02T07:43:25.999Z</time></trkpt><trkpt lat="45.67394300663068" lon="10.904578470861496"><ele>147.0</ele><time>2026-05-02T07:43:26.999Z</time></trkpt><trkpt lat="45.67408818290778" lon="10.90466629506493"><ele>147.0</ele><time>2026-05-02T07:43:27.999Z</time></trkpt><trkpt lat="45.674228718166276" lon="10.90478164527902"><ele>147.0</ele><time>2026-05-02T07:43:28.999Z</time></trkpt><trkpt lat="45.67440671814036" lon="10.904947523054618"><ele>147.0</ele><time>2026-05-02T07:43:29.999Z</time></trkpt><trkpt lat="45.67461427998848" lon="10.905153115752983"><ele>145.0</ele><time>2026-05-02T07:43:30.999Z</time></trkpt><trkpt lat="45.674821318065064" lon="10.905368193225218"><ele>143.0</ele><time>2026-05-02T07:43:31.999Z</time></trkpt><trkpt lat="45.67500863213114" lon="10.905564332342783"><ele>143.0</ele><time>2026-05-02T07:43:32.999Z</time></trkpt><trkpt lat="45.675229367746084" lon="10.905764091123268"><ele>143.0</ele><time>2026-05-02T07:43:33.999Z</time></trkpt><trkpt lat="45.67543558379198" lon="10.905940631145096"><ele>145.0</ele><time>2026-05-02T07:43:34.999Z</time></trkpt><trkpt lat="45.67565306559819" lon="10.906070872848877"><ele>147.0</ele><time>2026-05-02T07:43:35.999Z</time></trkpt><trkpt lat="45.675891034610856" lon="10.906159841272414"><ele>144.5</ele><time>2026-05-02T07:43:36.999Z</time></trkpt><trkpt lat="45.676134789070794" lon="10.906229914181129"><ele>142.0</ele><time>2026-05-02T07:43:37.999Z</time></trkpt><trkpt lat="45.676383296010755" lon="10.906289713644973"><ele>142.0</ele><time>2026-05-02T07:43:38.999Z</time></trkpt><trkpt lat="45.67663686083087" lon="10.90631267368923"><ele>142.0</ele><time>2026-05-02T07:43:39.999Z</time></trkpt><trkpt lat="45.67690623320881" lon="10.906276594706245"><ele>141.0</ele><time>2026-05-02T07:43:40.999Z</time></trkpt><trkpt lat="45.6771926187994" lon="10.906198849321806"><ele>140.0</ele><time>2026-05-02T07:43:41.999Z</time></trkpt><trkpt lat="45.677488717658555" lon="10.906100126128706"><ele>140.0</ele><time>2026-05-02T07:43:42.999Z</time></trkpt><trkpt lat="45.67775973425752" lon="10.906021192911783"><ele>140.0</ele><time>2026-05-02T07:43:43.999Z</time></trkpt><trkpt lat="45.67801660419601" lon="10.905967496062479"><ele>139.5</ele><time>2026-05-02T07:43:44.999Z</time></trkpt><trkpt lat="45.67828809956779" lon="10.90597658087762"><ele>139.0</ele><time>2026-05-02T07:43:45.999Z</time></trkpt><trkpt lat="45.678595073836675" lon="10.905978200636001"><ele>138.0</ele><time>2026-05-02T07:43:46.999Z</time></trkpt><trkpt lat="45.678907589824945" lon="10.90596758155129"><ele>137.0</ele><time>2026-05-02T07:43:47.999Z</time></trkpt><trkpt lat="45.67922695812627" lon="10.90596682302635"><ele>137.5</ele><time>2026-05-02T07:43:48.999Z</time></trkpt><trkpt lat="45.67951959912573" lon="10.905998657790358"><ele>138.0</ele><time>2026-05-02T07:43:49.999Z</time></trkpt><trkpt lat="45.67979267171513" lon="10.90601269500801"><ele>138.0</ele><time>2026-05-02T07:43:50.999Z</time></trkpt><trkpt lat="45.68005103911507" lon="10.906056995711102"><ele>138.0</ele><time>2026-05-02T07:43:51.999Z</time></trkpt><trkpt lat="45.68030498242318" lon="10.906137902774436"><ele>139.0</ele><time>2026-05-02T07:43:52.999Z</time></trkpt><trkpt lat="45.68058091934942" lon="10.906236522301123"><ele>140.0</ele><time>2026-05-02T07:43:53.999Z</time></trkpt><trkpt lat="45.680864202105894" lon="10.906335113446403"><ele>137.5</ele><time>2026-05-02T07:43:54.999Z</time></trkpt><trkpt lat="45.681137737458634" lon="10.906453564218081"><ele>135.0</ele><time>2026-05-02T07:43:55.999Z</time></trkpt><trkpt lat="45.68141265210742" lon="10.906561480148913"><ele>135.0</ele><time>2026-05-02T07:43:56.999Z</time></trkpt><trkpt lat="45.68168586013076" lon="10.906655847999986"><ele>135.0</ele><time>2026-05-02T07:43:57.999Z</time></trkpt><trkpt lat="45.68194542758329" lon="10.906750528684164"><ele>135.5</ele><time>2026-05-02T07:43:58.999Z</time></trkpt><trkpt lat="45.68220921450816" lon="10.906854801837072"><ele>136.0</ele><time>2026-05-02T07:43:59.999Z</time></trkpt><trkpt lat="45.68244722567741" lon="10.906993723324408"><ele>136.0</ele><time>2026-05-02T07:44:00.999Z</time></trkpt><trkpt lat="45.68266496178507" lon="10.907129741273721"><ele>136.0</ele><time>2026-05-02T07:44:01.999Z</time></trkpt><trkpt lat="45.68286928520994" lon="10.907303277281239"><ele>136.5</ele><time>2026-05-02T07:44:02.999Z</time></trkpt><trkpt lat="45.68309117470394" lon="10.907498013139799"><ele>137.0</ele><time>2026-05-02T07:44:04Z</time></trkpt><trkpt lat="45.68329537596719" lon="10.907812725279648"><ele>137.0</ele><time>2026-05-02T07:44:05Z</time></trkpt><trkpt lat="45.68352956258515" lon="10.908044295231653"><ele>137.0</ele><time>2026-05-02T07:44:06Z</time></trkpt><trkpt lat="45.68375170793119" lon="10.908256536252768"><ele>136.0</ele><time>2026-05-02T07:44:07Z</time></trkpt><trkpt lat="45.68397083825641" lon="10.908469489876854"><ele>135.0</ele><time>2026-05-02T07:44:08Z</time></trkpt><trkpt lat="45.6841719767795" lon="10.908677970382007"><ele>135.0</ele><time>2026-05-02T07:44:09Z</time></trkpt><trkpt lat="45.68436525349234" lon="10.908912802548837"><ele>135.0</ele><time>2026-05-02T07:44:10Z</time></trkpt><trkpt lat="45.684553861232175" lon="10.909197595984036"><ele>132.5</ele><time>2026-05-02T07:44:11Z</time></trkpt><trkpt lat="45.68473479783757" lon="10.909532493037052"><ele>130.0</ele><time>2026-05-02T07:44:12Z</time></trkpt><trkpt lat="45.68491299414666" lon="10.90988669448656"><ele>137.0</ele><time>2026-05-02T07:44:13Z</time></trkpt><trkpt lat="45.685084363654425" lon="10.910228391521452"><ele>144.0</ele><time>2026-05-02T07:44:14Z</time></trkpt><trkpt lat="45.68526205493952" lon="10.910557251072136"><ele>137.0</ele><time>2026-05-02T07:44:15Z</time></trkpt><trkpt lat="45.68543545149695" lon="10.910890850580502"><ele>130.0</ele><time>2026-05-02T07:44:16Z</time></trkpt><trkpt lat="45.68559935045403" lon="10.911245142566424"><ele>130.0</ele><time>2026-05-02T07:44:17Z</time></trkpt><trkpt lat="45.685752877664065" lon="10.91160306700488"><ele>130.0</ele><time>2026-05-02T07:44:18Z</time></trkpt><trkpt lat="45.68589778077179" lon="10.911950640103276"><ele>128.0</ele><time>2026-05-02T07:44:19Z</time></trkpt><trkpt lat="45.68604275696112" lon="10.912283691166643"><ele>126.0</ele><time>2026-05-02T07:44:20Z</time></trkpt><trkpt lat="45.6861798483128" lon="10.912597202375231"><ele>126.0</ele><time>2026-05-02T07:44:21Z</time></trkpt><trkpt lat="45.68631094959983" lon="10.912904463702255"><ele>126.0</ele><time>2026-05-02T07:44:22Z</time></trkpt><trkpt lat="45.68643663830856" lon="10.91321212287216"><ele>130.0</ele><time>2026-05-02T07:44:23Z</time></trkpt><trkpt lat="45.686550637964835" lon="10.913493479589427"><ele>134.0</ele><time>2026-05-02T07:44:24Z</time></trkpt><trkpt lat="45.68665491010079" lon="10.913747492972806"><ele>138.0</ele><time>2026-05-02T07:44:25Z</time></trkpt><trkpt lat="45.686750327437885" lon="10.913991915155918"><ele>138.0</ele><time>2026-05-02T07:44:26Z</time></trkpt><trkpt lat="45.68683558976453" lon="10.91423244689919"><ele>138.0</ele><time>2026-05-02T07:44:27Z</time></trkpt><trkpt lat="45.68691370677594" lon="10.91448771174669"><ele>138.0</ele><time>2026-05-02T07:44:28Z</time></trkpt><trkpt lat="45.68697660613081" lon="10.914744052578424"><ele>134.0</ele><time>2026-05-02T07:44:29Z</time></trkpt><trkpt lat="45.68702818959867" lon="10.914991093081069"><ele>130.0</ele><time>2026-05-02T07:44:30Z</time></trkpt><trkpt lat="45.687078322612784" lon="10.915231119451557"><ele>126.0</ele><time>2026-05-02T07:44:31Z</time></trkpt><trkpt lat="45.68713306492334" lon="10.915479830780782"><ele>126.0</ele><time>2026-05-02T07:44:32Z</time></trkpt><trkpt lat="45.687197225110836" lon="10.915741712197839"><ele>126.0</ele><time>2026-05-02T07:44:33Z</time></trkpt><trkpt lat="45.68726237085042" lon="10.916006589615819"><ele>126.0</ele><time>2026-05-02T07:44:34Z</time></trkpt><trkpt lat="45.68733238664931" lon="10.916268720857774"><ele>127.33333333333334</ele><time>2026-05-02T07:44:35Z</time></trkpt><trkpt lat="45.687404408338146" lon="10.916528720247948"><ele>128.66666666666669</ele><time>2026-05-02T07:44:36Z</time></trkpt><trkpt lat="45.687477329032795" lon="10.916789893429232"><ele>130.0</ele><time>2026-05-02T07:44:37Z</time></trkpt><trkpt lat="45.68755065030574" lon="10.917050299086831"><ele>131.33333333333334</ele><time>2026-05-02T07:44:38Z</time></trkpt><trkpt lat="45.68763202335201" lon="10.917306735626516"><ele>132.66666666666666</ele><time>2026-05-02T07:44:39Z</time></trkpt><trkpt lat="45.687725102134884" lon="10.917549041149222"><ele>134.0</ele><time>2026-05-02T07:44:40Z</time></trkpt><trkpt lat="45.68782653297833" lon="10.917763064665493"><ele>131.0</ele><time>2026-05-02T07:44:41Z</time></trkpt><trkpt lat="45.6879426350086" lon="10.917960700644473"><ele>128.0</ele><time>2026-05-02T07:44:42Z</time></trkpt><trkpt lat="45.688070697967554" lon="10.918142232638766"><ele>125.0</ele><time>2026-05-02T07:44:43Z</time></trkpt><trkpt lat="45.68820069944408" lon="10.918298777918672"><ele>126.0</ele><time>2026-05-02T07:44:44Z</time></trkpt><trkpt lat="45.68833703426672" lon="10.918443900619689"><ele>127.0</ele><time>2026-05-02T07:44:45Z</time></trkpt><trkpt lat="45.688467320371664" lon="10.918590772441268"><ele>128.0</ele><time>2026-05-02T07:44:46Z</time></trkpt><trkpt lat="45.68859368547149" lon="10.918739895633285"><ele>128.0</ele><time>2026-05-02T07:44:47Z</time></trkpt><trkpt lat="45.68871969314014" lon="10.918895712980945"><ele>128.0</ele><time>2026-05-02T07:44:48Z</time></trkpt><trkpt lat="45.68884703484639" lon="10.919053878082684"><ele>128.0</ele><time>2026-05-02T07:44:49Z</time></trkpt><trkpt lat="45.68897844818088" lon="10.919212939134388"><ele>128.0</ele><time>2026-05-02T07:44:50Z</time></trkpt><trkpt lat="45.6891264887046" lon="10.919387204831725"><ele>128.0</ele><time>2026-05-02T07:44:51Z</time></trkpt><trkpt lat="45.68931114137469" lon="10.919598287025535"><ele>128.0</ele><time>2026-05-02T07:44:52Z</time></trkpt><trkpt lat="45.689526216105506" lon="10.919841599583348"><ele>129.0</ele><time>2026-05-02T07:44:53Z</time></trkpt><trkpt lat="45.68976461529116" lon="10.920119179765265"><ele>130.0</ele><time>2026-05-02T07:44:54Z</time></trkpt><trkpt lat="45.68999247595591" lon="10.920402845689754"><ele>130.0</ele><time>2026-05-02T07:44:55Z</time></trkpt><trkpt lat="45.69020828417334" lon="10.920676845199639"><ele>130.0</ele><time>2026-05-02T07:44:56Z</time></trkpt><trkpt lat="45.690422047088674" lon="10.920940393841878"><ele>128.0</ele><time>2026-05-02T07:44:57Z</time></trkpt><trkpt lat="45.690636943539175" lon="10.921203305356977"><ele>126.0</ele><time>2026-05-02T07:44:58Z</time></trkpt><trkpt lat="45.69084779339575" lon="10.921455984488775"><ele>126.0</ele><time>2026-05-02T07:44:59Z</time></trkpt><trkpt lat="45.691054248172485" lon="10.92170139859822"><ele>126.0</ele><time>2026-05-02T07:45:00Z</time></trkpt><trkpt lat="45.69124995946609" lon="10.92193118633763"><ele>126.0</ele><time>2026-05-02T07:45:01Z</time></trkpt><trkpt lat="45.691437308324915" lon="10.922149611340481"><ele>126.0</ele><time>2026-05-02T07:45:02Z</time></trkpt><trkpt lat="45.69160745397377" lon="10.922348768355398"><ele>126.0</ele><time>2026-05-02T07:45:03Z</time></trkpt><trkpt lat="45.69174772061486" lon="10.922518943105427"><ele>126.0</ele><time>2026-05-02T07:45:04Z</time></trkpt><trkpt lat="45.69187854251463" lon="10.9226810775231"><ele>126.0</ele><time>2026-05-02T07:45:05Z</time></trkpt><trkpt lat="45.69200946503329" lon="10.922842986188408"><ele>126.0</ele><time>2026-05-02T07:45:06Z</time></trkpt><trkpt lat="45.692146848694094" lon="10.923008105773786"><ele>126.0</ele><time>2026-05-02T07:45:07Z</time></trkpt><trkpt lat="45.692282708069044" lon="10.923170494581235"><ele>126.0</ele><time>2026-05-02T07:45:08Z</time></trkpt><trkpt lat="45.692415233957384" lon="10.923338348351688"><ele>126.0</ele><time>2026-05-02T07:45:09Z</time></trkpt><trkpt lat="45.69253350600679" lon="10.923523291119794"><ele>126.0</ele><time>2026-05-02T07:45:10Z</time></trkpt><trkpt lat="45.69266872785923" lon="10.923705688677964"><ele>126.0</ele><time>2026-05-02T07:45:11Z</time></trkpt><trkpt lat="45.6928113911648" lon="10.923903890265843"><ele>126.0</ele><time>2026-05-02T07:45:12Z</time></trkpt><trkpt lat="45.692960899897585" lon="10.924114468905742"><ele>126.0</ele><time>2026-05-02T07:45:13Z</time></trkpt><trkpt lat="45.6931081860902" lon="10.924321917083509"><ele>126.0</ele><time>2026-05-02T07:45:14Z</time></trkpt><trkpt lat="45.69324987032747" lon="10.924522969250983"><ele>126.0</ele><time>2026-05-02T07:45:15Z</time></trkpt><trkpt lat="45.69339132692785" lon="10.924723532357008"><ele>126.0</ele><time>2026-05-02T07:45:16Z</time></trkpt><trkpt lat="45.693527775209304" lon="10.92491835779369"><ele>126.0</ele><time>2026-05-02T07:45:17Z</time></trkpt><trkpt lat="45.693658009376165" lon="10.925104310501169"><ele>126.33333333333334</ele><time>2026-05-02T07:45:18Z</time></trkpt><trkpt lat="45.693790236896234" lon="10.92529271579312"><ele>126.66666666666667</ele><time>2026-05-02T07:45:19Z</time></trkpt><trkpt lat="45.69392200039172" lon="10.925479929605325"><ele>127.0</ele><time>2026-05-02T07:45:20Z</time></trkpt><trkpt lat="45.69405346869203" lon="10.925666790600676"><ele>127.0</ele><time>2026-05-02T07:45:21Z</time></trkpt><trkpt lat="45.69420024465498" lon="10.92583827172028"><ele>127.0</ele><time>2026-05-02T07:45:22Z</time></trkpt><trkpt lat="45.694326370566195" lon="10.926018555735597"><ele>127.0</ele><time>2026-05-02T07:45:23Z</time></trkpt><trkpt lat="45.694450673074" lon="10.926184801701297"><ele>128.33333333333334</ele><time>2026-05-02T07:45:24Z</time></trkpt><trkpt lat="45.694584060710774" lon="10.926331010710129"><ele>129.66666666666666</ele><time>2026-05-02T07:45:25Z</time></trkpt><trkpt lat="45.69471757501924" lon="10.926462540617695"><ele>131.0</ele><time>2026-05-02T07:45:26Z</time></trkpt><trkpt lat="45.6948566629146" lon="10.926584783046705"><ele>131.0</ele><time>2026-05-02T07:45:27Z</time></trkpt><trkpt lat="45.69501567337563" lon="10.926706283820893"><ele>131.0</ele><time>2026-05-02T07:45:28Z</time></trkpt><trkpt lat="45.69519796211245" lon="10.926862743243493"><ele>131.0</ele><time>2026-05-02T07:45:29Z</time></trkpt><trkpt lat="45.695399133254234" lon="10.926978128138254"><ele>130.5</ele><time>2026-05-02T07:45:30Z</time></trkpt><trkpt lat="45.69561946110024" lon="10.927128097070492"><ele>130.0</ele><time>2026-05-02T07:45:30.999Z</time></trkpt><trkpt lat="45.69583399147249" lon="10.927267719362284"><ele>130.0</ele><time>2026-05-02T07:45:31.999Z</time></trkpt><trkpt lat="45.69603399900968" lon="10.927389716797201"><ele>130.0</ele><time>2026-05-02T07:45:32.999Z</time></trkpt><trkpt lat="45.696228201142006" lon="10.927502112808915"><ele>130.0</ele><time>2026-05-02T07:45:33.999Z</time></trkpt><trkpt lat="45.69642320422111" lon="10.927607185387824"><ele>130.33333333333334</ele><time>2026-05-02T07:45:34.999Z</time></trkpt><trkpt lat="45.69660881845925" lon="10.927708633504022"><ele>130.66666666666666</ele><time>2026-05-02T07:45:35.999Z</time></trkpt><trkpt lat="45.696778525604266" lon="10.927803935074355"><ele>131.0</ele><time>2026-05-02T07:45:36.999Z</time></trkpt><trkpt lat="45.69694609476218" lon="10.927903066478232"><ele>131.0</ele><time>2026-05-02T07:45:37.999Z</time></trkpt><trkpt lat="45.69712183105191" lon="10.928002623803382"><ele>131.0</ele><time>2026-05-02T07:45:38.999Z</time></trkpt><trkpt lat="45.69730293789611" lon="10.928092194805346"><ele>131.0</ele><time>2026-05-02T07:45:39.999Z</time></trkpt><trkpt lat="45.69749600966909" lon="10.928153476790486"><ele>131.0</ele><time>2026-05-02T07:45:40.999Z</time></trkpt><trkpt lat="45.697688645863394" lon="10.928188034747219"><ele>131.0</ele><time>2026-05-02T07:45:41.999Z</time></trkpt><trkpt lat="45.69787386473912" lon="10.928213964149045"><ele>131.0</ele><time>2026-05-02T07:45:42.999Z</time></trkpt><trkpt lat="45.69805365439493" lon="10.92824259101226"><ele>131.33333333333331</ele><time>2026-05-02T07:45:43.999Z</time></trkpt><trkpt lat="45.6982275391244" lon="10.928284664800321"><ele>131.66666666666666</ele><time>2026-05-02T07:45:44.999Z</time></trkpt><trkpt lat="45.69838659652925" lon="10.92833785209725"><ele>132.0</ele><time>2026-05-02T07:45:45.999Z</time></trkpt><trkpt lat="45.69853752195567" lon="10.928399311880076"><ele>133.66666666666666</ele><time>2026-05-02T07:45:46.999Z</time></trkpt><trkpt lat="45.69869315669446" lon="10.92846525074938"><ele>135.33333333333331</ele><time>2026-05-02T07:45:47.999Z</time></trkpt><trkpt lat="45.69884677696539" lon="10.928538384267462"><ele>137.0</ele><time>2026-05-02T07:45:48.999Z</time></trkpt><trkpt lat="45.6989983058393" lon="10.928618009616637"><ele>137.0</ele><time>2026-05-02T07:45:49.999Z</time></trkpt><trkpt lat="45.69915717774457" lon="10.928705427255348"><ele>137.0</ele><time>2026-05-02T07:45:50.999Z</time></trkpt><trkpt lat="45.6993238529523" lon="10.928809460507361"><ele>137.0</ele><time>2026-05-02T07:45:51.999Z</time></trkpt><trkpt lat="45.6995092951344" lon="10.92891145308525"><ele>135.0</ele><time>2026-05-02T07:45:52.999Z</time></trkpt><trkpt lat="45.699701940130836" lon="10.929014891661716"><ele>133.0</ele><time>2026-05-02T07:45:53.999Z</time></trkpt><trkpt lat="45.69988396016582" lon="10.929119497214227"><ele>131.0</ele><time>2026-05-02T07:45:54.999Z</time></trkpt><trkpt lat="45.70005745317966" lon="10.929219975523523"><ele>130.33333333333331</ele><time>2026-05-02T07:45:55.999Z</time></trkpt><trkpt lat="45.70022591699496" lon="10.929317444856165"><ele>129.66666666666666</ele><time>2026-05-02T07:45:56.999Z</time></trkpt><trkpt lat="45.70040882131705" lon="10.929414589876194"><ele>129.0</ele><time>2026-05-02T07:45:57.999Z</time></trkpt><trkpt lat="45.70060175729394" lon="10.929517428321514"><ele>129.0</ele><time>2026-05-02T07:45:58.999Z</time></trkpt><trkpt lat="45.70080454232669" lon="10.929615660463813"><ele>129.0</ele><time>2026-05-02T07:45:59.999Z</time></trkpt><trkpt lat="45.70100907184654" lon="10.929698013691493"><ele>129.0</ele><time>2026-05-02T07:46:00.999Z</time></trkpt><trkpt lat="45.70121448647915" lon="10.929767542254783"><ele>127.33333333333334</ele><time>2026-05-02T07:46:01.999Z</time></trkpt><trkpt lat="45.70141965398528" lon="10.92983829030199"><ele>125.66666666666667</ele><time>2026-05-02T07:46:02.999Z</time></trkpt><trkpt lat="45.70162355461686" lon="10.929910227478391"><ele>124.0</ele><time>2026-05-02T07:46:03.999Z</time></trkpt><trkpt lat="45.70183156137012" lon="10.93000773743814"><ele>125.0</ele><time>2026-05-02T07:46:04.999Z</time></trkpt><trkpt lat="45.70207674094915" lon="10.930098218602756"><ele>126.0</ele><time>2026-05-02T07:46:05.999Z</time></trkpt><trkpt lat="45.70236050213036" lon="10.93020525517639"><ele>126.0</ele><time>2026-05-02T07:46:06.999Z</time></trkpt><trkpt lat="45.70267104771773" lon="10.930319625321113"><ele>126.0</ele><time>2026-05-02T07:46:07.999Z</time></trkpt><trkpt lat="45.70299882073862" lon="10.93042031106189"><ele>126.0</ele><time>2026-05-02T07:46:08.999Z</time></trkpt><trkpt lat="45.7033243558528" lon="10.930545442489633"><ele>126.0</ele><time>2026-05-02T07:46:10Z</time></trkpt><trkpt lat="45.70365405580117" lon="10.930665839409247"><ele>126.0</ele><time>2026-05-02T07:46:11Z</time></trkpt><trkpt lat="45.70397351567218" lon="10.930783634395725"><ele>126.0</ele><time>2026-05-02T07:46:12Z</time></trkpt><trkpt lat="45.704275599778285" lon="10.930892746913226"><ele>126.0</ele><time>2026-05-02T07:46:13Z</time></trkpt><trkpt lat="45.704553791576345" lon="10.930992517287786"><ele>126.0</ele><time>2026-05-02T07:46:14Z</time></trkpt><trkpt lat="45.704833255890584" lon="10.931116886384654"><ele>126.0</ele><time>2026-05-02T07:46:15Z</time></trkpt><trkpt lat="45.70511445318017" lon="10.931221235659624"><ele>126.0</ele><time>2026-05-02T07:46:16Z</time></trkpt><trkpt lat="45.70538142529263" lon="10.93130640593616"><ele>126.0</ele><time>2026-05-02T07:46:17Z</time></trkpt><trkpt lat="45.70560749930506" lon="10.931452165962385"><ele>126.0</ele><time>2026-05-02T07:46:18Z</time></trkpt><trkpt lat="45.70582093048687" lon="10.931596721376085"><ele>125.5</ele><time>2026-05-02T07:46:19Z</time></trkpt><trkpt lat="45.70602685740527" lon="10.931780675838"><ele>125.0</ele><time>2026-05-02T07:46:20Z</time></trkpt><trkpt lat="45.706233422505285" lon="10.932006157472316"><ele>125.0</ele><time>2026-05-02T07:46:21Z</time></trkpt><trkpt lat="45.706466806066125" lon="10.932268354063822"><ele>125.0</ele><time>2026-05-02T07:46:22Z</time></trkpt><trkpt lat="45.70671600709761" lon="10.932552302081156"><ele>124.5</ele><time>2026-05-02T07:46:23Z</time></trkpt><trkpt lat="45.70698021185359" lon="10.93285542940452"><ele>124.0</ele><time>2026-05-02T07:46:24Z</time></trkpt><trkpt lat="45.70725831829358" lon="10.933176667892871"><ele>124.5</ele><time>2026-05-02T07:46:25Z</time></trkpt><trkpt lat="45.70755076625935" lon="10.933510487911478"><ele>125.0</ele><time>2026-05-02T07:46:26Z</time></trkpt><trkpt lat="45.70782775197874" lon="10.933827759349137"><ele>125.5</ele><time>2026-05-02T07:46:27Z</time></trkpt><trkpt lat="45.70809180676754" lon="10.934132066858288"><ele>126.0</ele><time>2026-05-02T07:46:28Z</time></trkpt><trkpt lat="45.70833987794274" lon="10.934417954142724"><ele>128.5</ele><time>2026-05-02T07:46:29Z</time></trkpt><trkpt lat="45.708567184074546" lon="10.934668144963018"><ele>131.0</ele><time>2026-05-02T07:46:30Z</time></trkpt><trkpt lat="45.70878209929414" lon="10.934884526685314"><ele>134.5</ele><time>2026-05-02T07:46:31Z</time></trkpt><trkpt lat="45.70901326092987" lon="10.935080675098085"><ele>138.0</ele><time>2026-05-02T07:46:32Z</time></trkpt><trkpt lat="45.70926795134341" lon="10.935233426842759"><ele>138.0</ele><time>2026-05-02T07:46:33Z</time></trkpt><trkpt lat="45.70952817022829" lon="10.935385769440643"><ele>138.0</ele><time>2026-05-02T07:46:34Z</time></trkpt><trkpt lat="45.70980353880385" lon="10.935531195801014"><ele>138.0</ele><time>2026-05-02T07:46:35Z</time></trkpt><trkpt lat="45.71008855783613" lon="10.935679124020558"><ele>138.0</ele><time>2026-05-02T07:46:36Z</time></trkpt><trkpt lat="45.7103771121847" lon="10.935833280686202"><ele>139.5</ele><time>2026-05-02T07:46:37Z</time></trkpt><trkpt lat="45.710670421667054" lon="10.935989163931415"><ele>141.0</ele><time>2026-05-02T07:46:38Z</time></trkpt><trkpt lat="45.71096990451631" lon="10.936145897072137"><ele>140.5</ele><time>2026-05-02T07:46:39Z</time></trkpt><trkpt lat="45.71125934179383" lon="10.936324446068115"><ele>140.0</ele><time>2026-05-02T07:46:40Z</time></trkpt><trkpt lat="45.711545170273986" lon="10.936476294334733"><ele>140.0</ele><time>2026-05-02T07:46:41Z</time></trkpt><trkpt lat="45.71182565948839" lon="10.936625304257875"><ele>140.0</ele><time>2026-05-02T07:46:42Z</time></trkpt><trkpt lat="45.71209716003283" lon="10.936770010613463"><ele>143.0</ele><time>2026-05-02T07:46:43Z</time></trkpt><trkpt lat="45.7123697762812" lon="10.936903076547093"><ele>146.0</ele><time>2026-05-02T07:46:44Z</time></trkpt><trkpt lat="45.71262856839135" lon="10.937116339295804"><ele>142.5</ele><time>2026-05-02T07:46:45Z</time></trkpt><trkpt lat="45.712897225667795" lon="10.937330027313259"><ele>139.0</ele><time>2026-05-02T07:46:46Z</time></trkpt><trkpt lat="45.713157239148615" lon="10.937545547075873"><ele>141.5</ele><time>2026-05-02T07:46:47Z</time></trkpt><trkpt lat="45.71341290957433" lon="10.937713745118025"><ele>144.0</ele><time>2026-05-02T07:46:48Z</time></trkpt><trkpt lat="45.713673434369696" lon="10.937874556367886"><ele>144.0</ele><time>2026-05-02T07:46:49Z</time></trkpt><trkpt lat="45.71394974047584" lon="10.93802762479439"><ele>144.0</ele><time>2026-05-02T07:46:50Z</time></trkpt><trkpt lat="45.71423389913201" lon="10.93817842050354"><ele>145.5</ele><time>2026-05-02T07:46:51Z</time></trkpt><trkpt lat="45.71449911178799" lon="10.938333610554327"><ele>147.0</ele><time>2026-05-02T07:46:52Z</time></trkpt><trkpt lat="45.71477573309917" lon="10.938419700844129"><ele>147.0</ele><time>2026-05-02T07:46:53Z</time></trkpt><trkpt lat="45.71511888898307" lon="10.938559884016831"><ele>147.0</ele><time>2026-05-02T07:46:54Z</time></trkpt><trkpt lat="45.715399826834414" lon="10.938637453624393"><ele>143.5</ele><time>2026-05-02T07:46:55Z</time></trkpt><trkpt lat="45.71568278369737" lon="10.938742654364267"><ele>140.0</ele><time>2026-05-02T07:46:56Z</time></trkpt><trkpt lat="45.71597505615226" lon="10.93888856900131"><ele>139.5</ele><time>2026-05-02T07:46:57Z</time></trkpt><trkpt lat="45.7162691461378" lon="10.93907720994397"><ele>139.0</ele><time>2026-05-02T07:46:58Z</time></trkpt><trkpt lat="45.716560380531135" lon="10.939286188124862"><ele>137.0</ele><time>2026-05-02T07:46:59Z</time></trkpt><trkpt lat="45.71683566104663" lon="10.939465221013913"><ele>135.0</ele><time>2026-05-02T07:47:00Z</time></trkpt><trkpt lat="45.71712265048648" lon="10.939608129503979"><ele>139.5</ele><time>2026-05-02T07:47:01Z</time></trkpt><trkpt lat="45.717424493576225" lon="10.939742499949336"><ele>144.0</ele><time>2026-05-02T07:47:02Z</time></trkpt><trkpt lat="45.71772202790147" lon="10.939878608283554"><ele>144.5</ele><time>2026-05-02T07:47:03Z</time></trkpt><trkpt lat="45.71799174186125" lon="10.940013121898488"><ele>145.0</ele><time>2026-05-02T07:47:04Z</time></trkpt><trkpt lat="45.718244486215355" lon="10.940133634055014"><ele>148.0</ele><time>2026-05-02T07:47:05Z</time></trkpt><trkpt lat="45.71849385124584" lon="10.940226764584445"><ele>151.0</ele><time>2026-05-02T07:47:06Z</time></trkpt><trkpt lat="45.7187489791112" lon="10.940276333376712"><ele>151.0</ele><time>2026-05-02T07:47:07Z</time></trkpt><trkpt lat="45.71901151504381" lon="10.940282920335369"><ele>151.0</ele><time>2026-05-02T07:47:08Z</time></trkpt><trkpt lat="45.719272795283864" lon="10.940298106891714"><ele>150.5</ele><time>2026-05-02T07:47:09Z</time></trkpt><trkpt lat="45.719553871632655" lon="10.940336703930791"><ele>150.0</ele><time>2026-05-02T07:47:10Z</time></trkpt><trkpt lat="45.719845351521194" lon="10.940415358113551"><ele>150.0</ele><time>2026-05-02T07:47:11Z</time></trkpt><trkpt lat="45.72013994777477" lon="10.940509429870822"><ele>150.0</ele><time>2026-05-02T07:47:12Z</time></trkpt><trkpt lat="45.72043988451007" lon="10.94059390994757"><ele>149.0</ele><time>2026-05-02T07:47:13Z</time></trkpt><trkpt lat="45.72073221386502" lon="10.940680110410339"><ele>148.0</ele><time>2026-05-02T07:47:14Z</time></trkpt><trkpt lat="45.72100734233414" lon="10.940761049969309"><ele>148.5</ele><time>2026-05-02T07:47:15Z</time></trkpt><trkpt lat="45.721261400539376" lon="10.940843600687662"><ele>149.0</ele><time>2026-05-02T07:47:16Z</time></trkpt><trkpt lat="45.72149861535097" lon="10.940950588297806"><ele>152.0</ele><time>2026-05-02T07:47:17Z</time></trkpt><trkpt lat="45.721724928289696" lon="10.94109758383018"><ele>155.0</ele><time>2026-05-02T07:47:18Z</time></trkpt><trkpt lat="45.721962565132195" lon="10.941273657543963"><ele>155.0</ele><time>2026-05-02T07:47:19Z</time></trkpt><trkpt lat="45.72219840681229" lon="10.94145591857259"><ele>155.0</ele><time>2026-05-02T07:47:20Z</time></trkpt><trkpt lat="45.72242339966938" lon="10.941625592213873"><ele>154.0</ele><time>2026-05-02T07:47:21Z</time></trkpt><trkpt lat="45.72263148404395" lon="10.9417922521236"><ele>153.0</ele><time>2026-05-02T07:47:22Z</time></trkpt><trkpt lat="45.72283526631699" lon="10.941974390174723"><ele>153.0</ele><time>2026-05-02T07:47:23Z</time></trkpt><trkpt lat="45.7230342419997" lon="10.942182104678265"><ele>153.0</ele><time>2026-05-02T07:47:24Z</time></trkpt><trkpt lat="45.72323786043774" lon="10.942420298907921"><ele>153.5</ele><time>2026-05-02T07:47:25Z</time></trkpt><trkpt lat="45.723444231813986" lon="10.94267295785665"><ele>154.0</ele><time>2026-05-02T07:47:26Z</time></trkpt><trkpt lat="45.72364792912723" lon="10.942930033880334"><ele>154.0</ele><time>2026-05-02T07:47:27Z</time></trkpt><trkpt lat="45.72385260178062" lon="10.943131828292469"><ele>154.0</ele><time>2026-05-02T07:47:28Z</time></trkpt><trkpt lat="45.724074939052294" lon="10.943299531172332"><ele>155.0</ele><time>2026-05-02T07:47:29Z</time></trkpt><trkpt lat="45.72431534001613" lon="10.943448482969494"><ele>156.0</ele><time>2026-05-02T07:47:30Z</time></trkpt><trkpt lat="45.72457833279256" lon="10.943577626628533"><ele>156.0</ele><time>2026-05-02T07:47:31Z</time></trkpt><trkpt lat="45.724833053352164" lon="10.943715681556933"><ele>156.0</ele><time>2026-05-02T07:47:32Z</time></trkpt><trkpt lat="45.72505119264311" lon="10.943879871465738"><ele>155.0</ele><time>2026-05-02T07:47:33Z</time></trkpt><trkpt lat="45.72523614105334" lon="10.944090999999776"><ele>154.0</ele><time>2026-05-02T07:47:34Z</time></trkpt><trkpt lat="45.725409618889714" lon="10.94432738537052"><ele>154.0</ele><time>2026-05-02T07:47:35Z</time></trkpt><trkpt lat="45.72557910401942" lon="10.944583413300915"><ele>154.0</ele><time>2026-05-02T07:47:36Z</time></trkpt><trkpt lat="45.725741870165066" lon="10.944859210085294"><ele>155.5</ele><time>2026-05-02T07:47:36.999Z</time></trkpt><trkpt lat="45.72588399745936" lon="10.94517443422957"><ele>157.0</ele><time>2026-05-02T07:47:37.999Z</time></trkpt><trkpt lat="45.726004259802544" lon="10.945514009473436"><ele>156.0</ele><time>2026-05-02T07:47:38.999Z</time></trkpt><trkpt lat="45.726137266295936" lon="10.945830911302034"><ele>155.0</ele><time>2026-05-02T07:47:39.999Z</time></trkpt><trkpt lat="45.72629910520021" lon="10.94610518892676"><ele>155.0</ele><time>2026-05-02T07:47:40.999Z</time></trkpt><trkpt lat="45.726492216412524" lon="10.946358751168525"><ele>155.0</ele><time>2026-05-02T07:47:41.999Z</time></trkpt><trkpt lat="45.72671640562298" lon="10.9466005951155"><ele>155.5</ele><time>2026-05-02T07:47:42.999Z</time></trkpt><trkpt lat="45.72695975269536" lon="10.946838938652116"><ele>156.0</ele><time>2026-05-02T07:47:43.999Z</time></trkpt><trkpt lat="45.727198368589875" lon="10.947080604602728"><ele>156.0</ele><time>2026-05-02T07:47:44.999Z</time></trkpt><trkpt lat="45.72744577065287" lon="10.947307477704213"><ele>156.0</ele><time>2026-05-02T07:47:45.999Z</time></trkpt><trkpt lat="45.727697828390866" lon="10.947531483935848"><ele>155.5</ele><time>2026-05-02T07:47:46.999Z</time></trkpt><trkpt lat="45.727948232069565" lon="10.947762155352418"><ele>155.0</ele><time>2026-05-02T07:47:47.999Z</time></trkpt><trkpt lat="45.7281958216367" lon="10.947998488475445"><ele>155.0</ele><time>2026-05-02T07:47:48.999Z</time></trkpt><trkpt lat="45.72843838673134" lon="10.94825596695946"><ele>155.0</ele><time>2026-05-02T07:47:49.999Z</time></trkpt><trkpt lat="45.72867080198577" lon="10.948544229696394"><ele>154.0</ele><time>2026-05-02T07:47:50.999Z</time></trkpt><trkpt lat="45.728889268946176" lon="10.948865025540975"><ele>153.0</ele><time>2026-05-02T07:47:51.999Z</time></trkpt><trkpt lat="45.72911133211095" lon="10.94919863561027"><ele>153.0</ele><time>2026-05-02T07:47:52.999Z</time></trkpt><trkpt lat="45.72934088598613" lon="10.949526277854812"><ele>153.0</ele><time>2026-05-02T07:47:53.999Z</time></trkpt><trkpt lat="45.72957381545149" lon="10.949850812725883"><ele>153.5</ele><time>2026-05-02T07:47:54.999Z</time></trkpt><trkpt lat="45.72980499542757" lon="10.950177409591575"><ele>154.0</ele><time>2026-05-02T07:47:55.999Z</time></trkpt><trkpt lat="45.73003613710465" lon="10.950504689007523"><ele>153.0</ele><time>2026-05-02T07:47:56.999Z</time></trkpt><trkpt lat="45.73026987795732" lon="10.950829626679255"><ele>152.0</ele><time>2026-05-02T07:47:57.999Z</time></trkpt><trkpt lat="45.730501940049095" lon="10.951153033554148"><ele>152.0</ele><time>2026-05-02T07:47:58.999Z</time></trkpt><trkpt lat="45.7307229113509" lon="10.951465876593959"><ele>152.0</ele><time>2026-05-02T07:47:59.999Z</time></trkpt><trkpt lat="45.73092844185564" lon="10.951758971650595"><ele>149.5</ele><time>2026-05-02T07:48:00.999Z</time></trkpt><trkpt lat="45.73111786556069" lon="10.952043696712074"><ele>147.0</ele><time>2026-05-02T07:48:01.999Z</time></trkpt><trkpt lat="45.731277256962514" lon="10.952326306662314"><ele>150.5</ele><time>2026-05-02T07:48:02.999Z</time></trkpt><trkpt lat="45.731405767301894" lon="10.95260439834793"><ele>154.0</ele><time>2026-05-02T07:48:03.999Z</time></trkpt><trkpt lat="45.73150520744626" lon="10.95290054917993"><ele>154.0</ele><time>2026-05-02T07:48:04.999Z</time></trkpt><trkpt lat="45.731597151060136" lon="10.953226601134219"><ele>154.0</ele><time>2026-05-02T07:48:05.999Z</time></trkpt><trkpt lat="45.73169245857931" lon="10.953553200511504"><ele>155.5</ele><time>2026-05-02T07:48:06.999Z</time></trkpt><trkpt lat="45.73179264212292" lon="10.953866207037782"><ele>157.0</ele><time>2026-05-02T07:48:07.999Z</time></trkpt><trkpt lat="45.73191697395704" lon="10.954180206332707"><ele>152.0</ele><time>2026-05-02T07:48:08.999Z</time></trkpt><trkpt lat="45.732061580438874" lon="10.954497317432562"><ele>147.0</ele><time>2026-05-02T07:48:09.999Z</time></trkpt><trkpt lat="45.73221056194031" lon="10.9548274473826"><ele>150.5</ele><time>2026-05-02T07:48:10.999Z</time></trkpt><trkpt lat="45.73235780277956" lon="10.9551706940993"><ele>154.0</ele><time>2026-05-02T07:48:11.999Z</time></trkpt><trkpt lat="45.73250701551584" lon="10.955515182126991"><ele>154.0</ele><time>2026-05-02T07:48:12.999Z</time></trkpt><trkpt lat="45.73265710784779" lon="10.95585872517114"><ele>154.0</ele><time>2026-05-02T07:48:13.999Z</time></trkpt><trkpt lat="45.73280442280783" lon="10.956194925244752"><ele>153.0</ele><time>2026-05-02T07:48:14.999Z</time></trkpt><trkpt lat="45.732950805971136" lon="10.956533624386482"><ele>152.0</ele><time>2026-05-02T07:48:16Z</time></trkpt><trkpt lat="45.7330970629827" lon="10.95686994351769"><ele>152.0</ele><time>2026-05-02T07:48:17.001Z</time></trkpt><trkpt lat="45.73324355032221" lon="10.957200726803585"><ele>152.0</ele><time>2026-05-02T07:48:18Z</time></trkpt><trkpt lat="45.73338436585003" lon="10.957521016844659"><ele>155.0</ele><time>2026-05-02T07:48:19Z</time></trkpt><trkpt lat="45.73351457125612" lon="10.957821794631817"><ele>158.0</ele><time>2026-05-02T07:48:20.001Z</time></trkpt><trkpt lat="45.73363992944022" lon="10.958110811632718"><ele>154.0</ele><time>2026-05-02T07:48:21Z</time></trkpt><trkpt lat="45.733773249745475" lon="10.958401460373103"><ele>150.0</ele><time>2026-05-02T07:48:22Z</time></trkpt><trkpt lat="45.73391999602527" lon="10.958699466746173"><ele>150.0</ele><time>2026-05-02T07:48:23.001Z</time></trkpt><trkpt lat="45.73407907240957" lon="10.95899952071957"><ele>150.0</ele><time>2026-05-02T07:48:24Z</time></trkpt><trkpt lat="45.73424328091908" lon="10.959300458755825"><ele>145.5</ele><time>2026-05-02T07:48:25Z</time></trkpt><trkpt lat="45.73440951897911" lon="10.959608232105923"><ele>141.0</ele><time>2026-05-02T07:48:26Z</time></trkpt><trkpt lat="45.734575031986864" lon="10.959922127644964"><ele>145.0</ele><time>2026-05-02T07:48:27Z</time></trkpt><trkpt lat="45.73474427494171" lon="10.960242147181662"><ele>149.0</ele><time>2026-05-02T07:48:28Z</time></trkpt><trkpt lat="45.734919841000554" lon="10.960569318646087"><ele>143.5</ele><time>2026-05-02T07:48:29Z</time></trkpt><trkpt lat="45.73509985041406" lon="10.96090606406881"><ele>138.0</ele><time>2026-05-02T07:48:30Z</time></trkpt><trkpt lat="45.73528380260392" lon="10.961250221844788"><ele>138.0</ele><time>2026-05-02T07:48:31Z</time></trkpt><trkpt lat="45.73546735420266" lon="10.96159260298209"><ele>138.0</ele><time>2026-05-02T07:48:32Z</time></trkpt><trkpt lat="45.73563815137437" lon="10.96191260296961"><ele>143.5</ele><time>2026-05-02T07:48:33Z</time></trkpt><trkpt lat="45.735802543519" lon="10.962218014938163"><ele>149.0</ele><time>2026-05-02T07:48:34Z</time></trkpt><trkpt lat="45.73596031433392" lon="10.962519802549863"><ele>141.0</ele><time>2026-05-02T07:48:35Z</time></trkpt><trkpt lat="45.73609640414914" lon="10.962821506400994"><ele>133.0</ele><time>2026-05-02T07:48:36Z</time></trkpt><trkpt lat="45.73618338453906" lon="10.963144267720793"><ele>135.5</ele><time>2026-05-02T07:48:37Z</time></trkpt><trkpt lat="45.73629089651667" lon="10.96346384951297"><ele>138.0</ele><time>2026-05-02T07:48:38Z</time></trkpt><trkpt lat="45.73638079570777" lon="10.963804569276148"><ele>138.0</ele><time>2026-05-02T07:48:39Z</time></trkpt><trkpt lat="45.73647073670625" lon="10.964138912314985"><ele>138.0</ele><time>2026-05-02T07:48:40Z</time></trkpt><trkpt lat="45.73655501401459" lon="10.964465804557275"><ele>140.5</ele><time>2026-05-02T07:48:41Z</time></trkpt><trkpt lat="45.73660651999686" lon="10.964811512578123"><ele>143.0</ele><time>2026-05-02T07:48:42Z</time></trkpt><trkpt lat="45.736665689458384" lon="10.965168274568507"><ele>147.5</ele><time>2026-05-02T07:48:43Z</time></trkpt><trkpt lat="45.73672453363318" lon="10.96553406273218"><ele>152.0</ele><time>2026-05-02T07:48:44Z</time></trkpt><trkpt lat="45.73678446526886" lon="10.965916344714486"><ele>154.0</ele><time>2026-05-02T07:48:45Z</time></trkpt><trkpt lat="45.73683910666299" lon="10.966302530425654"><ele>156.0</ele><time>2026-05-02T07:48:46Z</time></trkpt><trkpt lat="45.73688685364328" lon="10.966694687400242"><ele>145.0</ele><time>2026-05-02T07:48:47Z</time></trkpt><trkpt lat="45.736934720951844" lon="10.96709433938781"><ele>134.0</ele><time>2026-05-02T07:48:48Z</time></trkpt><trkpt lat="45.73700024132269" lon="10.96748180465896"><ele>136.5</ele><time>2026-05-02T07:48:49Z</time></trkpt><trkpt lat="45.73703096784246" lon="10.967854588197083"><ele>139.0</ele><time>2026-05-02T07:48:50Z</time></trkpt><trkpt lat="45.7370739458401" lon="10.968192650321607"><ele>139.0</ele><time>2026-05-02T07:48:51Z</time></trkpt><trkpt lat="45.73711346203878" lon="10.968511360077878"><ele>139.0</ele><time>2026-05-02T07:48:52Z</time></trkpt><trkpt lat="45.73715937883728" lon="10.96881119427677"><ele>139.0</ele><time>2026-05-02T07:48:53Z</time></trkpt><trkpt lat="45.73718258921581" lon="10.969106543888197"><ele>139.33333333333334</ele><time>2026-05-02T07:48:54Z</time></trkpt><trkpt lat="45.73721765569108" lon="10.969413243243622"><ele>139.66666666666666</ele><time>2026-05-02T07:48:55Z</time></trkpt><trkpt lat="45.73727392614328" lon="10.969721334729087"><ele>140.0</ele><time>2026-05-02T07:48:56Z</time></trkpt><trkpt lat="45.73734576583987" lon="10.970029410824527"><ele>142.0</ele><time>2026-05-02T07:48:57Z</time></trkpt><trkpt lat="45.73745424997617" lon="10.9703218030124"><ele>144.0</ele><time>2026-05-02T07:48:58Z</time></trkpt><trkpt lat="45.73759896639108" lon="10.970607921702648"><ele>143.0</ele><time>2026-05-02T07:48:59Z</time></trkpt><trkpt lat="45.73777145858868" lon="10.970880517048808"><ele>142.0</ele><time>2026-05-02T07:49:00Z</time></trkpt><trkpt lat="45.73794399776303" lon="10.97113096780992"><ele>142.0</ele><time>2026-05-02T07:49:01Z</time></trkpt><trkpt lat="45.73811197395768" lon="10.971385737537254"><ele>142.0</ele><time>2026-05-02T07:49:02Z</time></trkpt><trkpt lat="45.73827965589409" lon="10.97166355212917"><ele>141.0</ele><time>2026-05-02T07:49:02.999Z</time></trkpt><trkpt lat="45.73845777503209" lon="10.971968335670505"><ele>140.0</ele><time>2026-05-02T07:49:03.999Z</time></trkpt><trkpt lat="45.73862135227056" lon="10.972314677785988"><ele>142.0</ele><time>2026-05-02T07:49:04.999Z</time></trkpt><trkpt lat="45.73879302428123" lon="10.972616975068856"><ele>144.0</ele><time>2026-05-02T07:49:05.999Z</time></trkpt><trkpt lat="45.738934029356756" lon="10.972909787719745"><ele>144.0</ele><time>2026-05-02T07:49:06.999Z</time></trkpt><trkpt lat="45.73908468032555" lon="10.973200451047001"><ele>144.0</ele><time>2026-05-02T07:49:07.999Z</time></trkpt><trkpt lat="45.73923632986446" lon="10.973491395565528"><ele>146.0</ele><time>2026-05-02T07:49:08.999Z</time></trkpt><trkpt lat="45.73937228060049" lon="10.973764134919017"><ele>148.0</ele><time>2026-05-02T07:49:09.999Z</time></trkpt><trkpt lat="45.73947703334304" lon="10.97403476010657"><ele>146.33333333333334</ele><time>2026-05-02T07:49:10.999Z</time></trkpt><trkpt lat="45.73951874314821" lon="10.974314199138298"><ele>144.66666666666666</ele><time>2026-05-02T07:49:11.999Z</time></trkpt><trkpt lat="45.73956782875665" lon="10.974589901807402"><ele>143.0</ele><time>2026-05-02T07:49:12.999Z</time></trkpt><trkpt lat="45.73966869377561" lon="10.97486248454812"><ele>145.5</ele><time>2026-05-02T07:49:13.999Z</time></trkpt><trkpt lat="45.739820019640185" lon="10.975133915151666"><ele>148.0</ele><time>2026-05-02T07:49:14.999Z</time></trkpt><trkpt lat="45.73997443070901" lon="10.975401017789542"><ele>148.0</ele><time>2026-05-02T07:49:15.999Z</time></trkpt><trkpt lat="45.74009838705038" lon="10.975662136231056"><ele>148.0</ele><time>2026-05-02T07:49:16.999Z</time></trkpt><trkpt lat="45.740204366599784" lon="10.975923492491575"><ele>148.0</ele><time>2026-05-02T07:49:17.999Z</time></trkpt><trkpt lat="45.74029866023639" lon="10.976168253419905"><ele>148.0</ele><time>2026-05-02T07:49:18.999Z</time></trkpt><trkpt lat="45.74038876063719" lon="10.976380273982587"><ele>148.0</ele><time>2026-05-02T07:49:19.999Z</time></trkpt><trkpt lat="45.74048662618718" lon="10.976595736957108"><ele>148.0</ele><time>2026-05-02T07:49:20.999Z</time></trkpt><trkpt lat="45.74059780846732" lon="10.976820581131417"><ele>148.0</ele><time>2026-05-02T07:49:21.999Z</time></trkpt><trkpt lat="45.740712917231946" lon="10.977040586018822"><ele>148.0</ele><time>2026-05-02T07:49:22.999Z</time></trkpt><trkpt lat="45.74080376198588" lon="10.97724418471893"><ele>148.0</ele><time>2026-05-02T07:49:23.999Z</time></trkpt><trkpt lat="45.740875164749426" lon="10.977418272161897"><ele>148.5</ele><time>2026-05-02T07:49:24.999Z</time></trkpt><trkpt lat="45.74092992031381" lon="10.9775625424652"><ele>149.0</ele><time>2026-05-02T07:49:25.999Z</time></trkpt><trkpt lat="45.740989535691995" lon="10.977709682371819"><ele>149.5</ele><time>2026-05-02T07:49:26.999Z</time></trkpt><trkpt lat="45.74105874285903" lon="10.977878485228912"><ele>150.0</ele><time>2026-05-02T07:49:27.999Z</time></trkpt><trkpt lat="45.74113158404669" lon="10.978052123702069"><ele>149.25</ele><time>2026-05-02T07:49:28.999Z</time></trkpt><trkpt lat="45.741203453441905" lon="10.978215602775373"><ele>148.5</ele><time>2026-05-02T07:49:29.999Z</time></trkpt><trkpt lat="45.74128816483478" lon="10.978386158652103"><ele>147.75</ele><time>2026-05-02T07:49:30.999Z</time></trkpt><trkpt lat="45.74139829345044" lon="10.978558790660852"><ele>147.0</ele><time>2026-05-02T07:49:31.999Z</time></trkpt><trkpt lat="45.74152086627617" lon="10.97872929084863"><ele>147.0</ele><time>2026-05-02T07:49:32.999Z</time></trkpt><trkpt lat="45.74164250547783" lon="10.978886762652873"><ele>147.0</ele><time>2026-05-02T07:49:33.999Z</time></trkpt><trkpt lat="45.74175575007736" lon="10.979036029340714"><ele>147.0</ele><time>2026-05-02T07:49:34.999Z</time></trkpt><trkpt lat="45.74187651435202" lon="10.979201694603328"><ele>147.0</ele><time>2026-05-02T07:49:35.999Z</time></trkpt><trkpt lat="45.74200877151732" lon="10.979392577035254"><ele>147.0</ele><time>2026-05-02T07:49:36.999Z</time></trkpt><trkpt lat="45.74213854816294" lon="10.979589024793507"><ele>147.0</ele><time>2026-05-02T07:49:37.999Z</time></trkpt><trkpt lat="45.742259246074596" lon="10.97977681150946"><ele>147.0</ele><time>2026-05-02T07:49:38.999Z</time></trkpt><trkpt lat="45.74237687619728" lon="10.979968312798107"><ele>147.0</ele><time>2026-05-02T07:49:39.999Z</time></trkpt><trkpt lat="45.74248122961537" lon="10.980143477430907"><ele>147.0</ele><time>2026-05-02T07:49:40.999Z</time></trkpt><trkpt lat="45.742586148316036" lon="10.980304733751389"><ele>148.0</ele><time>2026-05-02T07:49:41.999Z</time></trkpt><trkpt lat="45.74269607178045" lon="10.980484146965109"><ele>149.0</ele><time>2026-05-02T07:49:42.999Z</time></trkpt><trkpt lat="45.7428028167138" lon="10.980689786068972"><ele>150.0</ele><time>2026-05-02T07:49:43.999Z</time></trkpt><trkpt lat="45.74291098096468" lon="10.980932041668506"><ele>148.33333333333334</ele><time>2026-05-02T07:49:44.999Z</time></trkpt><trkpt lat="45.74302208519439" lon="10.981200774437621"><ele>146.66666666666669</ele><time>2026-05-02T07:49:45.999Z</time></trkpt><trkpt lat="45.74312138047437" lon="10.981460766959637"><ele>145.0</ele><time>2026-05-02T07:49:46.999Z</time></trkpt><trkpt lat="45.74321772524176" lon="10.9817284644508"><ele>145.0</ele><time>2026-05-02T07:49:47.999Z</time></trkpt><trkpt lat="45.74331053061483" lon="10.982007422730819"><ele>145.0</ele><time>2026-05-02T07:49:48.999Z</time></trkpt><trkpt lat="45.743400003050006" lon="10.982286297313298"><ele>145.0</ele><time>2026-05-02T07:49:49.999Z</time></trkpt><trkpt lat="45.7434841821161" lon="10.982546380873504"><ele>142.66666666666669</ele><time>2026-05-02T07:49:50.999Z</time></trkpt><trkpt lat="45.74356764788165" lon="10.982804509601223"><ele>140.33333333333334</ele><time>2026-05-02T07:49:51.999Z</time></trkpt><trkpt lat="45.7436446351307" lon="10.983048575825878"><ele>138.0</ele><time>2026-05-02T07:49:52.999Z</time></trkpt><trkpt lat="45.74371459109756" lon="10.983296329216865"><ele>139.66666666666666</ele><time>2026-05-02T07:49:53.999Z</time></trkpt><trkpt lat="45.743778517857926" lon="10.983550975636472"><ele>141.33333333333331</ele><time>2026-05-02T07:49:54.999Z</time></trkpt><trkpt lat="45.74382374536413" lon="10.983801053699455"><ele>143.0</ele><time>2026-05-02T07:49:55.999Z</time></trkpt><trkpt lat="45.74390845222023" lon="10.98405264983959"><ele>143.66666666666666</ele><time>2026-05-02T07:49:56.999Z</time></trkpt><trkpt lat="45.7439652084551" lon="10.984308388459022"><ele>144.33333333333334</ele><time>2026-05-02T07:49:57.999Z</time></trkpt><trkpt lat="45.744016957510674" lon="10.984564832527472"><ele>145.0</ele><time>2026-05-02T07:49:58.999Z</time></trkpt><trkpt lat="45.744067540311356" lon="10.984816189509981"><ele>146.0</ele><time>2026-05-02T07:49:59.999Z</time></trkpt><trkpt lat="45.744132372687815" lon="10.985055924532015"><ele>147.0</ele><time>2026-05-02T07:50:00.999Z</time></trkpt><trkpt lat="45.74422013854537" lon="10.985277197184091"><ele>148.0</ele><time>2026-05-02T07:50:01.999Z</time></trkpt><trkpt lat="45.74433534801068" lon="10.985485201471105"><ele>146.66666666666669</ele><time>2026-05-02T07:50:02.999Z</time></trkpt><trkpt lat="45.74447254787795" lon="10.985689695059271"><ele>145.33333333333334</ele><time>2026-05-02T07:50:03.999Z</time></trkpt><trkpt lat="45.74462184701766" lon="10.985902960360074"><ele>144.0</ele><time>2026-05-02T07:50:04.999Z</time></trkpt><trkpt lat="45.744771432126555" lon="10.986133440432113"><ele>144.0</ele><time>2026-05-02T07:50:05.999Z</time></trkpt><trkpt lat="45.744922692401964" lon="10.986375432230279"><ele>144.0</ele><time>2026-05-02T07:50:06.999Z</time></trkpt><trkpt lat="45.745071324026185" lon="10.986604480625882"><ele>144.0</ele><time>2026-05-02T07:50:07.999Z</time></trkpt><trkpt lat="45.745210896413795" lon="10.986828302877672"><ele>144.0</ele><time>2026-05-02T07:50:08.999Z</time></trkpt><trkpt lat="45.74535426631468" lon="10.987043591001807"><ele>144.0</ele><time>2026-05-02T07:50:09.999Z</time></trkpt><trkpt lat="45.74550622201218" lon="10.987216331904117"><ele>144.0</ele><time>2026-05-02T07:50:10.999Z</time></trkpt><trkpt lat="45.745656071968355" lon="10.987362020321909"><ele>144.0</ele><time>2026-05-02T07:50:11.999Z</time></trkpt><trkpt lat="45.74580640630887" lon="10.987490613982105"><ele>144.0</ele><time>2026-05-02T07:50:12.999Z</time></trkpt><trkpt lat="45.74595208524828" lon="10.987613633081137"><ele>144.0</ele><time>2026-05-02T07:50:13.999Z</time></trkpt><trkpt lat="45.746087335081135" lon="10.987737863933074"><ele>144.0</ele><time>2026-05-02T07:50:14.999Z</time></trkpt><trkpt lat="45.746217746980875" lon="10.987864971089"><ele>144.0</ele><time>2026-05-02T07:50:15.999Z</time></trkpt><trkpt lat="45.74635085194948" lon="10.987986585038938"><ele>144.0</ele><time>2026-05-02T07:50:16.999Z</time></trkpt><trkpt lat="45.74648648600591" lon="10.988123008787252"><ele>144.0</ele><time>2026-05-02T07:50:17.999Z</time></trkpt><trkpt lat="45.74661280584684" lon="10.988257520590727"><ele>144.0</ele><time>2026-05-02T07:50:18.998Z</time></trkpt><trkpt lat="45.74672559394063" lon="10.98841780201651"><ele>144.0</ele><time>2026-05-02T07:50:19.998Z</time></trkpt><trkpt lat="45.74683351420216" lon="10.988605235095543"><ele>143.66666666666666</ele><time>2026-05-02T07:50:20.998Z</time></trkpt><trkpt lat="45.746910833835145" lon="10.988828576565172"><ele>143.33333333333331</ele><time>2026-05-02T07:50:22Z</time></trkpt><trkpt lat="45.746981918111544" lon="10.989057142575412"><ele>143.0</ele><time>2026-05-02T07:50:23Z</time></trkpt><trkpt lat="45.747073574698376" lon="10.989284220479746"><ele>143.0</ele><time>2026-05-02T07:50:24Z</time></trkpt><trkpt lat="45.74715961211592" lon="10.98952897213919"><ele>143.0</ele><time>2026-05-02T07:50:25Z</time></trkpt><trkpt lat="45.7472574907558" lon="10.989763201716539"><ele>143.0</ele><time>2026-05-02T07:50:26Z</time></trkpt><trkpt lat="45.74736524092732" lon="10.989974806099395"><ele>142.33333333333331</ele><time>2026-05-02T07:50:27Z</time></trkpt><trkpt lat="45.74747727120039" lon="10.990173530021028"><ele>141.66666666666666</ele><time>2026-05-02T07:50:28Z</time></trkpt><trkpt lat="45.74761385274441" lon="10.99036520865665"><ele>141.0</ele><time>2026-05-02T07:50:29Z</time></trkpt><trkpt lat="45.7477500121364" lon="10.99053379954122"><ele>141.0</ele><time>2026-05-02T07:50:30Z</time></trkpt><trkpt lat="45.747894037980906" lon="10.990672927464042"><ele>141.0</ele><time>2026-05-02T07:50:31Z</time></trkpt><trkpt lat="45.7480603438425" lon="10.99077612695095"><ele>141.0</ele><time>2026-05-02T07:50:32Z</time></trkpt><trkpt lat="45.74823721244233" lon="10.990850202860141"><ele>141.0</ele><time>2026-05-02T07:50:33Z</time></trkpt><trkpt lat="45.74840379347853" lon="10.990951304918644"><ele>141.0</ele><time>2026-05-02T07:50:34Z</time></trkpt><trkpt lat="45.74853558901676" lon="10.99110651721914"><ele>141.0</ele><time>2026-05-02T07:50:35Z</time></trkpt><trkpt lat="45.74865956663854" lon="10.991290105876127"><ele>141.0</ele><time>2026-05-02T07:50:36Z</time></trkpt><trkpt lat="45.74877859035447" lon="10.991472928554918"><ele>141.0</ele><time>2026-05-02T07:50:37Z</time></trkpt><trkpt lat="45.748880376876826" lon="10.991641481284029"><ele>141.0</ele><time>2026-05-02T07:50:38Z</time></trkpt><trkpt lat="45.74897028626774" lon="10.991809345632852"><ele>141.33333333333334</ele><time>2026-05-02T07:50:39Z</time></trkpt><trkpt lat="45.74905015821638" lon="10.992001833970836"><ele>141.66666666666669</ele><time>2026-05-02T07:50:40Z</time></trkpt><trkpt lat="45.74912332772879" lon="10.992215844036327"><ele>142.0</ele><time>2026-05-02T07:50:41Z</time></trkpt><trkpt lat="45.749209046586635" lon="10.992422160620102"><ele>141.66666666666669</ele><time>2026-05-02T07:50:42Z</time></trkpt><trkpt lat="45.74929091527344" lon="10.992639717970402"><ele>141.33333333333334</ele><time>2026-05-02T07:50:43Z</time></trkpt><trkpt lat="45.749396549774744" lon="10.992849825805452"><ele>141.0</ele><time>2026-05-02T07:50:44Z</time></trkpt><trkpt lat="45.749524290286026" lon="10.99304501177973"><ele>141.0</ele><time>2026-05-02T07:50:45Z</time></trkpt><trkpt lat="45.74965103989828" lon="10.993226166772265"><ele>141.0</ele><time>2026-05-02T07:50:46Z</time></trkpt><trkpt lat="45.7497733801691" lon="10.993403015254442"><ele>141.0</ele><time>2026-05-02T07:50:47Z</time></trkpt><trkpt lat="45.74989354510324" lon="10.99358039341213"><ele>140.66666666666666</ele><time>2026-05-02T07:50:48Z</time></trkpt><trkpt lat="45.75001751153127" lon="10.993759890754413"><ele>140.33333333333331</ele><time>2026-05-02T07:50:49Z</time></trkpt><trkpt lat="45.7501474583308" lon="10.993933046065262"><ele>140.0</ele><time>2026-05-02T07:50:50Z</time></trkpt><trkpt lat="45.75029090975599" lon="10.994100299894962"><ele>142.33333333333331</ele><time>2026-05-02T07:50:51Z</time></trkpt><trkpt lat="45.75044871637026" lon="10.99426135661389"><ele>144.66666666666666</ele><time>2026-05-02T07:50:52Z</time></trkpt><trkpt lat="45.7506141188213" lon="10.994412138625362"><ele>147.0</ele><time>2026-05-02T07:50:53Z</time></trkpt><trkpt lat="45.7507806591223" lon="10.994561935287988"><ele>147.0</ele><time>2026-05-02T07:50:54Z</time></trkpt><trkpt lat="45.75094710499187" lon="10.994701282566506"><ele>147.0</ele><time>2026-05-02T07:50:55Z</time></trkpt><trkpt lat="45.751112467542725" lon="10.99483593901623"><ele>147.0</ele><time>2026-05-02T07:50:56Z</time></trkpt><trkpt lat="45.75127422369288" lon="10.994968585053172"><ele>147.66666666666666</ele><time>2026-05-02T07:50:57Z</time></trkpt><trkpt lat="45.75142133392395" lon="10.995094360861659"><ele>148.33333333333331</ele><time>2026-05-02T07:50:58Z</time></trkpt><trkpt lat="45.75156215468299" lon="10.995213990993891"><ele>149.0</ele><time>2026-05-02T07:50:59Z</time></trkpt><trkpt lat="45.75169348308512" lon="10.995326417510098"><ele>149.0</ele><time>2026-05-02T07:51:00Z</time></trkpt><trkpt lat="45.75182691664745" lon="10.99544015231289"><ele>149.0</ele><time>2026-05-02T07:51:01Z</time></trkpt><trkpt lat="45.75196495794884" lon="10.995555867770511"><ele>149.0</ele><time>2026-05-02T07:51:02Z</time></trkpt><trkpt lat="45.75209923970562" lon="10.995669487806866"><ele>149.0</ele><time>2026-05-02T07:51:03Z</time></trkpt><trkpt lat="45.752222992089074" lon="10.995778039049005"><ele>149.0</ele><time>2026-05-02T07:51:04Z</time></trkpt><trkpt lat="45.75233731567467" lon="10.99587969809251"><ele>149.0</ele><time>2026-05-02T07:51:05Z</time></trkpt><trkpt lat="45.75244290257544" lon="10.995980365716049"><ele>149.0</ele><time>2026-05-02T07:51:06Z</time></trkpt><trkpt lat="45.752539919649294" lon="10.996076164265576"><ele>149.0</ele><time>2026-05-02T07:51:07Z</time></trkpt><trkpt lat="45.75263143995388" lon="10.996160895082578"><ele>149.0</ele><time>2026-05-02T07:51:08Z</time></trkpt><trkpt lat="45.75271580502078" lon="10.996243808320461"><ele>149.0</ele><time>2026-05-02T07:51:09Z</time></trkpt><trkpt lat="45.75280029736595" lon="10.99632683755595"><ele>149.0</ele><time>2026-05-02T07:51:10Z</time></trkpt><trkpt lat="45.75288732948942" lon="10.996410126511615"><ele>149.0</ele><time>2026-05-02T07:51:11Z</time></trkpt><trkpt lat="45.75297443666771" lon="10.996498509276623"><ele>148.75</ele><time>2026-05-02T07:51:12Z</time></trkpt><trkpt lat="45.753066254663075" lon="10.996592114929845"><ele>148.5</ele><time>2026-05-02T07:51:13Z</time></trkpt><trkpt lat="45.75316592783521" lon="10.99668628775842"><ele>148.25</ele><time>2026-05-02T07:51:14Z</time></trkpt><trkpt lat="45.753281571712954" lon="10.996784753101592"><ele>148.0</ele><time>2026-05-02T07:51:15Z</time></trkpt><trkpt lat="45.75341298727973" lon="10.996885369231425"><ele>148.66666666666669</ele><time>2026-05-02T07:51:16Z</time></trkpt><trkpt lat="45.75354988509656" lon="10.99698593210582"><ele>149.33333333333334</ele><time>2026-05-02T07:51:17Z</time></trkpt><trkpt lat="45.753687971727906" lon="10.997080297501515"><ele>150.0</ele><time>2026-05-02T07:51:18Z</time></trkpt><trkpt lat="45.75382602025418" lon="10.99717262637103"><ele>150.0</ele><time>2026-05-02T07:51:19Z</time></trkpt><trkpt lat="45.75396419213541" lon="10.99726477211722"><ele>150.0</ele><time>2026-05-02T07:51:20Z</time></trkpt><trkpt lat="45.754103049215566" lon="10.997354706735322"><ele>150.0</ele><time>2026-05-02T07:51:21Z</time></trkpt><trkpt lat="45.75423408590987" lon="10.997442660137427"><ele>150.0</ele><time>2026-05-02T07:51:22Z</time></trkpt><trkpt lat="45.75434730143291" lon="10.99752450616657"><ele>151.75</ele><time>2026-05-02T07:51:23Z</time></trkpt><trkpt lat="45.754454175033544" lon="10.997597479581597"><ele>153.5</ele><time>2026-05-02T07:51:24Z</time></trkpt><trkpt lat="45.754557708464034" lon="10.997663453664092"><ele>155.25</ele><time>2026-05-02T07:51:25Z</time></trkpt><trkpt lat="45.75466250388043" lon="10.997730667096898"><ele>157.0</ele><time>2026-05-02T07:51:26Z</time></trkpt><trkpt lat="45.754767624110215" lon="10.997804046389751"><ele>157.0</ele><time>2026-05-02T07:51:27Z</time></trkpt><trkpt lat="45.7548741830031" lon="10.997875728864432"><ele>157.0</ele><time>2026-05-02T07:51:28Z</time></trkpt><trkpt lat="45.75498463867733" lon="10.9979504132007"><ele>157.0</ele><time>2026-05-02T07:51:29Z</time></trkpt><trkpt lat="45.75509561772823" lon="10.998023406824476"><ele>157.0</ele><time>2026-05-02T07:51:30Z</time></trkpt><trkpt lat="45.755205752890774" lon="10.99809597808835"><ele>157.5</ele><time>2026-05-02T07:51:31Z</time></trkpt><trkpt lat="45.75531536980025" lon="10.998167503305318"><ele>158.0</ele><time>2026-05-02T07:51:32Z</time></trkpt><trkpt lat="45.755424104648945" lon="10.998243155563715"><ele>158.5</ele><time>2026-05-02T07:51:33Z</time></trkpt><trkpt lat="45.75552701773818" lon="10.99831409258729"><ele>159.0</ele><time>2026-05-02T07:51:34Z</time></trkpt><trkpt lat="45.75562663117043" lon="10.99838307690815"><ele>159.75</ele><time>2026-05-02T07:51:35Z</time></trkpt><trkpt lat="45.75573021727851" lon="10.998456936852708"><ele>160.5</ele><time>2026-05-02T07:51:36Z</time></trkpt><trkpt lat="45.755836773911014" lon="10.998534674067441"><ele>161.25</ele><time>2026-05-02T07:51:37Z</time></trkpt><trkpt lat="45.75594838994116" lon="10.99861452170131"><ele>162.0</ele><time>2026-05-02T07:51:38Z</time></trkpt><trkpt lat="45.75606471195311" lon="10.99869432899094"><ele>162.5</ele><time>2026-05-02T07:51:39Z</time></trkpt><trkpt lat="45.75617835591791" lon="10.998771538982348"><ele>163.0</ele><time>2026-05-02T07:51:40Z</time></trkpt><trkpt lat="45.75628994731445" lon="10.998847897839395"><ele>163.5</ele><time>2026-05-02T07:51:41Z</time></trkpt><trkpt lat="45.756402620518436" lon="10.998921537080367"><ele>164.0</ele><time>2026-05-02T07:51:42Z</time></trkpt><trkpt lat="45.7565147369816" lon="10.998996154777934"><ele>164.0</ele><time>2026-05-02T07:51:43Z</time></trkpt><trkpt lat="45.75663103543382" lon="10.999074617088832"><ele>164.0</ele><time>2026-05-02T07:51:44Z</time></trkpt><trkpt lat="45.75674983095733" lon="10.999155364323913"><ele>164.0</ele><time>2026-05-02T07:51:45Z</time></trkpt><trkpt lat="45.75687338794272" lon="10.999248412873403"><ele>164.0</ele><time>2026-05-02T07:51:46Z</time></trkpt><trkpt lat="45.75699582178902" lon="10.999363029476795"><ele>165.0</ele><time>2026-05-02T07:51:47Z</time></trkpt><trkpt lat="45.757118113095224" lon="10.99948813519029"><ele>166.0</ele><time>2026-05-02T07:51:48Z</time></trkpt><trkpt lat="45.75723851173437" lon="10.999623779006702"><ele>167.0</ele><time>2026-05-02T07:51:49Z</time></trkpt><trkpt lat="45.75735527791581" lon="10.999759580144682"><ele>167.0</ele><time>2026-05-02T07:51:50Z</time></trkpt><trkpt lat="45.757466314675405" lon="10.99988841144871"><ele>167.0</ele><time>2026-05-02T07:51:51Z</time></trkpt><trkpt lat="45.75756643005743" lon="11.000009579596227"><ele>167.0</ele><time>2026-05-02T07:51:52Z</time></trkpt><trkpt lat="45.75766073552677" lon="11.000122502441092"><ele>167.0</ele><time>2026-05-02T07:51:53Z</time></trkpt><trkpt lat="45.75775108611882" lon="11.000223347703415"><ele>166.2</ele><time>2026-05-02T07:51:54Z</time></trkpt><trkpt lat="45.75783160825649" lon="11.000317551179515"><ele>165.39999999999998</ele><time>2026-05-02T07:51:54.999Z</time></trkpt><trkpt lat="45.7579003185316" lon="11.000398225472942"><ele>164.60000000000002</ele><time>2026-05-02T07:51:55.999Z</time></trkpt><trkpt lat="45.75795982603277" lon="11.000465813647041"><ele>163.8</ele><time>2026-05-02T07:51:56.999Z</time></trkpt><trkpt lat="45.758011539068434" lon="11.00053028295219"><ele>163.0</ele><time>2026-05-02T07:51:57.999Z</time></trkpt><trkpt lat="45.758110250573424" lon="11.00064721933095"><ele>163.0</ele><time>2026-05-02T07:51:59.999Z</time></trkpt><trkpt lat="45.75818526830415" lon="11.000733234913387"><ele>163.0</ele><time>2026-05-02T07:52:01.999Z</time></trkpt><trkpt lat="45.7582523322895" lon="11.000808285541261"><ele>163.0</ele><time>2026-05-02T07:52:03.999Z</time></trkpt><trkpt lat="45.758313784086795" lon="11.000878512615182"><ele>163.0</ele><time>2026-05-02T07:52:05.999Z</time></trkpt><trkpt lat="45.75836649163367" lon="11.00094447634319"><ele>163.0</ele><time>2026-05-02T07:52:08.999Z</time></trkpt><trkpt lat="45.75842361002564" lon="11.001016183753215"><ele>163.0</ele><time>2026-05-02T07:52:12.999Z</time></trkpt><trkpt lat="45.75850052112734" lon="11.00110298391067"><ele>163.0</ele><time>2026-05-02T07:52:46Z</time></trkpt><trkpt lat="45.75858924647434" lon="11.001213018260627"><ele>163.0</ele><time>2026-05-02T07:52:48Z</time></trkpt><trkpt lat="45.758652727398136" lon="11.0012914572083"><ele>163.0</ele><time>2026-05-02T07:52:49Z</time></trkpt><trkpt lat="45.7587111798524" lon="11.001365698449904"><ele>163.0</ele><time>2026-05-02T07:52:50Z</time></trkpt><trkpt lat="45.758769011826075" lon="11.001435290199604"><ele>163.0</ele><time>2026-05-02T07:52:51Z</time></trkpt><trkpt lat="45.75884072013373" lon="11.00151500155879"><ele>163.0</ele><time>2026-05-02T07:52:52Z</time></trkpt><trkpt lat="45.75893209494692" lon="11.0016065459648"><ele>163.0</ele><time>2026-05-02T07:52:53Z</time></trkpt><trkpt lat="45.75902931769456" lon="11.001702936950226"><ele>163.0</ele><time>2026-05-02T07:52:54Z</time></trkpt><trkpt lat="45.759139169544056" lon="11.0018056033303"><ele>163.0</ele><time>2026-05-02T07:52:55Z</time></trkpt><trkpt lat="45.75925410490869" lon="11.001915570031194"><ele>163.0</ele><time>2026-05-02T07:52:56Z</time></trkpt><trkpt lat="45.75934946209908" lon="11.002039030500807"><ele>160.75</ele><time>2026-05-02T07:52:57Z</time></trkpt><trkpt lat="45.759456188924574" lon="11.002139956515746"><ele>158.5</ele><time>2026-05-02T07:52:58Z</time></trkpt><trkpt lat="45.75956706759591" lon="11.002246686118308"><ele>156.25</ele><time>2026-05-02T07:52:59Z</time></trkpt><trkpt lat="45.75968436456417" lon="11.002359112240864"><ele>154.0</ele><time>2026-05-02T07:53:00Z</time></trkpt><trkpt lat="45.75981031650188" lon="11.002479472111336"><ele>155.0</ele><time>2026-05-02T07:53:01Z</time></trkpt><trkpt lat="45.7599445769402" lon="11.002608664944347"><ele>156.0</ele><time>2026-05-02T07:53:02Z</time></trkpt><trkpt lat="45.76008039309258" lon="11.002740872136917"><ele>157.0</ele><time>2026-05-02T07:53:03Z</time></trkpt><trkpt lat="45.760213848733564" lon="11.002871494250567"><ele>157.66666666666669</ele><time>2026-05-02T07:53:04Z</time></trkpt><trkpt lat="45.760345255220884" lon="11.002999150734627"><ele>158.33333333333334</ele><time>2026-05-02T07:53:05Z</time></trkpt><trkpt lat="45.760477946737915" lon="11.00312781031494"><ele>159.0</ele><time>2026-05-02T07:53:06Z</time></trkpt><trkpt lat="45.760613017692" lon="11.003258777044135"><ele>160.5</ele><time>2026-05-02T07:53:07Z</time></trkpt><trkpt lat="45.76074068492311" lon="11.003382683743057"><ele>162.0</ele><time>2026-05-02T07:53:08Z</time></trkpt><trkpt lat="45.760860755412125" lon="11.003500084430105"><ele>163.5</ele><time>2026-05-02T07:53:09Z</time></trkpt><trkpt lat="45.76098302343039" lon="11.003618146974068"><ele>165.0</ele><time>2026-05-02T07:53:10Z</time></trkpt><trkpt lat="45.761107951139685" lon="11.003738117895482"><ele>166.33333333333334</ele><time>2026-05-02T07:53:11Z</time></trkpt><trkpt lat="45.76124074158488" lon="11.003865465176556"><ele>167.66666666666669</ele><time>2026-05-02T07:53:12Z</time></trkpt><trkpt lat="45.76139276546563" lon="11.00401125746468"><ele>169.0</ele><time>2026-05-02T07:53:13Z</time></trkpt><trkpt lat="45.761557996595414" lon="11.004169716052182"><ele>169.66666666666669</ele><time>2026-05-02T07:53:14Z</time></trkpt><trkpt lat="45.76172810929722" lon="11.004332855668967"><ele>170.33333333333334</ele><time>2026-05-02T07:53:15Z</time></trkpt><trkpt lat="45.76190498564105" lon="11.00450231781796"><ele>171.0</ele><time>2026-05-02T07:53:16Z</time></trkpt><trkpt lat="45.762064301800194" lon="11.004654855735762"><ele>171.0</ele><time>2026-05-02T07:53:17Z</time></trkpt><trkpt lat="45.76221799490339" lon="11.00477907853588"><ele>171.0</ele><time>2026-05-02T07:53:18Z</time></trkpt><trkpt lat="45.762342945058954" lon="11.004912958833618"><ele>171.0</ele><time>2026-05-02T07:53:19Z</time></trkpt><trkpt lat="45.76245328656501" lon="11.005042354383272"><ele>171.25</ele><time>2026-05-02T07:53:20Z</time></trkpt><trkpt lat="45.762556362909194" lon="11.005170544283615"><ele>171.5</ele><time>2026-05-02T07:53:21Z</time></trkpt><trkpt lat="45.762670504229234" lon="11.005288487408093"><ele>171.75</ele><time>2026-05-02T07:53:22Z</time></trkpt><trkpt lat="45.762798402360644" lon="11.005397415172338"><ele>172.0</ele><time>2026-05-02T07:53:23Z</time></trkpt><trkpt lat="45.76293720541254" lon="11.005517991151473"><ele>171.33333333333334</ele><time>2026-05-02T07:53:24Z</time></trkpt><trkpt lat="45.76308404248464" lon="11.005649854460733"><ele>170.66666666666666</ele><time>2026-05-02T07:53:25Z</time></trkpt><trkpt lat="45.76323583572704" lon="11.005793955154187"><ele>170.0</ele><time>2026-05-02T07:53:26Z</time></trkpt><trkpt lat="45.76339366541302" lon="11.005950032596273"><ele>168.66666666666666</ele><time>2026-05-02T07:53:27Z</time></trkpt><trkpt lat="45.7635658732334" lon="11.006112674972158"><ele>167.33333333333334</ele><time>2026-05-02T07:53:28Z</time></trkpt><trkpt lat="45.76374737252151" lon="11.006277177152738"><ele>166.0</ele><time>2026-05-02T07:53:29Z</time></trkpt><trkpt lat="45.76392449379317" lon="11.006445918969801"><ele>166.0</ele><time>2026-05-02T07:53:30Z</time></trkpt><trkpt lat="45.764093760210265" lon="11.006606341047734"><ele>166.0</ele><time>2026-05-02T07:53:31Z</time></trkpt><trkpt lat="45.76427455911292" lon="11.006746493484311"><ele>166.0</ele><time>2026-05-02T07:53:32Z</time></trkpt><trkpt lat="45.764454582006614" lon="11.006858656218192"><ele>165.33333333333334</ele><time>2026-05-02T07:53:33Z</time></trkpt><trkpt lat="45.7646321310471" lon="11.006947539949277"><ele>164.66666666666666</ele><time>2026-05-02T07:53:34Z</time></trkpt><trkpt lat="45.76482050142033" lon="11.007020693525616"><ele>164.0</ele><time>2026-05-02T07:53:34.999Z</time></trkpt><trkpt lat="45.76501899923611" lon="11.0070818652868"><ele>161.33333333333331</ele><time>2026-05-02T07:53:35.999Z</time></trkpt><trkpt lat="45.765225609928535" lon="11.007147089002236"><ele>158.66666666666666</ele><time>2026-05-02T07:53:36.999Z</time></trkpt><trkpt lat="45.76543618266418" lon="11.007204960839502"><ele>156.0</ele><time>2026-05-02T07:53:37.999Z</time></trkpt><trkpt lat="45.76564987158502" lon="11.007259952085798"><ele>156.0</ele><time>2026-05-02T07:53:38.999Z</time></trkpt><trkpt lat="45.76586144440521" lon="11.007313339207808"><ele>156.0</ele><time>2026-05-02T07:53:39.999Z</time></trkpt><trkpt lat="45.7660732128159" lon="11.007369147567099"><ele>156.0</ele><time>2026-05-02T07:53:40.999Z</time></trkpt><trkpt lat="45.76627422590813" lon="11.007420982995374"><ele>155.66666666666666</ele><time>2026-05-02T07:53:41.999Z</time></trkpt><trkpt lat="45.76647801682773" lon="11.007476967521985"><ele>155.33333333333331</ele><time>2026-05-02T07:53:42.999Z</time></trkpt><trkpt lat="45.76668978661344" lon="11.007535329165119"><ele>155.0</ele><time>2026-05-02T07:53:43.999Z</time></trkpt><trkpt lat="45.76689930979186" lon="11.007613024359353"><ele>152.66666666666666</ele><time>2026-05-02T07:53:44.999Z</time></trkpt><trkpt lat="45.767103929656784" lon="11.00771862726511"><ele>150.33333333333334</ele><time>2026-05-02T07:53:45.999Z</time></trkpt><trkpt lat="45.76729798452202" lon="11.007864373478643"><ele>148.0</ele><time>2026-05-02T07:53:46.999Z</time></trkpt><trkpt lat="45.76748126646102" lon="11.00803483995323"><ele>148.0</ele><time>2026-05-02T07:53:47.999Z</time></trkpt><trkpt lat="45.767646326651835" lon="11.008209347973606"><ele>148.0</ele><time>2026-05-02T07:53:48.999Z</time></trkpt><trkpt lat="45.76780593227722" lon="11.008370876059203"><ele>148.0</ele><time>2026-05-02T07:53:49.999Z</time></trkpt><trkpt lat="45.7679582608209" lon="11.008520394694184"><ele>148.25</ele><time>2026-05-02T07:53:50.999Z</time></trkpt><trkpt lat="45.76809111909485" lon="11.008650390381371"><ele>148.5</ele><time>2026-05-02T07:53:51.999Z</time></trkpt><trkpt lat="45.76820196048635" lon="11.00876250181787"><ele>148.75</ele><time>2026-05-02T07:53:52.999Z</time></trkpt><trkpt lat="45.76829129689535" lon="11.00885974375467"><ele>149.0</ele><time>2026-05-02T07:53:53.999Z</time></trkpt><trkpt lat="45.76836341216618" lon="11.008956944591116"><ele>149.0</ele><time>2026-05-02T07:53:54.999Z</time></trkpt><trkpt lat="45.76842030181328" lon="11.009058786220125"><ele>149.0</ele><time>2026-05-02T07:53:55.999Z</time></trkpt><trkpt lat="45.76848350517273" lon="11.00916210213832"><ele>149.0</ele><time>2026-05-02T07:53:56.999Z</time></trkpt><trkpt lat="45.76856990139335" lon="11.00923367328986"><ele>149.0</ele><time>2026-05-02T07:53:57.999Z</time></trkpt><trkpt lat="45.76868794866492" lon="11.00930440787867"><ele>149.0</ele><time>2026-05-02T07:53:58.999Z</time></trkpt><trkpt lat="45.76882757183063" lon="11.009404839766196"><ele>148.33333333333331</ele><time>2026-05-02T07:53:59.999Z</time></trkpt><trkpt lat="45.768968732808055" lon="11.009536040364111"><ele>147.66666666666666</ele><time>2026-05-02T07:54:00.998Z</time></trkpt><trkpt lat="45.76910852160466" lon="11.009673587194081"><ele>147.0</ele><time>2026-05-02T07:54:01.998Z</time></trkpt><trkpt lat="45.76925806777241" lon="11.009810802747733"><ele>146.33333333333334</ele><time>2026-05-02T07:54:02.998Z</time></trkpt><trkpt lat="45.769425719402314" lon="11.009958719906482"><ele>145.66666666666669</ele><time>2026-05-02T07:54:03.998Z</time></trkpt><trkpt lat="45.76959698918599" lon="11.01011417178208"><ele>145.0</ele><time>2026-05-02T07:54:04.998Z</time></trkpt><trkpt lat="45.769773136151976" lon="11.010269974684912"><ele>145.0</ele><time>2026-05-02T07:54:05.998Z</time></trkpt><trkpt lat="45.7699558064069" lon="11.010420438711638"><ele>145.0</ele><time>2026-05-02T07:54:06.998Z</time></trkpt><trkpt lat="45.77013837054678" lon="11.010559626892611"><ele>145.0</ele><time>2026-05-02T07:54:07.998Z</time></trkpt><trkpt lat="45.77031605961747" lon="11.010691413526972"><ele>145.33333333333334</ele><time>2026-05-02T07:54:08.998Z</time></trkpt><trkpt lat="45.770484666006936" lon="11.01081654478366"><ele>145.66666666666666</ele><time>2026-05-02T07:54:09.998Z</time></trkpt><trkpt lat="45.77064937986651" lon="11.010940213418504"><ele>146.0</ele><time>2026-05-02T07:54:10.998Z</time></trkpt><trkpt lat="45.77081025422241" lon="11.011064004809061"><ele>146.0</ele><time>2026-05-02T07:54:11.998Z</time></trkpt><trkpt lat="45.77096814358337" lon="11.011181944733577"><ele>146.0</ele><time>2026-05-02T07:54:12.998Z</time></trkpt><trkpt lat="45.77112770120653" lon="11.011297181361702"><ele>146.0</ele><time>2026-05-02T07:54:13.998Z</time></trkpt><trkpt lat="45.7712798349768" lon="11.011409156180495"><ele>146.0</ele><time>2026-05-02T07:54:14.998Z</time></trkpt><trkpt lat="45.77143288116188" lon="11.011524842890196"><ele>146.0</ele><time>2026-05-02T07:54:15.998Z</time></trkpt><trkpt lat="45.77158984924544" lon="11.011646075283023"><ele>146.0</ele><time>2026-05-02T07:54:16.998Z</time></trkpt><trkpt lat="45.77174977236717" lon="11.011767918459755"><ele>145.0</ele><time>2026-05-02T07:54:17.998Z</time></trkpt><trkpt lat="45.771907647137176" lon="11.01188512433486"><ele>144.0</ele><time>2026-05-02T07:54:18.998Z</time></trkpt><trkpt lat="45.77205824624544" lon="11.011992446444504"><ele>143.0</ele><time>2026-05-02T07:54:19.998Z</time></trkpt><trkpt lat="45.77221525795002" lon="11.01209325279467"><ele>143.0</ele><time>2026-05-02T07:54:20.998Z</time></trkpt><trkpt lat="45.772378373900814" lon="11.012183111491186"><ele>143.0</ele><time>2026-05-02T07:54:21.998Z</time></trkpt><trkpt lat="45.77253115803373" lon="11.012260693049832"><ele>143.0</ele><time>2026-05-02T07:54:22.998Z</time></trkpt><trkpt lat="45.772678482484494" lon="11.012331241979089"><ele>143.0</ele><time>2026-05-02T07:54:23.998Z</time></trkpt><trkpt lat="45.77283899929142" lon="11.012399149212003"><ele>143.0</ele><time>2026-05-02T07:54:24.998Z</time></trkpt><trkpt lat="45.773008869118684" lon="11.012464421805472"><ele>143.0</ele><time>2026-05-02T07:54:25.998Z</time></trkpt><trkpt lat="45.7731780866061" lon="11.012528115164718"><ele>144.0</ele><time>2026-05-02T07:54:26.998Z</time></trkpt><trkpt lat="45.773332007342" lon="11.012590566903402"><ele>145.0</ele><time>2026-05-02T07:54:27.998Z</time></trkpt><trkpt lat="45.773476358450964" lon="11.012649696834984"><ele>146.0</ele><time>2026-05-02T07:54:28.998Z</time></trkpt><trkpt lat="45.77360770620426" lon="11.012701905245459"><ele>147.0</ele><time>2026-05-02T07:54:29.998Z</time></trkpt><trkpt lat="45.77374398714564" lon="11.012756740890635"><ele>147.0</ele><time>2026-05-02T07:54:30.998Z</time></trkpt><trkpt lat="45.77389499909799" lon="11.012812957642735"><ele>147.0</ele><time>2026-05-02T07:54:31.998Z</time></trkpt><trkpt lat="45.77408060464056" lon="11.012900798276238"><ele>147.0</ele><time>2026-05-02T07:54:33Z</time></trkpt><trkpt lat="45.77430700208596" lon="11.012991687300508"><ele>146.0</ele><time>2026-05-02T07:54:34Z</time></trkpt><trkpt lat="45.77457069531055" lon="11.013097549002762"><ele>145.0</ele><time>2026-05-02T07:54:35Z</time></trkpt><trkpt lat="45.77486743764501" lon="11.01321909167896"><ele>145.5</ele><time>2026-05-02T07:54:36Z</time></trkpt><trkpt lat="45.77515568793067" lon="11.01333256978946"><ele>146.0</ele><time>2026-05-02T07:54:37Z</time></trkpt><trkpt lat="45.7754199850455" lon="11.013417409288104"><ele>146.0</ele><time>2026-05-02T07:54:38Z</time></trkpt><trkpt lat="45.77566132773776" lon="11.013522915544305"><ele>146.0</ele><time>2026-05-02T07:54:39Z</time></trkpt><trkpt lat="45.775897786221854" lon="11.013622872014873"><ele>145.5</ele><time>2026-05-02T07:54:40Z</time></trkpt><trkpt lat="45.7761338586175" lon="11.013721338961139"><ele>145.0</ele><time>2026-05-02T07:54:41Z</time></trkpt><trkpt lat="45.776365450644825" lon="11.01381438464896"><ele>145.0</ele><time>2026-05-02T07:54:42Z</time></trkpt><trkpt lat="45.77659556850896" lon="11.01390257559994"><ele>145.0</ele><time>2026-05-02T07:54:43Z</time></trkpt><trkpt lat="45.77681565472559" lon="11.013992519191467"><ele>144.66666666666669</ele><time>2026-05-02T07:54:44Z</time></trkpt><trkpt lat="45.77702131981662" lon="11.014075932289916"><ele>144.33333333333334</ele><time>2026-05-02T07:54:45Z</time></trkpt><trkpt lat="45.77721653617646" lon="11.01415598070744"><ele>144.0</ele><time>2026-05-02T07:54:46Z</time></trkpt><trkpt lat="45.77740207439014" lon="11.014231039224267"><ele>145.0</ele><time>2026-05-02T07:54:47Z</time></trkpt><trkpt lat="45.777586499981936" lon="11.014305722882204"><ele>146.0</ele><time>2026-05-02T07:54:48Z</time></trkpt><trkpt lat="45.77776666554647" lon="11.014372349620864"><ele>147.0</ele><time>2026-05-02T07:54:49Z</time></trkpt><trkpt lat="45.77794514909723" lon="11.014436635834468"><ele>147.66666666666666</ele><time>2026-05-02T07:54:50Z</time></trkpt><trkpt lat="45.778126531354395" lon="11.01450702366626"><ele>148.33333333333331</ele><time>2026-05-02T07:54:51Z</time></trkpt><trkpt lat="45.77831300867268" lon="11.014586420956382"><ele>149.0</ele><time>2026-05-02T07:54:52Z</time></trkpt><trkpt lat="45.778499312017324" lon="11.014676039707078"><ele>147.66666666666666</ele><time>2026-05-02T07:54:52.999Z</time></trkpt><trkpt lat="45.778687160789154" lon="11.014773023131829"><ele>146.33333333333334</ele><time>2026-05-02T07:54:53.999Z</time></trkpt><trkpt lat="45.77887664251073" lon="11.014876588771564"><ele>145.0</ele><time>2026-05-02T07:54:54.999Z</time></trkpt><trkpt lat="45.77907026369815" lon="11.014980391224574"><ele>145.66666666666669</ele><time>2026-05-02T07:54:55.999Z</time></trkpt><trkpt lat="45.77927380328274" lon="11.015079685949953"><ele>146.33333333333334</ele><time>2026-05-02T07:54:56.999Z</time></trkpt><trkpt lat="45.77948126697788" lon="11.015177538790915"><ele>147.0</ele><time>2026-05-02T07:54:57.999Z</time></trkpt><trkpt lat="45.77969126326975" lon="11.015277162773328"><ele>147.5</ele><time>2026-05-02T07:54:58.999Z</time></trkpt><trkpt lat="45.779903928247926" lon="11.015379288619595"><ele>148.0</ele><time>2026-05-02T07:54:59.999Z</time></trkpt><trkpt lat="45.780120966414046" lon="11.015479684444902"><ele>147.0</ele><time>2026-05-02T07:55:00.999Z</time></trkpt><trkpt lat="45.78034191634085" lon="11.015581731389346"><ele>146.0</ele><time>2026-05-02T07:55:01.999Z</time></trkpt><trkpt lat="45.78056596163539" lon="11.015687051738906"><ele>146.0</ele><time>2026-05-02T07:55:02.999Z</time></trkpt><trkpt lat="45.780795595208055" lon="11.015794638610336"><ele>146.0</ele><time>2026-05-02T07:55:03.999Z</time></trkpt><trkpt lat="45.781029397841536" lon="11.015903453195536"><ele>147.0</ele><time>2026-05-02T07:55:04.999Z</time></trkpt><trkpt lat="45.7812590855933" lon="11.016016302344687"><ele>148.0</ele><time>2026-05-02T07:55:05.999Z</time></trkpt><trkpt lat="45.7814909844213" lon="11.016129898725183"><ele>148.0</ele><time>2026-05-02T07:55:06.999Z</time></trkpt><trkpt lat="45.781724142575925" lon="11.016238774495195"><ele>148.0</ele><time>2026-05-02T07:55:07.999Z</time></trkpt><trkpt lat="45.78195820145309" lon="11.01634768730862"><ele>148.0</ele><time>2026-05-02T07:55:08.999Z</time></trkpt><trkpt lat="45.78219016941092" lon="11.016460745806656"><ele>148.0</ele><time>2026-05-02T07:55:09.999Z</time></trkpt><trkpt lat="45.782419191703916" lon="11.016585408324412"><ele>149.5</ele><time>2026-05-02T07:55:10.999Z</time></trkpt><trkpt lat="45.78264047661101" lon="11.016731356046002"><ele>151.0</ele><time>2026-05-02T07:55:11.999Z</time></trkpt><trkpt lat="45.78284925086568" lon="11.016877318193556"><ele>151.0</ele><time>2026-05-02T07:55:12.999Z</time></trkpt><trkpt lat="45.78304623006571" lon="11.017014121256956"><ele>151.0</ele><time>2026-05-02T07:55:13.999Z</time></trkpt><trkpt lat="45.78324203246408" lon="11.017153262542568"><ele>151.0</ele><time>2026-05-02T07:55:14.999Z</time></trkpt><trkpt lat="45.78343772199869" lon="11.017301155393463"><ele>150.66666666666669</ele><time>2026-05-02T07:55:15.999Z</time></trkpt><trkpt lat="45.783626682286595" lon="11.017455645646503"><ele>150.33333333333334</ele><time>2026-05-02T07:55:16.999Z</time></trkpt><trkpt lat="45.78380666835927" lon="11.017614433084162"><ele>150.0</ele><time>2026-05-02T07:55:17.999Z</time></trkpt><trkpt lat="45.78398409944782" lon="11.017779439146114"><ele>150.0</ele><time>2026-05-02T07:55:18.999Z</time></trkpt><trkpt lat="45.78416285878713" lon="11.017951077242907"><ele>150.0</ele><time>2026-05-02T07:55:19.999Z</time></trkpt><trkpt lat="45.784347743901144" lon="11.018116329019817"><ele>150.0</ele><time>2026-05-02T07:55:20.999Z</time></trkpt><trkpt lat="45.78454508596084" lon="11.018263278393269"><ele>151.0</ele><time>2026-05-02T07:55:21.999Z</time></trkpt><trkpt lat="45.78475582899694" lon="11.018388844957137"><ele>152.0</ele><time>2026-05-02T07:55:22.999Z</time></trkpt><trkpt lat="45.78497371533228" lon="11.018506345424882"><ele>151.66666666666666</ele><time>2026-05-02T07:55:23.999Z</time></trkpt><trkpt lat="45.78518759677572" lon="11.018621730624568"><ele>151.33333333333334</ele><time>2026-05-02T07:55:24.999Z</time></trkpt><trkpt lat="45.78538847884919" lon="11.018736049637106"><ele>151.0</ele><time>2026-05-02T07:55:25.999Z</time></trkpt><trkpt lat="45.785584515125784" lon="11.01887291907595"><ele>151.0</ele><time>2026-05-02T07:55:26.999Z</time></trkpt><trkpt lat="45.78577230076306" lon="11.019041430133433"><ele>151.0</ele><time>2026-05-02T07:55:27.999Z</time></trkpt><trkpt lat="45.785952341213324" lon="11.01921926222343"><ele>151.0</ele><time>2026-05-02T07:55:28.999Z</time></trkpt><trkpt lat="45.78613360211373" lon="11.019399642801496"><ele>151.0</ele><time>2026-05-02T07:55:29.999Z</time></trkpt><trkpt lat="45.78631496564755" lon="11.019583643878873"><ele>151.0</ele><time>2026-05-02T07:55:30.999Z</time></trkpt><trkpt lat="45.78649470007352" lon="11.01976983916683"><ele>151.0</ele><time>2026-05-02T07:55:31.999Z</time></trkpt><trkpt lat="45.78667819804271" lon="11.019959679205583"><ele>151.33333333333334</ele><time>2026-05-02T07:55:32.999Z</time></trkpt><trkpt lat="45.78685830334223" lon="11.020141647533537"><ele>151.66666666666666</ele><time>2026-05-02T07:55:33.999Z</time></trkpt><trkpt lat="45.787032738872576" lon="11.02031645668159"><ele>152.0</ele><time>2026-05-02T07:55:34.999Z</time></trkpt><trkpt lat="45.78720829219523" lon="11.020490859684012"><ele>152.0</ele><time>2026-05-02T07:55:35.999Z</time></trkpt><trkpt lat="45.78737877378533" lon="11.020662517712287"><ele>152.0</ele><time>2026-05-02T07:55:36.999Z</time></trkpt><trkpt lat="45.78754603571025" lon="11.020831928817618"><ele>152.0</ele><time>2026-05-02T07:55:37.999Z</time></trkpt><trkpt lat="45.78771517316492" lon="11.02098548177165"><ele>152.0</ele><time>2026-05-02T07:55:38.999Z</time></trkpt><trkpt lat="45.78788226751066" lon="11.021109971112422"><ele>152.0</ele><time>2026-05-02T07:55:39.999Z</time></trkpt><trkpt lat="45.78805547342522" lon="11.021211894373984"><ele>152.0</ele><time>2026-05-02T07:55:40.999Z</time></trkpt><trkpt lat="45.788238638517356" lon="11.02128082466802"><ele>152.0</ele><time>2026-05-02T07:55:41.999Z</time></trkpt><trkpt lat="45.7884285065589" lon="11.021315513284284"><ele>152.0</ele><time>2026-05-02T07:55:42.999Z</time></trkpt><trkpt lat="45.78862797248898" lon="11.021327110144044"><ele>152.0</ele><time>2026-05-02T07:55:43.999Z</time></trkpt><trkpt lat="45.78884336253366" lon="11.021308183009236"><ele>151.5</ele><time>2026-05-02T07:55:44.999Z</time></trkpt><trkpt lat="45.78908668052949" lon="11.021259375104338"><ele>151.0</ele><time>2026-05-02T07:55:45.999Z</time></trkpt><trkpt lat="45.789309843437074" lon="11.021206593311511"><ele>151.33333333333334</ele><time>2026-05-02T07:55:46.999Z</time></trkpt><trkpt lat="45.78948479556132" lon="11.021182635521726"><ele>151.66666666666666</ele><time>2026-05-02T07:55:47.999Z</time></trkpt><trkpt lat="45.789649443269845" lon="11.02115219942255"><ele>152.0</ele><time>2026-05-02T07:55:48.999Z</time></trkpt><trkpt lat="45.78978369857592" lon="11.02112211231263"><ele>152.0</ele><time>2026-05-02T07:55:49.999Z</time></trkpt><trkpt lat="45.78988020895903" lon="11.021100707092474"><ele>152.0</ele><time>2026-05-02T07:55:50.999Z</time></trkpt><trkpt lat="45.78997510388535" lon="11.021078278302173"><ele>152.0</ele><time>2026-05-02T07:55:51.999Z</time></trkpt><trkpt lat="45.79005763211961" lon="11.021060057432003"><ele>152.0</ele><time>2026-05-02T07:55:52.999Z</time></trkpt><trkpt lat="45.7901478324456" lon="11.021038211265642"><ele>152.0</ele><time>2026-05-02T07:55:53.999Z</time></trkpt><trkpt lat="45.79024529132347" lon="11.021019522302774"><ele>152.4</ele><time>2026-05-02T07:55:54.999Z</time></trkpt><trkpt lat="45.790348935175814" lon="11.021007274275375"><ele>152.79999999999998</ele><time>2026-05-02T07:55:55.999Z</time></trkpt><trkpt lat="45.79045802964989" lon="11.021004138405356"><ele>153.2</ele><time>2026-05-02T07:55:56.999Z</time></trkpt><trkpt lat="45.79057318442894" lon="11.021008772393534"><ele>153.6</ele><time>2026-05-02T07:55:57.999Z</time></trkpt><trkpt lat="45.790694013202604" lon="11.021017339176078"><ele>154.0</ele><time>2026-05-02T07:55:58.999Z</time></trkpt><trkpt lat="45.79082127923262" lon="11.021026890021009"><ele>154.0</ele><time>2026-05-02T07:55:59.999Z</time></trkpt><trkpt lat="45.790954438768054" lon="11.02104451177947"><ele>154.0</ele><time>2026-05-02T07:56:00.999Z</time></trkpt><trkpt lat="45.79112710683527" lon="11.02106917152653"><ele>154.0</ele><time>2026-05-02T07:56:01.999Z</time></trkpt><trkpt lat="45.791316623661736" lon="11.021113543382803"><ele>153.33333333333334</ele><time>2026-05-02T07:56:02.999Z</time></trkpt><trkpt lat="45.79148697717891" lon="11.021161437050898"><ele>152.66666666666666</ele><time>2026-05-02T07:56:03.999Z</time></trkpt><trkpt lat="45.79164660531643" lon="11.021195032335346"><ele>152.0</ele><time>2026-05-02T07:56:04.999Z</time></trkpt><trkpt lat="45.79180981737631" lon="11.0212294530372"><ele>151.33333333333331</ele><time>2026-05-02T07:56:05.999Z</time></trkpt><trkpt lat="45.79201564411301" lon="11.021274908095135"><ele>150.66666666666666</ele><time>2026-05-02T07:56:06.999Z</time></trkpt><trkpt lat="45.79219207987259" lon="11.021320993313145"><ele>150.0</ele><time>2026-05-02T07:56:07.999Z</time></trkpt><trkpt lat="45.792355728603965" lon="11.02136073754263"><ele>150.0</ele><time>2026-05-02T07:56:08.999Z</time></trkpt><trkpt lat="45.792516299238734" lon="11.021400262435769"><ele>150.0</ele><time>2026-05-02T07:56:09.999Z</time></trkpt><trkpt lat="45.792684807211785" lon="11.021442568307"><ele>150.0</ele><time>2026-05-02T07:56:10.999Z</time></trkpt><trkpt lat="45.7928684084925" lon="11.021481150723396"><ele>149.0</ele><time>2026-05-02T07:56:11.998Z</time></trkpt><trkpt lat="45.79306634672398" lon="11.021522341331746"><ele>148.0</ele><time>2026-05-02T07:56:12.998Z</time></trkpt><trkpt lat="45.79327279606763" lon="11.02156972336928"><ele>147.0</ele><time>2026-05-02T07:56:13.998Z</time></trkpt><trkpt lat="45.7934822367899" lon="11.021622534755773"><ele>147.66666666666666</ele><time>2026-05-02T07:56:14.998Z</time></trkpt><trkpt lat="45.79368516291642" lon="11.02167625571109"><ele>148.33333333333331</ele><time>2026-05-02T07:56:15.998Z</time></trkpt><trkpt lat="45.79389325756834" lon="11.021728653472378"><ele>149.0</ele><time>2026-05-02T07:56:16.998Z</time></trkpt><trkpt lat="45.79410968770305" lon="11.021777108677645"><ele>149.0</ele><time>2026-05-02T07:56:17.998Z</time></trkpt><trkpt lat="45.79433306492627" lon="11.021825810786765"><ele>149.0</ele><time>2026-05-02T07:56:18.998Z</time></trkpt><trkpt lat="45.794569707039244" lon="11.02186596097534"><ele>149.5</ele><time>2026-05-02T07:56:19.998Z</time></trkpt><trkpt lat="45.79483311958271" lon="11.021915260177323"><ele>150.0</ele><time>2026-05-02T07:56:20.998Z</time></trkpt><trkpt lat="45.79509652351511" lon="11.021897735136523"><ele>149.0</ele><time>2026-05-02T07:56:21.998Z</time></trkpt><trkpt lat="45.79534185525094" lon="11.021901785443175"><ele>148.0</ele><time>2026-05-02T07:56:22.998Z</time></trkpt><trkpt lat="45.79557765841918" lon="11.021903531862964"><ele>148.0</ele><time>2026-05-02T07:56:23.998Z</time></trkpt><trkpt lat="45.79577709479134" lon="11.021905003234636"><ele>148.0</ele><time>2026-05-02T07:56:24.998Z</time></trkpt><trkpt lat="45.79596037640928" lon="11.021904717545366"><ele>148.0</ele><time>2026-05-02T07:56:25.998Z</time></trkpt><trkpt lat="45.79614015496644" lon="11.02190371106975"><ele>148.66666666666669</ele><time>2026-05-02T07:56:26.998Z</time></trkpt><trkpt lat="45.796310323857995" lon="11.021900465240357"><ele>149.33333333333334</ele><time>2026-05-02T07:56:27.998Z</time></trkpt><trkpt lat="45.79647255702873" lon="11.02188684073011"><ele>150.0</ele><time>2026-05-02T07:56:28.998Z</time></trkpt><trkpt lat="45.796636144282594" lon="11.021854340594729"><ele>150.0</ele><time>2026-05-02T07:56:29.998Z</time></trkpt><trkpt lat="45.79680856678758" lon="11.02180642805304"><ele>150.0</ele><time>2026-05-02T07:56:30.998Z</time></trkpt><trkpt lat="45.796980150421156" lon="11.021747138960926"><ele>150.0</ele><time>2026-05-02T07:56:31.998Z</time></trkpt><trkpt lat="45.79713768754869" lon="11.021688270866292"><ele>149.66666666666666</ele><time>2026-05-02T07:56:32.998Z</time></trkpt><trkpt lat="45.79731150539988" lon="11.021617537474894"><ele>149.33333333333331</ele><time>2026-05-02T07:56:33.998Z</time></trkpt><trkpt lat="45.797497103190715" lon="11.021545611019961"><ele>149.0</ele><time>2026-05-02T07:56:34.998Z</time></trkpt><trkpt lat="45.79770619960707" lon="11.021468304944966"><ele>149.0</ele><time>2026-05-02T07:56:35.998Z</time></trkpt><trkpt lat="45.79793528736335" lon="11.021379729301307"><ele>149.0</ele><time>2026-05-02T07:56:36.998Z</time></trkpt><trkpt lat="45.79817415495197" lon="11.021275566853454"><ele>149.0</ele><time>2026-05-02T07:56:38Z</time></trkpt><trkpt lat="45.798427841015524" lon="11.021143689277663"><ele>149.0</ele><time>2026-05-02T07:56:39Z</time></trkpt><trkpt lat="45.79872181291861" lon="11.021011304799869"><ele>148.5</ele><time>2026-05-02T07:56:40Z</time></trkpt><trkpt lat="45.7990157679704" lon="11.020838684954873"><ele>148.0</ele><time>2026-05-02T07:56:41Z</time></trkpt><trkpt lat="45.79931690546815" lon="11.020662991275499"><ele>148.5</ele><time>2026-05-02T07:56:42Z</time></trkpt><trkpt lat="45.79960183683801" lon="11.0204767606014"><ele>149.0</ele><time>2026-05-02T07:56:43Z</time></trkpt><trkpt lat="45.79988502442136" lon="11.020314220107794"><ele>149.0</ele><time>2026-05-02T07:56:44Z</time></trkpt><trkpt lat="45.80014917672506" lon="11.02016079446884"><ele>149.0</ele><time>2026-05-02T07:56:45Z</time></trkpt><trkpt lat="45.800397738643106" lon="11.020018678433523"><ele>148.0</ele><time>2026-05-02T07:56:46Z</time></trkpt><trkpt lat="45.8006380570497" lon="11.019882836024593"><ele>147.0</ele><time>2026-05-02T07:56:47Z</time></trkpt><trkpt lat="45.80085746662574" lon="11.019755238159402"><ele>147.0</ele><time>2026-05-02T07:56:48Z</time></trkpt><trkpt lat="45.801056586796676" lon="11.019638361827381"><ele>147.0</ele><time>2026-05-02T07:56:49Z</time></trkpt><trkpt lat="45.80126070957897" lon="11.019523032586923"><ele>147.0</ele><time>2026-05-02T07:56:50Z</time></trkpt><trkpt lat="45.80145523483128" lon="11.019423782022072"><ele>147.0</ele><time>2026-05-02T07:56:51Z</time></trkpt><trkpt lat="45.801653420809934" lon="11.019337428362615"><ele>147.0</ele><time>2026-05-02T07:56:52Z</time></trkpt><trkpt lat="45.80187130217564" lon="11.019256746846903"><ele>147.0</ele><time>2026-05-02T07:56:53Z</time></trkpt><trkpt lat="45.80207706665304" lon="11.019205558155395"><ele>147.33333333333334</ele><time>2026-05-02T07:56:54Z</time></trkpt><trkpt lat="45.80225856095004" lon="11.019179266174687"><ele>147.66666666666669</ele><time>2026-05-02T07:56:55Z</time></trkpt><trkpt lat="45.80246632037328" lon="11.019074659346192"><ele>148.0</ele><time>2026-05-02T07:56:56Z</time></trkpt><trkpt lat="45.80263396310457" lon="11.019034447286945"><ele>148.0</ele><time>2026-05-02T07:56:57Z</time></trkpt><trkpt lat="45.80283248285745" lon="11.018974439326222"><ele>148.0</ele><time>2026-05-02T07:56:58Z</time></trkpt><trkpt lat="45.80307263386758" lon="11.01891007165721"><ele>148.0</ele><time>2026-05-02T07:56:59Z</time></trkpt><trkpt lat="45.803344244914896" lon="11.018829486959167"><ele>147.0</ele><time>2026-05-02T07:57:00Z</time></trkpt><trkpt lat="45.803638954342404" lon="11.018757151509744"><ele>146.0</ele><time>2026-05-02T07:57:01Z</time></trkpt><trkpt lat="45.80395127632381" lon="11.018671274415125"><ele>146.0</ele><time>2026-05-02T07:57:02Z</time></trkpt><trkpt lat="45.80423838600809" lon="11.018584195908813"><ele>146.0</ele><time>2026-05-02T07:57:03Z</time></trkpt><trkpt lat="45.804504203893" lon="11.018501382015147"><ele>147.0</ele><time>2026-05-02T07:57:03.999Z</time></trkpt><trkpt lat="45.80474570152334" lon="11.018429034000967"><ele>148.0</ele><time>2026-05-02T07:57:04.999Z</time></trkpt><trkpt lat="45.80496502839027" lon="11.018366863856356"><ele>148.33333333333334</ele><time>2026-05-02T07:57:05.999Z</time></trkpt><trkpt lat="45.80515852078995" lon="11.01830826542241"><ele>148.66666666666666</ele><time>2026-05-02T07:57:06.999Z</time></trkpt><trkpt lat="45.80532634443989" lon="11.018277233144403"><ele>149.0</ele><time>2026-05-02T07:57:07.999Z</time></trkpt><trkpt lat="45.80547054580018" lon="11.018291282645704"><ele>149.0</ele><time>2026-05-02T07:57:08.999Z</time></trkpt><trkpt lat="45.805611322378844" lon="11.018277296571549"><ele>149.0</ele><time>2026-05-02T07:57:09.999Z</time></trkpt><trkpt lat="45.80575215500616" lon="11.018240490954883"><ele>149.0</ele><time>2026-05-02T07:57:10.999Z</time></trkpt><trkpt lat="45.805908810125324" lon="11.01808893286319"><ele>149.5</ele><time>2026-05-02T07:57:11.999Z</time></trkpt><trkpt lat="45.806092097999084" lon="11.017929838238503"><ele>150.0</ele><time>2026-05-02T07:57:12.999Z</time></trkpt><trkpt lat="45.80629986610757" lon="11.017761131465091"><ele>150.0</ele><time>2026-05-02T07:57:13.999Z</time></trkpt><trkpt lat="45.806497812248814" lon="11.01758610093822"><ele>150.0</ele><time>2026-05-02T07:57:14.999Z</time></trkpt><trkpt lat="45.806676900738644" lon="11.017422727606272"><ele>150.0</ele><time>2026-05-02T07:57:15.999Z</time></trkpt><trkpt lat="45.80684662326425" lon="11.017268511004872"><ele>149.66666666666666</ele><time>2026-05-02T07:57:16.999Z</time></trkpt><trkpt lat="45.80702027549372" lon="11.017108426674902"><ele>149.33333333333331</ele><time>2026-05-02T07:57:17.999Z</time></trkpt><trkpt lat="45.807168944438835" lon="11.016967894600903"><ele>149.0</ele><time>2026-05-02T07:57:18.999Z</time></trkpt><trkpt lat="45.807309132928715" lon="11.01684502641725"><ele>149.0</ele><time>2026-05-02T07:57:19.999Z</time></trkpt><trkpt lat="45.80742397853444" lon="11.016742922738095"><ele>149.0</ele><time>2026-05-02T07:57:20.999Z</time></trkpt><trkpt lat="45.80752518657222" lon="11.016651760804754"><ele>149.0</ele><time>2026-05-02T07:57:21.999Z</time></trkpt><trkpt lat="45.807622631020024" lon="11.016563581200264"><ele>149.0</ele><time>2026-05-02T07:57:22.999Z</time></trkpt><trkpt lat="45.80771454966388" lon="11.016480209269357"><ele>149.16666666666666</ele><time>2026-05-02T07:57:23.999Z</time></trkpt><trkpt lat="45.8078017041724" lon="11.016406685725977"><ele>149.33333333333331</ele><time>2026-05-02T07:57:24.999Z</time></trkpt><trkpt lat="45.80788353863312" lon="11.016338318778537"><ele>149.5</ele><time>2026-05-02T07:57:25.999Z</time></trkpt><trkpt lat="45.80795779055027" lon="11.016275148611234"><ele>149.66666666666666</ele><time>2026-05-02T07:57:26.999Z</time></trkpt><trkpt lat="45.8080250246566" lon="11.016212516331358"><ele>149.83333333333334</ele><time>2026-05-02T07:57:27.999Z</time></trkpt><trkpt lat="45.808083740167866" lon="11.016157112376963"><ele>150.0</ele><time>2026-05-02T07:57:28.999Z</time></trkpt><trkpt lat="45.8081810869278" lon="11.016064199218144"><ele>150.0</ele><time>2026-05-02T07:57:30.999Z</time></trkpt><trkpt lat="45.808259516408" lon="11.015992885358717"><ele>150.0</ele><time>2026-05-02T07:57:32.999Z</time></trkpt><trkpt lat="45.80833899634551" lon="11.015919765322916"><ele>150.0</ele><time>2026-05-02T07:57:34.999Z</time></trkpt><trkpt lat="45.80840838005087" lon="11.015854592521436"><ele>150.0</ele><time>2026-05-02T07:57:37.999Z</time></trkpt><trkpt lat="45.8084700111716" lon="11.015794569871057"><ele>150.0</ele><time>2026-05-02T07:57:42.999Z</time></trkpt><trkpt lat="45.80854685403871" lon="11.015708025801299"><ele>150.0</ele><time>2026-05-02T07:57:47.999Z</time></trkpt><trkpt lat="45.80864835139002" lon="11.015579303065955"><ele>150.0</ele><time>2026-05-02T07:57:49.999Z</time></trkpt><trkpt lat="45.808733127590415" lon="11.01549216637908"><ele>150.0</ele><time>2026-05-02T07:57:50.999Z</time></trkpt><trkpt lat="45.80884462572806" lon="11.015379435383386"><ele>150.0</ele><time>2026-05-02T07:57:51.999Z</time></trkpt><trkpt lat="45.80896139662114" lon="11.015258812141854"><ele>150.0</ele><time>2026-05-02T07:57:52.999Z</time></trkpt><trkpt lat="45.80907694651501" lon="11.015147136528189"><ele>150.0</ele><time>2026-05-02T07:57:53.999Z</time></trkpt><trkpt lat="45.809184934092286" lon="11.015046635856791"><ele>150.0</ele><time>2026-05-02T07:57:54.999Z</time></trkpt><trkpt lat="45.8092924150617" lon="11.014952047948674"><ele>150.0</ele><time>2026-05-02T07:57:55.999Z</time></trkpt><trkpt lat="45.809400820996764" lon="11.014855940186946"><ele>150.0</ele><time>2026-05-02T07:57:56.999Z</time></trkpt><trkpt lat="45.8095075436183" lon="11.014759932181422"><ele>150.2</ele><time>2026-05-02T07:57:57.999Z</time></trkpt><trkpt lat="45.809612960426364" lon="11.014665364582731"><ele>150.4</ele><time>2026-05-02T07:57:58.999Z</time></trkpt><trkpt lat="45.80971054463663" lon="11.01458109369542"><ele>150.6</ele><time>2026-05-02T07:57:59.999Z</time></trkpt><trkpt lat="45.80979931187383" lon="11.014503665959928"><ele>150.8</ele><time>2026-05-02T07:58:00.999Z</time></trkpt><trkpt lat="45.80988797051503" lon="11.014427272870346"><ele>151.0</ele><time>2026-05-02T07:58:01.999Z</time></trkpt><trkpt lat="45.8099852747357" lon="11.014342342018068"><ele>151.0</ele><time>2026-05-02T07:58:02.999Z</time></trkpt><trkpt lat="45.81009792247858" lon="11.014249607165768"><ele>151.0</ele><time>2026-05-02T07:58:03.999Z</time></trkpt><trkpt lat="45.81023139085137" lon="11.01415058019602"><ele>151.0</ele><time>2026-05-02T07:58:04.999Z</time></trkpt><trkpt lat="45.810380681236424" lon="11.014047752304496"><ele>151.0</ele><time>2026-05-02T07:58:05.999Z</time></trkpt><trkpt lat="45.81055461039286" lon="11.013950561843881"><ele>151.33333333333334</ele><time>2026-05-02T07:58:06.999Z</time></trkpt><trkpt lat="45.81074415567405" lon="11.013861958842224"><ele>151.66666666666666</ele><time>2026-05-02T07:58:07.999Z</time></trkpt><trkpt lat="45.81093830093002" lon="11.013773291216692"><ele>152.0</ele><time>2026-05-02T07:58:08.999Z</time></trkpt><trkpt lat="45.811121245675615" lon="11.013693160781743"><ele>152.0</ele><time>2026-05-02T07:58:09.999Z</time></trkpt><trkpt lat="45.811286928700824" lon="11.013618325083927"><ele>152.0</ele><time>2026-05-02T07:58:10.999Z</time></trkpt><trkpt lat="45.81144139703138" lon="11.013550582557063"><ele>152.0</ele><time>2026-05-02T07:58:11.999Z</time></trkpt><trkpt lat="45.81157641230921" lon="11.013488353730473"><ele>152.0</ele><time>2026-05-02T07:58:12.999Z</time></trkpt><trkpt lat="45.811702668093105" lon="11.013430692645654"><ele>152.0</ele><time>2026-05-02T07:58:13.999Z</time></trkpt><trkpt lat="45.81184534857886" lon="11.013369883143877"><ele>152.0</ele><time>2026-05-02T07:58:14.999Z</time></trkpt><trkpt lat="45.81200953927514" lon="11.013323437221102"><ele>152.0</ele><time>2026-05-02T07:58:15.999Z</time></trkpt><trkpt lat="45.81219757222849" lon="11.013250466217254"><ele>152.5</ele><time>2026-05-02T07:58:16.999Z</time></trkpt><trkpt lat="45.81242062734115" lon="11.01317045751824"><ele>153.0</ele><time>2026-05-02T07:58:17.999Z</time></trkpt><trkpt lat="45.81268203791024" lon="11.013056925964428"><ele>154.5</ele><time>2026-05-02T07:58:18.999Z</time></trkpt><trkpt lat="45.81296513921501" lon="11.012960239269432"><ele>156.0</ele><time>2026-05-02T07:58:19.999Z</time></trkpt><trkpt lat="45.81324035861345" lon="11.01286307935731"><ele>158.5</ele><time>2026-05-02T07:58:20.999Z</time></trkpt><trkpt lat="45.81349983825639" lon="11.012769213960363"><ele>161.0</ele><time>2026-05-02T07:58:21.999Z</time></trkpt><trkpt lat="45.81373621389143" lon="11.012685700309499"><ele>161.0</ele><time>2026-05-02T07:58:22.998Z</time></trkpt><trkpt lat="45.813964655775514" lon="11.012606828751238"><ele>161.0</ele><time>2026-05-02T07:58:23.998Z</time></trkpt><trkpt lat="45.81419822270161" lon="11.01252724396795"><ele>157.66666666666666</ele><time>2026-05-02T07:58:24.998Z</time></trkpt><trkpt lat="45.8144147598127" lon="11.012449200900102"><ele>154.33333333333334</ele><time>2026-05-02T07:58:25.998Z</time></trkpt><trkpt lat="45.81462394764422" lon="11.012408873931518"><ele>151.0</ele><time>2026-05-02T07:58:26.998Z</time></trkpt><trkpt lat="45.81481914949497" lon="11.012328560949083"><ele>151.0</ele><time>2026-05-02T07:58:27.998Z</time></trkpt><trkpt lat="45.81502504808751" lon="11.012266156092988"><ele>151.0</ele><time>2026-05-02T07:58:28.998Z</time></trkpt><trkpt lat="45.81524128363793" lon="11.0122196021373"><ele>151.0</ele><time>2026-05-02T07:58:29.998Z</time></trkpt><trkpt lat="45.81545065272182" lon="11.012154323300011"><ele>151.0</ele><time>2026-05-02T07:58:30.998Z</time></trkpt><trkpt lat="45.81565032214393" lon="11.012073658468616"><ele>151.0</ele><time>2026-05-02T07:58:31.998Z</time></trkpt><trkpt lat="45.815846875339794" lon="11.012013923604123"><ele>151.0</ele><time>2026-05-02T07:58:32.998Z</time></trkpt><trkpt lat="45.816037455626955" lon="11.011957871739463"><ele>152.33333333333334</ele><time>2026-05-02T07:58:33.998Z</time></trkpt><trkpt lat="45.816232361428725" lon="11.011897712194516"><ele>153.66666666666666</ele><time>2026-05-02T07:58:34.998Z</time></trkpt><trkpt lat="45.81643317607686" lon="11.011839629105687"><ele>155.0</ele><time>2026-05-02T07:58:35.998Z</time></trkpt><trkpt lat="45.81663881296615" lon="11.01178274548735"><ele>154.0</ele><time>2026-05-02T07:58:36.998Z</time></trkpt><trkpt lat="45.816846366261906" lon="11.011721868229518"><ele>153.0</ele><time>2026-05-02T07:58:37.998Z</time></trkpt><trkpt lat="45.81705045813464" lon="11.011658421313818"><ele>152.0</ele><time>2026-05-02T07:58:38.998Z</time></trkpt><trkpt lat="45.817258582996246" lon="11.011585495503782"><ele>152.0</ele><time>2026-05-02T07:58:39.998Z</time></trkpt><trkpt lat="45.81746549908469" lon="11.011506640018828"><ele>152.0</ele><time>2026-05-02T07:58:40.998Z</time></trkpt><trkpt lat="45.81767343169699" lon="11.011427247826552"><ele>152.0</ele><time>2026-05-02T07:58:41.998Z</time></trkpt><trkpt lat="45.81788439987911" lon="11.011350682994738"><ele>152.66666666666666</ele><time>2026-05-02T07:58:42.998Z</time></trkpt><trkpt lat="45.81809674338479" lon="11.011281550538026"><ele>153.33333333333334</ele><time>2026-05-02T07:58:44Z</time></trkpt><trkpt lat="45.818311814186536" lon="11.0112148228528"><ele>154.0</ele><time>2026-05-02T07:58:45Z</time></trkpt><trkpt lat="45.81852549998802" lon="11.011153890292341"><ele>154.0</ele><time>2026-05-02T07:58:46Z</time></trkpt><trkpt lat="45.818743844862155" lon="11.011116085963472"><ele>154.0</ele><time>2026-05-02T07:58:47Z</time></trkpt><trkpt lat="45.81896567918745" lon="11.011074808580002"><ele>154.0</ele><time>2026-05-02T07:58:48Z</time></trkpt><trkpt lat="45.81919525618957" lon="11.011032657016031"><ele>156.0</ele><time>2026-05-02T07:58:49Z</time></trkpt><trkpt lat="45.81943111672368" lon="11.010984626013503"><ele>158.0</ele><time>2026-05-02T07:58:50Z</time></trkpt><trkpt lat="45.81966791122716" lon="11.010940916067124"><ele>158.0</ele><time>2026-05-02T07:58:51Z</time></trkpt><trkpt lat="45.81990132977886" lon="11.010894645649856"><ele>158.0</ele><time>2026-05-02T07:58:52Z</time></trkpt><trkpt lat="45.82013289228569" lon="11.010849260323882"><ele>155.0</ele><time>2026-05-02T07:58:53Z</time></trkpt><trkpt lat="45.82036132863829" lon="11.010807369451237"><ele>152.0</ele><time>2026-05-02T07:58:54Z</time></trkpt><trkpt lat="45.82059302140651" lon="11.010802193020568"><ele>152.0</ele><time>2026-05-02T07:58:55Z</time></trkpt><trkpt lat="45.82083272750422" lon="11.010780750224388"><ele>152.0</ele><time>2026-05-02T07:58:56Z</time></trkpt><trkpt lat="45.82107711056132" lon="11.010759719330478"><ele>152.0</ele><time>2026-05-02T07:58:57Z</time></trkpt><trkpt lat="45.821316387753065" lon="11.010717921839813"><ele>152.0</ele><time>2026-05-02T07:58:58Z</time></trkpt><trkpt lat="45.821552151040535" lon="11.010694244117406"><ele>152.0</ele><time>2026-05-02T07:58:59Z</time></trkpt><trkpt lat="45.821787231566134" lon="11.010693527305124"><ele>152.0</ele><time>2026-05-02T07:59:00Z</time></trkpt><trkpt lat="45.82201773454311" lon="11.010653591489806"><ele>152.5</ele><time>2026-05-02T07:59:01Z</time></trkpt><trkpt lat="45.82223883308873" lon="11.010634585644729"><ele>153.0</ele><time>2026-05-02T07:59:02Z</time></trkpt><trkpt lat="45.8224682132823" lon="11.010602651496198"><ele>155.0</ele><time>2026-05-02T07:59:03Z</time></trkpt><trkpt lat="45.82271252813275" lon="11.010582695970964"><ele>157.0</ele><time>2026-05-02T07:59:04Z</time></trkpt><trkpt lat="45.82295876362852" lon="11.01058067505096"><ele>157.0</ele><time>2026-05-02T07:59:05Z</time></trkpt><trkpt lat="45.8232113395539" lon="11.010607026619807"><ele>157.0</ele><time>2026-05-02T07:59:06Z</time></trkpt><trkpt lat="45.82346772112804" lon="11.010652797088119"><ele>157.0</ele><time>2026-05-02T07:59:07Z</time></trkpt><trkpt lat="45.82373007257359" lon="11.010691796848718"><ele>157.0</ele><time>2026-05-02T07:59:08Z</time></trkpt><trkpt lat="45.823997892818866" lon="11.010730761663348"><ele>157.0</ele><time>2026-05-02T07:59:09Z</time></trkpt><trkpt lat="45.8242763619231" lon="11.010768642699555"><ele>157.0</ele><time>2026-05-02T07:59:10Z</time></trkpt><trkpt lat="45.82456472389397" lon="11.010805345588462"><ele>157.5</ele><time>2026-05-02T07:59:10.999Z</time></trkpt><trkpt lat="45.8248534783733" lon="11.01084227991012"><ele>158.0</ele><time>2026-05-02T07:59:11.999Z</time></trkpt><trkpt lat="45.825147302278914" lon="11.010878938599868"><ele>160.5</ele><time>2026-05-02T07:59:12.999Z</time></trkpt><trkpt lat="45.82544580680209" lon="11.01091736449535"><ele>163.0</ele><time>2026-05-02T07:59:13.999Z</time></trkpt><trkpt lat="45.82575084965492" lon="11.010958725313824"><ele>162.5</ele><time>2026-05-02T07:59:14.999Z</time></trkpt><trkpt lat="45.82606244729983" lon="11.01100041808004"><ele>162.0</ele><time>2026-05-02T07:59:15.999Z</time></trkpt><trkpt lat="45.82637545575235" lon="11.011044580395295"><ele>162.0</ele><time>2026-05-02T07:59:16.999Z</time></trkpt><trkpt lat="45.826686134440884" lon="11.011087285300736"><ele>162.0</ele><time>2026-05-02T07:59:17.999Z</time></trkpt><trkpt lat="45.82699063560505" lon="11.011129251265329"><ele>161.5</ele><time>2026-05-02T07:59:18.999Z</time></trkpt><trkpt lat="45.82729328039875" lon="11.01117265200792"><ele>161.0</ele><time>2026-05-02T07:59:19.999Z</time></trkpt><trkpt lat="45.827588709259516" lon="11.011212674449073"><ele>163.0</ele><time>2026-05-02T07:59:20.999Z</time></trkpt><trkpt lat="45.82787046829462" lon="11.01125095355681"><ele>165.0</ele><time>2026-05-02T07:59:21.999Z</time></trkpt><trkpt lat="45.828137064802014" lon="11.011286501078066"><ele>165.0</ele><time>2026-05-02T07:59:22.999Z</time></trkpt><trkpt lat="45.82838147867695" lon="11.011318654372962"><ele>165.0</ele><time>2026-05-02T07:59:23.999Z</time></trkpt><trkpt lat="45.82862150133333" lon="11.011352727834788"><ele>166.0</ele><time>2026-05-02T07:59:24.999Z</time></trkpt><trkpt lat="45.82886151544833" lon="11.01138472717089"><ele>167.0</ele><time>2026-05-02T07:59:25.999Z</time></trkpt><trkpt lat="45.8291022444976" lon="11.011415593584083"><ele>168.0</ele><time>2026-05-02T07:59:26.999Z</time></trkpt><trkpt lat="45.82933589193662" lon="11.011446007920359"><ele>169.0</ele><time>2026-05-02T07:59:27.999Z</time></trkpt><trkpt lat="45.82955014726404" lon="11.0114680384885"><ele>170.0</ele><time>2026-05-02T07:59:28.999Z</time></trkpt><trkpt lat="45.82976702587872" lon="11.011455320183074"><ele>170.0</ele><time>2026-05-02T07:59:29.999Z</time></trkpt><trkpt lat="45.829991462972394" lon="11.011412174135092"><ele>170.0</ele><time>2026-05-02T07:59:30.999Z</time></trkpt><trkpt lat="45.83021974790495" lon="11.0113430636436"><ele>170.0</ele><time>2026-05-02T07:59:31.999Z</time></trkpt><trkpt lat="45.83046169823008" lon="11.011230168627824"><ele>170.0</ele><time>2026-05-02T07:59:32.999Z</time></trkpt><trkpt lat="45.830718682008865" lon="11.011080208748245"><ele>169.5</ele><time>2026-05-02T07:59:33.999Z</time></trkpt><trkpt lat="45.83100020642226" lon="11.010920631462543"><ele>169.0</ele><time>2026-05-02T07:59:34.999Z</time></trkpt><trkpt lat="45.83129224253099" lon="11.010765674514511"><ele>169.0</ele><time>2026-05-02T07:59:35.999Z</time></trkpt><trkpt lat="45.83157955311922" lon="11.01061685090676"><ele>169.0</ele><time>2026-05-02T07:59:36.999Z</time></trkpt><trkpt lat="45.83184115550526" lon="11.01050691731927"><ele>165.5</ele><time>2026-05-02T07:59:37.999Z</time></trkpt><trkpt lat="45.83210989309429" lon="11.010432093496233"><ele>162.0</ele><time>2026-05-02T07:59:38.999Z</time></trkpt><trkpt lat="45.83239486743242" lon="11.010393134961193"><ele>162.5</ele><time>2026-05-02T07:59:39.999Z</time></trkpt><trkpt lat="45.83269579991147" lon="11.010366983781982"><ele>163.0</ele><time>2026-05-02T07:59:40.999Z</time></trkpt><trkpt lat="45.832965374879755" lon="11.01035937584156"><ele>163.0</ele><time>2026-05-02T07:59:41.999Z</time></trkpt><trkpt lat="45.83318937082604" lon="11.010355668446492"><ele>163.0</ele><time>2026-05-02T07:59:42.999Z</time></trkpt><trkpt lat="45.83339016372237" lon="11.010344867119436"><ele>163.0</ele><time>2026-05-02T07:59:43.999Z</time></trkpt><trkpt lat="45.83356942770325" lon="11.010336856854483"><ele>163.33333333333334</ele><time>2026-05-02T07:59:44.999Z</time></trkpt><trkpt lat="45.83374483357952" lon="11.010328376852499"><ele>163.66666666666666</ele><time>2026-05-02T07:59:45.999Z</time></trkpt><trkpt lat="45.83391635902624" lon="11.010329285937814"><ele>164.0</ele><time>2026-05-02T07:59:46.999Z</time></trkpt><trkpt lat="45.834078107600654" lon="11.010353432582388"><ele>164.0</ele><time>2026-05-02T07:59:47.999Z</time></trkpt><trkpt lat="45.834238681306864" lon="11.0103821224997"><ele>164.0</ele><time>2026-05-02T07:59:48.999Z</time></trkpt><trkpt lat="45.8344063126886" lon="11.010415365834955"><ele>164.0</ele><time>2026-05-02T07:59:49.999Z</time></trkpt><trkpt lat="45.83457684474266" lon="11.010447902476741"><ele>163.66666666666666</ele><time>2026-05-02T07:59:50.999Z</time></trkpt><trkpt lat="45.83474413306488" lon="11.010476740740483"><ele>163.33333333333334</ele><time>2026-05-02T07:59:51.999Z</time></trkpt><trkpt lat="45.834919036667614" lon="11.010504209567628"><ele>163.0</ele><time>2026-05-02T07:59:52.999Z</time></trkpt><trkpt lat="45.835103296418666" lon="11.010533315687521"><ele>163.0</ele><time>2026-05-02T07:59:53.999Z</time></trkpt><trkpt lat="45.83528282192473" lon="11.010566232522903"><ele>163.0</ele><time>2026-05-02T07:59:54.999Z</time></trkpt><trkpt lat="45.83544922437005" lon="11.010599009755856"><ele>163.0</ele><time>2026-05-02T07:59:55.999Z</time></trkpt><trkpt lat="45.835616196073715" lon="11.010630966656477"><ele>163.0</ele><time>2026-05-02T07:59:56.999Z</time></trkpt><trkpt lat="45.83577059035569" lon="11.01065913723036"><ele>163.0</ele><time>2026-05-02T07:59:57.999Z</time></trkpt><trkpt lat="45.8359217193688" lon="11.010683540532645"><ele>163.0</ele><time>2026-05-02T07:59:58.999Z</time></trkpt><trkpt lat="45.83608079952369" lon="11.010706863069752"><ele>162.33333333333334</ele><time>2026-05-02T07:59:59.999Z</time></trkpt><trkpt lat="45.83624484029569" lon="11.01072980055507"><ele>161.66666666666666</ele><time>2026-05-02T08:00:00.999Z</time></trkpt><trkpt lat="45.836409935042816" lon="11.010750469753885"><ele>161.0</ele><time>2026-05-02T08:00:01.999Z</time></trkpt><trkpt lat="45.836584367335284" lon="11.010762610295071"><ele>161.0</ele><time>2026-05-02T08:00:02.999Z</time></trkpt><trkpt lat="45.83677649208192" lon="11.010771532294891"><ele>161.0</ele><time>2026-05-02T08:00:03.999Z</time></trkpt><trkpt lat="45.83697559331118" lon="11.010780028113222"><ele>161.0</ele><time>2026-05-02T08:00:04.999Z</time></trkpt><trkpt lat="45.83717457118764" lon="11.010790051722893"><ele>160.33333333333331</ele><time>2026-05-02T08:00:05.999Z</time></trkpt><trkpt lat="45.83737776626479" lon="11.010800733224682"><ele>159.66666666666666</ele><time>2026-05-02T08:00:06.999Z</time></trkpt><trkpt lat="45.837584407584" lon="11.010811208976468"><ele>159.0</ele><time>2026-05-02T08:00:07.999Z</time></trkpt><trkpt lat="45.83779108872903" lon="11.010824207238215"><ele>161.66666666666666</ele><time>2026-05-02T08:00:08.999Z</time></trkpt><trkpt lat="45.8380010243896" lon="11.01083767410196"><ele>164.33333333333331</ele><time>2026-05-02T08:00:09.999Z</time></trkpt><trkpt lat="45.838213784085504" lon="11.01084954173996"><ele>167.0</ele><time>2026-05-02T08:00:10.999Z</time></trkpt><trkpt lat="45.83842959572404" lon="11.010862405528734"><ele>167.33333333333331</ele><time>2026-05-02T08:00:11.999Z</time></trkpt><trkpt lat="45.83864728721186" lon="11.010880424919767"><ele>167.66666666666666</ele><time>2026-05-02T08:00:12.999Z</time></trkpt><trkpt lat="45.83886628626951" lon="11.010917222318275"><ele>168.0</ele><time>2026-05-02T08:00:13.999Z</time></trkpt><trkpt lat="45.83907677672682" lon="11.010978244599972"><ele>168.0</ele><time>2026-05-02T08:00:14.999Z</time></trkpt><trkpt lat="45.83927650915999" lon="11.011059342238944"><ele>168.0</ele><time>2026-05-02T08:00:15.999Z</time></trkpt><trkpt lat="45.83947085651726" lon="11.01114694050826"><ele>168.0</ele><time>2026-05-02T08:00:16.999Z</time></trkpt><trkpt lat="45.83966966762729" lon="11.011233632400367"><ele>168.0</ele><time>2026-05-02T08:00:17.999Z</time></trkpt><trkpt lat="45.83987213852026" lon="11.011318452433239"><ele>168.0</ele><time>2026-05-02T08:00:18.999Z</time></trkpt><trkpt lat="45.84008708334953" lon="11.011406476162582"><ele>168.0</ele><time>2026-05-02T08:00:19.999Z</time></trkpt><trkpt lat="45.84030967318717" lon="11.011503130008984"><ele>171.0</ele><time>2026-05-02T08:00:20.999Z</time></trkpt><trkpt lat="45.84053051759616" lon="11.011601445985598"><ele>174.0</ele><time>2026-05-02T08:00:21.999Z</time></trkpt><trkpt lat="45.84073870700772" lon="11.01169598253357"><ele>175.33333333333334</ele><time>2026-05-02T08:00:22.999Z</time></trkpt><trkpt lat="45.84093918397784" lon="11.011785832874038"><ele>176.66666666666669</ele><time>2026-05-02T08:00:23.999Z</time></trkpt><trkpt lat="45.84112788969201" lon="11.011865355800364"><ele>178.0</ele><time>2026-05-02T08:00:24.999Z</time></trkpt><trkpt lat="45.8413125765111" lon="11.01194127197182"><ele>178.0</ele><time>2026-05-02T08:00:25.999Z</time></trkpt><trkpt lat="45.841500409630164" lon="11.0120209372841"><ele>178.0</ele><time>2026-05-02T08:00:26.999Z</time></trkpt><trkpt lat="45.84169277824157" lon="11.012097129816016"><ele>178.0</ele><time>2026-05-02T08:00:27.998Z</time></trkpt><trkpt lat="45.84188596749239" lon="11.01215831114526"><ele>179.0</ele><time>2026-05-02T08:00:28.998Z</time></trkpt><trkpt lat="45.84208783725197" lon="11.012201886750447"><ele>180.0</ele><time>2026-05-02T08:00:29.998Z</time></trkpt><trkpt lat="45.842298903421195" lon="11.01222907647713"><ele>181.0</ele><time>2026-05-02T08:00:30.998Z</time></trkpt><trkpt lat="45.84251865522143" lon="11.012244235057926"><ele>180.66666666666669</ele><time>2026-05-02T08:00:31.998Z</time></trkpt><trkpt lat="45.84274120272019" lon="11.012269906001599"><ele>180.33333333333334</ele><time>2026-05-02T08:00:32.998Z</time></trkpt><trkpt lat="45.842958056438036" lon="11.01229534743455"><ele>180.0</ele><time>2026-05-02T08:00:33.998Z</time></trkpt><trkpt lat="45.843171523634254" lon="11.012320833004914"><ele>180.0</ele><time>2026-05-02T08:00:34.998Z</time></trkpt><trkpt lat="45.843382732906" lon="11.012342307131744"><ele>180.0</ele><time>2026-05-02T08:00:35.998Z</time></trkpt><trkpt lat="45.84360214745982" lon="11.01236523013186"><ele>180.0</ele><time>2026-05-02T08:00:36.998Z</time></trkpt><trkpt lat="45.843828965474636" lon="11.012393198233168"><ele>176.5</ele><time>2026-05-02T08:00:37.998Z</time></trkpt><trkpt lat="45.84406572436662" lon="11.012417911478762"><ele>173.0</ele><time>2026-05-02T08:00:38.998Z</time></trkpt><trkpt lat="45.84431498019346" lon="11.012440337070535"><ele>169.0</ele><time>2026-05-02T08:00:39.998Z</time></trkpt><trkpt lat="45.84456894673864" lon="11.012466001500533"><ele>165.0</ele><time>2026-05-02T08:00:40.998Z</time></trkpt><trkpt lat="45.84481804721089" lon="11.012489519236293"><ele>171.0</ele><time>2026-05-02T08:00:41.998Z</time></trkpt><trkpt lat="45.845068958431085" lon="11.012536369981232"><ele>177.0</ele><time>2026-05-02T08:00:42.998Z</time></trkpt><trkpt lat="45.84532424228462" lon="11.012541140645903"><ele>178.0</ele><time>2026-05-02T08:00:43.998Z</time></trkpt><trkpt lat="45.84557821630775" lon="11.012573484399372"><ele>179.0</ele><time>2026-05-02T08:00:44.998Z</time></trkpt><trkpt lat="45.84583208872225" lon="11.01260169338778"><ele>175.5</ele><time>2026-05-02T08:00:45.998Z</time></trkpt><trkpt lat="45.846087570471326" lon="11.012635718889612"><ele>172.0</ele><time>2026-05-02T08:00:46.998Z</time></trkpt><trkpt lat="45.846345382783475" lon="11.012666064059546"><ele>172.0</ele><time>2026-05-02T08:00:47.998Z</time></trkpt><trkpt lat="45.8466058576073" lon="11.01269468813803"><ele>172.0</ele><time>2026-05-02T08:00:48.998Z</time></trkpt><trkpt lat="45.84686954367878" lon="11.012722133382598"><ele>173.0</ele><time>2026-05-02T08:00:50Z</time></trkpt><trkpt lat="45.8471377107195" lon="11.012752546195056"><ele>174.0</ele><time>2026-05-02T08:00:51Z</time></trkpt><trkpt lat="45.84740974827023" lon="11.012782870371488"><ele>173.0</ele><time>2026-05-02T08:00:52Z</time></trkpt><trkpt lat="45.84767899823222" lon="11.012812174835583"><ele>172.0</ele><time>2026-05-02T08:00:53Z</time></trkpt><trkpt lat="45.847944915437736" lon="11.012839879293718"><ele>172.0</ele><time>2026-05-02T08:00:54Z</time></trkpt><trkpt lat="45.84821374113856" lon="11.012868977344677"><ele>172.0</ele><time>2026-05-02T08:00:55Z</time></trkpt><trkpt lat="45.84848448503152" lon="11.01289916890608"><ele>173.0</ele><time>2026-05-02T08:00:56Z</time></trkpt><trkpt lat="45.84875553766901" lon="11.012928740222614"><ele>174.0</ele><time>2026-05-02T08:00:57Z</time></trkpt><trkpt lat="45.84902686696218" lon="11.012960390623508"><ele>174.0</ele><time>2026-05-02T08:00:58Z</time></trkpt><trkpt lat="45.84927948041307" lon="11.012985413356578"><ele>174.0</ele><time>2026-05-02T08:00:59Z</time></trkpt><trkpt lat="45.84951514847617" lon="11.013010136175668"><ele>174.33333333333334</ele><time>2026-05-02T08:01:00Z</time></trkpt><trkpt lat="45.84972201718035" lon="11.013032236128963"><ele>174.66666666666669</ele><time>2026-05-02T08:01:01Z</time></trkpt><trkpt lat="45.84989343369498" lon="11.013052144324428"><ele>175.0</ele><time>2026-05-02T08:01:02Z</time></trkpt><trkpt lat="45.85004468650982" lon="11.013077774284229"><ele>175.25</ele><time>2026-05-02T08:01:03Z</time></trkpt><trkpt lat="45.85018383540352" lon="11.01311400609105"><ele>175.5</ele><time>2026-05-02T08:01:04Z</time></trkpt><trkpt lat="45.85030160042416" lon="11.013162005920691"><ele>175.75</ele><time>2026-05-02T08:01:05Z</time></trkpt><trkpt lat="45.85041133299099" lon="11.013220034694877"><ele>176.0</ele><time>2026-05-02T08:01:06Z</time></trkpt><trkpt lat="45.850510292671686" lon="11.013279530190514"><ele>176.0</ele><time>2026-05-02T08:01:07Z</time></trkpt><trkpt lat="45.850612150572864" lon="11.01330374234607"><ele>176.0</ele><time>2026-05-02T08:01:08Z</time></trkpt><trkpt lat="45.850701082053035" lon="11.013323989909395"><ele>176.0</ele><time>2026-05-02T08:01:09Z</time></trkpt><trkpt lat="45.85081223905181" lon="11.013180457486998"><ele>176.0</ele><time>2026-05-02T08:01:10Z</time></trkpt><trkpt lat="45.85093210109502" lon="11.013094946300285"><ele>176.0</ele><time>2026-05-02T08:01:11Z</time></trkpt><trkpt lat="45.851085340337434" lon="11.013059594005423"><ele>176.0</ele><time>2026-05-02T08:01:12Z</time></trkpt><trkpt lat="45.85127174036019" lon="11.01306636561913"><ele>176.0</ele><time>2026-05-02T08:01:13Z</time></trkpt><trkpt lat="45.851492673057884" lon="11.013080039260963"><ele>176.0</ele><time>2026-05-02T08:01:14Z</time></trkpt><trkpt lat="45.851713574283735" lon="11.013086521958746"><ele>176.0</ele><time>2026-05-02T08:01:15Z</time></trkpt><trkpt lat="45.851930192012745" lon="11.013112302131548"><ele>176.0</ele><time>2026-05-02T08:01:16Z</time></trkpt><trkpt lat="45.85214779337701" lon="11.013186976967441"><ele>177.0</ele><time>2026-05-02T08:01:17Z</time></trkpt><trkpt lat="45.85237619519583" lon="11.013314675432488"><ele>178.0</ele><time>2026-05-02T08:01:18Z</time></trkpt><trkpt lat="45.852596858156716" lon="11.013488828738796"><ele>177.0</ele><time>2026-05-02T08:01:19Z</time></trkpt><trkpt lat="45.852804309732456" lon="11.013726924822107"><ele>176.0</ele><time>2026-05-02T08:01:20Z</time></trkpt><trkpt lat="45.853010121767326" lon="11.014005109810372"><ele>176.0</ele><time>2026-05-02T08:01:21Z</time></trkpt><trkpt lat="45.85322036681724" lon="11.014311719217293"><ele>176.0</ele><time>2026-05-02T08:01:22Z</time></trkpt><trkpt lat="45.85342688849014" lon="11.014610495354916"><ele>174.5</ele><time>2026-05-02T08:01:23Z</time></trkpt><trkpt lat="45.853624770775525" lon="11.014927443417623"><ele>173.0</ele><time>2026-05-02T08:01:24Z</time></trkpt><trkpt lat="45.85380983057786" lon="11.015250664479845"><ele>173.0</ele><time>2026-05-02T08:01:24.999Z</time></trkpt><trkpt lat="45.853978862401505" lon="11.015567185113325"><ele>173.0</ele><time>2026-05-02T08:01:25.999Z</time></trkpt><trkpt lat="45.85412415678491" lon="11.015892630236921"><ele>174.5</ele><time>2026-05-02T08:01:26.999Z</time></trkpt><trkpt lat="45.85424856904842" lon="11.016218671636313"><ele>176.0</ele><time>2026-05-02T08:01:27.999Z</time></trkpt><trkpt lat="45.854346328062284" lon="11.016496604403414"><ele>176.0</ele><time>2026-05-02T08:01:28.999Z</time></trkpt><trkpt lat="45.85442841409468" lon="11.0167383117501"><ele>176.0</ele><time>2026-05-02T08:01:29.999Z</time></trkpt><trkpt lat="45.85451074100566" lon="11.016976664994987"><ele>176.0</ele><time>2026-05-02T08:01:30.999Z</time></trkpt><trkpt lat="45.85459339951262" lon="11.01721025049394"><ele>176.0</ele><time>2026-05-02T08:01:31.999Z</time></trkpt><trkpt lat="45.85467787749149" lon="11.017447234713188"><ele>176.0</ele><time>2026-05-02T08:01:32.999Z</time></trkpt><trkpt lat="45.854758515702095" lon="11.017672995073655"><ele>176.0</ele><time>2026-05-02T08:01:33.999Z</time></trkpt><trkpt lat="45.85484887313857" lon="11.01791273046738"><ele>175.66666666666666</ele><time>2026-05-02T08:01:34.999Z</time></trkpt><trkpt lat="45.85494707358145" lon="11.018148027335293"><ele>175.33333333333334</ele><time>2026-05-02T08:01:35.999Z</time></trkpt><trkpt lat="45.85505546240502" lon="11.018368140489954"><ele>175.0</ele><time>2026-05-02T08:01:36.999Z</time></trkpt><trkpt lat="45.85517927291175" lon="11.018579779052667"><ele>175.0</ele><time>2026-05-02T08:01:37.999Z</time></trkpt><trkpt lat="45.8553126661181" lon="11.01878922422526"><ele>175.0</ele><time>2026-05-02T08:01:38.999Z</time></trkpt><trkpt lat="45.85545689370661" lon="11.018991898922204"><ele>175.0</ele><time>2026-05-02T08:01:39.999Z</time></trkpt><trkpt lat="45.85561358896733" lon="11.019180258611165"><ele>175.0</ele><time>2026-05-02T08:01:40.999Z</time></trkpt><trkpt lat="45.85577864797232" lon="11.019350078115751"><ele>175.0</ele><time>2026-05-02T08:01:41.999Z</time></trkpt><trkpt lat="45.85595626239126" lon="11.01950475874376"><ele>175.0</ele><time>2026-05-02T08:01:42.999Z</time></trkpt><trkpt lat="45.8561474474448" lon="11.019647590699497"><ele>175.0</ele><time>2026-05-02T08:01:43.999Z</time></trkpt><trkpt lat="45.85635081041599" lon="11.019776739929648"><ele>175.0</ele><time>2026-05-02T08:01:44.999Z</time></trkpt><trkpt lat="45.85657197747557" lon="11.019896920090368"><ele>178.0</ele><time>2026-05-02T08:01:45.999Z</time></trkpt><trkpt lat="45.856813126572355" lon="11.020032209597948"><ele>181.0</ele><time>2026-05-02T08:01:46.999Z</time></trkpt><trkpt lat="45.85707308667837" lon="11.020205420927578"><ele>181.0</ele><time>2026-05-02T08:01:47.999Z</time></trkpt><trkpt lat="45.857343688802644" lon="11.020400858177544"><ele>181.0</ele><time>2026-05-02T08:01:48.999Z</time></trkpt><trkpt lat="45.85760593875427" lon="11.02063722961549"><ele>183.5</ele><time>2026-05-02T08:01:49.999Z</time></trkpt><trkpt lat="45.85785386372004" lon="11.020905079729863"><ele>186.0</ele><time>2026-05-02T08:01:50.999Z</time></trkpt><trkpt lat="45.85806592028603" lon="11.02118271440238"><ele>186.0</ele><time>2026-05-02T08:01:51.999Z</time></trkpt><trkpt lat="45.858239322315114" lon="11.021483347093465"><ele>186.0</ele><time>2026-05-02T08:01:52.999Z</time></trkpt><trkpt lat="45.85840470020725" lon="11.021782835359872"><ele>184.0</ele><time>2026-05-02T08:01:53.999Z</time></trkpt><trkpt lat="45.85857043507568" lon="11.022090477140697"><ele>182.0</ele><time>2026-05-02T08:01:54.999Z</time></trkpt><trkpt lat="45.85874758900003" lon="11.022419922520793"><ele>183.5</ele><time>2026-05-02T08:01:55.999Z</time></trkpt><trkpt lat="45.858930240876546" lon="11.022757879575769"><ele>185.0</ele><time>2026-05-02T08:01:56.999Z</time></trkpt><trkpt lat="45.85910792693437" lon="11.023093717978792"><ele>186.5</ele><time>2026-05-02T08:01:57.999Z</time></trkpt><trkpt lat="45.85927685064267" lon="11.02341679617496"><ele>188.0</ele><time>2026-05-02T08:01:58.999Z</time></trkpt><trkpt lat="45.85944324432843" lon="11.023740954365062"><ele>182.5</ele><time>2026-05-02T08:01:59.999Z</time></trkpt><trkpt lat="45.85961438110384" lon="11.02407224175254"><ele>177.0</ele><time>2026-05-02T08:02:00.999Z</time></trkpt><trkpt lat="45.85978434121044" lon="11.024407752638016"><ele>177.0</ele><time>2026-05-02T08:02:01.999Z</time></trkpt><trkpt lat="45.85996453073088" lon="11.02474283295664"><ele>177.0</ele><time>2026-05-02T08:02:02.999Z</time></trkpt><trkpt lat="45.860163585481544" lon="11.025069279577052"><ele>175.5</ele><time>2026-05-02T08:02:03.999Z</time></trkpt><trkpt lat="45.86037836327593" lon="11.025379974320783"><ele>174.0</ele><time>2026-05-02T08:02:04.999Z</time></trkpt><trkpt lat="45.86061039530077" lon="11.025665265052028"><ele>176.5</ele><time>2026-05-02T08:02:05.999Z</time></trkpt><trkpt lat="45.860854018634925" lon="11.025931642149866"><ele>179.0</ele><time>2026-05-02T08:02:06.999Z</time></trkpt><trkpt lat="45.86111391226859" lon="11.026169751966696"><ele>179.0</ele><time>2026-05-02T08:02:07.999Z</time></trkpt><trkpt lat="45.86138348329736" lon="11.026383186165962"><ele>179.0</ele><time>2026-05-02T08:02:08.999Z</time></trkpt><trkpt lat="45.86163749541139" lon="11.026567381679074"><ele>177.0</ele><time>2026-05-02T08:02:09.999Z</time></trkpt><trkpt lat="45.86186373966185" lon="11.026729297990236"><ele>175.0</ele><time>2026-05-02T08:02:10.999Z</time></trkpt><trkpt lat="45.862066987188314" lon="11.026866928759425"><ele>175.0</ele><time>2026-05-02T08:02:11.999Z</time></trkpt><trkpt lat="45.86225834825209" lon="11.026992908476188"><ele>175.0</ele><time>2026-05-02T08:02:12.999Z</time></trkpt><trkpt lat="45.86244458668535" lon="11.027110362021796"><ele>175.0</ele><time>2026-05-02T08:02:13.999Z</time></trkpt><trkpt lat="45.8626165003777" lon="11.02722302575873"><ele>175.66666666666669</ele><time>2026-05-02T08:02:14.999Z</time></trkpt><trkpt lat="45.86276945349326" lon="11.027329496253431"><ele>176.33333333333334</ele><time>2026-05-02T08:02:15.999Z</time></trkpt><trkpt lat="45.862907594491055" lon="11.027431648208061"><ele>177.0</ele><time>2026-05-02T08:02:16.999Z</time></trkpt><trkpt lat="45.86302732377864" lon="11.027540173531001"><ele>177.0</ele><time>2026-05-02T08:02:17.999Z</time></trkpt><trkpt lat="45.863111172020965" lon="11.027645014405193"><ele>177.0</ele><time>2026-05-02T08:02:18.999Z</time></trkpt><trkpt lat="45.86317875560346" lon="11.027746526661637"><ele>177.0</ele><time>2026-05-02T08:02:19.999Z</time></trkpt><trkpt lat="45.86324947034047" lon="11.02782926236865"><ele>177.0</ele><time>2026-05-02T08:02:20.999Z</time></trkpt><trkpt lat="45.86333048369971" lon="11.027851898455975"><ele>177.0</ele><time>2026-05-02T08:02:21.999Z</time></trkpt><trkpt lat="45.86340147643339" lon="11.027812580030101"><ele>176.66666666666666</ele><time>2026-05-02T08:02:22.999Z</time></trkpt><trkpt lat="45.863447555332066" lon="11.027733635099974"><ele>176.33333333333334</ele><time>2026-05-02T08:02:23.999Z</time></trkpt><trkpt lat="45.86347409074495" lon="11.02761776442248"><ele>176.0</ele><time>2026-05-02T08:02:24.999Z</time></trkpt><trkpt lat="45.86349609553058" lon="11.02748347391284"><ele>175.66666666666669</ele><time>2026-05-02T08:02:25.999Z</time></trkpt><trkpt lat="45.86353188373221" lon="11.027354806305622"><ele>175.33333333333334</ele><time>2026-05-02T08:02:26.999Z</time></trkpt><trkpt lat="45.86358682428529" lon="11.027236840250557"><ele>175.0</ele><time>2026-05-02T08:02:27.999Z</time></trkpt><trkpt lat="45.863672047339314" lon="11.02711660446351"><ele>174.33333333333334</ele><time>2026-05-02T08:02:28.999Z</time></trkpt><trkpt lat="45.863796020243484" lon="11.026955185652433"><ele>173.66666666666666</ele><time>2026-05-02T08:02:29.999Z</time></trkpt><trkpt lat="45.86393210785781" lon="11.026783823668323"><ele>173.0</ele><time>2026-05-02T08:02:30.999Z</time></trkpt><trkpt lat="45.864087152408246" lon="11.02657646555864"><ele>173.0</ele><time>2026-05-02T08:02:31.999Z</time></trkpt><trkpt lat="45.864252314466206" lon="11.026375789352487"><ele>173.0</ele><time>2026-05-02T08:02:32.999Z</time></trkpt><trkpt lat="45.86435690566627" lon="11.02622020686457"><ele>173.0</ele><time>2026-05-02T08:02:33.999Z</time></trkpt><trkpt lat="45.864507881921305" lon="11.026034382593188"><ele>173.0</ele><time>2026-05-02T08:02:34.999Z</time></trkpt><trkpt lat="45.86465087515361" lon="11.02585158134979"><ele>173.0</ele><time>2026-05-02T08:02:35.999Z</time></trkpt><trkpt lat="45.864791283346406" lon="11.025702835793991"><ele>173.0</ele><time>2026-05-02T08:02:36.999Z</time></trkpt><trkpt lat="45.864907580417" lon="11.02553715128721"><ele>173.0</ele><time>2026-05-02T08:02:37.999Z</time></trkpt><trkpt lat="45.86502178494279" lon="11.02539182797764"><ele>173.0</ele><time>2026-05-02T08:02:38.999Z</time></trkpt><trkpt lat="45.86514041795298" lon="11.025241471702284"><ele>173.0</ele><time>2026-05-02T08:02:39.999Z</time></trkpt><trkpt lat="45.865267877644584" lon="11.025097213585207"><ele>172.66666666666666</ele><time>2026-05-02T08:02:40.999Z</time></trkpt><trkpt lat="45.86538645976338" lon="11.024916398708314"><ele>172.33333333333334</ele><time>2026-05-02T08:02:41.999Z</time></trkpt><trkpt lat="45.8655114778698" lon="11.024755292778798"><ele>172.0</ele><time>2026-05-02T08:02:42.999Z</time></trkpt><trkpt lat="45.86562853171492" lon="11.024609402120864"><ele>172.0</ele><time>2026-05-02T08:02:43.998Z</time></trkpt><trkpt lat="45.86574225863141" lon="11.02449198931358"><ele>172.0</ele><time>2026-05-02T08:02:44.998Z</time></trkpt><trkpt lat="45.86583202197862" lon="11.024377369920346"><ele>172.0</ele><time>2026-05-02T08:02:45.998Z</time></trkpt><trkpt lat="45.865929185253485" lon="11.024253301493498"><ele>172.0</ele><time>2026-05-02T08:02:46.998Z</time></trkpt><trkpt lat="45.86602818739879" lon="11.0241138801893"><ele>172.25</ele><time>2026-05-02T08:02:47.998Z</time></trkpt><trkpt lat="45.86613213006045" lon="11.02398199193254"><ele>172.5</ele><time>2026-05-02T08:02:48.998Z</time></trkpt><trkpt lat="45.86623614782857" lon="11.023858161795323"><ele>172.75</ele><time>2026-05-02T08:02:49.998Z</time></trkpt><trkpt lat="45.86634150226006" lon="11.023739148855883"><ele>173.0</ele><time>2026-05-02T08:02:50.998Z</time></trkpt><trkpt lat="45.866465330902614" lon="11.023650999203804"><ele>173.0</ele><time>2026-05-02T08:02:51.998Z</time></trkpt><trkpt lat="45.866595496180366" lon="11.023586831626531"><ele>173.0</ele><time>2026-05-02T08:02:52.998Z</time></trkpt><trkpt lat="45.866732999237726" lon="11.023536025301032"><ele>173.0</ele><time>2026-05-02T08:02:53.998Z</time></trkpt><trkpt lat="45.866880318478785" lon="11.023512282636773"><ele>173.0</ele><time>2026-05-02T08:02:54.998Z</time></trkpt><trkpt lat="45.86703570765357" lon="11.023504759528667"><ele>172.0</ele><time>2026-05-02T08:02:56Z</time></trkpt><trkpt lat="45.867224996990004" lon="11.023485222985935"><ele>171.0</ele><time>2026-05-02T08:02:57Z</time></trkpt><trkpt lat="45.86739186286158" lon="11.023489703718303"><ele>170.0</ele><time>2026-05-02T08:02:58Z</time></trkpt><trkpt lat="45.86755208685083" lon="11.02348705601572"><ele>170.66666666666666</ele><time>2026-05-02T08:02:59Z</time></trkpt><trkpt lat="45.86770689606275" lon="11.023484717352398"><ele>171.33333333333334</ele><time>2026-05-02T08:03:00Z</time></trkpt><trkpt lat="45.867866275428945" lon="11.023488437660136"><ele>172.0</ele><time>2026-05-02T08:03:01Z</time></trkpt><trkpt lat="45.86801770904803" lon="11.02349976672301"><ele>172.0</ele><time>2026-05-02T08:03:02Z</time></trkpt><trkpt lat="45.86813761887977" lon="11.02351565356129"><ele>172.0</ele><time>2026-05-02T08:03:03Z</time></trkpt><trkpt lat="45.868240087431246" lon="11.023527385121445"><ele>172.0</ele><time>2026-05-02T08:03:04Z</time></trkpt><trkpt lat="45.868322085787916" lon="11.02349742047513"><ele>172.0</ele><time>2026-05-02T08:03:05Z</time></trkpt><trkpt lat="45.86837698015993" lon="11.023422058824444"><ele>172.0</ele><time>2026-05-02T08:03:06Z</time></trkpt><trkpt lat="45.868403481815506" lon="11.023321554561777"><ele>171.75</ele><time>2026-05-02T08:03:07Z</time></trkpt><trkpt lat="45.86841009654547" lon="11.023201417417955"><ele>171.5</ele><time>2026-05-02T08:03:08Z</time></trkpt><trkpt lat="45.868408508751784" lon="11.023046776691425"><ele>171.25</ele><time>2026-05-02T08:03:09Z</time></trkpt><trkpt lat="45.86839866340249" lon="11.022860670162002"><ele>171.0</ele><time>2026-05-02T08:03:10Z</time></trkpt><trkpt lat="45.86839204884217" lon="11.022654029402743"><ele>171.0</ele><time>2026-05-02T08:03:11Z</time></trkpt><trkpt lat="45.868388650309875" lon="11.022422160155703"><ele>171.0</ele><time>2026-05-02T08:03:12Z</time></trkpt><trkpt lat="45.86839000042213" lon="11.022180759609364"><ele>171.0</ele><time>2026-05-02T08:03:13Z</time></trkpt><trkpt lat="45.86838577697582" lon="11.021935289363258"><ele>171.0</ele><time>2026-05-02T08:03:14Z</time></trkpt><trkpt lat="45.86838284467234" lon="11.021716665009667"><ele>171.0</ele><time>2026-05-02T08:03:15Z</time></trkpt><trkpt lat="45.868378092776865" lon="11.021516616074651"><ele>171.0</ele><time>2026-05-02T08:03:16Z</time></trkpt><trkpt lat="45.86837203885099" lon="11.021341790954784"><ele>171.0</ele><time>2026-05-02T08:03:17Z</time></trkpt><trkpt lat="45.86837320740547" lon="11.021190674606837"><ele>171.0</ele><time>2026-05-02T08:03:18Z</time></trkpt><trkpt lat="45.8683948599908" lon="11.021081480760698"><ele>171.0</ele><time>2026-05-02T08:03:19Z</time></trkpt><trkpt lat="45.86851491815605" lon="11.020998797033133"><ele>171.0</ele><time>2026-05-02T08:03:21Z</time></trkpt><trkpt lat="45.86861864900967" lon="11.020995510659723"><ele>171.0</ele><time>2026-05-02T08:03:22Z</time></trkpt><trkpt lat="45.86875148174102" lon="11.021007282498012"><ele>171.0</ele><time>2026-05-02T08:03:23Z</time></trkpt><trkpt lat="45.86890366315348" lon="11.021000934854792"><ele>171.33333333333334</ele><time>2026-05-02T08:03:24Z</time></trkpt><trkpt lat="45.86906632536795" lon="11.02099027371838"><ele>171.66666666666669</ele><time>2026-05-02T08:03:25Z</time></trkpt><trkpt lat="45.86923045876153" lon="11.020977936853585"><ele>172.0</ele><time>2026-05-02T08:03:26Z</time></trkpt><trkpt lat="45.86940034626374" lon="11.02096590313725"><ele>172.66666666666669</ele><time>2026-05-02T08:03:27Z</time></trkpt><trkpt lat="45.86957549991321" lon="11.020956356414787"><ele>173.33333333333334</ele><time>2026-05-02T08:03:28Z</time></trkpt><trkpt lat="45.86974793899726" lon="11.020943995962243"><ele>174.0</ele><time>2026-05-02T08:03:29Z</time></trkpt><trkpt lat="45.86991714187206" lon="11.020934472248081"><ele>174.0</ele><time>2026-05-02T08:03:30Z</time></trkpt><trkpt lat="45.87008721807749" lon="11.020925393048948"><ele>174.0</ele><time>2026-05-02T08:03:31Z</time></trkpt><trkpt lat="45.87025566309188" lon="11.020912188542113"><ele>174.0</ele><time>2026-05-02T08:03:32Z</time></trkpt><trkpt lat="45.87042392743146" lon="11.020899339034262"><ele>175.0</ele><time>2026-05-02T08:03:33Z</time></trkpt><trkpt lat="45.87059027078918" lon="11.020892969995783"><ele>176.0</ele><time>2026-05-02T08:03:34Z</time></trkpt><trkpt lat="45.87075565329655" lon="11.020884658240277"><ele>177.0</ele><time>2026-05-02T08:03:34.999Z</time></trkpt><trkpt lat="45.87091223820307" lon="11.020875975921593"><ele>176.25</ele><time>2026-05-02T08:03:35.999Z</time></trkpt><trkpt lat="45.8710610970808" lon="11.020868152479217"><ele>175.5</ele><time>2026-05-02T08:03:36.999Z</time></trkpt><trkpt lat="45.8712008628971" lon="11.020859969820693"><ele>174.75</ele><time>2026-05-02T08:03:37.999Z</time></trkpt><trkpt lat="45.87133952274473" lon="11.02085110539093"><ele>174.0</ele><time>2026-05-02T08:03:38.999Z</time></trkpt><trkpt lat="45.87146973488209" lon="11.020844875304036"><ele>174.0</ele><time>2026-05-02T08:03:39.999Z</time></trkpt><trkpt lat="45.87159351321167" lon="11.020836285630658"><ele>174.0</ele><time>2026-05-02T08:03:40.999Z</time></trkpt><trkpt lat="45.87170596305395" lon="11.020825461812468"><ele>174.0</ele><time>2026-05-02T08:03:41.999Z</time></trkpt><trkpt lat="45.87180379885167" lon="11.020812706629389"><ele>174.0</ele><time>2026-05-02T08:03:42.999Z</time></trkpt><trkpt lat="45.87187894035368" lon="11.020802743799434"><ele>174.0</ele><time>2026-05-02T08:03:43.999Z</time></trkpt><trkpt lat="45.871942916947525" lon="11.020795747704174"><ele>173.83333333333334</ele><time>2026-05-02T08:03:44.999Z</time></trkpt><trkpt lat="45.87204351307121" lon="11.020790894245646"><ele>173.66666666666666</ele><time>2026-05-02T08:03:46.999Z</time></trkpt><trkpt lat="45.872119909004354" lon="11.020814058025103"><ele>173.5</ele><time>2026-05-02T08:03:48.999Z</time></trkpt><trkpt lat="45.87220313807704" lon="11.020869382718873"><ele>173.33333333333331</ele><time>2026-05-02T08:03:50.999Z</time></trkpt><trkpt lat="45.87226138874286" lon="11.020919140195469"><ele>173.16666666666666</ele><time>2026-05-02T08:03:51.999Z</time></trkpt><trkpt lat="45.872331166546154" lon="11.020966872932675"><ele>173.0</ele><time>2026-05-02T08:03:52.999Z</time></trkpt><trkpt lat="45.87240511868528" lon="11.020987778375268"><ele>173.0</ele><time>2026-05-02T08:03:53.999Z</time></trkpt><trkpt lat="45.87247517753178" lon="11.02098210178413"><ele>173.0</ele><time>2026-05-02T08:03:54.999Z</time></trkpt><trkpt lat="45.872544810402495" lon="11.020945389439635"><ele>173.0</ele><time>2026-05-02T08:03:55.999Z</time></trkpt><trkpt lat="45.872606243554394" lon="11.020888969519051"><ele>173.0</ele><time>2026-05-02T08:03:56.999Z</time></trkpt><trkpt lat="45.87267491295255" lon="11.020829982366976"><ele>173.0</ele><time>2026-05-02T08:03:57.999Z</time></trkpt><trkpt lat="45.87274999056834" lon="11.020801752930199"><ele>173.0</ele><time>2026-05-02T08:03:58.999Z</time></trkpt><trkpt lat="45.8728325506034" lon="11.0208015896241"><ele>173.0</ele><time>2026-05-02T08:03:59.999Z</time></trkpt><trkpt lat="45.872927902695125" lon="11.020840822046258"><ele>173.0</ele><time>2026-05-02T08:04:00.999Z</time></trkpt><trkpt lat="45.87303287889975" lon="11.020915196472926"><ele>173.0</ele><time>2026-05-02T08:04:01.999Z</time></trkpt><trkpt lat="45.87313463489455" lon="11.021012931435536"><ele>173.0</ele><time>2026-05-02T08:04:02.999Z</time></trkpt><trkpt lat="45.87323059794081" lon="11.02113043447898"><ele>173.0</ele><time>2026-05-02T08:04:03.999Z</time></trkpt><trkpt lat="45.87332813954351" lon="11.021271988542443"><ele>173.0</ele><time>2026-05-02T08:04:04.999Z</time></trkpt><trkpt lat="45.87342910112133" lon="11.021434855371846"><ele>173.0</ele><time>2026-05-02T08:04:05.999Z</time></trkpt><trkpt lat="45.8735362034573" lon="11.021603217593986"><ele>173.0</ele><time>2026-05-02T08:04:06.999Z</time></trkpt><trkpt lat="45.87365651793728" lon="11.021786530618167"><ele>173.33333333333331</ele><time>2026-05-02T08:04:07.999Z</time></trkpt><trkpt lat="45.873785262750566" lon="11.021983889069709"><ele>173.66666666666666</ele><time>2026-05-02T08:04:08.999Z</time></trkpt><trkpt lat="45.8739192068821" lon="11.022189836037809"><ele>174.0</ele><time>2026-05-02T08:04:09.999Z</time></trkpt><trkpt lat="45.87406073190004" lon="11.02243908241157"><ele>173.5</ele><time>2026-05-02T08:04:10.999Z</time></trkpt><trkpt lat="45.87422346245513" lon="11.02269502799657"><ele>173.0</ele><time>2026-05-02T08:04:11.999Z</time></trkpt><trkpt lat="45.874374324337246" lon="11.022932306242266"><ele>173.0</ele><time>2026-05-02T08:04:12.999Z</time></trkpt><trkpt lat="45.87451620651996" lon="11.0231554611831"><ele>173.0</ele><time>2026-05-02T08:04:13.999Z</time></trkpt><trkpt lat="45.87466765006881" lon="11.023360972200837"><ele>173.0</ele><time>2026-05-02T08:04:14.999Z</time></trkpt><trkpt lat="45.87480089952443" lon="11.02357936688742"><ele>173.66666666666666</ele><time>2026-05-02T08:04:15.999Z</time></trkpt><trkpt lat="45.87493055078745" lon="11.023784017846356"><ele>174.33333333333334</ele><time>2026-05-02T08:04:16.999Z</time></trkpt><trkpt lat="45.87506093419311" lon="11.023985331863589"><ele>175.0</ele><time>2026-05-02T08:04:17.999Z</time></trkpt><trkpt lat="45.875195846666806" lon="11.024198023124319"><ele>175.0</ele><time>2026-05-02T08:04:18.999Z</time></trkpt><trkpt lat="45.87533233609823" lon="11.024414337890411"><ele>175.0</ele><time>2026-05-02T08:04:19.999Z</time></trkpt><trkpt lat="45.87547380012611" lon="11.024638613069484"><ele>175.0</ele><time>2026-05-02T08:04:20.999Z</time></trkpt><trkpt lat="45.8756081670139" lon="11.02488173204621"><ele>175.33333333333334</ele><time>2026-05-02T08:04:21.999Z</time></trkpt><trkpt lat="45.87576234946246" lon="11.025089932486448"><ele>175.66666666666666</ele><time>2026-05-02T08:04:22.999Z</time></trkpt><trkpt lat="45.87589846558484" lon="11.02530992325622"><ele>176.0</ele><time>2026-05-02T08:04:23.999Z</time></trkpt><trkpt lat="45.87603282742161" lon="11.025522547940483"><ele>176.0</ele><time>2026-05-02T08:04:24.999Z</time></trkpt><trkpt lat="45.87617141685418" lon="11.02573355817098"><ele>176.0</ele><time>2026-05-02T08:04:25.999Z</time></trkpt><trkpt lat="45.87631609172459" lon="11.025946538883524"><ele>176.0</ele><time>2026-05-02T08:04:26.999Z</time></trkpt><trkpt lat="45.87646465386827" lon="11.02616422314705"><ele>176.0</ele><time>2026-05-02T08:04:27.999Z</time></trkpt><trkpt lat="45.8766130051579" lon="11.026389981864126"><ele>176.0</ele><time>2026-05-02T08:04:28.999Z</time></trkpt><trkpt lat="45.87676957312147" lon="11.02661191770672"><ele>176.0</ele><time>2026-05-02T08:04:29.999Z</time></trkpt><trkpt lat="45.87693159244691" lon="11.026833212635413"><ele>176.66666666666666</ele><time>2026-05-02T08:04:30.999Z</time></trkpt><trkpt lat="45.87709502679507" lon="11.027052410285211"><ele>177.33333333333334</ele><time>2026-05-02T08:04:31.999Z</time></trkpt><trkpt lat="45.87725460177299" lon="11.027270509355132"><ele>178.0</ele><time>2026-05-02T08:04:32.999Z</time></trkpt><trkpt lat="45.87741134721137" lon="11.027483180711261"><ele>178.66666666666669</ele><time>2026-05-02T08:04:33.999Z</time></trkpt><trkpt lat="45.87756153249513" lon="11.027689332169963"><ele>179.33333333333334</ele><time>2026-05-02T08:04:34.999Z</time></trkpt><trkpt lat="45.877700718990894" lon="11.027880812464026"><ele>180.0</ele><time>2026-05-02T08:04:35.999Z</time></trkpt><trkpt lat="45.87783341082656" lon="11.028061403676123"><ele>180.0</ele><time>2026-05-02T08:04:36.999Z</time></trkpt><trkpt lat="45.877970632888086" lon="11.028239780691504"><ele>180.0</ele><time>2026-05-02T08:04:37.999Z</time></trkpt><trkpt lat="45.87810512280201" lon="11.028419882694244"><ele>180.0</ele><time>2026-05-02T08:04:38.999Z</time></trkpt><trkpt lat="45.87824152463553" lon="11.028608606175743"><ele>180.66666666666666</ele><time>2026-05-02T08:04:39.999Z</time></trkpt><trkpt lat="45.87838695386429" lon="11.028798754644281"><ele>181.33333333333331</ele><time>2026-05-02T08:04:40.999Z</time></trkpt><trkpt lat="45.87853408224723" lon="11.028995494699613"><ele>182.0</ele><time>2026-05-02T08:04:41.999Z</time></trkpt><trkpt lat="45.878682169206556" lon="11.029200572707968"><ele>182.33333333333331</ele><time>2026-05-02T08:04:42.999Z</time></trkpt><trkpt lat="45.87882733552919" lon="11.02939717972097"><ele>182.66666666666666</ele><time>2026-05-02T08:04:43.999Z</time></trkpt><trkpt lat="45.87895991595104" lon="11.02957777459028"><ele>183.0</ele><time>2026-05-02T08:04:44.999Z</time></trkpt><trkpt lat="45.87908330325481" lon="11.029745360095038"><ele>183.0</ele><time>2026-05-02T08:04:45.999Z</time></trkpt><trkpt lat="45.87920692557614" lon="11.029911671292812"><ele>183.0</ele><time>2026-05-02T08:04:46.999Z</time></trkpt><trkpt lat="45.8793366371723" lon="11.030075381313418"><ele>183.0</ele><time>2026-05-02T08:04:47.999Z</time></trkpt><trkpt lat="45.879469346074124" lon="11.030235828158801"><ele>183.0</ele><time>2026-05-02T08:04:48.999Z</time></trkpt><trkpt lat="45.879601793919534" lon="11.030384240089809"><ele>183.0</ele><time>2026-05-02T08:04:49.999Z</time></trkpt><trkpt lat="45.87972986088839" lon="11.030522930504345"><ele>183.0</ele><time>2026-05-02T08:04:50.999Z</time></trkpt><trkpt lat="45.87985561029563" lon="11.030652787139823"><ele>183.0</ele><time>2026-05-02T08:04:51.999Z</time></trkpt><trkpt lat="45.87997720638072" lon="11.030781050970585"><ele>183.0</ele><time>2026-05-02T08:04:52.998Z</time></trkpt><trkpt lat="45.880085492826964" lon="11.0309287323712"><ele>183.0</ele><time>2026-05-02T08:04:53.998Z</time></trkpt><trkpt lat="45.88017362951905" lon="11.031039619672322"><ele>183.0</ele><time>2026-05-02T08:04:54.998Z</time></trkpt><trkpt lat="45.8802360569088" lon="11.031133796751865"><ele>183.16666666666666</ele><time>2026-05-02T08:04:55.998Z</time></trkpt><trkpt lat="45.88027954423173" lon="11.031203349917387"><ele>183.33333333333334</ele><time>2026-05-02T08:04:56.998Z</time></trkpt><trkpt lat="45.88033102727662" lon="11.031270452062556"><ele>183.5</ele><time>2026-05-02T08:04:58.998Z</time></trkpt><trkpt lat="45.88035779159399" lon="11.031378224436486"><ele>183.66666666666669</ele><time>2026-05-02T08:05:01Z</time></trkpt><trkpt lat="45.88035170223496" lon="11.031559364786881"><ele>183.83333333333334</ele><time>2026-05-02T08:05:03Z</time></trkpt><trkpt lat="45.880351713561126" lon="11.031659208256317"><ele>184.0</ele><time>2026-05-02T08:05:04Z</time></trkpt><trkpt lat="45.880376890031684" lon="11.031748707327823"><ele>184.0</ele><time>2026-05-02T08:05:05Z</time></trkpt><trkpt lat="45.880462310508975" lon="11.031860420619651"><ele>184.0</ele><time>2026-05-02T08:05:07Z</time></trkpt><trkpt lat="45.880533257987835" lon="11.031865381230338"><ele>184.0</ele><time>2026-05-02T08:05:08Z</time></trkpt><trkpt lat="45.8806115548094" lon="11.031848527101554"><ele>184.0</ele><time>2026-05-02T08:05:09Z</time></trkpt><trkpt lat="45.88069090847825" lon="11.031809097361437"><ele>184.0</ele><time>2026-05-02T08:05:10Z</time></trkpt><trkpt lat="45.880769481653495" lon="11.03176525186601"><ele>184.0</ele><time>2026-05-02T08:05:11Z</time></trkpt><trkpt lat="45.88085768237284" lon="11.031768367770843"><ele>184.0</ele><time>2026-05-02T08:05:12Z</time></trkpt><trkpt lat="45.880982854077054" lon="11.031801814624501"><ele>184.0</ele><time>2026-05-02T08:05:13Z</time></trkpt><trkpt lat="45.88113930549019" lon="11.031853947896602"><ele>184.0</ele><time>2026-05-02T08:05:14Z</time></trkpt><trkpt lat="45.881339750912744" lon="11.03192100456664"><ele>184.0</ele><time>2026-05-02T08:05:15Z</time></trkpt><trkpt lat="45.88151423427966" lon="11.031987942204465"><ele>184.0</ele><time>2026-05-02T08:05:16Z</time></trkpt><trkpt lat="45.88168059720778" lon="11.032048786710014"><ele>184.0</ele><time>2026-05-02T08:05:17Z</time></trkpt><trkpt lat="45.881836285976824" lon="11.032104179248144"><ele>183.33333333333334</ele><time>2026-05-02T08:05:18Z</time></trkpt><trkpt lat="45.88199290019078" lon="11.032167398647477"><ele>182.66666666666666</ele><time>2026-05-02T08:05:19Z</time></trkpt><trkpt lat="45.882150321388245" lon="11.032232522583598"><ele>182.0</ele><time>2026-05-02T08:05:20Z</time></trkpt><trkpt lat="45.882314214439525" lon="11.032290317179784"><ele>182.0</ele><time>2026-05-02T08:05:21Z</time></trkpt><trkpt lat="45.882480962966724" lon="11.032350533628014"><ele>182.0</ele><time>2026-05-02T08:05:22Z</time></trkpt><trkpt lat="45.88265023351497" lon="11.03240516479962"><ele>182.0</ele><time>2026-05-02T08:05:23Z</time></trkpt><trkpt lat="45.88282447388435" lon="11.032450262089327"><ele>182.33333333333331</ele><time>2026-05-02T08:05:24Z</time></trkpt><trkpt lat="45.88300423421562" lon="11.03247887013296"><ele>182.66666666666666</ele><time>2026-05-02T08:05:25Z</time></trkpt><trkpt lat="45.88318150505062" lon="11.032504850031229"><ele>183.0</ele><time>2026-05-02T08:05:26Z</time></trkpt><trkpt lat="45.88332321477107" lon="11.032535656601736"><ele>183.5</ele><time>2026-05-02T08:05:27Z</time></trkpt><trkpt lat="45.88344788655049" lon="11.032559428576475"><ele>184.0</ele><time>2026-05-02T08:05:28Z</time></trkpt><trkpt lat="45.883578720681975" lon="11.03258211891785"><ele>184.5</ele><time>2026-05-02T08:05:29Z</time></trkpt><trkpt lat="45.88371192188816" lon="11.032604969924426"><ele>185.0</ele><time>2026-05-02T08:05:30Z</time></trkpt><trkpt lat="45.88385097072635" lon="11.032628342557302"><ele>185.0</ele><time>2026-05-02T08:05:31Z</time></trkpt><trkpt lat="45.88397674622432" lon="11.0326493441173"><ele>185.0</ele><time>2026-05-02T08:05:32Z</time></trkpt><trkpt lat="45.88408963993985" lon="11.032664319050129"><ele>185.0</ele><time>2026-05-02T08:05:33Z</time></trkpt><trkpt lat="45.88421174356639" lon="11.032685283687123"><ele>185.0</ele><time>2026-05-02T08:05:34Z</time></trkpt><trkpt lat="45.884331309249994" lon="11.032705079573057"><ele>185.2</ele><time>2026-05-02T08:05:35Z</time></trkpt><trkpt lat="45.884436728476906" lon="11.032722707270137"><ele>185.4</ele><time>2026-05-02T08:05:36Z</time></trkpt><trkpt lat="45.88452839590807" lon="11.032740040149887"><ele>185.60000000000002</ele><time>2026-05-02T08:05:37Z</time></trkpt><trkpt lat="45.88461742957008" lon="11.032756023123008"><ele>185.8</ele><time>2026-05-02T08:05:38Z</time></trkpt><trkpt lat="45.884724520604415" lon="11.032773130040818"><ele>186.0</ele><time>2026-05-02T08:05:39Z</time></trkpt><trkpt lat="45.8848402629996" lon="11.032789248485168"><ele>186.0</ele><time>2026-05-02T08:05:40Z</time></trkpt><trkpt lat="45.884954811198234" lon="11.032809416146053"><ele>186.0</ele><time>2026-05-02T08:05:41Z</time></trkpt><trkpt lat="45.88506081689965" lon="11.032830331042302"><ele>186.0</ele><time>2026-05-02T08:05:42Z</time></trkpt><trkpt lat="45.88516667421301" lon="11.032848254817242"><ele>186.0</ele><time>2026-05-02T08:05:42.999Z</time></trkpt><trkpt lat="45.885273140991636" lon="11.032863705042946"><ele>186.0</ele><time>2026-05-02T08:05:43.999Z</time></trkpt><trkpt lat="45.885383959256835" lon="11.032882322162624"><ele>186.0</ele><time>2026-05-02T08:05:44.999Z</time></trkpt><trkpt lat="45.88549765353455" lon="11.03290007302738"><ele>186.0</ele><time>2026-05-02T08:05:45.999Z</time></trkpt><trkpt lat="45.88561162671154" lon="11.032917945806785"><ele>186.0</ele><time>2026-05-02T08:05:46.999Z</time></trkpt><trkpt lat="45.88572060303162" lon="11.032939483007217"><ele>186.0</ele><time>2026-05-02T08:05:47.999Z</time></trkpt><trkpt lat="45.88581309544643" lon="11.032952617351144"><ele>186.0</ele><time>2026-05-02T08:05:48.999Z</time></trkpt><trkpt lat="45.88588577827882" lon="11.032966752234163"><ele>186.33333333333334</ele><time>2026-05-02T08:05:49.999Z</time></trkpt><trkpt lat="45.88595742866191" lon="11.032981611908701"><ele>186.66666666666666</ele><time>2026-05-02T08:05:50.999Z</time></trkpt><trkpt lat="45.88603269015632" lon="11.032996751637517"><ele>187.0</ele><time>2026-05-02T08:05:51.999Z</time></trkpt><trkpt lat="45.88610714763728" lon="11.033011275714415"><ele>187.33333333333331</ele><time>2026-05-02T08:05:52.999Z</time></trkpt><trkpt lat="45.886173967070356" lon="11.033020378765947"><ele>187.66666666666666</ele><time>2026-05-02T08:05:53.999Z</time></trkpt><trkpt lat="45.88627825227591" lon="11.033033235314214"><ele>188.0</ele><time>2026-05-02T08:05:55.999Z</time></trkpt><trkpt lat="45.886359832669974" lon="11.033046281869828"><ele>188.0</ele><time>2026-05-02T08:05:57.999Z</time></trkpt><trkpt lat="45.886437600214066" lon="11.03307541638808"><ele>188.0</ele><time>2026-05-02T08:05:59.999Z</time></trkpt><trkpt lat="45.886499330688714" lon="11.033143324973286"><ele>188.0</ele><time>2026-05-02T08:06:01.999Z</time></trkpt><trkpt lat="45.88655675116376" lon="11.033242329526107"><ele>188.0</ele><time>2026-05-02T08:06:03.999Z</time></trkpt><trkpt lat="45.88665703381757" lon="11.03329216522687"><ele>188.0</ele><time>2026-05-02T08:06:05.999Z</time></trkpt><trkpt lat="45.88672224175811" lon="11.033256880570134"><ele>188.0</ele><time>2026-05-02T08:06:06.999Z</time></trkpt><trkpt lat="45.886801067193886" lon="11.033195507117323"><ele>188.75</ele><time>2026-05-02T08:06:07.999Z</time></trkpt><trkpt lat="45.88690573263148" lon="11.033170921654799"><ele>189.5</ele><time>2026-05-02T08:06:08.999Z</time></trkpt><trkpt lat="45.88705091400863" lon="11.033178128181149"><ele>190.25</ele><time>2026-05-02T08:06:09.999Z</time></trkpt><trkpt lat="45.887205001574465" lon="11.033205760065659"><ele>191.0</ele><time>2026-05-02T08:06:10.999Z</time></trkpt><trkpt lat="45.887363458004806" lon="11.033244350612984"><ele>191.0</ele><time>2026-05-02T08:06:11.999Z</time></trkpt><trkpt lat="45.88750623130862" lon="11.033273213614867"><ele>191.0</ele><time>2026-05-02T08:06:12.999Z</time></trkpt><trkpt lat="45.88763509116123" lon="11.033297963228264"><ele>191.0</ele><time>2026-05-02T08:06:13.999Z</time></trkpt><trkpt lat="45.887752345441896" lon="11.033339435049573"><ele>191.0</ele><time>2026-05-02T08:06:14.999Z</time></trkpt><trkpt lat="45.88787586044137" lon="11.033383863853421"><ele>190.75</ele><time>2026-05-02T08:06:15.999Z</time></trkpt><trkpt lat="45.88800383174465" lon="11.033436146237564"><ele>190.5</ele><time>2026-05-02T08:06:16.999Z</time></trkpt><trkpt lat="45.88813197489239" lon="11.033494845167171"><ele>190.25</ele><time>2026-05-02T08:06:17.999Z</time></trkpt><trkpt lat="45.88824957779517" lon="11.03355384190133"><ele>190.0</ele><time>2026-05-02T08:06:18.999Z</time></trkpt><trkpt lat="45.888358753770326" lon="11.033606645159844"><ele>190.0</ele><time>2026-05-02T08:06:19.999Z</time></trkpt><trkpt lat="45.88846063726528" lon="11.033648193877834"><ele>190.0</ele><time>2026-05-02T08:06:20.999Z</time></trkpt><trkpt lat="45.88856419552305" lon="11.033680081695666"><ele>190.0</ele><time>2026-05-02T08:06:21.999Z</time></trkpt><trkpt lat="45.888666790709294" lon="11.033710891824573"><ele>190.0</ele><time>2026-05-02T08:06:22.999Z</time></trkpt><trkpt lat="45.888755983917626" lon="11.033736713938346"><ele>190.0</ele><time>2026-05-02T08:06:23.999Z</time></trkpt><trkpt lat="45.8888389358757" lon="11.033755822101904"><ele>190.0</ele><time>2026-05-02T08:06:24.999Z</time></trkpt><trkpt lat="45.88891822904338" lon="11.033772112000888"><ele>190.0</ele><time>2026-05-02T08:06:25.999Z</time></trkpt><trkpt lat="45.889000193854415" lon="11.033784497906082"><ele>190.0</ele><time>2026-05-02T08:06:26.999Z</time></trkpt><trkpt lat="45.889088012980686" lon="11.033802934924035"><ele>190.0</ele><time>2026-05-02T08:06:27.999Z</time></trkpt><trkpt lat="45.889182128982775" lon="11.033817815246275"><ele>190.0</ele><time>2026-05-02T08:06:28.999Z</time></trkpt><trkpt lat="45.88926948316694" lon="11.033831153785576"><ele>190.0</ele><time>2026-05-02T08:06:29.999Z</time></trkpt><trkpt lat="45.88935810124504" lon="11.033850278280598"><ele>190.0</ele><time>2026-05-02T08:06:30.999Z</time></trkpt><trkpt lat="45.889446003536065" lon="11.033873948018629"><ele>190.0</ele><time>2026-05-02T08:06:31.999Z</time></trkpt><trkpt lat="45.88953393204381" lon="11.033897707558182"><ele>190.0</ele><time>2026-05-02T08:06:32.999Z</time></trkpt><trkpt lat="45.88962393900784" lon="11.03391894346835"><ele>190.0</ele><time>2026-05-02T08:06:33.999Z</time></trkpt><trkpt lat="45.88970760230674" lon="11.033939927731454"><ele>190.0</ele><time>2026-05-02T08:06:34.999Z</time></trkpt><trkpt lat="45.88978560167277" lon="11.033956305571706"><ele>190.0</ele><time>2026-05-02T08:06:35.999Z</time></trkpt><trkpt lat="45.88985387857995" lon="11.033969935026931"><ele>190.0</ele><time>2026-05-02T08:06:36.999Z</time></trkpt><trkpt lat="45.88992170071762" lon="11.033982311090499"><ele>190.0</ele><time>2026-05-02T08:06:37.999Z</time></trkpt><trkpt lat="45.88999179979208" lon="11.033998286602902"><ele>190.0</ele><time>2026-05-02T08:06:38.999Z</time></trkpt><trkpt lat="45.890065931722354" lon="11.034018091110687"><ele>190.0</ele><time>2026-05-02T08:06:39.999Z</time></trkpt><trkpt lat="45.890143489106734" lon="11.034041904574243"><ele>190.0</ele><time>2026-05-02T08:06:40.999Z</time></trkpt><trkpt lat="45.89022079538799" lon="11.03406329777176"><ele>190.0</ele><time>2026-05-02T08:06:41.999Z</time></trkpt><trkpt lat="45.890298393136305" lon="11.034091519394806"><ele>190.0</ele><time>2026-05-02T08:06:42.999Z</time></trkpt><trkpt lat="45.890368934249274" lon="11.03412278044568"><ele>190.0</ele><time>2026-05-02T08:06:43.999Z</time></trkpt><trkpt lat="45.890433034996796" lon="11.034154961341889"><ele>190.0</ele><time>2026-05-02T08:06:44.999Z</time></trkpt><trkpt lat="45.89049734545776" lon="11.034196870835226"><ele>190.0</ele><time>2026-05-02T08:06:45.999Z</time></trkpt><trkpt lat="45.89058207840736" lon="11.034260236727228"><ele>190.0</ele><time>2026-05-02T08:06:47.999Z</time></trkpt><trkpt lat="45.890646763982836" lon="11.034318477476322"><ele>190.0</ele><time>2026-05-02T08:06:49.999Z</time></trkpt><trkpt lat="45.89070690115687" lon="11.034378392451359"><ele>190.0</ele><time>2026-05-02T08:06:52.999Z</time></trkpt><trkpt lat="45.89077435057807" lon="11.034492216103201"><ele>190.0</ele><time>2026-05-02T08:06:54.999Z</time></trkpt><trkpt lat="45.89080628241488" lon="11.034588238230091"><ele>190.0</ele><time>2026-05-02T08:06:55.999Z</time></trkpt><trkpt lat="45.89082652969802" lon="11.034690275873395"><ele>190.0</ele><time>2026-05-02T08:06:56.999Z</time></trkpt><trkpt lat="45.89084489681466" lon="11.03478498145145"><ele>190.0</ele><time>2026-05-02T08:06:57.999Z</time></trkpt><trkpt lat="45.890921793795734" lon="11.034907536565926"><ele>190.0</ele><time>2026-05-02T08:06:59.998Z</time></trkpt><trkpt lat="45.89099057798598" lon="11.0349723021295"><ele>190.0</ele><time>2026-05-02T08:07:01.998Z</time></trkpt><trkpt lat="45.89107552576807" lon="11.034841096939576"><ele>190.0</ele><time>2026-05-02T08:07:02.998Z</time></trkpt><trkpt lat="45.89112889246295" lon="11.034758111612167"><ele>190.0</ele><time>2026-05-02T08:07:03.998Z</time></trkpt><trkpt lat="45.89119123350255" lon="11.034658884010266"><ele>190.0</ele><time>2026-05-02T08:07:04.998Z</time></trkpt><trkpt lat="45.891262297614304" lon="11.03456511434948"><ele>190.0</ele><time>2026-05-02T08:07:06Z</time></trkpt><trkpt lat="45.891348168227836" lon="11.034489244025288"><ele>190.0</ele><time>2026-05-02T08:07:07Z</time></trkpt><trkpt lat="45.89144670071952" lon="11.0344270819103"><ele>190.0</ele><time>2026-05-02T08:07:08Z</time></trkpt><trkpt lat="45.89155596219893" lon="11.034384073219798"><ele>190.0</ele><time>2026-05-02T08:07:09Z</time></trkpt><trkpt lat="45.89167874035896" lon="11.034360459052667"><ele>190.0</ele><time>2026-05-02T08:07:10Z</time></trkpt><trkpt lat="45.89180801259723" lon="11.03434780357801"><ele>189.5</ele><time>2026-05-02T08:07:11Z</time></trkpt><trkpt lat="45.89194043450075" lon="11.034337399233042"><ele>189.0</ele><time>2026-05-02T08:07:12Z</time></trkpt><trkpt lat="45.8920582314729" lon="11.034331698631837"><ele>188.5</ele><time>2026-05-02T08:07:13Z</time></trkpt><trkpt lat="45.89217017576697" lon="11.034327954618517"><ele>188.0</ele><time>2026-05-02T08:07:14Z</time></trkpt><trkpt lat="45.89227865091262" lon="11.03432203178188"><ele>188.0</ele><time>2026-05-02T08:07:15Z</time></trkpt><trkpt lat="45.89238689492566" lon="11.034314090286253"><ele>188.0</ele><time>2026-05-02T08:07:16Z</time></trkpt><trkpt lat="45.89250078389801" lon="11.034307445817095"><ele>188.0</ele><time>2026-05-02T08:07:17Z</time></trkpt><trkpt lat="45.89262716437829" lon="11.03430524066512"><ele>188.0</ele><time>2026-05-02T08:07:18Z</time></trkpt><trkpt lat="45.892765575543166" lon="11.034296946980668"><ele>188.0</ele><time>2026-05-02T08:07:19Z</time></trkpt><trkpt lat="45.89291552681572" lon="11.03428679317865"><ele>188.0</ele><time>2026-05-02T08:07:20Z</time></trkpt><trkpt lat="45.89307692004958" lon="11.034302368437451"><ele>188.0</ele><time>2026-05-02T08:07:21Z</time></trkpt><trkpt lat="45.89326516377653" lon="11.034294686864547"><ele>187.66666666666666</ele><time>2026-05-02T08:07:22Z</time></trkpt><trkpt lat="45.89346816664724" lon="11.03426579793671"><ele>187.33333333333334</ele><time>2026-05-02T08:07:23Z</time></trkpt><trkpt lat="45.89368348019133" lon="11.034261187367779"><ele>187.0</ele><time>2026-05-02T08:07:24Z</time></trkpt><trkpt lat="45.893890160093825" lon="11.034262594558157"><ele>187.0</ele><time>2026-05-02T08:07:25Z</time></trkpt><trkpt lat="45.89409200819565" lon="11.034281463756306"><ele>187.0</ele><time>2026-05-02T08:07:26Z</time></trkpt><trkpt lat="45.894297928904045" lon="11.034318583220578"><ele>187.0</ele><time>2026-05-02T08:07:27Z</time></trkpt><trkpt lat="45.89449919749852" lon="11.034360103409329"><ele>187.0</ele><time>2026-05-02T08:07:28Z</time></trkpt><trkpt lat="45.89468603619637" lon="11.034398947560486"><ele>187.0</ele><time>2026-05-02T08:07:29Z</time></trkpt><trkpt lat="45.89486729697787" lon="11.034435189790225"><ele>187.0</ele><time>2026-05-02T08:07:30Z</time></trkpt><trkpt lat="45.895051132683506" lon="11.034474001901662"><ele>186.0</ele><time>2026-05-02T08:07:31Z</time></trkpt><trkpt lat="45.895244420269144" lon="11.034513859258285"><ele>185.0</ele><time>2026-05-02T08:07:32Z</time></trkpt><trkpt lat="45.89543602281862" lon="11.034560155831947"><ele>184.0</ele><time>2026-05-02T08:07:33Z</time></trkpt><trkpt lat="45.89561495537237" lon="11.034598349390379"><ele>184.0</ele><time>2026-05-02T08:07:34Z</time></trkpt><trkpt lat="45.89576257363088" lon="11.034638689957927"><ele>184.0</ele><time>2026-05-02T08:07:35Z</time></trkpt><trkpt lat="45.895895597664996" lon="11.034666699177516"><ele>184.0</ele><time>2026-05-02T08:07:36Z</time></trkpt><trkpt lat="45.89602151208113" lon="11.034693211421136"><ele>184.0</ele><time>2026-05-02T08:07:37Z</time></trkpt><trkpt lat="45.89613347942324" lon="11.03471678699202"><ele>184.0</ele><time>2026-05-02T08:07:38Z</time></trkpt><trkpt lat="45.89624781892051" lon="11.03474149103362"><ele>184.0</ele><time>2026-05-02T08:07:39Z</time></trkpt><trkpt lat="45.8963496985206" lon="11.0347638988664"><ele>184.0</ele><time>2026-05-02T08:07:40Z</time></trkpt><trkpt lat="45.896451519819564" lon="11.034786704363936"><ele>184.0</ele><time>2026-05-02T08:07:41Z</time></trkpt><trkpt lat="45.89654638244393" lon="11.034807951286645"><ele>184.0</ele><time>2026-05-02T08:07:42Z</time></trkpt><trkpt lat="45.89665088972829" lon="11.034831397379287"><ele>183.75</ele><time>2026-05-02T08:07:43Z</time></trkpt><trkpt lat="45.89675674658919" lon="11.034855524391395"><ele>183.5</ele><time>2026-05-02T08:07:44Z</time></trkpt><trkpt lat="45.89687071833961" lon="11.034881500955613"><ele>183.25</ele><time>2026-05-02T08:07:45Z</time></trkpt><trkpt lat="45.896993621798195" lon="11.034885295955183"><ele>183.0</ele><time>2026-05-02T08:07:46Z</time></trkpt><trkpt lat="45.89711307619927" lon="11.034908548392812"><ele>183.0</ele><time>2026-05-02T08:07:47Z</time></trkpt><trkpt lat="45.89721993563313" lon="11.034930784671495"><ele>183.0</ele><time>2026-05-02T08:07:48Z</time></trkpt><trkpt lat="45.897312277517884" lon="11.034952252648287"><ele>183.0</ele><time>2026-05-02T08:07:49Z</time></trkpt><trkpt lat="45.89738634419756" lon="11.034967613872778"><ele>183.0</ele><time>2026-05-02T08:07:50Z</time></trkpt><trkpt lat="45.89744887255951" lon="11.034979609955263"><ele>183.0</ele><time>2026-05-02T08:07:51Z</time></trkpt><trkpt lat="45.89751332174799" lon="11.034995184589107"><ele>183.0</ele><time>2026-05-02T08:07:52Z</time></trkpt><trkpt lat="45.897581342921725" lon="11.035012658480545"><ele>183.0</ele><time>2026-05-02T08:07:53Z</time></trkpt><trkpt lat="45.897653169659065" lon="11.035026764747942"><ele>183.0</ele><time>2026-05-02T08:07:53.999Z</time></trkpt><trkpt lat="45.897725051124155" lon="11.035043592270874"><ele>183.0</ele><time>2026-05-02T08:07:54.999Z</time></trkpt><trkpt lat="45.89781351377519" lon="11.035062065119831"><ele>183.0</ele><time>2026-05-02T08:07:55.999Z</time></trkpt><trkpt lat="45.8979265853969" lon="11.035085152073167"><ele>183.0</ele><time>2026-05-02T08:07:56.999Z</time></trkpt><trkpt lat="45.89804741427731" lon="11.035112612221486"><ele>183.0</ele><time>2026-05-02T08:07:57.999Z</time></trkpt><trkpt lat="45.89817673427429" lon="11.03514195922814"><ele>183.0</ele><time>2026-05-02T08:07:58.999Z</time></trkpt><trkpt lat="45.89832291298453" lon="11.035169675869419"><ele>183.0</ele><time>2026-05-02T08:07:59.999Z</time></trkpt><trkpt lat="45.898504016880906" lon="11.035202390078704"><ele>182.0</ele><time>2026-05-02T08:08:00.999Z</time></trkpt><trkpt lat="45.898691385082294" lon="11.035250366690265"><ele>181.0</ele><time>2026-05-02T08:08:01.999Z</time></trkpt><trkpt lat="45.8988924772551" lon="11.03530052111618"><ele>180.0</ele><time>2026-05-02T08:08:02.999Z</time></trkpt><trkpt lat="45.899097798417834" lon="11.035346391006284"><ele>179.0</ele><time>2026-05-02T08:08:03.999Z</time></trkpt><trkpt lat="45.89928912359477" lon="11.035392827677256"><ele>178.0</ele><time>2026-05-02T08:08:04.999Z</time></trkpt><trkpt lat="45.8994650617789" lon="11.035439280181688"><ele>177.0</ele><time>2026-05-02T08:08:05.999Z</time></trkpt><trkpt lat="45.89964079701692" lon="11.035475038574054"><ele>177.0</ele><time>2026-05-02T08:08:06.999Z</time></trkpt><trkpt lat="45.89981929957458" lon="11.035509312045328"><ele>177.0</ele><time>2026-05-02T08:08:07.999Z</time></trkpt><trkpt lat="45.9000030684205" lon="11.035545863865018"><ele>177.0</ele><time>2026-05-02T08:08:08.999Z</time></trkpt><trkpt lat="45.90018949330468" lon="11.035580477750084"><ele>175.66666666666666</ele><time>2026-05-02T08:08:09.999Z</time></trkpt><trkpt lat="45.90037981192884" lon="11.035614640713096"><ele>174.33333333333331</ele><time>2026-05-02T08:08:10.999Z</time></trkpt><trkpt lat="45.90057108585466" lon="11.0356496240033"><ele>173.0</ele><time>2026-05-02T08:08:11.999Z</time></trkpt><trkpt lat="45.9007625184789" lon="11.03568137433869"><ele>173.33333333333331</ele><time>2026-05-02T08:08:12.999Z</time></trkpt><trkpt lat="45.90095759205804" lon="11.035706951710983"><ele>173.66666666666666</ele><time>2026-05-02T08:08:13.999Z</time></trkpt><trkpt lat="45.90115536963959" lon="11.035728254330136"><ele>174.0</ele><time>2026-05-02T08:08:14.999Z</time></trkpt><trkpt lat="45.90128359666729" lon="11.035804593475676"><ele>175.0</ele><time>2026-05-02T08:08:15.999Z</time></trkpt><trkpt lat="45.90146467330318" lon="11.035845879454484"><ele>176.0</ele><time>2026-05-02T08:08:16.999Z</time></trkpt><trkpt lat="45.90165922395926" lon="11.035891054154124"><ele>177.0</ele><time>2026-05-02T08:08:17.999Z</time></trkpt><trkpt lat="45.90186118235609" lon="11.035936544629182"><ele>177.0</ele><time>2026-05-02T08:08:18.999Z</time></trkpt><trkpt lat="45.90207158514297" lon="11.03598156277436"><ele>177.0</ele><time>2026-05-02T08:08:19.999Z</time></trkpt><trkpt lat="45.90228545263484" lon="11.036029773097148"><ele>177.0</ele><time>2026-05-02T08:08:20.999Z</time></trkpt><trkpt lat="45.902492949577336" lon="11.036074238593866"><ele>177.66666666666666</ele><time>2026-05-02T08:08:21.999Z</time></trkpt><trkpt lat="45.90270009220493" lon="11.036114373714007"><ele>178.33333333333331</ele><time>2026-05-02T08:08:22.999Z</time></trkpt><trkpt lat="45.902918415554026" lon="11.03615547320762"><ele>179.0</ele><time>2026-05-02T08:08:23.999Z</time></trkpt><trkpt lat="45.90315065680382" lon="11.036221868129747"><ele>179.0</ele><time>2026-05-02T08:08:24.999Z</time></trkpt><trkpt lat="45.90338935349548" lon="11.036274618302302"><ele>179.0</ele><time>2026-05-02T08:08:25.999Z</time></trkpt><trkpt lat="45.90360991753985" lon="11.036330822943839"><ele>179.0</ele><time>2026-05-02T08:08:26.999Z</time></trkpt><trkpt lat="45.90381478437037" lon="11.036407100557238"><ele>179.0</ele><time>2026-05-02T08:08:27.999Z</time></trkpt><trkpt lat="45.904000574706295" lon="11.036503390046038"><ele>179.0</ele><time>2026-05-02T08:08:28.999Z</time></trkpt><trkpt lat="45.90416069877607" lon="11.036620141820947"><ele>180.66666666666666</ele><time>2026-05-02T08:08:29.999Z</time></trkpt><trkpt lat="45.90429486378659" lon="11.036749014697907"><ele>182.33333333333334</ele><time>2026-05-02T08:08:30.999Z</time></trkpt><trkpt lat="45.90442106367118" lon="11.036881494144566"><ele>184.0</ele><time>2026-05-02T08:08:31.999Z</time></trkpt><trkpt lat="45.90453718809711" lon="11.037022609214635"><ele>184.0</ele><time>2026-05-02T08:08:32.999Z</time></trkpt><trkpt lat="45.904652926945516" lon="11.037163106558173"><ele>184.0</ele><time>2026-05-02T08:08:33.999Z</time></trkpt><trkpt lat="45.90475822662475" lon="11.037286905841777"><ele>184.0</ele><time>2026-05-02T08:08:34.999Z</time></trkpt><trkpt lat="45.90486619132663" lon="11.037392020427182"><ele>184.0</ele><time>2026-05-02T08:08:35.999Z</time></trkpt><trkpt lat="45.90496152679418" lon="11.03751368383146"><ele>184.75</ele><time>2026-05-02T08:08:36.999Z</time></trkpt><trkpt lat="45.90505130044887" lon="11.037623905716575"><ele>185.5</ele><time>2026-05-02T08:08:37.999Z</time></trkpt><trkpt lat="45.90516507388835" lon="11.037758762729514"><ele>186.25</ele><time>2026-05-02T08:08:38.999Z</time></trkpt><trkpt lat="45.90528888308782" lon="11.03790630645573"><ele>187.0</ele><time>2026-05-02T08:08:39.999Z</time></trkpt><trkpt lat="45.9054125598296" lon="11.038059133767552"><ele>187.25</ele><time>2026-05-02T08:08:40.999Z</time></trkpt><trkpt lat="45.90553104189437" lon="11.038201551713408"><ele>187.5</ele><time>2026-05-02T08:08:41.999Z</time></trkpt><trkpt lat="45.905642322685644" lon="11.038333652644507"><ele>187.75</ele><time>2026-05-02T08:08:42.999Z</time></trkpt><trkpt lat="45.90574257666714" lon="11.038462040714325"><ele>188.0</ele><time>2026-05-02T08:08:43.999Z</time></trkpt><trkpt lat="45.90584075322912" lon="11.038571338975233"><ele>185.75</ele><time>2026-05-02T08:08:44.999Z</time></trkpt><trkpt lat="45.9059322930487" lon="11.038677125249146"><ele>183.5</ele><time>2026-05-02T08:08:45.999Z</time></trkpt><trkpt lat="45.906026798493144" lon="11.038785190016126"><ele>181.25</ele><time>2026-05-02T08:08:46.999Z</time></trkpt><trkpt lat="45.90612479678899" lon="11.03890005849483"><ele>179.0</ele><time>2026-05-02T08:08:47.999Z</time></trkpt><trkpt lat="45.90622911706543" lon="11.039018306985618"><ele>182.5</ele><time>2026-05-02T08:08:48.999Z</time></trkpt><trkpt lat="45.906340108730326" lon="11.039145652220206"><ele>186.0</ele><time>2026-05-02T08:08:49.999Z</time></trkpt><trkpt lat="45.90645367599446" lon="11.039276512727668"><ele>189.5</ele><time>2026-05-02T08:08:50.999Z</time></trkpt><trkpt lat="45.90656527791343" lon="11.039413991105722"><ele>193.0</ele><time>2026-05-02T08:08:51.999Z</time></trkpt><trkpt lat="45.90668179374399" lon="11.039554170610968"><ele>189.33333333333331</ele><time>2026-05-02T08:08:52.999Z</time></trkpt><trkpt lat="45.90680214511302" lon="11.039697163231768"><ele>185.66666666666666</ele><time>2026-05-02T08:08:53.999Z</time></trkpt><trkpt lat="45.90692549669417" lon="11.039830579029655"><ele>182.0</ele><time>2026-05-02T08:08:54.999Z</time></trkpt><trkpt lat="45.90704319521763" lon="11.03994553019254"><ele>186.25</ele><time>2026-05-02T08:08:55.999Z</time></trkpt><trkpt lat="45.90714411580597" lon="11.040043093958673"><ele>190.5</ele><time>2026-05-02T08:08:56.999Z</time></trkpt><trkpt lat="45.90724446477001" lon="11.040117096383073"><ele>194.75</ele><time>2026-05-02T08:08:57.999Z</time></trkpt><trkpt lat="45.907347215065" lon="11.040189056563149"><ele>199.0</ele><time>2026-05-02T08:08:58.999Z</time></trkpt><trkpt lat="45.907451320789654" lon="11.040246624082023"><ele>199.0</ele><time>2026-05-02T08:08:59.999Z</time></trkpt><trkpt lat="45.90755861191863" lon="11.040294250136006"><ele>199.0</ele><time>2026-05-02T08:09:00.999Z</time></trkpt><trkpt lat="45.90767176742924" lon="11.0403391226456"><ele>199.0</ele><time>2026-05-02T08:09:01.999Z</time></trkpt><trkpt lat="45.90777972193561" lon="11.04039429189961"><ele>199.0</ele><time>2026-05-02T08:09:02.999Z</time></trkpt><trkpt lat="45.907868763897504" lon="11.04044415253425"><ele>199.0</ele><time>2026-05-02T08:09:03.999Z</time></trkpt><trkpt lat="45.90795066064467" lon="11.040487241617281"><ele>198.6</ele><time>2026-05-02T08:09:04.999Z</time></trkpt><trkpt lat="45.90805996290427" lon="11.040554699862277"><ele>198.2</ele><time>2026-05-02T08:09:06.999Z</time></trkpt><trkpt lat="45.90815691163371" lon="11.040645208785136"><ele>197.79999999999998</ele><time>2026-05-02T08:09:08.999Z</time></trkpt><trkpt lat="45.90820128690843" lon="11.040716603742695"><ele>197.39999999999998</ele><time>2026-05-02T08:09:09.999Z</time></trkpt><trkpt lat="45.90824070231379" lon="11.040790132146444"><ele>197.0</ele><time>2026-05-02T08:09:10.998Z</time></trkpt><trkpt lat="45.908333785377124" lon="11.040850028261202"><ele>198.39999999999998</ele><time>2026-05-02T08:09:13Z</time></trkpt><trkpt lat="45.90839604578868" lon="11.040832958689474"><ele>199.79999999999998</ele><time>2026-05-02T08:09:14Z</time></trkpt><trkpt lat="45.9084745583962" lon="11.040803606514737"><ele>201.2</ele><time>2026-05-02T08:09:15Z</time></trkpt><trkpt lat="45.908566209791424" lon="11.040807984412659"><ele>202.6</ele><time>2026-05-02T08:09:16Z</time></trkpt><trkpt lat="45.9086632295375" lon="11.04084222964102"><ele>204.0</ele><time>2026-05-02T08:09:17Z</time></trkpt><trkpt lat="45.90877211217925" lon="11.04091097373991"><ele>204.0</ele><time>2026-05-02T08:09:18Z</time></trkpt><trkpt lat="45.90889110639036" lon="11.04098593829711"><ele>204.0</ele><time>2026-05-02T08:09:19Z</time></trkpt><trkpt lat="45.909004452340305" lon="11.041045780868046"><ele>204.0</ele><time>2026-05-02T08:09:20Z</time></trkpt><trkpt lat="45.90910621237011" lon="11.04109710261915"><ele>204.0</ele><time>2026-05-02T08:09:21Z</time></trkpt><trkpt lat="45.909198000855504" lon="11.041152228687253"><ele>204.0</ele><time>2026-05-02T08:09:22Z</time></trkpt><trkpt lat="45.909291388315914" lon="11.041204416103708"><ele>204.0</ele><time>2026-05-02T08:09:23Z</time></trkpt><trkpt lat="45.90939674558975" lon="11.0412567215155"><ele>204.0</ele><time>2026-05-02T08:09:24Z</time></trkpt><trkpt lat="45.90950564289117" lon="11.041317287759675"><ele>204.0</ele><time>2026-05-02T08:09:25Z</time></trkpt><trkpt lat="45.90961511988753" lon="11.04138549453621"><ele>204.0</ele><time>2026-05-02T08:09:26Z</time></trkpt><trkpt lat="45.909726879119845" lon="11.04146066393776"><ele>204.0</ele><time>2026-05-02T08:09:27Z</time></trkpt><trkpt lat="45.90983984498689" lon="11.04153871055281"><ele>204.0</ele><time>2026-05-02T08:09:28Z</time></trkpt><trkpt lat="45.9099559899323" lon="11.041612131642205"><ele>204.0</ele><time>2026-05-02T08:09:29Z</time></trkpt><trkpt lat="45.910072924530816" lon="11.04168279059414"><ele>204.0</ele><time>2026-05-02T08:09:30Z</time></trkpt><trkpt lat="45.91018655066553" lon="11.041745476590021"><ele>204.25</ele><time>2026-05-02T08:09:31Z</time></trkpt><trkpt lat="45.91029595111783" lon="11.041791675949971"><ele>204.5</ele><time>2026-05-02T08:09:32Z</time></trkpt><trkpt lat="45.91041336516248" lon="11.041829906897563"><ele>204.75</ele><time>2026-05-02T08:09:33Z</time></trkpt><trkpt lat="45.91054133643214" lon="11.041877184918967"><ele>205.0</ele><time>2026-05-02T08:09:34Z</time></trkpt><trkpt lat="45.91067876990349" lon="11.041934313909989"><ele>205.0</ele><time>2026-05-02T08:09:35Z</time></trkpt><trkpt lat="45.91081215554691" lon="11.042004926860772"><ele>205.0</ele><time>2026-05-02T08:09:36Z</time></trkpt><trkpt lat="45.91094106662786" lon="11.04209361786247"><ele>205.0</ele><time>2026-05-02T08:09:37Z</time></trkpt><trkpt lat="45.911059652464985" lon="11.042191447809495"><ele>205.0</ele><time>2026-05-02T08:09:38Z</time></trkpt><trkpt lat="45.91117633831038" lon="11.042291427418974"><ele>205.0</ele><time>2026-05-02T08:09:39Z</time></trkpt><trkpt lat="45.911288969789126" lon="11.042391125421188"><ele>205.0</ele><time>2026-05-02T08:09:40Z</time></trkpt><trkpt lat="45.91140326698166" lon="11.042497712223245"><ele>205.0</ele><time>2026-05-02T08:09:41Z</time></trkpt><trkpt lat="45.91152275642432" lon="11.042630501335678"><ele>205.0</ele><time>2026-05-02T08:09:42Z</time></trkpt><trkpt lat="45.911640813753216" lon="11.042783215560894"><ele>202.33333333333331</ele><time>2026-05-02T08:09:43Z</time></trkpt><trkpt lat="45.91175540479354" lon="11.042944187710056"><ele>199.66666666666669</ele><time>2026-05-02T08:09:44Z</time></trkpt><trkpt lat="45.911868765597795" lon="11.043117695527128"><ele>197.0</ele><time>2026-05-02T08:09:45Z</time></trkpt><trkpt lat="45.91197532113629" lon="11.043287492618635"><ele>198.0</ele><time>2026-05-02T08:09:46Z</time></trkpt><trkpt lat="45.91207916206033" lon="11.043443519869193"><ele>199.0</ele><time>2026-05-02T08:09:47Z</time></trkpt><trkpt lat="45.912182076249906" lon="11.04357644440799"><ele>200.0</ele><time>2026-05-02T08:09:48Z</time></trkpt><trkpt lat="45.91228779847949" lon="11.043697494389738"><ele>201.0</ele><time>2026-05-02T08:09:49Z</time></trkpt><trkpt lat="45.912399775371696" lon="11.043807111905199"><ele>201.0</ele><time>2026-05-02T08:09:50Z</time></trkpt><trkpt lat="45.91251417898694" lon="11.043902993706107"><ele>201.0</ele><time>2026-05-02T08:09:51Z</time></trkpt><trkpt lat="45.91263056527619" lon="11.043996776630998"><ele>201.0</ele><time>2026-05-02T08:09:52Z</time></trkpt><trkpt lat="45.91273488600325" lon="11.044091373863825"><ele>201.0</ele><time>2026-05-02T08:09:53Z</time></trkpt><trkpt lat="45.91282111059149" lon="11.04419597125064"><ele>201.0</ele><time>2026-05-02T08:09:54Z</time></trkpt><trkpt lat="45.91290635373411" lon="11.044326993945091"><ele>201.0</ele><time>2026-05-02T08:09:55Z</time></trkpt><trkpt lat="45.91299513896776" lon="11.044471060351995"><ele>201.0</ele><time>2026-05-02T08:09:56Z</time></trkpt><trkpt lat="45.91308885964112" lon="11.044616000036125"><ele>201.0</ele><time>2026-05-02T08:09:57Z</time></trkpt><trkpt lat="45.91318405993943" lon="11.044754754332127"><ele>201.0</ele><time>2026-05-02T08:09:58Z</time></trkpt><trkpt lat="45.91328805006835" lon="11.044884292996606"><ele>201.0</ele><time>2026-05-02T08:09:59Z</time></trkpt><trkpt lat="45.91340177442612" lon="11.045021003017627"><ele>201.0</ele><time>2026-05-02T08:10:00Z</time></trkpt><trkpt lat="45.91352522516032" lon="11.045167794845561"><ele>201.0</ele><time>2026-05-02T08:10:01Z</time></trkpt><trkpt lat="45.91365140018977" lon="11.045311732633694"><ele>200.66666666666669</ele><time>2026-05-02T08:10:01.999Z</time></trkpt><trkpt lat="45.91377885869867" lon="11.04544963680335"><ele>200.33333333333334</ele><time>2026-05-02T08:10:02.999Z</time></trkpt><trkpt lat="45.913905979018196" lon="11.045586532308835"><ele>200.0</ele><time>2026-05-02T08:10:03.999Z</time></trkpt><trkpt lat="45.91403508198547" lon="11.04572336268142"><ele>202.0</ele><time>2026-05-02T08:10:04.999Z</time></trkpt><trkpt lat="45.91415463431741" lon="11.045856912372809"><ele>204.0</ele><time>2026-05-02T08:10:05.999Z</time></trkpt><trkpt lat="45.91426921561017" lon="11.045995436144096"><ele>206.0</ele><time>2026-05-02T08:10:06.999Z</time></trkpt><trkpt lat="45.91437789929834" lon="11.046143004395109"><ele>203.0</ele><time>2026-05-02T08:10:07.999Z</time></trkpt><trkpt lat="45.91447306486108" lon="11.046306468646925"><ele>200.0</ele><time>2026-05-02T08:10:08.999Z</time></trkpt><trkpt lat="45.91455471225706" lon="11.046481012352606"><ele>197.0</ele><time>2026-05-02T08:10:09.999Z</time></trkpt><trkpt lat="45.914627768580814" lon="11.046670264750993"><ele>194.0</ele><time>2026-05-02T08:10:10.999Z</time></trkpt><trkpt lat="45.914693766524536" lon="11.046858504151723"><ele>194.0</ele><time>2026-05-02T08:10:11.999Z</time></trkpt><trkpt lat="45.91475714661267" lon="11.047033147702333"><ele>194.0</ele><time>2026-05-02T08:10:12.999Z</time></trkpt><trkpt lat="45.914825135254524" lon="11.047224167501396"><ele>194.0</ele><time>2026-05-02T08:10:13.999Z</time></trkpt><trkpt lat="45.91490131786046" lon="11.047406876854273"><ele>194.0</ele><time>2026-05-02T08:10:14.999Z</time></trkpt><trkpt lat="45.91498674255874" lon="11.047579390210567"><ele>192.25</ele><time>2026-05-02T08:10:15.999Z</time></trkpt><trkpt lat="45.915078247177746" lon="11.047746951693432"><ele>190.5</ele><time>2026-05-02T08:10:16.999Z</time></trkpt><trkpt lat="45.91517699985835" lon="11.04790411515647"><ele>188.75</ele><time>2026-05-02T08:10:17.999Z</time></trkpt><trkpt lat="45.91528477900527" lon="11.048050313466161"><ele>187.0</ele><time>2026-05-02T08:10:18.999Z</time></trkpt><trkpt lat="45.91539521031674" lon="11.048187440023616"><ele>189.0</ele><time>2026-05-02T08:10:19.999Z</time></trkpt><trkpt lat="45.91550821561984" lon="11.048319863305569"><ele>191.0</ele><time>2026-05-02T08:10:20.999Z</time></trkpt><trkpt lat="45.915619970189816" lon="11.048443144163079"><ele>193.0</ele><time>2026-05-02T08:10:21.999Z</time></trkpt><trkpt lat="45.915725158666376" lon="11.04856449371111"><ele>195.0</ele><time>2026-05-02T08:10:22.999Z</time></trkpt><trkpt lat="45.91582344337274" lon="11.048684150562316"><ele>193.0</ele><time>2026-05-02T08:10:23.999Z</time></trkpt><trkpt lat="45.915914503860094" lon="11.048800477051916"><ele>191.0</ele><time>2026-05-02T08:10:24.999Z</time></trkpt><trkpt lat="45.91600213588752" lon="11.048918997207695"><ele>189.0</ele><time>2026-05-02T08:10:25.999Z</time></trkpt><trkpt lat="45.91608394597455" lon="11.049045495325762"><ele>187.0</ele><time>2026-05-02T08:10:26.999Z</time></trkpt><trkpt lat="45.916152878366745" lon="11.049180880931559"><ele>187.0</ele><time>2026-05-02T08:10:27.999Z</time></trkpt><trkpt lat="45.91622062488958" lon="11.04932627477713"><ele>187.0</ele><time>2026-05-02T08:10:28.999Z</time></trkpt><trkpt lat="45.916283540754975" lon="11.049483443809569"><ele>187.0</ele><time>2026-05-02T08:10:29.999Z</time></trkpt><trkpt lat="45.91634007497522" lon="11.049651573981931"><ele>187.0</ele><time>2026-05-02T08:10:30.999Z</time></trkpt><trkpt lat="45.916392247276825" lon="11.04983478400574"><ele>187.66666666666669</ele><time>2026-05-02T08:10:31.999Z</time></trkpt><trkpt lat="45.91643777951005" lon="11.05003374115645"><ele>188.33333333333334</ele><time>2026-05-02T08:10:32.999Z</time></trkpt><trkpt lat="45.91647511118035" lon="11.050242431643436"><ele>189.0</ele><time>2026-05-02T08:10:33.999Z</time></trkpt><trkpt lat="45.916498159479495" lon="11.050462785669335"><ele>189.0</ele><time>2026-05-02T08:10:34.999Z</time></trkpt><trkpt lat="45.916522109146165" lon="11.050688905441808"><ele>189.0</ele><time>2026-05-02T08:10:35.999Z</time></trkpt><trkpt lat="45.91655197321473" lon="11.050919888987007"><ele>189.0</ele><time>2026-05-02T08:10:36.999Z</time></trkpt><trkpt lat="45.91659274401209" lon="11.051148239640558"><ele>189.25</ele><time>2026-05-02T08:10:37.999Z</time></trkpt><trkpt lat="45.91664272924778" lon="11.051367357108328"><ele>189.5</ele><time>2026-05-02T08:10:38.999Z</time></trkpt><trkpt lat="45.91669378352079" lon="11.051552859878432"><ele>189.75</ele><time>2026-05-02T08:10:39.999Z</time></trkpt><trkpt lat="45.9167451413764" lon="11.051710956590043"><ele>190.0</ele><time>2026-05-02T08:10:40.999Z</time></trkpt><trkpt lat="45.91678951655235" lon="11.051861166523446"><ele>188.5</ele><time>2026-05-02T08:10:41.999Z</time></trkpt><trkpt lat="45.91683487477101" lon="11.052026237417438"><ele>187.0</ele><time>2026-05-02T08:10:42.999Z</time></trkpt><trkpt lat="45.91687549409407" lon="11.052192873412572"><ele>185.5</ele><time>2026-05-02T08:10:43.999Z</time></trkpt><trkpt lat="45.91690819654999" lon="11.05234792312161"><ele>184.0</ele><time>2026-05-02T08:10:44.999Z</time></trkpt><trkpt lat="45.91693743947565" lon="11.05249407557677"><ele>184.0</ele><time>2026-05-02T08:10:45.999Z</time></trkpt><trkpt lat="45.9169653959027" lon="11.052634268171339"><ele>184.0</ele><time>2026-05-02T08:10:46.999Z</time></trkpt><trkpt lat="45.916987924335764" lon="11.052773097487405"><ele>184.0</ele><time>2026-05-02T08:10:47.999Z</time></trkpt><trkpt lat="45.9170051737722" lon="11.052920927633032"><ele>184.0</ele><time>2026-05-02T08:10:48.999Z</time></trkpt><trkpt lat="45.91702134946269" lon="11.053074816808223"><ele>184.0</ele><time>2026-05-02T08:10:49.999Z</time></trkpt><trkpt lat="45.9170347389454" lon="11.053229248424303"><ele>184.39999999999998</ele><time>2026-05-02T08:10:50.999Z</time></trkpt><trkpt lat="45.91704846021927" lon="11.05338553373363"><ele>184.8</ele><time>2026-05-02T08:10:51.999Z</time></trkpt><trkpt lat="45.91705956185363" lon="11.053543234024868"><ele>185.2</ele><time>2026-05-02T08:10:52.999Z</time></trkpt><trkpt lat="45.917068445272356" lon="11.05370193417078"><ele>185.60000000000002</ele><time>2026-05-02T08:10:53.999Z</time></trkpt><trkpt lat="45.91707874791849" lon="11.053861976287436"><ele>186.0</ele><time>2026-05-02T08:10:54.999Z</time></trkpt><trkpt lat="45.91709021193874" lon="11.054023396600542"><ele>185.75</ele><time>2026-05-02T08:10:55.999Z</time></trkpt><trkpt lat="45.917102339725595" lon="11.054187792504125"><ele>185.5</ele><time>2026-05-02T08:10:56.999Z</time></trkpt><trkpt lat="45.91711218467888" lon="11.054354706159335"><ele>185.25</ele><time>2026-05-02T08:10:57.999Z</time></trkpt><trkpt lat="45.91712443784821" lon="11.054522964378489"><ele>185.0</ele><time>2026-05-02T08:10:58.999Z</time></trkpt><trkpt lat="45.9171357418385" lon="11.054693044130952"><ele>185.0</ele><time>2026-05-02T08:10:59.999Z</time></trkpt><trkpt lat="45.91714633131459" lon="11.054864378859218"><ele>185.0</ele><time>2026-05-02T08:11:00.999Z</time></trkpt><trkpt lat="45.91715925357209" lon="11.0550392056362"><ele>185.0</ele><time>2026-05-02T08:11:01.999Z</time></trkpt><trkpt lat="45.917171670682016" lon="11.055220359438144"><ele>185.0</ele><time>2026-05-02T08:11:02.999Z</time></trkpt><trkpt lat="45.91718135564692" lon="11.05540113648409"><ele>185.0</ele><time>2026-05-02T08:11:03.999Z</time></trkpt><trkpt lat="45.917191510428836" lon="11.055583154096757"><ele>185.0</ele><time>2026-05-02T08:11:04.999Z</time></trkpt><trkpt lat="45.917206290297884" lon="11.05576819981811"><ele>185.0</ele><time>2026-05-02T08:11:05.999Z</time></trkpt><trkpt lat="45.91721641921389" lon="11.055951559293733"><ele>185.0</ele><time>2026-05-02T08:11:06.999Z</time></trkpt><trkpt lat="45.917223920637525" lon="11.056133809969014"><ele>185.0</ele><time>2026-05-02T08:11:07.999Z</time></trkpt><trkpt lat="45.91723520353361" lon="11.056316186363453"><ele>185.0</ele><time>2026-05-02T08:11:08.999Z</time></trkpt><trkpt lat="45.91724608870004" lon="11.056497797252264"><ele>185.0</ele><time>2026-05-02T08:11:09.999Z</time></trkpt><trkpt lat="45.91725678981918" lon="11.056682251633962"><ele>185.0</ele><time>2026-05-02T08:11:10.999Z</time></trkpt><trkpt lat="45.917266312368646" lon="11.056871835494812"><ele>185.0</ele><time>2026-05-02T08:11:11.999Z</time></trkpt><trkpt lat="45.91727099338432" lon="11.057064057073651"><ele>185.0</ele><time>2026-05-02T08:11:12.999Z</time></trkpt><trkpt lat="45.917270518168266" lon="11.057258972404648"><ele>185.0</ele><time>2026-05-02T08:11:13.999Z</time></trkpt><trkpt lat="45.91726689865373" lon="11.057465913288778"><ele>185.0</ele><time>2026-05-02T08:11:14.999Z</time></trkpt><trkpt lat="45.917269019668105" lon="11.057665803044642"><ele>184.75</ele><time>2026-05-02T08:11:15.999Z</time></trkpt><trkpt lat="45.91727041430706" lon="11.057875251173241"><ele>184.5</ele><time>2026-05-02T08:11:16.999Z</time></trkpt><trkpt lat="45.917271129813344" lon="11.05808755916605"><ele>184.25</ele><time>2026-05-02T08:11:18Z</time></trkpt><trkpt lat="45.91727037396372" lon="11.058302477666771"><ele>184.0</ele><time>2026-05-02T08:11:19Z</time></trkpt><trkpt lat="45.91726931733587" lon="11.05851682082153"><ele>184.75</ele><time>2026-05-02T08:11:20Z</time></trkpt><trkpt lat="45.917267594969275" lon="11.05873116355438"><ele>185.5</ele><time>2026-05-02T08:11:21Z</time></trkpt><trkpt lat="45.9172677239367" lon="11.058944496769051"><ele>186.25</ele><time>2026-05-02T08:11:22Z</time></trkpt><trkpt lat="45.91727087973684" lon="11.059156850645486"><ele>187.0</ele><time>2026-05-02T08:11:23Z</time></trkpt><trkpt lat="45.91727453532278" lon="11.059370362330625"><ele>187.0</ele><time>2026-05-02T08:11:24Z</time></trkpt><trkpt lat="45.917275924906164" lon="11.059584133158417"><ele>187.0</ele><time>2026-05-02T08:11:25Z</time></trkpt><trkpt lat="45.917276836518546" lon="11.0597960121011"><ele>187.0</ele><time>2026-05-02T08:11:26Z</time></trkpt><trkpt lat="45.917279662600464" lon="11.060008898622216"><ele>187.0</ele><time>2026-05-02T08:11:27Z</time></trkpt><trkpt lat="45.91728274479706" lon="11.06022148238696"><ele>186.75</ele><time>2026-05-02T08:11:28Z</time></trkpt><trkpt lat="45.917287792637076" lon="11.060432431917734"><ele>186.5</ele><time>2026-05-02T08:11:29Z</time></trkpt><trkpt lat="45.91729646692855" lon="11.060643844043735"><ele>186.25</ele><time>2026-05-02T08:11:30Z</time></trkpt><trkpt lat="45.91730909407688" lon="11.060859657680007"><ele>186.0</ele><time>2026-05-02T08:11:31Z</time></trkpt><trkpt lat="45.91732678419571" lon="11.061058978726326"><ele>186.0</ele><time>2026-05-02T08:11:32Z</time></trkpt><trkpt lat="45.91734510056731" lon="11.061245179062826"><ele>186.0</ele><time>2026-05-02T08:11:33Z</time></trkpt><trkpt lat="45.91736964687871" lon="11.061427736701281"><ele>186.0</ele><time>2026-05-02T08:11:34Z</time></trkpt><trkpt lat="45.917398129881455" lon="11.061603137948952"><ele>186.0</ele><time>2026-05-02T08:11:35Z</time></trkpt><trkpt lat="45.9174300363804" lon="11.061779574343861"><ele>186.0</ele><time>2026-05-02T08:11:36Z</time></trkpt><trkpt lat="45.91746459982401" lon="11.061960867782368"><ele>186.0</ele><time>2026-05-02T08:11:37Z</time></trkpt><trkpt lat="45.917502917099924" lon="11.062145827509747"><ele>186.0</ele><time>2026-05-02T08:11:38Z</time></trkpt><trkpt lat="45.91754495079906" lon="11.062338614706082"><ele>186.0</ele><time>2026-05-02T08:11:39Z</time></trkpt><trkpt lat="45.917595415969515" lon="11.062539711270777"><ele>185.33333333333334</ele><time>2026-05-02T08:11:40Z</time></trkpt><trkpt lat="45.91765004457766" lon="11.062754719309366"><ele>184.66666666666669</ele><time>2026-05-02T08:11:41Z</time></trkpt><trkpt lat="45.917702954237605" lon="11.062973393041625"><ele>184.0</ele><time>2026-05-02T08:11:42Z</time></trkpt><trkpt lat="45.91774800875151" lon="11.06319054694313"><ele>184.0</ele><time>2026-05-02T08:11:43Z</time></trkpt><trkpt lat="45.91778546753454" lon="11.063394476979552"><ele>184.0</ele><time>2026-05-02T08:11:44Z</time></trkpt><trkpt lat="45.91781911600397" lon="11.063588153666863"><ele>184.0</ele><time>2026-05-02T08:11:45Z</time></trkpt><trkpt lat="45.917844494744166" lon="11.063772353154484"><ele>184.0</ele><time>2026-05-02T08:11:46Z</time></trkpt><trkpt lat="45.917864510766954" lon="11.063959655284826"><ele>183.75</ele><time>2026-05-02T08:11:47Z</time></trkpt><trkpt lat="45.91788134046436" lon="11.064156105502239"><ele>183.5</ele><time>2026-05-02T08:11:48Z</time></trkpt><trkpt lat="45.917898230527754" lon="11.06435788962026"><ele>183.25</ele><time>2026-05-02T08:11:49Z</time></trkpt><trkpt lat="45.91791172089957" lon="11.064567787001911"><ele>183.0</ele><time>2026-05-02T08:11:50Z</time></trkpt><trkpt lat="45.917909650673735" lon="11.064781970988278"><ele>183.33333333333334</ele><time>2026-05-02T08:11:51Z</time></trkpt><trkpt lat="45.91794027330755" lon="11.064993483266676"><ele>183.66666666666669</ele><time>2026-05-02T08:11:52Z</time></trkpt><trkpt lat="45.91795575593568" lon="11.065208142219005"><ele>184.0</ele><time>2026-05-02T08:11:53Z</time></trkpt><trkpt lat="45.917977224172596" lon="11.065423192186989"><ele>184.0</ele><time>2026-05-02T08:11:54Z</time></trkpt><trkpt lat="45.9179953924922" lon="11.065640855354216"><ele>184.0</ele><time>2026-05-02T08:11:55Z</time></trkpt><trkpt lat="45.91801331715827" lon="11.065858372395374"><ele>184.0</ele><time>2026-05-02T08:11:56Z</time></trkpt><trkpt lat="45.9180239023036" lon="11.066076967492075"><ele>183.75</ele><time>2026-05-02T08:11:57Z</time></trkpt><trkpt lat="45.91802836830301" lon="11.066294128910222"><ele>183.5</ele><time>2026-05-02T08:11:58Z</time></trkpt><trkpt lat="45.91802742104755" lon="11.066506283325596"><ele>183.25</ele><time>2026-05-02T08:11:59Z</time></trkpt><trkpt lat="45.918017704236604" lon="11.066713368533003"><ele>183.0</ele><time>2026-05-02T08:12:00Z</time></trkpt><trkpt lat="45.91799607293636" lon="11.066914990104351"><ele>182.0</ele><time>2026-05-02T08:12:01Z</time></trkpt><trkpt lat="45.91794659771652" lon="11.067106741162245"><ele>181.0</ele><time>2026-05-02T08:12:02Z</time></trkpt><trkpt lat="45.91790920072242" lon="11.067299292343458"><ele>180.0</ele><time>2026-05-02T08:12:03Z</time></trkpt><trkpt lat="45.91788623480768" lon="11.067503237407285"><ele>179.0</ele><time>2026-05-02T08:12:04Z</time></trkpt><trkpt lat="45.917849649207305" lon="11.067692658964198"><ele>178.75</ele><time>2026-05-02T08:12:05Z</time></trkpt><trkpt lat="45.91781385105821" lon="11.067875892212621"><ele>178.5</ele><time>2026-05-02T08:12:06Z</time></trkpt><trkpt lat="45.917777752807794" lon="11.068063057884402"><ele>178.25</ele><time>2026-05-02T08:12:07Z</time></trkpt><trkpt lat="45.91774169840122" lon="11.068249402169263"><ele>178.0</ele><time>2026-05-02T08:12:08Z</time></trkpt><trkpt lat="45.91770463119365" lon="11.068438502294706"><ele>177.5</ele><time>2026-05-02T08:12:09Z</time></trkpt><trkpt lat="45.91766890962634" lon="11.068627530247376"><ele>177.0</ele><time>2026-05-02T08:12:10Z</time></trkpt><trkpt lat="45.917632707863085" lon="11.068816091773952"><ele>176.5</ele><time>2026-05-02T08:12:11Z</time></trkpt><trkpt lat="45.91759417622556" lon="11.06900482704546"><ele>176.0</ele><time>2026-05-02T08:12:12Z</time></trkpt><trkpt lat="45.91755620143132" lon="11.069195438163025"><ele>176.0</ele><time>2026-05-02T08:12:13Z</time></trkpt><trkpt lat="45.91752011082301" lon="11.06938731460776"><ele>176.0</ele><time>2026-05-02T08:12:14Z</time></trkpt><trkpt lat="45.91748295159166" lon="11.069579771286792"><ele>176.0</ele><time>2026-05-02T08:12:14.999Z</time></trkpt><trkpt lat="45.91744392856257" lon="11.06977455187797"><ele>176.0</ele><time>2026-05-02T08:12:15.999Z</time></trkpt><trkpt lat="45.91740396728564" lon="11.069972019351678"><ele>175.33333333333331</ele><time>2026-05-02T08:12:16.999Z</time></trkpt><trkpt lat="45.91736638339207" lon="11.070177274488492"><ele>174.66666666666666</ele><time>2026-05-02T08:12:17.999Z</time></trkpt><trkpt lat="45.91732896105271" lon="11.070389264701202"><ele>174.0</ele><time>2026-05-02T08:12:18.999Z</time></trkpt><trkpt lat="45.917287432056874" lon="11.07060351441368"><ele>174.0</ele><time>2026-05-02T08:12:19.999Z</time></trkpt><trkpt lat="45.917249779278066" lon="11.070821183027107"><ele>174.0</ele><time>2026-05-02T08:12:20.999Z</time></trkpt><trkpt lat="45.91721733973853" lon="11.07104374567174"><ele>174.0</ele><time>2026-05-02T08:12:21.999Z</time></trkpt><trkpt lat="45.9171706950433" lon="11.071266453801103"><ele>174.0</ele><time>2026-05-02T08:12:22.999Z</time></trkpt><trkpt lat="45.91714721363614" lon="11.07149324792888"><ele>174.0</ele><time>2026-05-02T08:12:23.999Z</time></trkpt><trkpt lat="45.91713936994125" lon="11.071724534132338"><ele>174.0</ele><time>2026-05-02T08:12:24.999Z</time></trkpt><trkpt lat="45.91713628039374" lon="11.071940750292363"><ele>174.0</ele><time>2026-05-02T08:12:25.999Z</time></trkpt><trkpt lat="45.917132945399764" lon="11.072153021518062"><ele>174.0</ele><time>2026-05-02T08:12:26.999Z</time></trkpt><trkpt lat="45.917131598287696" lon="11.072366586883"><ele>174.0</ele><time>2026-05-02T08:12:27.999Z</time></trkpt><trkpt lat="45.91713035626286" lon="11.072581067667112"><ele>174.0</ele><time>2026-05-02T08:12:28.999Z</time></trkpt><trkpt lat="45.917131336369195" lon="11.07279294228659"><ele>174.0</ele><time>2026-05-02T08:12:29.999Z</time></trkpt><trkpt lat="45.917154581094614" lon="11.073003970871065"><ele>174.0</ele><time>2026-05-02T08:12:30.999Z</time></trkpt><trkpt lat="45.91718248687941" lon="11.073206802101533"><ele>174.0</ele><time>2026-05-02T08:12:31.999Z</time></trkpt><trkpt lat="45.91722345941556" lon="11.07339606665399"><ele>174.0</ele><time>2026-05-02T08:12:32.999Z</time></trkpt><trkpt lat="45.91727953012285" lon="11.073571605882233"><ele>174.25</ele><time>2026-05-02T08:12:33.999Z</time></trkpt><trkpt lat="45.91734451094819" lon="11.073740878080233"><ele>174.5</ele><time>2026-05-02T08:12:34.999Z</time></trkpt><trkpt lat="45.91741734286812" lon="11.073909394989194"><ele>174.75</ele><time>2026-05-02T08:12:35.999Z</time></trkpt><trkpt lat="45.91749679296319" lon="11.074071365611609"><ele>175.0</ele><time>2026-05-02T08:12:36.999Z</time></trkpt><trkpt lat="45.91757829401017" lon="11.074225282834366"><ele>174.5</ele><time>2026-05-02T08:12:37.999Z</time></trkpt><trkpt lat="45.91765437405741" lon="11.074382471297131"><ele>174.0</ele><time>2026-05-02T08:12:38.999Z</time></trkpt><trkpt lat="45.91772910086313" lon="11.074540120140746"><ele>173.5</ele><time>2026-05-02T08:12:39.999Z</time></trkpt><trkpt lat="45.91779394427333" lon="11.074693834591187"><ele>173.0</ele><time>2026-05-02T08:12:40.999Z</time></trkpt><trkpt lat="45.91783042799164" lon="11.074859499203548"><ele>173.5</ele><time>2026-05-02T08:12:41.999Z</time></trkpt><trkpt lat="45.91788942768725" lon="11.075011148687732"><ele>174.0</ele><time>2026-05-02T08:12:42.999Z</time></trkpt><trkpt lat="45.91792252619534" lon="11.075173754007702"><ele>174.5</ele><time>2026-05-02T08:12:43.999Z</time></trkpt><trkpt lat="45.91794952280015" lon="11.07533829584298"><ele>175.0</ele><time>2026-05-02T08:12:44.999Z</time></trkpt><trkpt lat="45.917975023774545" lon="11.075508544997033"><ele>175.0</ele><time>2026-05-02T08:12:45.999Z</time></trkpt><trkpt lat="45.91799906418445" lon="11.075693444383974"><ele>175.0</ele><time>2026-05-02T08:12:46.999Z</time></trkpt><trkpt lat="45.918017243604815" lon="11.075892102818976"><ele>175.0</ele><time>2026-05-02T08:12:47.999Z</time></trkpt><trkpt lat="45.918030070898695" lon="11.076103187423655"><ele>175.0</ele><time>2026-05-02T08:12:48.999Z</time></trkpt><trkpt lat="45.91803693855197" lon="11.076330760035432"><ele>175.0</ele><time>2026-05-02T08:12:49.999Z</time></trkpt><trkpt lat="45.91803347871026" lon="11.0765721586273"><ele>175.0</ele><time>2026-05-02T08:12:50.999Z</time></trkpt><trkpt lat="45.9180277356939" lon="11.076819686343757"><ele>175.0</ele><time>2026-05-02T08:12:51.999Z</time></trkpt><trkpt lat="45.918021037745405" lon="11.077072700705356"><ele>175.0</ele><time>2026-05-02T08:12:52.999Z</time></trkpt><trkpt lat="45.9180175236347" lon="11.077318179157693"><ele>175.0</ele><time>2026-05-02T08:12:53.999Z</time></trkpt><trkpt lat="45.91801139959912" lon="11.077552660003718"><ele>175.0</ele><time>2026-05-02T08:12:54.999Z</time></trkpt><trkpt lat="45.91800220869214" lon="11.077781351128655"><ele>175.0</ele><time>2026-05-02T08:12:55.999Z</time></trkpt><trkpt lat="45.9179911391099" lon="11.078009555179188"><ele>175.0</ele><time>2026-05-02T08:12:56.999Z</time></trkpt><trkpt lat="45.91798480881869" lon="11.078239354468792"><ele>175.0</ele><time>2026-05-02T08:12:57.999Z</time></trkpt><trkpt lat="45.917978581002146" lon="11.0784495894219"><ele>175.25</ele><time>2026-05-02T08:12:58.999Z</time></trkpt><trkpt lat="45.917970142266924" lon="11.078645703073061"><ele>175.5</ele><time>2026-05-02T08:12:59.999Z</time></trkpt><trkpt lat="45.91796633063412" lon="11.078832151139824"><ele>175.75</ele><time>2026-05-02T08:13:00.999Z</time></trkpt><trkpt lat="45.917971712913456" lon="11.079017536429577"><ele>176.0</ele><time>2026-05-02T08:13:01.999Z</time></trkpt><trkpt lat="45.91798825546035" lon="11.079217774678218"><ele>176.66666666666666</ele><time>2026-05-02T08:13:02.999Z</time></trkpt><trkpt lat="45.91799940440824" lon="11.079440810178271"><ele>177.33333333333334</ele><time>2026-05-02T08:13:03.999Z</time></trkpt><trkpt lat="45.91803676572657" lon="11.079672880624607"><ele>178.0</ele><time>2026-05-02T08:13:04.999Z</time></trkpt><trkpt lat="45.918098998667205" lon="11.079905909443884"><ele>178.0</ele><time>2026-05-02T08:13:05.999Z</time></trkpt><trkpt lat="45.91815779883938" lon="11.080150309529436"><ele>178.0</ele><time>2026-05-02T08:13:06.999Z</time></trkpt><trkpt lat="45.91822799534729" lon="11.080393932112086"><ele>178.0</ele><time>2026-05-02T08:13:07.999Z</time></trkpt><trkpt lat="45.9183027857851" lon="11.080638610638745"><ele>177.66666666666669</ele><time>2026-05-02T08:13:08.999Z</time></trkpt><trkpt lat="45.91838221885079" lon="11.080889693005052"><ele>177.33333333333334</ele><time>2026-05-02T08:13:09.999Z</time></trkpt><trkpt lat="45.91845931054127" lon="11.081132940094806"><ele>177.0</ele><time>2026-05-02T08:13:10.999Z</time></trkpt><trkpt lat="45.91852736955137" lon="11.081359575103898"><ele>177.0</ele><time>2026-05-02T08:13:11.999Z</time></trkpt><trkpt lat="45.91858790355253" lon="11.081558830844543"><ele>177.0</ele><time>2026-05-02T08:13:12.999Z</time></trkpt><trkpt lat="45.91864508792746" lon="11.081738379817834"><ele>177.0</ele><time>2026-05-02T08:13:13.999Z</time></trkpt><trkpt lat="45.91870321351528" lon="11.081920039554143"><ele>177.0</ele><time>2026-05-02T08:13:14.999Z</time></trkpt><trkpt lat="45.918757112566524" lon="11.082096730733511"><ele>176.33333333333334</ele><time>2026-05-02T08:13:15.999Z</time></trkpt><trkpt lat="45.91881554894761" lon="11.08228820536211"><ele>175.66666666666669</ele><time>2026-05-02T08:13:16.999Z</time></trkpt><trkpt lat="45.91888101103419" lon="11.082500347446098"><ele>175.0</ele><time>2026-05-02T08:13:17.999Z</time></trkpt><trkpt lat="45.9189512896398" lon="11.082722106805377"><ele>175.0</ele><time>2026-05-02T08:13:18.999Z</time></trkpt><trkpt lat="45.91902292637878" lon="11.08294044461619"><ele>175.0</ele><time>2026-05-02T08:13:19.999Z</time></trkpt><trkpt lat="45.91907880828032" lon="11.083179915618816"><ele>175.0</ele><time>2026-05-02T08:13:20.999Z</time></trkpt><trkpt lat="45.91914286927431" lon="11.083423703010938"><ele>175.33333333333334</ele><time>2026-05-02T08:13:21.999Z</time></trkpt><trkpt lat="45.91918809925644" lon="11.08368310536899"><ele>175.66666666666666</ele><time>2026-05-02T08:13:23Z</time></trkpt><trkpt lat="45.91922677255181" lon="11.083961453400676"><ele>176.0</ele><time>2026-05-02T08:13:24Z</time></trkpt><trkpt lat="45.919278817283875" lon="11.084239626788666"><ele>176.0</ele><time>2026-05-02T08:13:25Z</time></trkpt><trkpt lat="45.91931848088733" lon="11.084520528341692"><ele>176.0</ele><time>2026-05-02T08:13:26Z</time></trkpt><trkpt lat="45.919358603744676" lon="11.08479989092181"><ele>176.0</ele><time>2026-05-02T08:13:27Z</time></trkpt><trkpt lat="45.919399050081736" lon="11.085077726937389"><ele>176.0</ele><time>2026-05-02T08:13:28Z</time></trkpt><trkpt lat="45.9194376357548" lon="11.08535708613255"><ele>176.0</ele><time>2026-05-02T08:13:29Z</time></trkpt><trkpt lat="45.91947656925719" lon="11.085634490744852"><ele>176.0</ele><time>2026-05-02T08:13:30Z</time></trkpt><trkpt lat="45.91951353505323" lon="11.085904720159848"><ele>175.66666666666666</ele><time>2026-05-02T08:13:31Z</time></trkpt><trkpt lat="45.91955064815275" lon="11.086167708346588"><ele>175.33333333333334</ele><time>2026-05-02T08:13:32Z</time></trkpt><trkpt lat="45.91957305751174" lon="11.086430901605363"><ele>175.0</ele><time>2026-05-02T08:13:33Z</time></trkpt><trkpt lat="45.91961738627367" lon="11.08668049507253"><ele>175.0</ele><time>2026-05-02T08:13:34Z</time></trkpt><trkpt lat="45.91967090013018" lon="11.08692429418254"><ele>175.0</ele><time>2026-05-02T08:13:35Z</time></trkpt><trkpt lat="45.91974359608119" lon="11.087145361517743"><ele>175.0</ele><time>2026-05-02T08:13:36Z</time></trkpt><trkpt lat="45.9198028378866" lon="11.087357535118473"><ele>175.66666666666669</ele><time>2026-05-02T08:13:37Z</time></trkpt><trkpt lat="45.919873577906465" lon="11.087570379781202"><ele>176.33333333333334</ele><time>2026-05-02T08:13:38Z</time></trkpt><trkpt lat="45.91995038563756" lon="11.08778472080606"><ele>177.0</ele><time>2026-05-02T08:13:39Z</time></trkpt><trkpt lat="45.92002139536853" lon="11.087990164811881"><ele>176.5</ele><time>2026-05-02T08:13:40Z</time></trkpt><trkpt lat="45.920088911237464" lon="11.088189367684329"><ele>176.0</ele><time>2026-05-02T08:13:41Z</time></trkpt><trkpt lat="45.920155808414464" lon="11.08838346632542"><ele>175.5</ele><time>2026-05-02T08:13:42Z</time></trkpt><trkpt lat="45.920219875636306" lon="11.088566764111437"><ele>175.0</ele><time>2026-05-02T08:13:43Z</time></trkpt><trkpt lat="45.920292769185764" lon="11.088751181564358"><ele>175.0</ele><time>2026-05-02T08:13:44Z</time></trkpt><trkpt lat="45.92036664993764" lon="11.08895563106382"><ele>175.0</ele><time>2026-05-02T08:13:45Z</time></trkpt><trkpt lat="45.92046396686053" lon="11.089158630090006"><ele>175.0</ele><time>2026-05-02T08:13:46Z</time></trkpt><trkpt lat="45.92057915746621" lon="11.089350597445904"><ele>175.66666666666669</ele><time>2026-05-02T08:13:47Z</time></trkpt><trkpt lat="45.92066610057372" lon="11.089569065073745"><ele>176.33333333333334</ele><time>2026-05-02T08:13:48Z</time></trkpt><trkpt lat="45.92076584364264" lon="11.089772348212355"><ele>177.0</ele><time>2026-05-02T08:13:49Z</time></trkpt><trkpt lat="45.920865867350635" lon="11.089976203314203"><ele>176.33333333333334</ele><time>2026-05-02T08:13:50Z</time></trkpt><trkpt lat="45.920966283604166" lon="11.090174842717577"><ele>175.66666666666669</ele><time>2026-05-02T08:13:51Z</time></trkpt><trkpt lat="45.92107406870194" lon="11.090369803645553"><ele>175.0</ele><time>2026-05-02T08:13:52Z</time></trkpt><trkpt lat="45.92117642933353" lon="11.090538486209152"><ele>175.0</ele><time>2026-05-02T08:13:53Z</time></trkpt><trkpt lat="45.9212772660406" lon="11.090691240817561"><ele>175.0</ele><time>2026-05-02T08:13:54Z</time></trkpt><trkpt lat="45.92138867105944" lon="11.09081861380542"><ele>175.0</ele><time>2026-05-02T08:13:55Z</time></trkpt><trkpt lat="45.921481203817834" lon="11.090976607498712"><ele>175.0</ele><time>2026-05-02T08:13:56Z</time></trkpt><trkpt lat="45.92158524084227" lon="11.091117687607575"><ele>175.33333333333334</ele><time>2026-05-02T08:13:57Z</time></trkpt><trkpt lat="45.921711415737896" lon="11.091278784743695"><ele>175.66666666666666</ele><time>2026-05-02T08:13:58Z</time></trkpt><trkpt lat="45.921858267527405" lon="11.091457739941573"><ele>176.0</ele><time>2026-05-02T08:13:59Z</time></trkpt><trkpt lat="45.92198553230691" lon="11.091603683836489"><ele>179.0</ele><time>2026-05-02T08:14:00Z</time></trkpt><trkpt lat="45.92213037174696" lon="11.091752229985023"><ele>182.0</ele><time>2026-05-02T08:14:01Z</time></trkpt><trkpt lat="45.92230673189286" lon="11.091919753592526"><ele>185.0</ele><time>2026-05-02T08:14:02Z</time></trkpt><trkpt lat="45.922503726143304" lon="11.09205876102217"><ele>186.33333333333331</ele><time>2026-05-02T08:14:03Z</time></trkpt><trkpt lat="45.92270200413968" lon="11.09220929236096"><ele>187.66666666666666</ele><time>2026-05-02T08:14:04Z</time></trkpt><trkpt lat="45.92290286452754" lon="11.09233808946954"><ele>189.0</ele><time>2026-05-02T08:14:05Z</time></trkpt><trkpt lat="45.92308743809383" lon="11.092441646786467"><ele>189.0</ele><time>2026-05-02T08:14:06Z</time></trkpt><trkpt lat="45.923272080728296" lon="11.092531834489112"><ele>189.0</ele><time>2026-05-02T08:14:07Z</time></trkpt><trkpt lat="45.92344832829925" lon="11.092599647687207"><ele>189.0</ele><time>2026-05-02T08:14:08Z</time></trkpt><trkpt lat="45.92361245941338" lon="11.092655668827499"><ele>187.75</ele><time>2026-05-02T08:14:09Z</time></trkpt><trkpt lat="45.92376458449507" lon="11.092703433929634"><ele>186.5</ele><time>2026-05-02T08:14:10Z</time></trkpt><trkpt lat="45.92389685643727" lon="11.092742217882792"><ele>185.25</ele><time>2026-05-02T08:14:11Z</time></trkpt><trkpt lat="45.92402083853984" lon="11.092778215957159"><ele>184.0</ele><time>2026-05-02T08:14:12Z</time></trkpt><trkpt lat="45.9241466731156" lon="11.092812946414094"><ele>183.0</ele><time>2026-05-02T08:14:13Z</time></trkpt><trkpt lat="45.92427023040762" lon="11.092847189795613"><ele>182.0</ele><time>2026-05-02T08:14:14Z</time></trkpt><trkpt lat="45.92440203688385" lon="11.092883233312632"><ele>181.0</ele><time>2026-05-02T08:14:15Z</time></trkpt><trkpt lat="45.92454135068492" lon="11.09291803393328"><ele>180.0</ele><time>2026-05-02T08:14:16Z</time></trkpt><trkpt lat="45.924692002721166" lon="11.092954751674542"><ele>180.0</ele><time>2026-05-02T08:14:17Z</time></trkpt><trkpt lat="45.92483687573181" lon="11.092993039572308"><ele>180.0</ele><time>2026-05-02T08:14:18Z</time></trkpt><trkpt lat="45.92497913009025" lon="11.093029137175188"><ele>180.0</ele><time>2026-05-02T08:14:19Z</time></trkpt><trkpt lat="45.92511929620149" lon="11.093063139335442"><ele>180.0</ele><time>2026-05-02T08:14:20Z</time></trkpt><trkpt lat="45.92525329144925" lon="11.093103062055935"><ele>179.5</ele><time>2026-05-02T08:14:21Z</time></trkpt><trkpt lat="45.92537863593231" lon="11.093138296333784"><ele>179.0</ele><time>2026-05-02T08:14:22Z</time></trkpt><trkpt lat="45.92551102559479" lon="11.093156803008391"><ele>178.5</ele><time>2026-05-02T08:14:23Z</time></trkpt><trkpt lat="45.92565389052699" lon="11.093173909759177"><ele>178.0</ele><time>2026-05-02T08:14:24Z</time></trkpt><trkpt lat="45.925803400352336" lon="11.093190744694832"><ele>178.66666666666669</ele><time>2026-05-02T08:14:25Z</time></trkpt><trkpt lat="45.92595990376367" lon="11.093202989680599"><ele>179.33333333333334</ele><time>2026-05-02T08:14:25.999Z</time></trkpt><trkpt lat="45.926122123239324" lon="11.093209029589497"><ele>180.0</ele><time>2026-05-02T08:14:26.999Z</time></trkpt><trkpt lat="45.92629020161479" lon="11.093209053378956"><ele>180.0</ele><time>2026-05-02T08:14:27.999Z</time></trkpt><trkpt lat="45.92646340129849" lon="11.093206903024068"><ele>180.0</ele><time>2026-05-02T08:14:28.999Z</time></trkpt><trkpt lat="45.92664031197295" lon="11.093203080920048"><ele>180.0</ele><time>2026-05-02T08:14:29.999Z</time></trkpt><trkpt lat="45.92682079999009" lon="11.093193895154476"><ele>180.66666666666666</ele><time>2026-05-02T08:14:30.999Z</time></trkpt><trkpt lat="45.926999009759285" lon="11.093183430891523"><ele>181.33333333333331</ele><time>2026-05-02T08:14:31.999Z</time></trkpt><trkpt lat="45.927174278502335" lon="11.093180317496117"><ele>182.0</ele><time>2026-05-02T08:14:32.999Z</time></trkpt><trkpt lat="45.92734172130135" lon="11.093176954521345"><ele>182.0</ele><time>2026-05-02T08:14:33.999Z</time></trkpt><trkpt lat="45.92749695079309" lon="11.093168188221105"><ele>182.0</ele><time>2026-05-02T08:14:34.999Z</time></trkpt><trkpt lat="45.92764441559" lon="11.093159003345148"><ele>182.0</ele><time>2026-05-02T08:14:35.999Z</time></trkpt><trkpt lat="45.927791450017175" lon="11.093152225841733"><ele>183.25</ele><time>2026-05-02T08:14:36.999Z</time></trkpt><trkpt lat="45.92793797317115" lon="11.093148201447104"><ele>184.5</ele><time>2026-05-02T08:14:37.999Z</time></trkpt><trkpt lat="45.9280867503743" lon="11.09314773829419"><ele>185.75</ele><time>2026-05-02T08:14:38.999Z</time></trkpt><trkpt lat="45.928238343635826" lon="11.093145403334876"><ele>187.0</ele><time>2026-05-02T08:14:39.999Z</time></trkpt><trkpt lat="45.928389435206995" lon="11.093143076363969"><ele>188.5</ele><time>2026-05-02T08:14:40.999Z</time></trkpt><trkpt lat="45.92853810309426" lon="11.093142328753574"><ele>190.0</ele><time>2026-05-02T08:14:41.999Z</time></trkpt><trkpt lat="45.9286857750381" lon="11.093140238601563"><ele>191.5</ele><time>2026-05-02T08:14:42.999Z</time></trkpt><trkpt lat="45.928822078756475" lon="11.09313934341489"><ele>193.0</ele><time>2026-05-02T08:14:43.999Z</time></trkpt><trkpt lat="45.92895382149308" lon="11.093136016342157"><ele>193.0</ele><time>2026-05-02T08:14:44.999Z</time></trkpt><trkpt lat="45.929087682858054" lon="11.093134267368736"><ele>193.0</ele><time>2026-05-02T08:14:45.999Z</time></trkpt><trkpt lat="45.92922029901478" lon="11.093134704339507"><ele>193.0</ele><time>2026-05-02T08:14:46.999Z</time></trkpt><trkpt lat="45.92934461997825" lon="11.093139435756067"><ele>193.0</ele><time>2026-05-02T08:14:47.999Z</time></trkpt><trkpt lat="45.92946402929834" lon="11.093145447296797"><ele>193.75</ele><time>2026-05-02T08:14:48.999Z</time></trkpt><trkpt lat="45.92958406914817" lon="11.093148070686468"><ele>194.5</ele><time>2026-05-02T08:14:49.999Z</time></trkpt><trkpt lat="45.92970479268629" lon="11.093151953134388"><ele>195.25</ele><time>2026-05-02T08:14:50.999Z</time></trkpt><trkpt lat="45.92981896860166" lon="11.093170658824514"><ele>196.0</ele><time>2026-05-02T08:14:51.999Z</time></trkpt><trkpt lat="45.92993905082841" lon="11.093209822854485"><ele>196.25</ele><time>2026-05-02T08:14:52.999Z</time></trkpt><trkpt lat="45.93006403366152" lon="11.093267412942954"><ele>196.5</ele><time>2026-05-02T08:14:53.999Z</time></trkpt><trkpt lat="45.93019454331699" lon="11.093340250685861"><ele>196.75</ele><time>2026-05-02T08:14:54.999Z</time></trkpt><trkpt lat="45.93033176127848" lon="11.093426670961131"><ele>197.0</ele><time>2026-05-02T08:14:55.999Z</time></trkpt><trkpt lat="45.93047784783002" lon="11.093527933144719"><ele>197.0</ele><time>2026-05-02T08:14:56.999Z</time></trkpt><trkpt lat="45.930630893478295" lon="11.093639640494334"><ele>197.0</ele><time>2026-05-02T08:14:57.999Z</time></trkpt><trkpt lat="45.930776508551034" lon="11.093747314149923"><ele>197.0</ele><time>2026-05-02T08:14:58.999Z</time></trkpt><trkpt lat="45.93091944889882" lon="11.093855180824502"><ele>195.66666666666669</ele><time>2026-05-02T08:14:59.999Z</time></trkpt><trkpt lat="45.93105590416411" lon="11.093959193867782"><ele>194.33333333333331</ele><time>2026-05-02T08:15:00.999Z</time></trkpt><trkpt lat="45.931188762030125" lon="11.094058994738594"><ele>193.0</ele><time>2026-05-02T08:15:01.999Z</time></trkpt><trkpt lat="45.931323062338535" lon="11.09415878920044"><ele>192.33333333333331</ele><time>2026-05-02T08:15:02.999Z</time></trkpt><trkpt lat="45.93145948257091" lon="11.094257980173442"><ele>191.66666666666666</ele><time>2026-05-02T08:15:03.999Z</time></trkpt><trkpt lat="45.93159935269421" lon="11.09436114128842"><ele>191.0</ele><time>2026-05-02T08:15:04.999Z</time></trkpt><trkpt lat="45.9317404962983" lon="11.094466732737986"><ele>190.66666666666666</ele><time>2026-05-02T08:15:05.999Z</time></trkpt><trkpt lat="45.93188230862875" lon="11.094572570992254"><ele>190.33333333333334</ele><time>2026-05-02T08:15:06.999Z</time></trkpt><trkpt lat="45.932030280796525" lon="11.09468231678432"><ele>190.0</ele><time>2026-05-02T08:15:07.999Z</time></trkpt><trkpt lat="45.932183734256895" lon="11.094795486765138"><ele>190.0</ele><time>2026-05-02T08:15:08.999Z</time></trkpt><trkpt lat="45.93233373790004" lon="11.094910422816284"><ele>190.0</ele><time>2026-05-02T08:15:09.999Z</time></trkpt><trkpt lat="45.93247628181465" lon="11.095020598081318"><ele>190.0</ele><time>2026-05-02T08:15:10.999Z</time></trkpt><trkpt lat="45.93261216256658" lon="11.095126317454838"><ele>190.25</ele><time>2026-05-02T08:15:11.999Z</time></trkpt><trkpt lat="45.93274198737096" lon="11.095226902980174"><ele>190.5</ele><time>2026-05-02T08:15:12.999Z</time></trkpt><trkpt lat="45.93286645333851" lon="11.095319879948274"><ele>190.75</ele><time>2026-05-02T08:15:13.999Z</time></trkpt><trkpt lat="45.93299894584206" lon="11.095413800059116"><ele>191.0</ele><time>2026-05-02T08:15:14.999Z</time></trkpt><trkpt lat="45.93314091889375" lon="11.095507583001178"><ele>191.0</ele><time>2026-05-02T08:15:15.999Z</time></trkpt><trkpt lat="45.93329151332224" lon="11.095603307817765"><ele>191.0</ele><time>2026-05-02T08:15:16.999Z</time></trkpt><trkpt lat="45.93344891689652" lon="11.095690614058762"><ele>191.0</ele><time>2026-05-02T08:15:17.999Z</time></trkpt><trkpt lat="45.93360067965885" lon="11.095759351283807"><ele>191.20000000000002</ele><time>2026-05-02T08:15:18.999Z</time></trkpt><trkpt lat="45.93374317656517" lon="11.095809146585463"><ele>191.4</ele><time>2026-05-02T08:15:19.999Z</time></trkpt><trkpt lat="45.93384693619229" lon="11.095838081353197"><ele>191.6</ele><time>2026-05-02T08:15:20.999Z</time></trkpt><trkpt lat="45.93391928999262" lon="11.095852549873518"><ele>191.8</ele><time>2026-05-02T08:15:21.999Z</time></trkpt><trkpt lat="45.93400038976211" lon="11.095868101718132"><ele>192.0</ele><time>2026-05-02T08:15:24.999Z</time></trkpt><trkpt lat="45.93409697635834" lon="11.095895976046924"><ele>192.0</ele><time>2026-05-02T08:15:27.999Z</time></trkpt><trkpt lat="45.93418129391276" lon="11.095918674984555"><ele>192.0</ele><time>2026-05-02T08:15:31Z</time></trkpt><trkpt lat="45.93425409437562" lon="11.09593227728295"><ele>192.0</ele><time>2026-05-02T08:15:33Z</time></trkpt><trkpt lat="45.934359759034514" lon="11.095955524687337"><ele>192.0</ele><time>2026-05-02T08:15:35Z</time></trkpt><trkpt lat="45.9344222903046" lon="11.095970347061591"><ele>192.0</ele><time>2026-05-02T08:15:36Z</time></trkpt><trkpt lat="45.93449572942267" lon="11.095987108478218"><ele>192.0</ele><time>2026-05-02T08:15:37Z</time></trkpt><trkpt lat="45.93458046608564" lon="11.096006287759597"><ele>191.8</ele><time>2026-05-02T08:15:38Z</time></trkpt><trkpt lat="45.9346752131719" lon="11.096029862542194"><ele>191.6</ele><time>2026-05-02T08:15:39Z</time></trkpt><trkpt lat="45.93477685136514" lon="11.096053812970473"><ele>191.4</ele><time>2026-05-02T08:15:40Z</time></trkpt><trkpt lat="45.93487999948637" lon="11.09607835960172"><ele>191.20000000000002</ele><time>2026-05-02T08:15:41Z</time></trkpt><trkpt lat="45.93499074482033" lon="11.096102236484363"><ele>191.0</ele><time>2026-05-02T08:15:42Z</time></trkpt><trkpt lat="45.935112481829385" lon="11.096126960991075"><ele>190.5</ele><time>2026-05-02T08:15:43Z</time></trkpt><trkpt lat="45.935248803288054" lon="11.096157532196452"><ele>190.0</ele><time>2026-05-02T08:15:44Z</time></trkpt><trkpt lat="45.93538734216125" lon="11.096194287278687"><ele>189.5</ele><time>2026-05-02T08:15:45Z</time></trkpt><trkpt lat="45.93553926031045" lon="11.096231823972692"><ele>189.0</ele><time>2026-05-02T08:15:46Z</time></trkpt><trkpt lat="45.93569669652191" lon="11.096269913043711"><ele>189.0</ele><time>2026-05-02T08:15:47Z</time></trkpt><trkpt lat="45.935850624423104" lon="11.096305320953059"><ele>189.0</ele><time>2026-05-02T08:15:48Z</time></trkpt><trkpt lat="45.936003316902784" lon="11.096338497256093"><ele>189.0</ele><time>2026-05-02T08:15:49Z</time></trkpt><trkpt lat="45.93615333866297" lon="11.096371383023593"><ele>188.0</ele><time>2026-05-02T08:15:50Z</time></trkpt><trkpt lat="45.93629749468249" lon="11.096401406248622"><ele>187.0</ele><time>2026-05-02T08:15:51Z</time></trkpt><trkpt lat="45.9364426059827" lon="11.096431803346558"><ele>186.0</ele><time>2026-05-02T08:15:52Z</time></trkpt><trkpt lat="45.93658593972663" lon="11.096466646332871"><ele>185.0</ele><time>2026-05-02T08:15:53Z</time></trkpt><trkpt lat="45.93673205846859" lon="11.096500722545942"><ele>184.33333333333331</ele><time>2026-05-02T08:15:54Z</time></trkpt><trkpt lat="45.93688533092531" lon="11.096533294514748"><ele>183.66666666666666</ele><time>2026-05-02T08:15:55Z</time></trkpt><trkpt lat="45.93704650102688" lon="11.096565270843566"><ele>183.0</ele><time>2026-05-02T08:15:56Z</time></trkpt><trkpt lat="45.93721443729158" lon="11.096602487866434"><ele>183.0</ele><time>2026-05-02T08:15:57Z</time></trkpt><trkpt lat="45.93738069616173" lon="11.096644054641036"><ele>183.0</ele><time>2026-05-02T08:15:58Z</time></trkpt><trkpt lat="45.93754592563179" lon="11.096690003955581"><ele>183.0</ele><time>2026-05-02T08:15:59Z</time></trkpt><trkpt lat="45.93770343091426" lon="11.096740739227739"><ele>182.66666666666666</ele><time>2026-05-02T08:16:00Z</time></trkpt><trkpt lat="45.937851464647245" lon="11.09679765612869"><ele>182.33333333333331</ele><time>2026-05-02T08:16:01Z</time></trkpt><trkpt lat="45.93799836791082" lon="11.09686412698378"><ele>182.0</ele><time>2026-05-02T08:16:02Z</time></trkpt><trkpt lat="45.93814539896172" lon="11.096947606510811"><ele>182.0</ele><time>2026-05-02T08:16:03Z</time></trkpt><trkpt lat="45.93830408809284" lon="11.097054530016841"><ele>182.0</ele><time>2026-05-02T08:16:04Z</time></trkpt><trkpt lat="45.93846921020064" lon="11.097189148515778"><ele>182.0</ele><time>2026-05-02T08:16:05Z</time></trkpt><trkpt lat="45.938631120834415" lon="11.09734921428195"><ele>181.66666666666666</ele><time>2026-05-02T08:16:06Z</time></trkpt><trkpt lat="45.93879649308011" lon="11.097533006947259"><ele>181.33333333333334</ele><time>2026-05-02T08:16:07Z</time></trkpt><trkpt lat="45.93896726180866" lon="11.09774466552413"><ele>181.0</ele><time>2026-05-02T08:16:08Z</time></trkpt><trkpt lat="45.93913907578228" lon="11.097990632078831"><ele>180.0</ele><time>2026-05-02T08:16:09Z</time></trkpt><trkpt lat="45.93933968013741" lon="11.098245602840665"><ele>179.0</ele><time>2026-05-02T08:16:10Z</time></trkpt><trkpt lat="45.939529362164016" lon="11.09848657553668"><ele>179.0</ele><time>2026-05-02T08:16:11Z</time></trkpt><trkpt lat="45.93971363140674" lon="11.098721090194518"><ele>179.0</ele><time>2026-05-02T08:16:12Z</time></trkpt><trkpt lat="45.93990131546193" lon="11.098932973929468"><ele>179.0</ele><time>2026-05-02T08:16:13Z</time></trkpt><trkpt lat="45.940078408709276" lon="11.099151408264461"><ele>179.0</ele><time>2026-05-02T08:16:14Z</time></trkpt><trkpt lat="45.940262471712934" lon="11.099352531990204"><ele>179.0</ele><time>2026-05-02T08:16:15Z</time></trkpt><trkpt lat="45.94044852989468" lon="11.099540588393824"><ele>179.0</ele><time>2026-05-02T08:16:16Z</time></trkpt><trkpt lat="45.940635018082254" lon="11.099720043478717"><ele>179.0</ele><time>2026-05-02T08:16:17Z</time></trkpt><trkpt lat="45.94082387748144" lon="11.099889087287178"><ele>179.0</ele><time>2026-05-02T08:16:18Z</time></trkpt><trkpt lat="45.941016987437436" lon="11.100049196466335"><ele>179.0</ele><time>2026-05-02T08:16:19Z</time></trkpt><trkpt lat="45.94121580621157" lon="11.100200586439932"><ele>178.0</ele><time>2026-05-02T08:16:20Z</time></trkpt><trkpt lat="45.94142334633052" lon="11.100344814924506"><ele>177.0</ele><time>2026-05-02T08:16:21Z</time></trkpt><trkpt lat="45.94163522237507" lon="11.100486783584756"><ele>177.0</ele><time>2026-05-02T08:16:22Z</time></trkpt><trkpt lat="45.94185051821115" lon="11.100625838474494"><ele>177.0</ele><time>2026-05-02T08:16:23Z</time></trkpt><trkpt lat="45.94206670311721" lon="11.100769884186997"><ele>178.5</ele><time>2026-05-02T08:16:24Z</time></trkpt><trkpt lat="45.94228400576462" lon="11.100919685958296"><ele>180.0</ele><time>2026-05-02T08:16:25Z</time></trkpt><trkpt lat="45.94250492013729" lon="11.101071251634947"><ele>179.5</ele><time>2026-05-02T08:16:26Z</time></trkpt><trkpt lat="45.942727039791976" lon="11.101222164368048"><ele>179.0</ele><time>2026-05-02T08:16:27Z</time></trkpt><trkpt lat="45.94294216885442" lon="11.10136651037011"><ele>179.0</ele><time>2026-05-02T08:16:28Z</time></trkpt><trkpt lat="45.943142723835024" lon="11.101498700879823"><ele>179.0</ele><time>2026-05-02T08:16:29Z</time></trkpt><trkpt lat="45.94334387359433" lon="11.101629742336204"><ele>179.0</ele><time>2026-05-02T08:16:30Z</time></trkpt><trkpt lat="45.9435456929813" lon="11.101760684522189"><ele>179.33333333333331</ele><time>2026-05-02T08:16:31Z</time></trkpt><trkpt lat="45.94374392919436" lon="11.10189527296705"><ele>179.66666666666666</ele><time>2026-05-02T08:16:32Z</time></trkpt><trkpt lat="45.94393065681118" lon="11.102023016727117"><ele>180.0</ele><time>2026-05-02T08:16:33Z</time></trkpt><trkpt lat="45.94409305960561" lon="11.102131956712746"><ele>179.0</ele><time>2026-05-02T08:16:34Z</time></trkpt><trkpt lat="45.94424445297973" lon="11.102229343048291"><ele>178.0</ele><time>2026-05-02T08:16:34.999Z</time></trkpt><trkpt lat="45.94439049719973" lon="11.102323763279937"><ele>177.0</ele><time>2026-05-02T08:16:35.999Z</time></trkpt><trkpt lat="45.94453518115922" lon="11.102420143815234"><ele>179.0</ele><time>2026-05-02T08:16:36.999Z</time></trkpt><trkpt lat="45.94468042659036" lon="11.102520020038044"><ele>181.0</ele><time>2026-05-02T08:16:37.999Z</time></trkpt><trkpt lat="45.9448229218159" lon="11.102618744665195"><ele>183.0</ele><time>2026-05-02T08:16:38.999Z</time></trkpt><trkpt lat="45.944970114436" lon="11.102711375530825"><ele>182.0</ele><time>2026-05-02T08:16:39.999Z</time></trkpt><trkpt lat="45.94510955019569" lon="11.10283007117233"><ele>181.0</ele><time>2026-05-02T08:16:40.999Z</time></trkpt><trkpt lat="45.94525434247144" lon="11.10290938832045"><ele>180.0</ele><time>2026-05-02T08:16:41.999Z</time></trkpt><trkpt lat="45.945379771535094" lon="11.103001225416968"><ele>180.0</ele><time>2026-05-02T08:16:42.999Z</time></trkpt><trkpt lat="45.94550210831534" lon="11.103092023131696"><ele>180.0</ele><time>2026-05-02T08:16:43.999Z</time></trkpt><trkpt lat="45.94561734699327" lon="11.103180638727274"><ele>180.0</ele><time>2026-05-02T08:16:44.999Z</time></trkpt><trkpt lat="45.945732533245604" lon="11.103263733679508"><ele>180.0</ele><time>2026-05-02T08:16:45.999Z</time></trkpt><trkpt lat="45.94587173348172" lon="11.103353753302317"><ele>181.0</ele><time>2026-05-02T08:16:46.999Z</time></trkpt><trkpt lat="45.94605572024017" lon="11.103470455705295"><ele>182.0</ele><time>2026-05-02T08:16:47.999Z</time></trkpt><trkpt lat="45.94622071750562" lon="11.10360131168232"><ele>183.0</ele><time>2026-05-02T08:16:48.999Z</time></trkpt><trkpt lat="45.94636375655598" lon="11.10371301372702"><ele>183.0</ele><time>2026-05-02T08:16:49.999Z</time></trkpt><trkpt lat="45.94648923872692" lon="11.103804960794964"><ele>183.0</ele><time>2026-05-02T08:16:50.999Z</time></trkpt><trkpt lat="45.94659594774615" lon="11.103884738706757"><ele>183.0</ele><time>2026-05-02T08:16:51.999Z</time></trkpt><trkpt lat="45.9466997683811" lon="11.10396204178371"><ele>183.0</ele><time>2026-05-02T08:16:52.999Z</time></trkpt><trkpt lat="45.94681653017288" lon="11.10404769882715"><ele>183.5</ele><time>2026-05-02T08:16:53.999Z</time></trkpt><trkpt lat="45.946936951980035" lon="11.104135616708126"><ele>184.0</ele><time>2026-05-02T08:16:54.999Z</time></trkpt><trkpt lat="45.947047280338566" lon="11.104211317572643"><ele>184.5</ele><time>2026-05-02T08:16:55.999Z</time></trkpt><trkpt lat="45.94715918449924" lon="11.104287462636066"><ele>185.0</ele><time>2026-05-02T08:16:56.999Z</time></trkpt><trkpt lat="45.94728060361864" lon="11.104375550667655"><ele>185.0</ele><time>2026-05-02T08:16:57.999Z</time></trkpt><trkpt lat="45.94741114153722" lon="11.10446880607644"><ele>185.0</ele><time>2026-05-02T08:16:58.999Z</time></trkpt><trkpt lat="45.94757018325724" lon="11.104584011316243"><ele>185.0</ele><time>2026-05-02T08:16:59.999Z</time></trkpt><trkpt lat="45.947748457198124" lon="11.104729852117188"><ele>184.0</ele><time>2026-05-02T08:17:00.999Z</time></trkpt><trkpt lat="45.94794617082681" lon="11.104897988021465"><ele>183.0</ele><time>2026-05-02T08:17:01.999Z</time></trkpt><trkpt lat="45.948152571213456" lon="11.105089501985674"><ele>184.0</ele><time>2026-05-02T08:17:02.999Z</time></trkpt><trkpt lat="45.94836687476692" lon="11.105290483171059"><ele>185.0</ele><time>2026-05-02T08:17:03.999Z</time></trkpt><trkpt lat="45.948582554552" lon="11.105486098557519"><ele>185.0</ele><time>2026-05-02T08:17:04.999Z</time></trkpt><trkpt lat="45.94878235422042" lon="11.105665922609129"><ele>185.0</ele><time>2026-05-02T08:17:05.999Z</time></trkpt><trkpt lat="45.94897280640756" lon="11.105826668632778"><ele>185.33333333333331</ele><time>2026-05-02T08:17:06.999Z</time></trkpt><trkpt lat="45.9491531072541" lon="11.105982387919953"><ele>185.66666666666666</ele><time>2026-05-02T08:17:07.999Z</time></trkpt><trkpt lat="45.94934121675116" lon="11.106144176432544"><ele>186.0</ele><time>2026-05-02T08:17:08.999Z</time></trkpt><trkpt lat="45.94952854965319" lon="11.106308689635611"><ele>186.0</ele><time>2026-05-02T08:17:09.999Z</time></trkpt><trkpt lat="45.94970166920323" lon="11.106473506502295"><ele>186.0</ele><time>2026-05-02T08:17:10.999Z</time></trkpt><trkpt lat="45.949856079903434" lon="11.10665778624936"><ele>186.0</ele><time>2026-05-02T08:17:11.999Z</time></trkpt><trkpt lat="45.94999725068176" lon="11.106862434666136"><ele>186.0</ele><time>2026-05-02T08:17:12.999Z</time></trkpt><trkpt lat="45.95016188892011" lon="11.10706128833354"><ele>186.0</ele><time>2026-05-02T08:17:13.999Z</time></trkpt><trkpt lat="45.95035657316842" lon="11.107248275839678"><ele>186.0</ele><time>2026-05-02T08:17:14.999Z</time></trkpt><trkpt lat="45.95056932753668" lon="11.10744207783197"><ele>186.5</ele><time>2026-05-02T08:17:15.999Z</time></trkpt><trkpt lat="45.95078845897486" lon="11.10763839350309"><ele>187.0</ele><time>2026-05-02T08:17:16.999Z</time></trkpt><trkpt lat="45.95101159432836" lon="11.107841953771322"><ele>187.0</ele><time>2026-05-02T08:17:17.999Z</time></trkpt><trkpt lat="45.95123941633617" lon="11.108048838684025"><ele>187.0</ele><time>2026-05-02T08:17:18.999Z</time></trkpt><trkpt lat="45.9514718443165" lon="11.108256505848795"><ele>187.5</ele><time>2026-05-02T08:17:19.999Z</time></trkpt><trkpt lat="45.951704921080115" lon="11.108461417341893"><ele>188.0</ele><time>2026-05-02T08:17:20.999Z</time></trkpt><trkpt lat="45.951935324569575" lon="11.108661546062107"><ele>188.0</ele><time>2026-05-02T08:17:21.999Z</time></trkpt><trkpt lat="45.952162653571925" lon="11.10886213213876"><ele>188.0</ele><time>2026-05-02T08:17:22.999Z</time></trkpt><trkpt lat="45.95238757035018" lon="11.1090629306548"><ele>186.0</ele><time>2026-05-02T08:17:23.999Z</time></trkpt><trkpt lat="45.952610715267326" lon="11.10925192218681"><ele>184.0</ele><time>2026-05-02T08:17:24.999Z</time></trkpt><trkpt lat="45.952827603691176" lon="11.10941622843271"><ele>184.0</ele><time>2026-05-02T08:17:25.999Z</time></trkpt><trkpt lat="45.953041533949865" lon="11.109558042095982"><ele>184.0</ele><time>2026-05-02T08:17:26.999Z</time></trkpt><trkpt lat="45.953267674432134" lon="11.109675378950538"><ele>182.5</ele><time>2026-05-02T08:17:27.999Z</time></trkpt><trkpt lat="45.95350188884813" lon="11.109762478154627"><ele>181.0</ele><time>2026-05-02T08:17:28.999Z</time></trkpt><trkpt lat="45.95374680753876" lon="11.109821813926688"><ele>181.0</ele><time>2026-05-02T08:17:29.999Z</time></trkpt><trkpt lat="45.95399963931862" lon="11.109846880245666"><ele>181.0</ele><time>2026-05-02T08:17:30.999Z</time></trkpt><trkpt lat="45.95425873285092" lon="11.1098536959865"><ele>181.5</ele><time>2026-05-02T08:17:31.999Z</time></trkpt><trkpt lat="45.95452331778524" lon="11.109859658269608"><ele>182.0</ele><time>2026-05-02T08:17:32.999Z</time></trkpt><trkpt lat="45.95479453032325" lon="11.10986518972905"><ele>182.5</ele><time>2026-05-02T08:17:33.999Z</time></trkpt><trkpt lat="45.95507368279819" lon="11.10987139071198"><ele>183.0</ele><time>2026-05-02T08:17:35Z</time></trkpt><trkpt lat="45.955357642485495" lon="11.109876571091872"><ele>183.0</ele><time>2026-05-02T08:17:36Z</time></trkpt><trkpt lat="45.95564065102371" lon="11.109875027779005"><ele>183.0</ele><time>2026-05-02T08:17:37Z</time></trkpt><trkpt lat="45.95592533129549" lon="11.109873965912898"><ele>182.5</ele><time>2026-05-02T08:17:38Z</time></trkpt><trkpt lat="45.95621243666096" lon="11.109870807544228"><ele>182.0</ele><time>2026-05-02T08:17:39Z</time></trkpt><trkpt lat="45.95649096380578" lon="11.109872304308794"><ele>184.0</ele><time>2026-05-02T08:17:40Z</time></trkpt><trkpt lat="45.95676259162983" lon="11.109873718970691"><ele>186.0</ele><time>2026-05-02T08:17:41Z</time></trkpt><trkpt lat="45.957027747653555" lon="11.109887127026418"><ele>189.0</ele><time>2026-05-02T08:17:42Z</time></trkpt><trkpt lat="45.957285812300206" lon="11.109932201732192"><ele>192.0</ele><time>2026-05-02T08:17:43Z</time></trkpt><trkpt lat="45.95754062460099" lon="11.10999564043971"><ele>192.0</ele><time>2026-05-02T08:17:44Z</time></trkpt><trkpt lat="45.957796171647736" lon="11.11005602304873"><ele>192.0</ele><time>2026-05-02T08:17:45Z</time></trkpt><trkpt lat="45.95805310678001" lon="11.11011140480584"><ele>192.0</ele><time>2026-05-02T08:17:46Z</time></trkpt><trkpt lat="45.95833359037893" lon="11.110152244427695"><ele>192.0</ele><time>2026-05-02T08:17:47Z</time></trkpt><trkpt lat="45.9586069632549" lon="11.110179133816866"><ele>193.5</ele><time>2026-05-02T08:17:48Z</time></trkpt><trkpt lat="45.95888414695284" lon="11.110206036747613"><ele>195.0</ele><time>2026-05-02T08:17:49Z</time></trkpt><trkpt lat="45.959164620278536" lon="11.11023562534731"><ele>195.0</ele><time>2026-05-02T08:17:50Z</time></trkpt><trkpt lat="45.95944730833422" lon="11.110264124674844"><ele>195.0</ele><time>2026-05-02T08:17:51Z</time></trkpt><trkpt lat="45.95973295673611" lon="11.110288635110487"><ele>195.0</ele><time>2026-05-02T08:17:52Z</time></trkpt><trkpt lat="45.960022831052335" lon="11.110309658235918"><ele>195.0</ele><time>2026-05-02T08:17:53Z</time></trkpt><trkpt lat="45.960314588177596" lon="11.110329257304898"><ele>195.5</ele><time>2026-05-02T08:17:54Z</time></trkpt><trkpt lat="45.960606233990255" lon="11.110343771953886"><ele>196.0</ele><time>2026-05-02T08:17:55Z</time></trkpt><trkpt lat="45.96088861207347" lon="11.1103888178791"><ele>192.5</ele><time>2026-05-02T08:17:56Z</time></trkpt><trkpt lat="45.96115177186886" lon="11.110435670909325"><ele>189.0</ele><time>2026-05-02T08:17:57Z</time></trkpt><trkpt lat="45.96140877757802" lon="11.11051918772134"><ele>189.0</ele><time>2026-05-02T08:17:58Z</time></trkpt><trkpt lat="45.96166501500219" lon="11.11063866670462"><ele>189.0</ele><time>2026-05-02T08:17:59Z</time></trkpt><trkpt lat="45.9619249189755" lon="11.110773160201306"><ele>192.0</ele><time>2026-05-02T08:18:00Z</time></trkpt><trkpt lat="45.96218803631375" lon="11.110910679574708"><ele>195.0</ele><time>2026-05-02T08:18:01Z</time></trkpt><trkpt lat="45.96245396676132" lon="11.111049669232997"><ele>192.0</ele><time>2026-05-02T08:18:02Z</time></trkpt><trkpt lat="45.96271931780581" lon="11.11118835606329"><ele>189.0</ele><time>2026-05-02T08:18:03Z</time></trkpt><trkpt lat="45.96298510706845" lon="11.111326187378177"><ele>189.0</ele><time>2026-05-02T08:18:04Z</time></trkpt><trkpt lat="45.96324564301957" lon="11.111460554864273"><ele>189.0</ele><time>2026-05-02T08:18:05Z</time></trkpt><trkpt lat="45.96351422961599" lon="11.111562767695736"><ele>196.0</ele><time>2026-05-02T08:18:06Z</time></trkpt><trkpt lat="45.96378290950073" lon="11.111663266645747"><ele>203.0</ele><time>2026-05-02T08:18:07Z</time></trkpt><trkpt lat="45.96405809020888" lon="11.11174439067673"><ele>201.5</ele><time>2026-05-02T08:18:08Z</time></trkpt><trkpt lat="45.964335379988036" lon="11.111828749490858"><ele>200.0</ele><time>2026-05-02T08:18:09Z</time></trkpt><trkpt lat="45.96461066597031" lon="11.111917377212496"><ele>200.0</ele><time>2026-05-02T08:18:10Z</time></trkpt><trkpt lat="45.96488723145346" lon="11.11199764858384"><ele>200.0</ele><time>2026-05-02T08:18:11Z</time></trkpt><trkpt lat="45.965165760877916" lon="11.112085347074311"><ele>195.0</ele><time>2026-05-02T08:18:12Z</time></trkpt><trkpt lat="45.965444309581514" lon="11.112175895468562"><ele>190.0</ele><time>2026-05-02T08:18:13Z</time></trkpt><trkpt lat="45.965718954635854" lon="11.112264849909025"><ele>186.5</ele><time>2026-05-02T08:18:14Z</time></trkpt><trkpt lat="45.96598544169611" lon="11.112342015620776"><ele>183.0</ele><time>2026-05-02T08:18:15Z</time></trkpt><trkpt lat="45.966246000825635" lon="11.11239767425982"><ele>183.0</ele><time>2026-05-02T08:18:16Z</time></trkpt><trkpt lat="45.96649870873725" lon="11.112427413919656"><ele>183.0</ele><time>2026-05-02T08:18:17Z</time></trkpt><trkpt lat="45.96674606381541" lon="11.112427000932474"><ele>183.0</ele><time>2026-05-02T08:18:18Z</time></trkpt><trkpt lat="45.96698623173283" lon="11.11240879852517"><ele>183.0</ele><time>2026-05-02T08:18:19Z</time></trkpt><trkpt lat="45.9672184212424" lon="11.112378943801927"><ele>181.5</ele><time>2026-05-02T08:18:20Z</time></trkpt><trkpt lat="45.96744492796044" lon="11.112332025562777"><ele>180.0</ele><time>2026-05-02T08:18:21Z</time></trkpt><trkpt lat="45.967674009508706" lon="11.112276360595363"><ele>179.0</ele><time>2026-05-02T08:18:22Z</time></trkpt><trkpt lat="45.96791290685427" lon="11.112221967673026"><ele>178.0</ele><time>2026-05-02T08:18:23Z</time></trkpt><trkpt lat="45.96814229993262" lon="11.112174486089682"><ele>178.0</ele><time>2026-05-02T08:18:24Z</time></trkpt><trkpt lat="45.96836378349288" lon="11.11213545341199"><ele>178.0</ele><time>2026-05-02T08:18:25Z</time></trkpt><trkpt lat="45.96859099234577" lon="11.11211397391148"><ele>178.0</ele><time>2026-05-02T08:18:26Z</time></trkpt><trkpt lat="45.9688286840781" lon="11.11211736105538"><ele>178.0</ele><time>2026-05-02T08:18:27Z</time></trkpt><trkpt lat="45.96907113015763" lon="11.112134952623316"><ele>178.0</ele><time>2026-05-02T08:18:28Z</time></trkpt><trkpt lat="45.96931387373559" lon="11.112173516925736"><ele>178.0</ele><time>2026-05-02T08:18:29Z</time></trkpt><trkpt lat="45.96955175546432" lon="11.11222685676419"><ele>178.0</ele><time>2026-05-02T08:18:30Z</time></trkpt><trkpt lat="45.96978852912277" lon="11.112298752373109"><ele>178.0</ele><time>2026-05-02T08:18:31Z</time></trkpt><trkpt lat="45.97001687710638" lon="11.112376880199333"><ele>178.5</ele><time>2026-05-02T08:18:32Z</time></trkpt><trkpt lat="45.97024609029859" lon="11.112453381869278"><ele>179.0</ele><time>2026-05-02T08:18:33Z</time></trkpt><trkpt lat="45.970486522173985" lon="11.112526324359713"><ele>179.0</ele><time>2026-05-02T08:18:34Z</time></trkpt><trkpt lat="45.97074487560782" lon="11.112621989487717"><ele>179.0</ele><time>2026-05-02T08:18:35Z</time></trkpt><trkpt lat="45.97103391924896" lon="11.112706931772639"><ele>180.5</ele><time>2026-05-02T08:18:36Z</time></trkpt><trkpt lat="45.97132538813553" lon="11.112791628587745"><ele>182.0</ele><time>2026-05-02T08:18:37Z</time></trkpt><trkpt lat="45.9716156525245" lon="11.11287972196957"><ele>181.0</ele><time>2026-05-02T08:18:38Z</time></trkpt><trkpt lat="45.97190456503189" lon="11.112950814853837"><ele>180.0</ele><time>2026-05-02T08:18:39Z</time></trkpt><trkpt lat="45.97219263843855" lon="11.113049393243315"><ele>180.0</ele><time>2026-05-02T08:18:40Z</time></trkpt><trkpt lat="45.972479295114574" lon="11.113127691694455"><ele>180.0</ele><time>2026-05-02T08:18:41Z</time></trkpt><trkpt lat="45.97275566345285" lon="11.113175768325176"><ele>180.5</ele><time>2026-05-02T08:18:42Z</time></trkpt><trkpt lat="45.9730097526055" lon="11.11320985547804"><ele>181.0</ele><time>2026-05-02T08:18:43Z</time></trkpt><trkpt lat="45.97324157204511" lon="11.113243275819167"><ele>182.5</ele><time>2026-05-02T08:18:44Z</time></trkpt><trkpt lat="45.97346871807081" lon="11.113280232076924"><ele>184.0</ele><time>2026-05-02T08:18:45Z</time></trkpt><trkpt lat="45.97369416636195" lon="11.113310825167325"><ele>184.0</ele><time>2026-05-02T08:18:45.999Z</time></trkpt><trkpt lat="45.97391963008803" lon="11.11334609321303"><ele>184.0</ele><time>2026-05-02T08:18:46.999Z</time></trkpt><trkpt lat="45.97415254396581" lon="11.113382099618967"><ele>184.0</ele><time>2026-05-02T08:18:47.999Z</time></trkpt><trkpt lat="45.97438790109673" lon="11.113416819951249"><ele>184.0</ele><time>2026-05-02T08:18:48.999Z</time></trkpt><trkpt lat="45.97462211593121" lon="11.113452415675024"><ele>184.0</ele><time>2026-05-02T08:18:49.999Z</time></trkpt><trkpt lat="45.974856331893434" lon="11.113489677322894"><ele>184.0</ele><time>2026-05-02T08:18:50.999Z</time></trkpt><trkpt lat="45.97508368575388" lon="11.113523466941828"><ele>184.0</ele><time>2026-05-02T08:18:51.999Z</time></trkpt><trkpt lat="45.975296704299986" lon="11.113555721540362"><ele>184.0</ele><time>2026-05-02T08:18:52.999Z</time></trkpt><trkpt lat="45.975507799889094" lon="11.113586509033867"><ele>184.0</ele><time>2026-05-02T08:18:53.999Z</time></trkpt><trkpt lat="45.975719940870285" lon="11.11362231049751"><ele>183.33333333333334</ele><time>2026-05-02T08:18:54.999Z</time></trkpt><trkpt lat="45.975934306419056" lon="11.11366081119601"><ele>182.66666666666666</ele><time>2026-05-02T08:18:55.999Z</time></trkpt><trkpt lat="45.9761577890714" lon="11.113717822203549"><ele>182.0</ele><time>2026-05-02T08:18:56.999Z</time></trkpt><trkpt lat="45.97639079828264" lon="11.113793304166338"><ele>182.0</ele><time>2026-05-02T08:18:57.999Z</time></trkpt><trkpt lat="45.976632958066816" lon="11.113893096614708"><ele>182.0</ele><time>2026-05-02T08:18:58.999Z</time></trkpt><trkpt lat="45.97687344084949" lon="11.1140120746716"><ele>182.5</ele><time>2026-05-02T08:18:59.999Z</time></trkpt><trkpt lat="45.97711170108963" lon="11.114139845673748"><ele>183.0</ele><time>2026-05-02T08:19:00.999Z</time></trkpt><trkpt lat="45.97734723420388" lon="11.114270848876187"><ele>182.5</ele><time>2026-05-02T08:19:01.999Z</time></trkpt><trkpt lat="45.977572016278124" lon="11.114394562703076"><ele>182.0</ele><time>2026-05-02T08:19:02.999Z</time></trkpt><trkpt lat="45.97779564098598" lon="11.114505318226534"><ele>182.0</ele><time>2026-05-02T08:19:03.999Z</time></trkpt><trkpt lat="45.97802907097398" lon="11.114604882419627"><ele>182.0</ele><time>2026-05-02T08:19:04.999Z</time></trkpt><trkpt lat="45.97827000497759" lon="11.114692339065213"><ele>183.0</ele><time>2026-05-02T08:19:05.999Z</time></trkpt><trkpt lat="45.97852853925642" lon="11.114778259933194"><ele>184.0</ele><time>2026-05-02T08:19:06.999Z</time></trkpt><trkpt lat="45.978803998876884" lon="11.114868984102705"><ele>183.5</ele><time>2026-05-02T08:19:07.999Z</time></trkpt><trkpt lat="45.97909262612999" lon="11.114953519273435"><ele>183.0</ele><time>2026-05-02T08:19:08.999Z</time></trkpt><trkpt lat="45.97938352352161" lon="11.115034828115325"><ele>183.0</ele><time>2026-05-02T08:19:09.999Z</time></trkpt><trkpt lat="45.979677410520004" lon="11.115117986887697"><ele>183.0</ele><time>2026-05-02T08:19:10.999Z</time></trkpt><trkpt lat="45.97997227008321" lon="11.115197551539248"><ele>182.5</ele><time>2026-05-02T08:19:11.999Z</time></trkpt><trkpt lat="45.98024950349056" lon="11.115273824348082"><ele>182.0</ele><time>2026-05-02T08:19:12.999Z</time></trkpt><trkpt lat="45.980514074439256" lon="11.11534692311161"><ele>182.0</ele><time>2026-05-02T08:19:13.999Z</time></trkpt><trkpt lat="45.98077680032395" lon="11.115417105520567"><ele>182.0</ele><time>2026-05-02T08:19:14.999Z</time></trkpt><trkpt lat="45.98103244866647" lon="11.115478362774041"><ele>181.5</ele><time>2026-05-02T08:19:15.999Z</time></trkpt><trkpt lat="45.98127228812198" lon="11.115514333257797"><ele>181.0</ele><time>2026-05-02T08:19:16.999Z</time></trkpt><trkpt lat="45.98150971715226" lon="11.115517573555433"><ele>180.5</ele><time>2026-05-02T08:19:17.999Z</time></trkpt><trkpt lat="45.98174049519539" lon="11.115495803466215"><ele>180.0</ele><time>2026-05-02T08:19:18.999Z</time></trkpt><trkpt lat="45.9819606653197" lon="11.115449488539285"><ele>180.0</ele><time>2026-05-02T08:19:19.999Z</time></trkpt><trkpt lat="45.98216531180557" lon="11.11538459979334"><ele>180.0</ele><time>2026-05-02T08:19:20.999Z</time></trkpt><trkpt lat="45.98235068321293" lon="11.11529409256457"><ele>180.0</ele><time>2026-05-02T08:19:21.999Z</time></trkpt><trkpt lat="45.982532629544565" lon="11.115181359091206"><ele>180.0</ele><time>2026-05-02T08:19:22.999Z</time></trkpt><trkpt lat="45.98272659480454" lon="11.115033455889993"><ele>180.0</ele><time>2026-05-02T08:19:23.999Z</time></trkpt><trkpt lat="45.98294607486572" lon="11.114867894759154"><ele>180.5</ele><time>2026-05-02T08:19:24.999Z</time></trkpt><trkpt lat="45.98318855197279" lon="11.11470010232934"><ele>181.0</ele><time>2026-05-02T08:19:25.999Z</time></trkpt><trkpt lat="45.98344483745236" lon="11.11453857223638"><ele>181.0</ele><time>2026-05-02T08:19:26.999Z</time></trkpt><trkpt lat="45.983713478389596" lon="11.114394131755315"><ele>181.0</ele><time>2026-05-02T08:19:27.999Z</time></trkpt><trkpt lat="45.983984759332856" lon="11.114283966951115"><ele>181.0</ele><time>2026-05-02T08:19:28.999Z</time></trkpt><trkpt lat="45.98425990392559" lon="11.114212573878646"><ele>181.0</ele><time>2026-05-02T08:19:29.999Z</time></trkpt><trkpt lat="45.98453660152983" lon="11.114186588371664"><ele>181.0</ele><time>2026-05-02T08:19:30.999Z</time></trkpt><trkpt lat="45.98481346814589" lon="11.114207506937971"><ele>181.0</ele><time>2026-05-02T08:19:31.999Z</time></trkpt><trkpt lat="45.98509207287034" lon="11.114269916461755"><ele>181.0</ele><time>2026-05-02T08:19:32.999Z</time></trkpt><trkpt lat="45.98536830470613" lon="11.114370820012532"><ele>181.0</ele><time>2026-05-02T08:19:33.999Z</time></trkpt><trkpt lat="45.98564290131703" lon="11.114510802541998"><ele>180.0</ele><time>2026-05-02T08:19:34.999Z</time></trkpt><trkpt lat="45.985908672487916" lon="11.114692744842332"><ele>179.0</ele><time>2026-05-02T08:19:35.999Z</time></trkpt><trkpt lat="45.98616536136505" lon="11.114917850371693"><ele>179.0</ele><time>2026-05-02T08:19:36.999Z</time></trkpt><trkpt lat="45.986421343702254" lon="11.115159312143762"><ele>179.0</ele><time>2026-05-02T08:19:37.999Z</time></trkpt><trkpt lat="45.98668155351994" lon="11.115404904831088"><ele>180.0</ele><time>2026-05-02T08:19:38.999Z</time></trkpt><trkpt lat="45.986944338567035" lon="11.115658064993674"><ele>181.0</ele><time>2026-05-02T08:19:39.999Z</time></trkpt><trkpt lat="45.98721078792093" lon="11.115915247343546"><ele>181.5</ele><time>2026-05-02T08:19:41Z</time></trkpt><trkpt lat="45.98748153841253" lon="11.11616916963226"><ele>182.0</ele><time>2026-05-02T08:19:42Z</time></trkpt><trkpt lat="45.9877536596729" lon="11.116422666809271"><ele>181.0</ele><time>2026-05-02T08:19:43Z</time></trkpt><trkpt lat="45.988024153857964" lon="11.116675545766999"><ele>180.0</ele><time>2026-05-02T08:19:44Z</time></trkpt><trkpt lat="45.98829509137492" lon="11.116927868207794"><ele>179.5</ele><time>2026-05-02T08:19:45Z</time></trkpt><trkpt lat="45.98856480391099" lon="11.117181208229248"><ele>179.0</ele><time>2026-05-02T08:19:46Z</time></trkpt><trkpt lat="45.98882943132935" lon="11.117430587763034"><ele>179.5</ele><time>2026-05-02T08:19:47Z</time></trkpt><trkpt lat="45.98908644679881" lon="11.117672042673563"><ele>180.0</ele><time>2026-05-02T08:19:48Z</time></trkpt><trkpt lat="45.989348009323805" lon="11.11791809432186"><ele>180.0</ele><time>2026-05-02T08:19:49Z</time></trkpt><trkpt lat="45.98961421729846" lon="11.118160403169611"><ele>180.0</ele><time>2026-05-02T08:19:50Z</time></trkpt><trkpt lat="45.989882738790236" lon="11.118404485956361"><ele>180.5</ele><time>2026-05-02T08:19:51Z</time></trkpt><trkpt lat="45.990159746174676" lon="11.118642374608674"><ele>181.0</ele><time>2026-05-02T08:19:52Z</time></trkpt><trkpt lat="45.99044455841162" lon="11.118871942540459"><ele>180.5</ele><time>2026-05-02T08:19:53Z</time></trkpt><trkpt lat="45.99073277525391" lon="11.119090401536955"><ele>180.0</ele><time>2026-05-02T08:19:54Z</time></trkpt><trkpt lat="45.99102267277209" lon="11.119297258748064"><ele>180.0</ele><time>2026-05-02T08:19:55Z</time></trkpt><trkpt lat="45.991314291862565" lon="11.119499557078381"><ele>180.0</ele><time>2026-05-02T08:19:56Z</time></trkpt><trkpt lat="45.99160146971784" lon="11.119695636125263"><ele>180.0</ele><time>2026-05-02T08:19:57Z</time></trkpt><trkpt lat="45.9918815082604" lon="11.119889470817785"><ele>180.0</ele><time>2026-05-02T08:19:58Z</time></trkpt><trkpt lat="45.992157372389926" lon="11.12008078182604"><ele>180.0</ele><time>2026-05-02T08:19:59Z</time></trkpt><trkpt lat="45.992427159462245" lon="11.120268501528264"><ele>180.0</ele><time>2026-05-02T08:20:00Z</time></trkpt><trkpt lat="45.992683932711685" lon="11.120448439951057"><ele>180.5</ele><time>2026-05-02T08:20:01Z</time></trkpt><trkpt lat="45.992921448351474" lon="11.120617060824886"><ele>181.0</ele><time>2026-05-02T08:20:02Z</time></trkpt><trkpt lat="45.99315520743249" lon="11.120775058466402"><ele>181.5</ele><time>2026-05-02T08:20:03Z</time></trkpt><trkpt lat="45.99339251988765" lon="11.120930937051972"><ele>182.0</ele><time>2026-05-02T08:20:04Z</time></trkpt><trkpt lat="45.99363759113582" lon="11.121082013661725"><ele>182.0</ele><time>2026-05-02T08:20:05Z</time></trkpt><trkpt lat="45.99390042260452" lon="11.121235105600228"><ele>182.0</ele><time>2026-05-02T08:20:06Z</time></trkpt><trkpt lat="45.994172263492146" lon="11.121388478829944"><ele>181.5</ele><time>2026-05-02T08:20:07Z</time></trkpt><trkpt lat="45.994453380532406" lon="11.121534139742776"><ele>181.0</ele><time>2026-05-02T08:20:08Z</time></trkpt><trkpt lat="45.99474197648484" lon="11.121675339090494"><ele>181.0</ele><time>2026-05-02T08:20:09Z</time></trkpt><trkpt lat="45.99503918850726" lon="11.12181743945551"><ele>181.0</ele><time>2026-05-02T08:20:10Z</time></trkpt><trkpt lat="45.99533355889049" lon="11.121945152371765"><ele>181.0</ele><time>2026-05-02T08:20:11Z</time></trkpt><trkpt lat="45.995629087660525" lon="11.12206170114007"><ele>181.0</ele><time>2026-05-02T08:20:12Z</time></trkpt><trkpt lat="45.99593177764229" lon="11.122167125061496"><ele>181.0</ele><time>2026-05-02T08:20:13Z</time></trkpt><trkpt lat="45.99623617297241" lon="11.12226426837295"><ele>181.0</ele><time>2026-05-02T08:20:14Z</time></trkpt><trkpt lat="45.99654660339626" lon="11.12235114699495"><ele>181.5</ele><time>2026-05-02T08:20:15Z</time></trkpt><trkpt lat="45.99685483008765" lon="11.122426595548475"><ele>182.0</ele><time>2026-05-02T08:20:16Z</time></trkpt><trkpt lat="45.997160816977974" lon="11.122489553327966"><ele>182.0</ele><time>2026-05-02T08:20:17Z</time></trkpt><trkpt lat="45.997462907917104" lon="11.122540604263067"><ele>182.0</ele><time>2026-05-02T08:20:18Z</time></trkpt><trkpt lat="45.99774641046075" lon="11.122584647140926"><ele>181.5</ele><time>2026-05-02T08:20:19Z</time></trkpt><trkpt lat="45.998022335669205" lon="11.122627678208307"><ele>181.0</ele><time>2026-05-02T08:20:20Z</time></trkpt><trkpt lat="45.99829396278668" lon="11.122675152993212"><ele>180.5</ele><time>2026-05-02T08:20:21Z</time></trkpt><trkpt lat="45.9985616255254" lon="11.122720636334888"><ele>180.0</ele><time>2026-05-02T08:20:22Z</time></trkpt><trkpt lat="45.998842026593806" lon="11.122763816328286"><ele>180.0</ele><time>2026-05-02T08:20:23Z</time></trkpt><trkpt lat="45.999125440295394" lon="11.12280583110056"><ele>180.0</ele><time>2026-05-02T08:20:24Z</time></trkpt><trkpt lat="45.99940217645878" lon="11.122844727569696"><ele>180.5</ele><time>2026-05-02T08:20:25Z</time></trkpt><trkpt lat="45.99966938375215" lon="11.122884310939149"><ele>181.0</ele><time>2026-05-02T08:20:26Z</time></trkpt><trkpt lat="45.99992899785118" lon="11.122921996261626"><ele>181.0</ele><time>2026-05-02T08:20:27Z</time></trkpt><trkpt lat="46.00017530571136" lon="11.122958386998471"><ele>181.0</ele><time>2026-05-02T08:20:28Z</time></trkpt><trkpt lat="46.00041407903746" lon="11.122991478974239"><ele>181.0</ele><time>2026-05-02T08:20:29Z</time></trkpt><trkpt lat="46.0006577876077" lon="11.123023633775501"><ele>181.0</ele><time>2026-05-02T08:20:30Z</time></trkpt><trkpt lat="46.000904816318446" lon="11.123059533150743"><ele>180.0</ele><time>2026-05-02T08:20:31Z</time></trkpt><trkpt lat="46.0011385140105" lon="11.123092172110123"><ele>179.0</ele><time>2026-05-02T08:20:32Z</time></trkpt><trkpt lat="46.0013624631585" lon="11.123122823700834"><ele>179.0</ele><time>2026-05-02T08:20:33Z</time></trkpt><trkpt lat="46.00159020882154" lon="11.12315341028745"><ele>179.0</ele><time>2026-05-02T08:20:34Z</time></trkpt><trkpt lat="46.00182304807775" lon="11.123180301410661"><ele>179.0</ele><time>2026-05-02T08:20:35Z</time></trkpt><trkpt lat="46.00206154864335" lon="11.123206256167917"><ele>179.0</ele><time>2026-05-02T08:20:36Z</time></trkpt><trkpt lat="46.00230887137495" lon="11.123238165115534"><ele>180.0</ele><time>2026-05-02T08:20:37Z</time></trkpt><trkpt lat="46.00256949338089" lon="11.123280636389937"><ele>181.0</ele><time>2026-05-02T08:20:38Z</time></trkpt><trkpt lat="46.00283919836798" lon="11.123321399112653"><ele>181.0</ele><time>2026-05-02T08:20:39Z</time></trkpt><trkpt lat="46.003114456485946" lon="11.123357728893875"><ele>181.0</ele><time>2026-05-02T08:20:40Z</time></trkpt><trkpt lat="46.00338903261067" lon="11.123391616956528"><ele>181.0</ele><time>2026-05-02T08:20:41Z</time></trkpt><trkpt lat="46.00365943621717" lon="11.123429193267155"><ele>181.0</ele><time>2026-05-02T08:20:42Z</time></trkpt><trkpt lat="46.00392476004741" lon="11.12347183038779"><ele>182.5</ele><time>2026-05-02T08:20:43Z</time></trkpt><trkpt lat="46.004192600051525" lon="11.123511059421311"><ele>184.0</ele><time>2026-05-02T08:20:44Z</time></trkpt><trkpt lat="46.004454581533864" lon="11.123551743922393"><ele>184.0</ele><time>2026-05-02T08:20:45Z</time></trkpt><trkpt lat="46.00469966038531" lon="11.123590497979327"><ele>184.0</ele><time>2026-05-02T08:20:46Z</time></trkpt><trkpt lat="46.00493576479927" lon="11.123625051025689"><ele>183.0</ele><time>2026-05-02T08:20:47Z</time></trkpt><trkpt lat="46.005171453065515" lon="11.123657668490667"><ele>182.0</ele><time>2026-05-02T08:20:48Z</time></trkpt><trkpt lat="46.00541071911114" lon="11.12368830422852"><ele>182.0</ele><time>2026-05-02T08:20:49Z</time></trkpt><trkpt lat="46.00565485481281" lon="11.123721683551077"><ele>182.0</ele><time>2026-05-02T08:20:50Z</time></trkpt><trkpt lat="46.00588940431477" lon="11.123757767566698"><ele>181.5</ele><time>2026-05-02T08:20:51Z</time></trkpt><trkpt lat="46.00612298031401" lon="11.123791039380576"><ele>181.0</ele><time>2026-05-02T08:20:52Z</time></trkpt><trkpt lat="46.00637241813674" lon="11.123820062306136"><ele>181.0</ele><time>2026-05-02T08:20:53Z</time></trkpt><trkpt lat="46.00664039254699" lon="11.123844867864626"><ele>181.0</ele><time>2026-05-02T08:20:54Z</time></trkpt><trkpt lat="46.006870829201425" lon="11.123871314021107"><ele>181.0</ele><time>2026-05-02T08:20:54.999Z</time></trkpt><trkpt lat="46.0070632508124" lon="11.123892310231966"><ele>181.0</ele><time>2026-05-02T08:20:55.999Z</time></trkpt><trkpt lat="46.007249459129866" lon="11.123916185169227"><ele>181.0</ele><time>2026-05-02T08:20:56.999Z</time></trkpt><trkpt lat="46.00742755849677" lon="11.123942229205873"><ele>180.66666666666669</ele><time>2026-05-02T08:20:57.999Z</time></trkpt><trkpt lat="46.00759802596108" lon="11.123983863118719"><ele>180.33333333333334</ele><time>2026-05-02T08:20:58.999Z</time></trkpt><trkpt lat="46.00776330145792" lon="11.124041422341808"><ele>180.0</ele><time>2026-05-02T08:20:59.999Z</time></trkpt><trkpt lat="46.00792017523579" lon="11.124109995391294"><ele>180.33333333333334</ele><time>2026-05-02T08:21:00.999Z</time></trkpt><trkpt lat="46.008084668497965" lon="11.124196620707133"><ele>180.66666666666669</ele><time>2026-05-02T08:21:01.999Z</time></trkpt><trkpt lat="46.00826851802596" lon="11.124303597325248"><ele>181.0</ele><time>2026-05-02T08:21:02.999Z</time></trkpt><trkpt lat="46.00846538969712" lon="11.124432226033175"><ele>181.0</ele><time>2026-05-02T08:21:03.999Z</time></trkpt><trkpt lat="46.008674195747176" lon="11.124570339739435"><ele>181.0</ele><time>2026-05-02T08:21:04.999Z</time></trkpt><trkpt lat="46.00888793120559" lon="11.124702959186978"><ele>181.0</ele><time>2026-05-02T08:21:05.999Z</time></trkpt><trkpt lat="46.00909097563825" lon="11.124826297533204"><ele>181.0</ele><time>2026-05-02T08:21:06.999Z</time></trkpt><trkpt lat="46.00930031537566" lon="11.124941931348127"><ele>181.0</ele><time>2026-05-02T08:21:07.999Z</time></trkpt><trkpt lat="46.00951148965371" lon="11.125044485034127"><ele>181.0</ele><time>2026-05-02T08:21:08.999Z</time></trkpt><trkpt lat="46.00972301924026" lon="11.12513653821777"><ele>181.0</ele><time>2026-05-02T08:21:09.999Z</time></trkpt><trkpt lat="46.009940199163594" lon="11.125226177159655"><ele>181.0</ele><time>2026-05-02T08:21:10.999Z</time></trkpt><trkpt lat="46.01016099415299" lon="11.125312659966278"><ele>181.0</ele><time>2026-05-02T08:21:11.999Z</time></trkpt><trkpt lat="46.01037928454222" lon="11.125395495535043"><ele>181.0</ele><time>2026-05-02T08:21:12.999Z</time></trkpt><trkpt lat="46.01061748541252" lon="11.125481349698141"><ele>180.5</ele><time>2026-05-02T08:21:13.999Z</time></trkpt><trkpt lat="46.01087434395608" lon="11.12557663686588"><ele>180.0</ele><time>2026-05-02T08:21:14.999Z</time></trkpt><trkpt lat="46.01114429444522" lon="11.125679563020645"><ele>180.0</ele><time>2026-05-02T08:21:15.999Z</time></trkpt><trkpt lat="46.01142268083894" lon="11.125787607031832"><ele>180.0</ele><time>2026-05-02T08:21:16.999Z</time></trkpt><trkpt lat="46.01170670754201" lon="11.12589677649167"><ele>180.0</ele><time>2026-05-02T08:21:17.999Z</time></trkpt><trkpt lat="46.0119949937861" lon="11.126005820789187"><ele>180.0</ele><time>2026-05-02T08:21:18.999Z</time></trkpt><trkpt lat="46.01228588108629" lon="11.126107286133912"><ele>180.5</ele><time>2026-05-02T08:21:19.999Z</time></trkpt><trkpt lat="46.012566911917595" lon="11.12619639255387"><ele>181.0</ele><time>2026-05-02T08:21:20.999Z</time></trkpt><trkpt lat="46.01282948602922" lon="11.126261493754171"><ele>181.0</ele><time>2026-05-02T08:21:21.999Z</time></trkpt><trkpt lat="46.0130950749268" lon="11.126319783085162"><ele>181.0</ele><time>2026-05-02T08:21:22.999Z</time></trkpt><trkpt lat="46.01335909798983" lon="11.126380225876353"><ele>180.5</ele><time>2026-05-02T08:21:23.999Z</time></trkpt><trkpt lat="46.01360738477331" lon="11.126440598125976"><ele>180.0</ele><time>2026-05-02T08:21:24.999Z</time></trkpt><trkpt lat="46.01385266046288" lon="11.126499413727737"><ele>180.0</ele><time>2026-05-02T08:21:25.999Z</time></trkpt><trkpt lat="46.01410435363806" lon="11.12655887639281"><ele>180.0</ele><time>2026-05-02T08:21:26.999Z</time></trkpt><trkpt lat="46.01435941095157" lon="11.126620415038134"><ele>181.0</ele><time>2026-05-02T08:21:27.999Z</time></trkpt><trkpt lat="46.01460951323083" lon="11.126682962383619"><ele>182.0</ele><time>2026-05-02T08:21:28.999Z</time></trkpt><trkpt lat="46.014844103779566" lon="11.126735229194074"><ele>182.0</ele><time>2026-05-02T08:21:29.999Z</time></trkpt><trkpt lat="46.01508222525738" lon="11.12678746885576"><ele>182.0</ele><time>2026-05-02T08:21:30.999Z</time></trkpt><trkpt lat="46.01532367737122" lon="11.126842576290127"><ele>182.0</ele><time>2026-05-02T08:21:31.999Z</time></trkpt><trkpt lat="46.01556708427761" lon="11.126902622872741"><ele>182.0</ele><time>2026-05-02T08:21:32.999Z</time></trkpt><trkpt lat="46.015821433934875" lon="11.12696388492665"><ele>181.5</ele><time>2026-05-02T08:21:33.999Z</time></trkpt><trkpt lat="46.01608585892238" lon="11.12702774277537"><ele>181.0</ele><time>2026-05-02T08:21:34.999Z</time></trkpt><trkpt lat="46.01635903165848" lon="11.127094531389499"><ele>181.0</ele><time>2026-05-02T08:21:35.999Z</time></trkpt><trkpt lat="46.016636693965445" lon="11.127162069881692"><ele>181.0</ele><time>2026-05-02T08:21:36.999Z</time></trkpt><trkpt lat="46.016915242222424" lon="11.127227401068264"><ele>181.5</ele><time>2026-05-02T08:21:37.999Z</time></trkpt><trkpt lat="46.01719057182694" lon="11.127292768588944"><ele>182.0</ele><time>2026-05-02T08:21:38.999Z</time></trkpt><trkpt lat="46.01746493217622" lon="11.127356399926292"><ele>182.0</ele><time>2026-05-02T08:21:39.999Z</time></trkpt><trkpt lat="46.01773812085837" lon="11.127419271886263"><ele>182.0</ele><time>2026-05-02T08:21:40.999Z</time></trkpt><trkpt lat="46.01801212190743" lon="11.12748129762455"><ele>182.0</ele><time>2026-05-02T08:21:41.999Z</time></trkpt><trkpt lat="46.018280550119194" lon="11.127536745156778"><ele>182.0</ele><time>2026-05-02T08:21:42.999Z</time></trkpt><trkpt lat="46.01854489501764" lon="11.127583496460037"><ele>181.5</ele><time>2026-05-02T08:21:43.999Z</time></trkpt><trkpt lat="46.018804539783524" lon="11.127622346577661"><ele>181.0</ele><time>2026-05-02T08:21:44.999Z</time></trkpt><trkpt lat="46.01906021808944" lon="11.127657203963084"><ele>181.0</ele><time>2026-05-02T08:21:45.999Z</time></trkpt><trkpt lat="46.01932027599354" lon="11.127686189338544"><ele>181.0</ele><time>2026-05-02T08:21:47Z</time></trkpt><trkpt lat="46.01958402751396" lon="11.127708419999298"><ele>181.0</ele><time>2026-05-02T08:21:48Z</time></trkpt><trkpt lat="46.019849083132236" lon="11.127728821813244"><ele>181.0</ele><time>2026-05-02T08:21:49Z</time></trkpt><trkpt lat="46.02011342339956" lon="11.12774299095451"><ele>182.0</ele><time>2026-05-02T08:21:50Z</time></trkpt><trkpt lat="46.02037987154843" lon="11.127752982436867"><ele>183.0</ele><time>2026-05-02T08:21:51Z</time></trkpt><trkpt lat="46.02064836495072" lon="11.12775841328928"><ele>183.0</ele><time>2026-05-02T08:21:52Z</time></trkpt><trkpt lat="46.02091413401848" lon="11.12776094213978"><ele>183.0</ele><time>2026-05-02T08:21:53Z</time></trkpt><trkpt lat="46.02117920792004" lon="11.127759498805183"><ele>183.0</ele><time>2026-05-02T08:21:54Z</time></trkpt><trkpt lat="46.02144237618781" lon="11.127757255514013"><ele>183.0</ele><time>2026-05-02T08:21:55Z</time></trkpt><trkpt lat="46.021705396777676" lon="11.127756158705239"><ele>183.5</ele><time>2026-05-02T08:21:56Z</time></trkpt><trkpt lat="46.02196599652232" lon="11.127757986467508"><ele>184.0</ele><time>2026-05-02T08:21:57Z</time></trkpt><trkpt lat="46.022220791865664" lon="11.12776049102815"><ele>184.0</ele><time>2026-05-02T08:21:58Z</time></trkpt><trkpt lat="46.02247501688661" lon="11.127762741992761"><ele>184.0</ele><time>2026-05-02T08:21:59Z</time></trkpt><trkpt lat="46.0227273092495" lon="11.127763034595612"><ele>184.0</ele><time>2026-05-02T08:22:00Z</time></trkpt><trkpt lat="46.0229790904317" lon="11.127761556973784"><ele>184.0</ele><time>2026-05-02T08:22:01Z</time></trkpt><trkpt lat="46.023228235218525" lon="11.127761601168032"><ele>183.0</ele><time>2026-05-02T08:22:02Z</time></trkpt><trkpt lat="46.02347951755807" lon="11.127760953012924"><ele>182.0</ele><time>2026-05-02T08:22:03Z</time></trkpt><trkpt lat="46.02373358118049" lon="11.12776112455427"><ele>182.0</ele><time>2026-05-02T08:22:04Z</time></trkpt><trkpt lat="46.02398714336461" lon="11.127761633957256"><ele>182.0</ele><time>2026-05-02T08:22:05Z</time></trkpt><trkpt lat="46.02424064544759" lon="11.127762607166357"><ele>182.5</ele><time>2026-05-02T08:22:06Z</time></trkpt><trkpt lat="46.02449179504341" lon="11.127762175213427"><ele>183.0</ele><time>2026-05-02T08:22:07Z</time></trkpt><trkpt lat="46.02474832867786" lon="11.127761174285432"><ele>183.5</ele><time>2026-05-02T08:22:08Z</time></trkpt><trkpt lat="46.02501439448588" lon="11.127762253196641"><ele>184.0</ele><time>2026-05-02T08:22:09Z</time></trkpt><trkpt lat="46.02529067816379" lon="11.127764289326329"><ele>184.0</ele><time>2026-05-02T08:22:10Z</time></trkpt><trkpt lat="46.02557837587379" lon="11.127763230907217"><ele>184.0</ele><time>2026-05-02T08:22:11Z</time></trkpt><trkpt lat="46.025891518264984" lon="11.127766845348813"><ele>183.5</ele><time>2026-05-02T08:22:12Z</time></trkpt><trkpt lat="46.02621071221059" lon="11.127770920618472"><ele>183.0</ele><time>2026-05-02T08:22:13Z</time></trkpt><trkpt lat="46.02653721034296" lon="11.127770286050994"><ele>183.5</ele><time>2026-05-02T08:22:14Z</time></trkpt><trkpt lat="46.02686462436042" lon="11.127770971101352"><ele>184.0</ele><time>2026-05-02T08:22:15Z</time></trkpt><trkpt lat="46.02719168408093" lon="11.12777040744788"><ele>183.5</ele><time>2026-05-02T08:22:16Z</time></trkpt><trkpt lat="46.02751727945274" lon="11.127770186029466"><ele>183.0</ele><time>2026-05-02T08:22:17Z</time></trkpt><trkpt lat="46.02783915954142" lon="11.127768723289028"><ele>183.0</ele><time>2026-05-02T08:22:18Z</time></trkpt><trkpt lat="46.028156057356846" lon="11.127767598252774"><ele>183.0</ele><time>2026-05-02T08:22:19Z</time></trkpt><trkpt lat="46.02846676638748" lon="11.12776714177801"><ele>182.5</ele><time>2026-05-02T08:22:20Z</time></trkpt><trkpt lat="46.02877917909739" lon="11.127766831092831"><ele>182.0</ele><time>2026-05-02T08:22:21Z</time></trkpt><trkpt lat="46.02909381688063" lon="11.127768427343527"><ele>183.5</ele><time>2026-05-02T08:22:22Z</time></trkpt><trkpt lat="46.02941152192545" lon="11.127772025281443"><ele>185.0</ele><time>2026-05-02T08:22:23Z</time></trkpt><trkpt lat="46.02973139662267" lon="11.127773098278038"><ele>186.0</ele><time>2026-05-02T08:22:24Z</time></trkpt><trkpt lat="46.030053800970336" lon="11.127773740304148"><ele>187.0</ele><time>2026-05-02T08:22:25Z</time></trkpt><trkpt lat="46.03037301137168" lon="11.127775122790279"><ele>187.0</ele><time>2026-05-02T08:22:26Z</time></trkpt><trkpt lat="46.0306782283435" lon="11.127772838942514"><ele>187.0</ele><time>2026-05-02T08:22:27Z</time></trkpt><trkpt lat="46.03097640429415" lon="11.127768615686056"><ele>184.5</ele><time>2026-05-02T08:22:28Z</time></trkpt><trkpt lat="46.03126451505873" lon="11.127755900066196"><ele>182.0</ele><time>2026-05-02T08:22:29Z</time></trkpt><trkpt lat="46.03152917709942" lon="11.127720001971907"><ele>183.5</ele><time>2026-05-02T08:22:30Z</time></trkpt><trkpt lat="46.03179457222481" lon="11.127659125316864"><ele>185.0</ele><time>2026-05-02T08:22:31Z</time></trkpt><trkpt lat="46.03206245686336" lon="11.127575071646492"><ele>185.0</ele><time>2026-05-02T08:22:32Z</time></trkpt><trkpt lat="46.03232804398325" lon="11.127464800684393"><ele>185.0</ele><time>2026-05-02T08:22:33Z</time></trkpt><trkpt lat="46.032591016884965" lon="11.127329375062248"><ele>184.0</ele><time>2026-05-02T08:22:34Z</time></trkpt><trkpt lat="46.032852639655104" lon="11.127174305068323"><ele>183.0</ele><time>2026-05-02T08:22:35Z</time></trkpt><trkpt lat="46.03310799433708" lon="11.126991002011609"><ele>183.0</ele><time>2026-05-02T08:22:36Z</time></trkpt><trkpt lat="46.033364615295255" lon="11.126796399320678"><ele>183.0</ele><time>2026-05-02T08:22:37Z</time></trkpt><trkpt lat="46.03363345654513" lon="11.126602473025827"><ele>183.0</ele><time>2026-05-02T08:22:38Z</time></trkpt><trkpt lat="46.033905455016175" lon="11.12640460752787"><ele>183.0</ele><time>2026-05-02T08:22:39Z</time></trkpt><trkpt lat="46.03418480568527" lon="11.12622484008916"><ele>184.0</ele><time>2026-05-02T08:22:40Z</time></trkpt><trkpt lat="46.03446747193441" lon="11.126057342963607"><ele>185.0</ele><time>2026-05-02T08:22:41Z</time></trkpt><trkpt lat="46.03475222345916" lon="11.125896005904913"><ele>185.0</ele><time>2026-05-02T08:22:42Z</time></trkpt><trkpt lat="46.03504189538117" lon="11.125752300417897"><ele>185.0</ele><time>2026-05-02T08:22:43Z</time></trkpt><trkpt lat="46.035331993230734" lon="11.125616968886948"><ele>185.5</ele><time>2026-05-02T08:22:44Z</time></trkpt><trkpt lat="46.035620667555804" lon="11.125485935310577"><ele>186.0</ele><time>2026-05-02T08:22:45Z</time></trkpt><trkpt lat="46.03590521150598" lon="11.125367898053154"><ele>186.0</ele><time>2026-05-02T08:22:46Z</time></trkpt><trkpt lat="46.03617382286891" lon="11.125257666480344"><ele>186.0</ele><time>2026-05-02T08:22:47Z</time></trkpt><trkpt lat="46.03643383151105" lon="11.12513021338578"><ele>185.5</ele><time>2026-05-02T08:22:48Z</time></trkpt><trkpt lat="46.036681893234416" lon="11.124980231919183"><ele>185.0</ele><time>2026-05-02T08:22:49Z</time></trkpt><trkpt lat="46.03692409062341" lon="11.124816708918631"><ele>185.0</ele><time>2026-05-02T08:22:50Z</time></trkpt><trkpt lat="46.03715744984007" lon="11.124632380615123"><ele>185.0</ele><time>2026-05-02T08:22:51Z</time></trkpt><trkpt lat="46.037381915343175" lon="11.124424034595219"><ele>185.0</ele><time>2026-05-02T08:22:52Z</time></trkpt><trkpt lat="46.03760679052767" lon="11.12421387776147"><ele>185.0</ele><time>2026-05-02T08:22:53Z</time></trkpt><trkpt lat="46.03783292737377" lon="11.12400924764768"><ele>184.5</ele><time>2026-05-02T08:22:54Z</time></trkpt><trkpt lat="46.038063033059395" lon="11.123801904199716"><ele>184.0</ele><time>2026-05-02T08:22:55Z</time></trkpt><trkpt lat="46.038295409483595" lon="11.123593834701706"><ele>183.5</ele><time>2026-05-02T08:22:56Z</time></trkpt><trkpt lat="46.038532396004435" lon="11.123379526162145"><ele>183.0</ele><time>2026-05-02T08:22:57Z</time></trkpt><trkpt lat="46.0387661384626" lon="11.123168401484952"><ele>183.5</ele><time>2026-05-02T08:22:58Z</time></trkpt><trkpt lat="46.03897991555864" lon="11.122975492233877"><ele>184.0</ele><time>2026-05-02T08:22:59Z</time></trkpt><trkpt lat="46.03918507632396" lon="11.122785714604037"><ele>184.0</ele><time>2026-05-02T08:23:00Z</time></trkpt><trkpt lat="46.03938676475579" lon="11.122600996138129"><ele>184.0</ele><time>2026-05-02T08:23:01Z</time></trkpt><trkpt lat="46.03958936330031" lon="11.122402555740852"><ele>182.5</ele><time>2026-05-02T08:23:02Z</time></trkpt><trkpt lat="46.03978144546384" lon="11.122195203844237"><ele>181.0</ele><time>2026-05-02T08:23:03Z</time></trkpt><trkpt lat="46.03996223504515" lon="11.121989819089407"><ele>183.0</ele><time>2026-05-02T08:23:04Z</time></trkpt><trkpt lat="46.040148185777674" lon="11.121778574453948"><ele>185.0</ele><time>2026-05-02T08:23:05Z</time></trkpt><trkpt lat="46.04034241474093" lon="11.121566626179149"><ele>186.0</ele><time>2026-05-02T08:23:06Z</time></trkpt><trkpt lat="46.04054100848734" lon="11.121350293317029"><ele>187.0</ele><time>2026-05-02T08:23:07Z</time></trkpt><trkpt lat="46.04074315618217" lon="11.121122177181237"><ele>186.5</ele><time>2026-05-02T08:23:08Z</time></trkpt><trkpt lat="46.040947455552825" lon="11.120894533760994"><ele>186.0</ele><time>2026-05-02T08:23:09Z</time></trkpt><trkpt lat="46.041147494947076" lon="11.120672649424838"><ele>186.0</ele><time>2026-05-02T08:23:10Z</time></trkpt><trkpt lat="46.04134396294133" lon="11.120454524206087"><ele>186.0</ele><time>2026-05-02T08:23:10.999Z</time></trkpt><trkpt lat="46.04153597084351" lon="11.120242201197998"><ele>188.0</ele><time>2026-05-02T08:23:11.999Z</time></trkpt><trkpt lat="46.04172506264018" lon="11.120030515657936"><ele>190.0</ele><time>2026-05-02T08:23:12.999Z</time></trkpt><trkpt lat="46.04190923875866" lon="11.119824844987273"><ele>190.0</ele><time>2026-05-02T08:23:13.999Z</time></trkpt><trkpt lat="46.04208229165245" lon="11.11963451741925"><ele>190.0</ele><time>2026-05-02T08:23:14.999Z</time></trkpt><trkpt lat="46.04225273910003" lon="11.119446718544927"><ele>190.0</ele><time>2026-05-02T08:23:15.999Z</time></trkpt><trkpt lat="46.042423089171066" lon="11.119252447283868"><ele>189.0</ele><time>2026-05-02T08:23:16.999Z</time></trkpt><trkpt lat="46.04259832426873" lon="11.11905400537422"><ele>188.0</ele><time>2026-05-02T08:23:17.999Z</time></trkpt><trkpt lat="46.04277784933649" lon="11.118855661181708"><ele>187.0</ele><time>2026-05-02T08:23:18.999Z</time></trkpt><trkpt lat="46.042959254694374" lon="11.118657118711809"><ele>187.0</ele><time>2026-05-02T08:23:19.999Z</time></trkpt><trkpt lat="46.04314200798832" lon="11.118453403918645"><ele>187.0</ele><time>2026-05-02T08:23:20.999Z</time></trkpt><trkpt lat="46.043325631723306" lon="11.118245838031964"><ele>187.5</ele><time>2026-05-02T08:23:21.999Z</time></trkpt><trkpt lat="46.043512514931194" lon="11.11803683672281"><ele>188.0</ele><time>2026-05-02T08:23:22.999Z</time></trkpt><trkpt lat="46.0437004234085" lon="11.117831320068179"><ele>188.0</ele><time>2026-05-02T08:23:23.999Z</time></trkpt><trkpt lat="46.043888912949505" lon="11.117628042478627"><ele>188.0</ele><time>2026-05-02T08:23:24.999Z</time></trkpt><trkpt lat="46.0440870326387" lon="11.11743319736233"><ele>189.5</ele><time>2026-05-02T08:23:25.999Z</time></trkpt><trkpt lat="46.044298516882186" lon="11.117261760010006"><ele>191.0</ele><time>2026-05-02T08:23:26.999Z</time></trkpt><trkpt lat="46.0445227679382" lon="11.117122640176754"><ele>191.0</ele><time>2026-05-02T08:23:27.999Z</time></trkpt><trkpt lat="46.04475951282133" lon="11.117024731755622"><ele>191.0</ele><time>2026-05-02T08:23:28.999Z</time></trkpt><trkpt lat="46.0449977364632" lon="11.11695727619206"><ele>190.0</ele><time>2026-05-02T08:23:29.999Z</time></trkpt><trkpt lat="46.04523473831276" lon="11.116889735989382"><ele>189.0</ele><time>2026-05-02T08:23:30.999Z</time></trkpt><trkpt lat="46.04546427477283" lon="11.116800563544098"><ele>189.0</ele><time>2026-05-02T08:23:31.999Z</time></trkpt><trkpt lat="46.04568660129793" lon="11.116683873758628"><ele>189.0</ele><time>2026-05-02T08:23:32.999Z</time></trkpt><trkpt lat="46.04589471782202" lon="11.116529971096275"><ele>187.5</ele><time>2026-05-02T08:23:33.999Z</time></trkpt><trkpt lat="46.04609504413879" lon="11.116345397305885"><ele>186.0</ele><time>2026-05-02T08:23:34.999Z</time></trkpt><trkpt lat="46.04628881550282" lon="11.116141502561602"><ele>186.0</ele><time>2026-05-02T08:23:35.999Z</time></trkpt><trkpt lat="46.04647342139942" lon="11.115938224653847"><ele>186.0</ele><time>2026-05-02T08:23:36.999Z</time></trkpt><trkpt lat="46.04664761353879" lon="11.115738117542634"><ele>186.33333333333334</ele><time>2026-05-02T08:23:37.999Z</time></trkpt><trkpt lat="46.046795917230824" lon="11.115523818743975"><ele>186.66666666666669</ele><time>2026-05-02T08:23:38.999Z</time></trkpt><trkpt lat="46.04690700067379" lon="11.115286544104794"><ele>187.0</ele><time>2026-05-02T08:23:39.999Z</time></trkpt><trkpt lat="46.04698500307462" lon="11.115036096861097"><ele>187.33333333333334</ele><time>2026-05-02T08:23:40.999Z</time></trkpt><trkpt lat="46.047048234120304" lon="11.1147628033584"><ele>187.66666666666666</ele><time>2026-05-02T08:23:41.999Z</time></trkpt><trkpt lat="46.047116211421454" lon="11.114479528038187"><ele>188.0</ele><time>2026-05-02T08:23:42.999Z</time></trkpt><trkpt lat="46.047192995727904" lon="11.114223526832243"><ele>188.0</ele><time>2026-05-02T08:23:43.999Z</time></trkpt><trkpt lat="46.04728606169552" lon="11.113991605365909"><ele>188.0</ele><time>2026-05-02T08:23:44.999Z</time></trkpt><trkpt lat="46.04741137877108" lon="11.11378287634099"><ele>188.0</ele><time>2026-05-02T08:23:45.999Z</time></trkpt><trkpt lat="46.047571693380824" lon="11.113596394465418"><ele>188.0</ele><time>2026-05-02T08:23:46.999Z</time></trkpt><trkpt lat="46.04775674978095" lon="11.113439780935591"><ele>188.0</ele><time>2026-05-02T08:23:47.999Z</time></trkpt><trkpt lat="46.04794539190415" lon="11.113304665579717"><ele>188.0</ele><time>2026-05-02T08:23:48.999Z</time></trkpt><trkpt lat="46.048120682125685" lon="11.11317151247684"><ele>188.33333333333331</ele><time>2026-05-02T08:23:49.999Z</time></trkpt><trkpt lat="46.04828978374701" lon="11.113045261147395"><ele>188.66666666666666</ele><time>2026-05-02T08:23:50.999Z</time></trkpt><trkpt lat="46.04845064321933" lon="11.112919952932424"><ele>189.0</ele><time>2026-05-02T08:23:52Z</time></trkpt><trkpt lat="46.04861373239776" lon="11.112794677175708"><ele>189.0</ele><time>2026-05-02T08:23:53Z</time></trkpt><trkpt lat="46.04880024618219" lon="11.11266760058277"><ele>189.0</ele><time>2026-05-02T08:23:54Z</time></trkpt><trkpt lat="46.04900874671787" lon="11.112564052380439"><ele>189.0</ele><time>2026-05-02T08:23:55Z</time></trkpt><trkpt lat="46.04923884853252" lon="11.112496030215238"><ele>189.5</ele><time>2026-05-02T08:23:56Z</time></trkpt><trkpt lat="46.049477447395034" lon="11.112467643713744"><ele>190.0</ele><time>2026-05-02T08:23:57Z</time></trkpt><trkpt lat="46.049717474536216" lon="11.112491241249534"><ele>190.0</ele><time>2026-05-02T08:23:58Z</time></trkpt><trkpt lat="46.04995100515897" lon="11.112554405601047"><ele>190.0</ele><time>2026-05-02T08:23:59Z</time></trkpt><trkpt lat="46.05017672280075" lon="11.112644536864826"><ele>188.5</ele><time>2026-05-02T08:24:00Z</time></trkpt><trkpt lat="46.05039953873553" lon="11.112751877734462"><ele>187.0</ele><time>2026-05-02T08:24:01Z</time></trkpt><trkpt lat="46.05062752056336" lon="11.112861520896436"><ele>186.5</ele><time>2026-05-02T08:24:02Z</time></trkpt><trkpt lat="46.05086668455559" lon="11.112948411965942"><ele>186.0</ele><time>2026-05-02T08:24:03Z</time></trkpt><trkpt lat="46.05111476616361" lon="11.11299183225042"><ele>186.0</ele><time>2026-05-02T08:24:04Z</time></trkpt><trkpt lat="46.051363013331155" lon="11.11298146437149"><ele>186.0</ele><time>2026-05-02T08:24:05Z</time></trkpt><trkpt lat="46.05160910809896" lon="11.112930249840597"><ele>187.0</ele><time>2026-05-02T08:24:06Z</time></trkpt><trkpt lat="46.051840043528316" lon="11.112830161335614"><ele>188.0</ele><time>2026-05-02T08:24:07Z</time></trkpt><trkpt lat="46.05206054302402" lon="11.11268471105686"><ele>188.0</ele><time>2026-05-02T08:24:08Z</time></trkpt><trkpt lat="46.052260695335434" lon="11.112515545754421"><ele>188.0</ele><time>2026-05-02T08:24:09Z</time></trkpt><trkpt lat="46.05244414143797" lon="11.112310265025538"><ele>188.0</ele><time>2026-05-02T08:24:10Z</time></trkpt><trkpt lat="46.05261306018561" lon="11.11205992715698"><ele>188.0</ele><time>2026-05-02T08:24:11Z</time></trkpt><trkpt lat="46.05277616224033" lon="11.111795257010264"><ele>189.5</ele><time>2026-05-02T08:24:12Z</time></trkpt><trkpt lat="46.05293054874833" lon="11.111549189188896"><ele>191.0</ele><time>2026-05-02T08:24:13Z</time></trkpt><trkpt lat="46.053083791496" lon="11.111314437727646"><ele>191.0</ele><time>2026-05-02T08:24:14Z</time></trkpt><trkpt lat="46.05323766914379" lon="11.111076294868607"><ele>191.0</ele><time>2026-05-02T08:24:15Z</time></trkpt><trkpt lat="46.05338682088473" lon="11.110841693040834"><ele>191.0</ele><time>2026-05-02T08:24:16Z</time></trkpt><trkpt lat="46.05352873283358" lon="11.110622139459046"><ele>190.33333333333331</ele><time>2026-05-02T08:24:17Z</time></trkpt><trkpt lat="46.05366588531781" lon="11.110406778373816"><ele>189.66666666666666</ele><time>2026-05-02T08:24:18Z</time></trkpt><trkpt lat="46.05380648737533" lon="11.110187170759238"><ele>189.0</ele><time>2026-05-02T08:24:19Z</time></trkpt><trkpt lat="46.05394816149679" lon="11.109974275604763"><ele>188.33333333333334</ele><time>2026-05-02T08:24:20Z</time></trkpt><trkpt lat="46.0540941072963" lon="11.109777815132968"><ele>187.66666666666669</ele><time>2026-05-02T08:24:21Z</time></trkpt><trkpt lat="46.05425520082507" lon="11.109609322051572"><ele>187.0</ele><time>2026-05-02T08:24:22Z</time></trkpt><trkpt lat="46.054417874859936" lon="11.109472333687034"><ele>187.0</ele><time>2026-05-02T08:24:23Z</time></trkpt><trkpt lat="46.05458063497965" lon="11.109357950494227"><ele>187.0</ele><time>2026-05-02T08:24:24Z</time></trkpt><trkpt lat="46.054755500878336" lon="11.109268213137854"><ele>187.0</ele><time>2026-05-02T08:24:25Z</time></trkpt><trkpt lat="46.05494525888077" lon="11.109202657179436"><ele>187.0</ele><time>2026-05-02T08:24:26Z</time></trkpt><trkpt lat="46.05514331406754" lon="11.109170129852364"><ele>187.0</ele><time>2026-05-02T08:24:27Z</time></trkpt><trkpt lat="46.05534829618399" lon="11.109146582592905"><ele>187.0</ele><time>2026-05-02T08:24:28Z</time></trkpt><trkpt lat="46.055559679052564" lon="11.109143923848231"><ele>187.0</ele><time>2026-05-02T08:24:29Z</time></trkpt><trkpt lat="46.055771221473144" lon="11.10916903519799"><ele>187.0</ele><time>2026-05-02T08:24:30Z</time></trkpt><trkpt lat="46.055978949362526" lon="11.10920695393566"><ele>187.0</ele><time>2026-05-02T08:24:31Z</time></trkpt><trkpt lat="46.056189763074094" lon="11.10924954126971"><ele>187.33333333333334</ele><time>2026-05-02T08:24:32Z</time></trkpt><trkpt lat="46.05640306187443" lon="11.109301541306081"><ele>187.66666666666666</ele><time>2026-05-02T08:24:33Z</time></trkpt><trkpt lat="46.05660896851205" lon="11.109359108574631"><ele>188.0</ele><time>2026-05-02T08:24:34Z</time></trkpt><trkpt lat="46.0568017537768" lon="11.109407821210258"><ele>189.0</ele><time>2026-05-02T08:24:35Z</time></trkpt><trkpt lat="46.056998726544194" lon="11.109456665698358"><ele>190.0</ele><time>2026-05-02T08:24:36Z</time></trkpt><trkpt lat="46.05720489935483" lon="11.10951260297234"><ele>191.0</ele><time>2026-05-02T08:24:37Z</time></trkpt><trkpt lat="46.057416430719" lon="11.109569622949552"><ele>189.5</ele><time>2026-05-02T08:24:38Z</time></trkpt><trkpt lat="46.05762294608756" lon="11.10962617340191"><ele>188.0</ele><time>2026-05-02T08:24:39Z</time></trkpt><trkpt lat="46.05785838472656" lon="11.109423884396175"><ele>188.0</ele><time>2026-05-02T08:24:40Z</time></trkpt><trkpt lat="46.05805394361649" lon="11.109472899835453"><ele>188.0</ele><time>2026-05-02T08:24:41Z</time></trkpt><trkpt lat="46.05824560480204" lon="11.109520938482849"><ele>188.0</ele><time>2026-05-02T08:24:42Z</time></trkpt><trkpt lat="46.058439149247285" lon="11.109569449159643"><ele>189.0</ele><time>2026-05-02T08:24:43Z</time></trkpt><trkpt lat="46.058632021754" lon="11.109631521406225"><ele>190.0</ele><time>2026-05-02T08:24:44Z</time></trkpt><trkpt lat="46.0587979236422" lon="11.10993714232148"><ele>190.0</ele><time>2026-05-02T08:24:45Z</time></trkpt><trkpt lat="46.05899952680082" lon="11.109989745283565"><ele>190.0</ele><time>2026-05-02T08:24:46Z</time></trkpt><trkpt lat="46.05920653474677" lon="11.110045861702783"><ele>190.0</ele><time>2026-05-02T08:24:47Z</time></trkpt><trkpt lat="46.05941665747968" lon="11.110101316999534"><ele>190.0</ele><time>2026-05-02T08:24:48Z</time></trkpt><trkpt lat="46.05963174815219" lon="11.110156113635057"><ele>190.0</ele><time>2026-05-02T08:24:49Z</time></trkpt><trkpt lat="46.05985245820279" lon="11.110216422072677"><ele>190.0</ele><time>2026-05-02T08:24:50Z</time></trkpt><trkpt lat="46.06007963378858" lon="11.110280015976317"><ele>192.0</ele><time>2026-05-02T08:24:51Z</time></trkpt><trkpt lat="46.06031110990629" lon="11.11034539106884"><ele>194.0</ele><time>2026-05-02T08:24:52Z</time></trkpt><trkpt lat="46.06053850950493" lon="11.110408714101155"><ele>194.0</ele><time>2026-05-02T08:24:53Z</time></trkpt><trkpt lat="46.06076653456038" lon="11.110470235632716"><ele>194.0</ele><time>2026-05-02T08:24:54Z</time></trkpt><trkpt lat="46.06100081230982" lon="11.110536627534165"><ele>194.5</ele><time>2026-05-02T08:24:55Z</time></trkpt><trkpt lat="46.06124542422104" lon="11.110604468096115"><ele>195.0</ele><time>2026-05-02T08:24:56Z</time></trkpt><trkpt lat="46.06150045709981" lon="11.110672161302634"><ele>196.5</ele><time>2026-05-02T08:24:57Z</time></trkpt><trkpt lat="46.06175808556708" lon="11.110739407274448"><ele>198.0</ele><time>2026-05-02T08:24:58Z</time></trkpt><trkpt lat="46.06201391466012" lon="11.110805606120845"><ele>194.0</ele><time>2026-05-02T08:24:59Z</time></trkpt><trkpt lat="46.0622667433349" lon="11.110874937761706"><ele>190.0</ele><time>2026-05-02T08:25:00Z</time></trkpt><trkpt lat="46.062507052636604" lon="11.110940297391776"><ele>190.0</ele><time>2026-05-02T08:25:01Z</time></trkpt><trkpt lat="46.06273669051764" lon="11.110998149091804"><ele>190.0</ele><time>2026-05-02T08:25:02Z</time></trkpt><trkpt lat="46.062960030174494" lon="11.111056720144905"><ele>190.0</ele><time>2026-05-02T08:25:03Z</time></trkpt><trkpt lat="46.06318189790412" lon="11.111112476575213"><ele>190.0</ele><time>2026-05-02T08:25:04Z</time></trkpt><trkpt lat="46.06340687903957" lon="11.111176020565148"><ele>189.66666666666669</ele><time>2026-05-02T08:25:05Z</time></trkpt><trkpt lat="46.06362916403133" lon="11.111240121185741"><ele>189.33333333333334</ele><time>2026-05-02T08:25:06Z</time></trkpt><trkpt lat="46.06384457903957" lon="11.111297144801231"><ele>189.0</ele><time>2026-05-02T08:25:07Z</time></trkpt><trkpt lat="46.064045154442766" lon="11.111348221951935"><ele>189.66666666666666</ele><time>2026-05-02T08:25:08Z</time></trkpt><trkpt lat="46.06425232748832" lon="11.111387329819644"><ele>190.33333333333331</ele><time>2026-05-02T08:25:09Z</time></trkpt><trkpt lat="46.06446143430063" lon="11.11141643104077"><ele>191.0</ele><time>2026-05-02T08:25:10Z</time></trkpt><trkpt lat="46.0646755706231" lon="11.111430753103622"><ele>191.0</ele><time>2026-05-02T08:25:11Z</time></trkpt><trkpt lat="46.06489944932336" lon="11.111438451197568"><ele>191.0</ele><time>2026-05-02T08:25:12Z</time></trkpt><trkpt lat="46.06513072367494" lon="11.111431419650234"><ele>189.0</ele><time>2026-05-02T08:25:13Z</time></trkpt><trkpt lat="46.065373280466524" lon="11.111407534809336"><ele>187.0</ele><time>2026-05-02T08:25:14Z</time></trkpt><trkpt lat="46.06562276008202" lon="11.111364997661338"><ele>190.5</ele><time>2026-05-02T08:25:15Z</time></trkpt><trkpt lat="46.065875585017764" lon="11.11130900641673"><ele>194.0</ele><time>2026-05-02T08:25:16Z</time></trkpt><trkpt lat="46.066125395320775" lon="11.111253942434745"><ele>194.0</ele><time>2026-05-02T08:25:17Z</time></trkpt><trkpt lat="46.06636673183167" lon="11.11117201041175"><ele>194.0</ele><time>2026-05-02T08:25:18Z</time></trkpt><trkpt lat="46.06659070154533" lon="11.111069019619537"><ele>195.5</ele><time>2026-05-02T08:25:18.999Z</time></trkpt><trkpt lat="46.0668203376199" lon="11.11094969609149"><ele>197.0</ele><time>2026-05-02T08:25:19.999Z</time></trkpt><trkpt lat="46.06704497414949" lon="11.110831780368366"><ele>217.33333333333334</ele><time>2026-05-02T08:25:20.999Z</time></trkpt><trkpt lat="46.0672557690793" lon="11.110716087753786"><ele>237.66666666666669</ele><time>2026-05-02T08:25:21.999Z</time></trkpt><trkpt lat="46.06745407047263" lon="11.110581372659114"><ele>258.0</ele><time>2026-05-02T08:25:22.999Z</time></trkpt><trkpt lat="46.067657539546836" lon="11.110423995530994"><ele>267.0</ele><time>2026-05-02T08:25:23.999Z</time></trkpt><trkpt lat="46.06786405336384" lon="11.110247976870268"><ele>276.0</ele><time>2026-05-02T08:25:24.999Z</time></trkpt><trkpt lat="46.06807720050294" lon="11.110058396226338"><ele>278.5</ele><time>2026-05-02T08:25:25.999Z</time></trkpt><trkpt lat="46.068300054877255" lon="11.10986340324687"><ele>281.0</ele><time>2026-05-02T08:25:26.999Z</time></trkpt><trkpt lat="46.068529353321104" lon="11.109666617232893"><ele>281.0</ele><time>2026-05-02T08:25:27.999Z</time></trkpt><trkpt lat="46.06874689512577" lon="11.109477824959042"><ele>281.0</ele><time>2026-05-02T08:25:28.999Z</time></trkpt><trkpt lat="46.068966104591546" lon="11.109302002723734"><ele>276.0</ele><time>2026-05-02T08:25:29.999Z</time></trkpt><trkpt lat="46.06919076295375" lon="11.109154025299652"><ele>271.0</ele><time>2026-05-02T08:25:30.999Z</time></trkpt><trkpt lat="46.069419154118286" lon="11.109042854905589"><ele>271.0</ele><time>2026-05-02T08:25:31.999Z</time></trkpt><trkpt lat="46.069656332283216" lon="11.108961684646442"><ele>271.0</ele><time>2026-05-02T08:25:32.999Z</time></trkpt><trkpt lat="46.069890779813484" lon="11.10889725859463"><ele>264.5</ele><time>2026-05-02T08:25:33.999Z</time></trkpt><trkpt lat="46.070214526145904" lon="11.109008854808128"><ele>258.0</ele><time>2026-05-02T08:25:34.999Z</time></trkpt><trkpt lat="46.07041424124647" lon="11.109061680247667"><ele>251.66666666666669</ele><time>2026-05-02T08:25:35.999Z</time></trkpt><trkpt lat="46.07060782568115" lon="11.10912724840007"><ele>245.33333333333334</ele><time>2026-05-02T08:25:36.999Z</time></trkpt><trkpt lat="46.07081018805849" lon="11.109231827955746"><ele>239.0</ele><time>2026-05-02T08:25:37.999Z</time></trkpt><trkpt lat="46.07101480743832" lon="11.109353237713643"><ele>231.0</ele><time>2026-05-02T08:25:38.999Z</time></trkpt><trkpt lat="46.07121837560711" lon="11.109500569260426"><ele>223.0</ele><time>2026-05-02T08:25:39.999Z</time></trkpt><trkpt lat="46.071413422685865" lon="11.109675251137894"><ele>223.0</ele><time>2026-05-02T08:25:40.999Z</time></trkpt><trkpt lat="46.07160073924116" lon="11.10987622784901"><ele>223.0</ele><time>2026-05-02T08:25:41.999Z</time></trkpt><trkpt lat="46.07178891153433" lon="11.11007139216441"><ele>229.0</ele><time>2026-05-02T08:25:42.999Z</time></trkpt><trkpt lat="46.07196450196311" lon="11.110256223551385"><ele>235.0</ele><time>2026-05-02T08:25:43.999Z</time></trkpt><trkpt lat="46.07213790050498" lon="11.110451350593692"><ele>241.0</ele><time>2026-05-02T08:25:44.999Z</time></trkpt><trkpt lat="46.07231444583617" lon="11.110641100196027"><ele>270.0</ele><time>2026-05-02T08:25:45.999Z</time></trkpt><trkpt lat="46.072508194557926" lon="11.110856036484572"><ele>299.0</ele><time>2026-05-02T08:25:46.999Z</time></trkpt><trkpt lat="46.072698404964335" lon="11.111069596800622"><ele>299.0</ele><time>2026-05-02T08:25:47.999Z</time></trkpt><trkpt lat="46.07290186321406" lon="11.111283696645726"><ele>299.0</ele><time>2026-05-02T08:25:48.999Z</time></trkpt><trkpt lat="46.07312176619979" lon="11.11149939064693"><ele>298.5</ele><time>2026-05-02T08:25:49.999Z</time></trkpt><trkpt lat="46.073369535141495" lon="11.11173990556776"><ele>298.0</ele><time>2026-05-02T08:25:50.999Z</time></trkpt><trkpt lat="46.07365259765337" lon="11.111991092320947"><ele>298.0</ele><time>2026-05-02T08:25:51.999Z</time></trkpt><trkpt lat="46.07392590531333" lon="11.112210800828395"><ele>298.0</ele><time>2026-05-02T08:25:52.999Z</time></trkpt><trkpt lat="46.074201564149476" lon="11.112424786558892"><ele>285.3333333333333</ele><time>2026-05-02T08:25:53.999Z</time></trkpt><trkpt lat="46.07445387693006" lon="11.112520588610623"><ele>272.6666666666667</ele><time>2026-05-02T08:25:54.999Z</time></trkpt><trkpt lat="46.07461742585815" lon="11.112562823933143"><ele>260.0</ele><time>2026-05-02T08:25:55.999Z</time></trkpt><trkpt lat="46.07479600743513" lon="11.112644982978196"><ele>243.25</ele><time>2026-05-02T08:25:56.999Z</time></trkpt><trkpt lat="46.07496962089455" lon="11.112698239027416"><ele>226.5</ele><time>2026-05-02T08:25:57.999Z</time></trkpt><trkpt lat="46.0750940198385" lon="11.112720598449057"><ele>209.75</ele><time>2026-05-02T08:25:58.999Z</time></trkpt><trkpt lat="46.07520303646711" lon="11.112739114996124"><ele>193.0</ele><time>2026-05-02T08:25:59.999Z</time></trkpt><trkpt lat="46.07530917600273" lon="11.112755616130983"><ele>193.0</ele><time>2026-05-02T08:26:00.999Z</time></trkpt><trkpt lat="46.07495892505423" lon="11.112602154164685"><ele>193.0</ele><time>2026-05-02T08:26:02.001Z</time></trkpt><trkpt lat="46.0750527976918" lon="11.112583598213838"><ele>193.0</ele><time>2026-05-02T08:26:03.001Z</time></trkpt><trkpt lat="46.07519644963821" lon="11.112613145382122"><ele>193.0</ele><time>2026-05-02T08:26:05.001Z</time></trkpt><trkpt lat="46.075294704788696" lon="11.112616912354431"><ele>193.0</ele><time>2026-05-02T08:26:06.001Z</time></trkpt><trkpt lat="46.07541227155032" lon="11.112636735270652"><ele>193.0</ele><time>2026-05-02T08:26:07.001Z</time></trkpt><trkpt lat="46.07553899922162" lon="11.112651014089728"><ele>193.0</ele><time>2026-05-02T08:26:08.001Z</time></trkpt><trkpt lat="46.075665437282034" lon="11.112662383345182"><ele>193.0</ele><time>2026-05-02T08:26:09.001Z</time></trkpt><trkpt lat="46.075803566516534" lon="11.11267063907768"><ele>193.0</ele><time>2026-05-02T08:26:10.001Z</time></trkpt><trkpt lat="46.07594633065349" lon="11.112669895168825"><ele>193.0</ele><time>2026-05-02T08:26:11.001Z</time></trkpt><trkpt lat="46.076092254283985" lon="11.112665025787646"><ele>193.0</ele><time>2026-05-02T08:26:12.001Z</time></trkpt><trkpt lat="46.07624977339279" lon="11.112655830130832"><ele>193.0</ele><time>2026-05-02T08:26:13.001Z</time></trkpt><trkpt lat="46.07642010100631" lon="11.112642309817062"><ele>193.0</ele><time>2026-05-02T08:26:14Z</time></trkpt><trkpt lat="46.07660373792677" lon="11.112611851707925"><ele>193.0</ele><time>2026-05-02T08:26:15Z</time></trkpt><trkpt lat="46.07684146095929" lon="11.112574401879005"><ele>193.0</ele><time>2026-05-02T08:26:16Z</time></trkpt><trkpt lat="46.0770795872618" lon="11.11251870186829"><ele>193.0</ele><time>2026-05-02T08:26:17Z</time></trkpt><trkpt lat="46.07730582341968" lon="11.112445548245516"><ele>193.0</ele><time>2026-05-02T08:26:18Z</time></trkpt><trkpt lat="46.07753785220833" lon="11.11235467819329"><ele>192.0</ele><time>2026-05-02T08:26:19Z</time></trkpt><trkpt lat="46.07777964448216" lon="11.112268219992675"><ele>191.0</ele><time>2026-05-02T08:26:20Z</time></trkpt><trkpt lat="46.07800806523892" lon="11.112208330920971"><ele>191.0</ele><time>2026-05-02T08:26:21Z</time></trkpt><trkpt lat="46.07822565780238" lon="11.112173459639765"><ele>191.0</ele><time>2026-05-02T08:26:22Z</time></trkpt><trkpt lat="46.07845211765541" lon="11.112181499033213"><ele>191.0</ele><time>2026-05-02T08:26:23Z</time></trkpt><trkpt lat="46.078672038622905" lon="11.11222175947251"><ele>190.66666666666666</ele><time>2026-05-02T08:26:24Z</time></trkpt><trkpt lat="46.078884897815435" lon="11.112287086675606"><ele>190.33333333333334</ele><time>2026-05-02T08:26:25Z</time></trkpt><trkpt lat="46.07908086972956" lon="11.112369290680867"><ele>190.0</ele><time>2026-05-02T08:26:26Z</time></trkpt><trkpt lat="46.07926954045724" lon="11.112465597764693"><ele>190.0</ele><time>2026-05-02T08:26:27Z</time></trkpt><trkpt lat="46.079460079602235" lon="11.112570443180559"><ele>190.0</ele><time>2026-05-02T08:26:27.999Z</time></trkpt><trkpt lat="46.0796519060295" lon="11.112675193624577"><ele>190.0</ele><time>2026-05-02T08:26:28.999Z</time></trkpt><trkpt lat="46.07986460847672" lon="11.112788017981005"><ele>190.0</ele><time>2026-05-02T08:26:29.999Z</time></trkpt><trkpt lat="46.080103229949714" lon="11.11292276683659"><ele>190.0</ele><time>2026-05-02T08:26:30.999Z</time></trkpt><trkpt lat="46.08033458253127" lon="11.113057694737577"><ele>190.0</ele><time>2026-05-02T08:26:31.999Z</time></trkpt><trkpt lat="46.08056666842484" lon="11.113181039364479"><ele>190.0</ele><time>2026-05-02T08:26:32.999Z</time></trkpt><trkpt lat="46.080794562911606" lon="11.113298054723051"><ele>190.0</ele><time>2026-05-02T08:26:33.999Z</time></trkpt><trkpt lat="46.08100734667542" lon="11.113415320013452"><ele>190.0</ele><time>2026-05-02T08:26:34.999Z</time></trkpt><trkpt lat="46.08123709225667" lon="11.113511735149554"><ele>190.0</ele><time>2026-05-02T08:26:35.999Z</time></trkpt><trkpt lat="46.08147426719057" lon="11.113578164973221"><ele>190.0</ele><time>2026-05-02T08:26:36.999Z</time></trkpt><trkpt lat="46.08171357362044" lon="11.113606092925789"><ele>191.0</ele><time>2026-05-02T08:26:37.999Z</time></trkpt><trkpt lat="46.081949575508204" lon="11.113580619023272"><ele>192.0</ele><time>2026-05-02T08:26:38.999Z</time></trkpt><trkpt lat="46.082181976046186" lon="11.113507079984737"><ele>192.0</ele><time>2026-05-02T08:26:39.999Z</time></trkpt><trkpt lat="46.082413182095394" lon="11.113389699921264"><ele>192.0</ele><time>2026-05-02T08:26:40.999Z</time></trkpt><trkpt lat="46.08263762171197" lon="11.11323846263849"><ele>191.0</ele><time>2026-05-02T08:26:41.999Z</time></trkpt><trkpt lat="46.08284335449925" lon="11.113056776189437"><ele>190.0</ele><time>2026-05-02T08:26:42.999Z</time></trkpt><trkpt lat="46.08305618119998" lon="11.11286677799227"><ele>190.0</ele><time>2026-05-02T08:26:43.999Z</time></trkpt><trkpt lat="46.083251017351586" lon="11.112619737630984"><ele>190.0</ele><time>2026-05-02T08:26:44.999Z</time></trkpt><trkpt lat="46.083397672424326" lon="11.112242204332993"><ele>191.5</ele><time>2026-05-02T08:26:45.999Z</time></trkpt><trkpt lat="46.08358655377276" lon="11.111889122686216"><ele>193.0</ele><time>2026-05-02T08:26:46.999Z</time></trkpt><trkpt lat="46.08378980850782" lon="11.11150881258075"><ele>193.0</ele><time>2026-05-02T08:26:47.999Z</time></trkpt><trkpt lat="46.08401058733219" lon="11.111114484754678"><ele>193.0</ele><time>2026-05-02T08:26:48.999Z</time></trkpt><trkpt lat="46.084235543283384" lon="11.110715847008946"><ele>192.0</ele><time>2026-05-02T08:26:49.999Z</time></trkpt><trkpt lat="46.084452070315024" lon="11.110328508080432"><ele>191.0</ele><time>2026-05-02T08:26:50.999Z</time></trkpt><trkpt lat="46.08466499100333" lon="11.109943684884875"><ele>190.5</ele><time>2026-05-02T08:26:51.999Z</time></trkpt><trkpt lat="46.08488557812896" lon="11.109544970387944"><ele>190.0</ele><time>2026-05-02T08:26:52.999Z</time></trkpt><trkpt lat="46.0851079343019" lon="11.10914396370117"><ele>190.5</ele><time>2026-05-02T08:26:53.999Z</time></trkpt><trkpt lat="46.08532448387802" lon="11.108755534803509"><ele>191.0</ele><time>2026-05-02T08:26:54.999Z</time></trkpt><trkpt lat="46.08554110413429" lon="11.108362008747763"><ele>190.0</ele><time>2026-05-02T08:26:55.999Z</time></trkpt><trkpt lat="46.08576360856101" lon="11.107962655068947"><ele>189.0</ele><time>2026-05-02T08:26:56.999Z</time></trkpt><trkpt lat="46.0859780698576" lon="11.107575548855262"><ele>189.5</ele><time>2026-05-02T08:26:57.999Z</time></trkpt><trkpt lat="46.086181949251404" lon="11.107212934915067"><ele>190.0</ele><time>2026-05-02T08:26:58.999Z</time></trkpt><trkpt lat="46.086379839978065" lon="11.106859251656086"><ele>190.0</ele><time>2026-05-02T08:26:59.999Z</time></trkpt><trkpt lat="46.086563009418704" lon="11.106537173324906"><ele>190.0</ele><time>2026-05-02T08:27:00.999Z</time></trkpt><trkpt lat="46.086736403293635" lon="11.106229233698734"><ele>190.5</ele><time>2026-05-02T08:27:01.999Z</time></trkpt><trkpt lat="46.08690862041174" lon="11.105933939641027"><ele>191.0</ele><time>2026-05-02T08:27:02.999Z</time></trkpt><trkpt lat="46.08708743918543" lon="11.105661850135109"><ele>191.0</ele><time>2026-05-02T08:27:03.999Z</time></trkpt><trkpt lat="46.08728516243528" lon="11.105395659583916"><ele>191.0</ele><time>2026-05-02T08:27:04.999Z</time></trkpt><trkpt lat="46.087504279662234" lon="11.105115370521208"><ele>191.0</ele><time>2026-05-02T08:27:05.999Z</time></trkpt><trkpt lat="46.08774868071783" lon="11.104837243129095"><ele>191.0</ele><time>2026-05-02T08:27:06.999Z</time></trkpt><trkpt lat="46.08799652930417" lon="11.104581081727238"><ele>191.0</ele><time>2026-05-02T08:27:07.999Z</time></trkpt><trkpt lat="46.088243104537085" lon="11.104354902346982"><ele>191.0</ele><time>2026-05-02T08:27:08.999Z</time></trkpt><trkpt lat="46.088477625500104" lon="11.104163796860298"><ele>190.5</ele><time>2026-05-02T08:27:09.999Z</time></trkpt><trkpt lat="46.08869934052591" lon="11.103998513419619"><ele>190.0</ele><time>2026-05-02T08:27:10.999Z</time></trkpt><trkpt lat="46.08891381682093" lon="11.10385373937388"><ele>190.0</ele><time>2026-05-02T08:27:11.999Z</time></trkpt><trkpt lat="46.089113324846586" lon="11.103736097011364"><ele>190.0</ele><time>2026-05-02T08:27:12.999Z</time></trkpt><trkpt lat="46.08929623992327" lon="11.103640923000697"><ele>190.0</ele><time>2026-05-02T08:27:13.999Z</time></trkpt><trkpt lat="46.089464043084575" lon="11.103552131083262"><ele>190.0</ele><time>2026-05-02T08:27:14.999Z</time></trkpt><trkpt lat="46.089624507454296" lon="11.103465165717717"><ele>190.0</ele><time>2026-05-02T08:27:15.999Z</time></trkpt><trkpt lat="46.08977690973433" lon="11.103380677859004"><ele>190.0</ele><time>2026-05-02T08:27:16.999Z</time></trkpt><trkpt lat="46.08992070861551" lon="11.10330135157346"><ele>190.0</ele><time>2026-05-02T08:27:17.999Z</time></trkpt><trkpt lat="46.090052819777064" lon="11.103231652603505"><ele>190.0</ele><time>2026-05-02T08:27:18.999Z</time></trkpt><trkpt lat="46.090187439970215" lon="11.103158856629266"><ele>190.0</ele><time>2026-05-02T08:27:19.999Z</time></trkpt><trkpt lat="46.0903196485987" lon="11.103098178201096"><ele>190.0</ele><time>2026-05-02T08:27:20.999Z</time></trkpt><trkpt lat="46.09045397215937" lon="11.103057587182754"><ele>190.0</ele><time>2026-05-02T08:27:21.999Z</time></trkpt><trkpt lat="46.09059742301597" lon="11.10304694896364"><ele>190.0</ele><time>2026-05-02T08:27:22.999Z</time></trkpt><trkpt lat="46.09074869123232" lon="11.103056339151166"><ele>190.0</ele><time>2026-05-02T08:27:23.999Z</time></trkpt><trkpt lat="46.090916708493026" lon="11.103092243733363"><ele>189.66666666666669</ele><time>2026-05-02T08:27:24.999Z</time></trkpt><trkpt lat="46.09110056125329" lon="11.10316400409099"><ele>189.33333333333334</ele><time>2026-05-02T08:27:25.999Z</time></trkpt><trkpt lat="46.09129535964808" lon="11.103243002735386"><ele>189.0</ele><time>2026-05-02T08:27:26.999Z</time></trkpt><trkpt lat="46.09145415818582" lon="11.10330496160657"><ele>189.5</ele><time>2026-05-02T08:27:27.999Z</time></trkpt><trkpt lat="46.091594395059694" lon="11.103350974706022"><ele>190.0</ele><time>2026-05-02T08:27:28.999Z</time></trkpt><trkpt lat="46.0917100110569" lon="11.103389897223169"><ele>190.5</ele><time>2026-05-02T08:27:29.998Z</time></trkpt><trkpt lat="46.091823360933056" lon="11.103422855043686"><ele>191.0</ele><time>2026-05-02T08:27:30.998Z</time></trkpt><trkpt lat="46.0919378122021" lon="11.103432314814725"><ele>191.0</ele><time>2026-05-02T08:27:31.998Z</time></trkpt><trkpt lat="46.09205774832779" lon="11.103415155480118"><ele>191.0</ele><time>2026-05-02T08:27:32.998Z</time></trkpt><trkpt lat="46.09217863479813" lon="11.10336613093665"><ele>191.0</ele><time>2026-05-02T08:27:33.998Z</time></trkpt><trkpt lat="46.092294535565564" lon="11.103287584103011"><ele>191.0</ele><time>2026-05-02T08:27:34.998Z</time></trkpt><trkpt lat="46.092401202317525" lon="11.103171979377075"><ele>191.0</ele><time>2026-05-02T08:27:35.998Z</time></trkpt><trkpt lat="46.092499877012365" lon="11.10303389382337"><ele>191.0</ele><time>2026-05-02T08:27:36.998Z</time></trkpt><trkpt lat="46.09258087411234" lon="11.102859464543682"><ele>191.0</ele><time>2026-05-02T08:27:37.998Z</time></trkpt><trkpt lat="46.09263870363392" lon="11.102665752048871"><ele>191.0</ele><time>2026-05-02T08:27:38.998Z</time></trkpt><trkpt lat="46.0926955639375" lon="11.102467778189801"><ele>191.0</ele><time>2026-05-02T08:27:39.998Z</time></trkpt><trkpt lat="46.0927535115371" lon="11.102263316587228"><ele>191.0</ele><time>2026-05-02T08:27:40.998Z</time></trkpt><trkpt lat="46.09281618088414" lon="11.102055002149763"><ele>191.0</ele><time>2026-05-02T08:27:41.998Z</time></trkpt><trkpt lat="46.09287939695038" lon="11.101848496222633"><ele>191.0</ele><time>2026-05-02T08:27:42.998Z</time></trkpt><trkpt lat="46.092938752494284" lon="11.101642370051882"><ele>191.0</ele><time>2026-05-02T08:27:43.998Z</time></trkpt><trkpt lat="46.09299592019523" lon="11.10145177330602"><ele>191.0</ele><time>2026-05-02T08:27:44.998Z</time></trkpt><trkpt lat="46.09304831961237" lon="11.101269393335924"><ele>191.0</ele><time>2026-05-02T08:27:45.998Z</time></trkpt><trkpt lat="46.093106848767945" lon="11.101074987801324"><ele>190.66666666666666</ele><time>2026-05-02T08:27:46.998Z</time></trkpt><trkpt lat="46.09316724937845" lon="11.100872178219872"><ele>190.33333333333334</ele><time>2026-05-02T08:27:47.998Z</time></trkpt><trkpt lat="46.09322949817499" lon="11.100661045036468"><ele>190.0</ele><time>2026-05-02T08:27:48.998Z</time></trkpt><trkpt lat="46.093291152662076" lon="11.100443504553319"><ele>190.0</ele><time>2026-05-02T08:27:49.998Z</time></trkpt><trkpt lat="46.09336074784007" lon="11.100215771668731"><ele>190.0</ele><time>2026-05-02T08:27:50.998Z</time></trkpt><trkpt lat="46.09343680924368" lon="11.099979177503712"><ele>190.0</ele><time>2026-05-02T08:27:51.998Z</time></trkpt><trkpt lat="46.09351689417726" lon="11.099750021006798"><ele>190.0</ele><time>2026-05-02T08:27:52.998Z</time></trkpt><trkpt lat="46.09361339746843" lon="11.099523466247"><ele>190.0</ele><time>2026-05-02T08:27:53.998Z</time></trkpt><trkpt lat="46.093726685148944" lon="11.09931070455412"><ele>190.0</ele><time>2026-05-02T08:27:54.998Z</time></trkpt><trkpt lat="46.09385954079662" lon="11.099115568906674"><ele>190.0</ele><time>2026-05-02T08:27:55.998Z</time></trkpt><trkpt lat="46.0940162131678" lon="11.098935793831414"><ele>190.0</ele><time>2026-05-02T08:27:56.998Z</time></trkpt><trkpt lat="46.09420220775235" lon="11.098756712172298"><ele>190.0</ele><time>2026-05-02T08:27:57.998Z</time></trkpt><trkpt lat="46.09438914253354" lon="11.098583128728993"><ele>190.0</ele><time>2026-05-02T08:27:58.998Z</time></trkpt><trkpt lat="46.09457949313008" lon="11.098400999221235"><ele>190.0</ele><time>2026-05-02T08:27:59.998Z</time></trkpt><trkpt lat="46.09477265941585" lon="11.098221006032642"><ele>190.5</ele><time>2026-05-02T08:28:00.998Z</time></trkpt><trkpt lat="46.09497652167375" lon="11.098026524702641"><ele>191.0</ele><time>2026-05-02T08:28:01.998Z</time></trkpt><trkpt lat="46.09519001424843" lon="11.097820229636547"><ele>191.0</ele><time>2026-05-02T08:28:03Z</time></trkpt><trkpt lat="46.09540989470335" lon="11.097608411884408"><ele>191.0</ele><time>2026-05-02T08:28:04Z</time></trkpt><trkpt lat="46.09563965911567" lon="11.097392182366299"><ele>191.5</ele><time>2026-05-02T08:28:05Z</time></trkpt><trkpt lat="46.0958630398926" lon="11.097181401896904"><ele>192.0</ele><time>2026-05-02T08:28:06Z</time></trkpt><trkpt lat="46.09607267101508" lon="11.096984124438308"><ele>192.0</ele><time>2026-05-02T08:28:07Z</time></trkpt><trkpt lat="46.096282721580074" lon="11.096784785462363"><ele>192.0</ele><time>2026-05-02T08:28:08Z</time></trkpt><trkpt lat="46.09649733269257" lon="11.096583655128935"><ele>192.5</ele><time>2026-05-02T08:28:09Z</time></trkpt><trkpt lat="46.09671324887805" lon="11.09638164818477"><ele>193.0</ele><time>2026-05-02T08:28:10Z</time></trkpt><trkpt lat="46.09693105345437" lon="11.096175207711468"><ele>193.0</ele><time>2026-05-02T08:28:11Z</time></trkpt><trkpt lat="46.097152052525914" lon="11.095968345431158"><ele>193.0</ele><time>2026-05-02T08:28:12Z</time></trkpt><trkpt lat="46.09737482961355" lon="11.095762199321415"><ele>192.0</ele><time>2026-05-02T08:28:13Z</time></trkpt><trkpt lat="46.09759704930378" lon="11.095552542116389"><ele>191.0</ele><time>2026-05-02T08:28:14Z</time></trkpt><trkpt lat="46.0978170056021" lon="11.095345416426873"><ele>191.0</ele><time>2026-05-02T08:28:15Z</time></trkpt><trkpt lat="46.098034957658186" lon="11.095146066991223"><ele>191.0</ele><time>2026-05-02T08:28:16Z</time></trkpt><trkpt lat="46.09825077966897" lon="11.094946638355212"><ele>191.5</ele><time>2026-05-02T08:28:17Z</time></trkpt><trkpt lat="46.098464798228314" lon="11.094742029647291"><ele>192.0</ele><time>2026-05-02T08:28:18Z</time></trkpt><trkpt lat="46.09868083852003" lon="11.094532613919625"><ele>192.0</ele><time>2026-05-02T08:28:19Z</time></trkpt><trkpt lat="46.098898060166945" lon="11.094324708286598"><ele>192.0</ele><time>2026-05-02T08:28:20Z</time></trkpt><trkpt lat="46.099116611923634" lon="11.094119062954737"><ele>191.0</ele><time>2026-05-02T08:28:21Z</time></trkpt><trkpt lat="46.099334663035975" lon="11.093914884745658"><ele>190.0</ele><time>2026-05-02T08:28:21.999Z</time></trkpt><trkpt lat="46.099551146811436" lon="11.093708629121874"><ele>190.0</ele><time>2026-05-02T08:28:22.999Z</time></trkpt><trkpt lat="46.09976634843176" lon="11.093506808146593"><ele>190.0</ele><time>2026-05-02T08:28:23.999Z</time></trkpt><trkpt lat="46.09998382441487" lon="11.093303770250206"><ele>192.0</ele><time>2026-05-02T08:28:24.999Z</time></trkpt><trkpt lat="46.10020717285633" lon="11.093096508239098"><ele>194.0</ele><time>2026-05-02T08:28:25.999Z</time></trkpt><trkpt lat="46.10043361319149" lon="11.092900930667213"><ele>194.0</ele><time>2026-05-02T08:28:26.999Z</time></trkpt><trkpt lat="46.10066340859549" lon="11.092707340199217"><ele>194.0</ele><time>2026-05-02T08:28:27.999Z</time></trkpt><trkpt lat="46.10090065054631" lon="11.09251365236804"><ele>191.5</ele><time>2026-05-02T08:28:28.999Z</time></trkpt><trkpt lat="46.101146636367574" lon="11.092326123983721"><ele>189.0</ele><time>2026-05-02T08:28:29.999Z</time></trkpt><trkpt lat="46.101401004325524" lon="11.092137929177744"><ele>190.5</ele><time>2026-05-02T08:28:30.999Z</time></trkpt><trkpt lat="46.10166454732858" lon="11.091944183337265"><ele>192.0</ele><time>2026-05-02T08:28:31.999Z</time></trkpt><trkpt lat="46.101937769979784" lon="11.091754043722872"><ele>193.0</ele><time>2026-05-02T08:28:32.999Z</time></trkpt><trkpt lat="46.102216519748225" lon="11.091580368631774"><ele>194.0</ele><time>2026-05-02T08:28:33.999Z</time></trkpt><trkpt lat="46.102495322331364" lon="11.091410985447387"><ele>194.5</ele><time>2026-05-02T08:28:34.999Z</time></trkpt><trkpt lat="46.10277633757088" lon="11.091246432634907"><ele>195.0</ele><time>2026-05-02T08:28:35.999Z</time></trkpt><trkpt lat="46.103061254927134" lon="11.091095428427156"><ele>195.0</ele><time>2026-05-02T08:28:36.999Z</time></trkpt><trkpt lat="46.10334267404115" lon="11.090953623779681"><ele>195.0</ele><time>2026-05-02T08:28:37.999Z</time></trkpt><trkpt lat="46.10361219598439" lon="11.09082643430144"><ele>193.5</ele><time>2026-05-02T08:28:38.999Z</time></trkpt><trkpt lat="46.103881897717976" lon="11.090711629611059"><ele>192.0</ele><time>2026-05-02T08:28:39.999Z</time></trkpt><trkpt lat="46.10415526452099" lon="11.090595564667032"><ele>191.5</ele><time>2026-05-02T08:28:40.999Z</time></trkpt><trkpt lat="46.10442741878459" lon="11.090489937382836"><ele>191.0</ele><time>2026-05-02T08:28:41.999Z</time></trkpt><trkpt lat="46.10470465613368" lon="11.09039222777431"><ele>191.5</ele><time>2026-05-02T08:28:42.999Z</time></trkpt><trkpt lat="46.10498806558134" lon="11.09030309569596"><ele>192.0</ele><time>2026-05-02T08:28:43.999Z</time></trkpt><trkpt lat="46.105276999993315" lon="11.090215986030644"><ele>192.0</ele><time>2026-05-02T08:28:44.999Z</time></trkpt><trkpt lat="46.10556820805018" lon="11.090128721273066"><ele>192.0</ele><time>2026-05-02T08:28:45.999Z</time></trkpt><trkpt lat="46.10587041123547" lon="11.090042200843676"><ele>192.0</ele><time>2026-05-02T08:28:46.999Z</time></trkpt><trkpt lat="46.10617883285042" lon="11.089953429399706"><ele>192.0</ele><time>2026-05-02T08:28:47.999Z</time></trkpt><trkpt lat="46.10648981666959" lon="11.089862446182039"><ele>193.0</ele><time>2026-05-02T08:28:48.999Z</time></trkpt><trkpt lat="46.10680466454915" lon="11.089771108112394"><ele>194.0</ele><time>2026-05-02T08:28:49.999Z</time></trkpt><trkpt lat="46.107120947365104" lon="11.0896786479153"><ele>192.5</ele><time>2026-05-02T08:28:50.999Z</time></trkpt><trkpt lat="46.10743715776163" lon="11.08958898311467"><ele>191.0</ele><time>2026-05-02T08:28:51.999Z</time></trkpt><trkpt lat="46.10774819984478" lon="11.089498372299051"><ele>191.0</ele><time>2026-05-02T08:28:52.999Z</time></trkpt><trkpt lat="46.10805637280364" lon="11.08940840012641"><ele>191.0</ele><time>2026-05-02T08:28:53.999Z</time></trkpt><trkpt lat="46.10836324359081" lon="11.089319239770827"><ele>192.5</ele><time>2026-05-02T08:28:54.999Z</time></trkpt><trkpt lat="46.108665529136225" lon="11.089232779647295"><ele>194.0</ele><time>2026-05-02T08:28:55.999Z</time></trkpt><trkpt lat="46.10896516504064" lon="11.089145256644082"><ele>194.0</ele><time>2026-05-02T08:28:56.999Z</time></trkpt><trkpt lat="46.10926432389321" lon="11.089057914770432"><ele>194.0</ele><time>2026-05-02T08:28:57.999Z</time></trkpt><trkpt lat="46.109563887497174" lon="11.088969669501132"><ele>194.0</ele><time>2026-05-02T08:28:58.999Z</time></trkpt><trkpt lat="46.109864677999894" lon="11.088882421180125"><ele>194.0</ele><time>2026-05-02T08:28:59.999Z</time></trkpt><trkpt lat="46.11016532686986" lon="11.088798128917766"><ele>194.5</ele><time>2026-05-02T08:29:00.999Z</time></trkpt><trkpt lat="46.110456210194066" lon="11.088714090988741"><ele>195.0</ele><time>2026-05-02T08:29:01.999Z</time></trkpt><trkpt lat="46.11073134214099" lon="11.088633376175864"><ele>195.0</ele><time>2026-05-02T08:29:02.999Z</time></trkpt><trkpt lat="46.11099045765792" lon="11.088560730387735"><ele>195.0</ele><time>2026-05-02T08:29:03.999Z</time></trkpt><trkpt lat="46.111254090276184" lon="11.088484676094943"><ele>195.0</ele><time>2026-05-02T08:29:04.999Z</time></trkpt><trkpt lat="46.111519566657805" lon="11.088410299125304"><ele>195.0</ele><time>2026-05-02T08:29:05.999Z</time></trkpt><trkpt lat="46.111775798167415" lon="11.088338952251943"><ele>194.5</ele><time>2026-05-02T08:29:06.999Z</time></trkpt><trkpt lat="46.11201114661012" lon="11.088268311576492"><ele>194.0</ele><time>2026-05-02T08:29:07.999Z</time></trkpt><trkpt lat="46.11223735598071" lon="11.088200295969244"><ele>194.0</ele><time>2026-05-02T08:29:08.999Z</time></trkpt><trkpt lat="46.11246302483932" lon="11.088136948022647"><ele>194.0</ele><time>2026-05-02T08:29:09.999Z</time></trkpt><trkpt lat="46.11269306179389" lon="11.088072882824752"><ele>194.0</ele><time>2026-05-02T08:29:10.999Z</time></trkpt><trkpt lat="46.112926172459815" lon="11.088018508907227"><ele>194.0</ele><time>2026-05-02T08:29:11.999Z</time></trkpt><trkpt lat="46.113163492859755" lon="11.087973458247605"><ele>195.0</ele><time>2026-05-02T08:29:12.999Z</time></trkpt><trkpt lat="46.113406002746004" lon="11.087947568988426"><ele>196.0</ele><time>2026-05-02T08:29:13.999Z</time></trkpt><trkpt lat="46.11365389899924" lon="11.08794848477935"><ele>196.0</ele><time>2026-05-02T08:29:14.999Z</time></trkpt><trkpt lat="46.11390249895627" lon="11.087977815138377"><ele>196.0</ele><time>2026-05-02T08:29:15.999Z</time></trkpt><trkpt lat="46.114152651896816" lon="11.088026015603013"><ele>195.0</ele><time>2026-05-02T08:29:16.999Z</time></trkpt><trkpt lat="46.11440433008294" lon="11.088096022686077"><ele>194.0</ele><time>2026-05-02T08:29:17.999Z</time></trkpt><trkpt lat="46.11466454769669" lon="11.088161120466454"><ele>195.5</ele><time>2026-05-02T08:29:18.999Z</time></trkpt><trkpt lat="46.11493227717992" lon="11.088249765883784"><ele>197.0</ele><time>2026-05-02T08:29:19.999Z</time></trkpt><trkpt lat="46.1152070628985" lon="11.088340880008934"><ele>197.0</ele><time>2026-05-02T08:29:20.999Z</time></trkpt><trkpt lat="46.115487731286365" lon="11.088433843874785"><ele>197.0</ele><time>2026-05-02T08:29:21.999Z</time></trkpt><trkpt lat="46.11577352631929" lon="11.088526546262642"><ele>198.0</ele><time>2026-05-02T08:29:22.999Z</time></trkpt><trkpt lat="46.116061810733186" lon="11.088625230548653"><ele>199.0</ele><time>2026-05-02T08:29:23.999Z</time></trkpt><trkpt lat="46.11635188209883" lon="11.088718672392565"><ele>197.0</ele><time>2026-05-02T08:29:24.999Z</time></trkpt><trkpt lat="46.11664022765625" lon="11.08880828674833"><ele>195.0</ele><time>2026-05-02T08:29:25.999Z</time></trkpt><trkpt lat="46.11693206356654" lon="11.088871453061182"><ele>195.0</ele><time>2026-05-02T08:29:26.999Z</time></trkpt><trkpt lat="46.117228203062304" lon="11.088903506418065"><ele>195.0</ele><time>2026-05-02T08:29:27.999Z</time></trkpt><trkpt lat="46.11752309372306" lon="11.088906186889716"><ele>197.0</ele><time>2026-05-02T08:29:28.999Z</time></trkpt><trkpt lat="46.11781549369499" lon="11.088880960747664"><ele>199.0</ele><time>2026-05-02T08:29:29.999Z</time></trkpt><trkpt lat="46.11810087514926" lon="11.088826043614217"><ele>199.0</ele><time>2026-05-02T08:29:30.999Z</time></trkpt><trkpt lat="46.11838186771557" lon="11.08874810600937"><ele>199.0</ele><time>2026-05-02T08:29:31.999Z</time></trkpt><trkpt lat="46.11865874511906" lon="11.088644568896676"><ele>199.0</ele><time>2026-05-02T08:29:32.999Z</time></trkpt><trkpt lat="46.118930289848706" lon="11.08849752633521"><ele>199.0</ele><time>2026-05-02T08:29:33.999Z</time></trkpt><trkpt lat="46.11920030181427" lon="11.088323036129895"><ele>198.0</ele><time>2026-05-02T08:29:34.998Z</time></trkpt><trkpt lat="46.11945710528288" lon="11.08812859416076"><ele>197.0</ele><time>2026-05-02T08:29:35.998Z</time></trkpt><trkpt lat="46.11971717400371" lon="11.087906379555518"><ele>196.5</ele><time>2026-05-02T08:29:36.998Z</time></trkpt><trkpt lat="46.119975106997636" lon="11.087669952312917"><ele>196.0</ele><time>2026-05-02T08:29:37.998Z</time></trkpt><trkpt lat="46.12021075377826" lon="11.087537777507196"><ele>197.0</ele><time>2026-05-02T08:29:38.998Z</time></trkpt><trkpt lat="46.120465359105616" lon="11.087340172368785"><ele>198.0</ele><time>2026-05-02T08:29:39.998Z</time></trkpt><trkpt lat="46.12072481597857" lon="11.087132615910743"><ele>198.0</ele><time>2026-05-02T08:29:40.998Z</time></trkpt><trkpt lat="46.12097654688801" lon="11.08693240102564"><ele>198.0</ele><time>2026-05-02T08:29:41.998Z</time></trkpt><trkpt lat="46.12122431166149" lon="11.086738627197205"><ele>198.0</ele><time>2026-05-02T08:29:42.998Z</time></trkpt><trkpt lat="46.121465609372486" lon="11.086548547714884"><ele>198.0</ele><time>2026-05-02T08:29:43.998Z</time></trkpt><trkpt lat="46.12170529610918" lon="11.08635859478144"><ele>199.0</ele><time>2026-05-02T08:29:44.998Z</time></trkpt><trkpt lat="46.121939940374986" lon="11.086168400312133"><ele>200.0</ele><time>2026-05-02T08:29:45.998Z</time></trkpt><trkpt lat="46.12216414833172" lon="11.085980594225365"><ele>200.0</ele><time>2026-05-02T08:29:46.998Z</time></trkpt><trkpt lat="46.122371756848885" lon="11.085786634323973"><ele>200.0</ele><time>2026-05-02T08:29:47.998Z</time></trkpt><trkpt lat="46.12255826379677" lon="11.085579731900788"><ele>199.66666666666669</ele><time>2026-05-02T08:29:48.998Z</time></trkpt><trkpt lat="46.122723198603204" lon="11.085369959875134"><ele>199.33333333333331</ele><time>2026-05-02T08:29:49.998Z</time></trkpt><trkpt lat="46.122879501283904" lon="11.08514352187731"><ele>199.0</ele><time>2026-05-02T08:29:50.998Z</time></trkpt><trkpt lat="46.1230348622592" lon="11.084895492237152"><ele>198.5</ele><time>2026-05-02T08:29:51.998Z</time></trkpt><trkpt lat="46.12319163725193" lon="11.084641777263919"><ele>198.0</ele><time>2026-05-02T08:29:52.998Z</time></trkpt><trkpt lat="46.12336022615757" lon="11.084385153437744"><ele>198.5</ele><time>2026-05-02T08:29:53.998Z</time></trkpt><trkpt lat="46.123541440598764" lon="11.084134504643178"><ele>199.0</ele><time>2026-05-02T08:29:54.998Z</time></trkpt><trkpt lat="46.12374254663228" lon="11.083898649617653"><ele>199.0</ele><time>2026-05-02T08:29:55.998Z</time></trkpt><trkpt lat="46.123952886651885" lon="11.083684568903834"><ele>199.0</ele><time>2026-05-02T08:29:56.998Z</time></trkpt><trkpt lat="46.12417063525969" lon="11.083488121281727"><ele>199.0</ele><time>2026-05-02T08:29:57.998Z</time></trkpt><trkpt lat="46.12439990790465" lon="11.083313688252346"><ele>199.0</ele><time>2026-05-02T08:29:58.998Z</time></trkpt><trkpt lat="46.124640389304695" lon="11.083164786633946"><ele>199.5</ele><time>2026-05-02T08:29:59.998Z</time></trkpt><trkpt lat="46.12489055944791" lon="11.083040600961487"><ele>200.0</ele><time>2026-05-02T08:30:00.998Z</time></trkpt><trkpt lat="46.12515679385488" lon="11.082928154850773"><ele>201.0</ele><time>2026-05-02T08:30:01.998Z</time></trkpt><trkpt lat="46.125435572140944" lon="11.082825953194407"><ele>202.0</ele><time>2026-05-02T08:30:02.998Z</time></trkpt><trkpt lat="46.125726489860575" lon="11.082726665532814"><ele>199.5</ele><time>2026-05-02T08:30:03.998Z</time></trkpt><trkpt lat="46.12602723832872" lon="11.082620743109324"><ele>197.0</ele><time>2026-05-02T08:30:04.998Z</time></trkpt><trkpt lat="46.12633634323895" lon="11.082513047222854"><ele>198.0</ele><time>2026-05-02T08:30:05.998Z</time></trkpt><trkpt lat="46.12664935460134" lon="11.082401932528114"><ele>199.0</ele><time>2026-05-02T08:30:06.998Z</time></trkpt><trkpt lat="46.12695946940428" lon="11.082293457281885"><ele>199.0</ele><time>2026-05-02T08:30:07.998Z</time></trkpt><trkpt lat="46.127269976861584" lon="11.08218631494318"><ele>199.0</ele><time>2026-05-02T08:30:09Z</time></trkpt><trkpt lat="46.12757751322632" lon="11.082080992550026"><ele>198.0</ele><time>2026-05-02T08:30:10Z</time></trkpt><trkpt lat="46.12788428882682" lon="11.081980399650158"><ele>197.0</ele><time>2026-05-02T08:30:11Z</time></trkpt><trkpt lat="46.128191170428025" lon="11.081886462830767"><ele>197.5</ele><time>2026-05-02T08:30:12Z</time></trkpt><trkpt lat="46.12850144942585" lon="11.081810500711724"><ele>198.0</ele><time>2026-05-02T08:30:13Z</time></trkpt><trkpt lat="46.12881100952615" lon="11.081752588295267"><ele>198.5</ele><time>2026-05-02T08:30:14Z</time></trkpt><trkpt lat="46.12912047824177" lon="11.081698075988133"><ele>199.0</ele><time>2026-05-02T08:30:15Z</time></trkpt><trkpt lat="46.12943092903995" lon="11.081660122217759"><ele>199.0</ele><time>2026-05-02T08:30:16Z</time></trkpt><trkpt lat="46.129740963655976" lon="11.081638009499754"><ele>199.0</ele><time>2026-05-02T08:30:17Z</time></trkpt><trkpt lat="46.13005213163367" lon="11.081629001640957"><ele>201.0</ele><time>2026-05-02T08:30:18Z</time></trkpt><trkpt lat="46.13036239427467" lon="11.081632286229148"><ele>203.0</ele><time>2026-05-02T08:30:19Z</time></trkpt><trkpt lat="46.13066949749437" lon="11.081644621182468"><ele>201.5</ele><time>2026-05-02T08:30:20Z</time></trkpt><trkpt lat="46.130972036050096" lon="11.081668398314681"><ele>200.0</ele><time>2026-05-02T08:30:21Z</time></trkpt><trkpt lat="46.13125895355766" lon="11.081700227050705"><ele>200.0</ele><time>2026-05-02T08:30:22Z</time></trkpt><trkpt lat="46.131527001600894" lon="11.081744860684882"><ele>200.0</ele><time>2026-05-02T08:30:23Z</time></trkpt><trkpt lat="46.13178203703593" lon="11.08179763302603"><ele>200.5</ele><time>2026-05-02T08:30:24Z</time></trkpt><trkpt lat="46.132037161075594" lon="11.08185253644651"><ele>201.0</ele><time>2026-05-02T08:30:25Z</time></trkpt><trkpt lat="46.13228482536498" lon="11.081921869286731"><ele>201.0</ele><time>2026-05-02T08:30:26Z</time></trkpt><trkpt lat="46.13251612586187" lon="11.081992178670303"><ele>201.0</ele><time>2026-05-02T08:30:27Z</time></trkpt><trkpt lat="46.132735131568914" lon="11.082066839128"><ele>201.0</ele><time>2026-05-02T08:30:28Z</time></trkpt><trkpt lat="46.132943397759874" lon="11.082144782291692"><ele>201.0</ele><time>2026-05-02T08:30:29Z</time></trkpt><trkpt lat="46.13313877023617" lon="11.082224613242156"><ele>201.0</ele><time>2026-05-02T08:30:30Z</time></trkpt><trkpt lat="46.13332350368117" lon="11.08230892804413"><ele>200.66666666666669</ele><time>2026-05-02T08:30:31Z</time></trkpt><trkpt lat="46.13349665379095" lon="11.082393221710708"><ele>200.33333333333334</ele><time>2026-05-02T08:30:32Z</time></trkpt><trkpt lat="46.1336709263065" lon="11.08247463238028"><ele>200.0</ele><time>2026-05-02T08:30:32.999Z</time></trkpt><trkpt lat="46.13383441285586" lon="11.082558640641722"><ele>200.0</ele><time>2026-05-02T08:30:33.999Z</time></trkpt><trkpt lat="46.13399084618204" lon="11.082640725022099"><ele>200.0</ele><time>2026-05-02T08:30:34.999Z</time></trkpt><trkpt lat="46.13415056145303" lon="11.082723479033728"><ele>200.0</ele><time>2026-05-02T08:30:35.999Z</time></trkpt><trkpt lat="46.13431221376207" lon="11.082806693616659"><ele>199.33333333333334</ele><time>2026-05-02T08:30:36.999Z</time></trkpt><trkpt lat="46.134477434288705" lon="11.082890468219201"><ele>198.66666666666669</ele><time>2026-05-02T08:30:37.999Z</time></trkpt><trkpt lat="46.134648813659254" lon="11.082978010630244"><ele>198.0</ele><time>2026-05-02T08:30:38.999Z</time></trkpt><trkpt lat="46.13482177340079" lon="11.08306388690898"><ele>198.33333333333331</ele><time>2026-05-02T08:30:39.999Z</time></trkpt><trkpt lat="46.134982271124464" lon="11.083144613692555"><ele>198.66666666666666</ele><time>2026-05-02T08:30:40.999Z</time></trkpt><trkpt lat="46.13513446982578" lon="11.083220819001541"><ele>199.0</ele><time>2026-05-02T08:30:41.999Z</time></trkpt><trkpt lat="46.135282674058814" lon="11.083295098571277"><ele>199.33333333333331</ele><time>2026-05-02T08:30:42.999Z</time></trkpt><trkpt lat="46.135433605419124" lon="11.083372519292082"><ele>199.66666666666669</ele><time>2026-05-02T08:30:43.999Z</time></trkpt><trkpt lat="46.13558686125566" lon="11.083450658667854"><ele>200.0</ele><time>2026-05-02T08:30:44.999Z</time></trkpt><trkpt lat="46.13574138752887" lon="11.083527858901054"><ele>201.0</ele><time>2026-05-02T08:30:45.999Z</time></trkpt><trkpt lat="46.135894311142664" lon="11.083603801729229"><ele>202.0</ele><time>2026-05-02T08:30:46.999Z</time></trkpt><trkpt lat="46.13604337334306" lon="11.083677710318026"><ele>203.0</ele><time>2026-05-02T08:30:47.999Z</time></trkpt><trkpt lat="46.13618556038755" lon="11.083748757227559"><ele>203.0</ele><time>2026-05-02T08:30:48.999Z</time></trkpt><trkpt lat="46.136319115793775" lon="11.08381687188928"><ele>203.0</ele><time>2026-05-02T08:30:49.999Z</time></trkpt><trkpt lat="46.13645232232647" lon="11.083884106282365"><ele>203.0</ele><time>2026-05-02T08:30:50.999Z</time></trkpt><trkpt lat="46.13658864389216" lon="11.083957419444447"><ele>203.0</ele><time>2026-05-02T08:30:51.999Z</time></trkpt><trkpt lat="46.136724844295074" lon="11.08402973909293"><ele>201.75</ele><time>2026-05-02T08:30:52.999Z</time></trkpt><trkpt lat="46.136852516071045" lon="11.08410113808439"><ele>200.5</ele><time>2026-05-02T08:30:53.999Z</time></trkpt><trkpt lat="46.136975392273996" lon="11.084172201122955"><ele>199.25</ele><time>2026-05-02T08:30:54.999Z</time></trkpt><trkpt lat="46.13709592282492" lon="11.0842390727535"><ele>198.0</ele><time>2026-05-02T08:30:55.999Z</time></trkpt><trkpt lat="46.13722132264835" lon="11.084301198361718"><ele>198.0</ele><time>2026-05-02T08:30:56.999Z</time></trkpt><trkpt lat="46.13735230322478" lon="11.084359663203415"><ele>198.0</ele><time>2026-05-02T08:30:57.999Z</time></trkpt><trkpt lat="46.13748260796654" lon="11.084413617792228"><ele>198.0</ele><time>2026-05-02T08:30:58.999Z</time></trkpt><trkpt lat="46.13761012465048" lon="11.08446264528678"><ele>198.0</ele><time>2026-05-02T08:30:59.999Z</time></trkpt><trkpt lat="46.13772996551149" lon="11.084503093832431"><ele>197.5</ele><time>2026-05-02T08:31:00.999Z</time></trkpt><trkpt lat="46.13781874059905" lon="11.084526392444786"><ele>197.0</ele><time>2026-05-02T08:31:01.999Z</time></trkpt><trkpt lat="46.13788506710111" lon="11.084540071042104"><ele>196.5</ele><time>2026-05-02T08:31:02.999Z</time></trkpt><trkpt lat="46.13797974797816" lon="11.084568531187386"><ele>196.0</ele><time>2026-05-02T08:31:04.999Z</time></trkpt><trkpt lat="46.138044386618716" lon="11.084592069201783"><ele>195.5</ele><time>2026-05-02T08:31:06.999Z</time></trkpt><trkpt lat="46.13811593056378" lon="11.084622974479862"><ele>195.0</ele><time>2026-05-02T08:31:10.999Z</time></trkpt><trkpt lat="46.13819637463643" lon="11.084677522147034"><ele>195.2</ele><time>2026-05-02T08:31:16.999Z</time></trkpt><trkpt lat="46.13828463051707" lon="11.08474180346427"><ele>195.4</ele><time>2026-05-02T08:31:18.999Z</time></trkpt><trkpt lat="46.13834188251855" lon="11.084812285926429"><ele>195.60000000000002</ele><time>2026-05-02T08:31:20.999Z</time></trkpt><trkpt lat="46.13827985473143" lon="11.084967800186346"><ele>195.8</ele><time>2026-05-02T08:31:21.999Z</time></trkpt><trkpt lat="46.1382540165458" lon="11.085075885220668"><ele>196.0</ele><time>2026-05-02T08:31:22.999Z</time></trkpt><trkpt lat="46.13822134945325" lon="11.085200891654946"><ele>196.5</ele><time>2026-05-02T08:31:23.999Z</time></trkpt><trkpt lat="46.13818060754649" lon="11.08535676934845"><ele>197.0</ele><time>2026-05-02T08:31:24.999Z</time></trkpt><trkpt lat="46.13813822180281" lon="11.08552243105221"><ele>197.5</ele><time>2026-05-02T08:31:25.999Z</time></trkpt><trkpt lat="46.13809052653281" lon="11.085667552406763"><ele>198.0</ele><time>2026-05-02T08:31:26.999Z</time></trkpt><trkpt lat="46.138069901455886" lon="11.085841700452326"><ele>198.75</ele><time>2026-05-02T08:31:27.999Z</time></trkpt><trkpt lat="46.13800266506847" lon="11.086046376875336"><ele>199.5</ele><time>2026-05-02T08:31:28.999Z</time></trkpt><trkpt lat="46.137955625384635" lon="11.086226980215786"><ele>200.25</ele><time>2026-05-02T08:31:29.999Z</time></trkpt><trkpt lat="46.137903904034346" lon="11.086391583728638"><ele>201.0</ele><time>2026-05-02T08:31:30.999Z</time></trkpt><trkpt lat="46.13785105734513" lon="11.086535653115167"><ele>201.0</ele><time>2026-05-02T08:31:31.999Z</time></trkpt><trkpt lat="46.137791680480674" lon="11.08666977236476"><ele>201.0</ele><time>2026-05-02T08:31:32.999Z</time></trkpt><trkpt lat="46.13773104060469" lon="11.086782732951418"><ele>201.0</ele><time>2026-05-02T08:31:33.999Z</time></trkpt><trkpt lat="46.13767734497679" lon="11.086878264109826"><ele>201.0</ele><time>2026-05-02T08:31:34.999Z</time></trkpt><trkpt lat="46.13761049181783" lon="11.086979789359484"><ele>201.0</ele><time>2026-05-02T08:31:36.999Z</time></trkpt><trkpt lat="46.137560474541395" lon="11.087048437074799"><ele>201.0</ele><time>2026-05-02T08:31:38.999Z</time></trkpt><trkpt lat="46.1375084095332" lon="11.08714573120447"><ele>201.0</ele><time>2026-05-02T08:31:40.999Z</time></trkpt><trkpt lat="46.13745527891169" lon="11.087216454956492"><ele>201.0</ele><time>2026-05-02T08:31:42.999Z</time></trkpt><trkpt lat="46.13735688884436" lon="11.08730710349958"><ele>201.0</ele><time>2026-05-02T08:31:44.999Z</time></trkpt><trkpt lat="46.137313330993024" lon="11.087387540042384"><ele>201.0</ele><time>2026-05-02T08:31:45.999Z</time></trkpt><trkpt lat="46.13728134837415" lon="11.087490958045242"><ele>201.0</ele><time>2026-05-02T08:31:46.999Z</time></trkpt><trkpt lat="46.13726831673254" lon="11.08759085794093"><ele>201.33333333333334</ele><time>2026-05-02T08:31:47.999Z</time></trkpt><trkpt lat="46.13727573397563" lon="11.087686722979267"><ele>201.66666666666669</ele><time>2026-05-02T08:31:48.999Z</time></trkpt><trkpt lat="46.1373106086447" lon="11.08777674037346"><ele>202.0</ele><time>2026-05-02T08:31:49.999Z</time></trkpt><trkpt lat="46.13737179169187" lon="11.087851356517177"><ele>202.33333333333334</ele><time>2026-05-02T08:31:50.999Z</time></trkpt><trkpt lat="46.13745455357465" lon="11.08788972153245"><ele>202.66666666666669</ele><time>2026-05-02T08:31:51.998Z</time></trkpt><trkpt lat="46.13755717378402" lon="11.087893955322109"><ele>203.0</ele><time>2026-05-02T08:31:52.998Z</time></trkpt><trkpt lat="46.13767732362903" lon="11.087879510206992"><ele>203.0</ele><time>2026-05-02T08:31:53.998Z</time></trkpt><trkpt lat="46.13780995668982" lon="11.087898602296457"><ele>203.0</ele><time>2026-05-02T08:31:54.998Z</time></trkpt><trkpt lat="46.13794906372298" lon="11.087923173661283"><ele>203.0</ele><time>2026-05-02T08:31:55.998Z</time></trkpt><trkpt lat="46.13809337030411" lon="11.087915952320365"><ele>203.0</ele><time>2026-05-02T08:31:56.998Z</time></trkpt><trkpt lat="46.13823601337407" lon="11.087887418156361"><ele>203.25</ele><time>2026-05-02T08:31:57.998Z</time></trkpt><trkpt lat="46.138383763492655" lon="11.087844692248856"><ele>203.5</ele><time>2026-05-02T08:31:58.998Z</time></trkpt><trkpt lat="46.13852778529045" lon="11.08779829371282"><ele>203.75</ele><time>2026-05-02T08:31:59.998Z</time></trkpt><trkpt lat="46.1386755659523" lon="11.087754026886792"><ele>204.0</ele><time>2026-05-02T08:32:00.998Z</time></trkpt><trkpt lat="46.13882305825159" lon="11.087731792327775"><ele>204.0</ele><time>2026-05-02T08:32:01.998Z</time></trkpt><trkpt lat="46.13896055795389" lon="11.087733897754159"><ele>204.0</ele><time>2026-05-02T08:32:02.998Z</time></trkpt><trkpt lat="46.13909305563779" lon="11.087756485570925"><ele>204.0</ele><time>2026-05-02T08:32:03.998Z</time></trkpt><trkpt lat="46.13922657806712" lon="11.087796840667416"><ele>204.0</ele><time>2026-05-02T08:32:04.998Z</time></trkpt><trkpt lat="46.13936654134617" lon="11.087864496903787"><ele>204.0</ele><time>2026-05-02T08:32:05.998Z</time></trkpt><trkpt lat="46.139513819190256" lon="11.087950418930939"><ele>204.0</ele><time>2026-05-02T08:32:06.998Z</time></trkpt><trkpt lat="46.13966373911709" lon="11.088079941494646"><ele>204.0</ele><time>2026-05-02T08:32:07.998Z</time></trkpt><trkpt lat="46.13982605734238" lon="11.088229343841467"><ele>203.33333333333331</ele><time>2026-05-02T08:32:08.998Z</time></trkpt><trkpt lat="46.139999904705014" lon="11.088395174678368"><ele>202.66666666666666</ele><time>2026-05-02T08:32:09.998Z</time></trkpt><trkpt lat="46.14018623378835" lon="11.08854607931546"><ele>202.0</ele><time>2026-05-02T08:32:10.998Z</time></trkpt><trkpt lat="46.14034619291522" lon="11.08870437383056"><ele>202.0</ele><time>2026-05-02T08:32:11.998Z</time></trkpt><trkpt lat="46.140500802477455" lon="11.088855615000105"><ele>202.0</ele><time>2026-05-02T08:32:12.998Z</time></trkpt><trkpt lat="46.14065917094043" lon="11.089012112208739"><ele>202.0</ele><time>2026-05-02T08:32:14Z</time></trkpt><trkpt lat="46.140807366327174" lon="11.08916082503662"><ele>202.66666666666666</ele><time>2026-05-02T08:32:15Z</time></trkpt><trkpt lat="46.14094442766873" lon="11.089300916065783"><ele>203.33333333333331</ele><time>2026-05-02T08:32:16Z</time></trkpt><trkpt lat="46.14107422250492" lon="11.08943030366246"><ele>204.0</ele><time>2026-05-02T08:32:17Z</time></trkpt><trkpt lat="46.14119718115305" lon="11.089550582045721"><ele>204.0</ele><time>2026-05-02T08:32:18Z</time></trkpt><trkpt lat="46.14131563722422" lon="11.089669366908812"><ele>204.0</ele><time>2026-05-02T08:32:19Z</time></trkpt><trkpt lat="46.14143625661384" lon="11.089793433153897"><ele>204.0</ele><time>2026-05-02T08:32:20Z</time></trkpt><trkpt lat="46.141554579361085" lon="11.089925670029004"><ele>204.0</ele><time>2026-05-02T08:32:21Z</time></trkpt><trkpt lat="46.14166289075896" lon="11.090060567079233"><ele>203.75</ele><time>2026-05-02T08:32:22Z</time></trkpt><trkpt lat="46.14176044867358" lon="11.090189893839707"><ele>203.5</ele><time>2026-05-02T08:32:23Z</time></trkpt><trkpt lat="46.14185929669706" lon="11.090327594719348"><ele>203.25</ele><time>2026-05-02T08:32:24Z</time></trkpt><trkpt lat="46.141959930035505" lon="11.090475923214607"><ele>203.0</ele><time>2026-05-02T08:32:25Z</time></trkpt><trkpt lat="46.14206146449246" lon="11.090636096705634"><ele>203.0</ele><time>2026-05-02T08:32:26Z</time></trkpt><trkpt lat="46.14216077536492" lon="11.090811574709383"><ele>203.0</ele><time>2026-05-02T08:32:27Z</time></trkpt><trkpt lat="46.142250933918305" lon="11.090984879673348"><ele>203.0</ele><time>2026-05-02T08:32:28Z</time></trkpt><trkpt lat="46.14233212597736" lon="11.091146870665833"><ele>203.0</ele><time>2026-05-02T08:32:29Z</time></trkpt><trkpt lat="46.142404246856486" lon="11.091312486366311"><ele>203.0</ele><time>2026-05-02T08:32:30Z</time></trkpt><trkpt lat="46.142479770676836" lon="11.091491240435255"><ele>203.0</ele><time>2026-05-02T08:32:31Z</time></trkpt><trkpt lat="46.14255486541676" lon="11.091680259647836"><ele>203.0</ele><time>2026-05-02T08:32:32Z</time></trkpt><trkpt lat="46.142626576104966" lon="11.091882856903156"><ele>203.0</ele><time>2026-05-02T08:32:33Z</time></trkpt><trkpt lat="46.14269429130877" lon="11.092096914349906"><ele>203.0</ele><time>2026-05-02T08:32:34Z</time></trkpt><trkpt lat="46.14275932217627" lon="11.092317663097885"><ele>203.0</ele><time>2026-05-02T08:32:35Z</time></trkpt><trkpt lat="46.14282029010038" lon="11.09254667100982"><ele>204.0</ele><time>2026-05-02T08:32:36Z</time></trkpt><trkpt lat="46.142876033887525" lon="11.0927933509571"><ele>205.0</ele><time>2026-05-02T08:32:37Z</time></trkpt><trkpt lat="46.142930792071205" lon="11.093059356997585"><ele>206.0</ele><time>2026-05-02T08:32:38Z</time></trkpt><trkpt lat="46.14298769368676" lon="11.093337163498509"><ele>206.33333333333334</ele><time>2026-05-02T08:32:39Z</time></trkpt><trkpt lat="46.14304487857199" lon="11.093622986952068"><ele>206.66666666666669</ele><time>2026-05-02T08:32:40Z</time></trkpt><trkpt lat="46.14310573288561" lon="11.093908031425991"><ele>207.0</ele><time>2026-05-02T08:32:41Z</time></trkpt><trkpt lat="46.14316590791088" lon="11.09419540919389"><ele>207.66666666666669</ele><time>2026-05-02T08:32:41.999Z</time></trkpt><trkpt lat="46.14321102459498" lon="11.094494136410542"><ele>208.33333333333334</ele><time>2026-05-02T08:32:42.999Z</time></trkpt><trkpt lat="46.14326840438221" lon="11.094775500222768"><ele>209.0</ele><time>2026-05-02T08:32:43.999Z</time></trkpt><trkpt lat="46.143322531821646" lon="11.09504091610147"><ele>209.33333333333334</ele><time>2026-05-02T08:32:44.999Z</time></trkpt><trkpt lat="46.14337675370111" lon="11.09530679400966"><ele>209.66666666666669</ele><time>2026-05-02T08:32:45.999Z</time></trkpt><trkpt lat="46.14343180380885" lon="11.095576734108073"><ele>210.0</ele><time>2026-05-02T08:32:46.999Z</time></trkpt><trkpt lat="46.14348921409699" lon="11.09585824720298"><ele>210.0</ele><time>2026-05-02T08:32:47.999Z</time></trkpt><trkpt lat="46.14354883421311" lon="11.096150595742087"><ele>210.0</ele><time>2026-05-02T08:32:48.999Z</time></trkpt><trkpt lat="46.14360919950186" lon="11.09644730998345"><ele>210.0</ele><time>2026-05-02T08:32:49.999Z</time></trkpt><trkpt lat="46.14367338820642" lon="11.096762908297599"><ele>210.0</ele><time>2026-05-02T08:32:50.999Z</time></trkpt><trkpt lat="46.143740403079896" lon="11.097092155534195"><ele>210.0</ele><time>2026-05-02T08:32:51.999Z</time></trkpt><trkpt lat="46.14380542311778" lon="11.097411602180074"><ele>210.66666666666669</ele><time>2026-05-02T08:32:52.999Z</time></trkpt><trkpt lat="46.1438676072192" lon="11.097715089774677"><ele>211.33333333333334</ele><time>2026-05-02T08:32:53.999Z</time></trkpt><trkpt lat="46.14392366351836" lon="11.09798532897855"><ele>212.0</ele><time>2026-05-02T08:32:54.999Z</time></trkpt><trkpt lat="46.143972064854026" lon="11.098218665449377"><ele>212.0</ele><time>2026-05-02T08:32:55.999Z</time></trkpt><trkpt lat="46.14401568093919" lon="11.098428931718201"><ele>212.0</ele><time>2026-05-02T08:32:56.999Z</time></trkpt><trkpt lat="46.14405269797899" lon="11.09861029155141"><ele>212.0</ele><time>2026-05-02T08:32:57.999Z</time></trkpt><trkpt lat="46.14408463912107" lon="11.098767743853859"><ele>212.0</ele><time>2026-05-02T08:32:58.999Z</time></trkpt><trkpt lat="46.144111922028074" lon="11.098898131023976"><ele>212.0</ele><time>2026-05-02T08:32:59.999Z</time></trkpt><trkpt lat="46.144139636692756" lon="11.098998169189606"><ele>212.0</ele><time>2026-05-02T08:33:00.999Z</time></trkpt><trkpt lat="46.14417244224876" lon="11.099076191844667"><ele>212.0</ele><time>2026-05-02T08:33:01.999Z</time></trkpt><trkpt lat="46.14416949403958" lon="11.099170463064237"><ele>212.0</ele><time>2026-05-02T08:33:02.999Z</time></trkpt><trkpt lat="46.14418833765111" lon="11.099269170811981"><ele>212.0</ele><time>2026-05-02T08:33:03.999Z</time></trkpt><trkpt lat="46.14417854981643" lon="11.099372199296695"><ele>212.0</ele><time>2026-05-02T08:33:04.999Z</time></trkpt><trkpt lat="46.14416885163539" lon="11.099482869857368"><ele>212.0</ele><time>2026-05-02T08:33:05.999Z</time></trkpt><trkpt lat="46.14416420487581" lon="11.099606943248872"><ele>212.0</ele><time>2026-05-02T08:33:06.999Z</time></trkpt><trkpt lat="46.14416186845329" lon="11.099744625330764"><ele>212.0</ele><time>2026-05-02T08:33:07.999Z</time></trkpt><trkpt lat="46.14413822057977" lon="11.099879712745325"><ele>212.0</ele><time>2026-05-02T08:33:08.999Z</time></trkpt><trkpt lat="46.14409185317212" lon="11.100003378675352"><ele>212.0</ele><time>2026-05-02T08:33:09.999Z</time></trkpt><trkpt lat="46.14402961103974" lon="11.100121814285686"><ele>212.0</ele><time>2026-05-02T08:33:10.999Z</time></trkpt><trkpt lat="46.14393671885608" lon="11.100214836700843"><ele>212.5</ele><time>2026-05-02T08:33:11.999Z</time></trkpt><trkpt lat="46.143848448566914" lon="11.10033524785984"><ele>213.0</ele><time>2026-05-02T08:33:12.999Z</time></trkpt><trkpt lat="46.14374900047212" lon="11.100473852448278"><ele>213.5</ele><time>2026-05-02T08:33:13.999Z</time></trkpt><trkpt lat="46.14363986770311" lon="11.100637613976671"><ele>214.0</ele><time>2026-05-02T08:33:14.999Z</time></trkpt><trkpt lat="46.143528101822625" lon="11.100833413758973"><ele>214.0</ele><time>2026-05-02T08:33:15.999Z</time></trkpt><trkpt lat="46.14342160150997" lon="11.101049888187337"><ele>214.0</ele><time>2026-05-02T08:33:16.999Z</time></trkpt><trkpt lat="46.14332237241299" lon="11.101280778899193"><ele>214.0</ele><time>2026-05-02T08:33:17.999Z</time></trkpt><trkpt lat="46.14322175477115" lon="11.101523844831462"><ele>214.33333333333331</ele><time>2026-05-02T08:33:18.999Z</time></trkpt><trkpt lat="46.14313482522607" lon="11.101776970151967"><ele>214.66666666666669</ele><time>2026-05-02T08:33:19.999Z</time></trkpt><trkpt lat="46.1430452081149" lon="11.10198754536533"><ele>215.0</ele><time>2026-05-02T08:33:20.999Z</time></trkpt><trkpt lat="46.142971227345654" lon="11.102171091085577"><ele>215.0</ele><time>2026-05-02T08:33:21.999Z</time></trkpt><trkpt lat="46.14290183686559" lon="11.102346367500221"><ele>215.0</ele><time>2026-05-02T08:33:22.999Z</time></trkpt><trkpt lat="46.14283600618092" lon="11.10251156711704"><ele>215.0</ele><time>2026-05-02T08:33:23.999Z</time></trkpt><trkpt lat="46.1427733277853" lon="11.102666212540292"><ele>215.0</ele><time>2026-05-02T08:33:24.999Z</time></trkpt><trkpt lat="46.142714795158284" lon="11.102824667815451"><ele>216.25</ele><time>2026-05-02T08:33:25.999Z</time></trkpt><trkpt lat="46.14264734830648" lon="11.102987442020623"><ele>217.5</ele><time>2026-05-02T08:33:26.999Z</time></trkpt><trkpt lat="46.14257294079267" lon="11.10316195882881"><ele>218.75</ele><time>2026-05-02T08:33:27.999Z</time></trkpt><trkpt lat="46.142505315578035" lon="11.103332715607586"><ele>220.0</ele><time>2026-05-02T08:33:28.999Z</time></trkpt><trkpt lat="46.1424415663974" lon="11.103493160899076"><ele>220.0</ele><time>2026-05-02T08:33:29.999Z</time></trkpt><trkpt lat="46.14238620010803" lon="11.10363417667597"><ele>220.0</ele><time>2026-05-02T08:33:30.999Z</time></trkpt><trkpt lat="46.142343778075514" lon="11.103745043351381"><ele>220.0</ele><time>2026-05-02T08:33:31.999Z</time></trkpt><trkpt lat="46.14230731904944" lon="11.103833780333023"><ele>220.0</ele><time>2026-05-02T08:33:32.999Z</time></trkpt><trkpt lat="46.14224307364873" lon="11.103974000194073"><ele>220.0</ele><time>2026-05-02T08:33:34.999Z</time></trkpt><trkpt lat="46.14219265951602" lon="11.104101953640171"><ele>219.99999999999997</ele><time>2026-05-02T08:33:36.999Z</time></trkpt><trkpt lat="46.142129998048716" lon="11.10423716148096"><ele>220.0</ele><time>2026-05-02T08:33:38.999Z</time></trkpt><trkpt lat="46.142083287218014" lon="11.104300836150202"><ele>220.0</ele><time>2026-05-02T08:33:39.999Z</time></trkpt><trkpt lat="46.1420270406088" lon="11.104366996475227"><ele>220.0</ele><time>2026-05-02T08:33:40.999Z</time></trkpt><trkpt lat="46.1419640795551" lon="11.104427793671297"><ele>219.99999999999997</ele><time>2026-05-02T08:33:41.999Z</time></trkpt><trkpt lat="46.14190590214055" lon="11.10447055084738"><ele>220.0</ele><time>2026-05-02T08:33:42.999Z</time></trkpt><trkpt lat="46.14180332082282" lon="11.104555409682286"><ele>219.99999999999997</ele><time>2026-05-02T08:33:44.999Z</time></trkpt><trkpt lat="46.14176877146424" lon="11.104670681612994"><ele>220.0</ele><time>2026-05-02T08:33:46.999Z</time></trkpt><trkpt lat="46.14181758791493" lon="11.10476382424592"><ele>220.0</ele><time>2026-05-02T08:33:48.999Z</time></trkpt><trkpt lat="46.14192568144244" lon="11.10477810700667"><ele>220.0</ele><time>2026-05-02T08:33:50.999Z</time></trkpt><trkpt lat="46.141993193595574" lon="11.104731681072847"><ele>219.99999999999997</ele><time>2026-05-02T08:33:51.999Z</time></trkpt><trkpt lat="46.14206756117453" lon="11.104676428729906"><ele>220.0</ele><time>2026-05-02T08:33:52.999Z</time></trkpt><trkpt lat="46.14214766509114" lon="11.104637044875275"><ele>220.0</ele><time>2026-05-02T08:33:53.999Z</time></trkpt><trkpt lat="46.142237687807416" lon="11.104629394532365"><ele>220.0</ele><time>2026-05-02T08:33:54.999Z</time></trkpt><trkpt lat="46.14227446575337" lon="11.104553554493975"><ele>220.0</ele><time>2026-05-02T08:33:55.998Z</time></trkpt><trkpt lat="46.142401431248125" lon="11.104714125985815"><ele>220.0</ele><time>2026-05-02T08:33:56.998Z</time></trkpt><trkpt lat="46.14247962407685" lon="11.104787579866443"><ele>220.0</ele><time>2026-05-02T08:33:57.998Z</time></trkpt><trkpt lat="46.142558801658645" lon="11.10486449117951"><ele>220.4</ele><time>2026-05-02T08:33:58.998Z</time></trkpt><trkpt lat="46.14263741946134" lon="11.104945981617417"><ele>220.8</ele><time>2026-05-02T08:33:59.998Z</time></trkpt><trkpt lat="46.14272147272808" lon="11.105029385792408"><ele>221.2</ele><time>2026-05-02T08:34:00.998Z</time></trkpt><trkpt lat="46.14281043722542" lon="11.105120762595469"><ele>221.6</ele><time>2026-05-02T08:34:01.998Z</time></trkpt><trkpt lat="46.14290230657907" lon="11.105230128898967"><ele>222.0</ele><time>2026-05-02T08:34:02.998Z</time></trkpt><trkpt lat="46.14298309542214" lon="11.105364219631811"><ele>222.0</ele><time>2026-05-02T08:34:03.998Z</time></trkpt><trkpt lat="46.14304768643867" lon="11.10551558579054"><ele>222.0</ele><time>2026-05-02T08:34:04.998Z</time></trkpt><trkpt lat="46.143100153333165" lon="11.105680662913663"><ele>222.0</ele><time>2026-05-02T08:34:05.998Z</time></trkpt><trkpt lat="46.14313945060394" lon="11.105858684788851"><ele>222.0</ele><time>2026-05-02T08:34:06.998Z</time></trkpt><trkpt lat="46.143166778743286" lon="11.106034565469638"><ele>222.2</ele><time>2026-05-02T08:34:07.998Z</time></trkpt><trkpt lat="46.14318923175174" lon="11.106186756109206"><ele>222.39999999999998</ele><time>2026-05-02T08:34:08.998Z</time></trkpt><trkpt lat="46.14320916630082" lon="11.10632078427763"><ele>222.60000000000002</ele><time>2026-05-02T08:34:09.998Z</time></trkpt><trkpt lat="46.14322292528411" lon="11.106435031843597"><ele>222.8</ele><time>2026-05-02T08:34:10.998Z</time></trkpt><trkpt lat="46.14323514206891" lon="11.106532195319936"><ele>223.0</ele><time>2026-05-02T08:34:11.998Z</time></trkpt><trkpt lat="46.143253407884714" lon="11.106685325629043"><ele>222.99999999999997</ele><time>2026-05-02T08:34:13.998Z</time></trkpt><trkpt lat="46.14326870594872" lon="11.106773628129938"><ele>223.0</ele><time>2026-05-02T08:34:14.998Z</time></trkpt><trkpt lat="46.14328910530851" lon="11.106888137754362"><ele>223.0</ele><time>2026-05-02T08:34:15.998Z</time></trkpt><trkpt lat="46.143309515261286" lon="11.10700181938666"><ele>223.0</ele><time>2026-05-02T08:34:16.998Z</time></trkpt><trkpt lat="46.143330621877816" lon="11.107122152183793"><ele>222.99999999999997</ele><time>2026-05-02T08:34:17.998Z</time></trkpt><trkpt lat="46.143350530547" lon="11.107260448603569"><ele>223.0</ele><time>2026-05-02T08:34:18.998Z</time></trkpt><trkpt lat="46.14336981052773" lon="11.10740934732533"><ele>223.2</ele><time>2026-05-02T08:34:20Z</time></trkpt><trkpt lat="46.143392007440205" lon="11.107556396776541"><ele>223.4</ele><time>2026-05-02T08:34:21Z</time></trkpt><trkpt lat="46.14341340639154" lon="11.107711925612207"><ele>223.59999999999997</ele><time>2026-05-02T08:34:22Z</time></trkpt><trkpt lat="46.143437606565385" lon="11.107868239667116"><ele>223.79999999999998</ele><time>2026-05-02T08:34:23Z</time></trkpt><trkpt lat="46.143465183232436" lon="11.108026354218884"><ele>224.0</ele><time>2026-05-02T08:34:24Z</time></trkpt><trkpt lat="46.14350257762671" lon="11.108203719133925"><ele>224.25</ele><time>2026-05-02T08:34:25Z</time></trkpt><trkpt lat="46.143554648452216" lon="11.108391141324008"><ele>224.5</ele><time>2026-05-02T08:34:26Z</time></trkpt><trkpt lat="46.14361989819673" lon="11.108574986121422"><ele>224.75</ele><time>2026-05-02T08:34:27Z</time></trkpt><trkpt lat="46.14370509469623" lon="11.108753386037924"><ele>225.0</ele><time>2026-05-02T08:34:28Z</time></trkpt><trkpt lat="46.143808559726516" lon="11.108923819648684"><ele>225.33333333333331</ele><time>2026-05-02T08:34:29Z</time></trkpt><trkpt lat="46.14392710287474" lon="11.109077668081397"><ele>225.66666666666666</ele><time>2026-05-02T08:34:30Z</time></trkpt><trkpt lat="46.1440644716731" lon="11.109217166311923"><ele>226.0</ele><time>2026-05-02T08:34:31Z</time></trkpt><trkpt lat="46.14421260022338" lon="11.109340215126165"><ele>226.66666666666666</ele><time>2026-05-02T08:34:32Z</time></trkpt><trkpt lat="46.14437002314312" lon="11.109449132800837"><ele>227.33333333333331</ele><time>2026-05-02T08:34:33Z</time></trkpt><trkpt lat="46.144526554613435" lon="11.109545927076875"><ele>228.0</ele><time>2026-05-02T08:34:34Z</time></trkpt><trkpt lat="46.14467887378861" lon="11.109649802741956"><ele>228.0</ele><time>2026-05-02T08:34:35Z</time></trkpt><trkpt lat="46.144835759409695" lon="11.109756847797863"><ele>228.0</ele><time>2026-05-02T08:34:36Z</time></trkpt><trkpt lat="46.14499484653252" lon="11.109864010303873"><ele>228.0</ele><time>2026-05-02T08:34:37Z</time></trkpt><trkpt lat="46.14514790184992" lon="11.109966673445133"><ele>230.75</ele><time>2026-05-02T08:34:38Z</time></trkpt><trkpt lat="46.145278350298476" lon="11.110052522641867"><ele>233.5</ele><time>2026-05-02T08:34:39Z</time></trkpt><trkpt lat="46.14538193672755" lon="11.110153921994705"><ele>236.25</ele><time>2026-05-02T08:34:40Z</time></trkpt><trkpt lat="46.145454067920156" lon="11.110307986933849"><ele>239.0</ele><time>2026-05-02T08:34:41Z</time></trkpt><trkpt lat="46.14549015697705" lon="11.110470168681676"><ele>239.0</ele><time>2026-05-02T08:34:42Z</time></trkpt><trkpt lat="46.14550208676581" lon="11.110645093444699"><ele>239.0</ele><time>2026-05-02T08:34:43Z</time></trkpt><trkpt lat="46.14549313014555" lon="11.110808032779092"><ele>239.0</ele><time>2026-05-02T08:34:44Z</time></trkpt><trkpt lat="46.14544244163886" lon="11.11097213544101"><ele>239.0</ele><time>2026-05-02T08:34:45Z</time></trkpt><trkpt lat="46.14535548553519" lon="11.111152505465132"><ele>240.25</ele><time>2026-05-02T08:34:46Z</time></trkpt><trkpt lat="46.145278501388624" lon="11.111322257957182"><ele>241.5</ele><time>2026-05-02T08:34:47Z</time></trkpt><trkpt lat="46.145208478835166" lon="11.111474020983222"><ele>242.75</ele><time>2026-05-02T08:34:48Z</time></trkpt><trkpt lat="46.14514397660023" lon="11.11161848713621"><ele>244.0</ele><time>2026-05-02T08:34:49Z</time></trkpt><trkpt lat="46.145071641057854" lon="11.111775266775219"><ele>244.75</ele><time>2026-05-02T08:34:50Z</time></trkpt><trkpt lat="46.14499397303822" lon="11.111933157732954"><ele>245.5</ele><time>2026-05-02T08:34:51Z</time></trkpt><trkpt lat="46.14490868932823" lon="11.112090460892185"><ele>246.25</ele><time>2026-05-02T08:34:52Z</time></trkpt><trkpt lat="46.144810297157356" lon="11.112232670517502"><ele>247.0</ele><time>2026-05-02T08:34:53Z</time></trkpt><trkpt lat="46.144698578193214" lon="11.112336954571258"><ele>250.0</ele><time>2026-05-02T08:34:54Z</time></trkpt><trkpt lat="46.144578478792276" lon="11.11241973563256"><ele>253.0</ele><time>2026-05-02T08:34:54.999Z</time></trkpt><trkpt lat="46.144460183203634" lon="11.112478020698653"><ele>256.0</ele><time>2026-05-02T08:34:55.999Z</time></trkpt><trkpt lat="46.14433997533627" lon="11.11248791900989"><ele>259.0</ele><time>2026-05-02T08:34:56.999Z</time></trkpt><trkpt lat="46.144225069499605" lon="11.112519256374673"><ele>259.0</ele><time>2026-05-02T08:34:57.999Z</time></trkpt><trkpt lat="46.14411083852161" lon="11.112573855389849"><ele>259.0</ele><time>2026-05-02T08:34:58.999Z</time></trkpt><trkpt lat="46.14399343859025" lon="11.112601910412106"><ele>259.0</ele><time>2026-05-02T08:34:59.999Z</time></trkpt><trkpt lat="46.14388004512251" lon="11.112633335012086"><ele>259.0</ele><time>2026-05-02T08:35:00.999Z</time></trkpt><trkpt lat="46.143769411440566" lon="11.112665505087678"><ele>258.5</ele><time>2026-05-02T08:35:01.999Z</time></trkpt><trkpt lat="46.14365970626081" lon="11.112694206390314"><ele>258.0</ele><time>2026-05-02T08:35:02.999Z</time></trkpt><trkpt lat="46.1435511666269" lon="11.112716629724764"><ele>257.5</ele><time>2026-05-02T08:35:03.999Z</time></trkpt><trkpt lat="46.143437913275015" lon="11.112748806312846"><ele>257.0</ele><time>2026-05-02T08:35:04.999Z</time></trkpt><trkpt lat="46.14331862015051" lon="11.112756871718386"><ele>255.0</ele><time>2026-05-02T08:35:05.999Z</time></trkpt><trkpt lat="46.14320388580423" lon="11.112815817589919"><ele>253.0</ele><time>2026-05-02T08:35:06.999Z</time></trkpt><trkpt lat="46.143083080513" lon="11.112883422756525"><ele>251.0</ele><time>2026-05-02T08:35:07.999Z</time></trkpt><trkpt lat="46.142962596043986" lon="11.112978496937693"><ele>249.0</ele><time>2026-05-02T08:35:08.999Z</time></trkpt><trkpt lat="46.14284898224877" lon="11.113103359177227"><ele>253.66666666666669</ele><time>2026-05-02T08:35:09.999Z</time></trkpt><trkpt lat="46.14274880430768" lon="11.113254878441571"><ele>258.33333333333337</ele><time>2026-05-02T08:35:10.999Z</time></trkpt><trkpt lat="46.14264964286652" lon="11.113419060196795"><ele>263.0</ele><time>2026-05-02T08:35:11.999Z</time></trkpt><trkpt lat="46.14254072082575" lon="11.113582444637801"><ele>263.0</ele><time>2026-05-02T08:35:12.999Z</time></trkpt><trkpt lat="46.14243133100864" lon="11.11375771990626"><ele>263.0</ele><time>2026-05-02T08:35:13.999Z</time></trkpt><trkpt lat="46.14231930865081" lon="11.113938961618732"><ele>263.0</ele><time>2026-05-02T08:35:14.999Z</time></trkpt><trkpt lat="46.142207911180925" lon="11.114108760102427"><ele>263.25</ele><time>2026-05-02T08:35:15.999Z</time></trkpt><trkpt lat="46.14210289159802" lon="11.114265605535188"><ele>263.5</ele><time>2026-05-02T08:35:16.999Z</time></trkpt><trkpt lat="46.14200765586906" lon="11.11440755382774"><ele>263.75</ele><time>2026-05-02T08:35:17.999Z</time></trkpt><trkpt lat="46.141906061035826" lon="11.114533976961061"><ele>264.0</ele><time>2026-05-02T08:35:18.999Z</time></trkpt><trkpt lat="46.141790015073056" lon="11.11464787730473"><ele>264.0</ele><time>2026-05-02T08:35:19.999Z</time></trkpt><trkpt lat="46.14166550602818" lon="11.11474752974544"><ele>264.0</ele><time>2026-05-02T08:35:20.999Z</time></trkpt><trkpt lat="46.1415198741398" lon="11.114820553532551"><ele>264.0</ele><time>2026-05-02T08:35:21.999Z</time></trkpt><trkpt lat="46.14135992112286" lon="11.114904174844485"><ele>267.6666666666667</ele><time>2026-05-02T08:35:22.999Z</time></trkpt><trkpt lat="46.1411993414086" lon="11.114985182492207"><ele>271.33333333333337</ele><time>2026-05-02T08:35:23.999Z</time></trkpt><trkpt lat="46.141048727319856" lon="11.115056611587109"><ele>275.0</ele><time>2026-05-02T08:35:24.999Z</time></trkpt><trkpt lat="46.140914533943985" lon="11.115111501297745"><ele>275.0</ele><time>2026-05-02T08:35:25.999Z</time></trkpt><trkpt lat="46.14079715297344" lon="11.115142167425399"><ele>275.0</ele><time>2026-05-02T08:35:26.999Z</time></trkpt><trkpt lat="46.14069639103647" lon="11.11515677185005"><ele>275.0</ele><time>2026-05-02T08:35:27.999Z</time></trkpt><trkpt lat="46.14062076478155" lon="11.115154748284763"><ele>275.0</ele><time>2026-05-02T08:35:28.999Z</time></trkpt><trkpt lat="46.14056423926893" lon="11.11520723895289"><ele>275.0</ele><time>2026-05-02T08:35:29.999Z</time></trkpt><trkpt lat="46.140534780389785" lon="11.115297624248555"><ele>275.0</ele><time>2026-05-02T08:35:30.999Z</time></trkpt><trkpt lat="46.14052035561957" lon="11.115393040430718"><ele>275.0</ele><time>2026-05-02T08:35:31.999Z</time></trkpt><trkpt lat="46.140604840047615" lon="11.115512202835934"><ele>275.0</ele><time>2026-05-02T08:35:32.999Z</time></trkpt><trkpt lat="46.140684079414825" lon="11.11555692418922"><ele>275.0</ele><time>2026-05-02T08:35:33.999Z</time></trkpt><trkpt lat="46.140771966103664" lon="11.115524787926736"><ele>275.0</ele><time>2026-05-02T08:35:34.999Z</time></trkpt><trkpt lat="46.14087892389845" lon="11.115438445527971"><ele>275.0</ele><time>2026-05-02T08:35:35.999Z</time></trkpt><trkpt lat="46.14101557158596" lon="11.115340107081458"><ele>275.0</ele><time>2026-05-02T08:35:36.999Z</time></trkpt><trkpt lat="46.14116772881199" lon="11.115261914151342"><ele>275.0</ele><time>2026-05-02T08:35:37.999Z</time></trkpt><trkpt lat="46.14133924869149" lon="11.115198990665547"><ele>275.0</ele><time>2026-05-02T08:35:38.999Z</time></trkpt><trkpt lat="46.14150372494029" lon="11.115139334969577"><ele>277.6666666666667</ele><time>2026-05-02T08:35:39.999Z</time></trkpt><trkpt lat="46.14166614196686" lon="11.115077624657907"><ele>280.3333333333333</ele><time>2026-05-02T08:35:40.999Z</time></trkpt><trkpt lat="46.141847463167124" lon="11.115024659194543"><ele>283.0</ele><time>2026-05-02T08:35:41.999Z</time></trkpt><trkpt lat="46.142042729712756" lon="11.115009804819492"><ele>283.0</ele><time>2026-05-02T08:35:42.999Z</time></trkpt><trkpt lat="46.14225708445615" lon="11.115008520718678"><ele>283.0</ele><time>2026-05-02T08:35:43.999Z</time></trkpt><trkpt lat="46.14247852307336" lon="11.115007471860524"><ele>283.0</ele><time>2026-05-02T08:35:44.999Z</time></trkpt><trkpt lat="46.14270147623943" lon="11.114997860117912"><ele>281.0</ele><time>2026-05-02T08:35:45.999Z</time></trkpt><trkpt lat="46.14290843761637" lon="11.114977075821653"><ele>279.0</ele><time>2026-05-02T08:35:46.999Z</time></trkpt><trkpt lat="46.1430947874097" lon="11.114937987018365"><ele>277.0</ele><time>2026-05-02T08:35:47.999Z</time></trkpt><trkpt lat="46.14327260729914" lon="11.114875761325779"><ele>277.0</ele><time>2026-05-02T08:35:48.999Z</time></trkpt><trkpt lat="46.143430737810256" lon="11.11480050277292"><ele>277.0</ele><time>2026-05-02T08:35:49.999Z</time></trkpt><trkpt lat="46.14355416683964" lon="11.11472391645627"><ele>277.0</ele><time>2026-05-02T08:35:50.999Z</time></trkpt><trkpt lat="46.143644958891024" lon="11.114653385202748"><ele>277.0</ele><time>2026-05-02T08:35:51.999Z</time></trkpt><trkpt lat="46.14370707692133" lon="11.114608606767145"><ele>277.0</ele><time>2026-05-02T08:35:52.999Z</time></trkpt><trkpt lat="46.143770908328904" lon="11.114623548704326"><ele>277.0</ele><time>2026-05-02T08:35:53.999Z</time></trkpt><trkpt lat="46.14381372019543" lon="11.11469202578317"><ele>277.0</ele><time>2026-05-02T08:35:54.999Z</time></trkpt><trkpt lat="46.14382221576899" lon="11.114807753342449"><ele>277.0</ele><time>2026-05-02T08:35:55.999Z</time></trkpt><trkpt lat="46.14378646366448" lon="11.114899011438556"><ele>277.0</ele><time>2026-05-02T08:35:56.999Z</time></trkpt><trkpt lat="46.143713018859074" lon="11.114931782534656"><ele>277.0</ele><time>2026-05-02T08:35:57.999Z</time></trkpt><trkpt lat="46.14361122532086" lon="11.11492851246236"><ele>283.0</ele><time>2026-05-02T08:35:58.999Z</time></trkpt><trkpt lat="46.14347501191998" lon="11.114936423754957"><ele>289.0</ele><time>2026-05-02T08:35:59.999Z</time></trkpt><trkpt lat="46.143321783448364" lon="11.114993496723761"><ele>295.0</ele><time>2026-05-02T08:36:00.999Z</time></trkpt><trkpt lat="46.14315106051285" lon="11.115098837184837"><ele>295.0</ele><time>2026-05-02T08:36:01.999Z</time></trkpt><trkpt lat="46.142981133196145" lon="11.115251553063173"><ele>295.0</ele><time>2026-05-02T08:36:02.999Z</time></trkpt><trkpt lat="46.14275218903062" lon="11.115249712072604"><ele>295.0</ele><time>2026-05-02T08:36:03.999Z</time></trkpt><trkpt lat="46.1425612478412" lon="11.11531684544678"><ele>295.0</ele><time>2026-05-02T08:36:04.999Z</time></trkpt><trkpt lat="46.14239948553737" lon="11.11533622122191"><ele>295.0</ele><time>2026-05-02T08:36:05.999Z</time></trkpt><trkpt lat="46.142272737173286" lon="11.11542394375735"><ele>295.0</ele><time>2026-05-02T08:36:06.999Z</time></trkpt><trkpt lat="46.14215407020093" lon="11.115531200479332"><ele>295.0</ele><time>2026-05-02T08:36:07.999Z</time></trkpt><trkpt lat="46.14202456455767" lon="11.115619275423787"><ele>292.0</ele><time>2026-05-02T08:36:08.999Z</time></trkpt><trkpt lat="46.14192289715933" lon="11.115724339893928"><ele>289.0</ele><time>2026-05-02T08:36:09.999Z</time></trkpt><trkpt lat="46.14183099513433" lon="11.115829746206852"><ele>286.0</ele><time>2026-05-02T08:36:10.999Z</time></trkpt><trkpt lat="46.14176999395604" lon="11.115969773623062"><ele>283.0</ele><time>2026-05-02T08:36:11.999Z</time></trkpt><trkpt lat="46.14173571766597" lon="11.116124430200326"><ele>289.2</ele><time>2026-05-02T08:36:12.998Z</time></trkpt><trkpt lat="46.14168296211302" lon="11.116246468411697"><ele>295.4</ele><time>2026-05-02T08:36:13.998Z</time></trkpt><trkpt lat="46.14167991057846" lon="11.116366656945432"><ele>301.59999999999997</ele><time>2026-05-02T08:36:14.998Z</time></trkpt><trkpt lat="46.14166611179103" lon="11.116484154201117"><ele>307.8</ele><time>2026-05-02T08:36:15.998Z</time></trkpt><trkpt lat="46.14168540941553" lon="11.11660797960002"><ele>314.0</ele><time>2026-05-02T08:36:16.998Z</time></trkpt><trkpt lat="46.14177091265371" lon="11.116729409893804"><ele>318.5</ele><time>2026-05-02T08:36:17.998Z</time></trkpt><trkpt lat="46.14185879998733" lon="11.116877273233372"><ele>323.0</ele><time>2026-05-02T08:36:18.998Z</time></trkpt><trkpt lat="46.14194809599449" lon="11.117043299585504"><ele>327.5</ele><time>2026-05-02T08:36:19.998Z</time></trkpt><trkpt lat="46.14202295297413" lon="11.117231652490172"><ele>332.0</ele><time>2026-05-02T08:36:20.998Z</time></trkpt><trkpt lat="46.14209705377773" lon="11.117423298895131"><ele>332.0</ele><time>2026-05-02T08:36:21.998Z</time></trkpt><trkpt lat="46.142174371867505" lon="11.117592953118868"><ele>332.0</ele><time>2026-05-02T08:36:22.998Z</time></trkpt><trkpt lat="46.14225424162286" lon="11.117722535706438"><ele>332.0</ele><time>2026-05-02T08:36:23.998Z</time></trkpt><trkpt lat="46.14234175168377" lon="11.117805548964803"><ele>332.0</ele><time>2026-05-02T08:36:24.998Z</time></trkpt><trkpt lat="46.14245901797296" lon="11.11788141761492"><ele>333.0</ele><time>2026-05-02T08:36:26Z</time></trkpt><trkpt lat="46.14259344136859" lon="11.117970946816811"><ele>334.0</ele><time>2026-05-02T08:36:27Z</time></trkpt><trkpt lat="46.14272670673347" lon="11.11808181783672"><ele>335.0</ele><time>2026-05-02T08:36:28Z</time></trkpt><trkpt lat="46.14286414231579" lon="11.11818108091088"><ele>334.0</ele><time>2026-05-02T08:36:29Z</time></trkpt><trkpt lat="46.14301324910758" lon="11.118259618670963"><ele>333.0</ele><time>2026-05-02T08:36:30Z</time></trkpt><trkpt lat="46.14317389976474" lon="11.118319348999131"><ele>332.0</ele><time>2026-05-02T08:36:31Z</time></trkpt><trkpt lat="46.14333561045663" lon="11.118372172559667"><ele>336.0</ele><time>2026-05-02T08:36:32Z</time></trkpt><trkpt lat="46.14349938295616" lon="11.118425816501956"><ele>340.0</ele><time>2026-05-02T08:36:33Z</time></trkpt><trkpt lat="46.14366595927284" lon="11.118478120666754"><ele>344.0</ele><time>2026-05-02T08:36:34Z</time></trkpt><trkpt lat="46.143836689813384" lon="11.118533788799862"><ele>344.0</ele><time>2026-05-02T08:36:35Z</time></trkpt><trkpt lat="46.144011828142744" lon="11.118590231576922"><ele>344.0</ele><time>2026-05-02T08:36:36Z</time></trkpt><trkpt lat="46.1441986263401" lon="11.118645306221758"><ele>344.0</ele><time>2026-05-02T08:36:37Z</time></trkpt><trkpt lat="46.14439187144384" lon="11.118709894236785"><ele>348.33333333333337</ele><time>2026-05-02T08:36:38Z</time></trkpt><trkpt lat="46.14458615952798" lon="11.11876690129272"><ele>352.6666666666667</ele><time>2026-05-02T08:36:39Z</time></trkpt><trkpt lat="46.14477444325236" lon="11.118827434395289"><ele>357.0</ele><time>2026-05-02T08:36:40Z</time></trkpt><trkpt lat="46.144952691477975" lon="11.118883769212122"><ele>359.75</ele><time>2026-05-02T08:36:41Z</time></trkpt><trkpt lat="46.14511493798442" lon="11.118934772197596"><ele>362.5</ele><time>2026-05-02T08:36:42Z</time></trkpt><trkpt lat="46.14526103125135" lon="11.118955196536275"><ele>365.25</ele><time>2026-05-02T08:36:43Z</time></trkpt><trkpt lat="46.14536559606416" lon="11.118947330843362"><ele>368.0</ele><time>2026-05-02T08:36:44Z</time></trkpt><trkpt lat="46.14542757099671" lon="11.11892525546406"><ele>368.0</ele><time>2026-05-02T08:36:45Z</time></trkpt><trkpt lat="46.145504490464745" lon="11.118914541747424"><ele>368.0</ele><time>2026-05-02T08:36:46Z</time></trkpt><trkpt lat="46.14557831300685" lon="11.11889969289329"><ele>368.0</ele><time>2026-05-02T08:36:47Z</time></trkpt><trkpt lat="46.14563925142243" lon="11.118864774717137"><ele>368.0</ele><time>2026-05-02T08:36:48Z</time></trkpt><trkpt lat="46.145653140710195" lon="11.11870655391146"><ele>368.0</ele><time>2026-05-02T08:36:50Z</time></trkpt><trkpt lat="46.14553321475032" lon="11.118632835041092"><ele>368.0</ele><time>2026-05-02T08:36:52Z</time></trkpt><trkpt lat="46.1454562082098" lon="11.118665221775732"><ele>368.0</ele><time>2026-05-02T08:36:53Z</time></trkpt><trkpt lat="46.145375329498115" lon="11.118708536710441"><ele>368.0</ele><time>2026-05-02T08:36:54Z</time></trkpt><trkpt lat="46.1452894784003" lon="11.118692625368467"><ele>368.0</ele><time>2026-05-02T08:36:55Z</time></trkpt><trkpt lat="46.145197747642285" lon="11.118627976776597"><ele>368.0</ele><time>2026-05-02T08:36:56Z</time></trkpt><trkpt lat="46.145120316880615" lon="11.118524674174466"><ele>368.0</ele><time>2026-05-02T08:36:57Z</time></trkpt><trkpt lat="46.145082598773605" lon="11.118380755261674"><ele>368.0</ele><time>2026-05-02T08:36:58Z</time></trkpt><trkpt lat="46.14509547604579" lon="11.118254891621719"><ele>368.0</ele><time>2026-05-02T08:36:59Z</time></trkpt><trkpt lat="46.145149981898705" lon="11.118140288234736"><ele>368.0</ele><time>2026-05-02T08:37:00Z</time></trkpt><trkpt lat="46.1452374181107" lon="11.118044566279258"><ele>368.0</ele><time>2026-05-02T08:37:01Z</time></trkpt><trkpt lat="46.14533522819847" lon="11.117980871323086"><ele>373.25</ele><time>2026-05-02T08:37:01.999Z</time></trkpt><trkpt lat="46.145444887033165" lon="11.118019237105043"><ele>378.5</ele><time>2026-05-02T08:37:02.999Z</time></trkpt><trkpt lat="46.14557210223285" lon="11.118060060283492"><ele>383.75</ele><time>2026-05-02T08:37:03.999Z</time></trkpt><trkpt lat="46.1457593312258" lon="11.118111004552269"><ele>389.0</ele><time>2026-05-02T08:37:04.999Z</time></trkpt><trkpt lat="46.145956888891064" lon="11.118189176365906"><ele>380.0</ele><time>2026-05-02T08:37:05.999Z</time></trkpt><trkpt lat="46.14618403398524" lon="11.11827850163317"><ele>371.0</ele><time>2026-05-02T08:37:06.999Z</time></trkpt><trkpt lat="46.146433643575826" lon="11.118368486226377"><ele>375.33333333333337</ele><time>2026-05-02T08:37:07.999Z</time></trkpt><trkpt lat="46.14664057499533" lon="11.118444784863089"><ele>379.6666666666667</ele><time>2026-05-02T08:37:08.999Z</time></trkpt><trkpt lat="46.14682276497518" lon="11.118532522675725"><ele>384.0</ele><time>2026-05-02T08:37:09.999Z</time></trkpt><trkpt lat="46.14699789465623" lon="11.118667109383354"><ele>384.0</ele><time>2026-05-02T08:37:10.999Z</time></trkpt><trkpt lat="46.147170216886074" lon="11.118831192005661"><ele>384.0</ele><time>2026-05-02T08:37:11.999Z</time></trkpt><trkpt lat="46.14735221758047" lon="11.119022090906464"><ele>384.0</ele><time>2026-05-02T08:37:12.999Z</time></trkpt><trkpt lat="46.1475315120506" lon="11.119203671004623"><ele>387.66666666666663</ele><time>2026-05-02T08:37:13.999Z</time></trkpt><trkpt lat="46.14768587743532" lon="11.119365935896383"><ele>391.3333333333333</ele><time>2026-05-02T08:37:14.999Z</time></trkpt><trkpt lat="46.14781817514047" lon="11.119514111381934"><ele>395.0</ele><time>2026-05-02T08:37:15.999Z</time></trkpt><trkpt lat="46.147968237794466" lon="11.119650089136565"><ele>395.0</ele><time>2026-05-02T08:37:16.999Z</time></trkpt><trkpt lat="46.14814225234362" lon="11.11976030757709"><ele>395.0</ele><time>2026-05-02T08:37:17.999Z</time></trkpt><trkpt lat="46.14835506981549" lon="11.11987321511735"><ele>395.0</ele><time>2026-05-02T08:37:18.999Z</time></trkpt><trkpt lat="46.14853830755657" lon="11.119990098329815"><ele>395.0</ele><time>2026-05-02T08:37:19.999Z</time></trkpt><trkpt lat="46.14868083196106" lon="11.12013039422908"><ele>395.0</ele><time>2026-05-02T08:37:20.999Z</time></trkpt><trkpt lat="46.148804531018065" lon="11.120317974466506"><ele>395.0</ele><time>2026-05-02T08:37:21.999Z</time></trkpt><trkpt lat="46.148876280804416" lon="11.120542325640567"><ele>389.0</ele><time>2026-05-02T08:37:22.999Z</time></trkpt><trkpt lat="46.14894707405751" lon="11.120779037457796"><ele>383.0</ele><time>2026-05-02T08:37:23.999Z</time></trkpt><trkpt lat="46.1490205212524" lon="11.12102636146686"><ele>377.0</ele><time>2026-05-02T08:37:24.999Z</time></trkpt><trkpt lat="46.14910537944701" lon="11.121288421864291"><ele>390.6666666666667</ele><time>2026-05-02T08:37:25.999Z</time></trkpt><trkpt lat="46.14919157745828" lon="11.121562847988937"><ele>404.33333333333337</ele><time>2026-05-02T08:37:26.999Z</time></trkpt><trkpt lat="46.14928002495191" lon="11.121834111034078"><ele>418.0</ele><time>2026-05-02T08:37:27.999Z</time></trkpt><trkpt lat="46.149362772704485" lon="11.122086645481307"><ele>418.0</ele><time>2026-05-02T08:37:28.999Z</time></trkpt><trkpt lat="46.14944293010888" lon="11.122319905400579"><ele>418.0</ele><time>2026-05-02T08:37:29.999Z</time></trkpt><trkpt lat="46.14954073204027" lon="11.122546684710908"><ele>418.0</ele><time>2026-05-02T08:37:30.999Z</time></trkpt><trkpt lat="46.14965212635884" lon="11.122748913231076"><ele>418.0</ele><time>2026-05-02T08:37:31.999Z</time></trkpt><trkpt lat="46.149765136510496" lon="11.12293895174565"><ele>418.0</ele><time>2026-05-02T08:37:32.999Z</time></trkpt><trkpt lat="46.14986908174657" lon="11.123134434901388"><ele>418.0</ele><time>2026-05-02T08:37:33.999Z</time></trkpt><trkpt lat="46.14997094831907" lon="11.123326436586847"><ele>418.0</ele><time>2026-05-02T08:37:34.999Z</time></trkpt><trkpt lat="46.150075118690246" lon="11.123524495797703"><ele>418.0</ele><time>2026-05-02T08:37:35.999Z</time></trkpt><trkpt lat="46.15016157607266" lon="11.12372935760699"><ele>418.0</ele><time>2026-05-02T08:37:36.999Z</time></trkpt><trkpt lat="46.15022044354445" lon="11.12394840497503"><ele>414.0</ele><time>2026-05-02T08:37:37.999Z</time></trkpt><trkpt lat="46.15026779659306" lon="11.124164997549618"><ele>410.0</ele><time>2026-05-02T08:37:38.999Z</time></trkpt><trkpt lat="46.15030528346758" lon="11.124390662730288"><ele>406.0</ele><time>2026-05-02T08:37:39.999Z</time></trkpt><trkpt lat="46.150343363687796" lon="11.12462360840579"><ele>406.0</ele><time>2026-05-02T08:37:40.999Z</time></trkpt><trkpt lat="46.15037957474443" lon="11.12485656537304"><ele>406.0</ele><time>2026-05-02T08:37:41.999Z</time></trkpt><trkpt lat="46.15042890129531" lon="11.125115228764605"><ele>406.0</ele><time>2026-05-02T08:37:42.999Z</time></trkpt><trkpt lat="46.15047877440063" lon="11.125401008416933"><ele>402.6666666666667</ele><time>2026-05-02T08:37:43.999Z</time></trkpt><trkpt lat="46.150518661801385" lon="11.125682206789694"><ele>399.33333333333337</ele><time>2026-05-02T08:37:44.999Z</time></trkpt><trkpt lat="46.150566305224125" lon="11.125973480653663"><ele>396.0</ele><time>2026-05-02T08:37:45.999Z</time></trkpt><trkpt lat="46.15061294635155" lon="11.12624234251931"><ele>393.66666666666663</ele><time>2026-05-02T08:37:46.999Z</time></trkpt><trkpt lat="46.150658636684554" lon="11.126514055849384"><ele>391.3333333333333</ele><time>2026-05-02T08:37:47.999Z</time></trkpt><trkpt lat="46.1507130888978" lon="11.126809339556926"><ele>389.0</ele><time>2026-05-02T08:37:48.999Z</time></trkpt><trkpt lat="46.1507834576765" lon="11.127125791837779"><ele>403.0</ele><time>2026-05-02T08:37:49.999Z</time></trkpt><trkpt lat="46.15086569967411" lon="11.127461873059733"><ele>417.0</ele><time>2026-05-02T08:37:50.999Z</time></trkpt><trkpt lat="46.15094830336208" lon="11.127798507388476"><ele>417.0</ele><time>2026-05-02T08:37:51.999Z</time></trkpt><trkpt lat="46.15102361771971" lon="11.128120860942792"><ele>417.0</ele><time>2026-05-02T08:37:52.999Z</time></trkpt><trkpt lat="46.151094567229855" lon="11.128421026391885"><ele>415.66666666666663</ele><time>2026-05-02T08:37:53.999Z</time></trkpt><trkpt lat="46.15115589716017" lon="11.12868028143084"><ele>414.3333333333333</ele><time>2026-05-02T08:37:54.999Z</time></trkpt><trkpt lat="46.151216757021125" lon="11.128925097215836"><ele>413.0</ele><time>2026-05-02T08:37:55.999Z</time></trkpt><trkpt lat="46.15127676406324" lon="11.129171647168835"><ele>407.0</ele><time>2026-05-02T08:37:56.999Z</time></trkpt><trkpt lat="46.15133838209646" lon="11.12942398431041"><ele>401.0</ele><time>2026-05-02T08:37:57.999Z</time></trkpt><trkpt lat="46.15139610838518" lon="11.12968973804196"><ele>395.0</ele><time>2026-05-02T08:37:58.999Z</time></trkpt><trkpt lat="46.15141437816396" lon="11.129964877914242"><ele>389.66666666666663</ele><time>2026-05-02T08:37:59.999Z</time></trkpt><trkpt lat="46.15142874150449" lon="11.130222668171202"><ele>384.3333333333333</ele><time>2026-05-02T08:38:00.999Z</time></trkpt><trkpt lat="46.15145457474912" lon="11.130444201342566"><ele>379.0</ele><time>2026-05-02T08:38:01.999Z</time></trkpt><trkpt lat="46.15147508853862" lon="11.130630645200254"><ele>371.66666666666663</ele><time>2026-05-02T08:38:02.999Z</time></trkpt><trkpt lat="46.15150127434118" lon="11.130827985831129"><ele>364.3333333333333</ele><time>2026-05-02T08:38:03.999Z</time></trkpt><trkpt lat="46.15159098928423" lon="11.131019316406089"><ele>357.0</ele><time>2026-05-02T08:38:04.999Z</time></trkpt><trkpt lat="46.15167399919283" lon="11.131220610108267"><ele>371.66666666666663</ele><time>2026-05-02T08:38:05.999Z</time></trkpt><trkpt lat="46.151761155551064" lon="11.13142942877548"><ele>386.3333333333333</ele><time>2026-05-02T08:38:06.999Z</time></trkpt><trkpt lat="46.15185909715712" lon="11.13164002046656"><ele>401.0</ele><time>2026-05-02T08:38:07.999Z</time></trkpt><trkpt lat="46.15195671548105" lon="11.13183885790375"><ele>401.0</ele><time>2026-05-02T08:38:08.999Z</time></trkpt><trkpt lat="46.152085396503146" lon="11.13198490217341"><ele>401.0</ele><time>2026-05-02T08:38:09.999Z</time></trkpt><trkpt lat="46.15221179826564" lon="11.13215078592793"><ele>401.0</ele><time>2026-05-02T08:38:10.999Z</time></trkpt><trkpt lat="46.152334932163654" lon="11.132333870208026"><ele>410.3333333333333</ele><time>2026-05-02T08:38:11.999Z</time></trkpt><trkpt lat="46.15248081913703" lon="11.132499869598535"><ele>419.66666666666663</ele><time>2026-05-02T08:38:12.999Z</time></trkpt><trkpt lat="46.1526028521502" lon="11.13270138218957"><ele>429.0</ele><time>2026-05-02T08:38:13.999Z</time></trkpt><trkpt lat="46.15269256872517" lon="11.132926080971563"><ele>429.0</ele><time>2026-05-02T08:38:14.999Z</time></trkpt><trkpt lat="46.15278024362379" lon="11.13313201707254"><ele>429.0</ele><time>2026-05-02T08:38:15.999Z</time></trkpt><trkpt lat="46.152884019410145" lon="11.133371598093678"><ele>429.0</ele><time>2026-05-02T08:38:16.999Z</time></trkpt><trkpt lat="46.15300871560837" lon="11.13365947781079"><ele>428.33333333333337</ele><time>2026-05-02T08:38:17.998Z</time></trkpt><trkpt lat="46.153118623749386" lon="11.133913216551592"><ele>427.6666666666667</ele><time>2026-05-02T08:38:18.998Z</time></trkpt><trkpt lat="46.15322743527621" lon="11.134115172399119"><ele>427.0</ele><time>2026-05-02T08:38:19.998Z</time></trkpt><trkpt lat="46.15332990130163" lon="11.134327019719995"><ele>427.0</ele><time>2026-05-02T08:38:20.998Z</time></trkpt><trkpt lat="46.15344391211869" lon="11.134520363013475"><ele>427.0</ele><time>2026-05-02T08:38:21.998Z</time></trkpt><trkpt lat="46.153567149893476" lon="11.134729488976053"><ele>427.0</ele><time>2026-05-02T08:38:22.998Z</time></trkpt><trkpt lat="46.15372362623969" lon="11.134970935773042"><ele>434.5</ele><time>2026-05-02T08:38:23.998Z</time></trkpt><trkpt lat="46.15390042718128" lon="11.135242847493531"><ele>442.0</ele><time>2026-05-02T08:38:24.998Z</time></trkpt><trkpt lat="46.15405512130752" lon="11.135480526936306"><ele>442.0</ele><time>2026-05-02T08:38:25.998Z</time></trkpt><trkpt lat="46.15418769538529" lon="11.135699676564894"><ele>442.0</ele><time>2026-05-02T08:38:26.998Z</time></trkpt><trkpt lat="46.154278379775974" lon="11.135915671441808"><ele>442.0</ele><time>2026-05-02T08:38:27.998Z</time></trkpt><trkpt lat="46.154325205308396" lon="11.136135309799386"><ele>434.6666666666667</ele><time>2026-05-02T08:38:28.998Z</time></trkpt><trkpt lat="46.15437047513882" lon="11.136387732676157"><ele>427.33333333333337</ele><time>2026-05-02T08:38:29.998Z</time></trkpt><trkpt lat="46.15441802813016" lon="11.136655892788587"><ele>420.0</ele><time>2026-05-02T08:38:30.998Z</time></trkpt><trkpt lat="46.154461086281316" lon="11.136898635857227"><ele>420.5</ele><time>2026-05-02T08:38:32Z</time></trkpt><trkpt lat="46.15449712575911" lon="11.137101814793418"><ele>421.0</ele><time>2026-05-02T08:38:33Z</time></trkpt><trkpt lat="46.15451994198013" lon="11.137281971714636"><ele>421.5</ele><time>2026-05-02T08:38:34Z</time></trkpt><trkpt lat="46.15452353132905" lon="11.137460055567729"><ele>422.0</ele><time>2026-05-02T08:38:35Z</time></trkpt><trkpt lat="46.15446552175603" lon="11.137614200584727"><ele>422.0</ele><time>2026-05-02T08:38:36Z</time></trkpt><trkpt lat="46.154373136539455" lon="11.137769555926289"><ele>422.0</ele><time>2026-05-02T08:38:37Z</time></trkpt><trkpt lat="46.15427591300822" lon="11.137961706403628"><ele>422.0</ele><time>2026-05-02T08:38:38Z</time></trkpt><trkpt lat="46.154172417260725" lon="11.138151944123743"><ele>424.0</ele><time>2026-05-02T08:38:39Z</time></trkpt><trkpt lat="46.15406798775798" lon="11.138337797146168"><ele>426.0</ele><time>2026-05-02T08:38:40Z</time></trkpt><trkpt lat="46.153955575432036" lon="11.138535350415186"><ele>428.0</ele><time>2026-05-02T08:38:41Z</time></trkpt><trkpt lat="46.15383766456967" lon="11.138739872970755"><ele>426.66666666666663</ele><time>2026-05-02T08:38:42Z</time></trkpt><trkpt lat="46.15372638379274" lon="11.138947239052552"><ele>425.33333333333337</ele><time>2026-05-02T08:38:43Z</time></trkpt><trkpt lat="46.15363667872915" lon="11.139124906330643"><ele>424.0</ele><time>2026-05-02T08:38:44Z</time></trkpt><trkpt lat="46.15357668682726" lon="11.139298340268798"><ele>424.0</ele><time>2026-05-02T08:38:45Z</time></trkpt><trkpt lat="46.15355231134372" lon="11.139489195830667"><ele>424.0</ele><time>2026-05-02T08:38:46Z</time></trkpt><trkpt lat="46.153560831606185" lon="11.139699438341674"><ele>424.0</ele><time>2026-05-02T08:38:47Z</time></trkpt><trkpt lat="46.153586304173736" lon="11.139910070286806"><ele>424.0</ele><time>2026-05-02T08:38:48Z</time></trkpt><trkpt lat="46.15361099511885" lon="11.140107049512771"><ele>423.0</ele><time>2026-05-02T08:38:49Z</time></trkpt><trkpt lat="46.15364971695314" lon="11.140295205780204"><ele>422.0</ele><time>2026-05-02T08:38:50Z</time></trkpt><trkpt lat="46.15371758654808" lon="11.140470942746273"><ele>421.0</ele><time>2026-05-02T08:38:51Z</time></trkpt><trkpt lat="46.15380842207787" lon="11.14059337695752"><ele>420.0</ele><time>2026-05-02T08:38:52Z</time></trkpt><trkpt lat="46.153931251174825" lon="11.140688149955482"><ele>424.33333333333337</ele><time>2026-05-02T08:38:53Z</time></trkpt><trkpt lat="46.15407252874959" lon="11.14078344438544"><ele>428.6666666666667</ele><time>2026-05-02T08:38:54Z</time></trkpt><trkpt lat="46.15421173752474" lon="11.140883328082985"><ele>433.0</ele><time>2026-05-02T08:38:55Z</time></trkpt><trkpt lat="46.154347588483674" lon="11.140999922650304"><ele>433.0</ele><time>2026-05-02T08:38:56Z</time></trkpt><trkpt lat="46.154469053195065" lon="11.141142112329478"><ele>433.0</ele><time>2026-05-02T08:38:57Z</time></trkpt><trkpt lat="46.15457026701646" lon="11.141303777475448"><ele>433.0</ele><time>2026-05-02T08:38:58Z</time></trkpt><trkpt lat="46.154653827125" lon="11.141486252840455"><ele>427.33333333333337</ele><time>2026-05-02T08:38:59Z</time></trkpt><trkpt lat="46.1547137312943" lon="11.141706491328824"><ele>421.66666666666663</ele><time>2026-05-02T08:39:00Z</time></trkpt><trkpt lat="46.15477262150321" lon="11.141959188230176"><ele>416.0</ele><time>2026-05-02T08:39:01Z</time></trkpt><trkpt lat="46.154829887832335" lon="11.142226122505535"><ele>425.0</ele><time>2026-05-02T08:39:02Z</time></trkpt><trkpt lat="46.15488912750859" lon="11.142495697861788"><ele>434.0</ele><time>2026-05-02T08:39:03Z</time></trkpt><trkpt lat="46.15494591672525" lon="11.142753558863976"><ele>443.0</ele><time>2026-05-02T08:39:04Z</time></trkpt><trkpt lat="46.155001785473566" lon="11.142999767107218"><ele>443.0</ele><time>2026-05-02T08:39:05Z</time></trkpt><trkpt lat="46.15505449491013" lon="11.143227177498156"><ele>443.0</ele><time>2026-05-02T08:39:06Z</time></trkpt><trkpt lat="46.15510372412362" lon="11.143449440428336"><ele>443.0</ele><time>2026-05-02T08:39:07Z</time></trkpt><trkpt lat="46.155134572057186" lon="11.143667933498149"><ele>443.0</ele><time>2026-05-02T08:39:08Z</time></trkpt><trkpt lat="46.15519298412668" lon="11.143859419764512"><ele>443.0</ele><time>2026-05-02T08:39:09Z</time></trkpt><trkpt lat="46.15522986760687" lon="11.144025379486376"><ele>443.0</ele><time>2026-05-02T08:39:10Z</time></trkpt><trkpt lat="46.155271328646485" lon="11.144181644456935"><ele>443.0</ele><time>2026-05-02T08:39:11Z</time></trkpt><trkpt lat="46.15535569851945" lon="11.14430408884132"><ele>440.3333333333333</ele><time>2026-05-02T08:39:12Z</time></trkpt><trkpt lat="46.15547261148809" lon="11.14441874629162"><ele>437.66666666666663</ele><time>2026-05-02T08:39:12.999Z</time></trkpt><trkpt lat="46.15562274500403" lon="11.144552768015124"><ele>435.0</ele><time>2026-05-02T08:39:13.999Z</time></trkpt><trkpt lat="46.15577482643701" lon="11.144702091250373"><ele>437.0</ele><time>2026-05-02T08:39:14.999Z</time></trkpt><trkpt lat="46.15591750702384" lon="11.14484891282981"><ele>439.0</ele><time>2026-05-02T08:39:15.999Z</time></trkpt><trkpt lat="46.156056963475386" lon="11.144994519377029"><ele>441.0</ele><time>2026-05-02T08:39:16.999Z</time></trkpt><trkpt lat="46.156198579665" lon="11.14513528514955"><ele>441.0</ele><time>2026-05-02T08:39:17.999Z</time></trkpt><trkpt lat="46.15632495453208" lon="11.145262107618638"><ele>441.0</ele><time>2026-05-02T08:39:18.999Z</time></trkpt><trkpt lat="46.15644729814069" lon="11.145371642880749"><ele>441.0</ele><time>2026-05-02T08:39:19.999Z</time></trkpt><trkpt lat="46.15657512341952" lon="11.145478923465834"><ele>441.0</ele><time>2026-05-02T08:39:20.999Z</time></trkpt><trkpt lat="46.15670402020761" lon="11.145582265573548"><ele>444.0</ele><time>2026-05-02T08:39:21.999Z</time></trkpt><trkpt lat="46.15683570564988" lon="11.145679292465267"><ele>447.0</ele><time>2026-05-02T08:39:22.999Z</time></trkpt><trkpt lat="46.15696729801273" lon="11.145782127993618"><ele>450.0</ele><time>2026-05-02T08:39:23.999Z</time></trkpt><trkpt lat="46.15709628873341" lon="11.1459155564486"><ele>450.0</ele><time>2026-05-02T08:39:24.999Z</time></trkpt><trkpt lat="46.15722079888356" lon="11.146082668970305"><ele>450.0</ele><time>2026-05-02T08:39:25.999Z</time></trkpt><trkpt lat="46.15735361822985" lon="11.146270847676664"><ele>450.0</ele><time>2026-05-02T08:39:26.999Z</time></trkpt><trkpt lat="46.15749700887437" lon="11.146475952137195"><ele>448.33333333333337</ele><time>2026-05-02T08:39:27.999Z</time></trkpt><trkpt lat="46.157640284568565" lon="11.146679076616303"><ele>446.6666666666667</ele><time>2026-05-02T08:39:28.999Z</time></trkpt><trkpt lat="46.15776706714916" lon="11.146901645823679"><ele>445.0</ele><time>2026-05-02T08:39:29.999Z</time></trkpt><trkpt lat="46.15789152159867" lon="11.147103767845394"><ele>445.0</ele><time>2026-05-02T08:39:30.999Z</time></trkpt><trkpt lat="46.15799893252081" lon="11.147290196012799"><ele>445.0</ele><time>2026-05-02T08:39:31.999Z</time></trkpt><trkpt lat="46.15809445715465" lon="11.1474598521007"><ele>445.0</ele><time>2026-05-02T08:39:32.999Z</time></trkpt><trkpt lat="46.15817109820401" lon="11.147617489805983"><ele>442.0</ele><time>2026-05-02T08:39:33.999Z</time></trkpt><trkpt lat="46.1582126040661" lon="11.147783120426709"><ele>439.0</ele><time>2026-05-02T08:39:34.999Z</time></trkpt><trkpt lat="46.15821243147719" lon="11.147950984547455"><ele>436.0</ele><time>2026-05-02T08:39:35.999Z</time></trkpt><trkpt lat="46.15818535540943" lon="11.148141897206072"><ele>433.0</ele><time>2026-05-02T08:39:36.999Z</time></trkpt><trkpt lat="46.15815518483283" lon="11.14835187059843"><ele>432.25</ele><time>2026-05-02T08:39:37.999Z</time></trkpt><trkpt lat="46.158145225053886" lon="11.148537797418781"><ele>431.5</ele><time>2026-05-02T08:39:38.999Z</time></trkpt><trkpt lat="46.15816662514974" lon="11.148711849395584"><ele>430.75</ele><time>2026-05-02T08:39:39.999Z</time></trkpt><trkpt lat="46.15823768701469" lon="11.148887865937404"><ele>430.0</ele><time>2026-05-02T08:39:40.999Z</time></trkpt><trkpt lat="46.158305857668275" lon="11.149094233577294"><ele>438.0</ele><time>2026-05-02T08:39:41.999Z</time></trkpt><trkpt lat="46.15837031593692" lon="11.149283342732744"><ele>446.0</ele><time>2026-05-02T08:39:42.999Z</time></trkpt><trkpt lat="46.15843735594566" lon="11.149455068276877"><ele>454.0</ele><time>2026-05-02T08:39:43.999Z</time></trkpt><trkpt lat="46.15853203871681" lon="11.149597936023122"><ele>462.0</ele><time>2026-05-02T08:39:44.999Z</time></trkpt><trkpt lat="46.15864601123226" lon="11.149734131250492"><ele>457.66666666666663</ele><time>2026-05-02T08:39:45.999Z</time></trkpt><trkpt lat="46.15875322372148" lon="11.149898991778254"><ele>453.3333333333333</ele><time>2026-05-02T08:39:46.999Z</time></trkpt><trkpt lat="46.15886973822958" lon="11.150051514722486"><ele>449.0</ele><time>2026-05-02T08:39:47.999Z</time></trkpt><trkpt lat="46.1589950134146" lon="11.150192642552893"><ele>456.66666666666663</ele><time>2026-05-02T08:39:48.999Z</time></trkpt><trkpt lat="46.15910717651889" lon="11.15035659714707"><ele>464.33333333333337</ele><time>2026-05-02T08:39:49.999Z</time></trkpt><trkpt lat="46.15921711296895" lon="11.150524640509348"><ele>472.0</ele><time>2026-05-02T08:39:50.999Z</time></trkpt><trkpt lat="46.15931114787409" lon="11.150709371894836"><ele>472.0</ele><time>2026-05-02T08:39:51.999Z</time></trkpt><trkpt lat="46.15937090487592" lon="11.150908941720829"><ele>472.0</ele><time>2026-05-02T08:39:52.999Z</time></trkpt><trkpt lat="46.15940700911146" lon="11.151125051662262"><ele>472.0</ele><time>2026-05-02T08:39:53.999Z</time></trkpt><trkpt lat="46.159441925562554" lon="11.151349674797121"><ele>474.6666666666667</ele><time>2026-05-02T08:39:54.999Z</time></trkpt><trkpt lat="46.15948727872673" lon="11.151583579130206"><ele>477.33333333333337</ele><time>2026-05-02T08:39:55.999Z</time></trkpt><trkpt lat="46.15953939503422" lon="11.151852216758552"><ele>480.0</ele><time>2026-05-02T08:39:56.999Z</time></trkpt><trkpt lat="46.15956669162843" lon="11.152149383280038"><ele>484.66666666666663</ele><time>2026-05-02T08:39:57.999Z</time></trkpt><trkpt lat="46.15961439451507" lon="11.152446144844633"><ele>489.3333333333333</ele><time>2026-05-02T08:39:58.999Z</time></trkpt><trkpt lat="46.15965321601595" lon="11.152748852485038"><ele>494.0</ele><time>2026-05-02T08:39:59.999Z</time></trkpt><trkpt lat="46.1596838228865" lon="11.153048328412286"><ele>498.3333333333333</ele><time>2026-05-02T08:40:00.999Z</time></trkpt><trkpt lat="46.15970250420407" lon="11.153330773943285"><ele>502.66666666666663</ele><time>2026-05-02T08:40:01.999Z</time></trkpt><trkpt lat="46.15972384995292" lon="11.153585452520181"><ele>507.0</ele><time>2026-05-02T08:40:02.999Z</time></trkpt><trkpt lat="46.15971886428577" lon="11.15384305748261"><ele>511.0</ele><time>2026-05-02T08:40:03.999Z</time></trkpt><trkpt lat="46.159706944017685" lon="11.154104941911337"><ele>515.0</ele><time>2026-05-02T08:40:04.999Z</time></trkpt><trkpt lat="46.15967906321809" lon="11.154372622386125"><ele>519.0</ele><time>2026-05-02T08:40:05.999Z</time></trkpt><trkpt lat="46.159637192333626" lon="11.154649763195888"><ele>524.6666666666666</ele><time>2026-05-02T08:40:06.999Z</time></trkpt><trkpt lat="46.159585379717306" lon="11.154944181698884"><ele>530.3333333333333</ele><time>2026-05-02T08:40:07.999Z</time></trkpt><trkpt lat="46.159510678943285" lon="11.155238536287206"><ele>536.0</ele><time>2026-05-02T08:40:08.999Z</time></trkpt><trkpt lat="46.159408437569326" lon="11.155545849271073"><ele>541.3333333333333</ele><time>2026-05-02T08:40:10.062Z</time></trkpt><trkpt lat="46.159296139484546" lon="11.155825566004058"><ele>546.6666666666666</ele><time>2026-05-02T08:40:11.062Z</time></trkpt><trkpt lat="46.1591790202165" lon="11.156095315427777"><ele>552.0</ele><time>2026-05-02T08:40:12.051Z</time></trkpt><trkpt lat="46.15796523058775" lon="11.15889951738654"><ele>618.0</ele><time>2026-05-02T08:40:16.33Z</time></trkpt><trkpt lat="46.15766195249919" lon="11.15954311897608"><ele>642.0</ele><time>2026-05-02T08:40:17.331Z</time></trkpt><trkpt lat="46.157399224250995" lon="11.160221025565681"><ele>591.0</ele><time>2026-05-02T08:40:18.331Z</time></trkpt><trkpt lat="46.15720494657474" lon="11.160943135150129"><ele>569.0</ele><time>2026-05-02T08:40:19.329Z</time></trkpt><trkpt lat="46.15708725722761" lon="11.161702309677517"><ele>579.0</ele><time>2026-05-02T08:40:20.331Z</time></trkpt><trkpt lat="46.15752145436649" lon="11.164844623134488"><ele>572.3333333333334</ele><time>2026-05-02T08:40:41.998Z</time></trkpt><trkpt lat="46.15757351185068" lon="11.165074049674452"><ele>565.6666666666667</ele><time>2026-05-02T08:40:42.998Z</time></trkpt><trkpt lat="46.157624489614584" lon="11.16530171282865"><ele>559.0</ele><time>2026-05-02T08:40:43.998Z</time></trkpt><trkpt lat="46.157695871992566" lon="11.165544279035965"><ele>555.3333333333334</ele><time>2026-05-02T08:40:44.998Z</time></trkpt><trkpt lat="46.15776723655515" lon="11.16577971757705"><ele>551.6666666666666</ele><time>2026-05-02T08:40:45.998Z</time></trkpt><trkpt lat="46.15788116633065" lon="11.166070032359332"><ele>548.0</ele><time>2026-05-02T08:40:47Z</time></trkpt><trkpt lat="46.15798360136546" lon="11.166356700646224"><ele>542.0</ele><time>2026-05-02T08:40:48Z</time></trkpt><trkpt lat="46.158083151820136" lon="11.166644867368545"><ele>536.0</ele><time>2026-05-02T08:40:49Z</time></trkpt><trkpt lat="46.15818585943043" lon="11.16694421478537"><ele>547.6666666666666</ele><time>2026-05-02T08:40:50Z</time></trkpt><trkpt lat="46.15827657232429" lon="11.167237319889766"><ele>559.3333333333334</ele><time>2026-05-02T08:40:51Z</time></trkpt><trkpt lat="46.158363622954695" lon="11.167534823165646"><ele>571.0</ele><time>2026-05-02T08:40:52Z</time></trkpt><trkpt lat="46.158434122321765" lon="11.167836352287768"><ele>571.0</ele><time>2026-05-02T08:40:53Z</time></trkpt><trkpt lat="46.15849048567777" lon="11.16809802447035"><ele>571.0</ele><time>2026-05-02T08:40:54Z</time></trkpt><trkpt lat="46.15854173439687" lon="11.168291554266618"><ele>571.0</ele><time>2026-05-02T08:40:55Z</time></trkpt><trkpt lat="46.15860185664532" lon="11.168522968985405"><ele>568.3333333333334</ele><time>2026-05-02T08:40:56Z</time></trkpt><trkpt lat="46.15868826638751" lon="11.1687498275064"><ele>565.6666666666666</ele><time>2026-05-02T08:40:57Z</time></trkpt><trkpt lat="46.15879674519833" lon="11.168952310457406"><ele>563.0</ele><time>2026-05-02T08:40:58Z</time></trkpt><trkpt lat="46.158896521232506" lon="11.169161466507363"><ele>563.0</ele><time>2026-05-02T08:40:59Z</time></trkpt><trkpt lat="46.15899449702366" lon="11.169343676658398"><ele>563.0</ele><time>2026-05-02T08:41:00Z</time></trkpt><trkpt lat="46.15908516175967" lon="11.169510932605874"><ele>563.0</ele><time>2026-05-02T08:41:01Z</time></trkpt><trkpt lat="46.15917551589902" lon="11.169671559006856"><ele>565.0</ele><time>2026-05-02T08:41:02Z</time></trkpt><trkpt lat="46.15927218656024" lon="11.169850144419376"><ele>567.0</ele><time>2026-05-02T08:41:03Z</time></trkpt><trkpt lat="46.15937836816335" lon="11.170045774615184"><ele>569.0</ele><time>2026-05-02T08:41:04Z</time></trkpt><trkpt lat="46.159480029017665" lon="11.170264554369227"><ele>569.0</ele><time>2026-05-02T08:41:05Z</time></trkpt><trkpt lat="46.15954344169237" lon="11.170529762118795"><ele>569.0</ele><time>2026-05-02T08:41:06Z</time></trkpt><trkpt lat="46.15962498165945" lon="11.170787638257421"><ele>569.0</ele><time>2026-05-02T08:41:07Z</time></trkpt><trkpt lat="46.159690280210334" lon="11.171014060556129"><ele>567.3333333333333</ele><time>2026-05-02T08:41:08Z</time></trkpt><trkpt lat="46.15975141362392" lon="11.171242319194105"><ele>565.6666666666666</ele><time>2026-05-02T08:41:09Z</time></trkpt><trkpt lat="46.15980739181974" lon="11.17145963800864"><ele>564.0</ele><time>2026-05-02T08:41:10Z</time></trkpt><trkpt lat="46.15985845182146" lon="11.171662532208046"><ele>566.25</ele><time>2026-05-02T08:41:11Z</time></trkpt><trkpt lat="46.1599035207162" lon="11.171858996744783"><ele>568.5</ele><time>2026-05-02T08:41:12Z</time></trkpt><trkpt lat="46.15994920225834" lon="11.1720592905785"><ele>570.75</ele><time>2026-05-02T08:41:13Z</time></trkpt><trkpt lat="46.15998708884437" lon="11.172266017043116"><ele>573.0</ele><time>2026-05-02T08:41:14Z</time></trkpt><trkpt lat="46.16001079777164" lon="11.172483989395396"><ele>573.0</ele><time>2026-05-02T08:41:15Z</time></trkpt><trkpt lat="46.16007434632117" lon="11.172689373977304"><ele>573.0</ele><time>2026-05-02T08:41:16Z</time></trkpt><trkpt lat="46.1601325015936" lon="11.172871058729038"><ele>573.0</ele><time>2026-05-02T08:41:17Z</time></trkpt><trkpt lat="46.160218526111706" lon="11.173027599591006"><ele>573.0</ele><time>2026-05-02T08:41:18Z</time></trkpt><trkpt lat="46.160327666655775" lon="11.173180536527589"><ele>573.75</ele><time>2026-05-02T08:41:19Z</time></trkpt><trkpt lat="46.160455426138356" lon="11.17331351449541"><ele>574.5</ele><time>2026-05-02T08:41:20Z</time></trkpt><trkpt lat="46.160577021396804" lon="11.173439951588072"><ele>575.25</ele><time>2026-05-02T08:41:21Z</time></trkpt><trkpt lat="46.160649127444266" lon="11.173604014928154"><ele>576.0</ele><time>2026-05-02T08:41:22Z</time></trkpt><trkpt lat="46.1607049865746" lon="11.173771620024059"><ele>576.0</ele><time>2026-05-02T08:41:23Z</time></trkpt><trkpt lat="46.1607293222878" lon="11.173953581401914"><ele>576.0</ele><time>2026-05-02T08:41:24Z</time></trkpt><trkpt lat="46.160731981466846" lon="11.174145644967776"><ele>576.0</ele><time>2026-05-02T08:41:25Z</time></trkpt><trkpt lat="46.160703681579186" lon="11.174338826190741"><ele>576.0</ele><time>2026-05-02T08:41:26Z</time></trkpt><trkpt lat="46.16064227193966" lon="11.174537499851011"><ele>571.75</ele><time>2026-05-02T08:41:27Z</time></trkpt><trkpt lat="46.1605730298323" lon="11.174742543932666"><ele>567.5</ele><time>2026-05-02T08:41:28Z</time></trkpt><trkpt lat="46.16051080116378" lon="11.1749265404806"><ele>563.25</ele><time>2026-05-02T08:41:29Z</time></trkpt><trkpt lat="46.16044943179732" lon="11.175107996219415"><ele>559.0</ele><time>2026-05-02T08:41:30Z</time></trkpt><trkpt lat="46.16038324036512" lon="11.175303709874894"><ele>558.3333333333334</ele><time>2026-05-02T08:41:31Z</time></trkpt><trkpt lat="46.16031392263004" lon="11.175508667394654"><ele>557.6666666666666</ele><time>2026-05-02T08:41:32Z</time></trkpt><trkpt lat="46.16025801754758" lon="11.175724501729805"><ele>557.0</ele><time>2026-05-02T08:41:33Z</time></trkpt><trkpt lat="46.16019078468917" lon="11.175911517938147"><ele>557.0</ele><time>2026-05-02T08:41:34Z</time></trkpt><trkpt lat="46.16012452235893" lon="11.176078683429843"><ele>557.0</ele><time>2026-05-02T08:41:34.999Z</time></trkpt><trkpt lat="46.16006846774226" lon="11.176241109170183"><ele>557.0</ele><time>2026-05-02T08:41:35.999Z</time></trkpt><trkpt lat="46.16005092464416" lon="11.176414809176137"><ele>557.0</ele><time>2026-05-02T08:41:36.999Z</time></trkpt><trkpt lat="46.16007394775892" lon="11.176601471931908"><ele>558.3333333333333</ele><time>2026-05-02T08:41:37.999Z</time></trkpt><trkpt lat="46.16013916941045" lon="11.17677378798407"><ele>559.6666666666666</ele><time>2026-05-02T08:41:38.999Z</time></trkpt><trkpt lat="46.16023486796072" lon="11.176948423013881"><ele>561.0</ele><time>2026-05-02T08:41:39.999Z</time></trkpt><trkpt lat="46.160317024271826" lon="11.177168398653446"><ele>557.6666666666666</ele><time>2026-05-02T08:41:40.999Z</time></trkpt><trkpt lat="46.16041830655808" lon="11.177406323596331"><ele>554.3333333333333</ele><time>2026-05-02T08:41:41.999Z</time></trkpt><trkpt lat="46.160533192255954" lon="11.177640882932002"><ele>551.0</ele><time>2026-05-02T08:41:42.999Z</time></trkpt><trkpt lat="46.16063008157126" lon="11.177876026007688"><ele>558.6666666666666</ele><time>2026-05-02T08:41:43.999Z</time></trkpt><trkpt lat="46.1607198485793" lon="11.178092971203519"><ele>566.3333333333334</ele><time>2026-05-02T08:41:44.999Z</time></trkpt><trkpt lat="46.16080475557483" lon="11.178294214711874"><ele>574.0</ele><time>2026-05-02T08:41:45.999Z</time></trkpt><trkpt lat="46.16088808964357" lon="11.17848742459727"><ele>574.0</ele><time>2026-05-02T08:41:46.999Z</time></trkpt><trkpt lat="46.16097005038066" lon="11.178689961285942"><ele>574.0</ele><time>2026-05-02T08:41:47.999Z</time></trkpt><trkpt lat="46.16106071720931" lon="11.178897454233127"><ele>574.0</ele><time>2026-05-02T08:41:48.999Z</time></trkpt><trkpt lat="46.16116340700895" lon="11.179094724911304"><ele>573.6666666666667</ele><time>2026-05-02T08:41:49.999Z</time></trkpt><trkpt lat="46.161286815189186" lon="11.179265943864667"><ele>573.3333333333334</ele><time>2026-05-02T08:41:50.999Z</time></trkpt><trkpt lat="46.161423450787034" lon="11.179407413103474"><ele>573.0</ele><time>2026-05-02T08:41:51.999Z</time></trkpt><trkpt lat="46.16157519954959" lon="11.179516670451251"><ele>573.0</ele><time>2026-05-02T08:41:52.999Z</time></trkpt><trkpt lat="46.16173330104391" lon="11.179603878894047"><ele>573.0</ele><time>2026-05-02T08:41:53.999Z</time></trkpt><trkpt lat="46.16190055950167" lon="11.179665702051649"><ele>573.0</ele><time>2026-05-02T08:41:54.999Z</time></trkpt><trkpt lat="46.162075475815506" lon="11.179708909492017"><ele>573.0</ele><time>2026-05-02T08:41:55.999Z</time></trkpt><trkpt lat="46.16226135071771" lon="11.179752805093987"><ele>573.0</ele><time>2026-05-02T08:41:56.999Z</time></trkpt><trkpt lat="46.162446536770744" lon="11.179813584528011"><ele>573.0</ele><time>2026-05-02T08:41:57.999Z</time></trkpt><trkpt lat="46.162636383935855" lon="11.179879545034964"><ele>568.0</ele><time>2026-05-02T08:41:58.999Z</time></trkpt><trkpt lat="46.16282666364883" lon="11.179939057051584"><ele>563.0</ele><time>2026-05-02T08:41:59.999Z</time></trkpt><trkpt lat="46.16301533648731" lon="11.179995197691486"><ele>558.0</ele><time>2026-05-02T08:42:00.999Z</time></trkpt><trkpt lat="46.16320984035092" lon="11.180046184227256"><ele>558.0</ele><time>2026-05-02T08:42:01.999Z</time></trkpt><trkpt lat="46.16339869998709" lon="11.180078312306996"><ele>558.0</ele><time>2026-05-02T08:42:02.999Z</time></trkpt><trkpt lat="46.16358762314547" lon="11.180089220128247"><ele>558.0</ele><time>2026-05-02T08:42:03.999Z</time></trkpt><trkpt lat="46.16378026073866" lon="11.180093213525863"><ele>558.0</ele><time>2026-05-02T08:42:04.999Z</time></trkpt><trkpt lat="46.16397456283665" lon="11.180077427693542"><ele>558.0</ele><time>2026-05-02T08:42:05.999Z</time></trkpt><trkpt lat="46.164166011230506" lon="11.180045664372507"><ele>558.0</ele><time>2026-05-02T08:42:06.999Z</time></trkpt><trkpt lat="46.16436085797898" lon="11.180009930308008"><ele>558.3333333333334</ele><time>2026-05-02T08:42:07.999Z</time></trkpt><trkpt lat="46.164559508458524" lon="11.179967435808841"><ele>558.6666666666667</ele><time>2026-05-02T08:42:08.999Z</time></trkpt><trkpt lat="46.16476241355683" lon="11.17992090584911"><ele>559.0</ele><time>2026-05-02T08:42:09.999Z</time></trkpt><trkpt lat="46.164967294435485" lon="11.179879667756994"><ele>573.6666666666667</ele><time>2026-05-02T08:42:10.999Z</time></trkpt><trkpt lat="46.16517067973173" lon="11.179835814608632"><ele>588.3333333333334</ele><time>2026-05-02T08:42:11.999Z</time></trkpt><trkpt lat="46.16536182474628" lon="11.179781726726738"><ele>603.0</ele><time>2026-05-02T08:42:12.999Z</time></trkpt><trkpt lat="46.1655498466495" lon="11.179710717680734"><ele>596.6666666666666</ele><time>2026-05-02T08:42:13.999Z</time></trkpt><trkpt lat="46.16574201340337" lon="11.179614940089577"><ele>590.3333333333333</ele><time>2026-05-02T08:42:14.999Z</time></trkpt><trkpt lat="46.16592811352082" lon="11.179507318070888"><ele>584.0</ele><time>2026-05-02T08:42:15.999Z</time></trkpt><trkpt lat="46.16609268817876" lon="11.179388329018453"><ele>584.0</ele><time>2026-05-02T08:42:16.999Z</time></trkpt><trkpt lat="46.16624428827817" lon="11.179249619500007"><ele>584.0</ele><time>2026-05-02T08:42:17.999Z</time></trkpt><trkpt lat="46.166392393577354" lon="11.179096010403766"><ele>584.0</ele><time>2026-05-02T08:42:18.999Z</time></trkpt><trkpt lat="46.16653291078202" lon="11.178959168646553"><ele>587.25</ele><time>2026-05-02T08:42:19.999Z</time></trkpt><trkpt lat="46.16665605161583" lon="11.178843682081856"><ele>590.5</ele><time>2026-05-02T08:42:20.999Z</time></trkpt><trkpt lat="46.16676161681754" lon="11.1787565082937"><ele>593.75</ele><time>2026-05-02T08:42:21.999Z</time></trkpt><trkpt lat="46.16686050227274" lon="11.17870872383497"><ele>597.0</ele><time>2026-05-02T08:42:22.999Z</time></trkpt><trkpt lat="46.16696454994215" lon="11.178714840774305"><ele>597.0</ele><time>2026-05-02T08:42:23.999Z</time></trkpt><trkpt lat="46.16707429963932" lon="11.178761806269263"><ele>597.0</ele><time>2026-05-02T08:42:24.999Z</time></trkpt><trkpt lat="46.16718151811553" lon="11.178844358190343"><ele>597.0</ele><time>2026-05-02T08:42:25.999Z</time></trkpt><trkpt lat="46.16727564000729" lon="11.178969608053828"><ele>597.0</ele><time>2026-05-02T08:42:26.999Z</time></trkpt><trkpt lat="46.16732418552045" lon="11.179146527706019"><ele>586.0</ele><time>2026-05-02T08:42:27.999Z</time></trkpt><trkpt lat="46.16734351454361" lon="11.179318711930485"><ele>575.0</ele><time>2026-05-02T08:42:28.999Z</time></trkpt><trkpt lat="46.167355653770855" lon="11.179499065340984"><ele>564.0</ele><time>2026-05-02T08:42:29.999Z</time></trkpt><trkpt lat="46.16728912996205" lon="11.179669878801736"><ele>553.0</ele><time>2026-05-02T08:42:30.999Z</time></trkpt><trkpt lat="46.16720602604414" lon="11.179844627060433"><ele>548.3333333333334</ele><time>2026-05-02T08:42:31.999Z</time></trkpt><trkpt lat="46.167110476392196" lon="11.180062532133567"><ele>543.6666666666666</ele><time>2026-05-02T08:42:32.999Z</time></trkpt><trkpt lat="46.166978849275885" lon="11.180288638068394"><ele>539.0</ele><time>2026-05-02T08:42:33.999Z</time></trkpt><trkpt lat="46.16682862474529" lon="11.18058227497602"><ele>542.0</ele><time>2026-05-02T08:42:34.999Z</time></trkpt><trkpt lat="46.16668315075248" lon="11.180867238180772"><ele>545.0</ele><time>2026-05-02T08:42:35.999Z</time></trkpt><trkpt lat="46.16654247522705" lon="11.181140219957445"><ele>539.6666666666666</ele><time>2026-05-02T08:42:36.999Z</time></trkpt><trkpt lat="46.16641065253647" lon="11.181395902654845"><ele>534.3333333333334</ele><time>2026-05-02T08:42:37.999Z</time></trkpt><trkpt lat="46.166295349192005" lon="11.18161900464804"><ele>529.0</ele><time>2026-05-02T08:42:38.999Z</time></trkpt><trkpt lat="46.166192797023626" lon="11.18179214760529"><ele>529.0</ele><time>2026-05-02T08:42:39.999Z</time></trkpt><trkpt lat="46.1660779801498" lon="11.181924632492986"><ele>529.0</ele><time>2026-05-02T08:42:40.999Z</time></trkpt><trkpt lat="46.165925998707266" lon="11.182028032120014"><ele>529.0</ele><time>2026-05-02T08:42:41.999Z</time></trkpt><trkpt lat="46.165741331232006" lon="11.182140628763314"><ele>519.5</ele><time>2026-05-02T08:42:42.999Z</time></trkpt><trkpt lat="46.16553139854064" lon="11.18226752836173"><ele>510.0</ele><time>2026-05-02T08:42:43.999Z</time></trkpt><trkpt lat="46.165298716734036" lon="11.182432085224741"><ele>521.5</ele><time>2026-05-02T08:42:44.999Z</time></trkpt><trkpt lat="46.1650574466341" lon="11.182578775430487"><ele>533.0</ele><time>2026-05-02T08:42:45.999Z</time></trkpt><trkpt lat="46.16482825510966" lon="11.182722627695824"><ele>533.0</ele><time>2026-05-02T08:42:46.999Z</time></trkpt><trkpt lat="46.16457729106503" lon="11.182853408792997"><ele>533.0</ele><time>2026-05-02T08:42:47.999Z</time></trkpt><trkpt lat="46.16434168152745" lon="11.183023053446231"><ele>539.6666666666666</ele><time>2026-05-02T08:42:48.999Z</time></trkpt><trkpt lat="46.1641420732189" lon="11.183182232147836"><ele>546.3333333333334</ele><time>2026-05-02T08:42:49.999Z</time></trkpt><trkpt lat="46.16393354755659" lon="11.183247391060936"><ele>553.0</ele><time>2026-05-02T08:42:50.999Z</time></trkpt><trkpt lat="46.16373389105982" lon="11.183291627672633"><ele>553.0</ele><time>2026-05-02T08:42:52Z</time></trkpt><trkpt lat="46.163544251529835" lon="11.1833700403996"><ele>553.0</ele><time>2026-05-02T08:42:53Z</time></trkpt><trkpt lat="46.163353506058954" lon="11.183470797308633"><ele>553.0</ele><time>2026-05-02T08:42:54Z</time></trkpt><trkpt lat="46.16313491001212" lon="11.18361694265257"><ele>548.3333333333334</ele><time>2026-05-02T08:42:55Z</time></trkpt><trkpt lat="46.16292895915683" lon="11.183741121515224"><ele>543.6666666666666</ele><time>2026-05-02T08:42:56Z</time></trkpt><trkpt lat="46.16273340840263" lon="11.183803764582798"><ele>539.0</ele><time>2026-05-02T08:42:57Z</time></trkpt><trkpt lat="46.162521293038" lon="11.183853392265913"><ele>536.0</ele><time>2026-05-02T08:42:58Z</time></trkpt><trkpt lat="46.162334858293434" lon="11.183941070871297"><ele>533.0</ele><time>2026-05-02T08:42:59Z</time></trkpt><trkpt lat="46.16215277481211" lon="11.184025933210242"><ele>530.0</ele><time>2026-05-02T08:43:00Z</time></trkpt><trkpt lat="46.161980490051214" lon="11.184116649716811"><ele>531.75</ele><time>2026-05-02T08:43:01Z</time></trkpt><trkpt lat="46.1618369748254" lon="11.18419852164735"><ele>533.5</ele><time>2026-05-02T08:43:02Z</time></trkpt><trkpt lat="46.161711298269665" lon="11.184311662569367"><ele>535.25</ele><time>2026-05-02T08:43:03Z</time></trkpt><trkpt lat="46.1616086283294" lon="11.184458326506213"><ele>537.0</ele><time>2026-05-02T08:43:04Z</time></trkpt><trkpt lat="46.16153072102677" lon="11.184611672586888"><ele>537.0</ele><time>2026-05-02T08:43:05Z</time></trkpt><trkpt lat="46.16146616535573" lon="11.18476742832966"><ele>537.0</ele><time>2026-05-02T08:43:06Z</time></trkpt><trkpt lat="46.16141706189626" lon="11.18492486609226"><ele>537.0</ele><time>2026-05-02T08:43:07Z</time></trkpt><trkpt lat="46.1613815757934" lon="11.185102165471232"><ele>537.0</ele><time>2026-05-02T08:43:08Z</time></trkpt><trkpt lat="46.1613582826639" lon="11.185286977527593"><ele>542.75</ele><time>2026-05-02T08:43:09Z</time></trkpt><trkpt lat="46.16134938712057" lon="11.185476213586352"><ele>548.5</ele><time>2026-05-02T08:43:10Z</time></trkpt><trkpt lat="46.161332542396224" lon="11.18566842793601"><ele>554.25</ele><time>2026-05-02T08:43:11Z</time></trkpt><trkpt lat="46.161310677030066" lon="11.18586598297779"><ele>560.0</ele><time>2026-05-02T08:43:12Z</time></trkpt><trkpt lat="46.16128915129911" lon="11.18607607483694"><ele>564.5</ele><time>2026-05-02T08:43:13Z</time></trkpt><trkpt lat="46.16126372698761" lon="11.186258365255334"><ele>569.0</ele><time>2026-05-02T08:43:14Z</time></trkpt><trkpt lat="46.161191595897236" lon="11.186400336307504"><ele>573.5</ele><time>2026-05-02T08:43:15Z</time></trkpt><trkpt lat="46.16111147762194" lon="11.186512975307329"><ele>578.0</ele><time>2026-05-02T08:43:16Z</time></trkpt><trkpt lat="46.16102941236763" lon="11.186623710640113"><ele>577.5</ele><time>2026-05-02T08:43:17Z</time></trkpt><trkpt lat="46.16097447905554" lon="11.186711832650884"><ele>577.0</ele><time>2026-05-02T08:43:18Z</time></trkpt><trkpt lat="46.16091994132594" lon="11.186780392431501"><ele>576.5</ele><time>2026-05-02T08:43:19Z</time></trkpt><trkpt lat="46.160860329612284" lon="11.18686418460632"><ele>576.0</ele><time>2026-05-02T08:43:20Z</time></trkpt><trkpt lat="46.16079359238957" lon="11.186920965846118"><ele>575.5</ele><time>2026-05-02T08:43:21Z</time></trkpt><trkpt lat="46.16072064175655" lon="11.187039371641955"><ele>575.0</ele><time>2026-05-02T08:43:22Z</time></trkpt><trkpt lat="46.16064288201731" lon="11.187148946620697"><ele>575.0</ele><time>2026-05-02T08:43:23Z</time></trkpt><trkpt lat="46.16058866329199" lon="11.187239906638537"><ele>575.0</ele><time>2026-05-02T08:43:24Z</time></trkpt><trkpt lat="46.1605240229627" lon="11.187353276931265"><ele>575.0</ele><time>2026-05-02T08:43:25Z</time></trkpt><trkpt lat="46.16044385163217" lon="11.187487377069331"><ele>575.0</ele><time>2026-05-02T08:43:26Z</time></trkpt><trkpt lat="46.160365874824244" lon="11.187618770259098"><ele>575.0</ele><time>2026-05-02T08:43:27Z</time></trkpt><trkpt lat="46.160297593529286" lon="11.18773962316252"><ele>575.75</ele><time>2026-05-02T08:43:28Z</time></trkpt><trkpt lat="46.160235679548926" lon="11.187895162591664"><ele>576.5</ele><time>2026-05-02T08:43:29Z</time></trkpt><trkpt lat="46.16017748644698" lon="11.188049562441908"><ele>577.25</ele><time>2026-05-02T08:43:30Z</time></trkpt><trkpt lat="46.16013892186813" lon="11.188252116885083"><ele>578.0</ele><time>2026-05-02T08:43:31Z</time></trkpt><trkpt lat="46.160072008295195" lon="11.188457287434693"><ele>580.0</ele><time>2026-05-02T08:43:32Z</time></trkpt><trkpt lat="46.16011954313416" lon="11.188711051748106"><ele>582.0</ele><time>2026-05-02T08:43:33Z</time></trkpt><trkpt lat="46.16011744432945" lon="11.188928976027688"><ele>584.0</ele><time>2026-05-02T08:43:34Z</time></trkpt><trkpt lat="46.16009000708876" lon="11.189120073859954"><ele>583.25</ele><time>2026-05-02T08:43:35Z</time></trkpt><trkpt lat="46.16000548317384" lon="11.189280184934155"><ele>582.5</ele><time>2026-05-02T08:43:36Z</time></trkpt><trkpt lat="46.159908515018266" lon="11.189438920647657"><ele>581.75</ele><time>2026-05-02T08:43:37Z</time></trkpt><trkpt lat="46.15977943134317" lon="11.189569912187958"><ele>581.0</ele><time>2026-05-02T08:43:38Z</time></trkpt><trkpt lat="46.15964375603727" lon="11.189690701994069"><ele>581.0</ele><time>2026-05-02T08:43:39Z</time></trkpt><trkpt lat="46.15950978470555" lon="11.189836481009142"><ele>581.0</ele><time>2026-05-02T08:43:40Z</time></trkpt><trkpt lat="46.15939173463627" lon="11.190005705946525"><ele>581.0</ele><time>2026-05-02T08:43:41Z</time></trkpt><trkpt lat="46.15928760035176" lon="11.19020993919708"><ele>579.6666666666666</ele><time>2026-05-02T08:43:42Z</time></trkpt><trkpt lat="46.159186204085906" lon="11.190415862811676"><ele>578.3333333333334</ele><time>2026-05-02T08:43:43Z</time></trkpt><trkpt lat="46.15909570752782" lon="11.190604498688543"><ele>577.0</ele><time>2026-05-02T08:43:43.999Z</time></trkpt><trkpt lat="46.159005248500115" lon="11.190801742667022"><ele>577.0</ele><time>2026-05-02T08:43:44.999Z</time></trkpt><trkpt lat="46.15892199106133" lon="11.190984856391125"><ele>577.0</ele><time>2026-05-02T08:43:45.999Z</time></trkpt><trkpt lat="46.15885473983857" lon="11.1911549088563"><ele>577.0</ele><time>2026-05-02T08:43:46.999Z</time></trkpt><trkpt lat="46.15882173233394" lon="11.191316509208548"><ele>577.0</ele><time>2026-05-02T08:43:47.999Z</time></trkpt><trkpt lat="46.15880866984543" lon="11.191491286599572"><ele>578.0</ele><time>2026-05-02T08:43:48.999Z</time></trkpt><trkpt lat="46.15880884983372" lon="11.191651048282916"><ele>579.0</ele><time>2026-05-02T08:43:49.999Z</time></trkpt><trkpt lat="46.15882351175338" lon="11.191827757495995"><ele>580.0</ele><time>2026-05-02T08:43:50.999Z</time></trkpt><trkpt lat="46.15885622357435" lon="11.192008936074137"><ele>581.0</ele><time>2026-05-02T08:43:51.999Z</time></trkpt><trkpt lat="46.15892565915219" lon="11.192224965018497"><ele>577.3333333333333</ele><time>2026-05-02T08:43:52.999Z</time></trkpt><trkpt lat="46.158994632959214" lon="11.192470962449788"><ele>573.6666666666666</ele><time>2026-05-02T08:43:53.999Z</time></trkpt><trkpt lat="46.15906120432842" lon="11.192724354975505"><ele>570.0</ele><time>2026-05-02T08:43:54.999Z</time></trkpt><trkpt lat="46.15914485231036" lon="11.19295735687824"><ele>578.3333333333334</ele><time>2026-05-02T08:43:55.999Z</time></trkpt><trkpt lat="46.15925037584971" lon="11.193168280082071"><ele>586.6666666666667</ele><time>2026-05-02T08:43:56.999Z</time></trkpt><trkpt lat="46.15937786178137" lon="11.193365324514977"><ele>595.0</ele><time>2026-05-02T08:43:57.999Z</time></trkpt><trkpt lat="46.159562480348846" lon="11.193532632846402"><ele>595.0</ele><time>2026-05-02T08:43:58.999Z</time></trkpt><trkpt lat="46.15973513365674" lon="11.193695298173328"><ele>595.0</ele><time>2026-05-02T08:43:59.999Z</time></trkpt><trkpt lat="46.15991261236244" lon="11.193857335930431"><ele>595.0</ele><time>2026-05-02T08:44:00.999Z</time></trkpt><trkpt lat="46.16006604791666" lon="11.194008555253234"><ele>599.75</ele><time>2026-05-02T08:44:01.999Z</time></trkpt><trkpt lat="46.160178161390235" lon="11.194156531290222"><ele>604.5</ele><time>2026-05-02T08:44:02.999Z</time></trkpt><trkpt lat="46.16022973558954" lon="11.194320334130087"><ele>609.25</ele><time>2026-05-02T08:44:03.999Z</time></trkpt><trkpt lat="46.16026578259184" lon="11.194472086599799"><ele>614.0</ele><time>2026-05-02T08:44:04.999Z</time></trkpt><trkpt lat="46.160283612291586" lon="11.194649555700169"><ele>612.6666666666666</ele><time>2026-05-02T08:44:05.999Z</time></trkpt><trkpt lat="46.16027583085264" lon="11.194858376672943"><ele>611.3333333333334</ele><time>2026-05-02T08:44:06.999Z</time></trkpt><trkpt lat="46.16026270488136" lon="11.195095106037064"><ele>610.0</ele><time>2026-05-02T08:44:07.999Z</time></trkpt><trkpt lat="46.16026503000208" lon="11.19533813411621"><ele>610.0</ele><time>2026-05-02T08:44:08.999Z</time></trkpt><trkpt lat="46.160265632812504" lon="11.195566332516044"><ele>610.0</ele><time>2026-05-02T08:44:09.999Z</time></trkpt><trkpt lat="46.16030516963551" lon="11.195795829839666"><ele>610.0</ele><time>2026-05-02T08:44:10.999Z</time></trkpt><trkpt lat="46.16038201282428" lon="11.196035423508125"><ele>611.6666666666667</ele><time>2026-05-02T08:44:11.999Z</time></trkpt><trkpt lat="46.16048466712716" lon="11.196295176795248"><ele>613.3333333333334</ele><time>2026-05-02T08:44:12.999Z</time></trkpt><trkpt lat="46.16056238239314" lon="11.196545073019486"><ele>615.0</ele><time>2026-05-02T08:44:13.999Z</time></trkpt><trkpt lat="46.16062968415846" lon="11.196759982543611"><ele>627.0</ele><time>2026-05-02T08:44:14.999Z</time></trkpt><trkpt lat="46.160715292854505" lon="11.196943267651145"><ele>639.0</ele><time>2026-05-02T08:44:15.999Z</time></trkpt><trkpt lat="46.16084371349782" lon="11.19710897188152"><ele>651.0</ele><time>2026-05-02T08:44:16.999Z</time></trkpt><trkpt lat="46.16101654046536" lon="11.197306622090853"><ele>639.5</ele><time>2026-05-02T08:44:17.999Z</time></trkpt><trkpt lat="46.16120962822772" lon="11.197540361760131"><ele>628.0</ele><time>2026-05-02T08:44:18.999Z</time></trkpt><trkpt lat="46.161378750857295" lon="11.19777228034165"><ele>628.0</ele><time>2026-05-02T08:44:19.999Z</time></trkpt><trkpt lat="46.1615243187059" lon="11.197977124479499"><ele>628.0</ele><time>2026-05-02T08:44:20.999Z</time></trkpt><trkpt lat="46.16166020501498" lon="11.198180027933724"><ele>628.0</ele><time>2026-05-02T08:44:21.999Z</time></trkpt><trkpt lat="46.161797868499896" lon="11.198406740999891"><ele>635.5</ele><time>2026-05-02T08:44:22.999Z</time></trkpt><trkpt lat="46.16194270442421" lon="11.198652797732153"><ele>643.0</ele><time>2026-05-02T08:44:23.999Z</time></trkpt><trkpt lat="46.16208694867766" lon="11.198907756814886"><ele>638.5</ele><time>2026-05-02T08:44:24.999Z</time></trkpt><trkpt lat="46.162229763067714" lon="11.199163095160088"><ele>634.0</ele><time>2026-05-02T08:44:25.999Z</time></trkpt><trkpt lat="46.16237312588477" lon="11.199417576732078"><ele>637.6666666666667</ele><time>2026-05-02T08:44:26.999Z</time></trkpt><trkpt lat="46.16251173784377" lon="11.199666182661565"><ele>641.3333333333334</ele><time>2026-05-02T08:44:27.999Z</time></trkpt><trkpt lat="46.16264050428801" lon="11.199900593650085"><ele>645.0</ele><time>2026-05-02T08:44:28.999Z</time></trkpt><trkpt lat="46.16277190502251" lon="11.200133254136649"><ele>645.0</ele><time>2026-05-02T08:44:29.999Z</time></trkpt><trkpt lat="46.16292233464847" lon="11.200352586645517"><ele>645.0</ele><time>2026-05-02T08:44:30.999Z</time></trkpt><trkpt lat="46.163098942497456" lon="11.200539056112705"><ele>645.0</ele><time>2026-05-02T08:44:31.999Z</time></trkpt><trkpt lat="46.16327801576264" lon="11.200690490778548"><ele>646.0</ele><time>2026-05-02T08:44:32.999Z</time></trkpt><trkpt lat="46.16344656876073" lon="11.200839115782504"><ele>647.0</ele><time>2026-05-02T08:44:33.999Z</time></trkpt><trkpt lat="46.16361036815609" lon="11.201008864051476"><ele>648.0</ele><time>2026-05-02T08:44:34.999Z</time></trkpt><trkpt lat="46.1637414042566" lon="11.201225614006068"><ele>648.0</ele><time>2026-05-02T08:44:35.999Z</time></trkpt><trkpt lat="46.16385347312546" lon="11.201473416182258"><ele>648.0</ele><time>2026-05-02T08:44:36.999Z</time></trkpt><trkpt lat="46.16396855566154" lon="11.201747065096024"><ele>648.0</ele><time>2026-05-02T08:44:37.999Z</time></trkpt><trkpt lat="46.16409903595088" lon="11.20203250899386"><ele>643.5</ele><time>2026-05-02T08:44:38.999Z</time></trkpt><trkpt lat="46.16424081805549" lon="11.202320313855493"><ele>639.0</ele><time>2026-05-02T08:44:39.999Z</time></trkpt><trkpt lat="46.164411987746384" lon="11.202603067639357"><ele>639.0</ele><time>2026-05-02T08:44:40.999Z</time></trkpt><trkpt lat="46.16459096449222" lon="11.202880085534003"><ele>639.0</ele><time>2026-05-02T08:44:41.999Z</time></trkpt><trkpt lat="46.164753938753336" lon="11.203140605740195"><ele>641.3333333333334</ele><time>2026-05-02T08:44:42.999Z</time></trkpt><trkpt lat="46.16489940615111" lon="11.20338121273142"><ele>643.6666666666667</ele><time>2026-05-02T08:44:43.999Z</time></trkpt><trkpt lat="46.16503948606475" lon="11.203610666815633"><ele>646.0</ele><time>2026-05-02T08:44:44.999Z</time></trkpt><trkpt lat="46.165185011914076" lon="11.203845218839161"><ele>644.5</ele><time>2026-05-02T08:44:45.999Z</time></trkpt><trkpt lat="46.16533540645628" lon="11.204091101620213"><ele>643.0</ele><time>2026-05-02T08:44:46.999Z</time></trkpt><trkpt lat="46.16548541622423" lon="11.204335556227546"><ele>643.0</ele><time>2026-05-02T08:44:47.999Z</time></trkpt><trkpt lat="46.16562426065481" lon="11.20456620087119"><ele>643.0</ele><time>2026-05-02T08:44:48.999Z</time></trkpt><trkpt lat="46.16574375612562" lon="11.204804429198575"><ele>643.0</ele><time>2026-05-02T08:44:49.999Z</time></trkpt><trkpt lat="46.1658515074814" lon="11.205070581363914"><ele>645.5</ele><time>2026-05-02T08:44:50.999Z</time></trkpt><trkpt lat="46.165933552806365" lon="11.205377608481685"><ele>648.0</ele><time>2026-05-02T08:44:51.999Z</time></trkpt><trkpt lat="46.16604817739728" lon="11.205668114997371"><ele>648.0</ele><time>2026-05-02T08:44:52.999Z</time></trkpt><trkpt lat="46.16615377824146" lon="11.205961378517166"><ele>648.0</ele><time>2026-05-02T08:44:53.999Z</time></trkpt><trkpt lat="46.16628908955061" lon="11.20624340675701"><ele>657.5</ele><time>2026-05-02T08:44:54.999Z</time></trkpt><trkpt lat="46.16643440741516" lon="11.206523321827744"><ele>667.0</ele><time>2026-05-02T08:44:55.999Z</time></trkpt><trkpt lat="46.16656932591983" lon="11.206800954548054"><ele>667.0</ele><time>2026-05-02T08:44:56.999Z</time></trkpt><trkpt lat="46.16669660162422" lon="11.207059460563604"><ele>667.0</ele><time>2026-05-02T08:44:58Z</time></trkpt><trkpt lat="46.166820107818076" lon="11.207306512584072"><ele>667.0</ele><time>2026-05-02T08:44:59Z</time></trkpt><trkpt lat="46.166935893230196" lon="11.207535023502905"><ele>672.0</ele><time>2026-05-02T08:45:00Z</time></trkpt><trkpt lat="46.1670458888647" lon="11.207710789571081"><ele>677.0</ele><time>2026-05-02T08:45:01Z</time></trkpt><trkpt lat="46.167194716756484" lon="11.207853728688113"><ele>682.0</ele><time>2026-05-02T08:45:02Z</time></trkpt><trkpt lat="46.16738682465815" lon="11.207980515024689"><ele>682.0</ele><time>2026-05-02T08:45:03Z</time></trkpt><trkpt lat="46.16759232036315" lon="11.208145578979513"><ele>682.0</ele><time>2026-05-02T08:45:04Z</time></trkpt><trkpt lat="46.16777894599437" lon="11.208387523652327"><ele>681.0</ele><time>2026-05-02T08:45:05Z</time></trkpt><trkpt lat="46.16799967577987" lon="11.208631666958016"><ele>680.0</ele><time>2026-05-02T08:45:06Z</time></trkpt><trkpt lat="46.168230531925865" lon="11.20891900132624"><ele>666.5</ele><time>2026-05-02T08:45:07Z</time></trkpt><trkpt lat="46.16846962568347" lon="11.209185946797092"><ele>653.0</ele><time>2026-05-02T08:45:08Z</time></trkpt><trkpt lat="46.16870011555846" lon="11.209421601913398"><ele>653.0</ele><time>2026-05-02T08:45:09Z</time></trkpt><trkpt lat="46.16891996040977" lon="11.20964357082083"><ele>653.0</ele><time>2026-05-02T08:45:10Z</time></trkpt><trkpt lat="46.16912651649936" lon="11.209862631166107"><ele>655.5</ele><time>2026-05-02T08:45:11Z</time></trkpt><trkpt lat="46.16932162098552" lon="11.21006504483091"><ele>658.0</ele><time>2026-05-02T08:45:12Z</time></trkpt><trkpt lat="46.16950970406597" lon="11.210262021393515"><ele>658.0</ele><time>2026-05-02T08:45:13Z</time></trkpt><trkpt lat="46.1696955488982" lon="11.210456313122801"><ele>658.0</ele><time>2026-05-02T08:45:14Z</time></trkpt><trkpt lat="46.16987066299869" lon="11.210648857835716"><ele>659.3333333333334</ele><time>2026-05-02T08:45:15Z</time></trkpt><trkpt lat="46.170028680606734" lon="11.210857347283397"><ele>660.6666666666666</ele><time>2026-05-02T08:45:16Z</time></trkpt><trkpt lat="46.170166705224695" lon="11.211099087251437"><ele>662.0</ele><time>2026-05-02T08:45:17Z</time></trkpt><trkpt lat="46.17028660634455" lon="11.211365921719352"><ele>658.6666666666666</ele><time>2026-05-02T08:45:18Z</time></trkpt><trkpt lat="46.17039620299088" lon="11.211642167844994"><ele>655.3333333333334</ele><time>2026-05-02T08:45:19Z</time></trkpt><trkpt lat="46.170507677073914" lon="11.211914177404601"><ele>652.0</ele><time>2026-05-02T08:45:20Z</time></trkpt><trkpt lat="46.170624461307355" lon="11.212176357808149"><ele>653.3333333333334</ele><time>2026-05-02T08:45:21Z</time></trkpt><trkpt lat="46.17075002000882" lon="11.212436036831615"><ele>654.6666666666666</ele><time>2026-05-02T08:45:22Z</time></trkpt><trkpt lat="46.17086416817973" lon="11.212696960668293"><ele>656.0</ele><time>2026-05-02T08:45:23Z</time></trkpt><trkpt lat="46.170968741539326" lon="11.21294077203889"><ele>652.6666666666666</ele><time>2026-05-02T08:45:24Z</time></trkpt><trkpt lat="46.17106341262381" lon="11.213171007787645"><ele>649.3333333333334</ele><time>2026-05-02T08:45:25Z</time></trkpt><trkpt lat="46.171155901221155" lon="11.213376741432866"><ele>646.0</ele><time>2026-05-02T08:45:26Z</time></trkpt><trkpt lat="46.171251647643594" lon="11.213552193836687"><ele>646.0</ele><time>2026-05-02T08:45:27Z</time></trkpt><trkpt lat="46.17137231822154" lon="11.213724411278886"><ele>646.0</ele><time>2026-05-02T08:45:28Z</time></trkpt><trkpt lat="46.17146128520271" lon="11.213890161963796"><ele>646.0</ele><time>2026-05-02T08:45:29Z</time></trkpt><trkpt lat="46.171556177784325" lon="11.214032480951895"><ele>645.6666666666667</ele><time>2026-05-02T08:45:30Z</time></trkpt><trkpt lat="46.1716957090244" lon="11.214163829938384"><ele>645.3333333333334</ele><time>2026-05-02T08:45:31Z</time></trkpt><trkpt lat="46.17183352002061" lon="11.214289552219537"><ele>645.0</ele><time>2026-05-02T08:45:32Z</time></trkpt><trkpt lat="46.17203805341203" lon="11.21432608479616"><ele>645.0</ele><time>2026-05-02T08:45:33Z</time></trkpt><trkpt lat="46.17225303274614" lon="11.214311717940049"><ele>645.0</ele><time>2026-05-02T08:45:34Z</time></trkpt><trkpt lat="46.172475721361764" lon="11.214231734065452"><ele>645.0</ele><time>2026-05-02T08:45:35Z</time></trkpt><trkpt lat="46.17268243939152" lon="11.214228356787073"><ele>650.0</ele><time>2026-05-02T08:45:36Z</time></trkpt><trkpt lat="46.17288288570435" lon="11.214314011220864"><ele>655.0</ele><time>2026-05-02T08:45:37Z</time></trkpt><trkpt lat="46.173034284223654" lon="11.214391232441821"><ele>660.0</ele><time>2026-05-02T08:45:38Z</time></trkpt><trkpt lat="46.17317576883847" lon="11.214394267759321"><ele>658.0</ele><time>2026-05-02T08:45:39Z</time></trkpt><trkpt lat="46.17331307452684" lon="11.214345034893617"><ele>656.0</ele><time>2026-05-02T08:45:40Z</time></trkpt><trkpt lat="46.17346205612623" lon="11.214226899213665"><ele>654.0</ele><time>2026-05-02T08:45:41Z</time></trkpt><trkpt lat="46.173601778357174" lon="11.214101868915453"><ele>669.6666666666666</ele><time>2026-05-02T08:45:42Z</time></trkpt><trkpt lat="46.17374344987947" lon="11.213962948127994"><ele>685.3333333333333</ele><time>2026-05-02T08:45:43Z</time></trkpt><trkpt lat="46.173872401447596" lon="11.213803801830569"><ele>701.0</ele><time>2026-05-02T08:45:44Z</time></trkpt><trkpt lat="46.17398105693706" lon="11.213601134438761"><ele>702.75</ele><time>2026-05-02T08:45:45Z</time></trkpt><trkpt lat="46.17407853514886" lon="11.213403155477552"><ele>704.5</ele><time>2026-05-02T08:45:46Z</time></trkpt><trkpt lat="46.17416204760961" lon="11.213255529832422"><ele>706.25</ele><time>2026-05-02T08:45:46.999Z</time></trkpt><trkpt lat="46.17424706197006" lon="11.213126169519525"><ele>708.0</ele><time>2026-05-02T08:45:47.999Z</time></trkpt><trkpt lat="46.174343960369775" lon="11.213041926174247"><ele>708.0</ele><time>2026-05-02T08:45:48.999Z</time></trkpt><trkpt lat="46.17446341405074" lon="11.21301329315605"><ele>708.0</ele><time>2026-05-02T08:45:49.999Z</time></trkpt><trkpt lat="46.17459107013647" lon="11.213029225496365"><ele>708.0</ele><time>2026-05-02T08:45:50.999Z</time></trkpt><trkpt lat="46.1747200946982" lon="11.213100572839975"><ele>708.0</ele><time>2026-05-02T08:45:51.999Z</time></trkpt><trkpt lat="46.17483256449997" lon="11.21323149651399"><ele>693.0</ele><time>2026-05-02T08:45:52.999Z</time></trkpt><trkpt lat="46.174928000300525" lon="11.213407916225108"><ele>678.0</ele><time>2026-05-02T08:45:53.999Z</time></trkpt><trkpt lat="46.175015989409076" lon="11.213618621199116"><ele>663.0</ele><time>2026-05-02T08:45:54.999Z</time></trkpt><trkpt lat="46.17512652378703" lon="11.213809353891818"><ele>659.3333333333334</ele><time>2026-05-02T08:45:55.999Z</time></trkpt><trkpt lat="46.175241707777666" lon="11.2140045980389"><ele>655.6666666666667</ele><time>2026-05-02T08:45:56.999Z</time></trkpt><trkpt lat="46.17535511751146" lon="11.214201513510012"><ele>652.0</ele><time>2026-05-02T08:45:57.999Z</time></trkpt><trkpt lat="46.17546011030547" lon="11.214399756556176"><ele>652.0</ele><time>2026-05-02T08:45:58.999Z</time></trkpt><trkpt lat="46.175537588847455" lon="11.214596412367532"><ele>652.0</ele><time>2026-05-02T08:45:59.999Z</time></trkpt><trkpt lat="46.17557856399497" lon="11.214794415511905"><ele>652.0</ele><time>2026-05-02T08:46:00.999Z</time></trkpt><trkpt lat="46.17557703514769" lon="11.215004916443375"><ele>652.0</ele><time>2026-05-02T08:46:01.999Z</time></trkpt><trkpt lat="46.17554312402104" lon="11.21521936702017"><ele>652.0</ele><time>2026-05-02T08:46:02.999Z</time></trkpt><trkpt lat="46.17550005624919" lon="11.215439826829089"><ele>652.0</ele><time>2026-05-02T08:46:03.999Z</time></trkpt><trkpt lat="46.17545293968881" lon="11.21567382686937"><ele>652.0</ele><time>2026-05-02T08:46:04.999Z</time></trkpt><trkpt lat="46.17537732988765" lon="11.215904840520759"><ele>652.0</ele><time>2026-05-02T08:46:05.999Z</time></trkpt><trkpt lat="46.17526853489391" lon="11.21612805811379"><ele>652.0</ele><time>2026-05-02T08:46:06.999Z</time></trkpt><trkpt lat="46.175143421204204" lon="11.216336585602406"><ele>652.0</ele><time>2026-05-02T08:46:07.999Z</time></trkpt><trkpt lat="46.17502609904714" lon="11.216520690718886"><ele>649.0</ele><time>2026-05-02T08:46:08.999Z</time></trkpt><trkpt lat="46.17493382452171" lon="11.216682455244866"><ele>646.0</ele><time>2026-05-02T08:46:09.999Z</time></trkpt><trkpt lat="46.17485413786261" lon="11.216820483944588"><ele>643.0</ele><time>2026-05-02T08:46:10.999Z</time></trkpt><trkpt lat="46.174777914099685" lon="11.216948146664821"><ele>640.0</ele><time>2026-05-02T08:46:11.999Z</time></trkpt><trkpt lat="46.17470640209866" lon="11.217070651383127"><ele>640.0</ele><time>2026-05-02T08:46:12.999Z</time></trkpt><trkpt lat="46.17463712794934" lon="11.217208129948721"><ele>640.0</ele><time>2026-05-02T08:46:13.999Z</time></trkpt><trkpt lat="46.1745796759246" lon="11.217361849990235"><ele>640.0</ele><time>2026-05-02T08:46:14.999Z</time></trkpt><trkpt lat="46.17452425343535" lon="11.217528835093495"><ele>640.0</ele><time>2026-05-02T08:46:15.999Z</time></trkpt><trkpt lat="46.174470796283856" lon="11.217692702494189"><ele>643.6</ele><time>2026-05-02T08:46:16.999Z</time></trkpt><trkpt lat="46.17442611769182" lon="11.217842288009576"><ele>647.2</ele><time>2026-05-02T08:46:17.999Z</time></trkpt><trkpt lat="46.174383130626225" lon="11.217980126714085"><ele>650.8</ele><time>2026-05-02T08:46:18.999Z</time></trkpt><trkpt lat="46.17433787165675" lon="11.218103275942426"><ele>654.4</ele><time>2026-05-02T08:46:19.999Z</time></trkpt><trkpt lat="46.17430440559013" lon="11.218229495228632"><ele>658.0</ele><time>2026-05-02T08:46:20.999Z</time></trkpt><trkpt lat="46.17428871769653" lon="11.218365071732263"><ele>658.5999999999999</ele><time>2026-05-02T08:46:21.999Z</time></trkpt><trkpt lat="46.17429722162467" lon="11.218496084963268"><ele>659.1999999999999</ele><time>2026-05-02T08:46:22.999Z</time></trkpt><trkpt lat="46.1743256462452" lon="11.21863563277749"><ele>659.8</ele><time>2026-05-02T08:46:23.999Z</time></trkpt><trkpt lat="46.174365092340004" lon="11.218788706797671"><ele>660.4</ele><time>2026-05-02T08:46:24.999Z</time></trkpt><trkpt lat="46.174402485546736" lon="11.218951092324245"><ele>661.0</ele><time>2026-05-02T08:46:25.999Z</time></trkpt><trkpt lat="46.17443709510356" lon="11.219091874318009"><ele>661.5999999999999</ele><time>2026-05-02T08:46:26.999Z</time></trkpt><trkpt lat="46.17446368302064" lon="11.219224888161005"><ele>662.2</ele><time>2026-05-02T08:46:27.999Z</time></trkpt><trkpt lat="46.174493591796185" lon="11.219364325958763"><ele>662.8</ele><time>2026-05-02T08:46:28.999Z</time></trkpt><trkpt lat="46.174521188598014" lon="11.219496842482632"><ele>663.4000000000001</ele><time>2026-05-02T08:46:29.999Z</time></trkpt><trkpt lat="46.17454846499564" lon="11.219620876325196"><ele>664.0</ele><time>2026-05-02T08:46:30.999Z</time></trkpt><trkpt lat="46.174581200363136" lon="11.21974498985914"><ele>663.5</ele><time>2026-05-02T08:46:31.999Z</time></trkpt><trkpt lat="46.174608954941554" lon="11.219856950644356"><ele>663.0</ele><time>2026-05-02T08:46:32.999Z</time></trkpt><trkpt lat="46.174639727958" lon="11.21997542308957"><ele>662.5</ele><time>2026-05-02T08:46:34.999Z</time></trkpt><trkpt lat="46.17466320220879" lon="11.220068428517056"><ele>662.0</ele><time>2026-05-02T08:46:36.999Z</time></trkpt><trkpt lat="46.17468366183086" lon="11.22016439692067"><ele>661.5</ele><time>2026-05-02T08:46:38.999Z</time></trkpt><trkpt lat="46.174700340109105" lon="11.22029446563802"><ele>661.0</ele><time>2026-05-02T08:46:40.999Z</time></trkpt><trkpt lat="46.174734746877284" lon="11.220380762067887"><ele>661.0</ele><time>2026-05-02T08:46:41.999Z</time></trkpt><trkpt lat="46.17475676885607" lon="11.22048038439529"><ele>661.0</ele><time>2026-05-02T08:46:42.999Z</time></trkpt><trkpt lat="46.17477667929827" lon="11.220571452108688"><ele>661.0</ele><time>2026-05-02T08:46:43.999Z</time></trkpt><trkpt lat="46.17480036968331" lon="11.220744125041113"><ele>661.0</ele><time>2026-05-02T08:46:45.999Z</time></trkpt><trkpt lat="46.17482066962703" lon="11.220833414645133"><ele>661.0</ele><time>2026-05-02T08:46:46.999Z</time></trkpt><trkpt lat="46.174854445417935" lon="11.220982220430171"><ele>661.0</ele><time>2026-05-02T08:46:48.999Z</time></trkpt><trkpt lat="46.17489180082491" lon="11.221110967407093"><ele>661.0</ele><time>2026-05-02T08:46:50.999Z</time></trkpt><trkpt lat="46.17491859686875" lon="11.221259218578401"><ele>661.0</ele><time>2026-05-02T08:46:52.999Z</time></trkpt><trkpt lat="46.17496715752827" lon="11.221439889908217"><ele>661.0</ele><time>2026-05-02T08:46:54.999Z</time></trkpt><trkpt lat="46.174995310229015" lon="11.221536452488118"><ele>661.0</ele><time>2026-05-02T08:46:55.999Z</time></trkpt><trkpt lat="46.1750189761477" lon="11.221644038566891"><ele>661.0</ele><time>2026-05-02T08:46:56.999Z</time></trkpt><trkpt lat="46.17504083514101" lon="11.221768248043803"><ele>661.0</ele><time>2026-05-02T08:46:57.999Z</time></trkpt><trkpt lat="46.17506985117162" lon="11.221901191622308"><ele>661.0</ele><time>2026-05-02T08:46:58.999Z</time></trkpt><trkpt lat="46.175101343175534" lon="11.222027948510386"><ele>661.0</ele><time>2026-05-02T08:46:59.999Z</time></trkpt><trkpt lat="46.17512814583037" lon="11.22216268971004"><ele>661.0</ele><time>2026-05-02T08:47:00.999Z</time></trkpt><trkpt lat="46.175157214078894" lon="11.222298249734031"><ele>661.0</ele><time>2026-05-02T08:47:01.999Z</time></trkpt><trkpt lat="46.17518933523187" lon="11.222428428529382"><ele>660.8</ele><time>2026-05-02T08:47:02.999Z</time></trkpt><trkpt lat="46.17522008991849" lon="11.222566992749387"><ele>660.5999999999999</ele><time>2026-05-02T08:47:04Z</time></trkpt><trkpt lat="46.17525652228296" lon="11.222700145780182"><ele>660.4</ele><time>2026-05-02T08:47:05Z</time></trkpt><trkpt lat="46.175296699838405" lon="11.222823703307355"><ele>660.2</ele><time>2026-05-02T08:47:06Z</time></trkpt><trkpt lat="46.17535817913848" lon="11.222939802406657"><ele>660.0</ele><time>2026-05-02T08:47:07Z</time></trkpt><trkpt lat="46.17544246130525" lon="11.223046402639962"><ele>660.0</ele><time>2026-05-02T08:47:08Z</time></trkpt><trkpt lat="46.17554276309756" lon="11.223138905745643"><ele>660.0</ele><time>2026-05-02T08:47:09Z</time></trkpt><trkpt lat="46.17565726406011" lon="11.22321639562113"><ele>660.0</ele><time>2026-05-02T08:47:10Z</time></trkpt><trkpt lat="46.17577792436835" lon="11.22329090187768"><ele>660.0</ele><time>2026-05-02T08:47:11Z</time></trkpt><trkpt lat="46.17588957142146" lon="11.223360958534661"><ele>660.6</ele><time>2026-05-02T08:47:12Z</time></trkpt><trkpt lat="46.17597168916223" lon="11.223409587253204"><ele>661.2</ele><time>2026-05-02T08:47:13Z</time></trkpt><trkpt lat="46.17605262212469" lon="11.223465097763345"><ele>661.8</ele><time>2026-05-02T08:47:14Z</time></trkpt><trkpt lat="46.176141150300154" lon="11.223532219157988"><ele>662.4</ele><time>2026-05-02T08:47:15Z</time></trkpt><trkpt lat="46.1762483373471" lon="11.223599926600981"><ele>663.0</ele><time>2026-05-02T08:47:16Z</time></trkpt><trkpt lat="46.17636539036567" lon="11.223675880094758"><ele>663.0</ele><time>2026-05-02T08:47:17Z</time></trkpt><trkpt lat="46.17647837970497" lon="11.223749648798334"><ele>663.0</ele><time>2026-05-02T08:47:18Z</time></trkpt><trkpt lat="46.1765895925591" lon="11.223813344905514"><ele>663.0</ele><time>2026-05-02T08:47:19Z</time></trkpt><trkpt lat="46.176692038225596" lon="11.223881493255632"><ele>663.0</ele><time>2026-05-02T08:47:20Z</time></trkpt><trkpt lat="46.17679133859483" lon="11.223952477788155"><ele>663.25</ele><time>2026-05-02T08:47:21Z</time></trkpt><trkpt lat="46.17690212619939" lon="11.224029551373828"><ele>663.5</ele><time>2026-05-02T08:47:22Z</time></trkpt><trkpt lat="46.17702054334341" lon="11.224124365355031"><ele>663.75</ele><time>2026-05-02T08:47:23Z</time></trkpt><trkpt lat="46.17713471635985" lon="11.224247780617388"><ele>664.0</ele><time>2026-05-02T08:47:24Z</time></trkpt><trkpt lat="46.17724092882377" lon="11.224383848682912"><ele>664.0</ele><time>2026-05-02T08:47:25Z</time></trkpt><trkpt lat="46.17733161316887" lon="11.22455239743862"><ele>664.0</ele><time>2026-05-02T08:47:26Z</time></trkpt><trkpt lat="46.17742412078767" lon="11.22471566439475"><ele>664.0</ele><time>2026-05-02T08:47:27Z</time></trkpt><trkpt lat="46.17751295807858" lon="11.224876418747614"><ele>664.0</ele><time>2026-05-02T08:47:28Z</time></trkpt><trkpt lat="46.177616229801686" lon="11.225019901330686"><ele>663.25</ele><time>2026-05-02T08:47:29Z</time></trkpt><trkpt lat="46.17770266810015" lon="11.225175506145261"><ele>662.5</ele><time>2026-05-02T08:47:30Z</time></trkpt><trkpt lat="46.17779008555625" lon="11.225328256115462"><ele>661.75</ele><time>2026-05-02T08:47:31Z</time></trkpt><trkpt lat="46.17788182288502" lon="11.225492499008189"><ele>661.0</ele><time>2026-05-02T08:47:32Z</time></trkpt><trkpt lat="46.17798003026115" lon="11.225664955515123"><ele>661.0</ele><time>2026-05-02T08:47:33Z</time></trkpt><trkpt lat="46.1780821453199" lon="11.22583622003148"><ele>661.0</ele><time>2026-05-02T08:47:34Z</time></trkpt><trkpt lat="46.17818490803384" lon="11.226017225735603"><ele>661.0</ele><time>2026-05-02T08:47:35Z</time></trkpt><trkpt lat="46.17828696599951" lon="11.226208830008835"><ele>664.0</ele><time>2026-05-02T08:47:36Z</time></trkpt><trkpt lat="46.178394727031346" lon="11.226405492663734"><ele>667.0</ele><time>2026-05-02T08:47:37Z</time></trkpt><trkpt lat="46.178512258001156" lon="11.226603504376012"><ele>670.0</ele><time>2026-05-02T08:47:38Z</time></trkpt><trkpt lat="46.17863364064077" lon="11.226810363279082"><ele>670.0</ele><time>2026-05-02T08:47:39Z</time></trkpt><trkpt lat="46.178758233463356" lon="11.227019683429756"><ele>670.0</ele><time>2026-05-02T08:47:40Z</time></trkpt><trkpt lat="46.178876683399565" lon="11.22722178466204"><ele>670.0</ele><time>2026-05-02T08:47:41Z</time></trkpt><trkpt lat="46.17898912472058" lon="11.227411077756612"><ele>672.0</ele><time>2026-05-02T08:47:42Z</time></trkpt><trkpt lat="46.17910076320453" lon="11.22760507630537"><ele>674.0</ele><time>2026-05-02T08:47:43Z</time></trkpt><trkpt lat="46.17920774859035" lon="11.227798084375845"><ele>676.0</ele><time>2026-05-02T08:47:44Z</time></trkpt><trkpt lat="46.179315722075174" lon="11.227983852022826"><ele>670.5</ele><time>2026-05-02T08:47:45Z</time></trkpt><trkpt lat="46.1794256048224" lon="11.228156490684972"><ele>665.0</ele><time>2026-05-02T08:47:46Z</time></trkpt><trkpt lat="46.179536201977726" lon="11.228294013913112"><ele>659.5</ele><time>2026-05-02T08:47:47Z</time></trkpt><trkpt lat="46.179657955903366" lon="11.228386963167384"><ele>654.0</ele><time>2026-05-02T08:47:48Z</time></trkpt><trkpt lat="46.17979584410465" lon="11.228433443514334"><ele>660.25</ele><time>2026-05-02T08:47:49Z</time></trkpt><trkpt lat="46.179936006773964" lon="11.228437425845149"><ele>666.5</ele><time>2026-05-02T08:47:50Z</time></trkpt><trkpt lat="46.180083130151694" lon="11.228405739974566"><ele>672.75</ele><time>2026-05-02T08:47:51Z</time></trkpt><trkpt lat="46.18023305449368" lon="11.228346723806265"><ele>679.0</ele><time>2026-05-02T08:47:52Z</time></trkpt><trkpt lat="46.180383756808524" lon="11.228286780762335"><ele>679.0</ele><time>2026-05-02T08:47:53Z</time></trkpt><trkpt lat="46.180524100094445" lon="11.228232154139294"><ele>679.0</ele><time>2026-05-02T08:47:54Z</time></trkpt><trkpt lat="46.18065378845641" lon="11.228185203957368"><ele>679.0</ele><time>2026-05-02T08:47:55Z</time></trkpt><trkpt lat="46.18077320842773" lon="11.22813451685022"><ele>679.0</ele><time>2026-05-02T08:47:56Z</time></trkpt><trkpt lat="46.18088571154827" lon="11.228095617487737"><ele>678.8333333333334</ele><time>2026-05-02T08:47:57Z</time></trkpt><trkpt lat="46.180981964101335" lon="11.22807834885734"><ele>678.6666666666667</ele><time>2026-05-02T08:47:58Z</time></trkpt><trkpt lat="46.18106600594987" lon="11.228094099744121"><ele>678.5</ele><time>2026-05-02T08:47:59Z</time></trkpt><trkpt lat="46.18113624949631" lon="11.22814807755624"><ele>678.3333333333334</ele><time>2026-05-02T08:48:00Z</time></trkpt><trkpt lat="46.18119971432262" lon="11.228212839008092"><ele>678.1666666666666</ele><time>2026-05-02T08:48:01Z</time></trkpt><trkpt lat="46.181262765650665" lon="11.228273618236582"><ele>678.0</ele><time>2026-05-02T08:48:01.999Z</time></trkpt><trkpt lat="46.18131642313576" lon="11.228341277729033"><ele>678.0</ele><time>2026-05-02T08:48:02.999Z</time></trkpt><trkpt lat="46.18136227602735" lon="11.22843174636297"><ele>678.0</ele><time>2026-05-02T08:48:03.999Z</time></trkpt><trkpt lat="46.18139394085572" lon="11.228559346365673"><ele>678.0</ele><time>2026-05-02T08:48:04.999Z</time></trkpt><trkpt lat="46.181404338110355" lon="11.228722917806603"><ele>678.0</ele><time>2026-05-02T08:48:05.999Z</time></trkpt><trkpt lat="46.18140169013469" lon="11.22891726276483"><ele>678.0</ele><time>2026-05-02T08:48:06.999Z</time></trkpt><trkpt lat="46.18138784725186" lon="11.229144739262715"><ele>674.5</ele><time>2026-05-02T08:48:07.999Z</time></trkpt><trkpt lat="46.1813666561326" lon="11.229382619433158"><ele>671.0</ele><time>2026-05-02T08:48:08.999Z</time></trkpt><trkpt lat="46.18134768084603" lon="11.2295918496091"><ele>667.5</ele><time>2026-05-02T08:48:09.999Z</time></trkpt><trkpt lat="46.181332368156724" lon="11.229786996310684"><ele>664.0</ele><time>2026-05-02T08:48:10.999Z</time></trkpt><trkpt lat="46.181317088385086" lon="11.229969296457492"><ele>662.0</ele><time>2026-05-02T08:48:11.999Z</time></trkpt><trkpt lat="46.18132313943642" lon="11.23015316660635"><ele>660.0</ele><time>2026-05-02T08:48:12.999Z</time></trkpt><trkpt lat="46.18134261067956" lon="11.230352170488239"><ele>658.0</ele><time>2026-05-02T08:48:13.999Z</time></trkpt><trkpt lat="46.1813656450591" lon="11.230568622138895"><ele>656.0</ele><time>2026-05-02T08:48:14.999Z</time></trkpt><trkpt lat="46.18140687020907" lon="11.230800833068363"><ele>656.0</ele><time>2026-05-02T08:48:15.999Z</time></trkpt><trkpt lat="46.181466054846084" lon="11.231040712015522"><ele>656.0</ele><time>2026-05-02T08:48:16.999Z</time></trkpt><trkpt lat="46.181542197656725" lon="11.2312888395078"><ele>656.0</ele><time>2026-05-02T08:48:17.999Z</time></trkpt><trkpt lat="46.181645555023536" lon="11.23153635638907"><ele>672.0</ele><time>2026-05-02T08:48:18.999Z</time></trkpt><trkpt lat="46.181780763740306" lon="11.231801802198287"><ele>688.0</ele><time>2026-05-02T08:48:20.065Z</time></trkpt><trkpt lat="46.18191356963296" lon="11.232051776985564"><ele>704.0</ele><time>2026-05-02T08:48:21.053Z</time></trkpt><trkpt lat="46.182533454892436" lon="11.233022602045965"><ele>726.0</ele><time>2026-05-02T08:48:25.325Z</time></trkpt><trkpt lat="46.18267393972362" lon="11.23325966002769"><ele>748.0</ele><time>2026-05-02T08:48:26.325Z</time></trkpt><trkpt lat="46.18280159176972" lon="11.233511897182405"><ele>770.0</ele><time>2026-05-02T08:48:27.324Z</time></trkpt><trkpt lat="46.182939978830234" lon="11.233750839027024"><ele>694.0</ele><time>2026-05-02T08:48:28.323Z</time></trkpt><trkpt lat="46.188401113318164" lon="11.242338490070338"><ele>694.0</ele><time>2026-05-02T08:48:57.999Z</time></trkpt><trkpt lat="46.188591489546276" lon="11.24245809014344"><ele>694.0</ele><time>2026-05-02T08:48:58.999Z</time></trkpt><trkpt lat="46.18878657307747" lon="11.242616869725756"><ele>694.0</ele><time>2026-05-02T08:48:59.999Z</time></trkpt><trkpt lat="46.18899044313536" lon="11.24274309182748"><ele>691.0</ele><time>2026-05-02T08:49:00.999Z</time></trkpt><trkpt lat="46.1891758512495" lon="11.242881611599563"><ele>688.0</ele><time>2026-05-02T08:49:01.999Z</time></trkpt><trkpt lat="46.189358655271896" lon="11.24301214045695"><ele>685.0</ele><time>2026-05-02T08:49:02.999Z</time></trkpt><trkpt lat="46.18954553095279" lon="11.243175146144992"><ele>685.0</ele><time>2026-05-02T08:49:03.999Z</time></trkpt><trkpt lat="46.18972467284616" lon="11.243359748484565"><ele>685.0</ele><time>2026-05-02T08:49:04.999Z</time></trkpt><trkpt lat="46.18990139432898" lon="11.243558427501792"><ele>685.0</ele><time>2026-05-02T08:49:05.999Z</time></trkpt><trkpt lat="46.190086941685" lon="11.24373942019782"><ele>684.3333333333334</ele><time>2026-05-02T08:49:06.999Z</time></trkpt><trkpt lat="46.19025854957088" lon="11.243949308804387"><ele>683.6666666666666</ele><time>2026-05-02T08:49:07.999Z</time></trkpt><trkpt lat="46.19043269733926" lon="11.244144500515416"><ele>683.0</ele><time>2026-05-02T08:49:08.999Z</time></trkpt><trkpt lat="46.1906041426182" lon="11.244331735328567"><ele>692.0</ele><time>2026-05-02T08:49:10Z</time></trkpt><trkpt lat="46.1907671689021" lon="11.244481507098024"><ele>701.0</ele><time>2026-05-02T08:49:11Z</time></trkpt><trkpt lat="46.190943090560445" lon="11.244564521287964"><ele>710.0</ele><time>2026-05-02T08:49:12Z</time></trkpt><trkpt lat="46.19113134547103" lon="11.244632580560937"><ele>710.0</ele><time>2026-05-02T08:49:13Z</time></trkpt><trkpt lat="46.19133969632584" lon="11.244698851276107"><ele>710.0</ele><time>2026-05-02T08:49:14Z</time></trkpt><trkpt lat="46.191554561047475" lon="11.244766284065813"><ele>710.0</ele><time>2026-05-02T08:49:15Z</time></trkpt><trkpt lat="46.19177321619771" lon="11.244848782743606"><ele>707.3333333333333</ele><time>2026-05-02T08:49:16Z</time></trkpt><trkpt lat="46.191958986549324" lon="11.244924092999048"><ele>704.6666666666666</ele><time>2026-05-02T08:49:17Z</time></trkpt><trkpt lat="46.192149397548285" lon="11.244993058220816"><ele>702.0</ele><time>2026-05-02T08:49:18Z</time></trkpt><trkpt lat="46.192321174511996" lon="11.245067859599725"><ele>706.6666666666666</ele><time>2026-05-02T08:49:19Z</time></trkpt><trkpt lat="46.19249770180484" lon="11.245144081520806"><ele>711.3333333333333</ele><time>2026-05-02T08:49:20Z</time></trkpt><trkpt lat="46.192683672535544" lon="11.245218410366498"><ele>716.0</ele><time>2026-05-02T08:49:21Z</time></trkpt><trkpt lat="46.19287730924134" lon="11.24528857553714"><ele>716.0</ele><time>2026-05-02T08:49:22Z</time></trkpt><trkpt lat="46.193077037116325" lon="11.245371490686583"><ele>716.0</ele><time>2026-05-02T08:49:23Z</time></trkpt><trkpt lat="46.19326872436706" lon="11.245451687311519"><ele>716.0</ele><time>2026-05-02T08:49:24Z</time></trkpt><trkpt lat="46.19345536278559" lon="11.245506525844005"><ele>724.0</ele><time>2026-05-02T08:49:25Z</time></trkpt><trkpt lat="46.19363540579168" lon="11.2455209819367"><ele>732.0</ele><time>2026-05-02T08:49:26Z</time></trkpt><trkpt lat="46.1938066398968" lon="11.245492064097807"><ele>740.0</ele><time>2026-05-02T08:49:27Z</time></trkpt><trkpt lat="46.193981069870794" lon="11.245430492173565"><ele>739.3333333333333</ele><time>2026-05-02T08:49:28Z</time></trkpt><trkpt lat="46.19415002786447" lon="11.245363100266903"><ele>738.6666666666666</ele><time>2026-05-02T08:49:29Z</time></trkpt><trkpt lat="46.19434819232161" lon="11.245280974209942"><ele>738.0</ele><time>2026-05-02T08:49:30Z</time></trkpt><trkpt lat="46.194542255092884" lon="11.245208833351949"><ele>738.0</ele><time>2026-05-02T08:49:31Z</time></trkpt><trkpt lat="46.19474042485189" lon="11.24513320482381"><ele>738.0</ele><time>2026-05-02T08:49:32Z</time></trkpt><trkpt lat="46.194923324851054" lon="11.245075603338227"><ele>738.0</ele><time>2026-05-02T08:49:33Z</time></trkpt><trkpt lat="46.19509183994002" lon="11.245013341312424"><ele>735.25</ele><time>2026-05-02T08:49:34Z</time></trkpt><trkpt lat="46.195258341306904" lon="11.244951743491631"><ele>732.5</ele><time>2026-05-02T08:49:35Z</time></trkpt><trkpt lat="46.1954054474675" lon="11.244893109277228"><ele>729.75</ele><time>2026-05-02T08:49:36Z</time></trkpt><trkpt lat="46.195521870189864" lon="11.24485437407957"><ele>727.0</ele><time>2026-05-02T08:49:37Z</time></trkpt><trkpt lat="46.195624396408924" lon="11.244818870511182"><ele>725.0</ele><time>2026-05-02T08:49:38Z</time></trkpt><trkpt lat="46.195734559462245" lon="11.24478747729342"><ele>723.0</ele><time>2026-05-02T08:49:39Z</time></trkpt><trkpt lat="46.19585094187322" lon="11.244773510133856"><ele>721.0</ele><time>2026-05-02T08:49:40Z</time></trkpt><trkpt lat="46.195954696590206" lon="11.244844461484513"><ele>719.0</ele><time>2026-05-02T08:49:41Z</time></trkpt><trkpt lat="46.196044124618204" lon="11.244943926985894"><ele>719.0</ele><time>2026-05-02T08:49:42Z</time></trkpt><trkpt lat="46.19611468788539" lon="11.245069665401603"><ele>719.0</ele><time>2026-05-02T08:49:43Z</time></trkpt><trkpt lat="46.19614758974676" lon="11.24522528998397"><ele>719.0</ele><time>2026-05-02T08:49:44Z</time></trkpt><trkpt lat="46.19616346879342" lon="11.245397725826072"><ele>719.0</ele><time>2026-05-02T08:49:45Z</time></trkpt><trkpt lat="46.19616975327405" lon="11.245593305716724"><ele>718.4000000000001</ele><time>2026-05-02T08:49:46Z</time></trkpt><trkpt lat="46.19618691211994" lon="11.245772095081099"><ele>717.8</ele><time>2026-05-02T08:49:47Z</time></trkpt><trkpt lat="46.19618530371367" lon="11.245925882340286"><ele>717.2</ele><time>2026-05-02T08:49:48Z</time></trkpt><trkpt lat="46.19619992351899" lon="11.246074745649617"><ele>716.5999999999999</ele><time>2026-05-02T08:49:49Z</time></trkpt><trkpt lat="46.1962415183434" lon="11.246227070726231"><ele>716.0</ele><time>2026-05-02T08:49:50Z</time></trkpt><trkpt lat="46.19630378961912" lon="11.246375587237626"><ele>717.25</ele><time>2026-05-02T08:49:51Z</time></trkpt><trkpt lat="46.1963933019606" lon="11.246501145836143"><ele>718.5</ele><time>2026-05-02T08:49:52Z</time></trkpt><trkpt lat="46.19651109862088" lon="11.246581648966975"><ele>719.75</ele><time>2026-05-02T08:49:53Z</time></trkpt><trkpt lat="46.196613137647844" lon="11.24668030085873"><ele>721.0</ele><time>2026-05-02T08:49:54Z</time></trkpt><trkpt lat="46.19679829413514" lon="11.246620396464236"><ele>721.0</ele><time>2026-05-02T08:49:55Z</time></trkpt><trkpt lat="46.19699609967059" lon="11.246635593929703"><ele>721.0</ele><time>2026-05-02T08:49:56Z</time></trkpt><trkpt lat="46.19722499269455" lon="11.246657392177354"><ele>721.0</ele><time>2026-05-02T08:49:57Z</time></trkpt><trkpt lat="46.197485606725294" lon="11.246671848256488"><ele>726.0</ele><time>2026-05-02T08:49:58Z</time></trkpt><trkpt lat="46.1977552178028" lon="11.246691656062898"><ele>731.0</ele><time>2026-05-02T08:49:59Z</time></trkpt><trkpt lat="46.19802036699717" lon="11.246690505704098"><ele>732.5</ele><time>2026-05-02T08:50:00Z</time></trkpt><trkpt lat="46.19826649734132" lon="11.246675600452601"><ele>734.0</ele><time>2026-05-02T08:50:01Z</time></trkpt><trkpt lat="46.19849301975774" lon="11.246671384529588"><ele>734.0</ele><time>2026-05-02T08:50:02Z</time></trkpt><trkpt lat="46.19869468614961" lon="11.24666618933972"><ele>734.0</ele><time>2026-05-02T08:50:03Z</time></trkpt><trkpt lat="46.19889004912237" lon="11.246650651183975"><ele>734.0</ele><time>2026-05-02T08:50:04Z</time></trkpt><trkpt lat="46.19908782313482" lon="11.246636258455174"><ele>735.3333333333333</ele><time>2026-05-02T08:50:05Z</time></trkpt><trkpt lat="46.19929470949881" lon="11.246637135506532"><ele>736.6666666666666</ele><time>2026-05-02T08:50:06Z</time></trkpt><trkpt lat="46.19951309562218" lon="11.246666017943886"><ele>738.0</ele><time>2026-05-02T08:50:07Z</time></trkpt><trkpt lat="46.1997343592578" lon="11.246708483262807"><ele>738.3333333333334</ele><time>2026-05-02T08:50:08Z</time></trkpt><trkpt lat="46.199952509264826" lon="11.246739561725143"><ele>738.6666666666667</ele><time>2026-05-02T08:50:09Z</time></trkpt><trkpt lat="46.20016288232812" lon="11.24676175077213"><ele>739.0</ele><time>2026-05-02T08:50:10Z</time></trkpt><trkpt lat="46.200357340198636" lon="11.246784658575466"><ele>739.0</ele><time>2026-05-02T08:50:11Z</time></trkpt><trkpt lat="46.200549790258506" lon="11.246808681253109"><ele>739.0</ele><time>2026-05-02T08:50:12Z</time></trkpt><trkpt lat="46.20076355336788" lon="11.246833512600439"><ele>739.0</ele><time>2026-05-02T08:50:13Z</time></trkpt><trkpt lat="46.201001225858484" lon="11.246867986095097"><ele>748.0</ele><time>2026-05-02T08:50:14Z</time></trkpt><trkpt lat="46.201249563238434" lon="11.246905529241014"><ele>757.0</ele><time>2026-05-02T08:50:15Z</time></trkpt><trkpt lat="46.20149786676035" lon="11.246941888740869"><ele>762.0</ele><time>2026-05-02T08:50:16Z</time></trkpt><trkpt lat="46.20173739714244" lon="11.246974773633488"><ele>767.0</ele><time>2026-05-02T08:50:17Z</time></trkpt><trkpt lat="46.201972292268316" lon="11.24699880174741"><ele>767.0</ele><time>2026-05-02T08:50:18Z</time></trkpt><trkpt lat="46.202205012599535" lon="11.247025855421894"><ele>767.0</ele><time>2026-05-02T08:50:19Z</time></trkpt><trkpt lat="46.20244012321698" lon="11.247051731252526"><ele>771.0</ele><time>2026-05-02T08:50:20Z</time></trkpt><trkpt lat="46.20267597324181" lon="11.247085880650351"><ele>775.0</ele><time>2026-05-02T08:50:21Z</time></trkpt><trkpt lat="46.202908638933636" lon="11.247116748064514"><ele>775.0</ele><time>2026-05-02T08:50:22Z</time></trkpt><trkpt lat="46.20312224657636" lon="11.247147282915545"><ele>775.0</ele><time>2026-05-02T08:50:22.999Z</time></trkpt><trkpt lat="46.20331961303844" lon="11.247198771445863"><ele>775.0</ele><time>2026-05-02T08:50:23.999Z</time></trkpt><trkpt lat="46.203504755587566" lon="11.247268458289705"><ele>770.3333333333333</ele><time>2026-05-02T08:50:24.999Z</time></trkpt><trkpt lat="46.2036634083727" lon="11.247404258581431"><ele>765.6666666666666</ele><time>2026-05-02T08:50:25.999Z</time></trkpt><trkpt lat="46.20384117231551" lon="11.247518934094296"><ele>761.0</ele><time>2026-05-02T08:50:26.999Z</time></trkpt><trkpt lat="46.203997624248764" lon="11.24766018435735"><ele>761.0</ele><time>2026-05-02T08:50:27.999Z</time></trkpt><trkpt lat="46.20414448985137" lon="11.24777827976711"><ele>761.0</ele><time>2026-05-02T08:50:28.999Z</time></trkpt><trkpt lat="46.20428690436338" lon="11.247862406957868"><ele>761.0</ele><time>2026-05-02T08:50:29.999Z</time></trkpt><trkpt lat="46.204433635015796" lon="11.24788654535585"><ele>761.0</ele><time>2026-05-02T08:50:30.999Z</time></trkpt><trkpt lat="46.20457689773944" lon="11.247843985611636"><ele>761.0</ele><time>2026-05-02T08:50:31.999Z</time></trkpt><trkpt lat="46.20470670642823" lon="11.247765828751765"><ele>761.0</ele><time>2026-05-02T08:50:32.999Z</time></trkpt><trkpt lat="46.20481632219964" lon="11.247752688324404"><ele>761.0</ele><time>2026-05-02T08:50:33.999Z</time></trkpt><trkpt lat="46.20492427077616" lon="11.24777996116783"><ele>758.75</ele><time>2026-05-02T08:50:34.999Z</time></trkpt><trkpt lat="46.20502636087011" lon="11.247855167619544"><ele>756.5</ele><time>2026-05-02T08:50:35.999Z</time></trkpt><trkpt lat="46.20513451066849" lon="11.247994859804873"><ele>754.25</ele><time>2026-05-02T08:50:36.999Z</time></trkpt><trkpt lat="46.20521639316471" lon="11.248172470372797"><ele>752.0</ele><time>2026-05-02T08:50:37.999Z</time></trkpt><trkpt lat="46.20524731542689" lon="11.248381654164788"><ele>752.0</ele><time>2026-05-02T08:50:38.999Z</time></trkpt><trkpt lat="46.20521637947936" lon="11.248602726876053"><ele>752.0</ele><time>2026-05-02T08:50:39.999Z</time></trkpt><trkpt lat="46.20519564604838" lon="11.248851880661046"><ele>752.0</ele><time>2026-05-02T08:50:40.999Z</time></trkpt><trkpt lat="46.20516184127758" lon="11.249144503602018"><ele>751.3333333333333</ele><time>2026-05-02T08:50:41.999Z</time></trkpt><trkpt lat="46.20513322068782" lon="11.249406841230995"><ele>750.6666666666666</ele><time>2026-05-02T08:50:42.999Z</time></trkpt><trkpt lat="46.20510968964139" lon="11.249610977232802"><ele>750.0</ele><time>2026-05-02T08:50:43.999Z</time></trkpt><trkpt lat="46.205087997787416" lon="11.249792845523809"><ele>750.0</ele><time>2026-05-02T08:50:44.999Z</time></trkpt><trkpt lat="46.20507973499791" lon="11.249989711787011"><ele>750.0</ele><time>2026-05-02T08:50:45.999Z</time></trkpt><trkpt lat="46.205103520355195" lon="11.250190791169173"><ele>750.0</ele><time>2026-05-02T08:50:46.999Z</time></trkpt><trkpt lat="46.20516639341285" lon="11.25038782621911"><ele>750.0</ele><time>2026-05-02T08:50:47.999Z</time></trkpt><trkpt lat="46.20525897005263" lon="11.250563517011619"><ele>747.0</ele><time>2026-05-02T08:50:48.999Z</time></trkpt><trkpt lat="46.20537337962449" lon="11.250705319218865"><ele>744.0</ele><time>2026-05-02T08:50:49.999Z</time></trkpt><trkpt lat="46.20551957416025" lon="11.250821045654513"><ele>741.0</ele><time>2026-05-02T08:50:50.999Z</time></trkpt><trkpt lat="46.20571068009354" lon="11.250933146991315"><ele>754.5</ele><time>2026-05-02T08:50:51.999Z</time></trkpt><trkpt lat="46.20592109718752" lon="11.251116738293355"><ele>768.0</ele><time>2026-05-02T08:50:52.999Z</time></trkpt><trkpt lat="46.2061613241015" lon="11.251272484764591"><ele>763.0</ele><time>2026-05-02T08:50:53.999Z</time></trkpt><trkpt lat="46.206408925925906" lon="11.251474694719887"><ele>758.0</ele><time>2026-05-02T08:50:54.999Z</time></trkpt><trkpt lat="46.20668140917116" lon="11.25167211540931"><ele>758.0</ele><time>2026-05-02T08:50:55.999Z</time></trkpt><trkpt lat="46.20692463024355" lon="11.251854367332154"><ele>758.0</ele><time>2026-05-02T08:50:56.999Z</time></trkpt><trkpt lat="46.20714278267677" lon="11.25202429333316"><ele>774.0</ele><time>2026-05-02T08:50:57.999Z</time></trkpt><trkpt lat="46.207362003230784" lon="11.252166582536422"><ele>790.0</ele><time>2026-05-02T08:50:58.999Z</time></trkpt><trkpt lat="46.207596856680674" lon="11.252288736984775"><ele>770.5</ele><time>2026-05-02T08:50:59.999Z</time></trkpt><trkpt lat="46.207846829945666" lon="11.252368415061003"><ele>751.0</ele><time>2026-05-02T08:51:00.999Z</time></trkpt><trkpt lat="46.208076239960725" lon="11.25247757079564"><ele>757.3333333333334</ele><time>2026-05-02T08:51:01.999Z</time></trkpt><trkpt lat="46.208282154243584" lon="11.252573380847963"><ele>763.6666666666667</ele><time>2026-05-02T08:51:02.999Z</time></trkpt><trkpt lat="46.2084623168996" lon="11.25271735379457"><ele>770.0</ele><time>2026-05-02T08:51:03.999Z</time></trkpt><trkpt lat="46.2086437796815" lon="11.252894015869407"><ele>770.0</ele><time>2026-05-02T08:51:04.999Z</time></trkpt><trkpt lat="46.20883189252185" lon="11.253079949408766"><ele>770.0</ele><time>2026-05-02T08:51:05.999Z</time></trkpt><trkpt lat="46.209035652610574" lon="11.253258653735388"><ele>769.6666666666667</ele><time>2026-05-02T08:51:06.999Z</time></trkpt><trkpt lat="46.20921923760555" lon="11.253450698358488"><ele>769.3333333333333</ele><time>2026-05-02T08:51:07.999Z</time></trkpt><trkpt lat="46.209386679391976" lon="11.253615685526318"><ele>769.0</ele><time>2026-05-02T08:51:08.999Z</time></trkpt><trkpt lat="46.209553360189986" lon="11.25374327519137"><ele>769.0</ele><time>2026-05-02T08:51:09.999Z</time></trkpt><trkpt lat="46.20973187998942" lon="11.25380548157303"><ele>769.0</ele><time>2026-05-02T08:51:10.999Z</time></trkpt><trkpt lat="46.209923577441685" lon="11.253809440159491"><ele>769.0</ele><time>2026-05-02T08:51:11.999Z</time></trkpt><trkpt lat="46.21009999522318" lon="11.253770133449809"><ele>767.5</ele><time>2026-05-02T08:51:12.999Z</time></trkpt><trkpt lat="46.2102518623046" lon="11.253736267200763"><ele>766.0</ele><time>2026-05-02T08:51:13.999Z</time></trkpt><trkpt lat="46.210365426762856" lon="11.25377798435506"><ele>764.5</ele><time>2026-05-02T08:51:15Z</time></trkpt><trkpt lat="46.21043723440254" lon="11.25388494150359"><ele>763.0</ele><time>2026-05-02T08:51:16Z</time></trkpt><trkpt lat="46.21048345855282" lon="11.254027977600426"><ele>763.0</ele><time>2026-05-02T08:51:17Z</time></trkpt><trkpt lat="46.210519082169775" lon="11.254198104677625"><ele>763.0</ele><time>2026-05-02T08:51:18Z</time></trkpt><trkpt lat="46.21048512686645" lon="11.254385824376962"><ele>763.0</ele><time>2026-05-02T08:51:19Z</time></trkpt><trkpt lat="46.21038504666887" lon="11.254527366387789"><ele>763.0</ele><time>2026-05-02T08:51:20Z</time></trkpt><trkpt lat="46.210260311187376" lon="11.254621369857025"><ele>763.0</ele><time>2026-05-02T08:51:21Z</time></trkpt><trkpt lat="46.21009600115594" lon="11.254725367067646"><ele>763.0</ele><time>2026-05-02T08:51:22Z</time></trkpt><trkpt lat="46.20989790656037" lon="11.254854559907164"><ele>763.0</ele><time>2026-05-02T08:51:23Z</time></trkpt><trkpt lat="46.20967139901989" lon="11.255001600765357"><ele>759.5</ele><time>2026-05-02T08:51:24Z</time></trkpt><trkpt lat="46.209461103602436" lon="11.255138117295212"><ele>756.0</ele><time>2026-05-02T08:51:25Z</time></trkpt><trkpt lat="46.20926605258896" lon="11.255290532559242"><ele>756.0</ele><time>2026-05-02T08:51:26Z</time></trkpt><trkpt lat="46.209070896284636" lon="11.25542083755945"><ele>756.0</ele><time>2026-05-02T08:51:27Z</time></trkpt><trkpt lat="46.20889523871767" lon="11.25560090032119"><ele>756.0</ele><time>2026-05-02T08:51:28Z</time></trkpt><trkpt lat="46.20875163378487" lon="11.255859490287337"><ele>756.0</ele><time>2026-05-02T08:51:29Z</time></trkpt><trkpt lat="46.208606732467565" lon="11.256122192960941"><ele>756.0</ele><time>2026-05-02T08:51:30Z</time></trkpt><trkpt lat="46.208434934592816" lon="11.256294607587273"><ele>756.0</ele><time>2026-05-02T08:51:31Z</time></trkpt><trkpt lat="46.20824504286917" lon="11.256410630656486"><ele>759.6666666666666</ele><time>2026-05-02T08:51:32Z</time></trkpt><trkpt lat="46.20804830276172" lon="11.256521353727072"><ele>763.3333333333333</ele><time>2026-05-02T08:51:33Z</time></trkpt><trkpt lat="46.20787565652461" lon="11.256635992090482"><ele>767.0</ele><time>2026-05-02T08:51:34Z</time></trkpt><trkpt lat="46.20770791631703" lon="11.256729786791846"><ele>767.0</ele><time>2026-05-02T08:51:35Z</time></trkpt><trkpt lat="46.20755445234735" lon="11.256844292131232"><ele>767.0</ele><time>2026-05-02T08:51:36Z</time></trkpt><trkpt lat="46.207419868561416" lon="11.257000923959874"><ele>767.0</ele><time>2026-05-02T08:51:37Z</time></trkpt><trkpt lat="46.20732222829495" lon="11.257204167219959"><ele>759.0</ele><time>2026-05-02T08:51:38Z</time></trkpt><trkpt lat="46.20724032530104" lon="11.257448306821928"><ele>751.0</ele><time>2026-05-02T08:51:39Z</time></trkpt><trkpt lat="46.207181648325" lon="11.257700201808388"><ele>743.0</ele><time>2026-05-02T08:51:40Z</time></trkpt><trkpt lat="46.20715953819103" lon="11.257994526879388"><ele>743.6666666666666</ele><time>2026-05-02T08:51:41Z</time></trkpt><trkpt lat="46.207145595674675" lon="11.258310726296605"><ele>744.3333333333334</ele><time>2026-05-02T08:51:42Z</time></trkpt><trkpt lat="46.207124184159916" lon="11.258602977118597"><ele>745.0</ele><time>2026-05-02T08:51:43Z</time></trkpt><trkpt lat="46.20710254702471" lon="11.258903752705121"><ele>746.3333333333334</ele><time>2026-05-02T08:51:44Z</time></trkpt><trkpt lat="46.20710002113641" lon="11.259197046007166"><ele>747.6666666666666</ele><time>2026-05-02T08:51:45Z</time></trkpt><trkpt lat="46.20710421059535" lon="11.259466051207152"><ele>749.0</ele><time>2026-05-02T08:51:46Z</time></trkpt><trkpt lat="46.207120026242855" lon="11.259725481557348"><ele>747.3333333333333</ele><time>2026-05-02T08:51:47Z</time></trkpt><trkpt lat="46.2071368663479" lon="11.25997241327597"><ele>745.6666666666666</ele><time>2026-05-02T08:51:48Z</time></trkpt><trkpt lat="46.20714644405468" lon="11.260223594151446"><ele>744.0</ele><time>2026-05-02T08:51:49Z</time></trkpt><trkpt lat="46.20715033932856" lon="11.26047954367222"><ele>744.0</ele><time>2026-05-02T08:51:50Z</time></trkpt><trkpt lat="46.2071611283338" lon="11.260755914211796"><ele>744.0</ele><time>2026-05-02T08:51:51Z</time></trkpt><trkpt lat="46.20716296491177" lon="11.261053790446232"><ele>744.0</ele><time>2026-05-02T08:51:52Z</time></trkpt><trkpt lat="46.207148637689755" lon="11.261368274976117"><ele>744.6666666666666</ele><time>2026-05-02T08:51:53Z</time></trkpt><trkpt lat="46.207134921646094" lon="11.261672934120408"><ele>745.3333333333333</ele><time>2026-05-02T08:51:54Z</time></trkpt><trkpt lat="46.20712247432095" lon="11.261953978932594"><ele>746.0</ele><time>2026-05-02T08:51:55Z</time></trkpt><trkpt lat="46.207110126398874" lon="11.262223420816978"><ele>746.6666666666666</ele><time>2026-05-02T08:51:56Z</time></trkpt><trkpt lat="46.20709666837485" lon="11.262476864827882"><ele>747.3333333333334</ele><time>2026-05-02T08:51:57Z</time></trkpt><trkpt lat="46.20708493148406" lon="11.262716949733363"><ele>748.0</ele><time>2026-05-02T08:51:58Z</time></trkpt><trkpt lat="46.207075442959294" lon="11.26293881371705"><ele>748.75</ele><time>2026-05-02T08:51:59Z</time></trkpt><trkpt lat="46.20706453542889" lon="11.263145821356641"><ele>749.5</ele><time>2026-05-02T08:52:00Z</time></trkpt><trkpt lat="46.20706814284144" lon="11.263345917486447"><ele>750.25</ele><time>2026-05-02T08:52:01Z</time></trkpt><trkpt lat="46.20708474104305" lon="11.263548993024209"><ele>751.0</ele><time>2026-05-02T08:52:02Z</time></trkpt><trkpt lat="46.207105382562716" lon="11.263735683387152"><ele>751.0</ele><time>2026-05-02T08:52:03Z</time></trkpt><trkpt lat="46.207122086444905" lon="11.263903542752377"><ele>751.0</ele><time>2026-05-02T08:52:04Z</time></trkpt><trkpt lat="46.20713657667137" lon="11.264066633861376"><ele>751.0</ele><time>2026-05-02T08:52:05Z</time></trkpt><trkpt lat="46.20712435865373" lon="11.264230975748882"><ele>751.0</ele><time>2026-05-02T08:52:06Z</time></trkpt><trkpt lat="46.20711781500707" lon="11.264404216305275"><ele>750.0</ele><time>2026-05-02T08:52:07Z</time></trkpt><trkpt lat="46.20710556138023" lon="11.264597386257721"><ele>749.0</ele><time>2026-05-02T08:52:08Z</time></trkpt><trkpt lat="46.20710365357605" lon="11.264814788792176"><ele>748.0</ele><time>2026-05-02T08:52:09Z</time></trkpt><trkpt lat="46.20707222807858" lon="11.265053863113586"><ele>748.0</ele><time>2026-05-02T08:52:10Z</time></trkpt><trkpt lat="46.207043545961604" lon="11.26529867463408"><ele>748.0</ele><time>2026-05-02T08:52:11Z</time></trkpt><trkpt lat="46.20699918926986" lon="11.265526277601484"><ele>748.0</ele><time>2026-05-02T08:52:12Z</time></trkpt><trkpt lat="46.20694179215222" lon="11.265725820065136"><ele>750.5999999999999</ele><time>2026-05-02T08:52:13Z</time></trkpt><trkpt lat="46.20687200360617" lon="11.265895228900977"><ele>753.1999999999999</ele><time>2026-05-02T08:52:14Z</time></trkpt><trkpt lat="46.20681906542887" lon="11.26601718307896"><ele>755.8</ele><time>2026-05-02T08:52:15Z</time></trkpt><trkpt lat="46.206793029648594" lon="11.26613054823092"><ele>758.4</ele><time>2026-05-02T08:52:16Z</time></trkpt><trkpt lat="46.20678526855288" lon="11.266255210255242"><ele>761.0</ele><time>2026-05-02T08:52:17Z</time></trkpt><trkpt lat="46.206799284324376" lon="11.26636727333927"><ele>761.3333333333333</ele><time>2026-05-02T08:52:18Z</time></trkpt><trkpt lat="46.20683192151936" lon="11.266474154143388"><ele>761.6666666666666</ele><time>2026-05-02T08:52:19Z</time></trkpt><trkpt lat="46.206860422281245" lon="11.2665838143211"><ele>762.0</ele><time>2026-05-02T08:52:20Z</time></trkpt><trkpt lat="46.20693120159709" lon="11.266636063365619"><ele>762.3333333333334</ele><time>2026-05-02T08:52:21Z</time></trkpt><trkpt lat="46.207005754009785" lon="11.266702932797674"><ele>762.6666666666667</ele><time>2026-05-02T08:52:22Z</time></trkpt><trkpt lat="46.207096162357466" lon="11.2667601746913"><ele>763.0</ele><time>2026-05-02T08:52:23Z</time></trkpt><trkpt lat="46.20718354471913" lon="11.266836899734573"><ele>763.0</ele><time>2026-05-02T08:52:24Z</time></trkpt><trkpt lat="46.20727323339887" lon="11.266925112788721"><ele>763.0</ele><time>2026-05-02T08:52:25Z</time></trkpt><trkpt lat="46.207360061328885" lon="11.267019198812555"><ele>763.0</ele><time>2026-05-02T08:52:26Z</time></trkpt><trkpt lat="46.207434907273985" lon="11.26711557336143"><ele>763.0</ele><time>2026-05-02T08:52:27Z</time></trkpt><trkpt lat="46.20750819464174" lon="11.267210359921407"><ele>763.0</ele><time>2026-05-02T08:52:28Z</time></trkpt><trkpt lat="46.20757707266452" lon="11.267313283596597"><ele>765.0</ele><time>2026-05-02T08:52:29Z</time></trkpt><trkpt lat="46.20763331266004" lon="11.267421616992689"><ele>767.0</ele><time>2026-05-02T08:52:30Z</time></trkpt><trkpt lat="46.20768439207835" lon="11.26752608486863"><ele>769.0</ele><time>2026-05-02T08:52:31Z</time></trkpt><trkpt lat="46.20773993172293" lon="11.267635130394394"><ele>771.0</ele><time>2026-05-02T08:52:32Z</time></trkpt><trkpt lat="46.20778689943356" lon="11.267774028799199"><ele>773.0</ele><time>2026-05-02T08:52:33Z</time></trkpt><trkpt lat="46.20782700122439" lon="11.267929069911794"><ele>773.0</ele><time>2026-05-02T08:52:34Z</time></trkpt><trkpt lat="46.20786070980447" lon="11.268092071413742"><ele>773.0</ele><time>2026-05-02T08:52:35Z</time></trkpt><trkpt lat="46.20791197108159" lon="11.268252154145697"><ele>773.0</ele><time>2026-05-02T08:52:35.999Z</time></trkpt><trkpt lat="46.20798639138714" lon="11.268461466948434"><ele>773.0</ele><time>2026-05-02T08:52:36.999Z</time></trkpt><trkpt lat="46.208092724782205" lon="11.268665493149012"><ele>773.0</ele><time>2026-05-02T08:52:37.999Z</time></trkpt><trkpt lat="46.208182518171476" lon="11.268856851451387"><ele>773.0</ele><time>2026-05-02T08:52:38.999Z</time></trkpt><trkpt lat="46.20828006090349" lon="11.269005099777244"><ele>773.0</ele><time>2026-05-02T08:52:39.999Z</time></trkpt><trkpt lat="46.20839893398777" lon="11.269124556485545"><ele>773.0</ele><time>2026-05-02T08:52:40.999Z</time></trkpt><trkpt lat="46.20854271089867" lon="11.269210339258473"><ele>773.0</ele><time>2026-05-02T08:52:41.999Z</time></trkpt><trkpt lat="46.20868672557297" lon="11.269289926906884"><ele>773.0</ele><time>2026-05-02T08:52:42.999Z</time></trkpt><trkpt lat="46.20880794150835" lon="11.269367166519931"><ele>773.0</ele><time>2026-05-02T08:52:43.999Z</time></trkpt><trkpt lat="46.20890628885558" lon="11.269464076709339"><ele>773.0</ele><time>2026-05-02T08:52:44.999Z</time></trkpt><trkpt lat="46.20896840551423" lon="11.269598826818795"><ele>773.0</ele><time>2026-05-02T08:52:45.999Z</time></trkpt><trkpt lat="46.2089815625615" lon="11.269755115256032"><ele>773.0</ele><time>2026-05-02T08:52:46.999Z</time></trkpt><trkpt lat="46.20895682170075" lon="11.269927136378444"><ele>773.0</ele><time>2026-05-02T08:52:47.999Z</time></trkpt><trkpt lat="46.20889454469149" lon="11.270100765494243"><ele>773.0</ele><time>2026-05-02T08:52:48.999Z</time></trkpt><trkpt lat="46.208809650785504" lon="11.270283692345116"><ele>769.75</ele><time>2026-05-02T08:52:49.999Z</time></trkpt><trkpt lat="46.20875896768289" lon="11.270472577846295"><ele>766.5</ele><time>2026-05-02T08:52:50.999Z</time></trkpt><trkpt lat="46.2087028517478" lon="11.270642128247957"><ele>763.25</ele><time>2026-05-02T08:52:51.999Z</time></trkpt><trkpt lat="46.20867031033277" lon="11.27080918100781"><ele>760.0</ele><time>2026-05-02T08:52:52.999Z</time></trkpt><trkpt lat="46.208662746248294" lon="11.27098390110504"><ele>760.0</ele><time>2026-05-02T08:52:53.999Z</time></trkpt><trkpt lat="46.20868179931843" lon="11.271149217344101"><ele>760.0</ele><time>2026-05-02T08:52:54.999Z</time></trkpt><trkpt lat="46.2087294961018" lon="11.27130231277625"><ele>760.0</ele><time>2026-05-02T08:52:55.999Z</time></trkpt><trkpt lat="46.208785474233586" lon="11.271462461827719"><ele>760.0</ele><time>2026-05-02T08:52:56.999Z</time></trkpt><trkpt lat="46.20884095026774" lon="11.271632688126031"><ele>759.5</ele><time>2026-05-02T08:52:57.999Z</time></trkpt><trkpt lat="46.20889178462983" lon="11.271816340504348"><ele>759.0</ele><time>2026-05-02T08:52:58.999Z</time></trkpt><trkpt lat="46.20895788018645" lon="11.272008572915523"><ele>758.5</ele><time>2026-05-02T08:52:59.999Z</time></trkpt><trkpt lat="46.209049686048154" lon="11.272203681114178"><ele>758.0</ele><time>2026-05-02T08:53:00.999Z</time></trkpt><trkpt lat="46.20919317355225" lon="11.27238653348542"><ele>767.0</ele><time>2026-05-02T08:53:01.999Z</time></trkpt><trkpt lat="46.20936991228219" lon="11.272576662594789"><ele>776.0</ele><time>2026-05-02T08:53:02.999Z</time></trkpt><trkpt lat="46.20953962568029" lon="11.272744851678501"><ele>785.0</ele><time>2026-05-02T08:53:03.999Z</time></trkpt><trkpt lat="46.20968668941208" lon="11.272894233890755"><ele>785.0</ele><time>2026-05-02T08:53:04.999Z</time></trkpt><trkpt lat="46.20981733101546" lon="11.272993044816431"><ele>785.0</ele><time>2026-05-02T08:53:05.999Z</time></trkpt><trkpt lat="46.20995945780685" lon="11.273046401588946"><ele>785.0</ele><time>2026-05-02T08:53:06.999Z</time></trkpt><trkpt lat="46.210114447731584" lon="11.27306489208962"><ele>794.6666666666667</ele><time>2026-05-02T08:53:07.999Z</time></trkpt><trkpt lat="46.21028514989106" lon="11.273061338634106"><ele>804.3333333333333</ele><time>2026-05-02T08:53:08.999Z</time></trkpt><trkpt lat="46.21043969672625" lon="11.273061491891323"><ele>814.0</ele><time>2026-05-02T08:53:09.999Z</time></trkpt><trkpt lat="46.21057102437497" lon="11.273037753293893"><ele>815.0</ele><time>2026-05-02T08:53:10.999Z</time></trkpt><trkpt lat="46.2106903953739" lon="11.27296697381899"><ele>816.0</ele><time>2026-05-02T08:53:11.999Z</time></trkpt><trkpt lat="46.21080197489089" lon="11.272848007272819"><ele>817.0</ele><time>2026-05-02T08:53:12.999Z</time></trkpt><trkpt lat="46.210887180344855" lon="11.27269925086709"><ele>818.0</ele><time>2026-05-02T08:53:13.999Z</time></trkpt><trkpt lat="46.2109430378213" lon="11.272508085587086"><ele>818.0</ele><time>2026-05-02T08:53:14.999Z</time></trkpt><trkpt lat="46.21097150723761" lon="11.272290776159078"><ele>818.0</ele><time>2026-05-02T08:53:15.999Z</time></trkpt><trkpt lat="46.211022952100485" lon="11.272094836257285"><ele>818.0</ele><time>2026-05-02T08:53:16.999Z</time></trkpt><trkpt lat="46.21110677131637" lon="11.271938697019532"><ele>818.0</ele><time>2026-05-02T08:53:17.999Z</time></trkpt><trkpt lat="46.21122562313666" lon="11.27182728280423"><ele>818.0</ele><time>2026-05-02T08:53:18.999Z</time></trkpt><trkpt lat="46.21138345444942" lon="11.271730331333048"><ele>818.0</ele><time>2026-05-02T08:53:19.999Z</time></trkpt><trkpt lat="46.211559275728995" lon="11.271621893629256"><ele>818.0</ele><time>2026-05-02T08:53:21Z</time></trkpt><trkpt lat="46.21173039185279" lon="11.271510106975352"><ele>829.6666666666667</ele><time>2026-05-02T08:53:22Z</time></trkpt><trkpt lat="46.211899860462864" lon="11.271395006180613"><ele>841.3333333333333</ele><time>2026-05-02T08:53:23Z</time></trkpt><trkpt lat="46.212058674765416" lon="11.271331575387613"><ele>853.0</ele><time>2026-05-02T08:53:24Z</time></trkpt><trkpt lat="46.21222009397101" lon="11.271310523060261"><ele>848.0</ele><time>2026-05-02T08:53:25Z</time></trkpt><trkpt lat="46.21238809854806" lon="11.271318410428956"><ele>843.0</ele><time>2026-05-02T08:53:26Z</time></trkpt><trkpt lat="46.21254272419913" lon="11.271324538722933"><ele>838.0</ele><time>2026-05-02T08:53:27Z</time></trkpt><trkpt lat="46.21269836595136" lon="11.271294452155082"><ele>838.0</ele><time>2026-05-02T08:53:28Z</time></trkpt><trkpt lat="46.2128320424093" lon="11.271218930985356"><ele>838.0</ele><time>2026-05-02T08:53:29Z</time></trkpt><trkpt lat="46.212941529171395" lon="11.271084632812558"><ele>838.0</ele><time>2026-05-02T08:53:30Z</time></trkpt><trkpt lat="46.213063305404305" lon="11.270893791619072"><ele>842.3333333333333</ele><time>2026-05-02T08:53:31Z</time></trkpt><trkpt lat="46.2131732850331" lon="11.270740898585014"><ele>846.6666666666667</ele><time>2026-05-02T08:53:32Z</time></trkpt><trkpt lat="46.21328069452853" lon="11.270605004762466"><ele>851.0</ele><time>2026-05-02T08:53:33Z</time></trkpt><trkpt lat="46.213404947455025" lon="11.270472555574006"><ele>851.0</ele><time>2026-05-02T08:53:34Z</time></trkpt><trkpt lat="46.213530449595055" lon="11.270335635629504"><ele>851.0</ele><time>2026-05-02T08:53:35Z</time></trkpt><trkpt lat="46.21365246305288" lon="11.270241395824582"><ele>851.0</ele><time>2026-05-02T08:53:36Z</time></trkpt><trkpt lat="46.21379071690655" lon="11.270151996244488"><ele>851.0</ele><time>2026-05-02T08:53:37Z</time></trkpt><trkpt lat="46.21395700191921" lon="11.270114757683556"><ele>845.6666666666667</ele><time>2026-05-02T08:53:38Z</time></trkpt><trkpt lat="46.21413076881389" lon="11.270102571815665"><ele>840.3333333333333</ele><time>2026-05-02T08:53:39Z</time></trkpt><trkpt lat="46.21430386611713" lon="11.270086600033455"><ele>835.0</ele><time>2026-05-02T08:53:40Z</time></trkpt><trkpt lat="46.21448865589175" lon="11.270059073648941"><ele>835.0</ele><time>2026-05-02T08:53:41Z</time></trkpt><trkpt lat="46.21468464166881" lon="11.270009733555966"><ele>835.0</ele><time>2026-05-02T08:53:42Z</time></trkpt><trkpt lat="46.214878646696576" lon="11.269972859514985"><ele>835.0</ele><time>2026-05-02T08:53:43Z</time></trkpt><trkpt lat="46.21505800253469" lon="11.2699531767916"><ele>831.0</ele><time>2026-05-02T08:53:44Z</time></trkpt><trkpt lat="46.21522128004242" lon="11.2699773741328"><ele>827.0</ele><time>2026-05-02T08:53:45Z</time></trkpt><trkpt lat="46.21536499982173" lon="11.270058352137815"><ele>823.0</ele><time>2026-05-02T08:53:46Z</time></trkpt><trkpt lat="46.21548836609193" lon="11.27018441183626"><ele>823.0</ele><time>2026-05-02T08:53:47Z</time></trkpt><trkpt lat="46.215577663964424" lon="11.27036085552126"><ele>823.0</ele><time>2026-05-02T08:53:48Z</time></trkpt><trkpt lat="46.21563902305617" lon="11.270576479044182"><ele>823.0</ele><time>2026-05-02T08:53:49Z</time></trkpt><trkpt lat="46.21565674285425" lon="11.270791062057198"><ele>823.3333333333333</ele><time>2026-05-02T08:53:50Z</time></trkpt><trkpt lat="46.21562657467816" lon="11.271001510121227"><ele>823.6666666666667</ele><time>2026-05-02T08:53:51Z</time></trkpt><trkpt lat="46.21555997399619" lon="11.271217208527123"><ele>824.0</ele><time>2026-05-02T08:53:52Z</time></trkpt><trkpt lat="46.215485369216395" lon="11.271451927463639"><ele>824.0</ele><time>2026-05-02T08:53:53Z</time></trkpt><trkpt lat="46.21542656558847" lon="11.271733527358533"><ele>824.0</ele><time>2026-05-02T08:53:54Z</time></trkpt><trkpt lat="46.2153859077821" lon="11.27205454778239"><ele>824.0</ele><time>2026-05-02T08:53:55Z</time></trkpt><trkpt lat="46.215354950757" lon="11.27236501834683"><ele>823.6666666666667</ele><time>2026-05-02T08:53:56Z</time></trkpt><trkpt lat="46.21530620843694" lon="11.272629883360056"><ele>823.3333333333333</ele><time>2026-05-02T08:53:57Z</time></trkpt><trkpt lat="46.21522743838497" lon="11.272873922071135"><ele>823.0</ele><time>2026-05-02T08:53:58Z</time></trkpt><trkpt lat="46.21511976075324" lon="11.273114513737584"><ele>826.3333333333333</ele><time>2026-05-02T08:53:59Z</time></trkpt><trkpt lat="46.21500131826176" lon="11.273356460749158"><ele>829.6666666666667</ele><time>2026-05-02T08:54:00Z</time></trkpt><trkpt lat="46.21488540076122" lon="11.27360152775794"><ele>833.0</ele><time>2026-05-02T08:54:01Z</time></trkpt><trkpt lat="46.214773286421426" lon="11.273833351304793"><ele>825.0</ele><time>2026-05-02T08:54:02Z</time></trkpt><trkpt lat="46.21466936702668" lon="11.274045802065382"><ele>817.0</ele><time>2026-05-02T08:54:03Z</time></trkpt><trkpt lat="46.21459556852866" lon="11.274264900613067"><ele>809.0</ele><time>2026-05-02T08:54:04Z</time></trkpt><trkpt lat="46.21455254080737" lon="11.274494033274962"><ele>809.0</ele><time>2026-05-02T08:54:05Z</time></trkpt><trkpt lat="46.21453386130119" lon="11.274750554535524"><ele>809.0</ele><time>2026-05-02T08:54:06Z</time></trkpt><trkpt lat="46.21452184305812" lon="11.275015911609122"><ele>809.0</ele><time>2026-05-02T08:54:07Z</time></trkpt><trkpt lat="46.21450801709922" lon="11.275278035087089"><ele>809.6666666666667</ele><time>2026-05-02T08:54:08Z</time></trkpt><trkpt lat="46.214487973399685" lon="11.275548007734706"><ele>810.3333333333333</ele><time>2026-05-02T08:54:09Z</time></trkpt><trkpt lat="46.21446513849456" lon="11.27582286611544"><ele>811.0</ele><time>2026-05-02T08:54:10Z</time></trkpt><trkpt lat="46.21444034317052" lon="11.276094802292496"><ele>813.3333333333333</ele><time>2026-05-02T08:54:11Z</time></trkpt><trkpt lat="46.214396033613326" lon="11.276359129233677"><ele>815.6666666666667</ele><time>2026-05-02T08:54:12Z</time></trkpt><trkpt lat="46.21433329055187" lon="11.276610544490817"><ele>818.0</ele><time>2026-05-02T08:54:13Z</time></trkpt><trkpt lat="46.21425727989621" lon="11.27685928610188"><ele>821.0</ele><time>2026-05-02T08:54:14Z</time></trkpt><trkpt lat="46.2141822930308" lon="11.277104761000682"><ele>824.0</ele><time>2026-05-02T08:54:15Z</time></trkpt><trkpt lat="46.21412372974251" lon="11.277352044634533"><ele>827.0</ele><time>2026-05-02T08:54:16Z</time></trkpt><trkpt lat="46.21408571642711" lon="11.277605153685629"><ele>831.0</ele><time>2026-05-02T08:54:17Z</time></trkpt><trkpt lat="46.21406335620648" lon="11.277857793441177"><ele>835.0</ele><time>2026-05-02T08:54:18Z</time></trkpt><trkpt lat="46.21406635933523" lon="11.278112757722626"><ele>839.0</ele><time>2026-05-02T08:54:19Z</time></trkpt><trkpt lat="46.21409458135427" lon="11.278372357261237"><ele>839.6666666666667</ele><time>2026-05-02T08:54:20Z</time></trkpt><trkpt lat="46.21414264948298" lon="11.278640470486192"><ele>840.3333333333333</ele><time>2026-05-02T08:54:21Z</time></trkpt><trkpt lat="46.21421519956157" lon="11.278913077297167"><ele>841.0</ele><time>2026-05-02T08:54:22Z</time></trkpt><trkpt lat="46.21430692179227" lon="11.279205804814675"><ele>838.5</ele><time>2026-05-02T08:54:23Z</time></trkpt><trkpt lat="46.21440225641049" lon="11.279520453313857"><ele>836.0</ele><time>2026-05-02T08:54:24Z</time></trkpt><trkpt lat="46.21449992941475" lon="11.279841376703326"><ele>832.3333333333334</ele><time>2026-05-02T08:54:25Z</time></trkpt><trkpt lat="46.21459189173704" lon="11.280138771852892"><ele>828.6666666666667</ele><time>2026-05-02T08:54:26Z</time></trkpt><trkpt lat="46.21467622604692" lon="11.28041930075112"><ele>825.0</ele><time>2026-05-02T08:54:27Z</time></trkpt><trkpt lat="46.21475421683525" lon="11.28067685985082"><ele>830.5</ele><time>2026-05-02T08:54:28Z</time></trkpt><trkpt lat="46.2148261449156" lon="11.280895829012286"><ele>836.0</ele><time>2026-05-02T08:54:29Z</time></trkpt><trkpt lat="46.21489413365812" lon="11.281070832933205"><ele>841.5</ele><time>2026-05-02T08:54:30Z</time></trkpt><trkpt lat="46.21497745203221" lon="11.281230359622551"><ele>847.0</ele><time>2026-05-02T08:54:31Z</time></trkpt><trkpt lat="46.215071881370484" lon="11.281360243767994"><ele>843.25</ele><time>2026-05-02T08:54:32Z</time></trkpt><trkpt lat="46.2151749284331" lon="11.281462501343809"><ele>839.5</ele><time>2026-05-02T08:54:33Z</time></trkpt><trkpt lat="46.21529262966504" lon="11.281551066013884"><ele>835.75</ele><time>2026-05-02T08:54:34Z</time></trkpt><trkpt lat="46.215436997096994" lon="11.281632328926094"><ele>832.0</ele><time>2026-05-02T08:54:35Z</time></trkpt><trkpt lat="46.21559664442753" lon="11.28172008868386"><ele>838.3333333333333</ele><time>2026-05-02T08:54:36Z</time></trkpt><trkpt lat="46.21575985694968" lon="11.281839662267034"><ele>844.6666666666667</ele><time>2026-05-02T08:54:37Z</time></trkpt><trkpt lat="46.21592161490287" lon="11.281991454796701"><ele>851.0</ele><time>2026-05-02T08:54:38Z</time></trkpt><trkpt lat="46.21608704306922" lon="11.282193649987471"><ele>841.0</ele><time>2026-05-02T08:54:39Z</time></trkpt><trkpt lat="46.21625807637538" lon="11.282437487532821"><ele>831.0</ele><time>2026-05-02T08:54:40Z</time></trkpt><trkpt lat="46.21641780548176" lon="11.282682083096411"><ele>832.3333333333333</ele><time>2026-05-02T08:54:41Z</time></trkpt><trkpt lat="46.2165667829421" lon="11.282904041425029"><ele>833.6666666666666</ele><time>2026-05-02T08:54:42Z</time></trkpt><trkpt lat="46.21670979932242" lon="11.283110969280232"><ele>835.0</ele><time>2026-05-02T08:54:43Z</time></trkpt><trkpt lat="46.21685568155989" lon="11.283323430305563"><ele>835.0</ele><time>2026-05-02T08:54:44Z</time></trkpt><trkpt lat="46.216999227393515" lon="11.28353476851761"><ele>835.0</ele><time>2026-05-02T08:54:45Z</time></trkpt><trkpt lat="46.21713363586458" lon="11.283736163973833"><ele>835.0</ele><time>2026-05-02T08:54:46Z</time></trkpt><trkpt lat="46.217252302633526" lon="11.283931212394297"><ele>839.6666666666666</ele><time>2026-05-02T08:54:47Z</time></trkpt><trkpt lat="46.21734895304952" lon="11.284134300935397"><ele>844.3333333333333</ele><time>2026-05-02T08:54:48Z</time></trkpt><trkpt lat="46.21741178812826" lon="11.284358324737804"><ele>849.0</ele><time>2026-05-02T08:54:49Z</time></trkpt><trkpt lat="46.21744456850701" lon="11.28459720846951"><ele>849.3333333333333</ele><time>2026-05-02T08:54:50Z</time></trkpt><trkpt lat="46.217448870120506" lon="11.284850668364042"><ele>849.6666666666666</ele><time>2026-05-02T08:54:50.999Z</time></trkpt><trkpt lat="46.21744106010917" lon="11.285113887056488"><ele>850.0</ele><time>2026-05-02T08:54:51.999Z</time></trkpt><trkpt lat="46.21745001465745" lon="11.285373992036456"><ele>848.0</ele><time>2026-05-02T08:54:52.999Z</time></trkpt><trkpt lat="46.21745035426117" lon="11.285658000616282"><ele>846.0</ele><time>2026-05-02T08:54:53.999Z</time></trkpt><trkpt lat="46.21747570791659" lon="11.285940847229094"><ele>844.0</ele><time>2026-05-02T08:54:54.999Z</time></trkpt><trkpt lat="46.21754265536678" lon="11.286219149125026"><ele>839.0</ele><time>2026-05-02T08:54:55.999Z</time></trkpt><trkpt lat="46.21764504271726" lon="11.286497767844379"><ele>834.0</ele><time>2026-05-02T08:54:56.999Z</time></trkpt><trkpt lat="46.21778038186528" lon="11.286797562654971"><ele>834.0</ele><time>2026-05-02T08:54:57.999Z</time></trkpt><trkpt lat="46.217928049673446" lon="11.287128486523452"><ele>834.0</ele><time>2026-05-02T08:54:58.999Z</time></trkpt><trkpt lat="46.2180833351978" lon="11.287484224259329"><ele>844.0</ele><time>2026-05-02T08:54:59.999Z</time></trkpt><trkpt lat="46.21822977049543" lon="11.287819420665352"><ele>854.0</ele><time>2026-05-02T08:55:00.999Z</time></trkpt><trkpt lat="46.21835546746849" lon="11.288111976979776"><ele>854.0</ele><time>2026-05-02T08:55:01.999Z</time></trkpt><trkpt lat="46.21846780630816" lon="11.288377654468352"><ele>854.0</ele><time>2026-05-02T08:55:02.999Z</time></trkpt><trkpt lat="46.21857403529966" lon="11.288629635687643"><ele>854.0</ele><time>2026-05-02T08:55:03.999Z</time></trkpt><trkpt lat="46.21867396541858" lon="11.288863610354268"><ele>850.6666666666667</ele><time>2026-05-02T08:55:04.999Z</time></trkpt><trkpt lat="46.21877093767043" lon="11.289086394200138"><ele>847.3333333333333</ele><time>2026-05-02T08:55:05.999Z</time></trkpt><trkpt lat="46.218867818373646" lon="11.289316517989194"><ele>844.0</ele><time>2026-05-02T08:55:06.999Z</time></trkpt><trkpt lat="46.21896727315263" lon="11.289542439410535"><ele>850.3333333333333</ele><time>2026-05-02T08:55:07.999Z</time></trkpt><trkpt lat="46.21906737848849" lon="11.28975601224562"><ele>856.6666666666667</ele><time>2026-05-02T08:55:08.999Z</time></trkpt><trkpt lat="46.21916275244386" lon="11.28996321283988"><ele>863.0</ele><time>2026-05-02T08:55:09.999Z</time></trkpt><trkpt lat="46.21925217791442" lon="11.290166058706758"><ele>863.0</ele><time>2026-05-02T08:55:10.999Z</time></trkpt><trkpt lat="46.21934003725009" lon="11.290361654654344"><ele>863.0</ele><time>2026-05-02T08:55:11.999Z</time></trkpt><trkpt lat="46.219424567381374" lon="11.29054908569545"><ele>863.0</ele><time>2026-05-02T08:55:12.999Z</time></trkpt><trkpt lat="46.21951457152062" lon="11.290724509965274"><ele>859.6666666666667</ele><time>2026-05-02T08:55:13.999Z</time></trkpt><trkpt lat="46.21961465258329" lon="11.290902102423079"><ele>856.3333333333333</ele><time>2026-05-02T08:55:14.999Z</time></trkpt><trkpt lat="46.21972756601921" lon="11.291078960724416"><ele>853.0</ele><time>2026-05-02T08:55:15.999Z</time></trkpt><trkpt lat="46.219853505013745" lon="11.291253180709498"><ele>856.6666666666666</ele><time>2026-05-02T08:55:16.999Z</time></trkpt><trkpt lat="46.21998675650019" lon="11.291428293010659"><ele>860.3333333333333</ele><time>2026-05-02T08:55:17.999Z</time></trkpt><trkpt lat="46.22011503190996" lon="11.291597908695302"><ele>864.0</ele><time>2026-05-02T08:55:18.999Z</time></trkpt><trkpt lat="46.220233427004494" lon="11.291753269189455"><ele>864.0</ele><time>2026-05-02T08:55:19.999Z</time></trkpt><trkpt lat="46.22034708698591" lon="11.29190064177725"><ele>864.0</ele><time>2026-05-02T08:55:20.999Z</time></trkpt><trkpt lat="46.220472165921436" lon="11.292054206718857"><ele>864.0</ele><time>2026-05-02T08:55:21.999Z</time></trkpt><trkpt lat="46.220596153279025" lon="11.292226985873905"><ele>866.3333333333333</ele><time>2026-05-02T08:55:22.999Z</time></trkpt><trkpt lat="46.22076717937167" lon="11.29234368804628"><ele>868.6666666666666</ele><time>2026-05-02T08:55:23.999Z</time></trkpt><trkpt lat="46.220937431856804" lon="11.29247428651068"><ele>871.0</ele><time>2026-05-02T08:55:24.999Z</time></trkpt><trkpt lat="46.22112296847237" lon="11.292593551030903"><ele>871.0</ele><time>2026-05-02T08:55:25.999Z</time></trkpt><trkpt lat="46.221334945681456" lon="11.292699647044415"><ele>871.0</ele><time>2026-05-02T08:55:27Z</time></trkpt><trkpt lat="46.22157000050328" lon="11.292790450367894"><ele>881.0</ele><time>2026-05-02T08:55:28Z</time></trkpt><trkpt lat="46.22181671133477" lon="11.292878316192853"><ele>891.0</ele><time>2026-05-02T08:55:29Z</time></trkpt><trkpt lat="46.222051657670086" lon="11.292961322228344"><ele>891.0</ele><time>2026-05-02T08:55:30Z</time></trkpt><trkpt lat="46.2222694954292" lon="11.293036644586453"><ele>891.0</ele><time>2026-05-02T08:55:31Z</time></trkpt><trkpt lat="46.222485482787185" lon="11.293078413838543"><ele>891.0</ele><time>2026-05-02T08:55:32Z</time></trkpt><trkpt lat="46.22271245953662" lon="11.293066673198775"><ele>896.0</ele><time>2026-05-02T08:55:33Z</time></trkpt><trkpt lat="46.22294362456402" lon="11.293015644575707"><ele>901.0</ele><time>2026-05-02T08:55:34Z</time></trkpt><trkpt lat="46.22316305205837" lon="11.292970818467372"><ele>903.6666666666666</ele><time>2026-05-02T08:55:35Z</time></trkpt><trkpt lat="46.223375971074844" lon="11.292957424190716"><ele>906.3333333333333</ele><time>2026-05-02T08:55:36Z</time></trkpt><trkpt lat="46.22359015209886" lon="11.293000059681422"><ele>909.0</ele><time>2026-05-02T08:55:37Z</time></trkpt><trkpt lat="46.223823637725346" lon="11.293099131444954"><ele>892.0</ele><time>2026-05-02T08:55:38Z</time></trkpt><trkpt lat="46.22408385439188" lon="11.293225041310546"><ele>875.0</ele><time>2026-05-02T08:55:39Z</time></trkpt><trkpt lat="46.22432753721986" lon="11.293352143514815"><ele>875.0</ele><time>2026-05-02T08:55:40Z</time></trkpt><trkpt lat="46.22457991398378" lon="11.293476847916237"><ele>875.0</ele><time>2026-05-02T08:55:41Z</time></trkpt><trkpt lat="46.224824977224955" lon="11.29359984177826"><ele>881.5</ele><time>2026-05-02T08:55:42Z</time></trkpt><trkpt lat="46.225056355331496" lon="11.293723841449152"><ele>888.0</ele><time>2026-05-02T08:55:43Z</time></trkpt><trkpt lat="46.2252608155529" lon="11.29383067281078"><ele>888.0</ele><time>2026-05-02T08:55:44Z</time></trkpt><trkpt lat="46.225436683192086" lon="11.293914687115816"><ele>888.0</ele><time>2026-05-02T08:55:45Z</time></trkpt><trkpt lat="46.22559553737878" lon="11.293979696673013"><ele>888.0</ele><time>2026-05-02T08:55:46Z</time></trkpt><trkpt lat="46.225758960584024" lon="11.294009143129323"><ele>889.0</ele><time>2026-05-02T08:55:47Z</time></trkpt><trkpt lat="46.22592250239331" lon="11.293992487329074"><ele>890.0</ele><time>2026-05-02T08:55:48Z</time></trkpt><trkpt lat="46.226075205860255" lon="11.29393453710104"><ele>891.0</ele><time>2026-05-02T08:55:49Z</time></trkpt><trkpt lat="46.22620587816995" lon="11.293893029733688"><ele>881.5</ele><time>2026-05-02T08:55:50Z</time></trkpt><trkpt lat="46.22631630583133" lon="11.293922502367506"><ele>872.0</ele><time>2026-05-02T08:55:51Z</time></trkpt><trkpt lat="46.22642680560518" lon="11.293995060222203"><ele>862.5</ele><time>2026-05-02T08:55:52Z</time></trkpt><trkpt lat="46.22653829518621" lon="11.294085887570699"><ele>853.0</ele><time>2026-05-02T08:55:53Z</time></trkpt><trkpt lat="46.226667932248894" lon="11.294163957206864"><ele>853.0</ele><time>2026-05-02T08:55:54Z</time></trkpt><trkpt lat="46.22681954988577" lon="11.294199905626957"><ele>853.0</ele><time>2026-05-02T08:55:55Z</time></trkpt><trkpt lat="46.22697532465413" lon="11.294202905749117"><ele>853.0</ele><time>2026-05-02T08:55:56Z</time></trkpt><trkpt lat="46.22713108844009" lon="11.294157545124452"><ele>853.0</ele><time>2026-05-02T08:55:57Z</time></trkpt><trkpt lat="46.22729103240746" lon="11.29404760085111"><ele>853.0</ele><time>2026-05-02T08:55:58Z</time></trkpt><trkpt lat="46.22745451229527" lon="11.293933106362077"><ele>853.0</ele><time>2026-05-02T08:55:59Z</time></trkpt><trkpt lat="46.22760886213698" lon="11.293829187997774"><ele>858.0</ele><time>2026-05-02T08:56:00Z</time></trkpt><trkpt lat="46.227738141421696" lon="11.29374258620985"><ele>863.0</ele><time>2026-05-02T08:56:01Z</time></trkpt><trkpt lat="46.227829515306546" lon="11.293647003032504"><ele>868.0</ele><time>2026-05-02T08:56:02Z</time></trkpt><trkpt lat="46.22788227720414" lon="11.29351755398525"><ele>873.0</ele><time>2026-05-02T08:56:03Z</time></trkpt><trkpt lat="46.22789750645748" lon="11.293368729346128"><ele>873.0</ele><time>2026-05-02T08:56:04Z</time></trkpt><trkpt lat="46.227871695341385" lon="11.293217072744294"><ele>873.0</ele><time>2026-05-02T08:56:05Z</time></trkpt><trkpt lat="46.22781880968466" lon="11.293067941360029"><ele>873.0</ele><time>2026-05-02T08:56:06Z</time></trkpt><trkpt lat="46.22777023741262" lon="11.292902806474004"><ele>873.0</ele><time>2026-05-02T08:56:07Z</time></trkpt><trkpt lat="46.22773790643277" lon="11.292717373224297"><ele>880.0</ele><time>2026-05-02T08:56:08Z</time></trkpt><trkpt lat="46.22775233103081" lon="11.292514800942788"><ele>887.0</ele><time>2026-05-02T08:56:09Z</time></trkpt><trkpt lat="46.227796598885675" lon="11.292324948616926"><ele>894.0</ele><time>2026-05-02T08:56:10Z</time></trkpt><trkpt lat="46.22787225169726" lon="11.292173734034606"><ele>901.0</ele><time>2026-05-02T08:56:11Z</time></trkpt><trkpt lat="46.22797383573312" lon="11.292065292502516"><ele>898.6666666666666</ele><time>2026-05-02T08:56:12Z</time></trkpt><trkpt lat="46.22810479254689" lon="11.292000936114215"><ele>896.3333333333333</ele><time>2026-05-02T08:56:13Z</time></trkpt><trkpt lat="46.2282564311287" lon="11.29197396289886"><ele>894.0</ele><time>2026-05-02T08:56:14Z</time></trkpt><trkpt lat="46.22841903654654" lon="11.29195751181493"><ele>894.0</ele><time>2026-05-02T08:56:15Z</time></trkpt><trkpt lat="46.22858599149923" lon="11.291961436026687"><ele>894.0</ele><time>2026-05-02T08:56:16Z</time></trkpt><trkpt lat="46.22875148547953" lon="11.292053299086628"><ele>894.0</ele><time>2026-05-02T08:56:17Z</time></trkpt><trkpt lat="46.22893593794949" lon="11.292122090631684"><ele>890.3333333333333</ele><time>2026-05-02T08:56:18Z</time></trkpt><trkpt lat="46.229101859028816" lon="11.292228859011173"><ele>886.6666666666666</ele><time>2026-05-02T08:56:19Z</time></trkpt><trkpt lat="46.22924259520949" lon="11.292365161219552"><ele>883.0</ele><time>2026-05-02T08:56:20Z</time></trkpt><trkpt lat="46.22935663021368" lon="11.292546459603376"><ele>870.6666666666666</ele><time>2026-05-02T08:56:21Z</time></trkpt><trkpt lat="46.229444675208576" lon="11.292751863146504"><ele>858.3333333333333</ele><time>2026-05-02T08:56:22Z</time></trkpt><trkpt lat="46.22950889897981" lon="11.292986769148783"><ele>846.0</ele><time>2026-05-02T08:56:23Z</time></trkpt><trkpt lat="46.22954360915945" lon="11.293248407002888"><ele>843.0</ele><time>2026-05-02T08:56:24Z</time></trkpt><trkpt lat="46.22953922122925" lon="11.293520675866366"><ele>840.0</ele><time>2026-05-02T08:56:25Z</time></trkpt><trkpt lat="46.229481901697724" lon="11.29378865205244"><ele>837.0</ele><time>2026-05-02T08:56:26Z</time></trkpt><trkpt lat="46.22943370522352" lon="11.29406663540009"><ele>835.3333333333333</ele><time>2026-05-02T08:56:27Z</time></trkpt><trkpt lat="46.22937461644023" lon="11.29433914431021"><ele>833.6666666666666</ele><time>2026-05-02T08:56:28Z</time></trkpt><trkpt lat="46.229344517325764" lon="11.294595363448733"><ele>832.0</ele><time>2026-05-02T08:56:29Z</time></trkpt><trkpt lat="46.22934375395469" lon="11.294842490642237"><ele>836.0</ele><time>2026-05-02T08:56:30Z</time></trkpt><trkpt lat="46.22936571452447" lon="11.295092620579858"><ele>840.0</ele><time>2026-05-02T08:56:31Z</time></trkpt><trkpt lat="46.229390095270006" lon="11.295327605578532"><ele>844.0</ele><time>2026-05-02T08:56:32Z</time></trkpt><trkpt lat="46.22937822201605" lon="11.29555260201204"><ele>851.0</ele><time>2026-05-02T08:56:33Z</time></trkpt><trkpt lat="46.22931219187509" lon="11.295750150937998"><ele>858.0</ele><time>2026-05-02T08:56:34Z</time></trkpt><trkpt lat="46.229230236033274" lon="11.295963373631949"><ele>865.0</ele><time>2026-05-02T08:56:35Z</time></trkpt><trkpt lat="46.22914172860456" lon="11.296187293677162"><ele>865.0</ele><time>2026-05-02T08:56:36Z</time></trkpt><trkpt lat="46.22904592409311" lon="11.296418033377522"><ele>865.0</ele><time>2026-05-02T08:56:37Z</time></trkpt><trkpt lat="46.228956954422905" lon="11.296642257028767"><ele>865.0</ele><time>2026-05-02T08:56:38Z</time></trkpt><trkpt lat="46.228849997086584" lon="11.296851689666145"><ele>867.6666666666666</ele><time>2026-05-02T08:56:39Z</time></trkpt><trkpt lat="46.22871300161854" lon="11.297032488203778"><ele>870.3333333333333</ele><time>2026-05-02T08:56:40Z</time></trkpt><trkpt lat="46.22857426216806" lon="11.297178302482738"><ele>873.0</ele><time>2026-05-02T08:56:41Z</time></trkpt><trkpt lat="46.2284675811335" lon="11.297317169687863"><ele>873.0</ele><time>2026-05-02T08:56:42Z</time></trkpt><trkpt lat="46.22837541181527" lon="11.29747994645772"><ele>873.0</ele><time>2026-05-02T08:56:43Z</time></trkpt><trkpt lat="46.22830414776664" lon="11.297675904760663"><ele>873.0</ele><time>2026-05-02T08:56:44Z</time></trkpt><trkpt lat="46.22825720819088" lon="11.297888543356203"><ele>878.3333333333333</ele><time>2026-05-02T08:56:45Z</time></trkpt><trkpt lat="46.22822500703644" lon="11.298094250554971"><ele>883.6666666666666</ele><time>2026-05-02T08:56:46Z</time></trkpt><trkpt lat="46.22816575696414" lon="11.298289310773887"><ele>889.0</ele><time>2026-05-02T08:56:47Z</time></trkpt><trkpt lat="46.22807045058083" lon="11.298490748414098"><ele>878.0</ele><time>2026-05-02T08:56:48Z</time></trkpt><trkpt lat="46.22796316750998" lon="11.298708346655701"><ele>867.0</ele><time>2026-05-02T08:56:49Z</time></trkpt><trkpt lat="46.22786357197169" lon="11.298950570071051"><ele>856.0</ele><time>2026-05-02T08:56:50Z</time></trkpt><trkpt lat="46.2277675865401" lon="11.299187522827225"><ele>856.0</ele><time>2026-05-02T08:56:51Z</time></trkpt><trkpt lat="46.227678948444385" lon="11.2994108785281"><ele>856.0</ele><time>2026-05-02T08:56:52Z</time></trkpt><trkpt lat="46.22760534878155" lon="11.299632754295148"><ele>856.0</ele><time>2026-05-02T08:56:53Z</time></trkpt><trkpt lat="46.22755783396653" lon="11.299870586716192"><ele>858.3333333333333</ele><time>2026-05-02T08:56:54Z</time></trkpt><trkpt lat="46.22753688870216" lon="11.300133182613719"><ele>860.6666666666667</ele><time>2026-05-02T08:56:55Z</time></trkpt><trkpt lat="46.22752112690057" lon="11.300413867316651"><ele>863.0</ele><time>2026-05-02T08:56:56Z</time></trkpt><trkpt lat="46.227520710013636" lon="11.300708975750439"><ele>863.3333333333334</ele><time>2026-05-02T08:56:56.999Z</time></trkpt><trkpt lat="46.22752524835949" lon="11.300997390279022"><ele>863.6666666666667</ele><time>2026-05-02T08:56:57.999Z</time></trkpt><trkpt lat="46.22752094932082" lon="11.301260078726317"><ele>864.0</ele><time>2026-05-02T08:56:58.999Z</time></trkpt><trkpt lat="46.22752690746896" lon="11.30148538334772"><ele>864.25</ele><time>2026-05-02T08:56:59.999Z</time></trkpt><trkpt lat="46.22755874022198" lon="11.301680217023764"><ele>864.5</ele><time>2026-05-02T08:57:00.999Z</time></trkpt><trkpt lat="46.22763328472156" lon="11.30185394528772"><ele>864.75</ele><time>2026-05-02T08:57:01.999Z</time></trkpt><trkpt lat="46.22773414090003" lon="11.301992852649294"><ele>865.0</ele><time>2026-05-02T08:57:02.999Z</time></trkpt><trkpt lat="46.227861742980764" lon="11.302082916307734"><ele>865.0</ele><time>2026-05-02T08:57:03.999Z</time></trkpt><trkpt lat="46.22801041749899" lon="11.302137850098708"><ele>865.0</ele><time>2026-05-02T08:57:04.998Z</time></trkpt><trkpt lat="46.22817406646038" lon="11.302153286176997"><ele>865.0</ele><time>2026-05-02T08:57:05.998Z</time></trkpt><trkpt lat="46.22834226300335" lon="11.302133011198451"><ele>871.6666666666666</ele><time>2026-05-02T08:57:06.998Z</time></trkpt><trkpt lat="46.22851132628495" lon="11.302063467119845"><ele>878.3333333333333</ele><time>2026-05-02T08:57:07.998Z</time></trkpt><trkpt lat="46.228665343848604" lon="11.30198509855875"><ele>885.0</ele><time>2026-05-02T08:57:08.998Z</time></trkpt><trkpt lat="46.228817869667644" lon="11.301943354265283"><ele>884.6666666666667</ele><time>2026-05-02T08:57:09.998Z</time></trkpt><trkpt lat="46.22898318595761" lon="11.301956027919841"><ele>884.3333333333334</ele><time>2026-05-02T08:57:10.998Z</time></trkpt><trkpt lat="46.22915458340577" lon="11.302013380960902"><ele>884.0</ele><time>2026-05-02T08:57:11.998Z</time></trkpt><trkpt lat="46.229327774663595" lon="11.302104376159248"><ele>884.0</ele><time>2026-05-02T08:57:12.998Z</time></trkpt><trkpt lat="46.229491873911186" lon="11.302195170086879"><ele>884.0</ele><time>2026-05-02T08:57:13.998Z</time></trkpt><trkpt lat="46.229648737220366" lon="11.302270531521334"><ele>884.0</ele><time>2026-05-02T08:57:14.998Z</time></trkpt><trkpt lat="46.22979565255388" lon="11.30236152187966"><ele>878.0</ele><time>2026-05-02T08:57:15.998Z</time></trkpt><trkpt lat="46.22994126005582" lon="11.302498081588737"><ele>872.0</ele><time>2026-05-02T08:57:16.998Z</time></trkpt><trkpt lat="46.230068282708515" lon="11.302670134754344"><ele>866.0</ele><time>2026-05-02T08:57:17.998Z</time></trkpt><trkpt lat="46.23017920702174" lon="11.302830970531193"><ele>866.0</ele><time>2026-05-02T08:57:18.998Z</time></trkpt><trkpt lat="46.230302328571916" lon="11.302946850619136"><ele>866.0</ele><time>2026-05-02T08:57:19.998Z</time></trkpt><trkpt lat="46.23044384590628" lon="11.30301373639986"><ele>866.0</ele><time>2026-05-02T08:57:20.998Z</time></trkpt><trkpt lat="46.230617649787014" lon="11.303042442424276"><ele>861.0</ele><time>2026-05-02T08:57:21.998Z</time></trkpt><trkpt lat="46.23081804881207" lon="11.303077742378264"><ele>856.0</ele><time>2026-05-02T08:57:22.998Z</time></trkpt><trkpt lat="46.231015309498204" lon="11.303134561520931"><ele>851.0</ele><time>2026-05-02T08:57:23.998Z</time></trkpt><trkpt lat="46.23120818061306" lon="11.303227611273053"><ele>851.0</ele><time>2026-05-02T08:57:24.998Z</time></trkpt><trkpt lat="46.23138522053398" lon="11.303364181939482"><ele>851.0</ele><time>2026-05-02T08:57:25.998Z</time></trkpt><trkpt lat="46.23154110902512" lon="11.303495538830404"><ele>851.0</ele><time>2026-05-02T08:57:26.998Z</time></trkpt><trkpt lat="46.23169548397606" lon="11.303591816991277"><ele>855.3333333333334</ele><time>2026-05-02T08:57:27.998Z</time></trkpt><trkpt lat="46.23186257291442" lon="11.303676840097557"><ele>859.6666666666667</ele><time>2026-05-02T08:57:28.998Z</time></trkpt><trkpt lat="46.23204837278379" lon="11.30372774429147"><ele>864.0</ele><time>2026-05-02T08:57:29.998Z</time></trkpt><trkpt lat="46.23223744479961" lon="11.303754461009405"><ele>869.0</ele><time>2026-05-02T08:57:30.998Z</time></trkpt><trkpt lat="46.23241329213238" lon="11.30379863604067"><ele>874.0</ele><time>2026-05-02T08:57:31.998Z</time></trkpt><trkpt lat="46.232561751212174" lon="11.30387178763039"><ele>879.0</ele><time>2026-05-02T08:57:32.999Z</time></trkpt><trkpt lat="46.23269175802974" lon="11.30400042293552"><ele>869.0</ele><time>2026-05-02T08:57:33.999Z</time></trkpt><trkpt lat="46.232790631173934" lon="11.304186143878457"><ele>859.0</ele><time>2026-05-02T08:57:34.999Z</time></trkpt><trkpt lat="46.232890185842756" lon="11.304419075232902"><ele>849.0</ele><time>2026-05-02T08:57:35.999Z</time></trkpt><trkpt lat="46.23300362629352" lon="11.304658831079237"><ele>851.0</ele><time>2026-05-02T08:57:36.999Z</time></trkpt><trkpt lat="46.23311302003647" lon="11.304909073146804"><ele>853.0</ele><time>2026-05-02T08:57:37.999Z</time></trkpt><trkpt lat="46.23322673914995" lon="11.305162915246349"><ele>855.0</ele><time>2026-05-02T08:57:38.999Z</time></trkpt><trkpt lat="46.2333326968642" lon="11.305404187751199"><ele>849.6666666666667</ele><time>2026-05-02T08:57:39.999Z</time></trkpt><trkpt lat="46.233431883923394" lon="11.305632571589154"><ele>844.3333333333334</ele><time>2026-05-02T08:57:40.999Z</time></trkpt><trkpt lat="46.23353028153608" lon="11.305829097880066"><ele>839.0</ele><time>2026-05-02T08:57:41.999Z</time></trkpt><trkpt lat="46.23363301386778" lon="11.305981331092674"><ele>839.0</ele><time>2026-05-02T08:57:42.999Z</time></trkpt><trkpt lat="46.23374847381938" lon="11.306107426714007"><ele>839.0</ele><time>2026-05-02T08:57:43.999Z</time></trkpt><trkpt lat="46.23387723347455" lon="11.306220975545028"><ele>839.0</ele><time>2026-05-02T08:57:44.999Z</time></trkpt><trkpt lat="46.23401691606483" lon="11.306302782026158"><ele>839.0</ele><time>2026-05-02T08:57:45.999Z</time></trkpt><trkpt lat="46.23416363006791" lon="11.306358047838424"><ele>847.6666666666667</ele><time>2026-05-02T08:57:46.999Z</time></trkpt><trkpt lat="46.23431457275186" lon="11.306385455835317"><ele>856.3333333333333</ele><time>2026-05-02T08:57:47.999Z</time></trkpt><trkpt lat="46.23446888392517" lon="11.306380564782717"><ele>865.0</ele><time>2026-05-02T08:57:48.999Z</time></trkpt><trkpt lat="46.234625657598656" lon="11.306338069799777"><ele>865.0</ele><time>2026-05-02T08:57:49.999Z</time></trkpt><trkpt lat="46.23478348772999" lon="11.306263147713649"><ele>865.0</ele><time>2026-05-02T08:57:50.999Z</time></trkpt><trkpt lat="46.23493434618906" lon="11.306174001378542"><ele>865.0</ele><time>2026-05-02T08:57:51.999Z</time></trkpt><trkpt lat="46.235082774987944" lon="11.306072915984124"><ele>868.25</ele><time>2026-05-02T08:57:52.999Z</time></trkpt><trkpt lat="46.235211878722026" lon="11.30594003996584"><ele>871.5</ele><time>2026-05-02T08:57:53.999Z</time></trkpt><trkpt lat="46.23531812336567" lon="11.305800847113865"><ele>874.75</ele><time>2026-05-02T08:57:54.999Z</time></trkpt><trkpt lat="46.235444355735986" lon="11.305709842433156"><ele>878.0</ele><time>2026-05-02T08:57:55.999Z</time></trkpt><trkpt lat="46.23557709075643" lon="11.305656911987352"><ele>877.5</ele><time>2026-05-02T08:57:56.999Z</time></trkpt><trkpt lat="46.23570354509818" lon="11.305606373784345"><ele>877.0</ele><time>2026-05-02T08:57:57.999Z</time></trkpt><trkpt lat="46.23581411434032" lon="11.305574179713036"><ele>876.5</ele><time>2026-05-02T08:57:58.999Z</time></trkpt><trkpt lat="46.23591058719194" lon="11.305642626486406"><ele>876.0</ele><time>2026-05-02T08:57:59.999Z</time></trkpt><trkpt lat="46.2359835168064" lon="11.305739673913036"><ele>876.0</ele><time>2026-05-02T08:58:00.999Z</time></trkpt><trkpt lat="46.236031785906356" lon="11.305868757842735"><ele>876.0</ele><time>2026-05-02T08:58:01.999Z</time></trkpt><trkpt lat="46.236039848256645" lon="11.30602476234082"><ele>876.0</ele><time>2026-05-02T08:58:02.999Z</time></trkpt><trkpt lat="46.2360093825175" lon="11.306178126497782"><ele>876.0</ele><time>2026-05-02T08:58:03.999Z</time></trkpt><trkpt lat="46.23598927603324" lon="11.30637332920543"><ele>868.0</ele><time>2026-05-02T08:58:04.999Z</time></trkpt><trkpt lat="46.23594914394682" lon="11.3066013876773"><ele>860.0</ele><time>2026-05-02T08:58:05.999Z</time></trkpt><trkpt lat="46.23591669255003" lon="11.306842374512351"><ele>852.0</ele><time>2026-05-02T08:58:06.999Z</time></trkpt><trkpt lat="46.235900737629834" lon="11.307086605698437"><ele>850.25</ele><time>2026-05-02T08:58:07.999Z</time></trkpt><trkpt lat="46.23588842921513" lon="11.307312018669359"><ele>848.5</ele><time>2026-05-02T08:58:08.999Z</time></trkpt><trkpt lat="46.235880721300155" lon="11.307504683086478"><ele>846.75</ele><time>2026-05-02T08:58:09.999Z</time></trkpt><trkpt lat="46.23587684851092" lon="11.30767988564382"><ele>845.0</ele><time>2026-05-02T08:58:10.999Z</time></trkpt><trkpt lat="46.23589293115225" lon="11.307826047871808"><ele>845.0</ele><time>2026-05-02T08:58:11.999Z</time></trkpt><trkpt lat="46.23594427993847" lon="11.307939898884177"><ele>845.0</ele><time>2026-05-02T08:58:12.999Z</time></trkpt><trkpt lat="46.236029517435696" lon="11.308030327676196"><ele>845.0</ele><time>2026-05-02T08:58:13.999Z</time></trkpt><trkpt lat="46.23614110163325" lon="11.308092472865308"><ele>845.0</ele><time>2026-05-02T08:58:14.999Z</time></trkpt><trkpt lat="46.23626570610957" lon="11.308133910529442"><ele>845.0</ele><time>2026-05-02T08:58:15.999Z</time></trkpt><trkpt lat="46.23637663732156" lon="11.308199815484421"><ele>842.5</ele><time>2026-05-02T08:58:16.999Z</time></trkpt><trkpt lat="46.23645889085283" lon="11.308319307552223"><ele>840.0</ele><time>2026-05-02T08:58:17.999Z</time></trkpt><trkpt lat="46.2364958935102" lon="11.308471838477304"><ele>837.5</ele><time>2026-05-02T08:58:18.999Z</time></trkpt><trkpt lat="46.2364787187806" lon="11.30862439922225"><ele>835.0</ele><time>2026-05-02T08:58:19.999Z</time></trkpt><trkpt lat="46.23644174849267" lon="11.308798035343633"><ele>832.0</ele><time>2026-05-02T08:58:20.999Z</time></trkpt><trkpt lat="46.23640203239263" lon="11.309013199074982"><ele>829.0</ele><time>2026-05-02T08:58:21.999Z</time></trkpt><trkpt lat="46.23636716728696" lon="11.309215234950923"><ele>826.0</ele><time>2026-05-02T08:58:22.999Z</time></trkpt><trkpt lat="46.23636413160509" lon="11.30940674947305"><ele>823.0</ele><time>2026-05-02T08:58:23.999Z</time></trkpt><trkpt lat="46.236388464964364" lon="11.309610981148365"><ele>820.6666666666666</ele><time>2026-05-02T08:58:24.999Z</time></trkpt><trkpt lat="46.23645787531507" lon="11.309829732424044"><ele>818.3333333333333</ele><time>2026-05-02T08:58:25.999Z</time></trkpt><trkpt lat="46.236566737495714" lon="11.310094613214156"><ele>816.0</ele><time>2026-05-02T08:58:26.999Z</time></trkpt><trkpt lat="46.23667850655271" lon="11.310373636863702"><ele>826.3333333333333</ele><time>2026-05-02T08:58:27.999Z</time></trkpt><trkpt lat="46.23679331533974" lon="11.310658652570089"><ele>836.6666666666666</ele><time>2026-05-02T08:58:28.999Z</time></trkpt><trkpt lat="46.236903094854874" lon="11.310913512891707"><ele>847.0</ele><time>2026-05-02T08:58:29.999Z</time></trkpt><trkpt lat="46.237010312933805" lon="11.311152996687078"><ele>847.0</ele><time>2026-05-02T08:58:30.999Z</time></trkpt><trkpt lat="46.237122075993234" lon="11.311381865146782"><ele>847.0</ele><time>2026-05-02T08:58:31.999Z</time></trkpt><trkpt lat="46.23725665546498" lon="11.311598346870094"><ele>847.0</ele><time>2026-05-02T08:58:32.999Z</time></trkpt><trkpt lat="46.237403467070564" lon="11.311800466889247"><ele>843.0</ele><time>2026-05-02T08:58:33.999Z</time></trkpt><trkpt lat="46.23755491756072" lon="11.311991515139795"><ele>839.0</ele><time>2026-05-02T08:58:34.999Z</time></trkpt><trkpt lat="46.23771106073198" lon="11.312174545751931"><ele>835.0</ele><time>2026-05-02T08:58:35.999Z</time></trkpt><trkpt lat="46.23786492453561" lon="11.312350249557477"><ele>835.0</ele><time>2026-05-02T08:58:36.999Z</time></trkpt><trkpt lat="46.2380237551292" lon="11.312509573015461"><ele>835.0</ele><time>2026-05-02T08:58:37.999Z</time></trkpt><trkpt lat="46.23819627728263" lon="11.312618504902446"><ele>835.0</ele><time>2026-05-02T08:58:38.999Z</time></trkpt><trkpt lat="46.23837181547221" lon="11.312679252051733"><ele>846.0</ele><time>2026-05-02T08:58:39.999Z</time></trkpt><trkpt lat="46.238526053496074" lon="11.31275643514787"><ele>857.0</ele><time>2026-05-02T08:58:40.999Z</time></trkpt><trkpt lat="46.23866717770462" lon="11.312857038141324"><ele>868.0</ele><time>2026-05-02T08:58:41.999Z</time></trkpt><trkpt lat="46.23879716008559" lon="11.312980906832683"><ele>859.0</ele><time>2026-05-02T08:58:42.999Z</time></trkpt><trkpt lat="46.23892836631125" lon="11.313073285254498"><ele>850.0</ele><time>2026-05-02T08:58:43.999Z</time></trkpt><trkpt lat="46.2390793603116" lon="11.313140238784436"><ele>841.0</ele><time>2026-05-02T08:58:44.999Z</time></trkpt><trkpt lat="46.23925416383375" lon="11.313169702388665"><ele>841.0</ele><time>2026-05-02T08:58:45.999Z</time></trkpt><trkpt lat="46.23943614846712" lon="11.313176369287037"><ele>841.0</ele><time>2026-05-02T08:58:46.999Z</time></trkpt><trkpt lat="46.23963923041914" lon="11.313178912830182"><ele>841.0</ele><time>2026-05-02T08:58:47.999Z</time></trkpt><trkpt lat="46.23980725813097" lon="11.313191341341694"><ele>848.3333333333333</ele><time>2026-05-02T08:58:48.999Z</time></trkpt><trkpt lat="46.239956247322084" lon="11.3132389192007"><ele>855.6666666666667</ele><time>2026-05-02T08:58:49.999Z</time></trkpt><trkpt lat="46.2400992853211" lon="11.31332792061415"><ele>863.0</ele><time>2026-05-02T08:58:50.999Z</time></trkpt><trkpt lat="46.240231796592504" lon="11.31340312003777"><ele>863.0</ele><time>2026-05-02T08:58:51.999Z</time></trkpt><trkpt lat="46.24036942481888" lon="11.313446420144098"><ele>863.0</ele><time>2026-05-02T08:58:52.999Z</time></trkpt><trkpt lat="46.24051781467703" lon="11.313446647094498"><ele>863.0</ele><time>2026-05-02T08:58:53.999Z</time></trkpt><trkpt lat="46.24068102846398" lon="11.313406100491108"><ele>866.6666666666667</ele><time>2026-05-02T08:58:54.999Z</time></trkpt><trkpt lat="46.24085897883555" lon="11.313331297286437"><ele>870.3333333333333</ele><time>2026-05-02T08:58:55.999Z</time></trkpt><trkpt lat="46.24103950136724" lon="11.313251957514193"><ele>874.0</ele><time>2026-05-02T08:58:56.999Z</time></trkpt><trkpt lat="46.24121515966373" lon="11.313184837330782"><ele>874.0</ele><time>2026-05-02T08:58:57.999Z</time></trkpt><trkpt lat="46.24138003544844" lon="11.313115180008413"><ele>874.0</ele><time>2026-05-02T08:58:58.999Z</time></trkpt><trkpt lat="46.24153578249968" lon="11.31305456063245"><ele>874.0</ele><time>2026-05-02T08:58:59.999Z</time></trkpt><trkpt lat="46.24168877041019" lon="11.313001499817291"><ele>871.3333333333333</ele><time>2026-05-02T08:59:00.999Z</time></trkpt><trkpt lat="46.24184703791274" lon="11.312981143839647"><ele>868.6666666666667</ele><time>2026-05-02T08:59:01.999Z</time></trkpt><trkpt lat="46.24200848216113" lon="11.31300984212304"><ele>866.0</ele><time>2026-05-02T08:59:02.999Z</time></trkpt><trkpt lat="46.24217656621719" lon="11.313088136289576"><ele>866.6666666666667</ele><time>2026-05-02T08:59:03.999Z</time></trkpt><trkpt lat="46.24234776131537" lon="11.313122978852647"><ele>867.3333333333333</ele><time>2026-05-02T08:59:04.999Z</time></trkpt><trkpt lat="46.24255254557498" lon="11.313113540134566"><ele>868.0</ele><time>2026-05-02T08:59:05.999Z</time></trkpt><trkpt lat="46.24274269246373" lon="11.313100772805775"><ele>868.0</ele><time>2026-05-02T08:59:06.999Z</time></trkpt><trkpt lat="46.242897311275094" lon="11.31309902285044"><ele>868.0</ele><time>2026-05-02T08:59:07.999Z</time></trkpt><trkpt lat="46.24301415000044" lon="11.313093132492769"><ele>868.0</ele><time>2026-05-02T08:59:08.999Z</time></trkpt><trkpt lat="46.243103398639754" lon="11.313085699068537"><ele>868.0</ele><time>2026-05-02T08:59:09.999Z</time></trkpt><trkpt lat="46.24317627324983" lon="11.313082308958144"><ele>868.0</ele><time>2026-05-02T08:59:10.999Z</time></trkpt><trkpt lat="46.243284148730545" lon="11.31308883138131"><ele>869.6666666666666</ele><time>2026-05-02T08:59:12.999Z</time></trkpt><trkpt lat="46.24335850335202" lon="11.313109948051139"><ele>871.3333333333333</ele><time>2026-05-02T08:59:14.999Z</time></trkpt><trkpt lat="46.24343995068727" lon="11.313149251034767"><ele>873.0</ele><time>2026-05-02T08:59:27.998Z</time></trkpt><trkpt lat="46.24351428508633" lon="11.313133109428282"><ele>874.6666666666667</ele><time>2026-05-02T09:03:37.999Z</time></trkpt><trkpt lat="46.24361641739447" lon="11.313173723097222"><ele>876.3333333333334</ele><time>2026-05-02T09:03:39.999Z</time></trkpt><trkpt lat="46.243688745454946" lon="11.313214344781308"><ele>878.0</ele><time>2026-05-02T09:03:40.999Z</time></trkpt><trkpt lat="46.2437837860176" lon="11.313265780168532"><ele>878.0</ele><time>2026-05-02T09:03:41.999Z</time></trkpt><trkpt lat="46.24388178694316" lon="11.313327604230134"><ele>878.0</ele><time>2026-05-02T09:03:42.999Z</time></trkpt><trkpt lat="46.243982285127096" lon="11.31340124109002"><ele>878.0</ele><time>2026-05-02T09:03:43.999Z</time></trkpt><trkpt lat="46.24407978355778" lon="11.313492750747805"><ele>878.0</ele><time>2026-05-02T09:03:44.999Z</time></trkpt><trkpt lat="46.24417924532165" lon="11.313594984067137"><ele>876.25</ele><time>2026-05-02T09:03:45.999Z</time></trkpt><trkpt lat="46.24426766631535" lon="11.313715960341103"><ele>874.5</ele><time>2026-05-02T09:03:46.999Z</time></trkpt><trkpt lat="46.244345865923336" lon="11.313858079591116"><ele>872.75</ele><time>2026-05-02T09:03:47.999Z</time></trkpt><trkpt lat="46.24439030086632" lon="11.314024951616902"><ele>871.0</ele><time>2026-05-02T09:03:48.999Z</time></trkpt><trkpt lat="46.24441194383754" lon="11.31420736842498"><ele>871.0</ele><time>2026-05-02T09:03:49.998Z</time></trkpt><trkpt lat="46.2444333359553" lon="11.314389521512958"><ele>871.0</ele><time>2026-05-02T09:03:51Z</time></trkpt><trkpt lat="46.24447676430965" lon="11.314546582631925"><ele>871.0</ele><time>2026-05-02T09:03:52Z</time></trkpt><trkpt lat="46.24454587822028" lon="11.314687619611398"><ele>871.0</ele><time>2026-05-02T09:03:53Z</time></trkpt><trkpt lat="46.24463603629329" lon="11.314801796198372"><ele>867.75</ele><time>2026-05-02T09:03:54Z</time></trkpt><trkpt lat="46.24474208458002" lon="11.31489293044327"><ele>864.5</ele><time>2026-05-02T09:03:55Z</time></trkpt><trkpt lat="46.24485723169674" lon="11.314972824478517"><ele>861.25</ele><time>2026-05-02T09:03:56Z</time></trkpt><trkpt lat="46.24498217797611" lon="11.315060534269618"><ele>858.0</ele><time>2026-05-02T09:03:57Z</time></trkpt><trkpt lat="46.245117529704" lon="11.315193134785087"><ele>861.0</ele><time>2026-05-02T09:03:58Z</time></trkpt><trkpt lat="46.2452549845998" lon="11.315382945531717"><ele>864.0</ele><time>2026-05-02T09:03:59Z</time></trkpt><trkpt lat="46.245411370363705" lon="11.315542451570783"><ele>867.0</ele><time>2026-05-02T09:04:00Z</time></trkpt><trkpt lat="46.24557456871535" lon="11.315736886294133"><ele>877.3333333333333</ele><time>2026-05-02T09:04:01Z</time></trkpt><trkpt lat="46.2457355732828" lon="11.315939377187792"><ele>887.6666666666666</ele><time>2026-05-02T09:04:02Z</time></trkpt><trkpt lat="46.245891290202735" lon="11.316117776166845"><ele>898.0</ele><time>2026-05-02T09:04:03Z</time></trkpt><trkpt lat="46.24603741760375" lon="11.31629211595272"><ele>893.6666666666666</ele><time>2026-05-02T09:04:04Z</time></trkpt><trkpt lat="46.24620177772055" lon="11.316414135768362"><ele>889.3333333333333</ele><time>2026-05-02T09:04:05Z</time></trkpt><trkpt lat="46.246375885729506" lon="11.316476849869279"><ele>885.0</ele><time>2026-05-02T09:04:06Z</time></trkpt><trkpt lat="46.2465599342825" lon="11.316541016052016"><ele>885.0</ele><time>2026-05-02T09:04:07Z</time></trkpt><trkpt lat="46.2467535341454" lon="11.316588684055226"><ele>885.0</ele><time>2026-05-02T09:04:08Z</time></trkpt><trkpt lat="46.24693535776177" lon="11.316629149998722"><ele>885.0</ele><time>2026-05-02T09:04:09Z</time></trkpt><trkpt lat="46.2470698999929" lon="11.316684342126946"><ele>885.0</ele><time>2026-05-02T09:04:10Z</time></trkpt><trkpt lat="46.24717097403383" lon="11.316775709580282"><ele>885.0</ele><time>2026-05-02T09:04:11Z</time></trkpt><trkpt lat="46.24726902772774" lon="11.316917663739948"><ele>885.0</ele><time>2026-05-02T09:04:12Z</time></trkpt><trkpt lat="46.247340462500546" lon="11.317081811746078"><ele>885.0</ele><time>2026-05-02T09:04:13Z</time></trkpt><trkpt lat="46.2474272416383" lon="11.317254681506771"><ele>883.6666666666667</ele><time>2026-05-02T09:04:14Z</time></trkpt><trkpt lat="46.247541606689424" lon="11.317443040704013"><ele>882.3333333333334</ele><time>2026-05-02T09:04:15Z</time></trkpt><trkpt lat="46.24766348894577" lon="11.317630574686092"><ele>881.0</ele><time>2026-05-02T09:04:16Z</time></trkpt><trkpt lat="46.24778766652284" lon="11.317771111549824"><ele>881.0</ele><time>2026-05-02T09:04:17Z</time></trkpt><trkpt lat="46.24785374636473" lon="11.317959123358886"><ele>881.0</ele><time>2026-05-02T09:04:18Z</time></trkpt><trkpt lat="46.247892373226996" lon="11.318147093743956"><ele>881.0</ele><time>2026-05-02T09:04:19Z</time></trkpt><trkpt lat="46.247895798348" lon="11.318336790442215"><ele>881.0</ele><time>2026-05-02T09:04:20Z</time></trkpt><trkpt lat="46.24788725902814" lon="11.318544739765027"><ele>873.0</ele><time>2026-05-02T09:04:21Z</time></trkpt><trkpt lat="46.247892045213526" lon="11.318757374436997"><ele>865.0</ele><time>2026-05-02T09:04:22Z</time></trkpt><trkpt lat="46.247933056071574" lon="11.318976239673857"><ele>857.0</ele><time>2026-05-02T09:04:23Z</time></trkpt><trkpt lat="46.24799591678258" lon="11.319194181338872"><ele>855.0</ele><time>2026-05-02T09:04:24Z</time></trkpt><trkpt lat="46.24807554771808" lon="11.319445121908295"><ele>853.0</ele><time>2026-05-02T09:04:25Z</time></trkpt><trkpt lat="46.24815994316348" lon="11.319711953541718"><ele>851.0</ele><time>2026-05-02T09:04:26Z</time></trkpt><trkpt lat="46.24825170268584" lon="11.32000561145514"><ele>862.0</ele><time>2026-05-02T09:04:27Z</time></trkpt><trkpt lat="46.24834697341508" lon="11.32030920219629"><ele>873.0</ele><time>2026-05-02T09:04:28Z</time></trkpt><trkpt lat="46.248439674952564" lon="11.320605966938775"><ele>873.0</ele><time>2026-05-02T09:04:29Z</time></trkpt><trkpt lat="46.248520932820995" lon="11.320884580883224"><ele>873.0</ele><time>2026-05-02T09:04:30Z</time></trkpt><trkpt lat="46.24856061772174" lon="11.321162677097854"><ele>873.0</ele><time>2026-05-02T09:04:31Z</time></trkpt><trkpt lat="46.248581017705895" lon="11.321429675272148"><ele>870.0</ele><time>2026-05-02T09:04:31.999Z</time></trkpt><trkpt lat="46.24862048096352" lon="11.321665471397496"><ele>867.0</ele><time>2026-05-02T09:04:32.999Z</time></trkpt><trkpt lat="46.24869187779626" lon="11.321871509548828"><ele>864.0</ele><time>2026-05-02T09:04:33.999Z</time></trkpt><trkpt lat="46.24876209099393" lon="11.322050800107167"><ele>864.0</ele><time>2026-05-02T09:04:34.999Z</time></trkpt><trkpt lat="46.248836864669464" lon="11.322224606590666"><ele>864.0</ele><time>2026-05-02T09:04:35.999Z</time></trkpt><trkpt lat="46.24893255264469" lon="11.322369270202428"><ele>864.0</ele><time>2026-05-02T09:04:36.999Z</time></trkpt><trkpt lat="46.24906364482159" lon="11.322426720941548"><ele>864.0</ele><time>2026-05-02T09:04:37.999Z</time></trkpt><trkpt lat="46.249185660314815" lon="11.322446697044455"><ele>867.0</ele><time>2026-05-02T09:04:38.999Z</time></trkpt><trkpt lat="46.24931646691297" lon="11.322430818745985"><ele>870.0</ele><time>2026-05-02T09:04:39.999Z</time></trkpt><trkpt lat="46.249467305724025" lon="11.322398366596165"><ele>873.0</ele><time>2026-05-02T09:04:40.999Z</time></trkpt><trkpt lat="46.24963456097959" lon="11.322427255373999"><ele>882.0</ele><time>2026-05-02T09:04:41.999Z</time></trkpt><trkpt lat="46.24981352133479" lon="11.322501317269207"><ele>891.0</ele><time>2026-05-02T09:04:42.999Z</time></trkpt><trkpt lat="46.250007069623365" lon="11.322593538284666"><ele>900.0</ele><time>2026-05-02T09:04:43.999Z</time></trkpt><trkpt lat="46.25018916353964" lon="11.322747927085723"><ele>900.0</ele><time>2026-05-02T09:04:44.999Z</time></trkpt><trkpt lat="46.25036595670596" lon="11.322919764415616"><ele>900.0</ele><time>2026-05-02T09:04:45.999Z</time></trkpt><trkpt lat="46.25051477156804" lon="11.323116994904293"><ele>900.0</ele><time>2026-05-02T09:04:46.999Z</time></trkpt><trkpt lat="46.25064239486143" lon="11.323322349092754"><ele>897.6666666666667</ele><time>2026-05-02T09:04:47.999Z</time></trkpt><trkpt lat="46.250771839759196" lon="11.323494662120028"><ele>895.3333333333334</ele><time>2026-05-02T09:04:48.999Z</time></trkpt><trkpt lat="46.25093481128556" lon="11.323604842432156"><ele>893.0</ele><time>2026-05-02T09:04:49.999Z</time></trkpt><trkpt lat="46.251102615141775" lon="11.32366187828178"><ele>893.0</ele><time>2026-05-02T09:04:50.999Z</time></trkpt><trkpt lat="46.251275423151235" lon="11.323703460779111"><ele>893.0</ele><time>2026-05-02T09:04:51.999Z</time></trkpt><trkpt lat="46.251454159954484" lon="11.323765925571715"><ele>893.0</ele><time>2026-05-02T09:04:52.999Z</time></trkpt><trkpt lat="46.25162559965421" lon="11.323878346228547"><ele>884.3333333333334</ele><time>2026-05-02T09:04:53.999Z</time></trkpt><trkpt lat="46.25181686830885" lon="11.323955843169303"><ele>875.6666666666667</ele><time>2026-05-02T09:04:54.999Z</time></trkpt><trkpt lat="46.25201170975868" lon="11.324059459617175"><ele>867.0</ele><time>2026-05-02T09:04:55.999Z</time></trkpt><trkpt lat="46.25220708142021" lon="11.32415831231664"><ele>871.3333333333333</ele><time>2026-05-02T09:04:56.999Z</time></trkpt><trkpt lat="46.2524079560616" lon="11.32422762571411"><ele>875.6666666666666</ele><time>2026-05-02T09:04:57.999Z</time></trkpt><trkpt lat="46.25261301272116" lon="11.32426734762496"><ele>880.0</ele><time>2026-05-02T09:04:58.999Z</time></trkpt><trkpt lat="46.25280727464973" lon="11.324270799093947"><ele>880.0</ele><time>2026-05-02T09:04:59.999Z</time></trkpt><trkpt lat="46.25298105361842" lon="11.324283464125333"><ele>880.0</ele><time>2026-05-02T09:05:00.999Z</time></trkpt><trkpt lat="46.253114597582034" lon="11.324358608010142"><ele>880.0</ele><time>2026-05-02T09:05:01.999Z</time></trkpt><trkpt lat="46.25323084218032" lon="11.324463587864596"><ele>878.5</ele><time>2026-05-02T09:05:02.999Z</time></trkpt><trkpt lat="46.25333841885131" lon="11.324578235907895"><ele>877.0</ele><time>2026-05-02T09:05:03.999Z</time></trkpt><trkpt lat="46.25341806927427" lon="11.324745432965091"><ele>875.5</ele><time>2026-05-02T09:05:04.999Z</time></trkpt><trkpt lat="46.25345747726351" lon="11.324953412741861"><ele>874.0</ele><time>2026-05-02T09:05:05.999Z</time></trkpt><trkpt lat="46.25346805905304" lon="11.325159105578868"><ele>874.0</ele><time>2026-05-02T09:05:06.999Z</time></trkpt><trkpt lat="46.25347135276903" lon="11.325368327284808"><ele>874.0</ele><time>2026-05-02T09:05:07.999Z</time></trkpt><trkpt lat="46.25347286206649" lon="11.325565701626118"><ele>874.0</ele><time>2026-05-02T09:05:08.999Z</time></trkpt><trkpt lat="46.25350453085337" lon="11.325743376455929"><ele>874.0</ele><time>2026-05-02T09:05:09.999Z</time></trkpt><trkpt lat="46.253564318751735" lon="11.325862038971481"><ele>873.0</ele><time>2026-05-02T09:05:10.999Z</time></trkpt><trkpt lat="46.25365555385447" lon="11.325930698959793"><ele>872.0</ele><time>2026-05-02T09:05:11.999Z</time></trkpt><trkpt lat="46.25376154454598" lon="11.325948228534068"><ele>871.0</ele><time>2026-05-02T09:05:12.999Z</time></trkpt><trkpt lat="46.253883653085815" lon="11.325928366327615"><ele>870.0</ele><time>2026-05-02T09:05:13.999Z</time></trkpt><trkpt lat="46.25403090129444" lon="11.325863309150417"><ele>870.0</ele><time>2026-05-02T09:05:14.999Z</time></trkpt><trkpt lat="46.254178252326604" lon="11.325780690441976"><ele>870.0</ele><time>2026-05-02T09:05:15.999Z</time></trkpt><trkpt lat="46.25432353201172" lon="11.325709700680148"><ele>870.0</ele><time>2026-05-02T09:05:16.999Z</time></trkpt><trkpt lat="46.25446573403044" lon="11.32560536173951"><ele>874.0</ele><time>2026-05-02T09:05:17.999Z</time></trkpt><trkpt lat="46.25459856955737" lon="11.325460364866764"><ele>878.0</ele><time>2026-05-02T09:05:18.999Z</time></trkpt><trkpt lat="46.254725164735916" lon="11.325249776297484"><ele>882.0</ele><time>2026-05-02T09:05:19.999Z</time></trkpt><trkpt lat="46.25485583595004" lon="11.32502235624747"><ele>882.0</ele><time>2026-05-02T09:05:20.999Z</time></trkpt><trkpt lat="46.25501041836464" lon="11.324835052348655"><ele>882.0</ele><time>2026-05-02T09:05:21.999Z</time></trkpt><trkpt lat="46.255151249276174" lon="11.324656300604238"><ele>882.0</ele><time>2026-05-02T09:05:22.999Z</time></trkpt><trkpt lat="46.25528051280899" lon="11.324495414673033"><ele>885.0</ele><time>2026-05-02T09:05:23.999Z</time></trkpt><trkpt lat="46.2553938432669" lon="11.324351352265635"><ele>888.0</ele><time>2026-05-02T09:05:24.999Z</time></trkpt><trkpt lat="46.25549477855144" lon="11.324227855104283"><ele>891.0</ele><time>2026-05-02T09:05:25.999Z</time></trkpt><trkpt lat="46.2555864666365" lon="11.324148348169771"><ele>894.0</ele><time>2026-05-02T09:05:26.999Z</time></trkpt><trkpt lat="46.255699100583364" lon="11.324100731963078"><ele>894.0</ele><time>2026-05-02T09:05:27.999Z</time></trkpt><trkpt lat="46.255849995661976" lon="11.324100351878782"><ele>894.0</ele><time>2026-05-02T09:05:28.999Z</time></trkpt><trkpt lat="46.25597469508948" lon="11.32416640188182"><ele>894.0</ele><time>2026-05-02T09:05:29.999Z</time></trkpt><trkpt lat="46.25607629526703" lon="11.324285939573587"><ele>894.0</ele><time>2026-05-02T09:05:30.999Z</time></trkpt><trkpt lat="46.25615086560133" lon="11.324463442833558"><ele>894.0</ele><time>2026-05-02T09:05:31.999Z</time></trkpt><trkpt lat="46.25620126699615" lon="11.32466889449359"><ele>894.0</ele><time>2026-05-02T09:05:32.999Z</time></trkpt><trkpt lat="46.25621023011883" lon="11.324897122612361"><ele>894.0</ele><time>2026-05-02T09:05:33.999Z</time></trkpt><trkpt lat="46.256202551037944" lon="11.3251504103268"><ele>887.0</ele><time>2026-05-02T09:05:34.999Z</time></trkpt><trkpt lat="46.25619348301034" lon="11.325421982215971"><ele>880.0</ele><time>2026-05-02T09:05:35.999Z</time></trkpt><trkpt lat="46.25619153534601" lon="11.325698830493673"><ele>873.0</ele><time>2026-05-02T09:05:36.999Z</time></trkpt><trkpt lat="46.25619243767322" lon="11.325994671646944"><ele>869.3333333333333</ele><time>2026-05-02T09:05:37.999Z</time></trkpt><trkpt lat="46.25618464684745" lon="11.326262805669419"><ele>865.6666666666666</ele><time>2026-05-02T09:05:38.999Z</time></trkpt><trkpt lat="46.25615055585577" lon="11.32653025154416"><ele>862.0</ele><time>2026-05-02T09:05:39.999Z</time></trkpt><trkpt lat="46.256070582193885" lon="11.326830496825458"><ele>860.0</ele><time>2026-05-02T09:05:40.999Z</time></trkpt><trkpt lat="46.255984145982175" lon="11.327149080432992"><ele>858.0</ele><time>2026-05-02T09:05:41.999Z</time></trkpt><trkpt lat="46.2559103498917" lon="11.327435843131246"><ele>856.0</ele><time>2026-05-02T09:05:42.999Z</time></trkpt><trkpt lat="46.25583849101192" lon="11.327700821034853"><ele>860.3333333333333</ele><time>2026-05-02T09:05:43.999Z</time></trkpt><trkpt lat="46.25576743525365" lon="11.327957796925984"><ele>864.6666666666667</ele><time>2026-05-02T09:05:44.999Z</time></trkpt><trkpt lat="46.255702100740294" lon="11.328200404121834"><ele>869.0</ele><time>2026-05-02T09:05:45.999Z</time></trkpt><trkpt lat="46.25562926097601" lon="11.32842106734922"><ele>873.25</ele><time>2026-05-02T09:05:46.999Z</time></trkpt><trkpt lat="46.25557900118955" lon="11.32860362276733"><ele>877.5</ele><time>2026-05-02T09:05:47.999Z</time></trkpt><trkpt lat="46.25556463548695" lon="11.328775997584719"><ele>881.75</ele><time>2026-05-02T09:05:48.999Z</time></trkpt><trkpt lat="46.2555887494035" lon="11.328947475750603"><ele>886.0</ele><time>2026-05-02T09:05:49.999Z</time></trkpt><trkpt lat="46.25564902895727" lon="11.329106234516816"><ele>886.0</ele><time>2026-05-02T09:05:50.999Z</time></trkpt><trkpt lat="46.25574027968128" lon="11.329235272790223"><ele>886.0</ele><time>2026-05-02T09:05:51.999Z</time></trkpt><trkpt lat="46.25586949430839" lon="11.329346769065298"><ele>886.0</ele><time>2026-05-02T09:05:52.999Z</time></trkpt><trkpt lat="46.25599874789862" lon="11.329464938646472"><ele>886.0</ele><time>2026-05-02T09:05:53.999Z</time></trkpt><trkpt lat="46.256143923956444" lon="11.32958770667498"><ele>886.0</ele><time>2026-05-02T09:05:54.999Z</time></trkpt><trkpt lat="46.25630654542969" lon="11.329699556581712"><ele>886.0</ele><time>2026-05-02T09:05:55.999Z</time></trkpt><trkpt lat="46.25648797595433" lon="11.329771388286867"><ele>886.0</ele><time>2026-05-02T09:05:57Z</time></trkpt><trkpt lat="46.25668426075933" lon="11.32981135310165"><ele>882.3333333333333</ele><time>2026-05-02T09:05:58Z</time></trkpt><trkpt lat="46.25689095466766" lon="11.32980933050717"><ele>878.6666666666667</ele><time>2026-05-02T09:05:59Z</time></trkpt><trkpt lat="46.257106744517024" lon="11.329776048628377"><ele>875.0</ele><time>2026-05-02T09:06:00Z</time></trkpt><trkpt lat="46.25730724441964" lon="11.329756920109846"><ele>875.0</ele><time>2026-05-02T09:06:01Z</time></trkpt><trkpt lat="46.25749643770712" lon="11.32975111214798"><ele>875.0</ele><time>2026-05-02T09:06:02Z</time></trkpt><trkpt lat="46.25765403271637" lon="11.329722556918831"><ele>875.0</ele><time>2026-05-02T09:06:03Z</time></trkpt><trkpt lat="46.25777335693131" lon="11.329679543947549"><ele>875.0</ele><time>2026-05-02T09:06:04Z</time></trkpt><trkpt lat="46.25787169390014" lon="11.329649189853326"><ele>875.0</ele><time>2026-05-02T09:06:05Z</time></trkpt><trkpt lat="46.2579793664265" lon="11.329678748521856"><ele>875.0</ele><time>2026-05-02T09:06:06Z</time></trkpt><trkpt lat="46.25807191678483" lon="11.329760649267136"><ele>875.0</ele><time>2026-05-02T09:06:07Z</time></trkpt><trkpt lat="46.25814067574668" lon="11.329876241498958"><ele>875.0</ele><time>2026-05-02T09:06:08Z</time></trkpt><trkpt lat="46.25816979898961" lon="11.330023861497931"><ele>875.0</ele><time>2026-05-02T09:06:09Z</time></trkpt><trkpt lat="46.258159789666266" lon="11.3301771542935"><ele>875.0</ele><time>2026-05-02T09:06:10Z</time></trkpt><trkpt lat="46.25810699492694" lon="11.330335370872387"><ele>875.0</ele><time>2026-05-02T09:06:11Z</time></trkpt><trkpt lat="46.25800810273228" lon="11.33049581735881"><ele>875.0</ele><time>2026-05-02T09:06:12Z</time></trkpt><trkpt lat="46.257888422637436" lon="11.330661431477473"><ele>874.0</ele><time>2026-05-02T09:06:13Z</time></trkpt><trkpt lat="46.25775372525983" lon="11.330836263045951"><ele>873.0</ele><time>2026-05-02T09:06:14Z</time></trkpt><trkpt lat="46.25761788705081" lon="11.331019674824258"><ele>872.0</ele><time>2026-05-02T09:06:15Z</time></trkpt><trkpt lat="46.25748738991042" lon="11.331205458642058"><ele>872.0</ele><time>2026-05-02T09:06:16Z</time></trkpt><trkpt lat="46.25735891023888" lon="11.33138828614036"><ele>872.0</ele><time>2026-05-02T09:06:17Z</time></trkpt><trkpt lat="46.25723539159925" lon="11.331563581753413"><ele>872.0</ele><time>2026-05-02T09:06:18Z</time></trkpt><trkpt lat="46.25711788103635" lon="11.33172016228412"><ele>874.0</ele><time>2026-05-02T09:06:19Z</time></trkpt><trkpt lat="46.25701233811362" lon="11.331876244162988"><ele>876.0</ele><time>2026-05-02T09:06:20Z</time></trkpt><trkpt lat="46.25693345577542" lon="11.332054902860737"><ele>878.0</ele><time>2026-05-02T09:06:20.999Z</time></trkpt><trkpt lat="46.25688505043617" lon="11.332262346491008"><ele>880.0</ele><time>2026-05-02T09:06:21.999Z</time></trkpt><trkpt lat="46.25686779502001" lon="11.332491669114159"><ele>880.0</ele><time>2026-05-02T09:06:22.999Z</time></trkpt><trkpt lat="46.256882410331656" lon="11.332727229792736"><ele>880.0</ele><time>2026-05-02T09:06:23.999Z</time></trkpt><trkpt lat="46.25693327726698" lon="11.332954165241269"><ele>880.0</ele><time>2026-05-02T09:06:24.999Z</time></trkpt><trkpt lat="46.25701618512337" lon="11.333151253379599"><ele>881.6666666666666</ele><time>2026-05-02T09:06:25.999Z</time></trkpt><trkpt lat="46.25712790938351" lon="11.33331734171706"><ele>883.3333333333333</ele><time>2026-05-02T09:06:26.999Z</time></trkpt><trkpt lat="46.257267228206075" lon="11.333459939666248"><ele>885.0</ele><time>2026-05-02T09:06:27.999Z</time></trkpt><trkpt lat="46.257419506998644" lon="11.333601632983736"><ele>883.3333333333333</ele><time>2026-05-02T09:06:28.999Z</time></trkpt><trkpt lat="46.25757232144438" lon="11.333765434382673"><ele>881.6666666666666</ele><time>2026-05-02T09:06:29.999Z</time></trkpt><trkpt lat="46.257733633264706" lon="11.333942693809432"><ele>880.0</ele><time>2026-05-02T09:06:30.999Z</time></trkpt><trkpt lat="46.25789506914411" lon="11.334137876374971"><ele>880.0</ele><time>2026-05-02T09:06:31.999Z</time></trkpt><trkpt lat="46.258054755002114" lon="11.334360383385636"><ele>880.0</ele><time>2026-05-02T09:06:32.999Z</time></trkpt><trkpt lat="46.25820336907367" lon="11.334616589940428"><ele>885.0</ele><time>2026-05-02T09:06:33.999Z</time></trkpt><trkpt lat="46.25834666857716" lon="11.334894814059421"><ele>890.0</ele><time>2026-05-02T09:06:34.999Z</time></trkpt><trkpt lat="46.25848547865417" lon="11.335166231456647"><ele>890.0</ele><time>2026-05-02T09:06:35.999Z</time></trkpt><trkpt lat="46.258601866612935" lon="11.33544516624334"><ele>890.0</ele><time>2026-05-02T09:06:36.999Z</time></trkpt><trkpt lat="46.25869925348226" lon="11.33571932123994"><ele>890.0</ele><time>2026-05-02T09:06:37.999Z</time></trkpt><trkpt lat="46.25879087940855" lon="11.335980468374132"><ele>892.6666666666667</ele><time>2026-05-02T09:06:38.999Z</time></trkpt><trkpt lat="46.2588802216306" lon="11.336223846835157"><ele>895.3333333333333</ele><time>2026-05-02T09:06:39.999Z</time></trkpt><trkpt lat="46.25896712999016" lon="11.336455712012562"><ele>898.0</ele><time>2026-05-02T09:06:40.999Z</time></trkpt><trkpt lat="46.25903912524798" lon="11.336661862912445"><ele>898.0</ele><time>2026-05-02T09:06:41.999Z</time></trkpt><trkpt lat="46.25908079277674" lon="11.336839524189408"><ele>898.0</ele><time>2026-05-02T09:06:42.999Z</time></trkpt><trkpt lat="46.25907917022675" lon="11.337009599420071"><ele>898.0</ele><time>2026-05-02T09:06:43.999Z</time></trkpt><trkpt lat="46.25901600604271" lon="11.337152057853721"><ele>898.0</ele><time>2026-05-02T09:06:44.999Z</time></trkpt><trkpt lat="46.25896106575607" lon="11.337294059465062"><ele>887.75</ele><time>2026-05-02T09:06:45.999Z</time></trkpt><trkpt lat="46.25889800434913" lon="11.337460716653462"><ele>877.5</ele><time>2026-05-02T09:06:46.999Z</time></trkpt><trkpt lat="46.25887300359219" lon="11.337653262285858"><ele>867.25</ele><time>2026-05-02T09:06:47.999Z</time></trkpt><trkpt lat="46.25887676211432" lon="11.337865915445475"><ele>857.0</ele><time>2026-05-02T09:06:48.999Z</time></trkpt><trkpt lat="46.25891298861225" lon="11.3380658053827"><ele>867.6666666666667</ele><time>2026-05-02T09:06:49.999Z</time></trkpt><trkpt lat="46.25897355851335" lon="11.338268360384184"><ele>878.3333333333333</ele><time>2026-05-02T09:06:50.999Z</time></trkpt><trkpt lat="46.25908022408865" lon="11.338437506713912"><ele>889.0</ele><time>2026-05-02T09:06:51.999Z</time></trkpt><trkpt lat="46.259185709232035" lon="11.338620533690797"><ele>889.0</ele><time>2026-05-02T09:06:52.999Z</time></trkpt><trkpt lat="46.25929089094211" lon="11.338790067765427"><ele>889.0</ele><time>2026-05-02T09:06:53.999Z</time></trkpt><trkpt lat="46.25939985280099" lon="11.338930947474005"><ele>889.0</ele><time>2026-05-02T09:06:54.999Z</time></trkpt><trkpt lat="46.25950133855904" lon="11.339079632994618"><ele>889.0</ele><time>2026-05-02T09:06:55.999Z</time></trkpt><trkpt lat="46.2595922928853" lon="11.339194527846976"><ele>886.0</ele><time>2026-05-02T09:06:56.999Z</time></trkpt><trkpt lat="46.2596663441021" lon="11.339308271860956"><ele>883.0000000000001</ele><time>2026-05-02T09:06:57.999Z</time></trkpt><trkpt lat="46.259687142709005" lon="11.339464946524926"><ele>880.0000000000001</ele><time>2026-05-02T09:06:58.999Z</time></trkpt><trkpt lat="46.25966271717019" lon="11.339613580732989"><ele>877.0</ele><time>2026-05-02T09:06:59.999Z</time></trkpt><trkpt lat="46.25959987325049" lon="11.339748795589262"><ele>874.0</ele><time>2026-05-02T09:07:00.999Z</time></trkpt><trkpt lat="46.25952139045416" lon="11.339873710453622"><ele>872.25</ele><time>2026-05-02T09:07:01.999Z</time></trkpt><trkpt lat="46.25946619900293" lon="11.340030430737198"><ele>870.5</ele><time>2026-05-02T09:07:02.999Z</time></trkpt><trkpt lat="46.25943825929308" lon="11.340224641781585"><ele>868.75</ele><time>2026-05-02T09:07:03.999Z</time></trkpt><trkpt lat="46.25943870058975" lon="11.340434941919545"><ele>867.0</ele><time>2026-05-02T09:07:04.999Z</time></trkpt><trkpt lat="46.25946975191434" lon="11.340644756865245"><ele>866.6666666666667</ele><time>2026-05-02T09:07:05.999Z</time></trkpt><trkpt lat="46.259508114843555" lon="11.340857576768945"><ele>866.3333333333334</ele><time>2026-05-02T09:07:06.999Z</time></trkpt><trkpt lat="46.259555602541155" lon="11.34106720166319"><ele>866.0</ele><time>2026-05-02T09:07:07.999Z</time></trkpt><trkpt lat="46.25962416830541" lon="11.34127340125482"><ele>862.3333333333334</ele><time>2026-05-02T09:07:08.999Z</time></trkpt><trkpt lat="46.25969723550434" lon="11.341478050157923"><ele>858.6666666666667</ele><time>2026-05-02T09:07:09.999Z</time></trkpt><trkpt lat="46.25977677720998" lon="11.341684251812119"><ele>855.0</ele><time>2026-05-02T09:07:10.999Z</time></trkpt><trkpt lat="46.25987785770375" lon="11.341885161734194"><ele>859.3333333333333</ele><time>2026-05-02T09:07:11.999Z</time></trkpt><trkpt lat="46.260005688129134" lon="11.342080423497906"><ele>863.6666666666666</ele><time>2026-05-02T09:07:12.999Z</time></trkpt><trkpt lat="46.26015973029493" lon="11.342289738347198"><ele>868.0</ele><time>2026-05-02T09:07:13.999Z</time></trkpt><trkpt lat="46.260332564069074" lon="11.342528079300305"><ele>868.0</ele><time>2026-05-02T09:07:14.999Z</time></trkpt><trkpt lat="46.26049127082836" lon="11.342752608352923"><ele>868.0</ele><time>2026-05-02T09:07:15.999Z</time></trkpt><trkpt lat="46.26063299425124" lon="11.3429532840109"><ele>868.0</ele><time>2026-05-02T09:07:16.999Z</time></trkpt><trkpt lat="46.26076431807627" lon="11.34313886400063"><ele>870.6666666666666</ele><time>2026-05-02T09:07:17.999Z</time></trkpt><trkpt lat="46.26089215890927" lon="11.34331677741575"><ele>873.3333333333333</ele><time>2026-05-02T09:07:18.999Z</time></trkpt><trkpt lat="46.26101268512312" lon="11.343487369602585"><ele>876.0</ele><time>2026-05-02T09:07:19.999Z</time></trkpt><trkpt lat="46.26113788494871" lon="11.3436507817382"><ele>876.0</ele><time>2026-05-02T09:07:20.999Z</time></trkpt><trkpt lat="46.2612677787153" lon="11.343784205613538"><ele>876.0</ele><time>2026-05-02T09:07:21.999Z</time></trkpt><trkpt lat="46.26140077100252" lon="11.343884239994045"><ele>876.0</ele><time>2026-05-02T09:07:22.999Z</time></trkpt><trkpt lat="46.261535134109415" lon="11.3439522115908"><ele>876.75</ele><time>2026-05-02T09:07:23.999Z</time></trkpt><trkpt lat="46.26167634889642" lon="11.344000726590167"><ele>877.5</ele><time>2026-05-02T09:07:24.999Z</time></trkpt><trkpt lat="46.261821830687154" lon="11.34403503516201"><ele>878.25</ele><time>2026-05-02T09:07:25.999Z</time></trkpt><trkpt lat="46.26196666299736" lon="11.34406404394056"><ele>879.0</ele><time>2026-05-02T09:07:26.999Z</time></trkpt><trkpt lat="46.262096646563826" lon="11.344094260093373"><ele>879.0</ele><time>2026-05-02T09:07:27.999Z</time></trkpt><trkpt lat="46.26221765017537" lon="11.344119560832333"><ele>879.0</ele><time>2026-05-02T09:07:28.999Z</time></trkpt><trkpt lat="46.26233950954618" lon="11.344124968205177"><ele>879.0</ele><time>2026-05-02T09:07:29.999Z</time></trkpt><trkpt lat="46.26246014712925" lon="11.344106059502122"><ele>879.0</ele><time>2026-05-02T09:07:30.999Z</time></trkpt><trkpt lat="46.26257864413382" lon="11.344050375321308"><ele>877.0</ele><time>2026-05-02T09:07:31.999Z</time></trkpt><trkpt lat="46.26269304809466" lon="11.343957781435117"><ele>875.0</ele><time>2026-05-02T09:07:32.999Z</time></trkpt><trkpt lat="46.262813059507664" lon="11.343806548573921"><ele>873.0</ele><time>2026-05-02T09:07:33.999Z</time></trkpt><trkpt lat="46.26293000727533" lon="11.343624277263661"><ele>876.5</ele><time>2026-05-02T09:07:34.999Z</time></trkpt><trkpt lat="46.26303804289528" lon="11.343462869315337"><ele>880.0</ele><time>2026-05-02T09:07:35.999Z</time></trkpt><trkpt lat="46.26314575396701" lon="11.343333553147307"><ele>883.5</ele><time>2026-05-02T09:07:36.999Z</time></trkpt><trkpt lat="46.26324850579637" lon="11.343209747565936"><ele>887.0</ele><time>2026-05-02T09:07:37.999Z</time></trkpt><trkpt lat="46.26333953052722" lon="11.343089226475836"><ele>902.3333333333334</ele><time>2026-05-02T09:07:38.999Z</time></trkpt><trkpt lat="46.263442405452025" lon="11.34297511604822"><ele>917.6666666666667</ele><time>2026-05-02T09:07:39.999Z</time></trkpt><trkpt lat="46.26357211584298" lon="11.342871835933972"><ele>933.0</ele><time>2026-05-02T09:07:40.999Z</time></trkpt><trkpt lat="46.26375408478672" lon="11.34275784821156"><ele>919.0</ele><time>2026-05-02T09:07:41.999Z</time></trkpt><trkpt lat="46.26396094520814" lon="11.34266732209438"><ele>905.0</ele><time>2026-05-02T09:07:42.999Z</time></trkpt><trkpt lat="46.264197241078676" lon="11.342555416442577"><ele>905.0</ele><time>2026-05-02T09:07:43.999Z</time></trkpt><trkpt lat="46.264394481261405" lon="11.342485816999437"><ele>905.0</ele><time>2026-05-02T09:07:44.999Z</time></trkpt><trkpt lat="46.26456213610474" lon="11.342429138970102"><ele>905.0</ele><time>2026-05-02T09:07:45.999Z</time></trkpt><trkpt lat="46.26473379727406" lon="11.342379436701801"><ele>898.3333333333334</ele><time>2026-05-02T09:07:46.999Z</time></trkpt><trkpt lat="46.26490708621853" lon="11.342375617153932"><ele>891.6666666666667</ele><time>2026-05-02T09:07:47.999Z</time></trkpt><trkpt lat="46.26509048601766" lon="11.342382601439839"><ele>885.0</ele><time>2026-05-02T09:07:48.998Z</time></trkpt><trkpt lat="46.26526019077878" lon="11.342397828433635"><ele>885.0</ele><time>2026-05-02T09:07:49.998Z</time></trkpt><trkpt lat="46.26541853319707" lon="11.342403305520566"><ele>885.0</ele><time>2026-05-02T09:07:50.998Z</time></trkpt><trkpt lat="46.26557456743354" lon="11.342406512241315"><ele>885.0</ele><time>2026-05-02T09:07:51.998Z</time></trkpt><trkpt lat="46.26573420058673" lon="11.342410496570334"><ele>885.0</ele><time>2026-05-02T09:07:52.998Z</time></trkpt><trkpt lat="46.265900903430925" lon="11.342412679952584"><ele>885.0</ele><time>2026-05-02T09:07:53.998Z</time></trkpt><trkpt lat="46.26605686760254" lon="11.342415551633778"><ele>885.0</ele><time>2026-05-02T09:07:54.998Z</time></trkpt><trkpt lat="46.266204007592286" lon="11.342414272284275"><ele>885.0</ele><time>2026-05-02T09:07:55.998Z</time></trkpt><trkpt lat="46.26634914023618" lon="11.34242564509763"><ele>885.0</ele><time>2026-05-02T09:07:56.998Z</time></trkpt><trkpt lat="46.266489943025675" lon="11.342470683007697"><ele>885.0</ele><time>2026-05-02T09:07:57.998Z</time></trkpt><trkpt lat="46.2666246045991" lon="11.342557129551757"><ele>885.0</ele><time>2026-05-02T09:07:58.998Z</time></trkpt><trkpt lat="46.2667467492749" lon="11.342678201695927"><ele>886.0</ele><time>2026-05-02T09:07:59.998Z</time></trkpt><trkpt lat="46.26686050208992" lon="11.342824496316084"><ele>887.0</ele><time>2026-05-02T09:08:00.998Z</time></trkpt><trkpt lat="46.26696282760427" lon="11.342999443966722"><ele>888.0</ele><time>2026-05-02T09:08:01.998Z</time></trkpt><trkpt lat="46.267036335963546" lon="11.343200084443279"><ele>877.3333333333333</ele><time>2026-05-02T09:08:03Z</time></trkpt><trkpt lat="46.26708252668636" lon="11.343412783123785"><ele>866.6666666666666</ele><time>2026-05-02T09:08:04Z</time></trkpt><trkpt lat="46.26709629799388" lon="11.343633421332132"><ele>856.0</ele><time>2026-05-02T09:08:05Z</time></trkpt><trkpt lat="46.267085672949335" lon="11.343857270798104"><ele>856.3333333333333</ele><time>2026-05-02T09:08:06Z</time></trkpt><trkpt lat="46.267050416906244" lon="11.344074006339111"><ele>856.6666666666667</ele><time>2026-05-02T09:08:07Z</time></trkpt><trkpt lat="46.26698694342923" lon="11.344282385806183"><ele>857.0</ele><time>2026-05-02T09:08:08Z</time></trkpt><trkpt lat="46.266899859102686" lon="11.344470791471363"><ele>857.0</ele><time>2026-05-02T09:08:09Z</time></trkpt><trkpt lat="46.26679015000284" lon="11.34463749950436"><ele>857.0</ele><time>2026-05-02T09:08:10Z</time></trkpt><trkpt lat="46.26666903952549" lon="11.34478309745352"><ele>857.0</ele><time>2026-05-02T09:08:11Z</time></trkpt><trkpt lat="46.26654773104019" lon="11.344922573652305"><ele>851.6666666666667</ele><time>2026-05-02T09:08:12Z</time></trkpt><trkpt lat="46.26642448969029" lon="11.345083715532425"><ele>846.3333333333333</ele><time>2026-05-02T09:08:13Z</time></trkpt><trkpt lat="46.266307781511024" lon="11.345230149235404"><ele>841.0</ele><time>2026-05-02T09:08:14Z</time></trkpt><trkpt lat="46.2661928374152" lon="11.345364828298129"><ele>841.0</ele><time>2026-05-02T09:08:15Z</time></trkpt><trkpt lat="46.266082254042665" lon="11.345495607759961"><ele>841.0</ele><time>2026-05-02T09:08:16Z</time></trkpt><trkpt lat="46.26597886832284" lon="11.345641482011455"><ele>841.0</ele><time>2026-05-02T09:08:17Z</time></trkpt><trkpt lat="46.265892232709874" lon="11.345784574027533"><ele>841.0</ele><time>2026-05-02T09:08:18Z</time></trkpt><trkpt lat="46.265823805701615" lon="11.3459459055251"><ele>847.5</ele><time>2026-05-02T09:08:19Z</time></trkpt><trkpt lat="46.265773431646686" lon="11.34612743775855"><ele>854.0</ele><time>2026-05-02T09:08:20Z</time></trkpt><trkpt lat="46.2657433974421" lon="11.346325160072864"><ele>860.5</ele><time>2026-05-02T09:08:21Z</time></trkpt><trkpt lat="46.26572208775439" lon="11.346538191802383"><ele>867.0</ele><time>2026-05-02T09:08:22Z</time></trkpt><trkpt lat="46.26570165653568" lon="11.346778309241373"><ele>871.6666666666667</ele><time>2026-05-02T09:08:23Z</time></trkpt><trkpt lat="46.26567631606259" lon="11.347047213211344"><ele>876.3333333333334</ele><time>2026-05-02T09:08:24Z</time></trkpt><trkpt lat="46.26564458539323" lon="11.347328014656522"><ele>881.0</ele><time>2026-05-02T09:08:25Z</time></trkpt><trkpt lat="46.26561158279121" lon="11.34762101713212"><ele>865.3333333333334</ele><time>2026-05-02T09:08:26Z</time></trkpt><trkpt lat="46.26558272808197" lon="11.34791636214116"><ele>849.6666666666667</ele><time>2026-05-02T09:08:27Z</time></trkpt><trkpt lat="46.2655523518154" lon="11.348205793230457"><ele>834.0</ele><time>2026-05-02T09:08:28Z</time></trkpt><trkpt lat="46.265525760515374" lon="11.348491257587376"><ele>834.0</ele><time>2026-05-02T09:08:29Z</time></trkpt><trkpt lat="46.26551169348622" lon="11.348772892217987"><ele>834.0</ele><time>2026-05-02T09:08:30Z</time></trkpt><trkpt lat="46.26551735854987" lon="11.349050540311552"><ele>834.0</ele><time>2026-05-02T09:08:31Z</time></trkpt><trkpt lat="46.2655409672408" lon="11.349326728231931"><ele>835.3333333333333</ele><time>2026-05-02T09:08:32Z</time></trkpt><trkpt lat="46.26558864918874" lon="11.349608187554617"><ele>836.6666666666666</ele><time>2026-05-02T09:08:33Z</time></trkpt><trkpt lat="46.265661861510345" lon="11.34987545312395"><ele>838.0</ele><time>2026-05-02T09:08:34Z</time></trkpt><trkpt lat="46.2657560168079" lon="11.350133993900789"><ele>845.3333333333333</ele><time>2026-05-02T09:08:35Z</time></trkpt><trkpt lat="46.26586734114343" lon="11.350385240711725"><ele>852.6666666666667</ele><time>2026-05-02T09:08:36Z</time></trkpt><trkpt lat="46.26600227133243" lon="11.350620537181479"><ele>860.0</ele><time>2026-05-02T09:08:37Z</time></trkpt><trkpt lat="46.266159996748875" lon="11.350836801671093"><ele>860.0</ele><time>2026-05-02T09:08:38Z</time></trkpt><trkpt lat="46.26631819309401" lon="11.351048567446174"><ele>860.0</ele><time>2026-05-02T09:08:39Z</time></trkpt><trkpt lat="46.26646756731129" lon="11.351251498258874"><ele>860.0</ele><time>2026-05-02T09:08:40Z</time></trkpt><trkpt lat="46.266600780791954" lon="11.351444895829301"><ele>865.3333333333334</ele><time>2026-05-02T09:08:41Z</time></trkpt><trkpt lat="46.26670956281137" lon="11.35162006799858"><ele>870.6666666666667</ele><time>2026-05-02T09:08:42Z</time></trkpt><trkpt lat="46.26679930492982" lon="11.351805545936086"><ele>876.0</ele><time>2026-05-02T09:08:43Z</time></trkpt><trkpt lat="46.266866894608015" lon="11.352007836349207"><ele>870.0</ele><time>2026-05-02T09:08:44Z</time></trkpt><trkpt lat="46.26690726010629" lon="11.35223496183825"><ele>864.0</ele><time>2026-05-02T09:08:45Z</time></trkpt><trkpt lat="46.266918433973174" lon="11.352474115424142"><ele>858.0</ele><time>2026-05-02T09:08:46Z</time></trkpt><trkpt lat="46.26690204314347" lon="11.352723557988506"><ele>858.0</ele><time>2026-05-02T09:08:47Z</time></trkpt><trkpt lat="46.266866592090956" lon="11.352979164469849"><ele>858.0</ele><time>2026-05-02T09:08:47.999Z</time></trkpt><trkpt lat="46.2668468033606" lon="11.353228630274957"><ele>858.0</ele><time>2026-05-02T09:08:48.999Z</time></trkpt><trkpt lat="46.26686748636659" lon="11.353471647938207"><ele>857.0</ele><time>2026-05-02T09:08:49.999Z</time></trkpt><trkpt lat="46.26692277027893" lon="11.353727746358066"><ele>856.0</ele><time>2026-05-02T09:08:50.999Z</time></trkpt><trkpt lat="46.26701172791753" lon="11.353996368889746"><ele>855.0</ele><time>2026-05-02T09:08:51.999Z</time></trkpt><trkpt lat="46.267119096505795" lon="11.354280248984136"><ele>846.0</ele><time>2026-05-02T09:08:52.999Z</time></trkpt><trkpt lat="46.267225207651805" lon="11.354576548205722"><ele>837.0</ele><time>2026-05-02T09:08:53.999Z</time></trkpt><trkpt lat="46.26733330804726" lon="11.35489546295674"><ele>853.5</ele><time>2026-05-02T09:08:54.999Z</time></trkpt><trkpt lat="46.267445033335825" lon="11.355231897374049"><ele>870.0</ele><time>2026-05-02T09:08:55.999Z</time></trkpt><trkpt lat="46.267563821407684" lon="11.355581390741227"><ele>870.0</ele><time>2026-05-02T09:08:56.999Z</time></trkpt><trkpt lat="46.26768997213049" lon="11.355946085680355"><ele>870.0</ele><time>2026-05-02T09:08:57.999Z</time></trkpt><trkpt lat="46.267817582315686" lon="11.356309823189692"><ele>849.5</ele><time>2026-05-02T09:08:58.999Z</time></trkpt><trkpt lat="46.26793556150596" lon="11.35664925132051"><ele>829.0</ele><time>2026-05-02T09:08:59.999Z</time></trkpt><trkpt lat="46.26804412608894" lon="11.356971571606985"><ele>831.0</ele><time>2026-05-02T09:09:00.999Z</time></trkpt><trkpt lat="46.268138572074285" lon="11.35725125765676"><ele>833.0</ele><time>2026-05-02T09:09:01.999Z</time></trkpt><trkpt lat="46.26822960935292" lon="11.357509473947575"><ele>835.0</ele><time>2026-05-02T09:09:02.999Z</time></trkpt><trkpt lat="46.2683104680554" lon="11.357760419125421"><ele>835.0</ele><time>2026-05-02T09:09:03.999Z</time></trkpt><trkpt lat="46.26836013523271" lon="11.358015620961558"><ele>835.0</ele><time>2026-05-02T09:09:04.999Z</time></trkpt><trkpt lat="46.26836138978584" lon="11.358267684128016"><ele>835.0</ele><time>2026-05-02T09:09:05.999Z</time></trkpt><trkpt lat="46.26835556293488" lon="11.358517711074798"><ele>833.0</ele><time>2026-05-02T09:09:06.999Z</time></trkpt><trkpt lat="46.268294558657566" lon="11.358760451309445"><ele>831.0</ele><time>2026-05-02T09:09:07.999Z</time></trkpt><trkpt lat="46.2682037013315" lon="11.35899037252196"><ele>829.0</ele><time>2026-05-02T09:09:08.999Z</time></trkpt><trkpt lat="46.26807887587674" lon="11.359205806126791"><ele>829.0</ele><time>2026-05-02T09:09:09.999Z</time></trkpt><trkpt lat="46.26793459449611" lon="11.35940845128779"><ele>829.0</ele><time>2026-05-02T09:09:10.999Z</time></trkpt><trkpt lat="46.26778657683091" lon="11.359613030757242"><ele>829.0</ele><time>2026-05-02T09:09:11.999Z</time></trkpt><trkpt lat="46.2676413552221" lon="11.35982253841207"><ele>821.0</ele><time>2026-05-02T09:09:12.999Z</time></trkpt><trkpt lat="46.2675038914092" lon="11.360023469677834"><ele>813.0</ele><time>2026-05-02T09:09:13.999Z</time></trkpt><trkpt lat="46.267366873875446" lon="11.360221684196924"><ele>805.0</ele><time>2026-05-02T09:09:14.999Z</time></trkpt><trkpt lat="46.2672507650105" lon="11.360422499449328"><ele>809.6666666666666</ele><time>2026-05-02T09:09:15.999Z</time></trkpt><trkpt lat="46.26716310879669" lon="11.360641703581694"><ele>814.3333333333333</ele><time>2026-05-02T09:09:16.999Z</time></trkpt><trkpt lat="46.267095729889974" lon="11.360877074319268"><ele>819.0</ele><time>2026-05-02T09:09:17.999Z</time></trkpt><trkpt lat="46.267048512437746" lon="11.361111578927812"><ele>819.0</ele><time>2026-05-02T09:09:18.999Z</time></trkpt><trkpt lat="46.26702801862801" lon="11.36134449689283"><ele>819.0</ele><time>2026-05-02T09:09:19.999Z</time></trkpt><trkpt lat="46.26704095373347" lon="11.361598034770621"><ele>819.0</ele><time>2026-05-02T09:09:20.999Z</time></trkpt><trkpt lat="46.2670680349763" lon="11.361856051546999"><ele>821.0</ele><time>2026-05-02T09:09:21.999Z</time></trkpt><trkpt lat="46.267096738158926" lon="11.362094681952945"><ele>823.0</ele><time>2026-05-02T09:09:22.999Z</time></trkpt><trkpt lat="46.26711067016462" lon="11.362343625433159"><ele>825.0</ele><time>2026-05-02T09:09:23.999Z</time></trkpt><trkpt lat="46.267102767505115" lon="11.362621900466477"><ele>826.6666666666667</ele><time>2026-05-02T09:09:24.999Z</time></trkpt><trkpt lat="46.267078538251106" lon="11.362906370509714"><ele>828.3333333333334</ele><time>2026-05-02T09:09:25.999Z</time></trkpt><trkpt lat="46.26707602359266" lon="11.363205782377573"><ele>830.0</ele><time>2026-05-02T09:09:26.999Z</time></trkpt><trkpt lat="46.26709430744966" lon="11.363514652280212"><ele>830.5</ele><time>2026-05-02T09:09:27.999Z</time></trkpt><trkpt lat="46.2671264715026" lon="11.36383293414075"><ele>831.0</ele><time>2026-05-02T09:09:28.999Z</time></trkpt><trkpt lat="46.26716322383957" lon="11.36415746560259"><ele>829.0</ele><time>2026-05-02T09:09:29.999Z</time></trkpt><trkpt lat="46.26719844713558" lon="11.36445645414432"><ele>827.0</ele><time>2026-05-02T09:09:30.999Z</time></trkpt><trkpt lat="46.26722238894124" lon="11.364727224753151"><ele>825.0</ele><time>2026-05-02T09:09:31.999Z</time></trkpt><trkpt lat="46.26722832496099" lon="11.364980866984231"><ele>823.0</ele><time>2026-05-02T09:09:32.999Z</time></trkpt><trkpt lat="46.26719809693219" lon="11.36522636125944"><ele>821.0</ele><time>2026-05-02T09:09:33.999Z</time></trkpt><trkpt lat="46.267124112942476" lon="11.365469863506355"><ele>819.0</ele><time>2026-05-02T09:09:34.999Z</time></trkpt><trkpt lat="46.267035781610964" lon="11.365701634508392"><ele>823.6666666666667</ele><time>2026-05-02T09:09:35.999Z</time></trkpt><trkpt lat="46.26695618859536" lon="11.365921325435245"><ele>828.3333333333334</ele><time>2026-05-02T09:09:36.999Z</time></trkpt><trkpt lat="46.266901106824704" lon="11.366177387396736"><ele>833.0</ele><time>2026-05-02T09:09:37.999Z</time></trkpt><trkpt lat="46.2668538599956" lon="11.366422465678648"><ele>837.0</ele><time>2026-05-02T09:09:38.999Z</time></trkpt><trkpt lat="46.26681899404279" lon="11.366669088847319"><ele>841.0</ele><time>2026-05-02T09:09:39.999Z</time></trkpt><trkpt lat="46.26680606782343" lon="11.366930816645553"><ele>845.0</ele><time>2026-05-02T09:09:40.999Z</time></trkpt><trkpt lat="46.26679945582153" lon="11.367201641291567"><ele>846.6666666666667</ele><time>2026-05-02T09:09:41.999Z</time></trkpt><trkpt lat="46.266789177882025" lon="11.367470912172832"><ele>848.3333333333333</ele><time>2026-05-02T09:09:42.999Z</time></trkpt><trkpt lat="46.2667793306709" lon="11.367733591396275"><ele>850.0</ele><time>2026-05-02T09:09:43.999Z</time></trkpt><trkpt lat="46.26676113808271" lon="11.367990491751623"><ele>853.3333333333333</ele><time>2026-05-02T09:09:44.999Z</time></trkpt><trkpt lat="46.266728015035234" lon="11.368241543533633"><ele>856.6666666666667</ele><time>2026-05-02T09:09:45.999Z</time></trkpt><trkpt lat="46.26664473145679" lon="11.368463836894989"><ele>860.0</ele><time>2026-05-02T09:09:46.999Z</time></trkpt><trkpt lat="46.26656270194606" lon="11.368677243968566"><ele>860.0</ele><time>2026-05-02T09:09:47.999Z</time></trkpt><trkpt lat="46.266447256046746" lon="11.368858612100073"><ele>860.0</ele><time>2026-05-02T09:09:48.999Z</time></trkpt><trkpt lat="46.26632729441873" lon="11.369039557328195"><ele>860.0</ele><time>2026-05-02T09:09:49.999Z</time></trkpt><trkpt lat="46.266204880372875" lon="11.36922966097267"><ele>860.6666666666667</ele><time>2026-05-02T09:09:50.999Z</time></trkpt><trkpt lat="46.26608903759183" lon="11.36941648991093"><ele>861.3333333333333</ele><time>2026-05-02T09:09:51.999Z</time></trkpt><trkpt lat="46.265983740095095" lon="11.369595747770031"><ele>862.0</ele><time>2026-05-02T09:09:52.999Z</time></trkpt><trkpt lat="46.26590117700519" lon="11.369786352279723"><ele>862.0</ele><time>2026-05-02T09:09:53.999Z</time></trkpt><trkpt lat="46.265836949539974" lon="11.36999500699464"><ele>862.0</ele><time>2026-05-02T09:09:54.999Z</time></trkpt><trkpt lat="46.26580000045497" lon="11.370227795173484"><ele>862.0</ele><time>2026-05-02T09:09:55.999Z</time></trkpt><trkpt lat="46.26577895278859" lon="11.37048089894336"><ele>865.6666666666666</ele><time>2026-05-02T09:09:56.999Z</time></trkpt><trkpt lat="46.26575818553519" lon="11.370746738169597"><ele>869.3333333333333</ele><time>2026-05-02T09:09:57.999Z</time></trkpt><trkpt lat="46.26573170132718" lon="11.371025846254167"><ele>873.0</ele><time>2026-05-02T09:09:58.999Z</time></trkpt><trkpt lat="46.26570663147767" lon="11.37130426624491"><ele>873.0</ele><time>2026-05-02T09:09:59.999Z</time></trkpt><trkpt lat="46.26567988760033" lon="11.37157348779454"><ele>873.0</ele><time>2026-05-02T09:10:00.999Z</time></trkpt><trkpt lat="46.26565669186506" lon="11.371836077638537"><ele>873.0</ele><time>2026-05-02T09:10:01.999Z</time></trkpt><trkpt lat="46.26561026012429" lon="11.372088897616463"><ele>856.6666666666667</ele><time>2026-05-02T09:10:02.999Z</time></trkpt><trkpt lat="46.26553918603978" lon="11.372345436580094"><ele>840.3333333333334</ele><time>2026-05-02T09:10:03.999Z</time></trkpt><trkpt lat="46.26545035755301" lon="11.372601457678654"><ele>824.0</ele><time>2026-05-02T09:10:04.999Z</time></trkpt><trkpt lat="46.26535996903609" lon="11.372858136377692"><ele>821.0</ele><time>2026-05-02T09:10:05.999Z</time></trkpt><trkpt lat="46.26528701189673" lon="11.37311180131708"><ele>818.0</ele><time>2026-05-02T09:10:06.999Z</time></trkpt><trkpt lat="46.265218619400194" lon="11.3733557548106"><ele>815.0</ele><time>2026-05-02T09:10:08Z</time></trkpt><trkpt lat="46.2651515777677" lon="11.373583118135311"><ele>815.0</ele><time>2026-05-02T09:10:09Z</time></trkpt><trkpt lat="46.265089815692114" lon="11.373804002416028"><ele>815.0</ele><time>2026-05-02T09:10:10Z</time></trkpt><trkpt lat="46.2650447110002" lon="11.374041933557221"><ele>815.0</ele><time>2026-05-02T09:10:11Z</time></trkpt><trkpt lat="46.265002483255955" lon="11.374280341555911"><ele>814.6666666666667</ele><time>2026-05-02T09:10:12Z</time></trkpt><trkpt lat="46.26499865903932" lon="11.374513194668172"><ele>814.3333333333333</ele><time>2026-05-02T09:10:13Z</time></trkpt><trkpt lat="46.26502936411227" lon="11.374761427829927"><ele>814.0</ele><time>2026-05-02T09:10:14Z</time></trkpt><trkpt lat="46.26505455637238" lon="11.375021887705524"><ele>821.3333333333333</ele><time>2026-05-02T09:10:15Z</time></trkpt><trkpt lat="46.26508450585971" lon="11.375290837101238"><ele>828.6666666666667</ele><time>2026-05-02T09:10:16Z</time></trkpt><trkpt lat="46.26509870243332" lon="11.375561981385115"><ele>836.0</ele><time>2026-05-02T09:10:17Z</time></trkpt><trkpt lat="46.2651400623045" lon="11.375830072443062"><ele>839.0</ele><time>2026-05-02T09:10:18Z</time></trkpt><trkpt lat="46.26515042087059" lon="11.376109262441954"><ele>842.0</ele><time>2026-05-02T09:10:19Z</time></trkpt><trkpt lat="46.26511523536248" lon="11.376386570973251"><ele>845.0</ele><time>2026-05-02T09:10:20Z</time></trkpt><trkpt lat="46.26506944067464" lon="11.376656953926002"><ele>848.0</ele><time>2026-05-02T09:10:21Z</time></trkpt><trkpt lat="46.26499813428965" lon="11.376920233806192"><ele>851.0</ele><time>2026-05-02T09:10:22Z</time></trkpt><trkpt lat="46.264909190089156" lon="11.37717123839846"><ele>854.0</ele><time>2026-05-02T09:10:23Z</time></trkpt><trkpt lat="46.264773774021144" lon="11.377387396024321"><ele>847.3333333333334</ele><time>2026-05-02T09:10:24Z</time></trkpt><trkpt lat="46.264653754711965" lon="11.377623509047611"><ele>840.6666666666667</ele><time>2026-05-02T09:10:25Z</time></trkpt><trkpt lat="46.26452519827362" lon="11.377850226830557"><ele>834.0</ele><time>2026-05-02T09:10:26Z</time></trkpt><trkpt lat="46.264408061529146" lon="11.378069201083752"><ele>834.0</ele><time>2026-05-02T09:10:27Z</time></trkpt><trkpt lat="46.264291957622696" lon="11.378275860552135"><ele>834.0</ele><time>2026-05-02T09:10:28Z</time></trkpt><trkpt lat="46.264185387286894" lon="11.37848396622492"><ele>834.0</ele><time>2026-05-02T09:10:29Z</time></trkpt><trkpt lat="46.26410417161822" lon="11.378700784820321"><ele>839.3333333333333</ele><time>2026-05-02T09:10:30Z</time></trkpt><trkpt lat="46.26404983146159" lon="11.378942092277976"><ele>844.6666666666666</ele><time>2026-05-02T09:10:31Z</time></trkpt><trkpt lat="46.26401399238846" lon="11.37920416835393"><ele>850.0</ele><time>2026-05-02T09:10:32Z</time></trkpt><trkpt lat="46.2639925028466" lon="11.379492643593219"><ele>852.0</ele><time>2026-05-02T09:10:33Z</time></trkpt><trkpt lat="46.263991984349786" lon="11.379807288898148"><ele>854.0</ele><time>2026-05-02T09:10:34Z</time></trkpt><trkpt lat="46.26398836121227" lon="11.380122939541907"><ele>856.0</ele><time>2026-05-02T09:10:35Z</time></trkpt><trkpt lat="46.26398684189275" lon="11.380442373686806"><ele>855.0</ele><time>2026-05-02T09:10:36Z</time></trkpt><trkpt lat="46.2639885349561" lon="11.3807609496842"><ele>854.0</ele><time>2026-05-02T09:10:37Z</time></trkpt><trkpt lat="46.26399050887984" lon="11.38107817850716"><ele>853.0</ele><time>2026-05-02T09:10:38Z</time></trkpt><trkpt lat="46.26398939661817" lon="11.381393356154026"><ele>853.0</ele><time>2026-05-02T09:10:39Z</time></trkpt><trkpt lat="46.26397803502509" lon="11.38171320333668"><ele>853.0</ele><time>2026-05-02T09:10:40Z</time></trkpt><trkpt lat="46.26394623968897" lon="11.382044500663241"><ele>827.5</ele><time>2026-05-02T09:10:41Z</time></trkpt><trkpt lat="46.263907890864694" lon="11.3823926734468"><ele>802.0</ele><time>2026-05-02T09:10:42Z</time></trkpt><trkpt lat="46.263869383964895" lon="11.382750267114059"><ele>801.0</ele><time>2026-05-02T09:10:43Z</time></trkpt><trkpt lat="46.26383386306529" lon="11.383090088023698"><ele>800.0</ele><time>2026-05-02T09:10:44Z</time></trkpt><trkpt lat="46.26379797736815" lon="11.383402683163828"><ele>800.0</ele><time>2026-05-02T09:10:45Z</time></trkpt><trkpt lat="46.26376312099529" lon="11.383675854581282"><ele>800.0</ele><time>2026-05-02T09:10:46Z</time></trkpt><trkpt lat="46.26373051990397" lon="11.383925714506143"><ele>800.0</ele><time>2026-05-02T09:10:47Z</time></trkpt><trkpt lat="46.263668739649894" lon="11.384145701798008"><ele>803.6666666666667</ele><time>2026-05-02T09:10:48Z</time></trkpt><trkpt lat="46.2636267232814" lon="11.384378334780251"><ele>807.3333333333333</ele><time>2026-05-02T09:10:49Z</time></trkpt><trkpt lat="46.26356082373386" lon="11.384607012788697"><ele>811.0</ele><time>2026-05-02T09:10:50Z</time></trkpt><trkpt lat="46.26350008637821" lon="11.384844246498838"><ele>812.6666666666666</ele><time>2026-05-02T09:10:51Z</time></trkpt><trkpt lat="46.263451200654316" lon="11.385076309187152"><ele>814.3333333333333</ele><time>2026-05-02T09:10:52Z</time></trkpt><trkpt lat="46.263433974110946" lon="11.38531675613161"><ele>816.0</ele><time>2026-05-02T09:10:53Z</time></trkpt><trkpt lat="46.263455363224445" lon="11.385564039959432"><ele>816.0</ele><time>2026-05-02T09:10:54Z</time></trkpt><trkpt lat="46.2635151687817" lon="11.385824673091019"><ele>816.0</ele><time>2026-05-02T09:10:55Z</time></trkpt><trkpt lat="46.26360405173102" lon="11.386100522152374"><ele>816.0</ele><time>2026-05-02T09:10:56Z</time></trkpt><trkpt lat="46.26369649795917" lon="11.386390647972425"><ele>812.3333333333333</ele><time>2026-05-02T09:10:57Z</time></trkpt><trkpt lat="46.2637861471095" lon="11.386694088333988"><ele>808.6666666666666</ele><time>2026-05-02T09:10:58Z</time></trkpt><trkpt lat="46.26387427309682" lon="11.38698162230865"><ele>805.0</ele><time>2026-05-02T09:10:59Z</time></trkpt><trkpt lat="46.26395462323773" lon="11.387259830279792"><ele>810.3333333333333</ele><time>2026-05-02T09:11:00Z</time></trkpt><trkpt lat="46.264036085524666" lon="11.387524478291438"><ele>815.6666666666667</ele><time>2026-05-02T09:11:00.999Z</time></trkpt><trkpt lat="46.26411384673231" lon="11.387778286435587"><ele>821.0</ele><time>2026-05-02T09:11:01.999Z</time></trkpt><trkpt lat="46.26418562823154" lon="11.388020450742014"><ele>821.0</ele><time>2026-05-02T09:11:02.999Z</time></trkpt><trkpt lat="46.26424277417916" lon="11.388255333318755"><ele>821.0</ele><time>2026-05-02T09:11:03.999Z</time></trkpt><trkpt lat="46.26427456906043" lon="11.388487019836278"><ele>821.0</ele><time>2026-05-02T09:11:04.999Z</time></trkpt><trkpt lat="46.26428586594358" lon="11.388727452555333"><ele>821.0</ele><time>2026-05-02T09:11:05.999Z</time></trkpt><trkpt lat="46.26427597896164" lon="11.388970891770347"><ele>821.0</ele><time>2026-05-02T09:11:06.999Z</time></trkpt><trkpt lat="46.26426373970867" lon="11.389214301370997"><ele>821.0</ele><time>2026-05-02T09:11:07.999Z</time></trkpt><trkpt lat="46.26425332651914" lon="11.389462157305768"><ele>818.3333333333334</ele><time>2026-05-02T09:11:08.999Z</time></trkpt><trkpt lat="46.264261885504006" lon="11.389715057008235"><ele>815.6666666666667</ele><time>2026-05-02T09:11:09.999Z</time></trkpt><trkpt lat="46.26430191549368" lon="11.389943462907615"><ele>813.0</ele><time>2026-05-02T09:11:10.999Z</time></trkpt><trkpt lat="46.26437311916351" lon="11.390162376344385"><ele>813.0</ele><time>2026-05-02T09:11:11.999Z</time></trkpt><trkpt lat="46.26447249860942" lon="11.390372684135711"><ele>813.0</ele><time>2026-05-02T09:11:12.999Z</time></trkpt><trkpt lat="46.264601414533544" lon="11.390568384293545"><ele>813.0</ele><time>2026-05-02T09:11:13.999Z</time></trkpt><trkpt lat="46.264754771098204" lon="11.390748467608676"><ele>810.3333333333333</ele><time>2026-05-02T09:11:14.999Z</time></trkpt><trkpt lat="46.2649182554513" lon="11.39093642951998"><ele>807.6666666666666</ele><time>2026-05-02T09:11:15.999Z</time></trkpt><trkpt lat="46.26508136970603" lon="11.3911456144742"><ele>805.0</ele><time>2026-05-02T09:11:16.999Z</time></trkpt><trkpt lat="46.265239770128076" lon="11.391348267439044"><ele>805.0</ele><time>2026-05-02T09:11:17.999Z</time></trkpt><trkpt lat="46.26538453467049" lon="11.391535032665479"><ele>805.0</ele><time>2026-05-02T09:11:18.999Z</time></trkpt><trkpt lat="46.2655196887522" lon="11.391716751578706"><ele>805.0</ele><time>2026-05-02T09:11:19.999Z</time></trkpt><trkpt lat="46.26564246515652" lon="11.391906866399943"><ele>811.6666666666666</ele><time>2026-05-02T09:11:20.999Z</time></trkpt><trkpt lat="46.26570909056846" lon="11.392140983284818"><ele>818.3333333333333</ele><time>2026-05-02T09:11:21.999Z</time></trkpt><trkpt lat="46.26575696069012" lon="11.392385691710071"><ele>825.0</ele><time>2026-05-02T09:11:22.999Z</time></trkpt><trkpt lat="46.26579428068483" lon="11.392659266806975"><ele>825.0</ele><time>2026-05-02T09:11:23.999Z</time></trkpt><trkpt lat="46.26583454302272" lon="11.39295941851321"><ele>825.0</ele><time>2026-05-02T09:11:24.999Z</time></trkpt><trkpt lat="46.26587583124539" lon="11.393267227770723"><ele>825.0</ele><time>2026-05-02T09:11:25.999Z</time></trkpt><trkpt lat="46.265917714311776" lon="11.393579471665431"><ele>820.6666666666667</ele><time>2026-05-02T09:11:26.999Z</time></trkpt><trkpt lat="46.26596129466005" lon="11.393895417021119"><ele>816.3333333333334</ele><time>2026-05-02T09:11:27.999Z</time></trkpt><trkpt lat="46.26602397915473" lon="11.394207265191168"><ele>812.0</ele><time>2026-05-02T09:11:28.999Z</time></trkpt><trkpt lat="46.266064437099566" lon="11.394506776085182"><ele>811.0</ele><time>2026-05-02T09:11:29.999Z</time></trkpt><trkpt lat="46.266102456914375" lon="11.394789376760327"><ele>810.0</ele><time>2026-05-02T09:11:30.999Z</time></trkpt><trkpt lat="46.266138709476216" lon="11.395061180979024"><ele>809.0</ele><time>2026-05-02T09:11:31.999Z</time></trkpt><trkpt lat="46.26617168385366" lon="11.395325016626646"><ele>806.6666666666667</ele><time>2026-05-02T09:11:32.999Z</time></trkpt><trkpt lat="46.266201544927135" lon="11.395568382483752"><ele>804.3333333333333</ele><time>2026-05-02T09:11:33.999Z</time></trkpt><trkpt lat="46.26621851652671" lon="11.395802001004176"><ele>802.0</ele><time>2026-05-02T09:11:34.999Z</time></trkpt><trkpt lat="46.26619481405198" lon="11.396021865402709"><ele>802.0</ele><time>2026-05-02T09:11:35.999Z</time></trkpt><trkpt lat="46.266144981650655" lon="11.396260893903657"><ele>802.0</ele><time>2026-05-02T09:11:36.999Z</time></trkpt><trkpt lat="46.266115372161075" lon="11.396536300202955"><ele>802.0</ele><time>2026-05-02T09:11:37.999Z</time></trkpt><trkpt lat="46.26608469980321" lon="11.396812995977266"><ele>803.0</ele><time>2026-05-02T09:11:38.999Z</time></trkpt><trkpt lat="46.266059116364225" lon="11.397088929225827"><ele>804.0</ele><time>2026-05-02T09:11:39.999Z</time></trkpt><trkpt lat="46.26604275357894" lon="11.397364517494175"><ele>805.0</ele><time>2026-05-02T09:11:40.999Z</time></trkpt><trkpt lat="46.26604268555071" lon="11.397631993801447"><ele>805.3333333333333</ele><time>2026-05-02T09:11:41.999Z</time></trkpt><trkpt lat="46.26605828674357" lon="11.397886265826012"><ele>805.6666666666667</ele><time>2026-05-02T09:11:42.999Z</time></trkpt><trkpt lat="46.266091962404914" lon="11.398142216747214"><ele>806.0</ele><time>2026-05-02T09:11:43.999Z</time></trkpt><trkpt lat="46.26613128459128" lon="11.39840021183364"><ele>805.0</ele><time>2026-05-02T09:11:44.999Z</time></trkpt><trkpt lat="46.26616793122446" lon="11.398660350048846"><ele>804.0</ele><time>2026-05-02T09:11:45.999Z</time></trkpt><trkpt lat="46.266215270752895" lon="11.39891955809642"><ele>803.0</ele><time>2026-05-02T09:11:46.999Z</time></trkpt><trkpt lat="46.26629143846805" lon="11.399169639914874"><ele>800.3333333333334</ele><time>2026-05-02T09:11:47.999Z</time></trkpt><trkpt lat="46.26639250473873" lon="11.399404491972968"><ele>797.6666666666667</ele><time>2026-05-02T09:11:48.999Z</time></trkpt><trkpt lat="46.266515656767126" lon="11.399633431275552"><ele>795.0</ele><time>2026-05-02T09:11:49.999Z</time></trkpt><trkpt lat="46.26665021798845" lon="11.399852021103575"><ele>801.3333333333333</ele><time>2026-05-02T09:11:50.999Z</time></trkpt><trkpt lat="46.26678747247371" lon="11.40004516676963"><ele>807.6666666666666</ele><time>2026-05-02T09:11:51.999Z</time></trkpt><trkpt lat="46.26692167306397" lon="11.400243669215854"><ele>814.0</ele><time>2026-05-02T09:11:52.999Z</time></trkpt><trkpt lat="46.26704243331777" lon="11.400459996702322"><ele>808.3333333333333</ele><time>2026-05-02T09:11:53.999Z</time></trkpt><trkpt lat="46.26714545050251" lon="11.400694010504417"><ele>802.6666666666667</ele><time>2026-05-02T09:11:54.999Z</time></trkpt><trkpt lat="46.267225724228716" lon="11.400953759843901"><ele>797.0</ele><time>2026-05-02T09:11:55.999Z</time></trkpt><trkpt lat="46.26727923796789" lon="11.401233059771435"><ele>808.0</ele><time>2026-05-02T09:11:56.999Z</time></trkpt><trkpt lat="46.26731822458545" lon="11.401509524508985"><ele>819.0</ele><time>2026-05-02T09:11:57.999Z</time></trkpt><trkpt lat="46.26733313489911" lon="11.401794455018477"><ele>830.0</ele><time>2026-05-02T09:11:58.999Z</time></trkpt><trkpt lat="46.267319579814554" lon="11.402082045382185"><ele>829.0</ele><time>2026-05-02T09:11:59.999Z</time></trkpt><trkpt lat="46.26728652089778" lon="11.402362641564261"><ele>828.0</ele><time>2026-05-02T09:12:00.999Z</time></trkpt><trkpt lat="46.26723118418527" lon="11.402635639516408"><ele>827.0</ele><time>2026-05-02T09:12:01.999Z</time></trkpt><trkpt lat="46.267151321087304" lon="11.402898843873515"><ele>817.3333333333334</ele><time>2026-05-02T09:12:02.999Z</time></trkpt><trkpt lat="46.26705238440367" lon="11.403130781275376"><ele>807.6666666666667</ele><time>2026-05-02T09:12:03.999Z</time></trkpt><trkpt lat="46.266938415210944" lon="11.403333929108982"><ele>798.0</ele><time>2026-05-02T09:12:04.999Z</time></trkpt><trkpt lat="46.26681279916107" lon="11.403538975991575"><ele>798.0</ele><time>2026-05-02T09:12:05.999Z</time></trkpt><trkpt lat="46.2666974933484" lon="11.403725818931072"><ele>798.0</ele><time>2026-05-02T09:12:06.999Z</time></trkpt><trkpt lat="46.26659394825756" lon="11.40390704937841"><ele>798.0</ele><time>2026-05-02T09:12:07.999Z</time></trkpt><trkpt lat="46.266507087386714" lon="11.404113049771917"><ele>794.6666666666667</ele><time>2026-05-02T09:12:08.999Z</time></trkpt><trkpt lat="46.26643280826035" lon="11.404308144023688"><ele>791.3333333333334</ele><time>2026-05-02T09:12:09.999Z</time></trkpt><trkpt lat="46.26637418478697" lon="11.404667364361568"><ele>788.0</ele><time>2026-05-02T09:12:10.999Z</time></trkpt><trkpt lat="46.266335510505215" lon="11.404914069628623"><ele>787.3333333333334</ele><time>2026-05-02T09:12:11.999Z</time></trkpt><trkpt lat="46.26632126715489" lon="11.405160242399754"><ele>786.6666666666667</ele><time>2026-05-02T09:12:13Z</time></trkpt><trkpt lat="46.26634964027445" lon="11.40541959400719"><ele>786.0</ele><time>2026-05-02T09:12:14Z</time></trkpt><trkpt lat="46.266395973331875" lon="11.405672790900748"><ele>787.25</ele><time>2026-05-02T09:12:15Z</time></trkpt><trkpt lat="46.266438082673915" lon="11.405881795803392"><ele>788.5</ele><time>2026-05-02T09:12:16Z</time></trkpt><trkpt lat="46.26647448703178" lon="11.406066358603422"><ele>789.75</ele><time>2026-05-02T09:12:17Z</time></trkpt><trkpt lat="46.266510079516436" lon="11.406248382529213"><ele>791.0</ele><time>2026-05-02T09:12:18Z</time></trkpt><trkpt lat="46.26654474354975" lon="11.406423619606839"><ele>792.6666666666667</ele><time>2026-05-02T09:12:19Z</time></trkpt><trkpt lat="46.2665722758095" lon="11.406569310592774"><ele>794.3333333333334</ele><time>2026-05-02T09:12:20Z</time></trkpt><trkpt lat="46.26659278113387" lon="11.406674075304798"><ele>796.0</ele><time>2026-05-02T09:12:21Z</time></trkpt><trkpt lat="46.26661904418532" lon="11.406836043942542"><ele>797.6666666666667</ele><time>2026-05-02T09:12:23Z</time></trkpt><trkpt lat="46.2666401486909" lon="11.406930925586435"><ele>799.3333333333334</ele><time>2026-05-02T09:12:25Z</time></trkpt><trkpt lat="46.26664205931873" lon="11.407033207135218"><ele>801.0</ele><time>2026-05-02T09:13:09Z</time></trkpt><trkpt lat="46.26664029692281" lon="11.407172092208322"><ele>802.0</ele><time>2026-05-02T09:13:12Z</time></trkpt><trkpt lat="46.266627643071786" lon="11.407269682544966"><ele>803.0</ele><time>2026-05-02T09:13:13.999Z</time></trkpt><trkpt lat="46.2666463633765" lon="11.407370262681052"><ele>804.0</ele><time>2026-05-02T09:13:15.999Z</time></trkpt><trkpt lat="46.26667959082006" lon="11.407469331012326"><ele>805.0</ele><time>2026-05-02T09:13:18.999Z</time></trkpt><trkpt lat="46.26672311446646" lon="11.407580728707977"><ele>806.0</ele><time>2026-05-02T09:13:22.999Z</time></trkpt><trkpt lat="46.266766835646536" lon="11.407714120707041"><ele>807.0</ele><time>2026-05-02T09:13:24.999Z</time></trkpt><trkpt lat="46.266798724909755" lon="11.407812158123875"><ele>807.0</ele><time>2026-05-02T09:13:25.999Z</time></trkpt><trkpt lat="46.26683730409664" lon="11.407920172802097"><ele>807.0</ele><time>2026-05-02T09:13:26.999Z</time></trkpt><trkpt lat="46.26687240085259" lon="11.408030368953929"><ele>807.0</ele><time>2026-05-02T09:13:27.999Z</time></trkpt><trkpt lat="46.26690751674333" lon="11.408132514445478"><ele>807.0</ele><time>2026-05-02T09:13:28.999Z</time></trkpt><trkpt lat="46.266951484983565" lon="11.408231628986867"><ele>807.0</ele><time>2026-05-02T09:13:29.999Z</time></trkpt><trkpt lat="46.26701598211008" lon="11.408334466197886"><ele>807.0</ele><time>2026-05-02T09:13:30.999Z</time></trkpt><trkpt lat="46.26709446298692" lon="11.408430137101577"><ele>805.8</ele><time>2026-05-02T09:13:31.999Z</time></trkpt><trkpt lat="46.26718478258555" lon="11.408504413674713"><ele>804.6</ele><time>2026-05-02T09:13:32.999Z</time></trkpt><trkpt lat="46.267283523496154" lon="11.408560658550748"><ele>803.4</ele><time>2026-05-02T09:13:33.999Z</time></trkpt><trkpt lat="46.26738640581565" lon="11.408608482825402"><ele>802.1999999999999</ele><time>2026-05-02T09:13:34.999Z</time></trkpt><trkpt lat="46.26748930155787" lon="11.408667786930065"><ele>801.0</ele><time>2026-05-02T09:13:35.999Z</time></trkpt><trkpt lat="46.26759576537946" lon="11.408755157123883"><ele>800.75</ele><time>2026-05-02T09:13:36.999Z</time></trkpt><trkpt lat="46.267702283910225" lon="11.408863586545904"><ele>800.5</ele><time>2026-05-02T09:13:37.999Z</time></trkpt><trkpt lat="46.26780461425969" lon="11.40899273561075"><ele>800.25</ele><time>2026-05-02T09:13:38.999Z</time></trkpt><trkpt lat="46.267908331037816" lon="11.40914442114517"><ele>800.0</ele><time>2026-05-02T09:13:39.999Z</time></trkpt><trkpt lat="46.26801175793216" lon="11.4093133107863"><ele>802.5</ele><time>2026-05-02T09:13:40.999Z</time></trkpt><trkpt lat="46.268111391716765" lon="11.409488633503434"><ele>805.0</ele><time>2026-05-02T09:13:41.999Z</time></trkpt><trkpt lat="46.268204756634084" lon="11.409650702974995"><ele>807.5</ele><time>2026-05-02T09:13:42.999Z</time></trkpt><trkpt lat="46.26829637785441" lon="11.409811753538541"><ele>810.0</ele><time>2026-05-02T09:13:43.999Z</time></trkpt><trkpt lat="46.268382620541416" lon="11.409955668582915"><ele>810.0</ele><time>2026-05-02T09:13:44.999Z</time></trkpt><trkpt lat="46.26847042872489" lon="11.410094037254966"><ele>810.0</ele><time>2026-05-02T09:13:45.999Z</time></trkpt><trkpt lat="46.268570580768824" lon="11.410211056872514"><ele>810.0</ele><time>2026-05-02T09:13:46.999Z</time></trkpt><trkpt lat="46.268699051568106" lon="11.410304307667023"><ele>810.0</ele><time>2026-05-02T09:13:47.999Z</time></trkpt><trkpt lat="46.26883863357524" lon="11.410369023128464"><ele>807.0</ele><time>2026-05-02T09:13:48.999Z</time></trkpt><trkpt lat="46.26898957689029" lon="11.41041574356547"><ele>804.0</ele><time>2026-05-02T09:13:49.999Z</time></trkpt><trkpt lat="46.26915155635345" lon="11.410464398320341"><ele>801.0</ele><time>2026-05-02T09:13:50.999Z</time></trkpt><trkpt lat="46.269316465191835" lon="11.410521075653575"><ele>801.0</ele><time>2026-05-02T09:13:51.999Z</time></trkpt><trkpt lat="46.26948654530811" lon="11.410588495478262"><ele>801.0</ele><time>2026-05-02T09:13:52.999Z</time></trkpt><trkpt lat="46.26965007402403" lon="11.410678468664297"><ele>801.0</ele><time>2026-05-02T09:13:53.999Z</time></trkpt><trkpt lat="46.269779773917875" lon="11.410769679736571"><ele>808.3333333333333</ele><time>2026-05-02T09:13:54.999Z</time></trkpt><trkpt lat="46.269905070115" lon="11.410851806572348"><ele>815.6666666666666</ele><time>2026-05-02T09:13:55.999Z</time></trkpt><trkpt lat="46.27004842955922" lon="11.410952946026773"><ele>823.0</ele><time>2026-05-02T09:13:56.999Z</time></trkpt><trkpt lat="46.27019899035858" lon="11.411074773446124"><ele>823.0</ele><time>2026-05-02T09:13:57.999Z</time></trkpt><trkpt lat="46.270342131288146" lon="11.411205090483788"><ele>823.0</ele><time>2026-05-02T09:13:58.999Z</time></trkpt><trkpt lat="46.27048248651153" lon="11.411354349219325"><ele>823.0</ele><time>2026-05-02T09:13:59.999Z</time></trkpt><trkpt lat="46.27060485917674" lon="11.411552793336615"><ele>822.3333333333333</ele><time>2026-05-02T09:14:00.999Z</time></trkpt><trkpt lat="46.27072635531625" lon="11.411756208172807"><ele>821.6666666666667</ele><time>2026-05-02T09:14:01.999Z</time></trkpt><trkpt lat="46.270837920251594" lon="11.41197810042571"><ele>821.0</ele><time>2026-05-02T09:14:02.999Z</time></trkpt><trkpt lat="46.27092765334028" lon="11.412223333919078"><ele>816.0</ele><time>2026-05-02T09:14:03.999Z</time></trkpt><trkpt lat="46.27101965169531" lon="11.41246946275673"><ele>811.0</ele><time>2026-05-02T09:14:04.999Z</time></trkpt><trkpt lat="46.27107302056961" lon="11.412740739864375"><ele>806.0</ele><time>2026-05-02T09:14:05.999Z</time></trkpt><trkpt lat="46.27109637813565" lon="11.413019365510177"><ele>804.6666666666667</ele><time>2026-05-02T09:14:06.999Z</time></trkpt><trkpt lat="46.2711304151064" lon="11.413298147351725"><ele>803.3333333333333</ele><time>2026-05-02T09:14:07.999Z</time></trkpt><trkpt lat="46.27113628968653" lon="11.413588751001305"><ele>802.0</ele><time>2026-05-02T09:14:08.999Z</time></trkpt><trkpt lat="46.271139314837605" lon="11.41388776383789"><ele>802.0</ele><time>2026-05-02T09:14:09.999Z</time></trkpt><trkpt lat="46.27112827122524" lon="11.414201948218107"><ele>802.0</ele><time>2026-05-02T09:14:10.999Z</time></trkpt><trkpt lat="46.27110174372736" lon="11.41452006853909"><ele>802.0</ele><time>2026-05-02T09:14:11.999Z</time></trkpt><trkpt lat="46.2710559273061" lon="11.414847151156831"><ele>800.0</ele><time>2026-05-02T09:14:12.999Z</time></trkpt><trkpt lat="46.270987194477954" lon="11.415180857499003"><ele>798.0</ele><time>2026-05-02T09:14:13.999Z</time></trkpt><trkpt lat="46.27090694048383" lon="11.415501727441269"><ele>797.6666666666667</ele><time>2026-05-02T09:14:14.999Z</time></trkpt><trkpt lat="46.27082702830005" lon="11.415793046157672"><ele>797.3333333333334</ele><time>2026-05-02T09:14:15.999Z</time></trkpt><trkpt lat="46.270764638569524" lon="11.41607103420041"><ele>797.0</ele><time>2026-05-02T09:14:16.999Z</time></trkpt><trkpt lat="46.270723349951076" lon="11.41636283533281"><ele>798.3333333333334</ele><time>2026-05-02T09:14:17.999Z</time></trkpt><trkpt lat="46.270702425636095" lon="11.41666776461961"><ele>799.6666666666667</ele><time>2026-05-02T09:14:19Z</time></trkpt><trkpt lat="46.2706980241554" lon="11.41697681213255"><ele>801.0</ele><time>2026-05-02T09:14:20Z</time></trkpt><trkpt lat="46.27071266541982" lon="11.417280852772306"><ele>801.0</ele><time>2026-05-02T09:14:21Z</time></trkpt><trkpt lat="46.27074152960029" lon="11.417563834421157"><ele>801.0</ele><time>2026-05-02T09:14:22Z</time></trkpt><trkpt lat="46.27077366853547" lon="11.417836030140688"><ele>801.0</ele><time>2026-05-02T09:14:23Z</time></trkpt><trkpt lat="46.270800513005845" lon="11.418116382771043"><ele>801.0</ele><time>2026-05-02T09:14:24Z</time></trkpt><trkpt lat="46.27082978443089" lon="11.418408843931154"><ele>801.0</ele><time>2026-05-02T09:14:25Z</time></trkpt><trkpt lat="46.2708665898368" lon="11.418707805525772"><ele>801.0</ele><time>2026-05-02T09:14:26Z</time></trkpt><trkpt lat="46.2709142655606" lon="11.419010229122556"><ele>801.3333333333333</ele><time>2026-05-02T09:14:27Z</time></trkpt><trkpt lat="46.270976154336815" lon="11.41931670530162"><ele>801.6666666666666</ele><time>2026-05-02T09:14:28Z</time></trkpt><trkpt lat="46.27104971036719" lon="11.419623480357936"><ele>802.0</ele><time>2026-05-02T09:14:29Z</time></trkpt><trkpt lat="46.271119190738744" lon="11.419937412488483"><ele>802.5</ele><time>2026-05-02T09:14:30Z</time></trkpt><trkpt lat="46.27117923402488" lon="11.420254798824402"><ele>803.0</ele><time>2026-05-02T09:14:31Z</time></trkpt><trkpt lat="46.27121916661748" lon="11.420572835282933"><ele>803.0</ele><time>2026-05-02T09:14:32Z</time></trkpt><trkpt lat="46.27124568652511" lon="11.420886294439562"><ele>803.0</ele><time>2026-05-02T09:14:33Z</time></trkpt><trkpt lat="46.27126841311627" lon="11.42119548714197"><ele>803.0</ele><time>2026-05-02T09:14:34Z</time></trkpt><trkpt lat="46.27128690956463" lon="11.421500529457262"><ele>805.6666666666667</ele><time>2026-05-02T09:14:35Z</time></trkpt><trkpt lat="46.27130815726234" lon="11.421788152243805"><ele>808.3333333333333</ele><time>2026-05-02T09:14:36Z</time></trkpt><trkpt lat="46.27133681398451" lon="11.422030898333066"><ele>811.0</ele><time>2026-05-02T09:14:37Z</time></trkpt><trkpt lat="46.271372241917106" lon="11.422223041488653"><ele>809.8333333333333</ele><time>2026-05-02T09:14:38Z</time></trkpt><trkpt lat="46.27141056396743" lon="11.422382356947367"><ele>808.6666666666666</ele><time>2026-05-02T09:14:39Z</time></trkpt><trkpt lat="46.27144705010044" lon="11.422505855153046"><ele>807.5</ele><time>2026-05-02T09:14:40Z</time></trkpt><trkpt lat="46.27147421103122" lon="11.422599135642487"><ele>806.3333333333333</ele><time>2026-05-02T09:14:41Z</time></trkpt><trkpt lat="46.27149599854779" lon="11.422688742164372"><ele>805.1666666666666</ele><time>2026-05-02T09:14:43Z</time></trkpt><trkpt lat="46.27150596876856" lon="11.422788248276365"><ele>804.0</ele><time>2026-05-02T09:14:48Z</time></trkpt><trkpt lat="46.271478642426715" lon="11.422904916304764"><ele>803.8333333333334</ele><time>2026-05-02T09:14:50Z</time></trkpt><trkpt lat="46.271455302436706" lon="11.423020021937402"><ele>803.6666666666667</ele><time>2026-05-02T09:14:52Z</time></trkpt><trkpt lat="46.271342679253905" lon="11.423040012259031"><ele>803.5</ele><time>2026-05-02T09:14:54Z</time></trkpt><trkpt lat="46.2712800308049" lon="11.423016092886993"><ele>803.3333333333334</ele><time>2026-05-02T09:14:55Z</time></trkpt><trkpt lat="46.27120599011214" lon="11.422994281324266"><ele>803.1666666666667</ele><time>2026-05-02T09:14:56Z</time></trkpt><trkpt lat="46.27112114673458" lon="11.422957069559082"><ele>803.0</ele><time>2026-05-02T09:14:58Z</time></trkpt><trkpt lat="46.271049774284236" lon="11.422929512890729"><ele>814.0</ele><time>2026-05-02T09:15:47.999Z</time></trkpt><trkpt lat="46.270889915931775" lon="11.423067252243044"><ele>825.0</ele><time>2026-05-02T09:15:56.999Z</time></trkpt><trkpt lat="46.271400671616064" lon="11.423133755631177"><ele>820.6</ele><time>2026-05-02T09:15:59.999Z</time></trkpt><trkpt lat="46.27149356811566" lon="11.423169057472263"><ele>816.2</ele><time>2026-05-02T09:16:05.999Z</time></trkpt><trkpt lat="46.27161189517114" lon="11.423216285925662"><ele>811.8</ele><time>2026-05-02T09:16:07.999Z</time></trkpt><trkpt lat="46.271682142443225" lon="11.423225078134548"><ele>807.4</ele><time>2026-05-02T09:16:08.999Z</time></trkpt><trkpt lat="46.271747063082515" lon="11.423232906859111"><ele>803.0</ele><time>2026-05-02T09:16:09.999Z</time></trkpt><trkpt lat="46.27187444984313" lon="11.423284285748636"><ele>803.0</ele><time>2026-05-02T09:16:11.999Z</time></trkpt><trkpt lat="46.271931316056296" lon="11.42332696874999"><ele>803.0</ele><time>2026-05-02T09:16:12.999Z</time></trkpt><trkpt lat="46.27202903323777" lon="11.423404209073622"><ele>803.0</ele><time>2026-05-02T09:16:14.999Z</time></trkpt><trkpt lat="46.272078532511586" lon="11.423463094275537"><ele>803.0</ele><time>2026-05-02T09:16:16.999Z</time></trkpt><trkpt lat="46.27213983953274" lon="11.42333057140535"><ele>803.0</ele><time>2026-05-02T09:16:18.999Z</time></trkpt><trkpt lat="46.272174856818154" lon="11.423154515121322"><ele>803.0</ele><time>2026-05-02T09:16:20.999Z</time></trkpt><trkpt lat="46.27218493321769" lon="11.423028417456509"><ele>803.0</ele><time>2026-05-02T09:16:21.999Z</time></trkpt><trkpt lat="46.272198199376426" lon="11.422898851965217"><ele>803.0</ele><time>2026-05-02T09:16:22.999Z</time></trkpt><trkpt lat="46.27221188310869" lon="11.4227521657628"><ele>803.0</ele><time>2026-05-02T09:16:23.999Z</time></trkpt><trkpt lat="46.272225723345564" lon="11.422598711973333"><ele>803.0</ele><time>2026-05-02T09:16:25Z</time></trkpt><trkpt lat="46.2722423286658" lon="11.4224360419178"><ele>803.2</ele><time>2026-05-02T09:16:26Z</time></trkpt><trkpt lat="46.27225934136155" lon="11.422270134930178"><ele>803.4</ele><time>2026-05-02T09:16:27Z</time></trkpt><trkpt lat="46.27227474875846" lon="11.422112420284977"><ele>803.6</ele><time>2026-05-02T09:16:28Z</time></trkpt><trkpt lat="46.27228988612711" lon="11.421958700856283"><ele>803.8000000000001</ele><time>2026-05-02T09:16:29Z</time></trkpt><trkpt lat="46.27230573450235" lon="11.421804769360609"><ele>804.0</ele><time>2026-05-02T09:16:30Z</time></trkpt><trkpt lat="46.2723208058263" lon="11.42166330148688"><ele>804.2</ele><time>2026-05-02T09:16:31Z</time></trkpt><trkpt lat="46.27233452927093" lon="11.421523488289223"><ele>804.4000000000001</ele><time>2026-05-02T09:16:32Z</time></trkpt><trkpt lat="46.272348794772554" lon="11.42137136010296"><ele>804.6</ele><time>2026-05-02T09:16:33Z</time></trkpt><trkpt lat="46.272366301671205" lon="11.421218400051398"><ele>804.8</ele><time>2026-05-02T09:16:34Z</time></trkpt><trkpt lat="46.27238211444122" lon="11.421060021828088"><ele>805.0</ele><time>2026-05-02T09:16:35Z</time></trkpt><trkpt lat="46.272394815591355" lon="11.420910389785705"><ele>805.1666666666666</ele><time>2026-05-02T09:16:36Z</time></trkpt><trkpt lat="46.27240852355998" lon="11.420771119057326"><ele>805.3333333333333</ele><time>2026-05-02T09:16:37Z</time></trkpt><trkpt lat="46.27242174936802" lon="11.42064092155723"><ele>805.5</ele><time>2026-05-02T09:16:38Z</time></trkpt><trkpt lat="46.27243421685517" lon="11.420519288690338"><ele>805.6666666666667</ele><time>2026-05-02T09:16:39Z</time></trkpt><trkpt lat="46.27244493347213" lon="11.420407635026061"><ele>805.8333333333334</ele><time>2026-05-02T09:16:40Z</time></trkpt><trkpt lat="46.272452072531294" lon="11.420297377631726"><ele>806.0</ele><time>2026-05-02T09:16:41Z</time></trkpt><trkpt lat="46.272459528842255" lon="11.420187038055627"><ele>806.0000000000001</ele><time>2026-05-02T09:16:42Z</time></trkpt><trkpt lat="46.27247051041759" lon="11.420091633920983"><ele>806.0</ele><time>2026-05-02T09:16:43Z</time></trkpt><trkpt lat="46.27248583576289" lon="11.419944886891695"><ele>806.0</ele><time>2026-05-02T09:16:45Z</time></trkpt><trkpt lat="46.27249370244579" lon="11.419824657694349"><ele>806.0</ele><time>2026-05-02T09:16:47Z</time></trkpt><trkpt lat="46.272497014921434" lon="11.41971826785904"><ele>806.0000000000001</ele><time>2026-05-02T09:16:49Z</time></trkpt><trkpt lat="46.27253649975073" lon="11.419641705411257"><ele>806.0</ele><time>2026-05-02T09:16:52Z</time></trkpt><trkpt lat="46.27252891571481" lon="11.419532665117947"><ele>806.0</ele><time>2026-05-02T09:16:57Z</time></trkpt><trkpt lat="46.27253221050492" lon="11.419433050262572"><ele>806.0</ele><time>2026-05-02T09:17:01Z</time></trkpt><trkpt lat="46.272534075235654" lon="11.419329282479792"><ele>806.0</ele><time>2026-05-02T09:25:29.999Z</time></trkpt><trkpt lat="46.272515951686316" lon="11.419420921403992"><ele>806.0</ele><time>2026-05-02T09:25:45.999Z</time></trkpt><trkpt lat="46.27251281048725" lon="11.419515892493028"><ele>806.0</ele><time>2026-05-02T09:26:04.999Z</time></trkpt><trkpt lat="46.27250721311292" lon="11.419637766106952"><ele>806.0</ele><time>2026-05-02T09:26:07.999Z</time></trkpt><trkpt lat="46.27250018526404" lon="11.41976529041851"><ele>806.0</ele><time>2026-05-02T09:26:09.999Z</time></trkpt><trkpt lat="46.27245148861108" lon="11.420008288438723"><ele>806.0000000000001</ele><time>2026-05-02T09:26:10.999Z</time></trkpt><trkpt lat="46.272431527249026" lon="11.420192488149162"><ele>806.0</ele><time>2026-05-02T09:26:13.999Z</time></trkpt><trkpt lat="46.272423192935484" lon="11.420304020578444"><ele>806.0</ele><time>2026-05-02T09:26:14.999Z</time></trkpt><trkpt lat="46.2724130221032" lon="11.420417451045266"><ele>806.0</ele><time>2026-05-02T09:26:15.999Z</time></trkpt><trkpt lat="46.272402625263254" lon="11.42052993908313"><ele>806.0000000000001</ele><time>2026-05-02T09:26:16.999Z</time></trkpt><trkpt lat="46.27239227627516" lon="11.420644953815565"><ele>806.0</ele><time>2026-05-02T09:26:17.999Z</time></trkpt><trkpt lat="46.272382462886554" lon="11.420759585008936"><ele>806.0000000000001</ele><time>2026-05-02T09:26:18.999Z</time></trkpt><trkpt lat="46.27237033878955" lon="11.42087337409368"><ele>806.0</ele><time>2026-05-02T09:26:19.999Z</time></trkpt><trkpt lat="46.27235723055025" lon="11.420988934577785"><ele>806.0</ele><time>2026-05-02T09:26:20.999Z</time></trkpt><trkpt lat="46.27234471184215" lon="11.421110025410574"><ele>806.0</ele><time>2026-05-02T09:26:21.999Z</time></trkpt><trkpt lat="46.27233253181736" lon="11.42124158787806"><ele>806.0000000000001</ele><time>2026-05-02T09:26:22.999Z</time></trkpt><trkpt lat="46.27231896117866" lon="11.421379862516797"><ele>806.0</ele><time>2026-05-02T09:26:23.999Z</time></trkpt><trkpt lat="46.27230387934107" lon="11.421528202408576"><ele>805.75</ele><time>2026-05-02T09:26:24.999Z</time></trkpt><trkpt lat="46.27228896195755" lon="11.421681094781137"><ele>805.5</ele><time>2026-05-02T09:26:25.999Z</time></trkpt><trkpt lat="46.27227511742642" lon="11.421853530909432"><ele>805.25</ele><time>2026-05-02T09:26:26.999Z</time></trkpt><trkpt lat="46.27225706087839" lon="11.422036547272711"><ele>805.0</ele><time>2026-05-02T09:26:27.999Z</time></trkpt><trkpt lat="46.2722386526579" lon="11.422212836938838"><ele>804.8</ele><time>2026-05-02T09:26:28.999Z</time></trkpt><trkpt lat="46.272221435721704" lon="11.422372511127001"><ele>804.6</ele><time>2026-05-02T09:26:29.999Z</time></trkpt><trkpt lat="46.27220538608995" lon="11.422521475948972"><ele>804.4000000000001</ele><time>2026-05-02T09:26:30.999Z</time></trkpt><trkpt lat="46.27219089737424" lon="11.422661086921526"><ele>804.2</ele><time>2026-05-02T09:26:31.999Z</time></trkpt><trkpt lat="46.272180664596554" lon="11.422792963016878"><ele>804.0</ele><time>2026-05-02T09:26:32.999Z</time></trkpt><trkpt lat="46.2721665619901" lon="11.422915765666351"><ele>803.8000000000001</ele><time>2026-05-02T09:26:33.999Z</time></trkpt><trkpt lat="46.27215526948071" lon="11.423011522231608"><ele>803.6</ele><time>2026-05-02T09:26:34.999Z</time></trkpt><trkpt lat="46.27212073759469" lon="11.42315450881477"><ele>803.4</ele><time>2026-05-02T09:26:36.998Z</time></trkpt><trkpt lat="46.272088877836175" lon="11.423261147710324"><ele>803.2</ele><time>2026-05-02T09:26:38.998Z</time></trkpt><trkpt lat="46.271929290218665" lon="11.423242485197408"><ele>803.0</ele><time>2026-05-02T09:26:40.998Z</time></trkpt><trkpt lat="46.27186758324965" lon="11.423198305092455"><ele>803.0000000000001</ele><time>2026-05-02T09:26:41.998Z</time></trkpt><trkpt lat="46.271810583141075" lon="11.423124026632191"><ele>803.0</ele><time>2026-05-02T09:26:42.998Z</time></trkpt><trkpt lat="46.271771415213415" lon="11.42302858856536"><ele>803.0</ele><time>2026-05-02T09:26:43.998Z</time></trkpt><trkpt lat="46.271740940698706" lon="11.422936567560377"><ele>803.0</ele><time>2026-05-02T09:26:44.998Z</time></trkpt><trkpt lat="46.27165219553368" lon="11.422814037966827"><ele>803.0000000000001</ele><time>2026-05-02T09:26:46.998Z</time></trkpt><trkpt lat="46.27158876830914" lon="11.422810219170563"><ele>803.0</ele><time>2026-05-02T09:26:47.998Z</time></trkpt><trkpt lat="46.27152727305855" lon="11.422853767923572"><ele>803.1666666666667</ele><time>2026-05-02T09:26:48.998Z</time></trkpt><trkpt lat="46.271465706444474" lon="11.42288772612691"><ele>803.3333333333334</ele><time>2026-05-02T09:26:49.998Z</time></trkpt><trkpt lat="46.27143160131021" lon="11.423027153149198"><ele>803.5</ele><time>2026-05-02T09:26:50.998Z</time></trkpt><trkpt lat="46.27136309306529" lon="11.42306133904909"><ele>803.6666666666667</ele><time>2026-05-02T09:26:51.998Z</time></trkpt><trkpt lat="46.271293075620214" lon="11.42305799078961"><ele>803.8333333333334</ele><time>2026-05-02T09:26:52.998Z</time></trkpt><trkpt lat="46.27121206970853" lon="11.42301386858208"><ele>804.0</ele><time>2026-05-02T09:26:53.998Z</time></trkpt><trkpt lat="46.271119260259674" lon="11.422966938924661"><ele>808.0</ele><time>2026-05-02T09:26:55Z</time></trkpt><trkpt lat="46.2710272937924" lon="11.422932387015592"><ele>812.0</ele><time>2026-05-02T09:26:56Z</time></trkpt><trkpt lat="46.270939703980424" lon="11.422891189371166"><ele>816.0</ele><time>2026-05-02T09:26:57Z</time></trkpt><trkpt lat="46.27085989787014" lon="11.422829888024818"><ele>820.0</ele><time>2026-05-02T09:26:58Z</time></trkpt><trkpt lat="46.27078981957554" lon="11.422737808208424"><ele>824.0</ele><time>2026-05-02T09:26:59Z</time></trkpt><trkpt lat="46.27073364241944" lon="11.422618272925023"><ele>824.0</ele><time>2026-05-02T09:27:00Z</time></trkpt><trkpt lat="46.27068348616889" lon="11.422478511594854"><ele>824.0</ele><time>2026-05-02T09:27:01Z</time></trkpt><trkpt lat="46.27062912558379" lon="11.422333481723777"><ele>824.0</ele><time>2026-05-02T09:27:02Z</time></trkpt><trkpt lat="46.27058271383027" lon="11.422158951999972"><ele>824.0</ele><time>2026-05-02T09:27:03Z</time></trkpt><trkpt lat="46.27051380649474" lon="11.421982607411861"><ele>831.5</ele><time>2026-05-02T09:27:04Z</time></trkpt><trkpt lat="46.2704417180821" lon="11.421810767891465"><ele>839.0</ele><time>2026-05-02T09:27:05Z</time></trkpt><trkpt lat="46.27036834991149" lon="11.421664737431804"><ele>846.5</ele><time>2026-05-02T09:27:06Z</time></trkpt><trkpt lat="46.27030419245789" lon="11.421510835078488"><ele>854.0</ele><time>2026-05-02T09:27:07Z</time></trkpt><trkpt lat="46.27021960481929" lon="11.421370395213092"><ele>848.75</ele><time>2026-05-02T09:27:08Z</time></trkpt><trkpt lat="46.27012677895643" lon="11.42123342609452"><ele>843.5</ele><time>2026-05-02T09:27:09Z</time></trkpt><trkpt lat="46.27003069761794" lon="11.421084073268938"><ele>838.25</ele><time>2026-05-02T09:27:10Z</time></trkpt><trkpt lat="46.269928843058075" lon="11.420923822909455"><ele>833.0</ele><time>2026-05-02T09:27:11Z</time></trkpt><trkpt lat="46.269819552072235" lon="11.420763414542625"><ele>840.75</ele><time>2026-05-02T09:27:12Z</time></trkpt><trkpt lat="46.26970514298551" lon="11.420607842130476"><ele>848.5</ele><time>2026-05-02T09:27:13Z</time></trkpt><trkpt lat="46.269594223813385" lon="11.420447712532512"><ele>856.25</ele><time>2026-05-02T09:27:14Z</time></trkpt><trkpt lat="46.26951171835009" lon="11.420324698711498"><ele>864.0</ele><time>2026-05-02T09:27:15Z</time></trkpt><trkpt lat="46.269437091875965" lon="11.420209584714607"><ele>864.0</ele><time>2026-05-02T09:27:16Z</time></trkpt><trkpt lat="46.269366055397555" lon="11.420107102610245"><ele>864.0000000000001</ele><time>2026-05-02T09:27:17Z</time></trkpt><trkpt lat="46.269298715210724" lon="11.420003946346478"><ele>864.0000000000001</ele><time>2026-05-02T09:27:18Z</time></trkpt><trkpt lat="46.2692323677235" lon="11.419899377042341"><ele>864.0</ele><time>2026-05-02T09:27:19Z</time></trkpt><trkpt lat="46.269165171149254" lon="11.419787247422478"><ele>864.0</ele><time>2026-05-02T09:27:20Z</time></trkpt><trkpt lat="46.26910615957617" lon="11.419661990964892"><ele>863.4000000000001</ele><time>2026-05-02T09:27:21Z</time></trkpt><trkpt lat="46.26908041873142" lon="11.419514390048361"><ele>862.8000000000001</ele><time>2026-05-02T09:27:22Z</time></trkpt><trkpt lat="46.26908285106059" lon="11.419363190128053"><ele>862.1999999999999</ele><time>2026-05-02T09:27:23Z</time></trkpt><trkpt lat="46.26911194075055" lon="11.419206878365276"><ele>861.5999999999999</ele><time>2026-05-02T09:27:24Z</time></trkpt><trkpt lat="46.269164100688954" lon="11.41906231664851"><ele>861.0</ele><time>2026-05-02T09:27:24.999Z</time></trkpt><trkpt lat="46.26921804764973" lon="11.418922542060765"><ele>861.1999999999999</ele><time>2026-05-02T09:27:25.999Z</time></trkpt><trkpt lat="46.26928111601847" lon="11.418783255789076"><ele>861.3999999999999</ele><time>2026-05-02T09:27:26.999Z</time></trkpt><trkpt lat="46.2692905932545" lon="11.418628164457111"><ele>861.6</ele><time>2026-05-02T09:27:27.999Z</time></trkpt><trkpt lat="46.26928844496682" lon="11.41847321050069"><ele>861.8</ele><time>2026-05-02T09:27:28.999Z</time></trkpt><trkpt lat="46.26925952121748" lon="11.418318207964468"><ele>862.0</ele><time>2026-05-02T09:27:29.999Z</time></trkpt><trkpt lat="46.26921846786533" lon="11.418170109441991"><ele>862.0</ele><time>2026-05-02T09:27:30.999Z</time></trkpt><trkpt lat="46.26912928171151" lon="11.418082090038377"><ele>862.0</ele><time>2026-05-02T09:27:31.999Z</time></trkpt><trkpt lat="46.269039119804674" lon="11.418008090718534"><ele>862.0</ele><time>2026-05-02T09:27:32.999Z</time></trkpt><trkpt lat="46.26893883861254" lon="11.41795863012702"><ele>862.0</ele><time>2026-05-02T09:27:33.999Z</time></trkpt><trkpt lat="46.2688291521004" lon="11.41794830232042"><ele>862.0</ele><time>2026-05-02T09:27:34.999Z</time></trkpt><trkpt lat="46.26870718520026" lon="11.417979523747812"><ele>865.75</ele><time>2026-05-02T09:27:35.999Z</time></trkpt><trkpt lat="46.26857901661115" lon="11.418021386075061"><ele>869.5</ele><time>2026-05-02T09:27:36.999Z</time></trkpt><trkpt lat="46.268441933363945" lon="11.418065430313113"><ele>873.25</ele><time>2026-05-02T09:27:37.999Z</time></trkpt><trkpt lat="46.26831442933396" lon="11.41809084874987"><ele>877.0</ele><time>2026-05-02T09:27:38.999Z</time></trkpt><trkpt lat="46.26818931129207" lon="11.418107197326398"><ele>878.0</ele><time>2026-05-02T09:27:39.999Z</time></trkpt><trkpt lat="46.2680657424956" lon="11.418098322598581"><ele>879.0</ele><time>2026-05-02T09:27:40.999Z</time></trkpt><trkpt lat="46.26794452365619" lon="11.418056418895176"><ele>880.0</ele><time>2026-05-02T09:27:41.999Z</time></trkpt><trkpt lat="46.26781814860024" lon="11.417984537393579"><ele>881.0</ele><time>2026-05-02T09:27:42.999Z</time></trkpt><trkpt lat="46.26767360519637" lon="11.417884432310391"><ele>881.0</ele><time>2026-05-02T09:27:43.999Z</time></trkpt><trkpt lat="46.26750867364577" lon="11.417763982539961"><ele>881.0</ele><time>2026-05-02T09:27:44.999Z</time></trkpt><trkpt lat="46.267354273478716" lon="11.417620420907296"><ele>881.0</ele><time>2026-05-02T09:27:45.999Z</time></trkpt><trkpt lat="46.267190261347636" lon="11.417494155789099"><ele>880.6666666666667</ele><time>2026-05-02T09:27:46.999Z</time></trkpt><trkpt lat="46.26702745582238" lon="11.41737003621858"><ele>880.3333333333333</ele><time>2026-05-02T09:27:47.999Z</time></trkpt><trkpt lat="46.266869088210946" lon="11.417249586775924"><ele>880.0</ele><time>2026-05-02T09:27:48.999Z</time></trkpt><trkpt lat="46.266720913096066" lon="11.41713688932214"><ele>880.0</ele><time>2026-05-02T09:27:49.999Z</time></trkpt><trkpt lat="46.26658740018995" lon="11.417035000275307"><ele>880.0</ele><time>2026-05-02T09:27:50.999Z</time></trkpt><trkpt lat="46.26646163306081" lon="11.416940077981439"><ele>880.0</ele><time>2026-05-02T09:27:51.999Z</time></trkpt><trkpt lat="46.26635086463598" lon="11.416865033738713"><ele>880.0</ele><time>2026-05-02T09:27:52.999Z</time></trkpt><trkpt lat="46.26623950134211" lon="11.41680827125165"><ele>877.25</ele><time>2026-05-02T09:27:53.999Z</time></trkpt><trkpt lat="46.266113670566824" lon="11.41680195573358"><ele>874.5</ele><time>2026-05-02T09:27:54.999Z</time></trkpt><trkpt lat="46.2659879571172" lon="11.416828184564064"><ele>871.75</ele><time>2026-05-02T09:27:55.999Z</time></trkpt><trkpt lat="46.265862664620755" lon="11.416855402653097"><ele>869.0</ele><time>2026-05-02T09:27:56.999Z</time></trkpt><trkpt lat="46.265731246095804" lon="11.416865844817806"><ele>863.25</ele><time>2026-05-02T09:27:57.999Z</time></trkpt><trkpt lat="46.26559305813022" lon="11.416882214170357"><ele>857.5</ele><time>2026-05-02T09:27:58.999Z</time></trkpt><trkpt lat="46.265476254125765" lon="11.416978042498421"><ele>851.75</ele><time>2026-05-02T09:27:59.999Z</time></trkpt><trkpt lat="46.26536393899606" lon="11.41704058140937"><ele>846.0</ele><time>2026-05-02T09:28:00.999Z</time></trkpt><trkpt lat="46.26526176166851" lon="11.4170625281122"><ele>846.0</ele><time>2026-05-02T09:28:01.999Z</time></trkpt><trkpt lat="46.265161711593834" lon="11.417064557302599"><ele>846.0</ele><time>2026-05-02T09:28:02.999Z</time></trkpt><trkpt lat="46.26507866658789" lon="11.417122483557081"><ele>846.0</ele><time>2026-05-02T09:28:03.999Z</time></trkpt><trkpt lat="46.265019632465034" lon="11.41723179487615"><ele>846.0</ele><time>2026-05-02T09:28:04.999Z</time></trkpt><trkpt lat="46.264971618794036" lon="11.417383575594055"><ele>846.0</ele><time>2026-05-02T09:28:05.999Z</time></trkpt><trkpt lat="46.264898185447436" lon="11.417558525121946"><ele>846.75</ele><time>2026-05-02T09:28:06.999Z</time></trkpt><trkpt lat="46.26481379422591" lon="11.41772646967007"><ele>847.5</ele><time>2026-05-02T09:28:07.999Z</time></trkpt><trkpt lat="46.264722484511466" lon="11.417888682284678"><ele>848.25</ele><time>2026-05-02T09:28:08.999Z</time></trkpt><trkpt lat="46.26462758071089" lon="11.418039416116196"><ele>849.0</ele><time>2026-05-02T09:28:09.999Z</time></trkpt><trkpt lat="46.2645144135582" lon="11.41815452406312"><ele>856.5</ele><time>2026-05-02T09:28:10.999Z</time></trkpt><trkpt lat="46.26441414476037" lon="11.418249737545885"><ele>864.0</ele><time>2026-05-02T09:28:11.999Z</time></trkpt><trkpt lat="46.264336039089706" lon="11.418367438583692"><ele>871.5</ele><time>2026-05-02T09:28:12.999Z</time></trkpt><trkpt lat="46.26428597833732" lon="11.418545155053051"><ele>879.0</ele><time>2026-05-02T09:28:13.999Z</time></trkpt><trkpt lat="46.26422887116656" lon="11.418727239986596"><ele>884.25</ele><time>2026-05-02T09:28:14.999Z</time></trkpt><trkpt lat="46.26415460028733" lon="11.418901082765137"><ele>889.5</ele><time>2026-05-02T09:28:15.999Z</time></trkpt><trkpt lat="46.26405370001698" lon="11.419033148953185"><ele>894.75</ele><time>2026-05-02T09:28:16.999Z</time></trkpt><trkpt lat="46.26393047892014" lon="11.419123502907839"><ele>900.0</ele><time>2026-05-02T09:28:17.999Z</time></trkpt><trkpt lat="46.26379536805778" lon="11.419175034461631"><ele>900.0</ele><time>2026-05-02T09:28:18.999Z</time></trkpt><trkpt lat="46.26366038818556" lon="11.419199325579209"><ele>900.0</ele><time>2026-05-02T09:28:19.999Z</time></trkpt><trkpt lat="46.263529227916145" lon="11.419210719994021"><ele>900.0</ele><time>2026-05-02T09:28:20.999Z</time></trkpt><trkpt lat="46.26339764427028" lon="11.41921571656995"><ele>900.0</ele><time>2026-05-02T09:28:21.999Z</time></trkpt><trkpt lat="46.26323658214776" lon="11.419221788411608"><ele>905.5</ele><time>2026-05-02T09:28:22.999Z</time></trkpt><trkpt lat="46.26306438331621" lon="11.41923255015345"><ele>911.0</ele><time>2026-05-02T09:28:23.999Z</time></trkpt><trkpt lat="46.26291443678962" lon="11.41923446650126"><ele>916.5</ele><time>2026-05-02T09:28:24.999Z</time></trkpt><trkpt lat="46.26279598122687" lon="11.41917462643378"><ele>922.0</ele><time>2026-05-02T09:28:25.999Z</time></trkpt><trkpt lat="46.26270712378569" lon="11.419109521043513"><ele>922.0</ele><time>2026-05-02T09:28:26.999Z</time></trkpt><trkpt lat="46.26269228165334" lon="11.41899886730889"><ele>922.0</ele><time>2026-05-02T09:28:27.999Z</time></trkpt><trkpt lat="46.26267257546941" lon="11.418880087936145"><ele>922.0</ele><time>2026-05-02T09:28:28.999Z</time></trkpt><trkpt lat="46.26264817073517" lon="11.418731718036042"><ele>922.0</ele><time>2026-05-02T09:28:29.999Z</time></trkpt><trkpt lat="46.26261194986586" lon="11.418584189846207"><ele>922.0</ele><time>2026-05-02T09:28:30.999Z</time></trkpt><trkpt lat="46.26255332863738" lon="11.418438545453853"><ele>916.75</ele><time>2026-05-02T09:28:31.999Z</time></trkpt><trkpt lat="46.262460774800886" lon="11.41831803652979"><ele>911.5</ele><time>2026-05-02T09:28:32.999Z</time></trkpt><trkpt lat="46.26237132060661" lon="11.41820208667778"><ele>906.25</ele><time>2026-05-02T09:28:33.999Z</time></trkpt><trkpt lat="46.262282449847476" lon="11.418084385953845"><ele>901.0</ele><time>2026-05-02T09:28:34.999Z</time></trkpt><trkpt lat="46.26218276428934" lon="11.418012665776322"><ele>901.0</ele><time>2026-05-02T09:28:35.999Z</time></trkpt><trkpt lat="46.26209761206658" lon="11.417958869597943"><ele>900.9999999999999</ele><time>2026-05-02T09:28:36.999Z</time></trkpt><trkpt lat="46.26201451618045" lon="11.41793938584054"><ele>900.9999999999999</ele><time>2026-05-02T09:28:37.999Z</time></trkpt><trkpt lat="46.261933867214076" lon="11.417987042962924"><ele>901.0</ele><time>2026-05-02T09:28:38.999Z</time></trkpt><trkpt lat="46.26186750319705" lon="11.41809368091315"><ele>901.0</ele><time>2026-05-02T09:28:39.999Z</time></trkpt><trkpt lat="46.261803126876934" lon="11.418249408343097"><ele>901.0</ele><time>2026-05-02T09:28:40.999Z</time></trkpt><trkpt lat="46.26172260268643" lon="11.418432277934455"><ele>901.0</ele><time>2026-05-02T09:28:41.999Z</time></trkpt><trkpt lat="46.26163566617968" lon="11.418616558282396"><ele>901.0</ele><time>2026-05-02T09:28:42.999Z</time></trkpt><trkpt lat="46.26153854498563" lon="11.418784783921202"><ele>903.5</ele><time>2026-05-02T09:28:43.999Z</time></trkpt><trkpt lat="46.261435932009476" lon="11.418911435777305"><ele>906.0</ele><time>2026-05-02T09:28:44.999Z</time></trkpt><trkpt lat="46.261319122002" lon="11.419014904297846"><ele>908.5</ele><time>2026-05-02T09:28:45.999Z</time></trkpt><trkpt lat="46.26118942334271" lon="11.41908340557585"><ele>911.0</ele><time>2026-05-02T09:28:46.999Z</time></trkpt><trkpt lat="46.26105060155975" lon="11.419127421535682"><ele>911.0</ele><time>2026-05-02T09:28:47.999Z</time></trkpt><trkpt lat="46.26090658077294" lon="11.419146173334692"><ele>911.0</ele><time>2026-05-02T09:28:48.999Z</time></trkpt><trkpt lat="46.260773394822" lon="11.419126075213649"><ele>911.0</ele><time>2026-05-02T09:28:49.999Z</time></trkpt><trkpt lat="46.26065099950482" lon="11.419087636937522"><ele>911.0</ele><time>2026-05-02T09:28:50.999Z</time></trkpt><trkpt lat="46.260535210984564" lon="11.419102219604435"><ele>910.0</ele><time>2026-05-02T09:28:51.999Z</time></trkpt><trkpt lat="46.260431862515986" lon="11.419157298053884"><ele>908.9999999999999</ele><time>2026-05-02T09:28:52.999Z</time></trkpt><trkpt lat="46.26035417338163" lon="11.419265757240586"><ele>907.9999999999999</ele><time>2026-05-02T09:28:53.999Z</time></trkpt><trkpt lat="46.260266302900355" lon="11.419352983960119"><ele>907.0</ele><time>2026-05-02T09:28:54.999Z</time></trkpt><trkpt lat="46.260172475831226" lon="11.419369340578772"><ele>906.0</ele><time>2026-05-02T09:28:55.999Z</time></trkpt><trkpt lat="46.26008032516332" lon="11.41933416241005"><ele>906.0</ele><time>2026-05-02T09:28:56.998Z</time></trkpt><trkpt lat="46.259981230144334" lon="11.419258134349048"><ele>906.0</ele><time>2026-05-02T09:28:57.998Z</time></trkpt><trkpt lat="46.259874098733356" lon="11.419195356918756"><ele>906.0</ele><time>2026-05-02T09:28:58.998Z</time></trkpt><trkpt lat="46.2597625612007" lon="11.419182263516237"><ele>906.0</ele><time>2026-05-02T09:29:00Z</time></trkpt><trkpt lat="46.25964310950047" lon="11.419202594794758"><ele>904.5</ele><time>2026-05-02T09:29:01Z</time></trkpt><trkpt lat="46.25952683661241" lon="11.419239172269192"><ele>903.0</ele><time>2026-05-02T09:29:02Z</time></trkpt><trkpt lat="46.259423060555285" lon="11.419324093378163"><ele>901.5</ele><time>2026-05-02T09:29:03Z</time></trkpt><trkpt lat="46.25933216157678" lon="11.419455413890203"><ele>900.0</ele><time>2026-05-02T09:29:04Z</time></trkpt><trkpt lat="46.25923036707487" lon="11.41957673017936"><ele>908.25</ele><time>2026-05-02T09:29:05Z</time></trkpt><trkpt lat="46.25913568839696" lon="11.419678027165933"><ele>916.5</ele><time>2026-05-02T09:29:06Z</time></trkpt><trkpt lat="46.259016145725035" lon="11.41972177650734"><ele>924.75</ele><time>2026-05-02T09:29:07Z</time></trkpt><trkpt lat="46.25885588141217" lon="11.419765135818203"><ele>933.0</ele><time>2026-05-02T09:29:08Z</time></trkpt><trkpt lat="46.258674303769865" lon="11.41980702170833"><ele>933.0</ele><time>2026-05-02T09:29:09Z</time></trkpt><trkpt lat="46.25849297315057" lon="11.419864637658264"><ele>933.0</ele><time>2026-05-02T09:29:10Z</time></trkpt><trkpt lat="46.258307884026195" lon="11.41989274155821"><ele>933.0</ele><time>2026-05-02T09:29:11Z</time></trkpt><trkpt lat="46.25812715033869" lon="11.419906265642053"><ele>934.0</ele><time>2026-05-02T09:29:12Z</time></trkpt><trkpt lat="46.257955713909844" lon="11.419898675185358"><ele>935.0</ele><time>2026-05-02T09:29:13Z</time></trkpt><trkpt lat="46.257799975656084" lon="11.419869456856958"><ele>936.0</ele><time>2026-05-02T09:29:14Z</time></trkpt><trkpt lat="46.25764650158225" lon="11.41980087456048"><ele>936.0</ele><time>2026-05-02T09:29:15Z</time></trkpt><trkpt lat="46.25747566838701" lon="11.419784828648634"><ele>936.0</ele><time>2026-05-02T09:29:16Z</time></trkpt><trkpt lat="46.25732671683895" lon="11.419757883441966"><ele>936.0</ele><time>2026-05-02T09:29:17Z</time></trkpt><trkpt lat="46.25719446005284" lon="11.419747706196729"><ele>935.5999999999999</ele><time>2026-05-02T09:29:18Z</time></trkpt><trkpt lat="46.25708645887199" lon="11.41971487414095"><ele>935.1999999999999</ele><time>2026-05-02T09:29:19Z</time></trkpt><trkpt lat="46.25698615735721" lon="11.419744621347032"><ele>934.8000000000001</ele><time>2026-05-02T09:29:20Z</time></trkpt><trkpt lat="46.25689208105047" lon="11.419828131560156"><ele>934.4000000000001</ele><time>2026-05-02T09:29:21Z</time></trkpt><trkpt lat="46.25680656868506" lon="11.419885305677946"><ele>934.0</ele><time>2026-05-02T09:29:22Z</time></trkpt><trkpt lat="46.25673113155216" lon="11.419883637002439"><ele>934.0</ele><time>2026-05-02T09:29:23Z</time></trkpt><trkpt lat="46.25664460936433" lon="11.419830203603215"><ele>934.0000000000001</ele><time>2026-05-02T09:29:24Z</time></trkpt><trkpt lat="46.25656137165453" lon="11.419712427483669"><ele>934.0000000000001</ele><time>2026-05-02T09:29:25Z</time></trkpt><trkpt lat="46.256469710568126" lon="11.41957620298161"><ele>934.0</ele><time>2026-05-02T09:29:25.999Z</time></trkpt><trkpt lat="46.25638723922487" lon="11.419477281381182"><ele>934.0</ele><time>2026-05-02T09:29:26.999Z</time></trkpt><trkpt lat="46.25627911556532" lon="11.419403241979062"><ele>929.0</ele><time>2026-05-02T09:29:27.999Z</time></trkpt><trkpt lat="46.25613460200527" lon="11.419354853863968"><ele>924.0</ele><time>2026-05-02T09:29:28.999Z</time></trkpt><trkpt lat="46.255979785744145" lon="11.419327820629308"><ele>919.0</ele><time>2026-05-02T09:29:29.999Z</time></trkpt><trkpt lat="46.2558143554357" lon="11.419308814404625"><ele>919.0</ele><time>2026-05-02T09:29:30.999Z</time></trkpt><trkpt lat="46.25564434645823" lon="11.419283157017906"><ele>919.0</ele><time>2026-05-02T09:29:31.999Z</time></trkpt><trkpt lat="46.255479047715106" lon="11.419255672627134"><ele>919.0</ele><time>2026-05-02T09:29:32.999Z</time></trkpt><trkpt lat="46.25533444962472" lon="11.419220125389359"><ele>924.5</ele><time>2026-05-02T09:29:33.999Z</time></trkpt><trkpt lat="46.255207608052" lon="11.419179676393435"><ele>930.0</ele><time>2026-05-02T09:29:34.999Z</time></trkpt><trkpt lat="46.255084228362456" lon="11.419098411868"><ele>935.5</ele><time>2026-05-02T09:29:35.999Z</time></trkpt><trkpt lat="46.254959037248256" lon="11.418977229194908"><ele>941.0</ele><time>2026-05-02T09:29:36.999Z</time></trkpt><trkpt lat="46.25483303103813" lon="11.418882186556168"><ele>938.75</ele><time>2026-05-02T09:29:37.999Z</time></trkpt><trkpt lat="46.25471307694986" lon="11.418778067357637"><ele>936.5</ele><time>2026-05-02T09:29:38.999Z</time></trkpt><trkpt lat="46.25459125584061" lon="11.418679075754648"><ele>934.25</ele><time>2026-05-02T09:29:39.999Z</time></trkpt><trkpt lat="46.25445933519165" lon="11.418601150448096"><ele>932.0</ele><time>2026-05-02T09:29:40.999Z</time></trkpt><trkpt lat="46.25431014793048" lon="11.418525341321281"><ele>932.0</ele><time>2026-05-02T09:29:41.999Z</time></trkpt><trkpt lat="46.25416404272766" lon="11.41845010699283"><ele>932.0</ele><time>2026-05-02T09:29:42.999Z</time></trkpt><trkpt lat="46.25401893366838" lon="11.41837489902392"><ele>932.0</ele><time>2026-05-02T09:29:43.999Z</time></trkpt><trkpt lat="46.25387566039138" lon="11.418300432482303"><ele>939.5</ele><time>2026-05-02T09:29:44.999Z</time></trkpt><trkpt lat="46.25374059652993" lon="11.418237341499445"><ele>947.0</ele><time>2026-05-02T09:29:45.999Z</time></trkpt><trkpt lat="46.25361468128632" lon="11.418177990522512"><ele>954.5</ele><time>2026-05-02T09:29:46.999Z</time></trkpt><trkpt lat="46.25348171161452" lon="11.418170139650414"><ele>962.0</ele><time>2026-05-02T09:29:47.999Z</time></trkpt><trkpt lat="46.25335793405155" lon="11.41815729319374"><ele>962.0</ele><time>2026-05-02T09:29:48.999Z</time></trkpt><trkpt lat="46.25324577404789" lon="11.418099090878426"><ele>962.0</ele><time>2026-05-02T09:29:49.999Z</time></trkpt><trkpt lat="46.253120629703375" lon="11.418037881849699"><ele>962.0</ele><time>2026-05-02T09:29:50.999Z</time></trkpt><trkpt lat="46.25300755745587" lon="11.417927745219473"><ele>962.0</ele><time>2026-05-02T09:29:51.999Z</time></trkpt><trkpt lat="46.25288650900151" lon="11.417798220203089"><ele>956.75</ele><time>2026-05-02T09:29:52.999Z</time></trkpt><trkpt lat="46.25277081885306" lon="11.417669293435086"><ele>951.5</ele><time>2026-05-02T09:29:53.999Z</time></trkpt><trkpt lat="46.25265443450565" lon="11.417588182473988"><ele>946.25</ele><time>2026-05-02T09:29:54.999Z</time></trkpt><trkpt lat="46.252537956805995" lon="11.417491672991904"><ele>941.0</ele><time>2026-05-02T09:29:55.999Z</time></trkpt><trkpt lat="46.252423056213765" lon="11.41741685001102"><ele>949.0</ele><time>2026-05-02T09:29:56.999Z</time></trkpt><trkpt lat="46.25228112405817" lon="11.417354470602664"><ele>957.0</ele><time>2026-05-02T09:29:57.999Z</time></trkpt><trkpt lat="46.25215308621825" lon="11.417298810064347"><ele>965.0</ele><time>2026-05-02T09:29:58.999Z</time></trkpt><trkpt lat="46.25202671914211" lon="11.417243875831511"><ele>973.0</ele><time>2026-05-02T09:29:59.999Z</time></trkpt><trkpt lat="46.25178933843169" lon="11.417212724443793"><ele>973.0</ele><time>2026-05-02T09:30:00.999Z</time></trkpt><trkpt lat="46.251645552816164" lon="11.41715293853155"><ele>973.0</ele><time>2026-05-02T09:30:01.999Z</time></trkpt><trkpt lat="46.25150644393905" lon="11.417082987204369"><ele>973.0</ele><time>2026-05-02T09:30:02.999Z</time></trkpt><trkpt lat="46.25136494517543" lon="11.417018843106751"><ele>973.0</ele><time>2026-05-02T09:30:03.999Z</time></trkpt><trkpt lat="46.251216841112445" lon="11.416953416325311"><ele>968.75</ele><time>2026-05-02T09:30:04.999Z</time></trkpt><trkpt lat="46.251067439582066" lon="11.416909018175398"><ele>964.5</ele><time>2026-05-02T09:30:05.999Z</time></trkpt><trkpt lat="46.25092105579971" lon="11.416864260123942"><ele>960.25</ele><time>2026-05-02T09:30:06.999Z</time></trkpt><trkpt lat="46.25078481164274" lon="11.416795926783786"><ele>956.0</ele><time>2026-05-02T09:30:07.999Z</time></trkpt><trkpt lat="46.25065661487484" lon="11.416716393275397"><ele>953.25</ele><time>2026-05-02T09:30:08.999Z</time></trkpt><trkpt lat="46.250542684904225" lon="11.416615084686327"><ele>950.5</ele><time>2026-05-02T09:30:09.999Z</time></trkpt><trkpt lat="46.25041943967562" lon="11.416507132207618"><ele>947.75</ele><time>2026-05-02T09:30:10.999Z</time></trkpt><trkpt lat="46.25028601997476" lon="11.416405875158393"><ele>945.0</ele><time>2026-05-02T09:30:11.999Z</time></trkpt><trkpt lat="46.25013748040849" lon="11.416307334792506"><ele>945.0</ele><time>2026-05-02T09:30:12.999Z</time></trkpt><trkpt lat="46.249982518709736" lon="11.41622400155523"><ele>945.0</ele><time>2026-05-02T09:30:13.999Z</time></trkpt><trkpt lat="46.24983484235961" lon="11.416121164658906"><ele>945.0</ele><time>2026-05-02T09:30:14.999Z</time></trkpt><trkpt lat="46.24967716839375" lon="11.415995118265197"><ele>955.3333333333333</ele><time>2026-05-02T09:30:15.999Z</time></trkpt><trkpt lat="46.24950713173947" lon="11.415908435141118"><ele>965.6666666666666</ele><time>2026-05-02T09:30:16.999Z</time></trkpt><trkpt lat="46.2493117044104" lon="11.415828195501716"><ele>976.0</ele><time>2026-05-02T09:30:17.999Z</time></trkpt><trkpt lat="46.24914864193854" lon="11.415732832204725"><ele>976.0</ele><time>2026-05-02T09:30:18.999Z</time></trkpt><trkpt lat="46.24900413894209" lon="11.415607363458195"><ele>976.0</ele><time>2026-05-02T09:30:19.999Z</time></trkpt><trkpt lat="46.24887016384661" lon="11.415485881498407"><ele>976.0</ele><time>2026-05-02T09:30:20.999Z</time></trkpt><trkpt lat="46.248745364952455" lon="11.415390361637916"><ele>969.75</ele><time>2026-05-02T09:30:21.999Z</time></trkpt><trkpt lat="46.248646443241284" lon="11.415363808444422"><ele>963.5</ele><time>2026-05-02T09:30:22.999Z</time></trkpt><trkpt lat="46.24853163423683" lon="11.415348729352043"><ele>957.25</ele><time>2026-05-02T09:30:23.999Z</time></trkpt><trkpt lat="46.248412405089624" lon="11.415372618774146"><ele>951.0</ele><time>2026-05-02T09:30:24.999Z</time></trkpt><trkpt lat="46.2482810134009" lon="11.415409440204536"><ele>956.6666666666667</ele><time>2026-05-02T09:30:25.999Z</time></trkpt><trkpt lat="46.248136783441865" lon="11.415494019636377"><ele>962.3333333333334</ele><time>2026-05-02T09:30:26.999Z</time></trkpt><trkpt lat="46.247968089711826" lon="11.415586342261314"><ele>968.0</ele><time>2026-05-02T09:30:27.999Z</time></trkpt><trkpt lat="46.24779433244762" lon="11.415696207586125"><ele>968.0</ele><time>2026-05-02T09:30:28.999Z</time></trkpt><trkpt lat="46.247617099051965" lon="11.415794910873295"><ele>968.0</ele><time>2026-05-02T09:30:29.999Z</time></trkpt><trkpt lat="46.24744354447122" lon="11.41589777969198"><ele>968.0</ele><time>2026-05-02T09:30:30.999Z</time></trkpt><trkpt lat="46.24726573750579" lon="11.41599068032175"><ele>967.6666666666667</ele><time>2026-05-02T09:30:31.999Z</time></trkpt><trkpt lat="46.247090185618625" lon="11.416086170846032"><ele>967.3333333333333</ele><time>2026-05-02T09:30:32.999Z</time></trkpt><trkpt lat="46.24692436545968" lon="11.416185087030263"><ele>967.0</ele><time>2026-05-02T09:30:33.999Z</time></trkpt><trkpt lat="46.246777148956426" lon="11.416264989385956"><ele>972.5</ele><time>2026-05-02T09:30:34.999Z</time></trkpt><trkpt lat="46.24664662831769" lon="11.416332753525205"><ele>978.0</ele><time>2026-05-02T09:30:35.999Z</time></trkpt><trkpt lat="46.24651892202317" lon="11.4164008945143"><ele>983.5</ele><time>2026-05-02T09:30:36.999Z</time></trkpt><trkpt lat="46.24638986113065" lon="11.416464159100283"><ele>989.0</ele><time>2026-05-02T09:30:37.999Z</time></trkpt><trkpt lat="46.2462538971716" lon="11.4164862624995"><ele>989.0</ele><time>2026-05-02T09:30:38.999Z</time></trkpt><trkpt lat="46.24612830147937" lon="11.416427518742811"><ele>989.0</ele><time>2026-05-02T09:30:39.999Z</time></trkpt><trkpt lat="46.245999374434625" lon="11.416365320831831"><ele>989.0</ele><time>2026-05-02T09:30:40.999Z</time></trkpt><trkpt lat="46.245854305781805" lon="11.416319260819579"><ele>989.0</ele><time>2026-05-02T09:30:41.999Z</time></trkpt><trkpt lat="46.24571703430336" lon="11.416249635650912"><ele>983.5</ele><time>2026-05-02T09:30:42.999Z</time></trkpt><trkpt lat="46.24558307524093" lon="11.416197553406077"><ele>978.0</ele><time>2026-05-02T09:30:43.999Z</time></trkpt><trkpt lat="46.2454608332969" lon="11.416165006991498"><ele>972.5</ele><time>2026-05-02T09:30:44.999Z</time></trkpt><trkpt lat="46.24534064565847" lon="11.416149314745715"><ele>967.0</ele><time>2026-05-02T09:30:45.999Z</time></trkpt><trkpt lat="46.245215810873425" lon="11.416186988601568"><ele>967.0</ele><time>2026-05-02T09:30:46.999Z</time></trkpt><trkpt lat="46.24509160472723" lon="11.41626252139534"><ele>967.0</ele><time>2026-05-02T09:30:47.999Z</time></trkpt><trkpt lat="46.24498710188992" lon="11.41639763912778"><ele>967.0</ele><time>2026-05-02T09:30:48.999Z</time></trkpt><trkpt lat="46.244888262539824" lon="11.41655499721733"><ele>967.0</ele><time>2026-05-02T09:30:49.999Z</time></trkpt><trkpt lat="46.24477489813509" lon="11.416712991580946"><ele>971.3333333333333</ele><time>2026-05-02T09:30:50.999Z</time></trkpt><trkpt lat="46.244648176173435" lon="11.416867419237663"><ele>975.6666666666667</ele><time>2026-05-02T09:30:51.999Z</time></trkpt><trkpt lat="46.24451791427231" lon="11.417032452828465"><ele>980.0</ele><time>2026-05-02T09:30:52.999Z</time></trkpt><trkpt lat="46.24440166101754" lon="11.417180334271322"><ele>983.25</ele><time>2026-05-02T09:30:53.999Z</time></trkpt><trkpt lat="46.24428951528923" lon="11.41729821102756"><ele>986.5</ele><time>2026-05-02T09:30:54.999Z</time></trkpt><trkpt lat="46.24414400744716" lon="11.417315014021204"><ele>989.75</ele><time>2026-05-02T09:30:55.998Z</time></trkpt><trkpt lat="46.244000383660996" lon="11.417325370394863"><ele>993.0</ele><time>2026-05-02T09:30:56.998Z</time></trkpt><trkpt lat="46.243836028512966" lon="11.41735000918312"><ele>993.0</ele><time>2026-05-02T09:30:57.998Z</time></trkpt><trkpt lat="46.243691496814456" lon="11.417368642973075"><ele>993.0</ele><time>2026-05-02T09:30:58.998Z</time></trkpt><trkpt lat="46.24355523474628" lon="11.417435904175413"><ele>993.0</ele><time>2026-05-02T09:30:59.998Z</time></trkpt><trkpt lat="46.243449233690846" lon="11.417598740335213"><ele>993.0</ele><time>2026-05-02T09:31:00.998Z</time></trkpt><trkpt lat="46.24331587550587" lon="11.417731010068998"><ele>993.0</ele><time>2026-05-02T09:31:01.998Z</time></trkpt><trkpt lat="46.24317091446916" lon="11.417790535991465"><ele>993.0</ele><time>2026-05-02T09:31:02.998Z</time></trkpt><trkpt lat="46.24301524861479" lon="11.417821435745186"><ele>993.0</ele><time>2026-05-02T09:31:03.998Z</time></trkpt><trkpt lat="46.242850574335435" lon="11.41784873002775"><ele>993.6666666666667</ele><time>2026-05-02T09:31:04.998Z</time></trkpt><trkpt lat="46.24267303379942" lon="11.41789139269413"><ele>994.3333333333334</ele><time>2026-05-02T09:31:06Z</time></trkpt><trkpt lat="46.24251573581441" lon="11.417991496348133"><ele>995.0</ele><time>2026-05-02T09:31:07Z</time></trkpt><trkpt lat="46.242359977442234" lon="11.418096611432336"><ele>1005.6666666666667</ele><time>2026-05-02T09:31:07.999Z</time></trkpt><trkpt lat="46.242193347202154" lon="11.41815994904956"><ele>1016.3333333333333</ele><time>2026-05-02T09:31:08.999Z</time></trkpt><trkpt lat="46.24203598788745" lon="11.418209393396515"><ele>1027.0</ele><time>2026-05-02T09:31:09.999Z</time></trkpt><trkpt lat="46.24188205844307" lon="11.418238262130226"><ele>1027.0</ele><time>2026-05-02T09:31:10.999Z</time></trkpt><trkpt lat="46.2417298719094" lon="11.418256590953971"><ele>1027.0</ele><time>2026-05-02T09:31:11.999Z</time></trkpt><trkpt lat="46.241574756440464" lon="11.41825678225275"><ele>1027.0</ele><time>2026-05-02T09:31:12.999Z</time></trkpt><trkpt lat="46.241431563969876" lon="11.418244167526163"><ele>1028.5</ele><time>2026-05-02T09:31:13.999Z</time></trkpt><trkpt lat="46.24129161877318" lon="11.418212974726863"><ele>1030.0</ele><time>2026-05-02T09:31:14.999Z</time></trkpt><trkpt lat="46.24115380321164" lon="11.41817072930958"><ele>1031.5</ele><time>2026-05-02T09:31:15.999Z</time></trkpt><trkpt lat="46.24102086470263" lon="11.418125781279821"><ele>1033.0</ele><time>2026-05-02T09:31:16.999Z</time></trkpt><trkpt lat="46.240897528719" lon="11.418089398570359"><ele>1033.0</ele><time>2026-05-02T09:31:17.999Z</time></trkpt><trkpt lat="46.240771031818696" lon="11.418073633445065"><ele>1033.0</ele><time>2026-05-02T09:31:18.999Z</time></trkpt><trkpt lat="46.24064707379256" lon="11.418088691323902"><ele>1033.0</ele><time>2026-05-02T09:31:19.999Z</time></trkpt><trkpt lat="46.240529421251026" lon="11.41813227396093"><ele>1033.0</ele><time>2026-05-02T09:31:20.999Z</time></trkpt><trkpt lat="46.24042673452422" lon="11.418236702070883"><ele>1036.0</ele><time>2026-05-02T09:31:21.999Z</time></trkpt><trkpt lat="46.240319139061405" lon="11.418359943433712"><ele>1039.0</ele><time>2026-05-02T09:31:22.999Z</time></trkpt><trkpt lat="46.2402218020245" lon="11.418505196055698"><ele>1042.0</ele><time>2026-05-02T09:31:23.999Z</time></trkpt><trkpt lat="46.240128844255395" lon="11.418631821468065"><ele>1045.0</ele><time>2026-05-02T09:31:24.999Z</time></trkpt><trkpt lat="46.24002527011296" lon="11.41875196630343"><ele>1045.6666666666665</ele><time>2026-05-02T09:31:25.999Z</time></trkpt><trkpt lat="46.23989724377621" lon="11.418861072348122"><ele>1046.3333333333333</ele><time>2026-05-02T09:31:26.999Z</time></trkpt><trkpt lat="46.239744499903814" lon="11.418952553712224"><ele>1047.0</ele><time>2026-05-02T09:31:27.999Z</time></trkpt><trkpt lat="46.23957473548313" lon="11.419016662631194"><ele>1047.0</ele><time>2026-05-02T09:31:28.999Z</time></trkpt><trkpt lat="46.23941403016474" lon="11.419102443988393"><ele>1047.0</ele><time>2026-05-02T09:31:29.999Z</time></trkpt><trkpt lat="46.23925633460765" lon="11.419186624058103"><ele>1047.0</ele><time>2026-05-02T09:31:30.999Z</time></trkpt><trkpt lat="46.23910505695419" lon="11.419286536146222"><ele>1049.0</ele><time>2026-05-02T09:31:31.999Z</time></trkpt><trkpt lat="46.23895456692309" lon="11.419342833363125"><ele>1051.0</ele><time>2026-05-02T09:31:32.999Z</time></trkpt><trkpt lat="46.23881248987632" lon="11.419339208534735"><ele>1053.0</ele><time>2026-05-02T09:31:33.999Z</time></trkpt><trkpt lat="46.23865744578267" lon="11.419312330641977"><ele>1053.0</ele><time>2026-05-02T09:31:34.999Z</time></trkpt><trkpt lat="46.23849226883509" lon="11.419298915483536"><ele>1053.0</ele><time>2026-05-02T09:31:35.999Z</time></trkpt><trkpt lat="46.23831710960312" lon="11.41925407121577"><ele>1053.0</ele><time>2026-05-02T09:31:36.999Z</time></trkpt><trkpt lat="46.238126370919325" lon="11.419217313116134"><ele>1056.3333333333333</ele><time>2026-05-02T09:31:37.999Z</time></trkpt><trkpt lat="46.237932655173175" lon="11.419175918717128"><ele>1059.6666666666665</ele><time>2026-05-02T09:31:38.999Z</time></trkpt><trkpt lat="46.237727758962066" lon="11.41915781814871"><ele>1063.0</ele><time>2026-05-02T09:31:39.999Z</time></trkpt><trkpt lat="46.237516540530315" lon="11.41915525819498"><ele>1063.0</ele><time>2026-05-02T09:31:40.999Z</time></trkpt><trkpt lat="46.23730709009819" lon="11.419144396568921"><ele>1063.0</ele><time>2026-05-02T09:31:41.999Z</time></trkpt><trkpt lat="46.237100283154085" lon="11.4191494944584"><ele>1063.0</ele><time>2026-05-02T09:31:42.999Z</time></trkpt><trkpt lat="46.236901163251204" lon="11.419181452127582"><ele>1062.0</ele><time>2026-05-02T09:31:43.999Z</time></trkpt><trkpt lat="46.23671438243666" lon="11.419192381476464"><ele>1061.0</ele><time>2026-05-02T09:31:44.999Z</time></trkpt><trkpt lat="46.23653659135877" lon="11.419215939469815"><ele>1060.0</ele><time>2026-05-02T09:31:45.999Z</time></trkpt><trkpt lat="46.236355362015004" lon="11.41924450169019"><ele>1060.0</ele><time>2026-05-02T09:31:46.999Z</time></trkpt><trkpt lat="46.236168847764915" lon="11.419276540423716"><ele>1060.0</ele><time>2026-05-02T09:31:47.999Z</time></trkpt><trkpt lat="46.235976947458504" lon="11.419308391857466"><ele>1060.0</ele><time>2026-05-02T09:31:48.999Z</time></trkpt><trkpt lat="46.23577780905448" lon="11.419347888839228"><ele>1060.6666666666665</ele><time>2026-05-02T09:31:49.999Z</time></trkpt><trkpt lat="46.23558075480295" lon="11.419384909511653"><ele>1061.3333333333333</ele><time>2026-05-02T09:31:50.999Z</time></trkpt><trkpt lat="46.23538571854057" lon="11.419420699781567"><ele>1062.0</ele><time>2026-05-02T09:31:51.999Z</time></trkpt><trkpt lat="46.23519479875053" lon="11.41944902361862"><ele>1062.0</ele><time>2026-05-02T09:31:52.999Z</time></trkpt><trkpt lat="46.23500284530093" lon="11.419466658070187"><ele>1062.0</ele><time>2026-05-02T09:31:53.999Z</time></trkpt><trkpt lat="46.23481226913515" lon="11.419443936498816"><ele>1062.0</ele><time>2026-05-02T09:31:54.999Z</time></trkpt><trkpt lat="46.234623568510756" lon="11.419433903081226"><ele>1064.0</ele><time>2026-05-02T09:31:55.999Z</time></trkpt><trkpt lat="46.23443778895894" lon="11.419423978889322"><ele>1066.0</ele><time>2026-05-02T09:31:56.999Z</time></trkpt><trkpt lat="46.23424955416213" lon="11.419436664946568"><ele>1068.0</ele><time>2026-05-02T09:31:57.999Z</time></trkpt><trkpt lat="46.234061658939325" lon="11.419402163830258"><ele>1072.6666666666667</ele><time>2026-05-02T09:31:58.999Z</time></trkpt><trkpt lat="46.23387560679889" lon="11.41937706146037"><ele>1077.3333333333335</ele><time>2026-05-02T09:31:59.999Z</time></trkpt><trkpt lat="46.23369537992935" lon="11.419338243424862"><ele>1082.0</ele><time>2026-05-02T09:32:00.999Z</time></trkpt><trkpt lat="46.23350701372629" lon="11.419275475136129"><ele>1082.0</ele><time>2026-05-02T09:32:01.999Z</time></trkpt><trkpt lat="46.233328468222524" lon="11.419201977212147"><ele>1082.0</ele><time>2026-05-02T09:32:02.999Z</time></trkpt><trkpt lat="46.23316640311231" lon="11.419134526312279"><ele>1082.0</ele><time>2026-05-02T09:32:03.999Z</time></trkpt><trkpt lat="46.23300750511311" lon="11.419078011722393"><ele>1086.3333333333335</ele><time>2026-05-02T09:32:04.999Z</time></trkpt><trkpt lat="46.23283904205262" lon="11.419026178076978"><ele>1090.6666666666667</ele><time>2026-05-02T09:32:05.999Z</time></trkpt><trkpt lat="46.2326704626852" lon="11.418974308646176"><ele>1095.0</ele><time>2026-05-02T09:32:06.999Z</time></trkpt><trkpt lat="46.23249787390545" lon="11.418921205579935"><ele>1097.6666666666667</ele><time>2026-05-02T09:32:07.999Z</time></trkpt><trkpt lat="46.23229843354893" lon="11.419037670804979"><ele>1100.3333333333335</ele><time>2026-05-02T09:32:08.999Z</time></trkpt><trkpt lat="46.23211237615416" lon="11.419037560731665"><ele>1103.0</ele><time>2026-05-02T09:32:09.999Z</time></trkpt><trkpt lat="46.231924218778836" lon="11.419031010410059"><ele>1103.0</ele><time>2026-05-02T09:32:10.999Z</time></trkpt><trkpt lat="46.23173284416146" lon="11.419025492872802"><ele>1103.0</ele><time>2026-05-02T09:32:11.999Z</time></trkpt><trkpt lat="46.23153903550995" lon="11.419017693546031"><ele>1103.0</ele><time>2026-05-02T09:32:12.999Z</time></trkpt><trkpt lat="46.231341539179745" lon="11.419013819012735"><ele>1102.0</ele><time>2026-05-02T09:32:13.999Z</time></trkpt><trkpt lat="46.23114385507248" lon="11.419024572296921"><ele>1101.0</ele><time>2026-05-02T09:32:14.999Z</time></trkpt><trkpt lat="46.23095411371921" lon="11.419068690175488"><ele>1100.0</ele><time>2026-05-02T09:32:15.999Z</time></trkpt><trkpt lat="46.23076675824438" lon="11.419131488325787"><ele>1099.6666666666667</ele><time>2026-05-02T09:32:16.999Z</time></trkpt><trkpt lat="46.23057714950572" lon="11.419194869004976"><ele>1099.3333333333333</ele><time>2026-05-02T09:32:17.999Z</time></trkpt><trkpt lat="46.23038172132362" lon="11.419237730750442"><ele>1099.0</ele><time>2026-05-02T09:32:18.999Z</time></trkpt><trkpt lat="46.23018726400043" lon="11.419246619021255"><ele>1099.0</ele><time>2026-05-02T09:32:19.999Z</time></trkpt><trkpt lat="46.229999710316676" lon="11.419223492253728"><ele>1099.0</ele><time>2026-05-02T09:32:20.999Z</time></trkpt><trkpt lat="46.22981049473559" lon="11.41921270925104"><ele>1099.0</ele><time>2026-05-02T09:32:21.999Z</time></trkpt><trkpt lat="46.22961703477295" lon="11.419229971819062"><ele>1100.6666666666665</ele><time>2026-05-02T09:32:22.999Z</time></trkpt><trkpt lat="46.229420271783695" lon="11.419258682294345"><ele>1102.3333333333333</ele><time>2026-05-02T09:32:23.999Z</time></trkpt><trkpt lat="46.22922251116134" lon="11.41929129792971"><ele>1104.0</ele><time>2026-05-02T09:32:24.999Z</time></trkpt><trkpt lat="46.229026641377025" lon="11.419316525194862"><ele>1106.6666666666667</ele><time>2026-05-02T09:32:25.999Z</time></trkpt><trkpt lat="46.22882909979229" lon="11.419346033731578"><ele>1109.3333333333335</ele><time>2026-05-02T09:32:26.999Z</time></trkpt><trkpt lat="46.22863486117528" lon="11.419367695339325"><ele>1112.0</ele><time>2026-05-02T09:32:27.999Z</time></trkpt><trkpt lat="46.2284426167153" lon="11.41939385690766"><ele>1112.0</ele><time>2026-05-02T09:32:28.999Z</time></trkpt><trkpt lat="46.228268563248044" lon="11.419403407702928"><ele>1112.0</ele><time>2026-05-02T09:32:29.999Z</time></trkpt><trkpt lat="46.22812143159432" lon="11.41936355576496"><ele>1112.0</ele><time>2026-05-02T09:32:30.999Z</time></trkpt><trkpt lat="46.22799992610308" lon="11.419309781761807"><ele>1112.25</ele><time>2026-05-02T09:32:31.999Z</time></trkpt><trkpt lat="46.22789182380814" lon="11.419221644861302"><ele>1112.5</ele><time>2026-05-02T09:32:32.999Z</time></trkpt><trkpt lat="46.2277783425907" lon="11.419140739475337"><ele>1112.75</ele><time>2026-05-02T09:32:33.999Z</time></trkpt><trkpt lat="46.22765399941808" lon="11.419061757521236"><ele>1113.0</ele><time>2026-05-02T09:32:34.999Z</time></trkpt><trkpt lat="46.227516102968856" lon="11.41899669526909"><ele>1113.0</ele><time>2026-05-02T09:32:35.999Z</time></trkpt><trkpt lat="46.22736784189588" lon="11.418953976909046"><ele>1113.0</ele><time>2026-05-02T09:32:36.999Z</time></trkpt><trkpt lat="46.22720804769749" lon="11.418937176731871"><ele>1113.0</ele><time>2026-05-02T09:32:37.999Z</time></trkpt><trkpt lat="46.227037184852875" lon="11.418955710450824"><ele>1114.3333333333333</ele><time>2026-05-02T09:32:38.999Z</time></trkpt><trkpt lat="46.22684885753774" lon="11.419002083131671"><ele>1115.6666666666665</ele><time>2026-05-02T09:32:39.999Z</time></trkpt><trkpt lat="46.22664005104192" lon="11.419057114945158"><ele>1117.0</ele><time>2026-05-02T09:32:40.999Z</time></trkpt><trkpt lat="46.226419219023036" lon="11.419112083243036"><ele>1118.0</ele><time>2026-05-02T09:32:41.999Z</time></trkpt><trkpt lat="46.226208546479555" lon="11.41916423841088"><ele>1119.0</ele><time>2026-05-02T09:32:42.999Z</time></trkpt><trkpt lat="46.22599564782189" lon="11.419212469466189"><ele>1120.0</ele><time>2026-05-02T09:32:43.999Z</time></trkpt><trkpt lat="46.22579068339836" lon="11.419266598814001"><ele>1123.6666666666665</ele><time>2026-05-02T09:32:44.999Z</time></trkpt><trkpt lat="46.22559060166834" lon="11.419320424721969"><ele>1127.3333333333333</ele><time>2026-05-02T09:32:45.999Z</time></trkpt><trkpt lat="46.22540412383386" lon="11.419367885639637"><ele>1131.0</ele><time>2026-05-02T09:32:46.999Z</time></trkpt><trkpt lat="46.225224916320734" lon="11.419418958087826"><ele>1131.0</ele><time>2026-05-02T09:32:47.999Z</time></trkpt><trkpt lat="46.22505436882538" lon="11.41946266703483"><ele>1131.0</ele><time>2026-05-02T09:32:48.999Z</time></trkpt><trkpt lat="46.22488555554304" lon="11.419505606740984"><ele>1131.0</ele><time>2026-05-02T09:32:49.999Z</time></trkpt><trkpt lat="46.22472113257437" lon="11.419533456865159"><ele>1132.0</ele><time>2026-05-02T09:32:50.999Z</time></trkpt><trkpt lat="46.22456557494834" lon="11.419555439893074"><ele>1133.0</ele><time>2026-05-02T09:32:51.999Z</time></trkpt><trkpt lat="46.22440602245667" lon="11.419575391100759"><ele>1134.0</ele><time>2026-05-02T09:32:52.999Z</time></trkpt><trkpt lat="46.224244886116885" lon="11.419595945223456"><ele>1134.0</ele><time>2026-05-02T09:32:53.999Z</time></trkpt><trkpt lat="46.22408422336361" lon="11.419616239630582"><ele>1134.0</ele><time>2026-05-02T09:32:54.999Z</time></trkpt><trkpt lat="46.22391777995472" lon="11.419637899964235"><ele>1134.0</ele><time>2026-05-02T09:32:55.999Z</time></trkpt><trkpt lat="46.223745842941504" lon="11.419663187303112"><ele>1143.6666666666667</ele><time>2026-05-02T09:32:56.999Z</time></trkpt><trkpt lat="46.22357475367908" lon="11.419701932924774"><ele>1153.3333333333335</ele><time>2026-05-02T09:32:57.999Z</time></trkpt><trkpt lat="46.22341918142251" lon="11.419762309632201"><ele>1163.0</ele><time>2026-05-02T09:32:58.999Z</time></trkpt><trkpt lat="46.22327962442503" lon="11.419827377998585"><ele>1167.0</ele><time>2026-05-02T09:32:59.999Z</time></trkpt><trkpt lat="46.22313640921438" lon="11.419860179461676"><ele>1171.0</ele><time>2026-05-02T09:33:00.999Z</time></trkpt><trkpt lat="46.22298075547344" lon="11.419851598036661"><ele>1175.0</ele><time>2026-05-02T09:33:01.999Z</time></trkpt><trkpt lat="46.22281600497506" lon="11.419820189719724"><ele>1175.0</ele><time>2026-05-02T09:33:02.999Z</time></trkpt><trkpt lat="46.222649603796796" lon="11.419776256621295"><ele>1175.0</ele><time>2026-05-02T09:33:03.999Z</time></trkpt><trkpt lat="46.22249057226465" lon="11.419694145208899"><ele>1175.0</ele><time>2026-05-02T09:33:04.999Z</time></trkpt><trkpt lat="46.222341710619304" lon="11.419602650582027"><ele>1170.5</ele><time>2026-05-02T09:33:05.999Z</time></trkpt><trkpt lat="46.22220137568353" lon="11.419540239179698"><ele>1166.0</ele><time>2026-05-02T09:33:06.999Z</time></trkpt><trkpt lat="46.2220570208227" lon="11.41950784648731"><ele>1161.5</ele><time>2026-05-02T09:33:07.999Z</time></trkpt><trkpt lat="46.22190256893203" lon="11.419511338032864"><ele>1157.0</ele><time>2026-05-02T09:33:08.998Z</time></trkpt><trkpt lat="46.221738907613165" lon="11.419539418832912"><ele>1157.0</ele><time>2026-05-02T09:33:09.998Z</time></trkpt><trkpt lat="46.22156789909943" lon="11.419576753401222"><ele>1157.0</ele><time>2026-05-02T09:33:10.998Z</time></trkpt><trkpt lat="46.22138704594657" lon="11.419590723974316"><ele>1157.0</ele><time>2026-05-02T09:33:12Z</time></trkpt><trkpt lat="46.221197010923575" lon="11.419594264272916"><ele>1159.0</ele><time>2026-05-02T09:33:13Z</time></trkpt><trkpt lat="46.22100036838208" lon="11.419603332702732"><ele>1161.0</ele><time>2026-05-02T09:33:14Z</time></trkpt><trkpt lat="46.220792133223604" lon="11.419610200259712"><ele>1163.0</ele><time>2026-05-02T09:33:15Z</time></trkpt><trkpt lat="46.22057866140666" lon="11.419621700476664"><ele>1163.0</ele><time>2026-05-02T09:33:16Z</time></trkpt><trkpt lat="46.22036207297087" lon="11.41963309485074"><ele>1163.0</ele><time>2026-05-02T09:33:17Z</time></trkpt><trkpt lat="46.220142856780285" lon="11.419648573489072"><ele>1163.0</ele><time>2026-05-02T09:33:18Z</time></trkpt><trkpt lat="46.21992351638443" lon="11.419667280677203"><ele>1171.0</ele><time>2026-05-02T09:33:19Z</time></trkpt><trkpt lat="46.21970826598903" lon="11.419688084724445"><ele>1179.0</ele><time>2026-05-02T09:33:20Z</time></trkpt><trkpt lat="46.21949659556335" lon="11.419709553258068"><ele>1187.0</ele><time>2026-05-02T09:33:21Z</time></trkpt><trkpt lat="46.21928766823032" lon="11.419724081623633"><ele>1187.0</ele><time>2026-05-02T09:33:22Z</time></trkpt><trkpt lat="46.21908464674396" lon="11.419729101165592"><ele>1187.0</ele><time>2026-05-02T09:33:23Z</time></trkpt><trkpt lat="46.218898201674044" lon="11.419747025932793"><ele>1187.0</ele><time>2026-05-02T09:33:24Z</time></trkpt><trkpt lat="46.21875906160141" lon="11.41979091027617"><ele>1186.0</ele><time>2026-05-02T09:33:25Z</time></trkpt><trkpt lat="46.21863304114025" lon="11.41985957287245"><ele>1185.0</ele><time>2026-05-02T09:33:26Z</time></trkpt><trkpt lat="46.2185158827583" lon="11.419963690808649"><ele>1184.0</ele><time>2026-05-02T09:33:27Z</time></trkpt><trkpt lat="46.21839410958863" lon="11.420103939144324"><ele>1183.0</ele><time>2026-05-02T09:33:28Z</time></trkpt><trkpt lat="46.21826121146853" lon="11.420251202086398"><ele>1183.6666666666665</ele><time>2026-05-02T09:33:29Z</time></trkpt><trkpt lat="46.21812367817119" lon="11.420404188193697"><ele>1184.3333333333333</ele><time>2026-05-02T09:33:30Z</time></trkpt><trkpt lat="46.21797498129715" lon="11.420550342537924"><ele>1185.0</ele><time>2026-05-02T09:33:31Z</time></trkpt><trkpt lat="46.21781121220127" lon="11.420679636752535"><ele>1186.6666666666667</ele><time>2026-05-02T09:33:32Z</time></trkpt><trkpt lat="46.217636195355745" lon="11.420786409320206"><ele>1188.3333333333335</ele><time>2026-05-02T09:33:33Z</time></trkpt><trkpt lat="46.217462853128374" lon="11.420898959093655"><ele>1190.0</ele><time>2026-05-02T09:33:34Z</time></trkpt><trkpt lat="46.21730578234644" lon="11.42100400081042"><ele>1190.0</ele><time>2026-05-02T09:33:35Z</time></trkpt><trkpt lat="46.21716383880106" lon="11.421096853988697"><ele>1190.0</ele><time>2026-05-02T09:33:36Z</time></trkpt><trkpt lat="46.217023938355766" lon="11.421156611127552"><ele>1190.0</ele><time>2026-05-02T09:33:37Z</time></trkpt><trkpt lat="46.21687775180651" lon="11.421193983172172"><ele>1190.0</ele><time>2026-05-02T09:33:38Z</time></trkpt><trkpt lat="46.21673247644794" lon="11.421212143897446"><ele>1190.0</ele><time>2026-05-02T09:33:39Z</time></trkpt><trkpt lat="46.21659896674389" lon="11.421212728695792"><ele>1190.0</ele><time>2026-05-02T09:33:40Z</time></trkpt><trkpt lat="46.21647888177415" lon="11.421176922814011"><ele>1190.0</ele><time>2026-05-02T09:33:41Z</time></trkpt><trkpt lat="46.21637203995869" lon="11.421108365272886"><ele>1195.25</ele><time>2026-05-02T09:33:42Z</time></trkpt><trkpt lat="46.216268328584995" lon="11.421075410297128"><ele>1200.5</ele><time>2026-05-02T09:33:42.999Z</time></trkpt><trkpt lat="46.21616002164475" lon="11.421091988136558"><ele>1205.75</ele><time>2026-05-02T09:33:43.999Z</time></trkpt><trkpt lat="46.21604415598164" lon="11.421157427465669"><ele>1211.0</ele><time>2026-05-02T09:33:44.999Z</time></trkpt><trkpt lat="46.21591283457464" lon="11.421256101489604"><ele>1213.6666666666667</ele><time>2026-05-02T09:33:45.999Z</time></trkpt><trkpt lat="46.2157692994864" lon="11.42137907575388"><ele>1216.3333333333333</ele><time>2026-05-02T09:33:46.999Z</time></trkpt><trkpt lat="46.215612655032125" lon="11.42151374924513"><ele>1219.0</ele><time>2026-05-02T09:33:47.999Z</time></trkpt><trkpt lat="46.21545879491692" lon="11.421631539537287"><ele>1219.0</ele><time>2026-05-02T09:33:48.999Z</time></trkpt><trkpt lat="46.21529570468544" lon="11.421715949500372"><ele>1219.0</ele><time>2026-05-02T09:33:49.999Z</time></trkpt><trkpt lat="46.215121848820395" lon="11.4217631600484"><ele>1219.0</ele><time>2026-05-02T09:33:50.999Z</time></trkpt><trkpt lat="46.214941815538914" lon="11.421808954729638"><ele>1222.6666666666665</ele><time>2026-05-02T09:33:51.999Z</time></trkpt><trkpt lat="46.2147607309855" lon="11.421851474295403"><ele>1226.3333333333333</ele><time>2026-05-02T09:33:52.999Z</time></trkpt><trkpt lat="46.21458391102693" lon="11.421885848354114"><ele>1230.0</ele><time>2026-05-02T09:33:53.999Z</time></trkpt><trkpt lat="46.21441927556152" lon="11.421909333553485"><ele>1230.0</ele><time>2026-05-02T09:33:54.999Z</time></trkpt><trkpt lat="46.21428120706199" lon="11.421934501167732"><ele>1230.0</ele><time>2026-05-02T09:33:55.999Z</time></trkpt><trkpt lat="46.21416914661408" lon="11.421971436639952"><ele>1230.0</ele><time>2026-05-02T09:33:56.999Z</time></trkpt><trkpt lat="46.214063620143044" lon="11.422052630165323"><ele>1230.0</ele><time>2026-05-02T09:33:57.999Z</time></trkpt><trkpt lat="46.21396000859137" lon="11.422172203856658"><ele>1228.6666666666667</ele><time>2026-05-02T09:33:58.999Z</time></trkpt><trkpt lat="46.21385461364754" lon="11.422325112788133"><ele>1227.3333333333335</ele><time>2026-05-02T09:33:59.999Z</time></trkpt><trkpt lat="46.21374398519124" lon="11.422497572680344"><ele>1226.0</ele><time>2026-05-02T09:34:00.999Z</time></trkpt><trkpt lat="46.213621085003965" lon="11.422672067376055"><ele>1226.0</ele><time>2026-05-02T09:34:01.999Z</time></trkpt><trkpt lat="46.21349323293053" lon="11.422847300018095"><ele>1226.0</ele><time>2026-05-02T09:34:02.999Z</time></trkpt><trkpt lat="46.213365740252534" lon="11.42302246230288"><ele>1226.0</ele><time>2026-05-02T09:34:03.999Z</time></trkpt><trkpt lat="46.213240923216546" lon="11.423203079244537"><ele>1227.6666666666667</ele><time>2026-05-02T09:34:04.999Z</time></trkpt><trkpt lat="46.213117877072285" lon="11.423386543518449"><ele>1229.3333333333333</ele><time>2026-05-02T09:34:05.999Z</time></trkpt><trkpt lat="46.21300433575255" lon="11.423583314352712"><ele>1231.0</ele><time>2026-05-02T09:34:06.999Z</time></trkpt><trkpt lat="46.21289926575236" lon="11.423790133561265"><ele>1233.0</ele><time>2026-05-02T09:34:07.999Z</time></trkpt><trkpt lat="46.212804336737534" lon="11.423984637401507"><ele>1235.0</ele><time>2026-05-02T09:34:08.999Z</time></trkpt><trkpt lat="46.212705116677625" lon="11.42414410377562"><ele>1237.0</ele><time>2026-05-02T09:34:09.999Z</time></trkpt><trkpt lat="46.21259538736701" lon="11.42426465513367"><ele>1237.0</ele><time>2026-05-02T09:34:10.999Z</time></trkpt><trkpt lat="46.212465626529436" lon="11.424354408946215"><ele>1237.0</ele><time>2026-05-02T09:34:11.999Z</time></trkpt><trkpt lat="46.212319980511715" lon="11.424419368380292"><ele>1237.0</ele><time>2026-05-02T09:34:12.999Z</time></trkpt><trkpt lat="46.212168777583464" lon="11.42448074414787"><ele>1237.3333333333333</ele><time>2026-05-02T09:34:13.999Z</time></trkpt><trkpt lat="46.21201569073914" lon="11.424552296798607"><ele>1237.6666666666667</ele><time>2026-05-02T09:34:14.999Z</time></trkpt><trkpt lat="46.21186395416244" lon="11.424638980664879"><ele>1238.0</ele><time>2026-05-02T09:34:15.999Z</time></trkpt><trkpt lat="46.211709599602656" lon="11.424705677940702"><ele>1240.0</ele><time>2026-05-02T09:34:16.999Z</time></trkpt><trkpt lat="46.21154701983692" lon="11.424747768288778"><ele>1242.0</ele><time>2026-05-02T09:34:17.999Z</time></trkpt><trkpt lat="46.21138286422656" lon="11.424784257207326"><ele>1244.0</ele><time>2026-05-02T09:34:18.999Z</time></trkpt><trkpt lat="46.21121169537816" lon="11.424833777194534"><ele>1244.0</ele><time>2026-05-02T09:34:19.999Z</time></trkpt><trkpt lat="46.21103728679213" lon="11.424897643967547"><ele>1244.0</ele><time>2026-05-02T09:34:20.999Z</time></trkpt><trkpt lat="46.21085930890435" lon="11.424947816406949"><ele>1244.0</ele><time>2026-05-02T09:34:21.999Z</time></trkpt><trkpt lat="46.21068185838683" lon="11.425006496505997"><ele>1244.6666666666667</ele><time>2026-05-02T09:34:22.999Z</time></trkpt><trkpt lat="46.210506489610815" lon="11.425077194183057"><ele>1245.3333333333333</ele><time>2026-05-02T09:34:23.999Z</time></trkpt><trkpt lat="46.210339205473055" lon="11.425169986543464"><ele>1246.0</ele><time>2026-05-02T09:34:24.999Z</time></trkpt><trkpt lat="46.21017932676324" lon="11.425265843970566"><ele>1246.0</ele><time>2026-05-02T09:34:25.999Z</time></trkpt><trkpt lat="46.21002810215062" lon="11.425359888779079"><ele>1246.0</ele><time>2026-05-02T09:34:26.999Z</time></trkpt><trkpt lat="46.20988519816372" lon="11.425451525677873"><ele>1246.0</ele><time>2026-05-02T09:34:27.999Z</time></trkpt><trkpt lat="46.209758769925585" lon="11.425530912460134"><ele>1248.3999999999999</ele><time>2026-05-02T09:34:28.999Z</time></trkpt><trkpt lat="46.20964386611188" lon="11.425602779330752"><ele>1250.8</ele><time>2026-05-02T09:34:29.999Z</time></trkpt><trkpt lat="46.20953656738354" lon="11.425657228267584"><ele>1253.1999999999998</ele><time>2026-05-02T09:34:30.999Z</time></trkpt><trkpt lat="46.20943172023847" lon="11.425671061457697"><ele>1255.6</ele><time>2026-05-02T09:34:31.999Z</time></trkpt><trkpt lat="46.20933516897048" lon="11.425645358045642"><ele>1258.0</ele><time>2026-05-02T09:34:32.999Z</time></trkpt><trkpt lat="46.209243496692224" lon="11.425582923596176"><ele>1258.0</ele><time>2026-05-02T09:34:33.999Z</time></trkpt><trkpt lat="46.20915050688461" lon="11.425501480540559"><ele>1258.0</ele><time>2026-05-02T09:34:34.999Z</time></trkpt><trkpt lat="46.20907970899826" lon="11.4253820206343"><ele>1258.0</ele><time>2026-05-02T09:34:35.999Z</time></trkpt><trkpt lat="46.20903549851726" lon="11.425230660982754"><ele>1258.0</ele><time>2026-05-02T09:34:36.999Z</time></trkpt><trkpt lat="46.20901445391247" lon="11.425068099977448"><ele>1258.0</ele><time>2026-05-02T09:34:37.999Z</time></trkpt><trkpt lat="46.20902358576504" lon="11.42490170620597"><ele>1257.75</ele><time>2026-05-02T09:34:38.999Z</time></trkpt><trkpt lat="46.2090617469482" lon="11.42473217379597"><ele>1257.5</ele><time>2026-05-02T09:34:39.999Z</time></trkpt><trkpt lat="46.2091286032277" lon="11.424562967185906"><ele>1257.25</ele><time>2026-05-02T09:34:40.999Z</time></trkpt><trkpt lat="46.209212125954856" lon="11.424393898575437"><ele>1257.0</ele><time>2026-05-02T09:34:41.999Z</time></trkpt><trkpt lat="46.209292900356736" lon="11.42421862796588"><ele>1261.25</ele><time>2026-05-02T09:34:42.999Z</time></trkpt><trkpt lat="46.209371255369405" lon="11.424035088380766"><ele>1265.5</ele><time>2026-05-02T09:34:43.999Z</time></trkpt><trkpt lat="46.20944196657555" lon="11.423871475833643"><ele>1269.75</ele><time>2026-05-02T09:34:44.999Z</time></trkpt><trkpt lat="46.20949969567803" lon="11.423736381325005"><ele>1274.0</ele><time>2026-05-02T09:34:45.999Z</time></trkpt><trkpt lat="46.20953402425751" lon="11.423630147408662"><ele>1274.3333333333335</ele><time>2026-05-02T09:34:46.999Z</time></trkpt><trkpt lat="46.20953088934261" lon="11.423514392131628"><ele>1274.6666666666667</ele><time>2026-05-02T09:34:47.999Z</time></trkpt><trkpt lat="46.20949166275508" lon="11.42341558018646"><ele>1275.0</ele><time>2026-05-02T09:34:48.999Z</time></trkpt><trkpt lat="46.20943466678178" lon="11.42332928315621"><ele>1275.3333333333333</ele><time>2026-05-02T09:34:49.999Z</time></trkpt><trkpt lat="46.20934881528874" lon="11.423265140726246"><ele>1275.6666666666665</ele><time>2026-05-02T09:34:50.999Z</time></trkpt><trkpt lat="46.209255673211906" lon="11.423207512088617"><ele>1276.0</ele><time>2026-05-02T09:34:51.999Z</time></trkpt><trkpt lat="46.20914271776599" lon="11.42312339092948"><ele>1276.0</ele><time>2026-05-02T09:34:52.999Z</time></trkpt><trkpt lat="46.209028850745305" lon="11.423009841967508"><ele>1276.0</ele><time>2026-05-02T09:34:53.999Z</time></trkpt><trkpt lat="46.20891714906775" lon="11.422907942217037"><ele>1276.0</ele><time>2026-05-02T09:34:54.999Z</time></trkpt><trkpt lat="46.20882749374216" lon="11.422820333850543"><ele>1276.0</ele><time>2026-05-02T09:34:55.999Z</time></trkpt><trkpt lat="46.208750997125456" lon="11.42275640899663"><ele>1283.6</ele><time>2026-05-02T09:34:56.999Z</time></trkpt><trkpt lat="46.208685186589484" lon="11.422688412690038"><ele>1291.1999999999998</ele><time>2026-05-02T09:34:57.999Z</time></trkpt><trkpt lat="46.20862762750918" lon="11.422609503396188"><ele>1298.8000000000002</ele><time>2026-05-02T09:34:58.999Z</time></trkpt><trkpt lat="46.20858985428065" lon="11.422486259325206"><ele>1306.4</ele><time>2026-05-02T09:34:59.999Z</time></trkpt><trkpt lat="46.208562482432" lon="11.422339883331894"><ele>1314.0</ele><time>2026-05-02T09:35:00.999Z</time></trkpt><trkpt lat="46.208520809273516" lon="11.422166749930682"><ele>1307.75</ele><time>2026-05-02T09:35:01.999Z</time></trkpt><trkpt lat="46.20845551785156" lon="11.421988253007374"><ele>1301.5</ele><time>2026-05-02T09:35:02.999Z</time></trkpt><trkpt lat="46.20840671675582" lon="11.421841093971274"><ele>1295.25</ele><time>2026-05-02T09:35:03.999Z</time></trkpt><trkpt lat="46.20834806638599" lon="11.421710140131408"><ele>1289.0</ele><time>2026-05-02T09:35:04.999Z</time></trkpt><trkpt lat="46.20829141693279" lon="11.421600321109887"><ele>1289.0</ele><time>2026-05-02T09:35:05.999Z</time></trkpt><trkpt lat="46.2082160514974" lon="11.421501060208215"><ele>1289.0</ele><time>2026-05-02T09:35:06.999Z</time></trkpt><trkpt lat="46.20812971110892" lon="11.421425753886329"><ele>1289.0</ele><time>2026-05-02T09:35:07.999Z</time></trkpt><trkpt lat="46.20801545342479" lon="11.421361249600327"><ele>1289.0</ele><time>2026-05-02T09:35:08.999Z</time></trkpt><trkpt lat="46.20789664398471" lon="11.421266530346585"><ele>1293.0</ele><time>2026-05-02T09:35:09.999Z</time></trkpt><trkpt lat="46.207773770880486" lon="11.42115036059797"><ele>1297.0</ele><time>2026-05-02T09:35:10.999Z</time></trkpt><trkpt lat="46.20765981139159" lon="11.42103424162742"><ele>1301.0</ele><time>2026-05-02T09:35:11.999Z</time></trkpt><trkpt lat="46.20756290456822" lon="11.42092322537499"><ele>1305.0</ele><time>2026-05-02T09:35:12.999Z</time></trkpt><trkpt lat="46.20747472146338" lon="11.420819399527058"><ele>1305.0</ele><time>2026-05-02T09:35:13.999Z</time></trkpt><trkpt lat="46.20737573431227" lon="11.420730323626968"><ele>1305.0</ele><time>2026-05-02T09:35:14.999Z</time></trkpt><trkpt lat="46.20726031322847" lon="11.42065539817315"><ele>1305.0</ele><time>2026-05-02T09:35:15.999Z</time></trkpt><trkpt lat="46.20713612225775" lon="11.420590449856164"><ele>1305.0</ele><time>2026-05-02T09:35:16.999Z</time></trkpt><trkpt lat="46.20700115837415" lon="11.420531640904672"><ele>1307.0</ele><time>2026-05-02T09:35:18Z</time></trkpt><trkpt lat="46.20687113232192" lon="11.420469116709066"><ele>1309.0</ele><time>2026-05-02T09:35:19Z</time></trkpt><trkpt lat="46.206739254990346" lon="11.420396270452864"><ele>1311.0</ele><time>2026-05-02T09:35:20Z</time></trkpt><trkpt lat="46.20661287111199" lon="11.42032980135908"><ele>1313.0</ele><time>2026-05-02T09:35:21Z</time></trkpt><trkpt lat="46.20650283827235" lon="11.420290282823434"><ele>1313.25</ele><time>2026-05-02T09:35:22Z</time></trkpt><trkpt lat="46.206387803593124" lon="11.420281300595839"><ele>1313.5</ele><time>2026-05-02T09:35:23Z</time></trkpt><trkpt lat="46.20626318639578" lon="11.420302646411939"><ele>1313.75</ele><time>2026-05-02T09:35:24Z</time></trkpt><trkpt lat="46.20612945971766" lon="11.420341030006137"><ele>1314.0</ele><time>2026-05-02T09:35:25Z</time></trkpt><trkpt lat="46.20597859452552" lon="11.420346839845163"><ele>1314.0</ele><time>2026-05-02T09:35:26Z</time></trkpt><trkpt lat="46.205815490486266" lon="11.42031631403417"><ele>1314.0</ele><time>2026-05-02T09:35:27Z</time></trkpt><trkpt lat="46.20563434964644" lon="11.42025438544526"><ele>1314.0</ele><time>2026-05-02T09:35:28Z</time></trkpt><trkpt lat="46.205466945941716" lon="11.420170369423467"><ele>1317.0</ele><time>2026-05-02T09:35:29Z</time></trkpt><trkpt lat="46.20532786635588" lon="11.420075233131271"><ele>1320.0</ele><time>2026-05-02T09:35:30Z</time></trkpt><trkpt lat="46.20520418783475" lon="11.419954254588188"><ele>1323.0</ele><time>2026-05-02T09:35:31Z</time></trkpt><trkpt lat="46.2051033470641" lon="11.419820033297322"><ele>1326.0</ele><time>2026-05-02T09:35:32Z</time></trkpt><trkpt lat="46.20498333112303" lon="11.419737875062829"><ele>1326.0</ele><time>2026-05-02T09:35:33Z</time></trkpt><trkpt lat="46.204836623948786" lon="11.419662107144992"><ele>1326.0</ele><time>2026-05-02T09:35:34Z</time></trkpt><trkpt lat="46.20470006034659" lon="11.419548034363658"><ele>1326.0</ele><time>2026-05-02T09:35:35Z</time></trkpt><trkpt lat="46.20458559663197" lon="11.419461728022537"><ele>1326.0</ele><time>2026-05-02T09:35:36Z</time></trkpt><trkpt lat="46.20448501680671" lon="11.419388836773718"><ele>1326.8</ele><time>2026-05-02T09:35:37Z</time></trkpt><trkpt lat="46.20439078310147" lon="11.419312400912943"><ele>1327.6</ele><time>2026-05-02T09:35:38Z</time></trkpt><trkpt lat="46.204293065316286" lon="11.419235947029772"><ele>1328.4</ele><time>2026-05-02T09:35:39Z</time></trkpt><trkpt lat="46.20419408684807" lon="11.419174797384084"><ele>1329.2</ele><time>2026-05-02T09:35:40Z</time></trkpt><trkpt lat="46.20408724996056" lon="11.41913136768284"><ele>1330.0</ele><time>2026-05-02T09:35:41Z</time></trkpt><trkpt lat="46.203981164250365" lon="11.419118955040021"><ele>1331.0</ele><time>2026-05-02T09:35:42Z</time></trkpt><trkpt lat="46.20386852874189" lon="11.419126167496739"><ele>1332.0</ele><time>2026-05-02T09:35:43Z</time></trkpt><trkpt lat="46.203731032165344" lon="11.419135390924156"><ele>1333.0</ele><time>2026-05-02T09:35:44Z</time></trkpt><trkpt lat="46.20356763093862" lon="11.41913988839715"><ele>1334.0</ele><time>2026-05-02T09:35:45Z</time></trkpt><trkpt lat="46.20342410083551" lon="11.419153478206889"><ele>1334.0</ele><time>2026-05-02T09:35:46Z</time></trkpt><trkpt lat="46.20327525956287" lon="11.419214757294464"><ele>1334.0</ele><time>2026-05-02T09:35:47Z</time></trkpt><trkpt lat="46.20312076167116" lon="11.419294275212513"><ele>1334.0</ele><time>2026-05-02T09:35:48Z</time></trkpt><trkpt lat="46.202954965627775" lon="11.419366503909378"><ele>1336.3333333333335</ele><time>2026-05-02T09:35:49Z</time></trkpt><trkpt lat="46.20277696940761" lon="11.4194227420201"><ele>1338.6666666666667</ele><time>2026-05-02T09:35:50Z</time></trkpt><trkpt lat="46.2025900649365" lon="11.419452618509649"><ele>1341.0</ele><time>2026-05-02T09:35:51Z</time></trkpt><trkpt lat="46.20240982280741" lon="11.419464325321155"><ele>1344.3333333333333</ele><time>2026-05-02T09:35:52Z</time></trkpt><trkpt lat="46.20223156709959" lon="11.419462480470667"><ele>1347.6666666666665</ele><time>2026-05-02T09:35:53Z</time></trkpt><trkpt lat="46.202070511539546" lon="11.419433639143321"><ele>1351.0</ele><time>2026-05-02T09:35:54Z</time></trkpt><trkpt lat="46.20193225457557" lon="11.419389990128204"><ele>1351.0</ele><time>2026-05-02T09:35:55Z</time></trkpt><trkpt lat="46.20181304632003" lon="11.419370553917506"><ele>1351.0</ele><time>2026-05-02T09:35:56Z</time></trkpt><trkpt lat="46.20168998550706" lon="11.419390475442475"><ele>1351.0</ele><time>2026-05-02T09:35:57Z</time></trkpt><trkpt lat="46.201558483158756" lon="11.419436114051114"><ele>1351.0</ele><time>2026-05-02T09:35:58Z</time></trkpt><trkpt lat="46.20142322092896" lon="11.419464049185795"><ele>1352.0</ele><time>2026-05-02T09:35:59Z</time></trkpt><trkpt lat="46.20127889801278" lon="11.419482623564964"><ele>1353.0</ele><time>2026-05-02T09:36:00Z</time></trkpt><trkpt lat="46.2011265861495" lon="11.419485239694954"><ele>1354.0</ele><time>2026-05-02T09:36:01Z</time></trkpt><trkpt lat="46.20097932524524" lon="11.419467453888373"><ele>1355.0</ele><time>2026-05-02T09:36:02Z</time></trkpt><trkpt lat="46.2008297501736" lon="11.419429659227857"><ele>1355.0</ele><time>2026-05-02T09:36:03Z</time></trkpt><trkpt lat="46.200671007826315" lon="11.419357365706155"><ele>1355.0</ele><time>2026-05-02T09:36:04Z</time></trkpt><trkpt lat="46.200522692243105" lon="11.419290739900795"><ele>1355.0</ele><time>2026-05-02T09:36:05Z</time></trkpt><trkpt lat="46.20037622058645" lon="11.41922405148497"><ele>1357.25</ele><time>2026-05-02T09:36:06Z</time></trkpt><trkpt lat="46.20023804218511" lon="11.419168803244458"><ele>1359.5</ele><time>2026-05-02T09:36:07Z</time></trkpt><trkpt lat="46.200110889676104" lon="11.419122620542648"><ele>1361.75</ele><time>2026-05-02T09:36:07.999Z</time></trkpt><trkpt lat="46.19998156719035" lon="11.419093697003637"><ele>1364.0</ele><time>2026-05-02T09:36:08.999Z</time></trkpt><trkpt lat="46.19984961622304" lon="11.419070561114548"><ele>1366.5</ele><time>2026-05-02T09:36:09.999Z</time></trkpt><trkpt lat="46.199711486955394" lon="11.41905075298751"><ele>1369.0</ele><time>2026-05-02T09:36:10.999Z</time></trkpt><trkpt lat="46.19956380750218" lon="11.419043265036077"><ele>1371.5</ele><time>2026-05-02T09:36:11.999Z</time></trkpt><trkpt lat="46.19941572148314" lon="11.419051194738131"><ele>1374.0</ele><time>2026-05-02T09:36:12.999Z</time></trkpt><trkpt lat="46.19927387483437" lon="11.419066419023707"><ele>1374.0</ele><time>2026-05-02T09:36:13.999Z</time></trkpt><trkpt lat="46.1991496825448" lon="11.41908674497459"><ele>1374.0</ele><time>2026-05-02T09:36:14.999Z</time></trkpt><trkpt lat="46.19903288207789" lon="11.419143805790904"><ele>1374.0</ele><time>2026-05-02T09:36:15.999Z</time></trkpt><trkpt lat="46.1989119807" lon="11.419242484764764"><ele>1374.0</ele><time>2026-05-02T09:36:16.999Z</time></trkpt><trkpt lat="46.19878713963675" lon="11.419352789389059"><ele>1374.0</ele><time>2026-05-02T09:36:17.999Z</time></trkpt><trkpt lat="46.19866196509376" lon="11.41946760432775"><ele>1374.0</ele><time>2026-05-02T09:36:18.999Z</time></trkpt><trkpt lat="46.198528780563464" lon="11.41956491906186"><ele>1374.0</ele><time>2026-05-02T09:36:19.999Z</time></trkpt><trkpt lat="46.1983831183077" lon="11.419648650988062"><ele>1379.0</ele><time>2026-05-02T09:36:20.999Z</time></trkpt><trkpt lat="46.19823500936062" lon="11.419726719232255"><ele>1384.0</ele><time>2026-05-02T09:36:21.999Z</time></trkpt><trkpt lat="46.198095964826" lon="11.41979100491562"><ele>1389.0</ele><time>2026-05-02T09:36:22.999Z</time></trkpt><trkpt lat="46.19796725027718" lon="11.419840551963215"><ele>1394.0</ele><time>2026-05-02T09:36:23.999Z</time></trkpt><trkpt lat="46.19784324883244" lon="11.419898172785913"><ele>1394.0</ele><time>2026-05-02T09:36:24.999Z</time></trkpt><trkpt lat="46.19772904135807" lon="11.419976894266458"><ele>1394.0</ele><time>2026-05-02T09:36:25.999Z</time></trkpt><trkpt lat="46.197625398334836" lon="11.420058413123948"><ele>1394.0</ele><time>2026-05-02T09:36:26.999Z</time></trkpt><trkpt lat="46.197518343277814" lon="11.4200961120671"><ele>1394.0</ele><time>2026-05-02T09:36:27.999Z</time></trkpt><trkpt lat="46.19740843603828" lon="11.420099065504012"><ele>1397.25</ele><time>2026-05-02T09:36:28.999Z</time></trkpt><trkpt lat="46.19729791440695" lon="11.42006078576659"><ele>1400.5</ele><time>2026-05-02T09:36:29.999Z</time></trkpt><trkpt lat="46.19716156438424" lon="11.420019954863564"><ele>1403.75</ele><time>2026-05-02T09:36:30.999Z</time></trkpt><trkpt lat="46.19701110314594" lon="11.419984523288852"><ele>1407.0</ele><time>2026-05-02T09:36:31.999Z</time></trkpt><trkpt lat="46.19687849200525" lon="11.41995173932596"><ele>1407.0</ele><time>2026-05-02T09:36:32.999Z</time></trkpt><trkpt lat="46.19676475641494" lon="11.419931381241906"><ele>1407.0</ele><time>2026-05-02T09:36:33.999Z</time></trkpt><trkpt lat="46.19666479547758" lon="11.419915447306456"><ele>1407.0</ele><time>2026-05-02T09:36:34.999Z</time></trkpt><trkpt lat="46.196552690792764" lon="11.419902885120981"><ele>1407.0</ele><time>2026-05-02T09:36:35.999Z</time></trkpt><trkpt lat="46.1964430886006" lon="11.41992254525329"><ele>1407.0</ele><time>2026-05-02T09:36:36.999Z</time></trkpt><trkpt lat="46.19632874932596" lon="11.41996525863572"><ele>1408.25</ele><time>2026-05-02T09:36:37.999Z</time></trkpt><trkpt lat="46.19620736691188" lon="11.420013155756921"><ele>1409.5</ele><time>2026-05-02T09:36:38.999Z</time></trkpt><trkpt lat="46.1960820797685" lon="11.420078181053723"><ele>1410.75</ele><time>2026-05-02T09:36:39.999Z</time></trkpt><trkpt lat="46.19595723633833" lon="11.42015362618084"><ele>1412.0</ele><time>2026-05-02T09:36:40.999Z</time></trkpt><trkpt lat="46.195829273253885" lon="11.42022427354305"><ele>1412.0</ele><time>2026-05-02T09:36:41.999Z</time></trkpt><trkpt lat="46.195702731264475" lon="11.420283334537682"><ele>1412.0</ele><time>2026-05-02T09:36:42.999Z</time></trkpt><trkpt lat="46.19559126980288" lon="11.420335098166966"><ele>1412.0</ele><time>2026-05-02T09:36:43.999Z</time></trkpt><trkpt lat="46.195482754824006" lon="11.420370535277547"><ele>1412.0</ele><time>2026-05-02T09:36:44.999Z</time></trkpt><trkpt lat="46.19537876057961" lon="11.42037131102161"><ele>1413.8</ele><time>2026-05-02T09:36:45.999Z</time></trkpt><trkpt lat="46.19527696046316" lon="11.420327876572566"><ele>1415.6</ele><time>2026-05-02T09:36:46.999Z</time></trkpt><trkpt lat="46.19516983258571" lon="11.420267512579892"><ele>1417.3999999999999</ele><time>2026-05-02T09:36:47.999Z</time></trkpt><trkpt lat="46.19506465033639" lon="11.420225168537312"><ele>1419.1999999999998</ele><time>2026-05-02T09:36:48.999Z</time></trkpt><trkpt lat="46.19498140723968" lon="11.420177081384796"><ele>1421.0</ele><time>2026-05-02T09:36:49.999Z</time></trkpt><trkpt lat="46.19492270082953" lon="11.420105226590541"><ele>1423.6666666666667</ele><time>2026-05-02T09:36:50.999Z</time></trkpt><trkpt lat="46.19482812724406" lon="11.420043138278286"><ele>1426.3333333333335</ele><time>2026-05-02T09:36:52.999Z</time></trkpt><trkpt lat="46.19477722954768" lon="11.420153362605387"><ele>1429.0</ele><time>2026-05-02T09:36:54.999Z</time></trkpt><trkpt lat="46.19478240339454" lon="11.420254823937318"><ele>1431.6666666666667</ele><time>2026-05-02T09:36:55.999Z</time></trkpt><trkpt lat="46.194793534540906" lon="11.420363862753405"><ele>1434.3333333333333</ele><time>2026-05-02T09:36:56.999Z</time></trkpt><trkpt lat="46.1948008594772" lon="11.420460186324817"><ele>1437.0</ele><time>2026-05-02T09:36:57.999Z</time></trkpt><trkpt lat="46.19482109854881" lon="11.420611027071685"><ele>1439.0</ele><time>2026-05-02T09:36:59.999Z</time></trkpt><trkpt lat="46.19480692711108" lon="11.420728425625816"><ele>1441.0</ele><time>2026-05-02T09:37:01.999Z</time></trkpt><trkpt lat="46.19470265837571" lon="11.420726579921524"><ele>1443.0</ele><time>2026-05-02T09:37:03.999Z</time></trkpt><trkpt lat="46.19463361908019" lon="11.420657963569315"><ele>1445.0</ele><time>2026-05-02T09:37:04.999Z</time></trkpt><trkpt lat="46.194553809112" lon="11.420606318883634"><ele>1447.0</ele><time>2026-05-02T09:37:05.999Z</time></trkpt><trkpt lat="46.194453484187044" lon="11.420589925687297"><ele>1447.0</ele><time>2026-05-02T09:37:06.999Z</time></trkpt><trkpt lat="46.19434450545922" lon="11.42059390940134"><ele>1447.0</ele><time>2026-05-02T09:37:07.999Z</time></trkpt><trkpt lat="46.19422423473703" lon="11.420596371081965"><ele>1447.0</ele><time>2026-05-02T09:37:08.999Z</time></trkpt><trkpt lat="46.19410665575573" lon="11.420577616002804"><ele>1447.0</ele><time>2026-05-02T09:37:09.999Z</time></trkpt><trkpt lat="46.194001778541704" lon="11.42052060169291"><ele>1447.0</ele><time>2026-05-02T09:37:10.999Z</time></trkpt><trkpt lat="46.193930438604404" lon="11.420441439868272"><ele>1447.0</ele><time>2026-05-02T09:37:11.999Z</time></trkpt><trkpt lat="46.193867398997085" lon="11.420378243106716"><ele>1447.0</ele><time>2026-05-02T09:37:12.999Z</time></trkpt><trkpt lat="46.19379226106132" lon="11.420362022456693"><ele>1447.0</ele><time>2026-05-02T09:37:13.999Z</time></trkpt><trkpt lat="46.19371135174506" lon="11.420377968696753"><ele>1447.0</ele><time>2026-05-02T09:37:14.999Z</time></trkpt><trkpt lat="46.19362794997649" lon="11.420410248110674"><ele>1447.0</ele><time>2026-05-02T09:37:15.999Z</time></trkpt><trkpt lat="46.193551625022266" lon="11.420457137832903"><ele>1446.3999999999999</ele><time>2026-05-02T09:37:16.999Z</time></trkpt><trkpt lat="46.19348941347868" lon="11.420522333235745"><ele>1445.8</ele><time>2026-05-02T09:37:17.999Z</time></trkpt><trkpt lat="46.19344547992563" lon="11.42065339200638"><ele>1445.2</ele><time>2026-05-02T09:37:19.999Z</time></trkpt><trkpt lat="46.19353205050091" lon="11.420760891564273"><ele>1444.6</ele><time>2026-05-02T09:37:21.999Z</time></trkpt><trkpt lat="46.19361189925614" lon="11.420820824033319"><ele>1444.0</ele><time>2026-05-02T09:37:22.999Z</time></trkpt><trkpt lat="46.19367809656589" lon="11.42094330602529"><ele>1444.0</ele><time>2026-05-02T09:37:24Z</time></trkpt><trkpt lat="46.19372590298432" lon="11.42109556283727"><ele>1444.0</ele><time>2026-05-02T09:37:25Z</time></trkpt><trkpt lat="46.193759298183025" lon="11.42124333184142"><ele>1444.0</ele><time>2026-05-02T09:37:26Z</time></trkpt><trkpt lat="46.19379978328821" lon="11.421344574121948"><ele>1444.0</ele><time>2026-05-02T09:37:27Z</time></trkpt><trkpt lat="46.19385907405208" lon="11.421417218043281"><ele>1444.0</ele><time>2026-05-02T09:37:28Z</time></trkpt><trkpt lat="46.19392697869004" lon="11.421455292562873"><ele>1447.8000000000002</ele><time>2026-05-02T09:37:29Z</time></trkpt><trkpt lat="46.19399356207265" lon="11.421541337607794"><ele>1451.6000000000001</ele><time>2026-05-02T09:37:31Z</time></trkpt><trkpt lat="46.193955129310886" lon="11.421633311371533"><ele>1455.4</ele><time>2026-05-02T09:37:33Z</time></trkpt><trkpt lat="46.19382607913303" lon="11.421645524459963"><ele>1459.2</ele><time>2026-05-02T09:37:35Z</time></trkpt><trkpt lat="46.19374134291375" lon="11.421639858880862"><ele>1463.0</ele><time>2026-05-02T09:37:36Z</time></trkpt><trkpt lat="46.19363491682542" lon="11.421620482351372"><ele>1463.0</ele><time>2026-05-02T09:37:37Z</time></trkpt><trkpt lat="46.1935300164059" lon="11.421594029516829"><ele>1463.0</ele><time>2026-05-02T09:37:38Z</time></trkpt><trkpt lat="46.19343419593911" lon="11.421583570749526"><ele>1463.0</ele><time>2026-05-02T09:37:39Z</time></trkpt><trkpt lat="46.19334243105516" lon="11.421607687136923"><ele>1463.0</ele><time>2026-05-02T09:37:40Z</time></trkpt><trkpt lat="46.19325045459556" lon="11.421649935744048"><ele>1463.0</ele><time>2026-05-02T09:37:41Z</time></trkpt><trkpt lat="46.19315902237186" lon="11.42169794221829"><ele>1463.4</ele><time>2026-05-02T09:37:42Z</time></trkpt><trkpt lat="46.19306758450157" lon="11.421755284724943"><ele>1463.8000000000002</ele><time>2026-05-02T09:37:43Z</time></trkpt><trkpt lat="46.192970495627115" lon="11.421809595657797"><ele>1464.2</ele><time>2026-05-02T09:37:44Z</time></trkpt><trkpt lat="46.1928622801459" lon="11.42182896914684"><ele>1464.6</ele><time>2026-05-02T09:37:45Z</time></trkpt><trkpt lat="46.192757304908646" lon="11.421847879487016"><ele>1465.0</ele><time>2026-05-02T09:37:46Z</time></trkpt><trkpt lat="46.19266203860919" lon="11.421903777522203"><ele>1465.0</ele><time>2026-05-02T09:37:47Z</time></trkpt><trkpt lat="46.19256542391409" lon="11.421996205968528"><ele>1465.0</ele><time>2026-05-02T09:37:48Z</time></trkpt><trkpt lat="46.19248323506811" lon="11.422094974110337"><ele>1465.0</ele><time>2026-05-02T09:37:49Z</time></trkpt><trkpt lat="46.19241724430825" lon="11.422203726846165"><ele>1465.0</ele><time>2026-05-02T09:37:50Z</time></trkpt><trkpt lat="46.192345843334415" lon="11.422298751370668"><ele>1465.0</ele><time>2026-05-02T09:37:51Z</time></trkpt><trkpt lat="46.192250728893065" lon="11.422350774203723"><ele>1473.25</ele><time>2026-05-02T09:37:52Z</time></trkpt><trkpt lat="46.19211542537752" lon="11.422376130254923"><ele>1481.5</ele><time>2026-05-02T09:37:53Z</time></trkpt><trkpt lat="46.19197345216085" lon="11.422401355552653"><ele>1489.75</ele><time>2026-05-02T09:37:54Z</time></trkpt><trkpt lat="46.19183370770066" lon="11.42242518765747"><ele>1498.0</ele><time>2026-05-02T09:37:55Z</time></trkpt><trkpt lat="46.19171163729098" lon="11.422451358636275"><ele>1498.0</ele><time>2026-05-02T09:37:56Z</time></trkpt><trkpt lat="46.19160836795558" lon="11.422473734245497"><ele>1498.0</ele><time>2026-05-02T09:37:57Z</time></trkpt><trkpt lat="46.19150423847277" lon="11.422503817886325"><ele>1498.0</ele><time>2026-05-02T09:37:58Z</time></trkpt><trkpt lat="46.191411279401386" lon="11.422504054916768"><ele>1498.0</ele><time>2026-05-02T09:37:59Z</time></trkpt><trkpt lat="46.19132637235494" lon="11.422468812345711"><ele>1498.0</ele><time>2026-05-02T09:38:00Z</time></trkpt><trkpt lat="46.191257975404014" lon="11.422389100544404"><ele>1500.2</ele><time>2026-05-02T09:38:01Z</time></trkpt><trkpt lat="46.191183233067626" lon="11.422302446724453"><ele>1502.4</ele><time>2026-05-02T09:38:02Z</time></trkpt><trkpt lat="46.19109656525652" lon="11.422231368833343"><ele>1504.6000000000001</ele><time>2026-05-02T09:38:03Z</time></trkpt><trkpt lat="46.19100003594991" lon="11.422188576876936"><ele>1506.8000000000002</ele><time>2026-05-02T09:38:04Z</time></trkpt><trkpt lat="46.190893791244584" lon="11.422149080102939"><ele>1509.0</ele><time>2026-05-02T09:38:05Z</time></trkpt><trkpt lat="46.1907758855642" lon="11.42211329147731"><ele>1505.5</ele><time>2026-05-02T09:38:06Z</time></trkpt><trkpt lat="46.19064766999767" lon="11.422090778096834"><ele>1502.0</ele><time>2026-05-02T09:38:07Z</time></trkpt><trkpt lat="46.19051966828572" lon="11.42206596558479"><ele>1498.5</ele><time>2026-05-02T09:38:08Z</time></trkpt><trkpt lat="46.19040023108519" lon="11.422032993876147"><ele>1495.0</ele><time>2026-05-02T09:38:09Z</time></trkpt><trkpt lat="46.19029228404049" lon="11.421991519726491"><ele>1495.0</ele><time>2026-05-02T09:38:10Z</time></trkpt><trkpt lat="46.19019691634943" lon="11.421960700366173"><ele>1495.0</ele><time>2026-05-02T09:38:11Z</time></trkpt><trkpt lat="46.190101845947154" lon="11.421955761912285"><ele>1495.0</ele><time>2026-05-02T09:38:12Z</time></trkpt><trkpt lat="46.19000877213439" lon="11.421981989763491"><ele>1495.0</ele><time>2026-05-02T09:38:13Z</time></trkpt><trkpt lat="46.18991946635649" lon="11.422049985801314"><ele>1495.0</ele><time>2026-05-02T09:38:14Z</time></trkpt><trkpt lat="46.189834310346434" lon="11.42214825890574"><ele>1503.5</ele><time>2026-05-02T09:38:15Z</time></trkpt><trkpt lat="46.189750288897095" lon="11.422263502238646"><ele>1512.0</ele><time>2026-05-02T09:38:16Z</time></trkpt><trkpt lat="46.189657583988016" lon="11.42235589884417"><ele>1520.5</ele><time>2026-05-02T09:38:17Z</time></trkpt><trkpt lat="46.189550009986604" lon="11.422401882790412"><ele>1529.0</ele><time>2026-05-02T09:38:18Z</time></trkpt><trkpt lat="46.189428386015024" lon="11.422404391115208"><ele>1529.0</ele><time>2026-05-02T09:38:19Z</time></trkpt><trkpt lat="46.18929440121416" lon="11.422385373269357"><ele>1529.0</ele><time>2026-05-02T09:38:20Z</time></trkpt><trkpt lat="46.18915099178787" lon="11.422375783648306"><ele>1529.0</ele><time>2026-05-02T09:38:21Z</time></trkpt><trkpt lat="46.189007435632604" lon="11.422393526710994"><ele>1529.0</ele><time>2026-05-02T09:38:22Z</time></trkpt><trkpt lat="46.18885382527292" lon="11.422428518430698"><ele>1533.0</ele><time>2026-05-02T09:38:23Z</time></trkpt><trkpt lat="46.18868232452108" lon="11.422454398787991"><ele>1537.0</ele><time>2026-05-02T09:38:24Z</time></trkpt><trkpt lat="46.18851344596564" lon="11.422454599550383"><ele>1541.0</ele><time>2026-05-02T09:38:24.999Z</time></trkpt><trkpt lat="46.18833976974079" lon="11.422447772339837"><ele>1545.6666666666665</ele><time>2026-05-02T09:38:25.999Z</time></trkpt><trkpt lat="46.18816450777917" lon="11.422439512814865"><ele>1550.3333333333335</ele><time>2026-05-02T09:38:26.999Z</time></trkpt><trkpt lat="46.18799438651207" lon="11.42242463923744"><ele>1555.0</ele><time>2026-05-02T09:38:27.999Z</time></trkpt><trkpt lat="46.18783180919339" lon="11.422407863853232"><ele>1555.0</ele><time>2026-05-02T09:38:28.999Z</time></trkpt><trkpt lat="46.187682716063115" lon="11.422395325498659"><ele>1555.0</ele><time>2026-05-02T09:38:29.999Z</time></trkpt><trkpt lat="46.18754606093237" lon="11.422385438841541"><ele>1555.0</ele><time>2026-05-02T09:38:30.999Z</time></trkpt><trkpt lat="46.18741412470449" lon="11.42236794872673"><ele>1555.0</ele><time>2026-05-02T09:38:31.999Z</time></trkpt><trkpt lat="46.187286721920714" lon="11.422327433125686"><ele>1558.75</ele><time>2026-05-02T09:38:32.999Z</time></trkpt><trkpt lat="46.187161557027075" lon="11.422282935864054"><ele>1562.5</ele><time>2026-05-02T09:38:33.999Z</time></trkpt><trkpt lat="46.18703505724158" lon="11.4222465415209"><ele>1566.25</ele><time>2026-05-02T09:38:34.999Z</time></trkpt><trkpt lat="46.18691091826606" lon="11.422214463761234"><ele>1570.0</ele><time>2026-05-02T09:38:35.999Z</time></trkpt><trkpt lat="46.186794597077" lon="11.422182183650682"><ele>1565.0</ele><time>2026-05-02T09:38:36.999Z</time></trkpt><trkpt lat="46.18668660431358" lon="11.4221450559125"><ele>1560.0</ele><time>2026-05-02T09:38:37.999Z</time></trkpt><trkpt lat="46.18658829767137" lon="11.422093305972487"><ele>1555.0</ele><time>2026-05-02T09:38:38.999Z</time></trkpt><trkpt lat="46.18650296497759" lon="11.422048430490243"><ele>1550.0</ele><time>2026-05-02T09:38:39.999Z</time></trkpt><trkpt lat="46.186437151841766" lon="11.422038533761814"><ele>1545.0</ele><time>2026-05-02T09:38:40.999Z</time></trkpt><trkpt lat="46.18635990781287" lon="11.422049379059263"><ele>1545.0</ele><time>2026-05-02T09:38:41.999Z</time></trkpt><trkpt lat="46.18627125382702" lon="11.422066453380578"><ele>1545.0</ele><time>2026-05-02T09:38:42.999Z</time></trkpt><trkpt lat="46.18617588646988" lon="11.422086023478156"><ele>1545.0</ele><time>2026-05-02T09:38:43.999Z</time></trkpt><trkpt lat="46.186080415617226" lon="11.422108549240859"><ele>1545.0</ele><time>2026-05-02T09:38:44.999Z</time></trkpt><trkpt lat="46.18599171843423" lon="11.422145777305595"><ele>1545.0</ele><time>2026-05-02T09:38:45.999Z</time></trkpt><trkpt lat="46.18590885677618" lon="11.42221319358486"><ele>1549.8</ele><time>2026-05-02T09:38:46.999Z</time></trkpt><trkpt lat="46.185826343832666" lon="11.42229290631441"><ele>1554.6</ele><time>2026-05-02T09:38:47.999Z</time></trkpt><trkpt lat="46.18573764533983" lon="11.422374835579378"><ele>1559.4</ele><time>2026-05-02T09:38:48.999Z</time></trkpt><trkpt lat="46.18563162153604" lon="11.422435630169254"><ele>1564.2</ele><time>2026-05-02T09:38:49.999Z</time></trkpt><trkpt lat="46.18550289538136" lon="11.422459916415503"><ele>1569.0</ele><time>2026-05-02T09:38:50.999Z</time></trkpt><trkpt lat="46.18536892889652" lon="11.42248047407262"><ele>1569.0</ele><time>2026-05-02T09:38:51.999Z</time></trkpt><trkpt lat="46.18524233133289" lon="11.422513432911227"><ele>1569.0</ele><time>2026-05-02T09:38:52.999Z</time></trkpt><trkpt lat="46.185128508232765" lon="11.42254703068124"><ele>1569.0</ele><time>2026-05-02T09:38:53.999Z</time></trkpt><trkpt lat="46.18502633244528" lon="11.422557963647906"><ele>1569.0</ele><time>2026-05-02T09:38:54.999Z</time></trkpt><trkpt lat="46.18493905108904" lon="11.42258980914322"><ele>1569.0</ele><time>2026-05-02T09:38:55.999Z</time></trkpt><trkpt lat="46.184858641993344" lon="11.422630340873294"><ele>1566.4</ele><time>2026-05-02T09:38:56.999Z</time></trkpt><trkpt lat="46.184740391790555" lon="11.422741351564051"><ele>1563.8000000000002</ele><time>2026-05-02T09:38:57.999Z</time></trkpt><trkpt lat="46.184638028165296" lon="11.422814912481332"><ele>1561.1999999999998</ele><time>2026-05-02T09:38:58.999Z</time></trkpt><trkpt lat="46.184549180828654" lon="11.42287090578468"><ele>1558.6</ele><time>2026-05-02T09:38:59.999Z</time></trkpt><trkpt lat="46.18447933920032" lon="11.422910017929086"><ele>1556.0</ele><time>2026-05-02T09:39:00.999Z</time></trkpt><trkpt lat="46.184418404072645" lon="11.422939091346805"><ele>1559.6666666666665</ele><time>2026-05-02T09:39:01.999Z</time></trkpt><trkpt lat="46.18436389558649" lon="11.423047066568559"><ele>1563.3333333333333</ele><time>2026-05-02T09:39:03.999Z</time></trkpt><trkpt lat="46.184422395625454" lon="11.423163115544014"><ele>1567.0</ele><time>2026-05-02T09:39:05.999Z</time></trkpt><trkpt lat="46.18448696075303" lon="11.423167942790116"><ele>1570.6666666666665</ele><time>2026-05-02T09:39:06.999Z</time></trkpt><trkpt lat="46.184550322352926" lon="11.423130576183448"><ele>1574.3333333333333</ele><time>2026-05-02T09:39:07.999Z</time></trkpt><trkpt lat="46.18462472004272" lon="11.4230734464407"><ele>1578.0</ele><time>2026-05-02T09:39:08.999Z</time></trkpt><trkpt lat="46.18471624698602" lon="11.423024026056149"><ele>1578.0</ele><time>2026-05-02T09:39:09.999Z</time></trkpt><trkpt lat="46.18482010745066" lon="11.422982662724142"><ele>1578.0</ele><time>2026-05-02T09:39:10.999Z</time></trkpt><trkpt lat="46.18493236918943" lon="11.42296783310458"><ele>1578.0</ele><time>2026-05-02T09:39:11.999Z</time></trkpt><trkpt lat="46.1850562641825" lon="11.422981684527077"><ele>1578.0</ele><time>2026-05-02T09:39:12.999Z</time></trkpt><trkpt lat="46.18519044175799" lon="11.423021705906574"><ele>1582.75</ele><time>2026-05-02T09:39:13.999Z</time></trkpt><trkpt lat="46.18532298004391" lon="11.423069592894695"><ele>1587.5</ele><time>2026-05-02T09:39:14.999Z</time></trkpt><trkpt lat="46.18544648538824" lon="11.423119217156986"><ele>1592.25</ele><time>2026-05-02T09:39:15.999Z</time></trkpt><trkpt lat="46.18555229329123" lon="11.423174244973689"><ele>1597.0</ele><time>2026-05-02T09:39:16.999Z</time></trkpt><trkpt lat="46.18566025176612" lon="11.423237779085342"><ele>1598.25</ele><time>2026-05-02T09:39:17.999Z</time></trkpt><trkpt lat="46.18576709059146" lon="11.423305075697224"><ele>1599.5</ele><time>2026-05-02T09:39:18.999Z</time></trkpt><trkpt lat="46.185879115520834" lon="11.423372151851396"><ele>1600.75</ele><time>2026-05-02T09:39:19.999Z</time></trkpt><trkpt lat="46.1859947578113" lon="11.423442484591002"><ele>1602.0</ele><time>2026-05-02T09:39:20.999Z</time></trkpt><trkpt lat="46.186113139806636" lon="11.423518855156527"><ele>1602.0</ele><time>2026-05-02T09:39:21.999Z</time></trkpt><trkpt lat="46.18623354484816" lon="11.423596642230127"><ele>1602.0</ele><time>2026-05-02T09:39:22.999Z</time></trkpt><trkpt lat="46.186355301010416" lon="11.42367500765068"><ele>1602.0</ele><time>2026-05-02T09:39:23.999Z</time></trkpt><trkpt lat="46.18647906687607" lon="11.4237533212406"><ele>1602.0</ele><time>2026-05-02T09:39:24.999Z</time></trkpt><trkpt lat="46.18660443938606" lon="11.423832934081204"><ele>1606.25</ele><time>2026-05-02T09:39:25.999Z</time></trkpt><trkpt lat="46.18672991334059" lon="11.423916373125579"><ele>1610.5</ele><time>2026-05-02T09:39:26.999Z</time></trkpt><trkpt lat="46.18685662896612" lon="11.424001190950296"><ele>1614.75</ele><time>2026-05-02T09:39:27.999Z</time></trkpt><trkpt lat="46.186982229664864" lon="11.424076573971034"><ele>1619.0</ele><time>2026-05-02T09:39:28.999Z</time></trkpt><trkpt lat="46.187108120819964" lon="11.424147575571856"><ele>1619.0</ele><time>2026-05-02T09:39:30Z</time></trkpt><trkpt lat="46.187224456316024" lon="11.424225490443302"><ele>1619.0</ele><time>2026-05-02T09:39:31Z</time></trkpt><trkpt lat="46.18732219848616" lon="11.424311974717577"><ele>1619.0</ele><time>2026-05-02T09:39:32Z</time></trkpt><trkpt lat="46.18740612561291" lon="11.424394976236758"><ele>1619.0</ele><time>2026-05-02T09:39:33Z</time></trkpt><trkpt lat="46.18748112606928" lon="11.424463562268"><ele>1619.0</ele><time>2026-05-02T09:39:34Z</time></trkpt><trkpt lat="46.18755919790494" lon="11.424507039708267"><ele>1617.6666666666665</ele><time>2026-05-02T09:39:35Z</time></trkpt><trkpt lat="46.187635708425304" lon="11.424537009925984"><ele>1616.3333333333333</ele><time>2026-05-02T09:39:36Z</time></trkpt><trkpt lat="46.18773769903293" lon="11.424592744893179"><ele>1615.0</ele><time>2026-05-02T09:39:38Z</time></trkpt><trkpt lat="46.18774170776032" lon="11.424696676509882"><ele>1613.6666666666665</ele><time>2026-05-02T09:39:40Z</time></trkpt><trkpt lat="46.18764674098693" lon="11.424742380947961"><ele>1612.3333333333333</ele><time>2026-05-02T09:39:42Z</time></trkpt><trkpt lat="46.18756150745748" lon="11.424710671207205"><ele>1611.0</ele><time>2026-05-02T09:39:43Z</time></trkpt><trkpt lat="46.1874690536164" lon="11.424690120892722"><ele>1620.25</ele><time>2026-05-02T09:39:44Z</time></trkpt><trkpt lat="46.18734241996226" lon="11.424681331888104"><ele>1629.5</ele><time>2026-05-02T09:39:45Z</time></trkpt><trkpt lat="46.187207785505436" lon="11.424675369372403"><ele>1638.75</ele><time>2026-05-02T09:39:46Z</time></trkpt><trkpt lat="46.18706335402706" lon="11.424682861435802"><ele>1648.0</ele><time>2026-05-02T09:39:47Z</time></trkpt><trkpt lat="46.186921129588626" lon="11.424698899346106"><ele>1648.0</ele><time>2026-05-02T09:39:48Z</time></trkpt><trkpt lat="46.18678075726169" lon="11.424705861205531"><ele>1648.0</ele><time>2026-05-02T09:39:49Z</time></trkpt><trkpt lat="46.18664271073312" lon="11.424710614659292"><ele>1648.0</ele><time>2026-05-02T09:39:50Z</time></trkpt><trkpt lat="46.18651498208445" lon="11.424717574962203"><ele>1648.0</ele><time>2026-05-02T09:39:51Z</time></trkpt><trkpt lat="46.186395852269875" lon="11.424727257893155"><ele>1649.0</ele><time>2026-05-02T09:39:52Z</time></trkpt><trkpt lat="46.18628792983877" lon="11.424741830334346"><ele>1650.0</ele><time>2026-05-02T09:39:53Z</time></trkpt><trkpt lat="46.18618392028254" lon="11.42476012547371"><ele>1651.0</ele><time>2026-05-02T09:39:54Z</time></trkpt><trkpt lat="46.1860757876116" lon="11.424779075635293"><ele>1652.0</ele><time>2026-05-02T09:39:55Z</time></trkpt><trkpt lat="46.18595897684118" lon="11.424796938160313"><ele>1653.0</ele><time>2026-05-02T09:39:56Z</time></trkpt><trkpt lat="46.18583473257979" lon="11.424825277361819"><ele>1653.0</ele><time>2026-05-02T09:39:57Z</time></trkpt><trkpt lat="46.18571642588485" lon="11.42487309482259"><ele>1653.0</ele><time>2026-05-02T09:39:58Z</time></trkpt><trkpt lat="46.18560800228477" lon="11.42494244728838"><ele>1653.0</ele><time>2026-05-02T09:39:59Z</time></trkpt><trkpt lat="46.185500319615734" lon="11.425011158990435"><ele>1653.0</ele><time>2026-05-02T09:40:00Z</time></trkpt><trkpt lat="46.18538853135915" lon="11.425078748046722"><ele>1651.0</ele><time>2026-05-02T09:40:01Z</time></trkpt><trkpt lat="46.185275260909" lon="11.42515068819842"><ele>1649.0</ele><time>2026-05-02T09:40:02Z</time></trkpt><trkpt lat="46.185162637149304" lon="11.425236734598505"><ele>1647.0</ele><time>2026-05-02T09:40:03Z</time></trkpt><trkpt lat="46.18505585471708" lon="11.425340938319891"><ele>1645.0</ele><time>2026-05-02T09:40:04Z</time></trkpt><trkpt lat="46.184962211194055" lon="11.425465997081496"><ele>1645.0</ele><time>2026-05-02T09:40:05Z</time></trkpt><trkpt lat="46.18487649205965" lon="11.425593778002948"><ele>1645.0</ele><time>2026-05-02T09:40:06Z</time></trkpt><trkpt lat="46.184779979754175" lon="11.425699529827156"><ele>1645.0</ele><time>2026-05-02T09:40:07Z</time></trkpt><trkpt lat="46.18468258573209" lon="11.42577982681438"><ele>1645.0</ele><time>2026-05-02T09:40:08Z</time></trkpt><trkpt lat="46.184603043219155" lon="11.425827992545704"><ele>1645.0</ele><time>2026-05-02T09:40:09Z</time></trkpt><trkpt lat="46.18453376047241" lon="11.425851611401734"><ele>1645.0000000000002</ele><time>2026-05-02T09:40:10Z</time></trkpt><trkpt lat="46.18443438344724" lon="11.425908763164765"><ele>1645.0</ele><time>2026-05-02T09:40:12Z</time></trkpt><trkpt lat="46.18442815584322" lon="11.426021739449329"><ele>1645.0</ele><time>2026-05-02T09:40:14Z</time></trkpt><trkpt lat="46.18450910181677" lon="11.426049624306405"><ele>1645.0</ele><time>2026-05-02T09:40:16Z</time></trkpt><trkpt lat="46.18457616743762" lon="11.426013458481656"><ele>1645.0000000000002</ele><time>2026-05-02T09:40:17Z</time></trkpt><trkpt lat="46.18465562174986" lon="11.425961372094513"><ele>1645.0</ele><time>2026-05-02T09:40:18Z</time></trkpt><trkpt lat="46.18476240824304" lon="11.425914416914683"><ele>1651.0</ele><time>2026-05-02T09:40:19Z</time></trkpt><trkpt lat="46.184874410591256" lon="11.42586909451867"><ele>1657.0</ele><time>2026-05-02T09:40:20Z</time></trkpt><trkpt lat="46.184987083915175" lon="11.425824465462545"><ele>1663.0</ele><time>2026-05-02T09:40:21Z</time></trkpt><trkpt lat="46.18509619851134" lon="11.425783306527936"><ele>1669.0</ele><time>2026-05-02T09:40:22Z</time></trkpt><trkpt lat="46.18520020850819" lon="11.425743531122608"><ele>1669.0</ele><time>2026-05-02T09:40:23Z</time></trkpt><trkpt lat="46.18530091905838" lon="11.425729444601792"><ele>1669.0</ele><time>2026-05-02T09:40:24Z</time></trkpt><trkpt lat="46.18539754787128" lon="11.425735530699045"><ele>1669.0</ele><time>2026-05-02T09:40:25Z</time></trkpt><trkpt lat="46.18549393345449" lon="11.425738299192474"><ele>1669.0</ele><time>2026-05-02T09:40:26Z</time></trkpt><trkpt lat="46.18559498184794" lon="11.425734760572938"><ele>1669.0</ele><time>2026-05-02T09:40:27Z</time></trkpt><trkpt lat="46.18570867117565" lon="11.425731164409795"><ele>1671.25</ele><time>2026-05-02T09:40:28Z</time></trkpt><trkpt lat="46.18583089037689" lon="11.42573703401573"><ele>1673.5</ele><time>2026-05-02T09:40:29Z</time></trkpt><trkpt lat="46.18595922804413" lon="11.425768319416992"><ele>1675.75</ele><time>2026-05-02T09:40:30Z</time></trkpt><trkpt lat="46.18608893988372" lon="11.42582016055953"><ele>1678.0</ele><time>2026-05-02T09:40:31Z</time></trkpt><trkpt lat="46.186205055054096" lon="11.425875279743988"><ele>1678.0000000000002</ele><time>2026-05-02T09:40:32Z</time></trkpt><trkpt lat="46.186313121833294" lon="11.425921999400044"><ele>1678.0</ele><time>2026-05-02T09:40:33Z</time></trkpt><trkpt lat="46.18639858016784" lon="11.425951129595838"><ele>1678.0</ele><time>2026-05-02T09:40:34Z</time></trkpt><trkpt lat="46.18646800645376" lon="11.425965721188662"><ele>1678.0</ele><time>2026-05-02T09:40:35Z</time></trkpt><trkpt lat="46.186544525162404" lon="11.425981377975429"><ele>1678.0000000000002</ele><time>2026-05-02T09:40:37Z</time></trkpt><trkpt lat="46.186573079368465" lon="11.426063252117153"><ele>1678.0</ele><time>2026-05-02T09:40:39Z</time></trkpt><trkpt lat="46.186507135651766" lon="11.426129200267091"><ele>1678.0</ele><time>2026-05-02T09:40:41Z</time></trkpt><trkpt lat="46.18643527716035" lon="11.42610329009787"><ele>1678.0</ele><time>2026-05-02T09:40:42Z</time></trkpt><trkpt lat="46.18635807499894" lon="11.426062799998816"><ele>1678.0</ele><time>2026-05-02T09:40:43Z</time></trkpt><trkpt lat="46.18626624578292" lon="11.426067491840746"><ele>1678.0</ele><time>2026-05-02T09:40:44Z</time></trkpt><trkpt lat="46.18616328271975" lon="11.426082515382065"><ele>1678.0</ele><time>2026-05-02T09:40:45Z</time></trkpt><trkpt lat="46.18605476614836" lon="11.426114677610654"><ele>1678.0</ele><time>2026-05-02T09:40:46Z</time></trkpt><trkpt lat="46.18594309793406" lon="11.426159946175396"><ele>1678.0</ele><time>2026-05-02T09:40:46.999Z</time></trkpt><trkpt lat="46.18583346940013" lon="11.426216651774808"><ele>1678.0</ele><time>2026-05-02T09:40:47.999Z</time></trkpt><trkpt lat="46.18572339918728" lon="11.426278566737434"><ele>1678.0</ele><time>2026-05-02T09:40:48.999Z</time></trkpt><trkpt lat="46.185614002774045" lon="11.426331477444787"><ele>1681.25</ele><time>2026-05-02T09:40:49.999Z</time></trkpt><trkpt lat="46.18550842532022" lon="11.426386393745029"><ele>1684.5</ele><time>2026-05-02T09:40:50.999Z</time></trkpt><trkpt lat="46.185417328726416" lon="11.426466334653773"><ele>1687.75</ele><time>2026-05-02T09:40:51.999Z</time></trkpt><trkpt lat="46.18532965710735" lon="11.426566136949479"><ele>1691.0</ele><time>2026-05-02T09:40:52.999Z</time></trkpt><trkpt lat="46.18524637688953" lon="11.426698416902308"><ele>1691.0</ele><time>2026-05-02T09:40:53.999Z</time></trkpt><trkpt lat="46.185159999966565" lon="11.426844191830089"><ele>1691.0</ele><time>2026-05-02T09:40:54.999Z</time></trkpt><trkpt lat="46.18506422127159" lon="11.427003862299784"><ele>1691.0</ele><time>2026-05-02T09:40:55.999Z</time></trkpt><trkpt lat="46.18496753650009" lon="11.427166809302806"><ele>1691.0</ele><time>2026-05-02T09:40:56.999Z</time></trkpt><trkpt lat="46.18488073267566" lon="11.427327563668312"><ele>1690.75</ele><time>2026-05-02T09:40:57.999Z</time></trkpt><trkpt lat="46.18480076055994" lon="11.427491719143177"><ele>1690.5</ele><time>2026-05-02T09:40:58.999Z</time></trkpt><trkpt lat="46.18472279395729" lon="11.427664113191614"><ele>1690.25</ele><time>2026-05-02T09:40:59.999Z</time></trkpt><trkpt lat="46.184635362318346" lon="11.427844400733319"><ele>1690.0</ele><time>2026-05-02T09:41:00.999Z</time></trkpt><trkpt lat="46.184549299850325" lon="11.42802349678877"><ele>1694.25</ele><time>2026-05-02T09:41:01.999Z</time></trkpt><trkpt lat="46.18446670302279" lon="11.428199338114682"><ele>1698.5</ele><time>2026-05-02T09:41:02.999Z</time></trkpt><trkpt lat="46.1843883117897" lon="11.428373114878081"><ele>1702.75</ele><time>2026-05-02T09:41:03.999Z</time></trkpt><trkpt lat="46.18431629648982" lon="11.428546690214635"><ele>1707.0</ele><time>2026-05-02T09:41:04.999Z</time></trkpt><trkpt lat="46.18424618068596" lon="11.428716410356035"><ele>1704.75</ele><time>2026-05-02T09:41:05.999Z</time></trkpt><trkpt lat="46.18417107592835" lon="11.42887894477461"><ele>1702.5</ele><time>2026-05-02T09:41:06.999Z</time></trkpt><trkpt lat="46.18409080672514" lon="11.429032944855093"><ele>1700.25</ele><time>2026-05-02T09:41:07.999Z</time></trkpt><trkpt lat="46.18401129524082" lon="11.429184749810785"><ele>1698.0</ele><time>2026-05-02T09:41:08.999Z</time></trkpt><trkpt lat="46.18393671517268" lon="11.42932872390032"><ele>1698.0</ele><time>2026-05-02T09:41:09.999Z</time></trkpt><trkpt lat="46.183867148608236" lon="11.429465665114678"><ele>1698.0</ele><time>2026-05-02T09:41:10.999Z</time></trkpt><trkpt lat="46.18380159669178" lon="11.42960611079341"><ele>1698.0</ele><time>2026-05-02T09:41:11.999Z</time></trkpt><trkpt lat="46.183744291553516" lon="11.429757047401392"><ele>1698.0</ele><time>2026-05-02T09:41:12.999Z</time></trkpt><trkpt lat="46.18369303878664" lon="11.429913706490646"><ele>1703.0</ele><time>2026-05-02T09:41:13.999Z</time></trkpt><trkpt lat="46.183643104688684" lon="11.430074062589888"><ele>1708.0</ele><time>2026-05-02T09:41:14.999Z</time></trkpt><trkpt lat="46.183594781172445" lon="11.430235344183673"><ele>1713.0</ele><time>2026-05-02T09:41:15.999Z</time></trkpt><trkpt lat="46.18355626893606" lon="11.430397129739381"><ele>1718.0</ele><time>2026-05-02T09:41:16.999Z</time></trkpt><trkpt lat="46.18352788618537" lon="11.430560192197506"><ele>1721.6000000000001</ele><time>2026-05-02T09:41:17.999Z</time></trkpt><trkpt lat="46.18350370851811" lon="11.430711770335858"><ele>1725.2000000000003</ele><time>2026-05-02T09:41:18.999Z</time></trkpt><trkpt lat="46.183466731917555" lon="11.430844505588784"><ele>1728.8</ele><time>2026-05-02T09:41:19.999Z</time></trkpt><trkpt lat="46.18340560584697" lon="11.430951481000704"><ele>1732.4</ele><time>2026-05-02T09:41:20.999Z</time></trkpt><trkpt lat="46.18334870088251" lon="11.431046045022052"><ele>1736.0</ele><time>2026-05-02T09:41:21.999Z</time></trkpt><trkpt lat="46.18331451804548" lon="11.431159009806422"><ele>1736.0</ele><time>2026-05-02T09:41:22.999Z</time></trkpt><trkpt lat="46.183296811678" lon="11.431292444262267"><ele>1736.0</ele><time>2026-05-02T09:41:23.999Z</time></trkpt><trkpt lat="46.18329454398707" lon="11.431445055148398"><ele>1736.0</ele><time>2026-05-02T09:41:24.999Z</time></trkpt><trkpt lat="46.18329310275825" lon="11.431594579885191"><ele>1736.0</ele><time>2026-05-02T09:41:25.999Z</time></trkpt><trkpt lat="46.18327058333791" lon="11.431736992244785"><ele>1736.0</ele><time>2026-05-02T09:41:26.999Z</time></trkpt><trkpt lat="46.183220843592615" lon="11.431874404673666"><ele>1735.75</ele><time>2026-05-02T09:41:27.999Z</time></trkpt><trkpt lat="46.183145543549266" lon="11.432002109860452"><ele>1735.5</ele><time>2026-05-02T09:41:28.999Z</time></trkpt><trkpt lat="46.18306161560885" lon="11.432120768033622"><ele>1735.25</ele><time>2026-05-02T09:41:29.999Z</time></trkpt><trkpt lat="46.18299131511588" lon="11.432245457668248"><ele>1735.0</ele><time>2026-05-02T09:41:30.999Z</time></trkpt><trkpt lat="46.18294638884203" lon="11.432395762360773"><ele>1735.0</ele><time>2026-05-02T09:41:31.999Z</time></trkpt><trkpt lat="46.18290700140036" lon="11.43256983297305"><ele>1735.0</ele><time>2026-05-02T09:41:32.999Z</time></trkpt><trkpt lat="46.18286496930757" lon="11.432754498430116"><ele>1735.0</ele><time>2026-05-02T09:41:33.999Z</time></trkpt><trkpt lat="46.182823152987865" lon="11.432938485542557"><ele>1735.0</ele><time>2026-05-02T09:41:34.999Z</time></trkpt><trkpt lat="46.1827873323321" lon="11.433121714685054"><ele>1737.0</ele><time>2026-05-02T09:41:36Z</time></trkpt><trkpt lat="46.18276343441781" lon="11.43330591033434"><ele>1739.0</ele><time>2026-05-02T09:41:37Z</time></trkpt><trkpt lat="46.18275496111552" lon="11.433488340189664"><ele>1741.0</ele><time>2026-05-02T09:41:38Z</time></trkpt><trkpt lat="46.182731412512354" lon="11.433667548561326"><ele>1743.0</ele><time>2026-05-02T09:41:39Z</time></trkpt><trkpt lat="46.182679046278146" lon="11.433841898469078"><ele>1745.75</ele><time>2026-05-02T09:41:40Z</time></trkpt><trkpt lat="46.18262183515684" lon="11.434008888731258"><ele>1748.5</ele><time>2026-05-02T09:41:41Z</time></trkpt><trkpt lat="46.182569724123255" lon="11.434177168110482"><ele>1751.25</ele><time>2026-05-02T09:41:42Z</time></trkpt><trkpt lat="46.1825158635438" lon="11.43435502130667"><ele>1754.0</ele><time>2026-05-02T09:41:43Z</time></trkpt><trkpt lat="46.182441367123666" lon="11.434353264896913"><ele>1754.0</ele><time>2026-05-02T09:41:44Z</time></trkpt><trkpt lat="46.18236849059292" lon="11.434513016981901"><ele>1754.0</ele><time>2026-05-02T09:41:45Z</time></trkpt><trkpt lat="46.18231397874327" lon="11.434681090303718"><ele>1754.0</ele><time>2026-05-02T09:41:46Z</time></trkpt><trkpt lat="46.18227711876542" lon="11.434868362478438"><ele>1754.0</ele><time>2026-05-02T09:41:47Z</time></trkpt><trkpt lat="46.18225007871456" lon="11.435062391407152"><ele>1754.6</ele><time>2026-05-02T09:41:48Z</time></trkpt><trkpt lat="46.18222938864498" lon="11.43525255975817"><ele>1755.2</ele><time>2026-05-02T09:41:49Z</time></trkpt><trkpt lat="46.18221392436376" lon="11.435414204645582"><ele>1755.7999999999997</ele><time>2026-05-02T09:41:50Z</time></trkpt><trkpt lat="46.182196370490516" lon="11.435536180521769"><ele>1756.3999999999999</ele><time>2026-05-02T09:41:51Z</time></trkpt><trkpt lat="46.18217596152851" lon="11.435633873937952"><ele>1757.0</ele><time>2026-05-02T09:41:52Z</time></trkpt><trkpt lat="46.18213687059647" lon="11.435749070129528"><ele>1757.0</ele><time>2026-05-02T09:41:54Z</time></trkpt><trkpt lat="46.182070285005324" lon="11.435894497240907"><ele>1757.0</ele><time>2026-05-02T09:41:56Z</time></trkpt><trkpt lat="46.182003247971785" lon="11.436005533495733"><ele>1757.0</ele><time>2026-05-02T09:41:57Z</time></trkpt><trkpt lat="46.181922534099066" lon="11.436119484315789"><ele>1757.0</ele><time>2026-05-02T09:41:58Z</time></trkpt><trkpt lat="46.18183577931506" lon="11.436253482074573"><ele>1761.75</ele><time>2026-05-02T09:41:59Z</time></trkpt><trkpt lat="46.18173755880524" lon="11.43641022695403"><ele>1766.5</ele><time>2026-05-02T09:42:00Z</time></trkpt><trkpt lat="46.18163144407516" lon="11.436568301826783"><ele>1771.25</ele><time>2026-05-02T09:42:01Z</time></trkpt><trkpt lat="46.181529715628365" lon="11.436714327100905"><ele>1776.0</ele><time>2026-05-02T09:42:02Z</time></trkpt><trkpt lat="46.18143122897402" lon="11.43685303148412"><ele>1780.0</ele><time>2026-05-02T09:42:03Z</time></trkpt><trkpt lat="46.181333305085936" lon="11.43698707555368"><ele>1784.0</ele><time>2026-05-02T09:42:04Z</time></trkpt><trkpt lat="46.181244750974074" lon="11.437113593578252"><ele>1788.0</ele><time>2026-05-02T09:42:05Z</time></trkpt><trkpt lat="46.18115755200357" lon="11.437234377161536"><ele>1792.0</ele><time>2026-05-02T09:42:06Z</time></trkpt><trkpt lat="46.18108735608879" lon="11.437312021289939"><ele>1792.6666666666667</ele><time>2026-05-02T09:42:07Z</time></trkpt><trkpt lat="46.18103292119982" lon="11.437363627081597"><ele>1793.3333333333335</ele><time>2026-05-02T09:42:08Z</time></trkpt><trkpt lat="46.18099688720062" lon="11.437460127808674"><ele>1794.0</ele><time>2026-05-02T09:42:10Z</time></trkpt><trkpt lat="46.1810623774338" lon="11.43753188787091"><ele>1794.6666666666665</ele><time>2026-05-02T09:42:12Z</time></trkpt><trkpt lat="46.18117446315076" lon="11.437488976448654"><ele>1795.3333333333333</ele><time>2026-05-02T09:42:14Z</time></trkpt><trkpt lat="46.18126015045457" lon="11.437430863227682"><ele>1796.0</ele><time>2026-05-02T09:42:15Z</time></trkpt><trkpt lat="46.18137106006736" lon="11.437394278487321"><ele>1796.0</ele><time>2026-05-02T09:42:16Z</time></trkpt><trkpt lat="46.18149078559355" lon="11.43738979936394"><ele>1796.0</ele><time>2026-05-02T09:42:17Z</time></trkpt><trkpt lat="46.181598144478905" lon="11.437398518494867"><ele>1796.0</ele><time>2026-05-02T09:42:18Z</time></trkpt><trkpt lat="46.18168491271281" lon="11.43738768100209"><ele>1796.0</ele><time>2026-05-02T09:42:19Z</time></trkpt><trkpt lat="46.18175871685652" lon="11.437332851600935"><ele>1796.0</ele><time>2026-05-02T09:42:20Z</time></trkpt><trkpt lat="46.18181948612713" lon="11.43724796640512"><ele>1795.6666666666665</ele><time>2026-05-02T09:42:21Z</time></trkpt><trkpt lat="46.18186509251589" lon="11.437165218590046"><ele>1795.3333333333333</ele><time>2026-05-02T09:42:22Z</time></trkpt><trkpt lat="46.18192519136089" lon="11.437134106424953"><ele>1795.0</ele><time>2026-05-02T09:42:24Z</time></trkpt><trkpt lat="46.18196618341284" lon="11.43724098406245"><ele>1794.6666666666665</ele><time>2026-05-02T09:42:26Z</time></trkpt><trkpt lat="46.181894776228845" lon="11.437350583601027"><ele>1794.3333333333333</ele><time>2026-05-02T09:42:28Z</time></trkpt><trkpt lat="46.18182503513663" lon="11.437434693603384"><ele>1794.0</ele><time>2026-05-02T09:42:29Z</time></trkpt><trkpt lat="46.181755955721094" lon="11.437555566997494"><ele>1794.0</ele><time>2026-05-02T09:42:30Z</time></trkpt><trkpt lat="46.18167926654155" lon="11.437702260139185"><ele>1794.0</ele><time>2026-05-02T09:42:31Z</time></trkpt><trkpt lat="46.18159717016581" lon="11.4378533534276"><ele>1794.0</ele><time>2026-05-02T09:42:32Z</time></trkpt><trkpt lat="46.18153227418854" lon="11.437988484673529"><ele>1794.0</ele><time>2026-05-02T09:42:33Z</time></trkpt><trkpt lat="46.18148198876041" lon="11.438102345433192"><ele>1794.6666666666667</ele><time>2026-05-02T09:42:34Z</time></trkpt><trkpt lat="46.181438496639394" lon="11.438196573142676"><ele>1795.3333333333335</ele><time>2026-05-02T09:42:35Z</time></trkpt><trkpt lat="46.18139067415578" lon="11.438322555940573"><ele>1796.0</ele><time>2026-05-02T09:42:37Z</time></trkpt><trkpt lat="46.18145054931321" lon="11.438398893481146"><ele>1796.6666666666667</ele><time>2026-05-02T09:42:39Z</time></trkpt><trkpt lat="46.18153564112054" lon="11.438344375053322"><ele>1797.3333333333335</ele><time>2026-05-02T09:42:41Z</time></trkpt><trkpt lat="46.181598803075694" lon="11.438237734574718"><ele>1798.0</ele><time>2026-05-02T09:42:43Z</time></trkpt><trkpt lat="46.181683070902395" lon="11.438128737969233"><ele>1797.2</ele><time>2026-05-02T09:42:45Z</time></trkpt><trkpt lat="46.18174734272725" lon="11.438052514506087"><ele>1796.4</ele><time>2026-05-02T09:42:46Z</time></trkpt><trkpt lat="46.1818289052902" lon="11.437966938645781"><ele>1795.6000000000001</ele><time>2026-05-02T09:42:47Z</time></trkpt><trkpt lat="46.181915472912785" lon="11.437866888194776"><ele>1794.8000000000002</ele><time>2026-05-02T09:42:48Z</time></trkpt><trkpt lat="46.18199288517163" lon="11.43776900234153"><ele>1794.0</ele><time>2026-05-02T09:42:49Z</time></trkpt><trkpt lat="46.182068696718126" lon="11.437692644027871"><ele>1794.0</ele><time>2026-05-02T09:42:50Z</time></trkpt><trkpt lat="46.18215484065682" lon="11.43764468966728"><ele>1794.0</ele><time>2026-05-02T09:42:51Z</time></trkpt><trkpt lat="46.18224591305037" lon="11.437626342106409"><ele>1794.0</ele><time>2026-05-02T09:42:52Z</time></trkpt><trkpt lat="46.18233147096207" lon="11.437597295248603"><ele>1794.0</ele><time>2026-05-02T09:42:53Z</time></trkpt><trkpt lat="46.18241471483334" lon="11.437548830706817"><ele>1794.0</ele><time>2026-05-02T09:42:54Z</time></trkpt><trkpt lat="46.18249091236401" lon="11.437470205855659"><ele>1794.4</ele><time>2026-05-02T09:42:55Z</time></trkpt><trkpt lat="46.18256266176155" lon="11.437383697855946"><ele>1794.8000000000002</ele><time>2026-05-02T09:42:56Z</time></trkpt><trkpt lat="46.18263665519958" lon="11.437304568200396"><ele>1795.1999999999998</ele><time>2026-05-02T09:42:56.999Z</time></trkpt><trkpt lat="46.18271820598944" lon="11.437232422354645"><ele>1795.6</ele><time>2026-05-02T09:42:57.999Z</time></trkpt><trkpt lat="46.18280333063214" lon="11.437165081454964"><ele>1796.0</ele><time>2026-05-02T09:42:58.999Z</time></trkpt><trkpt lat="46.182865613836135" lon="11.437100336504624"><ele>1795.9999999999998</ele><time>2026-05-02T09:42:59.999Z</time></trkpt><trkpt lat="46.18293041176501" lon="11.437000785478528"><ele>1796.0</ele><time>2026-05-02T09:43:01.999Z</time></trkpt><trkpt lat="46.182995970107996" lon="11.437085977736535"><ele>1796.0</ele><time>2026-05-02T09:43:04.999Z</time></trkpt><trkpt lat="46.18293608773454" lon="11.437209484524713"><ele>1796.0</ele><time>2026-05-02T09:43:06.999Z</time></trkpt><trkpt lat="46.18287089289935" lon="11.437274125677293"><ele>1795.9999999999998</ele><time>2026-05-02T09:43:07.999Z</time></trkpt><trkpt lat="46.1828055356546" lon="11.437345653201891"><ele>1796.0</ele><time>2026-05-02T09:43:08.999Z</time></trkpt><trkpt lat="46.182745928300825" lon="11.43743698048507"><ele>1801.4</ele><time>2026-05-02T09:43:09.999Z</time></trkpt><trkpt lat="46.18269383814267" lon="11.437548321767167"><ele>1806.8</ele><time>2026-05-02T09:43:10.999Z</time></trkpt><trkpt lat="46.18265713882233" lon="11.437684887036111"><ele>1812.2000000000003</ele><time>2026-05-02T09:43:11.999Z</time></trkpt><trkpt lat="46.18262069255534" lon="11.437831675159325"><ele>1817.6000000000001</ele><time>2026-05-02T09:43:12.999Z</time></trkpt><trkpt lat="46.18257022675717" lon="11.437977771946937"><ele>1823.0</ele><time>2026-05-02T09:43:13.999Z</time></trkpt><trkpt lat="46.182502603772264" lon="11.43809898786123"><ele>1820.2</ele><time>2026-05-02T09:43:14.999Z</time></trkpt><trkpt lat="46.18242163894612" lon="11.438181810933163"><ele>1817.4</ele><time>2026-05-02T09:43:15.999Z</time></trkpt><trkpt lat="46.182342801778766" lon="11.43822687733574"><ele>1814.6000000000001</ele><time>2026-05-02T09:43:16.999Z</time></trkpt><trkpt lat="46.1822832036896" lon="11.43826188708137"><ele>1811.8000000000002</ele><time>2026-05-02T09:43:17.999Z</time></trkpt><trkpt lat="46.18223161506191" lon="11.438432907006998"><ele>1809.0</ele><time>2026-05-02T09:43:19.999Z</time></trkpt><trkpt lat="46.182227449255585" lon="11.438574789048136"><ele>1809.0</ele><time>2026-05-02T09:43:20.999Z</time></trkpt><trkpt lat="46.182228475696796" lon="11.438753114733473"><ele>1809.0</ele><time>2026-05-02T09:43:21.999Z</time></trkpt><trkpt lat="46.18222812114303" lon="11.438919752799018"><ele>1809.0</ele><time>2026-05-02T09:43:22.999Z</time></trkpt><trkpt lat="46.18220077897821" lon="11.439050928380155"><ele>1809.0</ele><time>2026-05-02T09:43:23.999Z</time></trkpt><trkpt lat="46.18214139095687" lon="11.439152442019328"><ele>1809.0</ele><time>2026-05-02T09:43:24.999Z</time></trkpt><trkpt lat="46.18207548835091" lon="11.439232656088977"><ele>1812.75</ele><time>2026-05-02T09:43:25.999Z</time></trkpt><trkpt lat="46.18203675503949" lon="11.439339885781738"><ele>1816.5</ele><time>2026-05-02T09:43:26.999Z</time></trkpt><trkpt lat="46.18201388162339" lon="11.439483442772675"><ele>1820.25</ele><time>2026-05-02T09:43:27.999Z</time></trkpt><trkpt lat="46.181997245222966" lon="11.43968202434206"><ele>1824.0</ele><time>2026-05-02T09:43:28.999Z</time></trkpt><trkpt lat="46.18197946697086" lon="11.439894309957316"><ele>1827.75</ele><time>2026-05-02T09:43:29.999Z</time></trkpt><trkpt lat="46.18194038181632" lon="11.44009725687376"><ele>1831.5</ele><time>2026-05-02T09:43:30.999Z</time></trkpt><trkpt lat="46.181879061739025" lon="11.440282623289088"><ele>1835.25</ele><time>2026-05-02T09:43:31.999Z</time></trkpt><trkpt lat="46.18183260175322" lon="11.440455730350243"><ele>1839.0</ele><time>2026-05-02T09:43:32.999Z</time></trkpt><trkpt lat="46.181786899733844" lon="11.440616481090128"><ele>1839.5</ele><time>2026-05-02T09:43:33.999Z</time></trkpt><trkpt lat="46.181715974304225" lon="11.440743320443843"><ele>1840.0</ele><time>2026-05-02T09:43:34.999Z</time></trkpt><trkpt lat="46.18164342584285" lon="11.440862423711577"><ele>1840.5</ele><time>2026-05-02T09:43:35.999Z</time></trkpt><trkpt lat="46.18157087636395" lon="11.440998251849278"><ele>1841.0</ele><time>2026-05-02T09:43:36.999Z</time></trkpt><trkpt lat="46.18150075411968" lon="11.441145973741854"><ele>1841.0</ele><time>2026-05-02T09:43:37.999Z</time></trkpt><trkpt lat="46.1814231250514" lon="11.441297933493228"><ele>1841.0</ele><time>2026-05-02T09:43:38.999Z</time></trkpt><trkpt lat="46.181342265605046" lon="11.44144310292042"><ele>1841.0</ele><time>2026-05-02T09:43:39.999Z</time></trkpt><trkpt lat="46.181270930319975" lon="11.441580164919568"><ele>1841.0</ele><time>2026-05-02T09:43:41Z</time></trkpt><trkpt lat="46.181207282832375" lon="11.441711839243524"><ele>1844.1666666666665</ele><time>2026-05-02T09:43:42Z</time></trkpt><trkpt lat="46.1811529178446" lon="11.44182425663598"><ele>1847.3333333333333</ele><time>2026-05-02T09:43:43Z</time></trkpt><trkpt lat="46.181102341162344" lon="11.441921519217315"><ele>1850.5</ele><time>2026-05-02T09:43:44Z</time></trkpt><trkpt lat="46.181048777576876" lon="11.44200954625285"><ele>1853.6666666666665</ele><time>2026-05-02T09:43:45Z</time></trkpt><trkpt lat="46.18098170858829" lon="11.442073548392623"><ele>1856.8333333333333</ele><time>2026-05-02T09:43:46Z</time></trkpt><trkpt lat="46.18089971877247" lon="11.442098344665371"><ele>1860.0</ele><time>2026-05-02T09:43:47Z</time></trkpt><trkpt lat="46.180807549962786" lon="11.442111675268492"><ele>1860.0</ele><time>2026-05-02T09:43:48Z</time></trkpt><trkpt lat="46.18071171196532" lon="11.442103377852783"><ele>1860.0</ele><time>2026-05-02T09:43:49Z</time></trkpt><trkpt lat="46.18061631124944" lon="11.442068526442627"><ele>1860.0</ele><time>2026-05-02T09:43:50Z</time></trkpt><trkpt lat="46.18051743525543" lon="11.442003159884464"><ele>1860.0</ele><time>2026-05-02T09:43:51Z</time></trkpt><trkpt lat="46.180406005558936" lon="11.441920047884812"><ele>1860.0</ele><time>2026-05-02T09:43:52Z</time></trkpt><trkpt lat="46.1802839513811" lon="11.441830283293342"><ele>1865.4</ele><time>2026-05-02T09:43:53Z</time></trkpt><trkpt lat="46.18017681525436" lon="11.441752507506841"><ele>1870.8</ele><time>2026-05-02T09:43:54Z</time></trkpt><trkpt lat="46.180094316515394" lon="11.44169338601806"><ele>1876.1999999999998</ele><time>2026-05-02T09:43:55Z</time></trkpt><trkpt lat="46.18000828283377" lon="11.441679269581122"><ele>1881.6</ele><time>2026-05-02T09:43:56Z</time></trkpt><trkpt lat="46.17990836335199" lon="11.441661290911675"><ele>1887.0</ele><time>2026-05-02T09:43:57Z</time></trkpt><trkpt lat="46.17981303816433" lon="11.441605717295161"><ele>1887.0</ele><time>2026-05-02T09:43:58Z</time></trkpt><trkpt lat="46.17971582656459" lon="11.44151622346097"><ele>1886.9999999999998</ele><time>2026-05-02T09:43:59Z</time></trkpt><trkpt lat="46.17961420950197" lon="11.441421012076209"><ele>1886.9999999999998</ele><time>2026-05-02T09:44:00Z</time></trkpt><trkpt lat="46.17952335380098" lon="11.441343906089882"><ele>1887.0</ele><time>2026-05-02T09:44:01Z</time></trkpt><trkpt lat="46.17944031540857" lon="11.441297091964671"><ele>1887.0</ele><time>2026-05-02T09:44:02Z</time></trkpt><trkpt lat="46.17934571240874" lon="11.441291161756325"><ele>1887.0</ele><time>2026-05-02T09:44:03Z</time></trkpt><trkpt lat="46.17924025154903" lon="11.441302471902345"><ele>1886.9999999999998</ele><time>2026-05-02T09:44:04Z</time></trkpt><trkpt lat="46.17913746516862" lon="11.44127330534865"><ele>1886.9999999999998</ele><time>2026-05-02T09:44:05Z</time></trkpt><trkpt lat="46.17904711232386" lon="11.441184609099922"><ele>1887.0</ele><time>2026-05-02T09:44:06Z</time></trkpt><trkpt lat="46.17895958350395" lon="11.44111591533064"><ele>1887.0</ele><time>2026-05-02T09:44:07Z</time></trkpt><trkpt lat="46.17886020221157" lon="11.441084801784642"><ele>1893.3999999999999</ele><time>2026-05-02T09:44:08Z</time></trkpt><trkpt lat="46.17875626554538" lon="11.441059298541253"><ele>1899.7999999999997</ele><time>2026-05-02T09:44:09Z</time></trkpt><trkpt lat="46.1786659896956" lon="11.44098712536813"><ele>1906.2</ele><time>2026-05-02T09:44:10Z</time></trkpt><trkpt lat="46.17858677680643" lon="11.440874052042435"><ele>1912.6</ele><time>2026-05-02T09:44:11Z</time></trkpt><trkpt lat="46.17850627671487" lon="11.440736171233361"><ele>1919.0</ele><time>2026-05-02T09:44:12Z</time></trkpt><trkpt lat="46.17840136067104" lon="11.440617669210402"><ele>1919.0</ele><time>2026-05-02T09:44:13Z</time></trkpt><trkpt lat="46.178285376416184" lon="11.440506318908694"><ele>1919.0</ele><time>2026-05-02T09:44:14Z</time></trkpt><trkpt lat="46.17817101483983" lon="11.440384745855434"><ele>1919.0</ele><time>2026-05-02T09:44:15Z</time></trkpt><trkpt lat="46.17807121110418" lon="11.440258468203423"><ele>1919.0</ele><time>2026-05-02T09:44:16Z</time></trkpt><trkpt lat="46.17799183199702" lon="11.440144810226466"><ele>1919.4</ele><time>2026-05-02T09:44:17Z</time></trkpt><trkpt lat="46.17791932725905" lon="11.440047338316575"><ele>1919.8000000000002</ele><time>2026-05-02T09:44:18Z</time></trkpt><trkpt lat="46.17785022957941" lon="11.439952886066015"><ele>1920.1999999999998</ele><time>2026-05-02T09:44:19Z</time></trkpt><trkpt lat="46.17779444805492" lon="11.43984779616455"><ele>1920.6</ele><time>2026-05-02T09:44:20Z</time></trkpt><trkpt lat="46.17775321195961" lon="11.439735035668374"><ele>1921.0</ele><time>2026-05-02T09:44:21Z</time></trkpt><trkpt lat="46.17771632027785" lon="11.439620510597301"><ele>1921.0</ele><time>2026-05-02T09:44:22Z</time></trkpt><trkpt lat="46.177670261162696" lon="11.439518291609113"><ele>1921.0</ele><time>2026-05-02T09:44:23Z</time></trkpt><trkpt lat="46.17759321178214" lon="11.439430672925393"><ele>1921.0</ele><time>2026-05-02T09:44:24Z</time></trkpt><trkpt lat="46.177505714402706" lon="11.439345169626177"><ele>1921.0</ele><time>2026-05-02T09:44:25Z</time></trkpt><trkpt lat="46.177418228834654" lon="11.439242451895266"><ele>1921.0</ele><time>2026-05-02T09:44:26Z</time></trkpt><trkpt lat="46.17736697468305" lon="11.439122000640092"><ele>1923.6666666666667</ele><time>2026-05-02T09:44:27Z</time></trkpt><trkpt lat="46.177342866252374" lon="11.439019983188643"><ele>1926.3333333333335</ele><time>2026-05-02T09:44:28Z</time></trkpt><trkpt lat="46.177307759357696" lon="11.438923761374614"><ele>1929.0</ele><time>2026-05-02T09:44:29Z</time></trkpt><trkpt lat="46.17724437881323" lon="11.438847627543222"><ele>1931.6666666666665</ele><time>2026-05-02T09:44:30Z</time></trkpt><trkpt lat="46.17715875462615" lon="11.438788015799503"><ele>1934.3333333333333</ele><time>2026-05-02T09:44:31Z</time></trkpt><trkpt lat="46.177071162679816" lon="11.438717741562828"><ele>1937.0</ele><time>2026-05-02T09:44:32Z</time></trkpt><trkpt lat="46.176990812712" lon="11.438638926937784"><ele>1937.0</ele><time>2026-05-02T09:44:33Z</time></trkpt><trkpt lat="46.17692102545052" lon="11.438550484841851"><ele>1936.9999999999998</ele><time>2026-05-02T09:44:34Z</time></trkpt><trkpt lat="46.17686518706886" lon="11.438439030262867"><ele>1936.9999999999998</ele><time>2026-05-02T09:44:35Z</time></trkpt><trkpt lat="46.17681456026682" lon="11.438306827610537"><ele>1937.0</ele><time>2026-05-02T09:44:36Z</time></trkpt><trkpt lat="46.17676641853049" lon="11.438174518083592"><ele>1937.0</ele><time>2026-05-02T09:44:37Z</time></trkpt><trkpt lat="46.17672499833659" lon="11.438035045142373"><ele>1936.8</ele><time>2026-05-02T09:44:38Z</time></trkpt><trkpt lat="46.17670095214021" lon="11.437885444126241"><ele>1936.6</ele><time>2026-05-02T09:44:39Z</time></trkpt><trkpt lat="46.17669393641546" lon="11.437730768357996"><ele>1936.3999999999999</ele><time>2026-05-02T09:44:40Z</time></trkpt><trkpt lat="46.17671132424704" lon="11.437583610278367"><ele>1936.1999999999998</ele><time>2026-05-02T09:44:41Z</time></trkpt><trkpt lat="46.17673224776736" lon="11.437447728508095"><ele>1936.0</ele><time>2026-05-02T09:44:42Z</time></trkpt><trkpt lat="46.176733042991756" lon="11.437321049417802"><ele>1936.0000000000002</ele><time>2026-05-02T09:44:43Z</time></trkpt><trkpt lat="46.17671137975643" lon="11.437190817879307"><ele>1936.0</ele><time>2026-05-02T09:44:44Z</time></trkpt><trkpt lat="46.17670300808557" lon="11.43705037099089"><ele>1936.0</ele><time>2026-05-02T09:44:45Z</time></trkpt><trkpt lat="46.17667884127845" lon="11.436930875942224"><ele>1936.0</ele><time>2026-05-02T09:44:46Z</time></trkpt><trkpt lat="46.17666416166322" lon="11.436828123179458"><ele>1936.0000000000002</ele><time>2026-05-02T09:44:47Z</time></trkpt><trkpt lat="46.176591742626044" lon="11.436744202735133"><ele>1936.0</ele><time>2026-05-02T09:44:49Z</time></trkpt><trkpt lat="46.17644535928177" lon="11.436797793700013"><ele>1936.25</ele><time>2026-05-02T09:44:51Z</time></trkpt><trkpt lat="46.17634619012812" lon="11.436850565776158"><ele>1936.5</ele><time>2026-05-02T09:44:52Z</time></trkpt><trkpt lat="46.17619976920254" lon="11.436921121359042"><ele>1936.75</ele><time>2026-05-02T09:44:53Z</time></trkpt><trkpt lat="46.17604362508399" lon="11.437008507168786"><ele>1937.0</ele><time>2026-05-02T09:44:54Z</time></trkpt><trkpt lat="46.17589743849952" lon="11.437083233352656"><ele>1942.25</ele><time>2026-05-02T09:44:55Z</time></trkpt><trkpt lat="46.175756869209465" lon="11.437152665231284"><ele>1947.5</ele><time>2026-05-02T09:44:56Z</time></trkpt><trkpt lat="46.17562454660613" lon="11.4372223914492"><ele>1952.75</ele><time>2026-05-02T09:44:57Z</time></trkpt><trkpt lat="46.175497856928644" lon="11.437288052071015"><ele>1958.0</ele><time>2026-05-02T09:44:58Z</time></trkpt><trkpt lat="46.17536288187097" lon="11.437367399721754"><ele>1958.0</ele><time>2026-05-02T09:44:59Z</time></trkpt><trkpt lat="46.175233651866805" lon="11.43742889120474"><ele>1958.0000000000002</ele><time>2026-05-02T09:45:00Z</time></trkpt><trkpt lat="46.17511287557571" lon="11.437477708858566"><ele>1958.0000000000002</ele><time>2026-05-02T09:45:01Z</time></trkpt><trkpt lat="46.17501436992191" lon="11.437504213124534"><ele>1958.0</ele><time>2026-05-02T09:45:02Z</time></trkpt><trkpt lat="46.17493239630737" lon="11.437503175056529"><ele>1958.0</ele><time>2026-05-02T09:45:03Z</time></trkpt><trkpt lat="46.17486815603549" lon="11.437477814586032"><ele>1958.0</ele><time>2026-05-02T09:45:04Z</time></trkpt><trkpt lat="46.17479866754111" lon="11.437488626949909"><ele>1958.0000000000002</ele><time>2026-05-02T09:45:06Z</time></trkpt><trkpt lat="46.17484789259128" lon="11.437622144183555"><ele>1958.0000000000002</ele><time>2026-05-02T09:45:08Z</time></trkpt><trkpt lat="46.17496423131448" lon="11.437665897292948"><ele>1958.0</ele><time>2026-05-02T09:45:09.999Z</time></trkpt><trkpt lat="46.17503742537798" lon="11.437645545556299"><ele>1958.0</ele><time>2026-05-02T09:45:10.999Z</time></trkpt><trkpt lat="46.17511599802119" lon="11.437607687271365"><ele>1957.9999999999998</ele><time>2026-05-02T09:45:11.999Z</time></trkpt><trkpt lat="46.17519508591122" lon="11.437608307278015"><ele>1958.0</ele><time>2026-05-02T09:45:12.999Z</time></trkpt><trkpt lat="46.175257565209556" lon="11.43766668089739"><ele>1958.0</ele><time>2026-05-02T09:45:13.999Z</time></trkpt><trkpt lat="46.17530700028578" lon="11.43775307782461"><ele>1958.0</ele><time>2026-05-02T09:45:14.999Z</time></trkpt><trkpt lat="46.17535749887536" lon="11.437830501104935"><ele>1957.9999999999998</ele><time>2026-05-02T09:45:15.999Z</time></trkpt><trkpt lat="46.17546260401719" lon="11.437837276506738"><ele>1958.0</ele><time>2026-05-02T09:45:17.999Z</time></trkpt><trkpt lat="46.17557651917486" lon="11.43776175128478"><ele>1957.9999999999998</ele><time>2026-05-02T09:45:19.999Z</time></trkpt><trkpt lat="46.17563727839727" lon="11.437730374620369"><ele>1958.0</ele><time>2026-05-02T09:45:20.999Z</time></trkpt><trkpt lat="46.1756979575118" lon="11.437694399866261"><ele>1958.0</ele><time>2026-05-02T09:45:21.999Z</time></trkpt><trkpt lat="46.17575655913058" lon="11.43765274706188"><ele>1958.0</ele><time>2026-05-02T09:45:22.999Z</time></trkpt><trkpt lat="46.17586462238941" lon="11.437594471781097"><ele>1957.9999999999998</ele><time>2026-05-02T09:45:24.999Z</time></trkpt><trkpt lat="46.17596597857338" lon="11.437679368042847"><ele>1958.0</ele><time>2026-05-02T09:45:26.999Z</time></trkpt><trkpt lat="46.17595160933941" lon="11.437787645987973"><ele>1957.9999999999998</ele><time>2026-05-02T09:45:28.999Z</time></trkpt><trkpt lat="46.17587902112281" lon="11.437793135884059"><ele>1958.0</ele><time>2026-05-02T09:45:30.999Z</time></trkpt><trkpt lat="46.175789223487804" lon="11.437780807642289"><ele>1958.0</ele><time>2026-05-02T09:45:32.999Z</time></trkpt><trkpt lat="46.175732177471744" lon="11.437841857847353"><ele>1958.0</ele><time>2026-05-02T09:45:33.999Z</time></trkpt><trkpt lat="46.17566386438146" lon="11.43793283207451"><ele>1957.9999999999998</ele><time>2026-05-02T09:45:34.999Z</time></trkpt><trkpt lat="46.17557446152574" lon="11.43801491165731"><ele>1958.0</ele><time>2026-05-02T09:45:35.999Z</time></trkpt><trkpt lat="46.175477991552015" lon="11.438083729325125"><ele>1961.6666666666665</ele><time>2026-05-02T09:45:36.999Z</time></trkpt><trkpt lat="46.17538501172032" lon="11.438157030229183"><ele>1965.3333333333333</ele><time>2026-05-02T09:45:37.999Z</time></trkpt><trkpt lat="46.17531025270832" lon="11.438217156282594"><ele>1969.0</ele><time>2026-05-02T09:45:38.999Z</time></trkpt><trkpt lat="46.17524229713489" lon="11.438226225678195"><ele>1972.6666666666665</ele><time>2026-05-02T09:45:39.999Z</time></trkpt><trkpt lat="46.175173183406734" lon="11.438183245766595"><ele>1976.3333333333333</ele><time>2026-05-02T09:45:40.999Z</time></trkpt><trkpt lat="46.17507595714318" lon="11.438181692270492"><ele>1980.0</ele><time>2026-05-02T09:45:42.999Z</time></trkpt><trkpt lat="46.17504653437656" lon="11.438323192504809"><ele>1980.0</ele><time>2026-05-02T09:45:44.999Z</time></trkpt><trkpt lat="46.17514264634064" lon="11.438418331919655"><ele>1980.0</ele><time>2026-05-02T09:45:47Z</time></trkpt><trkpt lat="46.17521143330847" lon="11.438422429302092"><ele>1980.0</ele><time>2026-05-02T09:45:48Z</time></trkpt><trkpt lat="46.175297128916334" lon="11.438432321170007"><ele>1980.0</ele><time>2026-05-02T09:45:49Z</time></trkpt><trkpt lat="46.175363854931476" lon="11.438487360437188"><ele>1980.0</ele><time>2026-05-02T09:45:50Z</time></trkpt><trkpt lat="46.17539647583865" lon="11.438585646415302"><ele>1980.0</ele><time>2026-05-02T09:45:51Z</time></trkpt><trkpt lat="46.17539912509906" lon="11.438690637721166"><ele>1980.0</ele><time>2026-05-02T09:45:52Z</time></trkpt><trkpt lat="46.175390083048676" lon="11.4387942999416"><ele>1980.0</ele><time>2026-05-02T09:45:53Z</time></trkpt><trkpt lat="46.17541235043902" lon="11.438893101546025"><ele>1980.0</ele><time>2026-05-02T09:45:54Z</time></trkpt><trkpt lat="46.17544480938762" lon="11.438988038001051"><ele>1980.0</ele><time>2026-05-02T09:45:55Z</time></trkpt><trkpt lat="46.17550150872388" lon="11.439060347968075"><ele>1980.0</ele><time>2026-05-02T09:45:56Z</time></trkpt><trkpt lat="46.17552203154997" lon="11.439147849981973"><ele>1980.0</ele><time>2026-05-02T09:45:57Z</time></trkpt><trkpt lat="46.17545298850374" lon="11.439274225079775"><ele>1982.6666666666667</ele><time>2026-05-02T09:45:59Z</time></trkpt><trkpt lat="46.175381625006416" lon="11.439292688181718"><ele>1985.3333333333335</ele><time>2026-05-02T09:46:00Z</time></trkpt><trkpt lat="46.17529493116386" lon="11.439278713632971"><ele>1988.0</ele><time>2026-05-02T09:46:01Z</time></trkpt><trkpt lat="46.1752082984219" lon="11.43923739514848"><ele>1990.6666666666667</ele><time>2026-05-02T09:46:02Z</time></trkpt><trkpt lat="46.17513663572698" lon="11.439173435899754"><ele>1993.3333333333335</ele><time>2026-05-02T09:46:03Z</time></trkpt><trkpt lat="46.175076779810325" lon="11.439132648009393"><ele>1996.0</ele><time>2026-05-02T09:46:04Z</time></trkpt><trkpt lat="46.17500933676173" lon="11.439135901097995"><ele>1996.0</ele><time>2026-05-02T09:46:05Z</time></trkpt><trkpt lat="46.17491678027596" lon="11.439181805951934"><ele>1996.0</ele><time>2026-05-02T09:46:06Z</time></trkpt><trkpt lat="46.174786939690314" lon="11.439255173761508"><ele>1996.0</ele><time>2026-05-02T09:46:07Z</time></trkpt><trkpt lat="46.17465142592738" lon="11.439320977867675"><ele>1996.0</ele><time>2026-05-02T09:46:08Z</time></trkpt><trkpt lat="46.174518111306554" lon="11.439381154600957"><ele>1999.1666666666667</ele><time>2026-05-02T09:46:09Z</time></trkpt><trkpt lat="46.17440576121117" lon="11.439423102608549"><ele>2002.3333333333335</ele><time>2026-05-02T09:46:10Z</time></trkpt><trkpt lat="46.17432151692823" lon="11.439439470605546"><ele>2005.5</ele><time>2026-05-02T09:46:11Z</time></trkpt><trkpt lat="46.174253895282575" lon="11.439467450075238"><ele>2008.6666666666665</ele><time>2026-05-02T09:46:12Z</time></trkpt><trkpt lat="46.17420221375486" lon="11.439540469971732"><ele>2011.8333333333333</ele><time>2026-05-02T09:46:13Z</time></trkpt><trkpt lat="46.17416334647847" lon="11.439643626705157"><ele>2015.0</ele><time>2026-05-02T09:46:14Z</time></trkpt><trkpt lat="46.17414279168524" lon="11.439764415803985"><ele>2014.9999999999998</ele><time>2026-05-02T09:46:15Z</time></trkpt><trkpt lat="46.17411575927935" lon="11.439878648347001"><ele>2015.0</ele><time>2026-05-02T09:46:16Z</time></trkpt><trkpt lat="46.174084168692424" lon="11.439975940984732"><ele>2014.9999999999998</ele><time>2026-05-02T09:46:17Z</time></trkpt><trkpt lat="46.17408007104559" lon="11.440073149651145"><ele>2014.9999999999998</ele><time>2026-05-02T09:46:18Z</time></trkpt><trkpt lat="46.1741057728096" lon="11.440167483733694"><ele>2015.0</ele><time>2026-05-02T09:46:19Z</time></trkpt><trkpt lat="46.174164922721694" lon="11.440240243896124"><ele>2014.9999999999998</ele><time>2026-05-02T09:46:20Z</time></trkpt><trkpt lat="46.174225604599435" lon="11.440305737889785"><ele>2014.9999999999998</ele><time>2026-05-02T09:46:21Z</time></trkpt><trkpt lat="46.17425970365123" lon="11.440383976450583"><ele>2016.4999999999998</ele><time>2026-05-02T09:46:22Z</time></trkpt><trkpt lat="46.174255063113335" lon="11.440476125257556"><ele>2018.0</ele><time>2026-05-02T09:46:23Z</time></trkpt><trkpt lat="46.174213828140154" lon="11.44055825727925"><ele>2019.5</ele><time>2026-05-02T09:46:24Z</time></trkpt><trkpt lat="46.17414586203176" lon="11.440626521038574"><ele>2021.0</ele><time>2026-05-02T09:46:25Z</time></trkpt><trkpt lat="46.174069162099066" lon="11.440673895199389"><ele>2022.4999999999998</ele><time>2026-05-02T09:46:26Z</time></trkpt><trkpt lat="46.17399804883858" lon="11.440688513079579"><ele>2024.0</ele><time>2026-05-02T09:46:27Z</time></trkpt><trkpt lat="46.173916402158575" lon="11.440583741750162"><ele>2024.3333333333333</ele><time>2026-05-02T09:46:29Z</time></trkpt><trkpt lat="46.17388650766129" lon="11.440486517360899"><ele>2024.6666666666665</ele><time>2026-05-02T09:46:30Z</time></trkpt><trkpt lat="46.173864761316956" lon="11.440359394461716"><ele>2025.0</ele><time>2026-05-02T09:46:31Z</time></trkpt><trkpt lat="46.173850208074654" lon="11.440224406285672"><ele>2025.3333333333335</ele><time>2026-05-02T09:46:32Z</time></trkpt><trkpt lat="46.173846009808585" lon="11.440088801104912"><ele>2025.6666666666667</ele><time>2026-05-02T09:46:33Z</time></trkpt><trkpt lat="46.17385787862635" lon="11.439955511780042"><ele>2026.0</ele><time>2026-05-02T09:46:34Z</time></trkpt><trkpt lat="46.17387058825067" lon="11.439833451067736"><ele>2026.0000000000002</ele><time>2026-05-02T09:46:35Z</time></trkpt><trkpt lat="46.17390194086665" lon="11.43968360805726"><ele>2026.0</ele><time>2026-05-02T09:46:37Z</time></trkpt><trkpt lat="46.173909973260145" lon="11.4395920609024"><ele>2026.0</ele><time>2026-05-02T09:46:39Z</time></trkpt><trkpt lat="46.17384085341001" lon="11.439545920726982"><ele>2026.0</ele><time>2026-05-02T09:46:41Z</time></trkpt><trkpt lat="46.17377617497776" lon="11.43965498939428"><ele>2026.0000000000002</ele><time>2026-05-02T09:46:43Z</time></trkpt><trkpt lat="46.173769946064716" lon="11.439777349077957"><ele>2026.0</ele><time>2026-05-02T09:46:44Z</time></trkpt><trkpt lat="46.173746017864886" lon="11.43992025186112"><ele>2026.0000000000002</ele><time>2026-05-02T09:46:45Z</time></trkpt><trkpt lat="46.173708994201945" lon="11.440063087662475"><ele>2026.0</ele><time>2026-05-02T09:46:46Z</time></trkpt><trkpt lat="46.173664702651536" lon="11.440189431916933"><ele>2026.0</ele><time>2026-05-02T09:46:47Z</time></trkpt><trkpt lat="46.173619088778445" lon="11.440296518278712"><ele>2026.0</ele><time>2026-05-02T09:46:48Z</time></trkpt><trkpt lat="46.17358421717907" lon="11.440394345928357"><ele>2026.0000000000002</ele><time>2026-05-02T09:46:49Z</time></trkpt><trkpt lat="46.1735505189378" lon="11.44049804287612"><ele>2026.0</ele><time>2026-05-02T09:46:50Z</time></trkpt><trkpt lat="46.173519706873705" lon="11.440601028265746"><ele>2026.0000000000002</ele><time>2026-05-02T09:46:51Z</time></trkpt><trkpt lat="46.173494873017745" lon="11.440701346126321"><ele>2026.0</ele><time>2026-05-02T09:46:52Z</time></trkpt><trkpt lat="46.173476704167044" lon="11.440801592742822"><ele>2026.0</ele><time>2026-05-02T09:46:53Z</time></trkpt><trkpt lat="46.17346204248368" lon="11.440897462259633"><ele>2026.0</ele><time>2026-05-02T09:46:54Z</time></trkpt><trkpt lat="46.1734480864545" lon="11.440987917364174"><ele>2026.0000000000002</ele><time>2026-05-02T09:46:55Z</time></trkpt><trkpt lat="46.173415070804744" lon="11.441152860200798"><ele>2026.0</ele><time>2026-05-02T09:46:57Z</time></trkpt><trkpt lat="46.173356004500334" lon="11.441295171430365"><ele>2028.0</ele><time>2026-05-02T09:46:59Z</time></trkpt><trkpt lat="46.1732798191891" lon="11.441448713566384"><ele>2030.0</ele><time>2026-05-02T09:47:01Z</time></trkpt><trkpt lat="46.17323632882797" lon="11.441523356694084"><ele>2032.0</ele><time>2026-05-02T09:47:02Z</time></trkpt><trkpt lat="46.173150910415416" lon="11.441639197006298"><ele>2034.0</ele><time>2026-05-02T09:47:04Z</time></trkpt><trkpt lat="46.17308058552639" lon="11.441761093121032"><ele>2036.0</ele><time>2026-05-02T09:47:06Z</time></trkpt><trkpt lat="46.173091444662845" lon="11.441908293767067"><ele>2033.1666666666665</ele><time>2026-05-02T09:47:08Z</time></trkpt><trkpt lat="46.173127075628145" lon="11.441987709701875"><ele>2030.3333333333333</ele><time>2026-05-02T09:47:09Z</time></trkpt><trkpt lat="46.173169204313595" lon="11.442077537134338"><ele>2027.5</ele><time>2026-05-02T09:47:10Z</time></trkpt><trkpt lat="46.17316003848632" lon="11.442255375853112"><ele>2024.6666666666665</ele><time>2026-05-02T09:47:12Z</time></trkpt><trkpt lat="46.17310593338317" lon="11.44234756832355"><ele>2021.8333333333333</ele><time>2026-05-02T09:47:13Z</time></trkpt><trkpt lat="46.17305382475147" lon="11.442437863830778"><ele>2019.0</ele><time>2026-05-02T09:47:14Z</time></trkpt><trkpt lat="46.17300973454478" lon="11.442527146843718"><ele>2019.0</ele><time>2026-05-02T09:47:15Z</time></trkpt><trkpt lat="46.17297728631397" lon="11.442646960886348"><ele>2019.0</ele><time>2026-05-02T09:47:16Z</time></trkpt><trkpt lat="46.17296203046109" lon="11.442796150330746"><ele>2019.0</ele><time>2026-05-02T09:47:17Z</time></trkpt><trkpt lat="46.17294193553376" lon="11.442956617824363"><ele>2019.0</ele><time>2026-05-02T09:47:18Z</time></trkpt><trkpt lat="46.172914520057915" lon="11.443086368056557"><ele>2019.0</ele><time>2026-05-02T09:47:19Z</time></trkpt><trkpt lat="46.17290408881603" lon="11.443209471525845"><ele>2018.4</ele><time>2026-05-02T09:47:20Z</time></trkpt><trkpt lat="46.172916094900835" lon="11.44335140117708"><ele>2017.8000000000002</ele><time>2026-05-02T09:47:20.999Z</time></trkpt><trkpt lat="46.17295096423993" lon="11.443498215954788"><ele>2017.1999999999998</ele><time>2026-05-02T09:47:21.999Z</time></trkpt><trkpt lat="46.172992738934965" lon="11.443633873707057"><ele>2016.6</ele><time>2026-05-02T09:47:22.999Z</time></trkpt><trkpt lat="46.17303151794762" lon="11.443771902878437"><ele>2016.0</ele><time>2026-05-02T09:47:23.999Z</time></trkpt><trkpt lat="46.17305427287401" lon="11.443917971710938"><ele>2015.5</ele><time>2026-05-02T09:47:24.999Z</time></trkpt><trkpt lat="46.17305286884096" lon="11.444051012849485"><ele>2015.0</ele><time>2026-05-02T09:47:25.999Z</time></trkpt><trkpt lat="46.17302405732746" lon="11.444168500925663"><ele>2014.5</ele><time>2026-05-02T09:47:26.999Z</time></trkpt><trkpt lat="46.17298092147769" lon="11.444274447571805"><ele>2014.0</ele><time>2026-05-02T09:47:27.999Z</time></trkpt><trkpt lat="46.172924924407326" lon="11.44435624311461"><ele>2013.5</ele><time>2026-05-02T09:47:28.999Z</time></trkpt><trkpt lat="46.17286057841719" lon="11.444415704763939"><ele>2013.0</ele><time>2026-05-02T09:47:29.999Z</time></trkpt><trkpt lat="46.17279121674187" lon="11.444440578592861"><ele>2013.0</ele><time>2026-05-02T09:47:30.999Z</time></trkpt><trkpt lat="46.17271601451419" lon="11.444436770271283"><ele>2013.0000000000002</ele><time>2026-05-02T09:47:31.999Z</time></trkpt><trkpt lat="46.172643315411264" lon="11.44441083682729"><ele>2013.0000000000002</ele><time>2026-05-02T09:47:32.999Z</time></trkpt><trkpt lat="46.17256570790822" lon="11.444351820843337"><ele>2013.0</ele><time>2026-05-02T09:47:33.999Z</time></trkpt><trkpt lat="46.172483895759285" lon="11.44426325323293"><ele>2013.0</ele><time>2026-05-02T09:47:34.999Z</time></trkpt><trkpt lat="46.17241078867284" lon="11.444142960729438"><ele>2012.0</ele><time>2026-05-02T09:47:35.999Z</time></trkpt><trkpt lat="46.17234453239913" lon="11.444014799178001"><ele>2011.0000000000002</ele><time>2026-05-02T09:47:36.999Z</time></trkpt><trkpt lat="46.172289157840474" lon="11.443892185929322"><ele>2010.0000000000002</ele><time>2026-05-02T09:47:37.999Z</time></trkpt><trkpt lat="46.17224881460302" lon="11.4437807031689"><ele>2009.0</ele><time>2026-05-02T09:47:38.999Z</time></trkpt><trkpt lat="46.17223721216572" lon="11.443663156764044"><ele>2008.0</ele><time>2026-05-02T09:47:39.999Z</time></trkpt><trkpt lat="46.17224468540695" lon="11.443538961089171"><ele>2006.5000000000002</ele><time>2026-05-02T09:47:40.999Z</time></trkpt><trkpt lat="46.172237611633584" lon="11.443420877599433"><ele>2005.0</ele><time>2026-05-02T09:47:41.999Z</time></trkpt><trkpt lat="46.17220359520044" lon="11.443321403331577"><ele>2003.5</ele><time>2026-05-02T09:47:42.999Z</time></trkpt><trkpt lat="46.172147165313646" lon="11.443247298921777"><ele>2002.0</ele><time>2026-05-02T09:47:43.999Z</time></trkpt><trkpt lat="46.17207520572901" lon="11.44321833037343"><ele>2000.5000000000002</ele><time>2026-05-02T09:47:44.999Z</time></trkpt><trkpt lat="46.17200275063192" lon="11.443229812890106"><ele>1999.0</ele><time>2026-05-02T09:47:45.999Z</time></trkpt><trkpt lat="46.1719401650934" lon="11.443294353200873"><ele>1999.0000000000002</ele><time>2026-05-02T09:47:46.999Z</time></trkpt><trkpt lat="46.17189171534505" lon="11.44340260982035"><ele>1999.0</ele><time>2026-05-02T09:47:47.999Z</time></trkpt><trkpt lat="46.17184146425365" lon="11.443520762223608"><ele>1999.0</ele><time>2026-05-02T09:47:48.999Z</time></trkpt><trkpt lat="46.17178138471912" lon="11.443608298591869"><ele>1999.0</ele><time>2026-05-02T09:47:49.999Z</time></trkpt><trkpt lat="46.171732988650575" lon="11.443684564991548"><ele>1999.0000000000002</ele><time>2026-05-02T09:47:50.999Z</time></trkpt><trkpt lat="46.171688022695115" lon="11.443769480687006"><ele>1999.0</ele><time>2026-05-02T09:47:52Z</time></trkpt><trkpt lat="46.1716349353912" lon="11.443823314856889"><ele>1998.0</ele><time>2026-05-02T09:47:53Z</time></trkpt><trkpt lat="46.17155692378986" lon="11.4438397051739"><ele>1997.0</ele><time>2026-05-02T09:47:54Z</time></trkpt><trkpt lat="46.17144752748484" lon="11.443841259557528"><ele>1996.0</ele><time>2026-05-02T09:47:55Z</time></trkpt><trkpt lat="46.17132349650664" lon="11.443870458449128"><ele>1995.0</ele><time>2026-05-02T09:47:56Z</time></trkpt><trkpt lat="46.171187969476385" lon="11.443924705417011"><ele>1995.0</ele><time>2026-05-02T09:47:57Z</time></trkpt><trkpt lat="46.171045269912575" lon="11.44398967053061"><ele>1995.0</ele><time>2026-05-02T09:47:58Z</time></trkpt><trkpt lat="46.170896192967646" lon="11.444042172697698"><ele>1995.0</ele><time>2026-05-02T09:47:59Z</time></trkpt><trkpt lat="46.170766153034045" lon="11.444085243534106"><ele>1995.0</ele><time>2026-05-02T09:48:00Z</time></trkpt><trkpt lat="46.170651769702445" lon="11.444134948244644"><ele>1993.0</ele><time>2026-05-02T09:48:01Z</time></trkpt><trkpt lat="46.1705439048379" lon="11.444180452059427"><ele>1991.0</ele><time>2026-05-02T09:48:02Z</time></trkpt><trkpt lat="46.170440931497986" lon="11.444216822188757"><ele>1989.0</ele><time>2026-05-02T09:48:03Z</time></trkpt><trkpt lat="46.170333948313925" lon="11.444241219452312"><ele>1987.0</ele><time>2026-05-02T09:48:04Z</time></trkpt><trkpt lat="46.1702194921941" lon="11.444248629352412"><ele>1985.0</ele><time>2026-05-02T09:48:05Z</time></trkpt><trkpt lat="46.170098774166014" lon="11.444226794004937"><ele>1985.0</ele><time>2026-05-02T09:48:06Z</time></trkpt><trkpt lat="46.16998316970609" lon="11.444172829188814"><ele>1985.0</ele><time>2026-05-02T09:48:07Z</time></trkpt><trkpt lat="46.16987024464536" lon="11.444144314781312"><ele>1985.0</ele><time>2026-05-02T09:48:08Z</time></trkpt><trkpt lat="46.169770308153524" lon="11.444146765257969"><ele>1985.0</ele><time>2026-05-02T09:48:09Z</time></trkpt><trkpt lat="46.16967534495814" lon="11.444155625241986"><ele>1985.0</ele><time>2026-05-02T09:48:10Z</time></trkpt><trkpt lat="46.16958814320736" lon="11.444121342212346"><ele>1987.0</ele><time>2026-05-02T09:48:11Z</time></trkpt><trkpt lat="46.16949619697536" lon="11.444048351557381"><ele>1989.0</ele><time>2026-05-02T09:48:12Z</time></trkpt><trkpt lat="46.16939477853228" lon="11.443970847462474"><ele>1991.0</ele><time>2026-05-02T09:48:13Z</time></trkpt><trkpt lat="46.16928524567955" lon="11.443894051865453"><ele>1993.0</ele><time>2026-05-02T09:48:14Z</time></trkpt><trkpt lat="46.16917304559687" lon="11.44380308072214"><ele>1990.25</ele><time>2026-05-02T09:48:15Z</time></trkpt><trkpt lat="46.169069215128964" lon="11.443721100137568"><ele>1987.5</ele><time>2026-05-02T09:48:16Z</time></trkpt><trkpt lat="46.16898097996217" lon="11.44362779799661"><ele>1984.75</ele><time>2026-05-02T09:48:17Z</time></trkpt><trkpt lat="46.16890087280539" lon="11.443495693460148"><ele>1982.0</ele><time>2026-05-02T09:48:18Z</time></trkpt><trkpt lat="46.16881676223457" lon="11.443355875383821"><ele>1981.9999999999998</ele><time>2026-05-02T09:48:19Z</time></trkpt><trkpt lat="46.16873194807025" lon="11.443231484063258"><ele>1982.0</ele><time>2026-05-02T09:48:20Z</time></trkpt><trkpt lat="46.16866505650669" lon="11.443142020436722"><ele>1982.0</ele><time>2026-05-02T09:48:21Z</time></trkpt><trkpt lat="46.16860476218136" lon="11.44306853928881"><ele>1982.0</ele><time>2026-05-02T09:48:22Z</time></trkpt><trkpt lat="46.16854734381812" lon="11.443000717007347"><ele>1981.9999999999998</ele><time>2026-05-02T09:48:23Z</time></trkpt><trkpt lat="46.168486489438045" lon="11.442932064844957"><ele>1982.0</ele><time>2026-05-02T09:48:24Z</time></trkpt><trkpt lat="46.16841700440789" lon="11.442863687514349"><ele>1982.1666666666665</ele><time>2026-05-02T09:48:25Z</time></trkpt><trkpt lat="46.16834301054345" lon="11.442803618652238"><ele>1982.3333333333333</ele><time>2026-05-02T09:48:26Z</time></trkpt><trkpt lat="46.16826973859889" lon="11.442767435388976"><ele>1982.5</ele><time>2026-05-02T09:48:27Z</time></trkpt><trkpt lat="46.16819717207696" lon="11.442750209682734"><ele>1982.6666666666665</ele><time>2026-05-02T09:48:28Z</time></trkpt><trkpt lat="46.168132656778184" lon="11.442661298738908"><ele>1982.8333333333333</ele><time>2026-05-02T09:48:30Z</time></trkpt><trkpt lat="46.16817681968369" lon="11.442558472641936"><ele>1983.0</ele><time>2026-05-02T09:48:32Z</time></trkpt><trkpt lat="46.1683111726987" lon="11.44260620354117"><ele>1974.0</ele><time>2026-05-02T09:48:34Z</time></trkpt><trkpt lat="46.16839409842218" lon="11.442673678144493"><ele>1965.0</ele><time>2026-05-02T09:48:35Z</time></trkpt><trkpt lat="46.168495626386445" lon="11.44275048156697"><ele>1956.0</ele><time>2026-05-02T09:48:36Z</time></trkpt><trkpt lat="46.168612380068375" lon="11.442821890257814"><ele>1947.0</ele><time>2026-05-02T09:48:37Z</time></trkpt><trkpt lat="46.16872628557884" lon="11.442881603589981"><ele>1947.0</ele><time>2026-05-02T09:48:38Z</time></trkpt><trkpt lat="46.16884293625783" lon="11.442937834514215"><ele>1947.0</ele><time>2026-05-02T09:48:39Z</time></trkpt><trkpt lat="46.1689538786733" lon="11.4430077088489"><ele>1947.0</ele><time>2026-05-02T09:48:40Z</time></trkpt><trkpt lat="46.169070192708425" lon="11.443079743438558"><ele>1947.0</ele><time>2026-05-02T09:48:41Z</time></trkpt><trkpt lat="46.16919327124626" lon="11.443130244653775"><ele>1949.5</ele><time>2026-05-02T09:48:42Z</time></trkpt><trkpt lat="46.169319364495706" lon="11.443163719055944"><ele>1952.0</ele><time>2026-05-02T09:48:43Z</time></trkpt><trkpt lat="46.169447676335345" lon="11.443174761624707"><ele>1954.5</ele><time>2026-05-02T09:48:44Z</time></trkpt><trkpt lat="46.16956176152502" lon="11.44318350389781"><ele>1957.0</ele><time>2026-05-02T09:48:45Z</time></trkpt><trkpt lat="46.169671331396934" lon="11.443171270585973"><ele>1957.0</ele><time>2026-05-02T09:48:46Z</time></trkpt><trkpt lat="46.16977431067095" lon="11.443117194597223"><ele>1957.0</ele><time>2026-05-02T09:48:47Z</time></trkpt><trkpt lat="46.16987095238179" lon="11.44302775908263"><ele>1957.0</ele><time>2026-05-02T09:48:48Z</time></trkpt><trkpt lat="46.16997271624403" lon="11.442932271348138"><ele>1957.0</ele><time>2026-05-02T09:48:49Z</time></trkpt><trkpt lat="46.170096779659524" lon="11.442869356855542"><ele>1950.1999999999998</ele><time>2026-05-02T09:48:50Z</time></trkpt><trkpt lat="46.170223998009746" lon="11.442820886366627"><ele>1943.3999999999999</ele><time>2026-05-02T09:48:51Z</time></trkpt><trkpt lat="46.17033394152624" lon="11.442772361041108"><ele>1936.6000000000001</ele><time>2026-05-02T09:48:52Z</time></trkpt><trkpt lat="46.17042874773291" lon="11.442718083167168"><ele>1929.8000000000002</ele><time>2026-05-02T09:48:53Z</time></trkpt><trkpt lat="46.17050560790683" lon="11.442647685516066"><ele>1923.0</ele><time>2026-05-02T09:48:54Z</time></trkpt><trkpt lat="46.1705613877703" lon="11.44255610993942"><ele>1923.0</ele><time>2026-05-02T09:48:55Z</time></trkpt><trkpt lat="46.17059474618358" lon="11.442427826598063"><ele>1923.0000000000002</ele><time>2026-05-02T09:48:56Z</time></trkpt><trkpt lat="46.17061485381003" lon="11.442286085840701"><ele>1923.0000000000002</ele><time>2026-05-02T09:48:57Z</time></trkpt><trkpt lat="46.1706499213761" lon="11.442172613766195"><ele>1923.0</ele><time>2026-05-02T09:48:58Z</time></trkpt><trkpt lat="46.17072144580772" lon="11.442061639032406"><ele>1923.0</ele><time>2026-05-02T09:48:59Z</time></trkpt><trkpt lat="46.170806133428016" lon="11.441929544904"><ele>1921.25</ele><time>2026-05-02T09:49:00Z</time></trkpt><trkpt lat="46.170892145678124" lon="11.441784749531392"><ele>1919.5</ele><time>2026-05-02T09:49:01Z</time></trkpt><trkpt lat="46.170974167204385" lon="11.441634529400275"><ele>1917.75</ele><time>2026-05-02T09:49:02Z</time></trkpt><trkpt lat="46.171071920970086" lon="11.441478115260058"><ele>1916.0</ele><time>2026-05-02T09:49:03Z</time></trkpt><trkpt lat="46.17118430154227" lon="11.44132752889601"><ele>1910.6</ele><time>2026-05-02T09:49:04Z</time></trkpt><trkpt lat="46.17128898814602" lon="11.441202216667655"><ele>1905.1999999999998</ele><time>2026-05-02T09:49:05Z</time></trkpt><trkpt lat="46.17136473218767" lon="11.441092227626157"><ele>1899.8000000000002</ele><time>2026-05-02T09:49:06Z</time></trkpt><trkpt lat="46.171420213589464" lon="11.44097791535703"><ele>1894.4</ele><time>2026-05-02T09:49:07Z</time></trkpt><trkpt lat="46.171451895159755" lon="11.440860947823174"><ele>1889.0</ele><time>2026-05-02T09:49:08Z</time></trkpt><trkpt lat="46.171477335923" lon="11.440699757825994"><ele>1889.0</ele><time>2026-05-02T09:49:09Z</time></trkpt><trkpt lat="46.171509374583344" lon="11.440505073525136"><ele>1889.0</ele><time>2026-05-02T09:49:10Z</time></trkpt><trkpt lat="46.1715378790913" lon="11.440283967695935"><ele>1889.0</ele><time>2026-05-02T09:49:11Z</time></trkpt><trkpt lat="46.17156223130293" lon="11.440051670457708"><ele>1895.0</ele><time>2026-05-02T09:49:12Z</time></trkpt><trkpt lat="46.1715879486851" lon="11.439828962047532"><ele>1901.0</ele><time>2026-05-02T09:49:13Z</time></trkpt><trkpt lat="46.17161318101291" lon="11.43960780514646"><ele>1907.0</ele><time>2026-05-02T09:49:14Z</time></trkpt><trkpt lat="46.171637232552165" lon="11.439385287698773"><ele>1907.0</ele><time>2026-05-02T09:49:15Z</time></trkpt><trkpt lat="46.171645332621274" lon="11.439172390208801"><ele>1907.0</ele><time>2026-05-02T09:49:16Z</time></trkpt><trkpt lat="46.17163595159818" lon="11.438957684507509"><ele>1907.0</ele><time>2026-05-02T09:49:17Z</time></trkpt><trkpt lat="46.171601616195346" lon="11.438732362769972"><ele>1907.6666666666665</ele><time>2026-05-02T09:49:18Z</time></trkpt><trkpt lat="46.17155319823747" lon="11.438504278218751"><ele>1908.3333333333335</ele><time>2026-05-02T09:49:19Z</time></trkpt><trkpt lat="46.171501627710924" lon="11.438287237880019"><ele>1909.0</ele><time>2026-05-02T09:49:20Z</time></trkpt><trkpt lat="46.171446791584586" lon="11.43809714888773"><ele>1897.5</ele><time>2026-05-02T09:49:21Z</time></trkpt><trkpt lat="46.17137371232836" lon="11.437922160417989"><ele>1886.0</ele><time>2026-05-02T09:49:22Z</time></trkpt><trkpt lat="46.1712970652163" lon="11.437769983210755"><ele>1874.5</ele><time>2026-05-02T09:49:23Z</time></trkpt><trkpt lat="46.17124306080005" lon="11.437617065849832"><ele>1863.0</ele><time>2026-05-02T09:49:24Z</time></trkpt><trkpt lat="46.17119736260185" lon="11.437454213152868"><ele>1863.0</ele><time>2026-05-02T09:49:24.999Z</time></trkpt><trkpt lat="46.17112848783568" lon="11.437288435151453"><ele>1863.0</ele><time>2026-05-02T09:49:25.999Z</time></trkpt><trkpt lat="46.17103623775349" lon="11.43711796569235"><ele>1863.0</ele><time>2026-05-02T09:49:26.999Z</time></trkpt><trkpt lat="46.17093566483731" lon="11.43694895450276"><ele>1863.0</ele><time>2026-05-02T09:49:27.999Z</time></trkpt><trkpt lat="46.17082811906266" lon="11.436789468546362"><ele>1857.0</ele><time>2026-05-02T09:49:28.999Z</time></trkpt><trkpt lat="46.17071442319485" lon="11.436640068645476"><ele>1851.0</ele><time>2026-05-02T09:49:29.999Z</time></trkpt><trkpt lat="46.1705985110357" lon="11.436497029220995"><ele>1845.0</ele><time>2026-05-02T09:49:30.999Z</time></trkpt><trkpt lat="46.17048332304392" lon="11.436354348169267"><ele>1851.5</ele><time>2026-05-02T09:49:31.999Z</time></trkpt><trkpt lat="46.170364875708884" lon="11.436228007795405"><ele>1858.0</ele><time>2026-05-02T09:49:32.999Z</time></trkpt><trkpt lat="46.17024167569079" lon="11.436123913627183"><ele>1864.5</ele><time>2026-05-02T09:49:33.999Z</time></trkpt><trkpt lat="46.17014072080346" lon="11.436038133790248"><ele>1871.0</ele><time>2026-05-02T09:49:34.999Z</time></trkpt><trkpt lat="46.17004749450836" lon="11.435949098240219"><ele>1871.0</ele><time>2026-05-02T09:49:35.999Z</time></trkpt><trkpt lat="46.169974646514234" lon="11.435854592167825"><ele>1871.0</ele><time>2026-05-02T09:49:36.999Z</time></trkpt><trkpt lat="46.169911837723944" lon="11.435731664313042"><ele>1871.0</ele><time>2026-05-02T09:49:37.999Z</time></trkpt><trkpt lat="46.16983967133635" lon="11.435622301243468"><ele>1871.0</ele><time>2026-05-02T09:49:38.999Z</time></trkpt><trkpt lat="46.16974574798153" lon="11.435548459550676"><ele>1871.0</ele><time>2026-05-02T09:49:39.999Z</time></trkpt><trkpt lat="46.16964525523375" lon="11.435494962866095"><ele>1869.3333333333333</ele><time>2026-05-02T09:49:40.999Z</time></trkpt><trkpt lat="46.16955783477535" lon="11.435444441138433"><ele>1867.6666666666665</ele><time>2026-05-02T09:49:41.999Z</time></trkpt><trkpt lat="46.169489828218836" lon="11.435374652916082"><ele>1866.0</ele><time>2026-05-02T09:49:42.999Z</time></trkpt><trkpt lat="46.16944029364163" lon="11.435277991442343"><ele>1864.3333333333335</ele><time>2026-05-02T09:49:43.999Z</time></trkpt><trkpt lat="46.16939565732981" lon="11.435172318618166"><ele>1862.6666666666667</ele><time>2026-05-02T09:49:44.999Z</time></trkpt><trkpt lat="46.169361860704434" lon="11.435074734305582"><ele>1861.0</ele><time>2026-05-02T09:49:45.999Z</time></trkpt><trkpt lat="46.16930397512342" lon="11.434965776994481"><ele>1861.0</ele><time>2026-05-02T09:49:47.999Z</time></trkpt><trkpt lat="46.16924004484389" lon="11.435014828845974"><ele>1861.0</ele><time>2026-05-02T09:49:49.999Z</time></trkpt><trkpt lat="46.169268002553444" lon="11.43514927447202"><ele>1861.0</ele><time>2026-05-02T09:49:51.999Z</time></trkpt><trkpt lat="46.1693245561164" lon="11.435239426337915"><ele>1861.0</ele><time>2026-05-02T09:49:52.999Z</time></trkpt><trkpt lat="46.169375790777906" lon="11.435358264445586"><ele>1861.0</ele><time>2026-05-02T09:49:53.999Z</time></trkpt><trkpt lat="46.169432367969634" lon="11.435482198873904"><ele>1854.1999999999998</ele><time>2026-05-02T09:49:54.999Z</time></trkpt><trkpt lat="46.169499744346226" lon="11.435594483806634"><ele>1847.3999999999999</ele><time>2026-05-02T09:49:55.999Z</time></trkpt><trkpt lat="46.16957758169207" lon="11.435696940265302"><ele>1840.6</ele><time>2026-05-02T09:49:56.999Z</time></trkpt><trkpt lat="46.169635491641365" lon="11.435814858453039"><ele>1833.8</ele><time>2026-05-02T09:49:58Z</time></trkpt><trkpt lat="46.16967392549349" lon="11.435964588130336"><ele>1827.0</ele><time>2026-05-02T09:49:59Z</time></trkpt><trkpt lat="46.16969760936094" lon="11.436112284314632"><ele>1827.0</ele><time>2026-05-02T09:50:00Z</time></trkpt><trkpt lat="46.16974601938543" lon="11.436247605569394"><ele>1827.0</ele><time>2026-05-02T09:50:01Z</time></trkpt><trkpt lat="46.1698215641772" lon="11.436382499092176"><ele>1827.0</ele><time>2026-05-02T09:50:02Z</time></trkpt><trkpt lat="46.16991098711963" lon="11.436513525930089"><ele>1827.0</ele><time>2026-05-02T09:50:03Z</time></trkpt><trkpt lat="46.16999894274086" lon="11.436639255493862"><ele>1826.0</ele><time>2026-05-02T09:50:04Z</time></trkpt><trkpt lat="46.17006610231413" lon="11.43679094711415"><ele>1825.0</ele><time>2026-05-02T09:50:05Z</time></trkpt><trkpt lat="46.170105984396294" lon="11.43694507467691"><ele>1824.0</ele><time>2026-05-02T09:50:06Z</time></trkpt><trkpt lat="46.17015612602784" lon="11.437089371909137"><ele>1823.0</ele><time>2026-05-02T09:50:07Z</time></trkpt><trkpt lat="46.17023967009797" lon="11.43722324948229"><ele>1823.0</ele><time>2026-05-02T09:50:08Z</time></trkpt><trkpt lat="46.17032845716729" lon="11.437370406702085"><ele>1823.0000000000002</ele><time>2026-05-02T09:50:09Z</time></trkpt><trkpt lat="46.17039208981167" lon="11.43750507513818"><ele>1823.0000000000002</ele><time>2026-05-02T09:50:10Z</time></trkpt><trkpt lat="46.17044114609464" lon="11.437622064181353"><ele>1823.0</ele><time>2026-05-02T09:50:11Z</time></trkpt><trkpt lat="46.1704801201515" lon="11.437746230793037"><ele>1823.0</ele><time>2026-05-02T09:50:12Z</time></trkpt><trkpt lat="46.1704971424102" lon="11.437883861073464"><ele>1821.0</ele><time>2026-05-02T09:50:13Z</time></trkpt><trkpt lat="46.17049406589094" lon="11.438034638251946"><ele>1819.0000000000002</ele><time>2026-05-02T09:50:14Z</time></trkpt><trkpt lat="46.170486109654426" lon="11.438194273384697"><ele>1817.0000000000002</ele><time>2026-05-02T09:50:15Z</time></trkpt><trkpt lat="46.17045201311766" lon="11.43834921878992"><ele>1815.0</ele><time>2026-05-02T09:50:16Z</time></trkpt><trkpt lat="46.170390323919534" lon="11.43849995368553"><ele>1813.0</ele><time>2026-05-02T09:50:17Z</time></trkpt><trkpt lat="46.170324134588164" lon="11.438650506257984"><ele>1814.2</ele><time>2026-05-02T09:50:18Z</time></trkpt><trkpt lat="46.17026735511853" lon="11.438805823791188"><ele>1815.4</ele><time>2026-05-02T09:50:19Z</time></trkpt><trkpt lat="46.170208501195226" lon="11.438947862088535"><ele>1816.6000000000001</ele><time>2026-05-02T09:50:20Z</time></trkpt><trkpt lat="46.1701502752412" lon="11.439068658439774"><ele>1817.8000000000002</ele><time>2026-05-02T09:50:21Z</time></trkpt><trkpt lat="46.17008911764768" lon="11.439151507439615"><ele>1819.0</ele><time>2026-05-02T09:50:22Z</time></trkpt><trkpt lat="46.170026227992146" lon="11.439200372016497"><ele>1819.0</ele><time>2026-05-02T09:50:23Z</time></trkpt><trkpt lat="46.16990867897153" lon="11.439153200410058"><ele>1819.0</ele><time>2026-05-02T09:50:25Z</time></trkpt><trkpt lat="46.16987078515015" lon="11.439072033887241"><ele>1819.0</ele><time>2026-05-02T09:50:26Z</time></trkpt><trkpt lat="46.16988873852424" lon="11.438912875459854"><ele>1819.0</ele><time>2026-05-02T09:50:28Z</time></trkpt><trkpt lat="46.169943649358444" lon="11.43884940835931"><ele>1819.0</ele><time>2026-05-02T09:50:29Z</time></trkpt><trkpt lat="46.170019640576115" lon="11.43879759904945"><ele>1818.0000000000002</ele><time>2026-05-02T09:50:30Z</time></trkpt><trkpt lat="46.17008408078528" lon="11.438732273421518"><ele>1817.0</ele><time>2026-05-02T09:50:31Z</time></trkpt><trkpt lat="46.17012137552159" lon="11.438650665615423"><ele>1816.0</ele><time>2026-05-02T09:50:32Z</time></trkpt><trkpt lat="46.17013835232812" lon="11.438537336349938"><ele>1815.0</ele><time>2026-05-02T09:50:33Z</time></trkpt><trkpt lat="46.1701221070913" lon="11.438404236392309"><ele>1814.0000000000002</ele><time>2026-05-02T09:50:34Z</time></trkpt><trkpt lat="46.17009150018103" lon="11.438267985614441"><ele>1813.0</ele><time>2026-05-02T09:50:35Z</time></trkpt><trkpt lat="46.17003658172923" lon="11.438134075601672"><ele>1813.0</ele><time>2026-05-02T09:50:36Z</time></trkpt><trkpt lat="46.169959416016034" lon="11.438022456108076"><ele>1813.0</ele><time>2026-05-02T09:50:37Z</time></trkpt><trkpt lat="46.16985493990809" lon="11.437916633076298"><ele>1813.0</ele><time>2026-05-02T09:50:38Z</time></trkpt><trkpt lat="46.16973925778013" lon="11.43781082804137"><ele>1813.0</ele><time>2026-05-02T09:50:39Z</time></trkpt><trkpt lat="46.16963240242222" lon="11.437700274095828"><ele>1808.75</ele><time>2026-05-02T09:50:40Z</time></trkpt><trkpt lat="46.16952314877339" lon="11.437604873813488"><ele>1804.5</ele><time>2026-05-02T09:50:41Z</time></trkpt><trkpt lat="46.16942155530908" lon="11.43754699941598"><ele>1800.25</ele><time>2026-05-02T09:50:42Z</time></trkpt><trkpt lat="46.169278879769095" lon="11.437487384331495"><ele>1796.0</ele><time>2026-05-02T09:50:43Z</time></trkpt><trkpt lat="46.169170634030294" lon="11.43744596474373"><ele>1795.9999999999998</ele><time>2026-05-02T09:50:44Z</time></trkpt><trkpt lat="46.16908515180027" lon="11.437392727925403"><ele>1796.0</ele><time>2026-05-02T09:50:45Z</time></trkpt><trkpt lat="46.169011798144815" lon="11.437337454667883"><ele>1796.0</ele><time>2026-05-02T09:50:46Z</time></trkpt><trkpt lat="46.16896062348892" lon="11.43725789139421"><ele>1796.0</ele><time>2026-05-02T09:50:47Z</time></trkpt><trkpt lat="46.16895159419153" lon="11.437135093932131"><ele>1795.9999999999998</ele><time>2026-05-02T09:50:48Z</time></trkpt><trkpt lat="46.16895056758319" lon="11.436996770819453"><ele>1796.0</ele><time>2026-05-02T09:50:49Z</time></trkpt><trkpt lat="46.168905613015404" lon="11.43687361419645"><ele>1790.8</ele><time>2026-05-02T09:50:50Z</time></trkpt><trkpt lat="46.16883351886233" lon="11.436774820337222"><ele>1785.6</ele><time>2026-05-02T09:50:51Z</time></trkpt><trkpt lat="46.16874768088312" lon="11.43668381356411"><ele>1780.4</ele><time>2026-05-02T09:50:52Z</time></trkpt><trkpt lat="46.168665011617605" lon="11.436567868820132"><ele>1775.2</ele><time>2026-05-02T09:50:53Z</time></trkpt><trkpt lat="46.168602822574385" lon="11.43644205574612"><ele>1770.0</ele><time>2026-05-02T09:50:54Z</time></trkpt><trkpt lat="46.16852805382889" lon="11.436334626221903"><ele>1767.6</ele><time>2026-05-02T09:50:55Z</time></trkpt><trkpt lat="46.168447411657084" lon="11.43623527584648"><ele>1765.2</ele><time>2026-05-02T09:50:56Z</time></trkpt><trkpt lat="46.16836965706186" lon="11.436141961426998"><ele>1762.8000000000002</ele><time>2026-05-02T09:50:57Z</time></trkpt><trkpt lat="46.168295085130225" lon="11.436052316094335"><ele>1760.4</ele><time>2026-05-02T09:50:58Z</time></trkpt><trkpt lat="46.16821863797291" lon="11.435955101261397"><ele>1758.0</ele><time>2026-05-02T09:50:59Z</time></trkpt><trkpt lat="46.16812730992006" lon="11.43584512170379"><ele>1758.0</ele><time>2026-05-02T09:51:00Z</time></trkpt><trkpt lat="46.168009312880976" lon="11.435747213574881"><ele>1758.0</ele><time>2026-05-02T09:51:01Z</time></trkpt><trkpt lat="46.16790332102954" lon="11.43564960179394"><ele>1758.0</ele><time>2026-05-02T09:51:02Z</time></trkpt><trkpt lat="46.167806385091566" lon="11.435558387984921"><ele>1758.0</ele><time>2026-05-02T09:51:03Z</time></trkpt><trkpt lat="46.167725524069205" lon="11.43546617413284"><ele>1758.0</ele><time>2026-05-02T09:51:04Z</time></trkpt><trkpt lat="46.16767517808727" lon="11.435377945200365"><ele>1758.0</ele><time>2026-05-02T09:51:05Z</time></trkpt><trkpt lat="46.16760981000304" lon="11.435353331339853"><ele>1758.0</ele><time>2026-05-02T09:51:07Z</time></trkpt><trkpt lat="46.16756889658811" lon="11.435474466112778"><ele>1758.0</ele><time>2026-05-02T09:51:09Z</time></trkpt><trkpt lat="46.16760433729628" lon="11.435562545721725"><ele>1758.0</ele><time>2026-05-02T09:51:10Z</time></trkpt><trkpt lat="46.16766579014312" lon="11.435611903659229"><ele>1758.0</ele><time>2026-05-02T09:51:11Z</time></trkpt><trkpt lat="46.16774676896509" lon="11.435697178468894"><ele>1758.0</ele><time>2026-05-02T09:51:12Z</time></trkpt><trkpt lat="46.16780478670953" lon="11.435855425589386"><ele>1758.0000000000002</ele><time>2026-05-02T09:51:13Z</time></trkpt><trkpt lat="46.167852153661094" lon="11.436018837053714"><ele>1758.0000000000002</ele><time>2026-05-02T09:51:14Z</time></trkpt><trkpt lat="46.16789042933895" lon="11.436160911485052"><ele>1758.0</ele><time>2026-05-02T09:51:15Z</time></trkpt><trkpt lat="46.167935097846765" lon="11.436271995701336"><ele>1758.0</ele><time>2026-05-02T09:51:16Z</time></trkpt><trkpt lat="46.16800240207791" lon="11.436360723490175"><ele>1756.3333333333333</ele><time>2026-05-02T09:51:17Z</time></trkpt><trkpt lat="46.1680836045078" lon="11.436440425641797"><ele>1754.6666666666665</ele><time>2026-05-02T09:51:18Z</time></trkpt><trkpt lat="46.16814210035627" lon="11.43650529746929"><ele>1753.0</ele><time>2026-05-02T09:51:19Z</time></trkpt><trkpt lat="46.16816538268854" lon="11.436629780408532"><ele>1751.3333333333333</ele><time>2026-05-02T09:51:21Z</time></trkpt><trkpt lat="46.16805642535796" lon="11.436655879579144"><ele>1749.6666666666665</ele><time>2026-05-02T09:51:23Z</time></trkpt><trkpt lat="46.16799226471892" lon="11.436598858528606"><ele>1748.0</ele><time>2026-05-02T09:51:24Z</time></trkpt><trkpt lat="46.16790717666665" lon="11.436518931718043"><ele>1748.0</ele><time>2026-05-02T09:51:25Z</time></trkpt><trkpt lat="46.167803527885276" lon="11.436427780162571"><ele>1748.0</ele><time>2026-05-02T09:51:26Z</time></trkpt><trkpt lat="46.16768677100756" lon="11.436351535611827"><ele>1748.0</ele><time>2026-05-02T09:51:27Z</time></trkpt><trkpt lat="46.16757587933155" lon="11.43625309047651"><ele>1748.0</ele><time>2026-05-02T09:51:28Z</time></trkpt><trkpt lat="46.16747098376097" lon="11.43617077455183"><ele>1750.5</ele><time>2026-05-02T09:51:29Z</time></trkpt><trkpt lat="46.16736259800246" lon="11.43610821656931"><ele>1753.0</ele><time>2026-05-02T09:51:30Z</time></trkpt><trkpt lat="46.167246018178574" lon="11.436068229801728"><ele>1755.5</ele><time>2026-05-02T09:51:31Z</time></trkpt><trkpt lat="46.16712587940951" lon="11.436042713221493"><ele>1758.0</ele><time>2026-05-02T09:51:32Z</time></trkpt><trkpt lat="46.167002870150505" lon="11.436007883056886"><ele>1753.8000000000002</ele><time>2026-05-02T09:51:33Z</time></trkpt><trkpt lat="46.1668842938391" lon="11.435982843575939"><ele>1749.6000000000001</ele><time>2026-05-02T09:51:34Z</time></trkpt><trkpt lat="46.16678157836026" lon="11.435978719209528"><ele>1745.3999999999999</ele><time>2026-05-02T09:51:35Z</time></trkpt><trkpt lat="46.166691233457165" lon="11.436013426155778"><ele>1741.1999999999998</ele><time>2026-05-02T09:51:36Z</time></trkpt><trkpt lat="46.16661296033055" lon="11.436048600265545"><ele>1737.0</ele><time>2026-05-02T09:51:37Z</time></trkpt><trkpt lat="46.166511545953114" lon="11.436028619373966"><ele>1734.3999999999999</ele><time>2026-05-02T09:51:39Z</time></trkpt><trkpt lat="46.16648334232269" lon="11.435848200252126"><ele>1731.7999999999997</ele><time>2026-05-02T09:51:40.999Z</time></trkpt><trkpt lat="46.16646658190593" lon="11.435745671138342"><ele>1729.2</ele><time>2026-05-02T09:51:41.999Z</time></trkpt><trkpt lat="46.166417721326475" lon="11.435663879472186"><ele>1726.6</ele><time>2026-05-02T09:51:42.999Z</time></trkpt><trkpt lat="46.166349046195805" lon="11.435604899298085"><ele>1724.0</ele><time>2026-05-02T09:51:43.999Z</time></trkpt><trkpt lat="46.1662545790119" lon="11.435575308284593"><ele>1724.0</ele><time>2026-05-02T09:51:44.999Z</time></trkpt><trkpt lat="46.16614668944997" lon="11.435546896322412"><ele>1724.0</ele><time>2026-05-02T09:51:45.999Z</time></trkpt><trkpt lat="46.166046117394195" lon="11.435502394733431"><ele>1724.0</ele><time>2026-05-02T09:51:46.999Z</time></trkpt><trkpt lat="46.16596534469359" lon="11.435433091925331"><ele>1724.0</ele><time>2026-05-02T09:51:47.999Z</time></trkpt><trkpt lat="46.16589497172151" lon="11.435327119592941"><ele>1724.0</ele><time>2026-05-02T09:51:48.999Z</time></trkpt><trkpt lat="46.16583483731928" lon="11.435187700884928"><ele>1724.9999999999998</ele><time>2026-05-02T09:51:49.999Z</time></trkpt><trkpt lat="46.16577866901701" lon="11.435060456630818"><ele>1726.0</ele><time>2026-05-02T09:51:50.999Z</time></trkpt><trkpt lat="46.165738067686554" lon="11.434963729376054"><ele>1727.0</ele><time>2026-05-02T09:51:51.999Z</time></trkpt><trkpt lat="46.165710378588756" lon="11.43486223948343"><ele>1728.0</ele><time>2026-05-02T09:51:52.999Z</time></trkpt><trkpt lat="46.16570498761995" lon="11.434737574109498"><ele>1728.9999999999998</ele><time>2026-05-02T09:51:53.999Z</time></trkpt><trkpt lat="46.165715877769365" lon="11.434605595559626"><ele>1730.0</ele><time>2026-05-02T09:51:54.999Z</time></trkpt><trkpt lat="46.165742393164564" lon="11.43446954746157"><ele>1732.4</ele><time>2026-05-02T09:51:55.999Z</time></trkpt><trkpt lat="46.165758846419585" lon="11.434349918528165"><ele>1734.8</ele><time>2026-05-02T09:51:56.999Z</time></trkpt><trkpt lat="46.16572653621809" lon="11.434230472211581"><ele>1737.1999999999998</ele><time>2026-05-02T09:51:57.999Z</time></trkpt><trkpt lat="46.16566315134734" lon="11.434123373254115"><ele>1739.6</ele><time>2026-05-02T09:51:58.999Z</time></trkpt><trkpt lat="46.16558988766168" lon="11.434015817646756"><ele>1742.0</ele><time>2026-05-02T09:51:59.999Z</time></trkpt><trkpt lat="46.16549897314937" lon="11.433892304001294"><ele>1734.6</ele><time>2026-05-02T09:52:00.999Z</time></trkpt><trkpt lat="46.16543861361503" lon="11.43376019972159"><ele>1727.1999999999998</ele><time>2026-05-02T09:52:01.999Z</time></trkpt><trkpt lat="46.16539151519966" lon="11.43364445638335"><ele>1719.8</ele><time>2026-05-02T09:52:02.999Z</time></trkpt><trkpt lat="46.165352188120565" lon="11.433515117591151"><ele>1712.4</ele><time>2026-05-02T09:52:04.001Z</time></trkpt><trkpt lat="46.16532747618818" lon="11.433386550066128"><ele>1705.0</ele><time>2026-05-02T09:52:05.001Z</time></trkpt><trkpt lat="46.16532489238704" lon="11.433262733091196"><ele>1705.0</ele><time>2026-05-02T09:52:06.001Z</time></trkpt><trkpt lat="46.16530448551678" lon="11.43314459904459"><ele>1705.0</ele><time>2026-05-02T09:52:08.001Z</time></trkpt><trkpt lat="46.16521167057377" lon="11.433185197379267"><ele>1705.0</ele><time>2026-05-02T09:52:10.001Z</time></trkpt><trkpt lat="46.1652103164968" lon="11.43335967649602"><ele>1705.0</ele><time>2026-05-02T09:52:12.001Z</time></trkpt><trkpt lat="46.16522850563226" lon="11.433469554397794"><ele>1705.0</ele><time>2026-05-02T09:52:13.001Z</time></trkpt><trkpt lat="46.165252216788296" lon="11.433604611608448"><ele>1705.0</ele><time>2026-05-02T09:52:14.001Z</time></trkpt><trkpt lat="46.16527211016835" lon="11.433750545652797"><ele>1705.0</ele><time>2026-05-02T09:52:15.001Z</time></trkpt><trkpt lat="46.1652901387179" lon="11.433912154320018"><ele>1705.0</ele><time>2026-05-02T09:52:16.001Z</time></trkpt><trkpt lat="46.1653159618468" lon="11.434084437316791"><ele>1705.0</ele><time>2026-05-02T09:52:17.001Z</time></trkpt><trkpt lat="46.165355004662274" lon="11.434257411034379"><ele>1703.0000000000002</ele><time>2026-05-02T09:52:18.001Z</time></trkpt><trkpt lat="46.16538363239674" lon="11.434409353778882"><ele>1701.0</ele><time>2026-05-02T09:52:19.001Z</time></trkpt><trkpt lat="46.16539402778119" lon="11.434527928940927"><ele>1699.0</ele><time>2026-05-02T09:52:20.001Z</time></trkpt><trkpt lat="46.165375928294985" lon="11.43462968605942"><ele>1697.0</ele><time>2026-05-02T09:52:21.001Z</time></trkpt><trkpt lat="46.16532418949205" lon="11.434719987716655"><ele>1695.0000000000002</ele><time>2026-05-02T09:52:22.001Z</time></trkpt><trkpt lat="46.16525162336542" lon="11.434814139689156"><ele>1693.0</ele><time>2026-05-02T09:52:23Z</time></trkpt><trkpt lat="46.16519999601563" lon="11.434902807946505"><ele>1693.0</ele><time>2026-05-02T09:52:24Z</time></trkpt><trkpt lat="46.165190751295015" lon="11.43499480829155"><ele>1693.0</ele><time>2026-05-02T09:52:25Z</time></trkpt><trkpt lat="46.16521429761266" lon="11.435095579975737"><ele>1693.0</ele><time>2026-05-02T09:52:26Z</time></trkpt><trkpt lat="46.16517897220984" lon="11.435211350284082"><ele>1693.0</ele><time>2026-05-02T09:52:28Z</time></trkpt><trkpt lat="46.16508822384941" lon="11.435142635234282"><ele>1693.0</ele><time>2026-05-02T09:52:30Z</time></trkpt><trkpt lat="46.16511857396627" lon="11.434952760733097"><ele>1693.0000000000002</ele><time>2026-05-02T09:52:32Z</time></trkpt><trkpt lat="46.165150859637535" lon="11.434835624517055"><ele>1693.0</ele><time>2026-05-02T09:52:33Z</time></trkpt><trkpt lat="46.16516524708265" lon="11.434729691331158"><ele>1693.0</ele><time>2026-05-02T09:52:34Z</time></trkpt><trkpt lat="46.16515164493939" lon="11.434619621996546"><ele>1693.0</ele><time>2026-05-02T09:52:35Z</time></trkpt><trkpt lat="46.16512912570968" lon="11.434504039962414"><ele>1693.0000000000002</ele><time>2026-05-02T09:52:36Z</time></trkpt><trkpt lat="46.165074929903746" lon="11.434386477478421"><ele>1693.0</ele><time>2026-05-02T09:52:37Z</time></trkpt><trkpt lat="46.16500410224049" lon="11.434240976229818"><ele>1692.0</ele><time>2026-05-02T09:52:38Z</time></trkpt><trkpt lat="46.16493786997468" lon="11.434020583010511"><ele>1691.0</ele><time>2026-05-02T09:52:39Z</time></trkpt><trkpt lat="46.16486727201533" lon="11.433816623769454"><ele>1690.0</ele><time>2026-05-02T09:52:40Z</time></trkpt><trkpt lat="46.164797890062786" lon="11.43363026525553"><ele>1683.25</ele><time>2026-05-02T09:52:41Z</time></trkpt><trkpt lat="46.164696139461554" lon="11.43345704512077"><ele>1676.5</ele><time>2026-05-02T09:52:42Z</time></trkpt><trkpt lat="46.16459492433579" lon="11.43329708938853"><ele>1669.75</ele><time>2026-05-02T09:52:43Z</time></trkpt><trkpt lat="46.16450271286465" lon="11.433158903367755"><ele>1663.0</ele><time>2026-05-02T09:52:44Z</time></trkpt><trkpt lat="46.1644001963632" lon="11.433034739477685"><ele>1667.6000000000001</ele><time>2026-05-02T09:52:45Z</time></trkpt><trkpt lat="46.164291820030016" lon="11.432924650700661"><ele>1672.2</ele><time>2026-05-02T09:52:46Z</time></trkpt><trkpt lat="46.1641991913262" lon="11.43282628488805"><ele>1676.8</ele><time>2026-05-02T09:52:47Z</time></trkpt><trkpt lat="46.16412956551982" lon="11.432723828645624"><ele>1681.4</ele><time>2026-05-02T09:52:48Z</time></trkpt><trkpt lat="46.16407999342066" lon="11.432602035657"><ele>1686.0</ele><time>2026-05-02T09:52:49Z</time></trkpt><trkpt lat="46.164049737471295" lon="11.432462947195596"><ele>1686.0</ele><time>2026-05-02T09:52:50Z</time></trkpt><trkpt lat="46.16403148065266" lon="11.432338575991752"><ele>1686.0</ele><time>2026-05-02T09:52:51Z</time></trkpt><trkpt lat="46.16397913612706" lon="11.432197583096789"><ele>1686.0</ele><time>2026-05-02T09:52:53Z</time></trkpt><trkpt lat="46.16387096384341" lon="11.432226819458037"><ele>1686.0</ele><time>2026-05-02T09:52:55Z</time></trkpt><trkpt lat="46.16387288141053" lon="11.432388670731237"><ele>1686.0</ele><time>2026-05-02T09:52:56.999Z</time></trkpt><trkpt lat="46.16392419115903" lon="11.432474457867771"><ele>1686.0</ele><time>2026-05-02T09:52:57.999Z</time></trkpt><trkpt lat="46.163976993875416" lon="11.432593705787994"><ele>1686.0</ele><time>2026-05-02T09:52:58.999Z</time></trkpt><trkpt lat="46.16402683873087" lon="11.432756347790688"><ele>1686.0</ele><time>2026-05-02T09:52:59.999Z</time></trkpt><trkpt lat="46.16408373950345" lon="11.432910887457624"><ele>1686.0</ele><time>2026-05-02T09:53:00.999Z</time></trkpt><trkpt lat="46.16412628433302" lon="11.433057567034586"><ele>1681.4</ele><time>2026-05-02T09:53:01.999Z</time></trkpt><trkpt lat="46.16414801234329" lon="11.433206807634267"><ele>1676.8</ele><time>2026-05-02T09:53:02.999Z</time></trkpt><trkpt lat="46.16414341504664" lon="11.43337205174183"><ele>1672.2</ele><time>2026-05-02T09:53:03.999Z</time></trkpt><trkpt lat="46.16411979485192" lon="11.43352899382748"><ele>1667.6000000000001</ele><time>2026-05-02T09:53:04.999Z</time></trkpt><trkpt lat="46.16409651617959" lon="11.433680827723448"><ele>1663.0</ele><time>2026-05-02T09:53:05.999Z</time></trkpt><trkpt lat="46.164110278682834" lon="11.433845029107612"><ele>1661.4</ele><time>2026-05-02T09:53:06.999Z</time></trkpt><trkpt lat="46.16413552642248" lon="11.434002284548344"><ele>1659.8000000000002</ele><time>2026-05-02T09:53:07.999Z</time></trkpt><trkpt lat="46.16416637391589" lon="11.434117143084023"><ele>1658.2</ele><time>2026-05-02T09:53:08.999Z</time></trkpt><trkpt lat="46.164159619783966" lon="11.43421033852505"><ele>1656.6</ele><time>2026-05-02T09:53:09.999Z</time></trkpt><trkpt lat="46.16411676279536" lon="11.434315459767845"><ele>1655.0</ele><time>2026-05-02T09:53:10.999Z</time></trkpt><trkpt lat="46.164035132926514" lon="11.434411102106552"><ele>1648.6</ele><time>2026-05-02T09:53:11.999Z</time></trkpt><trkpt lat="46.16393612626362" lon="11.43450031577615"><ele>1642.2</ele><time>2026-05-02T09:53:12.999Z</time></trkpt><trkpt lat="46.16382391342326" lon="11.434591063118589"><ele>1635.8000000000002</ele><time>2026-05-02T09:53:13.999Z</time></trkpt><trkpt lat="46.1637429062166" lon="11.434683839512362"><ele>1629.4</ele><time>2026-05-02T09:53:14.999Z</time></trkpt><trkpt lat="46.163691083589384" lon="11.434766919506622"><ele>1623.0</ele><time>2026-05-02T09:53:15.999Z</time></trkpt><trkpt lat="46.16367427981993" lon="11.434856411051413"><ele>1623.0</ele><time>2026-05-02T09:53:16.999Z</time></trkpt><trkpt lat="46.16369101563041" lon="11.434967540122463"><ele>1623.0</ele><time>2026-05-02T09:53:17.999Z</time></trkpt><trkpt lat="46.163738005685914" lon="11.435079266118121"><ele>1623.0</ele><time>2026-05-02T09:53:18.999Z</time></trkpt><trkpt lat="46.16376946413794" lon="11.435207317693674"><ele>1623.0</ele><time>2026-05-02T09:53:19.999Z</time></trkpt><trkpt lat="46.163772093833956" lon="11.435339890957698"><ele>1623.0</ele><time>2026-05-02T09:53:20.999Z</time></trkpt><trkpt lat="46.1637351757783" lon="11.435467472439333"><ele>1626.75</ele><time>2026-05-02T09:53:21.999Z</time></trkpt><trkpt lat="46.16367234558605" lon="11.435609661257512"><ele>1630.5</ele><time>2026-05-02T09:53:22.999Z</time></trkpt><trkpt lat="46.16357387722744" lon="11.435745875228452"><ele>1634.25</ele><time>2026-05-02T09:53:23.999Z</time></trkpt><trkpt lat="46.163463860556455" lon="11.435846384933168"><ele>1638.0</ele><time>2026-05-02T09:53:24.999Z</time></trkpt><trkpt lat="46.16334681497066" lon="11.435941125149713"><ele>1638.0</ele><time>2026-05-02T09:53:25.999Z</time></trkpt><trkpt lat="46.16322585257877" lon="11.436038409880688"><ele>1638.0</ele><time>2026-05-02T09:53:26.999Z</time></trkpt><trkpt lat="46.16308813735884" lon="11.436132908061369"><ele>1638.0</ele><time>2026-05-02T09:53:27.999Z</time></trkpt><trkpt lat="46.16294203878484" lon="11.436222483509145"><ele>1636.3333333333335</ele><time>2026-05-02T09:53:28.999Z</time></trkpt><trkpt lat="46.16279188334639" lon="11.43628792669257"><ele>1634.6666666666667</ele><time>2026-05-02T09:53:29.999Z</time></trkpt><trkpt lat="46.162645234393054" lon="11.436365288895624"><ele>1633.0</ele><time>2026-05-02T09:53:30.999Z</time></trkpt><trkpt lat="46.162504083105176" lon="11.436452746705879"><ele>1633.0</ele><time>2026-05-02T09:53:31.999Z</time></trkpt><trkpt lat="46.162371188460995" lon="11.436552210322574"><ele>1633.0</ele><time>2026-05-02T09:53:32.999Z</time></trkpt><trkpt lat="46.162249652423995" lon="11.436653211327135"><ele>1633.0</ele><time>2026-05-02T09:53:33.999Z</time></trkpt><trkpt lat="46.16214981601016" lon="11.436749048128979"><ele>1633.0</ele><time>2026-05-02T09:53:34.999Z</time></trkpt><trkpt lat="46.16207757593167" lon="11.436826950658642"><ele>1627.8000000000002</ele><time>2026-05-02T09:53:35.999Z</time></trkpt><trkpt lat="46.162024011846626" lon="11.436875230016547"><ele>1622.6</ele><time>2026-05-02T09:53:36.999Z</time></trkpt><trkpt lat="46.16194245272303" lon="11.436852595706963"><ele>1617.4</ele><time>2026-05-02T09:53:38.999Z</time></trkpt><trkpt lat="46.161940888978975" lon="11.43672340787898"><ele>1612.1999999999998</ele><time>2026-05-02T09:53:40.999Z</time></trkpt><trkpt lat="46.16207204317988" lon="11.436617120176077"><ele>1607.0</ele><time>2026-05-02T09:53:42.999Z</time></trkpt><trkpt lat="46.162158355114144" lon="11.436544693216486"><ele>1607.0</ele><time>2026-05-02T09:53:43.999Z</time></trkpt><trkpt lat="46.162223338744695" lon="11.436436030634303"><ele>1607.0</ele><time>2026-05-02T09:53:44.999Z</time></trkpt><trkpt lat="46.16229176136799" lon="11.436277685908609"><ele>1607.0</ele><time>2026-05-02T09:53:45.999Z</time></trkpt><trkpt lat="46.162377784938194" lon="11.436111653483485"><ele>1607.0</ele><time>2026-05-02T09:53:46.999Z</time></trkpt><trkpt lat="46.16247941383479" lon="11.435973786642203"><ele>1606.3999999999999</ele><time>2026-05-02T09:53:47.999Z</time></trkpt><trkpt lat="46.16256034008209" lon="11.435855704068365"><ele>1605.8</ele><time>2026-05-02T09:53:48.998Z</time></trkpt><trkpt lat="46.162612539209356" lon="11.435748674546886"><ele>1605.2</ele><time>2026-05-02T09:53:49.998Z</time></trkpt><trkpt lat="46.16263437557202" lon="11.435633075097046"><ele>1604.6</ele><time>2026-05-02T09:53:50.998Z</time></trkpt><trkpt lat="46.1626290677156" lon="11.435486513518189"><ele>1604.0</ele><time>2026-05-02T09:53:51.998Z</time></trkpt><trkpt lat="46.162644540814895" lon="11.43532464498078"><ele>1600.0</ele><time>2026-05-02T09:53:52.998Z</time></trkpt><trkpt lat="46.162699897847716" lon="11.435175046053718"><ele>1596.0</ele><time>2026-05-02T09:53:53.998Z</time></trkpt><trkpt lat="46.162748195872766" lon="11.435039359142941"><ele>1592.0</ele><time>2026-05-02T09:53:54.998Z</time></trkpt><trkpt lat="46.16275698102561" lon="11.4348891202171"><ele>1588.0</ele><time>2026-05-02T09:53:55.998Z</time></trkpt><trkpt lat="46.16273083068599" lon="11.434710161199346"><ele>1589.4</ele><time>2026-05-02T09:53:56.998Z</time></trkpt><trkpt lat="46.162693169444765" lon="11.43453760220268"><ele>1590.8000000000002</ele><time>2026-05-02T09:53:57.998Z</time></trkpt><trkpt lat="46.16267011145191" lon="11.43439561627903"><ele>1592.2</ele><time>2026-05-02T09:53:58.998Z</time></trkpt><trkpt lat="46.16263944111512" lon="11.434269000539231"><ele>1593.6</ele><time>2026-05-02T09:53:59.998Z</time></trkpt><trkpt lat="46.162592321183325" lon="11.434173030257423"><ele>1595.0</ele><time>2026-05-02T09:54:00.998Z</time></trkpt><trkpt lat="46.162514298688" lon="11.434111217218828"><ele>1595.0</ele><time>2026-05-02T09:54:01.998Z</time></trkpt><trkpt lat="46.16242099334505" lon="11.43407909220428"><ele>1595.0</ele><time>2026-05-02T09:54:02.998Z</time></trkpt><trkpt lat="46.16232334055389" lon="11.43409364485515"><ele>1595.0</ele><time>2026-05-02T09:54:03.998Z</time></trkpt><trkpt lat="46.16221830536414" lon="11.43412482749752"><ele>1595.0</ele><time>2026-05-02T09:54:04.998Z</time></trkpt><trkpt lat="46.16210620230841" lon="11.4341531000673"><ele>1595.0</ele><time>2026-05-02T09:54:05.998Z</time></trkpt><trkpt lat="46.16199511096705" lon="11.434153891966659"><ele>1593.0</ele><time>2026-05-02T09:54:06.998Z</time></trkpt><trkpt lat="46.16188454736487" lon="11.434163104715076"><ele>1591.0</ele><time>2026-05-02T09:54:07.998Z</time></trkpt><trkpt lat="46.161775487910134" lon="11.434218956941137"><ele>1589.0</ele><time>2026-05-02T09:54:08.998Z</time></trkpt><trkpt lat="46.161664989368894" lon="11.434262608058292"><ele>1587.0</ele><time>2026-05-02T09:54:10Z</time></trkpt><trkpt lat="46.161550378856255" lon="11.434294846111001"><ele>1584.75</ele><time>2026-05-02T09:54:11Z</time></trkpt><trkpt lat="46.16143540018647" lon="11.434303218183818"><ele>1582.5</ele><time>2026-05-02T09:54:12Z</time></trkpt><trkpt lat="46.16131441551459" lon="11.434296198059755"><ele>1580.25</ele><time>2026-05-02T09:54:13Z</time></trkpt><trkpt lat="46.1611948136066" lon="11.434293569020829"><ele>1578.0</ele><time>2026-05-02T09:54:14Z</time></trkpt><trkpt lat="46.161072958796495" lon="11.434294111234152"><ele>1578.0</ele><time>2026-05-02T09:54:15Z</time></trkpt><trkpt lat="46.16095065686659" lon="11.434280349942295"><ele>1578.0</ele><time>2026-05-02T09:54:16Z</time></trkpt><trkpt lat="46.160832301397136" lon="11.43424430331741"><ele>1578.0</ele><time>2026-05-02T09:54:17Z</time></trkpt><trkpt lat="46.1607186139415" lon="11.434192297428575"><ele>1578.0</ele><time>2026-05-02T09:54:18Z</time></trkpt><trkpt lat="46.16061142757511" lon="11.434149717705687"><ele>1576.6000000000001</ele><time>2026-05-02T09:54:19Z</time></trkpt><trkpt lat="46.16051026783544" lon="11.434135787831048"><ele>1575.2</ele><time>2026-05-02T09:54:20Z</time></trkpt><trkpt lat="46.160405318129335" lon="11.434128528024912"><ele>1573.8</ele><time>2026-05-02T09:54:21Z</time></trkpt><trkpt lat="46.16029323184062" lon="11.43414182769303"><ele>1572.4</ele><time>2026-05-02T09:54:22Z</time></trkpt><trkpt lat="46.16016790701988" lon="11.43417237808819"><ele>1571.0</ele><time>2026-05-02T09:54:23Z</time></trkpt><trkpt lat="46.16002866654518" lon="11.43417968719723"><ele>1571.0</ele><time>2026-05-02T09:54:24Z</time></trkpt><trkpt lat="46.159880695333506" lon="11.43417311373251"><ele>1571.0</ele><time>2026-05-02T09:54:25Z</time></trkpt><trkpt lat="46.15973661320948" lon="11.434159784127216"><ele>1571.0</ele><time>2026-05-02T09:54:26Z</time></trkpt><trkpt lat="46.159615734315096" lon="11.434143227744357"><ele>1571.0</ele><time>2026-05-02T09:54:27Z</time></trkpt><trkpt lat="46.15950720663775" lon="11.434126319731309"><ele>1567.1999999999998</ele><time>2026-05-02T09:54:28Z</time></trkpt><trkpt lat="46.159406529183" lon="11.434084327276867"><ele>1563.3999999999999</ele><time>2026-05-02T09:54:29Z</time></trkpt><trkpt lat="46.15930892932059" lon="11.434018257924002"><ele>1559.6</ele><time>2026-05-02T09:54:30Z</time></trkpt><trkpt lat="46.15921607993394" lon="11.433951388147454"><ele>1555.8</ele><time>2026-05-02T09:54:31Z</time></trkpt><trkpt lat="46.159126543271924" lon="11.433911105525597"><ele>1552.0</ele><time>2026-05-02T09:54:32Z</time></trkpt><trkpt lat="46.15904232341942" lon="11.43389273895558"><ele>1548.6666666666667</ele><time>2026-05-02T09:54:32.999Z</time></trkpt><trkpt lat="46.158958971826635" lon="11.433875096563455"><ele>1545.3333333333335</ele><time>2026-05-02T09:54:33.999Z</time></trkpt><trkpt lat="46.15887399586943" lon="11.43385665754062"><ele>1542.0</ele><time>2026-05-02T09:54:34.999Z</time></trkpt><trkpt lat="46.15878533890152" lon="11.433841710601191"><ele>1538.6666666666667</ele><time>2026-05-02T09:54:35.999Z</time></trkpt><trkpt lat="46.15869307147806" lon="11.43382727980999"><ele>1535.3333333333335</ele><time>2026-05-02T09:54:36.999Z</time></trkpt><trkpt lat="46.15861661568314" lon="11.433815738233477"><ele>1532.0</ele><time>2026-05-02T09:54:37.999Z</time></trkpt><trkpt lat="46.15850233165267" lon="11.43382369346439"><ele>1532.0</ele><time>2026-05-02T09:54:39.999Z</time></trkpt><trkpt lat="46.158460635688165" lon="11.433954242157018"><ele>1532.0</ele><time>2026-05-02T09:54:41.999Z</time></trkpt><trkpt lat="46.15854327101486" lon="11.434058600647829"><ele>1532.0</ele><time>2026-05-02T09:54:43.999Z</time></trkpt><trkpt lat="46.158634276956676" lon="11.434072126959189"><ele>1532.0</ele><time>2026-05-02T09:54:44.999Z</time></trkpt><trkpt lat="46.15872322430167" lon="11.434104199056085"><ele>1532.0</ele><time>2026-05-02T09:54:45.999Z</time></trkpt><trkpt lat="46.15880668548125" lon="11.434183065268419"><ele>1532.0</ele><time>2026-05-02T09:54:46.999Z</time></trkpt><trkpt lat="46.15888286879278" lon="11.434311853174675"><ele>1532.0</ele><time>2026-05-02T09:54:47.999Z</time></trkpt><trkpt lat="46.15896349537689" lon="11.434461779425929"><ele>1532.0</ele><time>2026-05-02T09:54:48.999Z</time></trkpt><trkpt lat="46.15905374071168" lon="11.434614268617596"><ele>1532.0</ele><time>2026-05-02T09:54:49.999Z</time></trkpt><trkpt lat="46.15914514119934" lon="11.434755470120786"><ele>1532.0</ele><time>2026-05-02T09:54:50.999Z</time></trkpt><trkpt lat="46.15924038874996" lon="11.434853537722773"><ele>1532.0</ele><time>2026-05-02T09:54:51.999Z</time></trkpt><trkpt lat="46.15935812826614" lon="11.434908160811048"><ele>1532.0</ele><time>2026-05-02T09:54:52.999Z</time></trkpt><trkpt lat="46.15949346343486" lon="11.4349518202714"><ele>1532.0</ele><time>2026-05-02T09:54:53.999Z</time></trkpt><trkpt lat="46.159611405127194" lon="11.4349850171667"><ele>1532.0</ele><time>2026-05-02T09:54:54.999Z</time></trkpt><trkpt lat="46.159709769844675" lon="11.435025556244724"><ele>1532.0</ele><time>2026-05-02T09:54:55.999Z</time></trkpt><trkpt lat="46.15978819026823" lon="11.435086808087046"><ele>1532.0</ele><time>2026-05-02T09:54:56.999Z</time></trkpt><trkpt lat="46.15983341035729" lon="11.4351682898579"><ele>1532.0</ele><time>2026-05-02T09:54:57.999Z</time></trkpt><trkpt lat="46.15984333608514" lon="11.435267811301578"><ele>1532.0</ele><time>2026-05-02T09:54:58.999Z</time></trkpt><trkpt lat="46.15982026419711" lon="11.435374345673967"><ele>1532.0</ele><time>2026-05-02T09:54:59.999Z</time></trkpt><trkpt lat="46.159776497158575" lon="11.435476871982994"><ele>1532.3999999999999</ele><time>2026-05-02T09:55:00.999Z</time></trkpt><trkpt lat="46.159705980975104" lon="11.435539187113601"><ele>1532.8</ele><time>2026-05-02T09:55:01.999Z</time></trkpt><trkpt lat="46.159611523761754" lon="11.435582392362626"><ele>1533.2</ele><time>2026-05-02T09:55:02.999Z</time></trkpt><trkpt lat="46.15950359921677" lon="11.435643350705927"><ele>1533.6</ele><time>2026-05-02T09:55:03.999Z</time></trkpt><trkpt lat="46.15940330638984" lon="11.435754132411745"><ele>1534.0</ele><time>2026-05-02T09:55:04.999Z</time></trkpt><trkpt lat="46.1593056982778" lon="11.435887842329919"><ele>1534.0</ele><time>2026-05-02T09:55:05.999Z</time></trkpt><trkpt lat="46.159199913283175" lon="11.435976873355234"><ele>1534.0</ele><time>2026-05-02T09:55:06.999Z</time></trkpt><trkpt lat="46.159089303896565" lon="11.436018207756073"><ele>1534.0</ele><time>2026-05-02T09:55:07.999Z</time></trkpt><trkpt lat="46.15897988549593" lon="11.436024003634238"><ele>1534.0</ele><time>2026-05-02T09:55:08.999Z</time></trkpt><trkpt lat="46.1588745900958" lon="11.43600745857711"><ele>1529.0</ele><time>2026-05-02T09:55:09.999Z</time></trkpt><trkpt lat="46.15876804448349" lon="11.43596643750403"><ele>1524.0</ele><time>2026-05-02T09:55:10.999Z</time></trkpt><trkpt lat="46.158672354426315" lon="11.435915119745598"><ele>1519.0</ele><time>2026-05-02T09:55:11.999Z</time></trkpt><trkpt lat="46.15857765558101" lon="11.43588440744352"><ele>1514.0</ele><time>2026-05-02T09:55:12.999Z</time></trkpt><trkpt lat="46.15846212561719" lon="11.435894642676363"><ele>1509.0</ele><time>2026-05-02T09:55:13.999Z</time></trkpt><trkpt lat="46.15833741704928" lon="11.43591709311069"><ele>1509.0</ele><time>2026-05-02T09:55:14.999Z</time></trkpt><trkpt lat="46.15821401957246" lon="11.435938413242894"><ele>1509.0</ele><time>2026-05-02T09:55:15.999Z</time></trkpt><trkpt lat="46.15809170084973" lon="11.43598127982759"><ele>1509.0</ele><time>2026-05-02T09:55:16.999Z</time></trkpt><trkpt lat="46.157962350821386" lon="11.43606775183108"><ele>1509.0</ele><time>2026-05-02T09:55:17.999Z</time></trkpt><trkpt lat="46.157839438596135" lon="11.436146469234032"><ele>1507.5</ele><time>2026-05-02T09:55:18.999Z</time></trkpt><trkpt lat="46.15773176499692" lon="11.436187868355725"><ele>1506.0</ele><time>2026-05-02T09:55:19.999Z</time></trkpt><trkpt lat="46.15763763967514" lon="11.436222048660014"><ele>1504.5</ele><time>2026-05-02T09:55:20.999Z</time></trkpt><trkpt lat="46.1575403409068" lon="11.436309294723134"><ele>1503.0</ele><time>2026-05-02T09:55:21.999Z</time></trkpt><trkpt lat="46.15742615471112" lon="11.436431603890307"><ele>1500.25</ele><time>2026-05-02T09:55:22.999Z</time></trkpt><trkpt lat="46.157302102371574" lon="11.436558819615371"><ele>1497.5</ele><time>2026-05-02T09:55:23.999Z</time></trkpt><trkpt lat="46.15717043776916" lon="11.436651394770072"><ele>1494.75</ele><time>2026-05-02T09:55:24.999Z</time></trkpt><trkpt lat="46.15704898482459" lon="11.436717628939494"><ele>1492.0</ele><time>2026-05-02T09:55:25.999Z</time></trkpt><trkpt lat="46.15693616226151" lon="11.436794738283258"><ele>1492.0</ele><time>2026-05-02T09:55:26.999Z</time></trkpt><trkpt lat="46.1568340042169" lon="11.436885037433683"><ele>1492.0</ele><time>2026-05-02T09:55:27.999Z</time></trkpt><trkpt lat="46.15674412528364" lon="11.43696058232628"><ele>1492.0</ele><time>2026-05-02T09:55:28.999Z</time></trkpt><trkpt lat="46.15667611065178" lon="11.43704571143188"><ele>1492.0</ele><time>2026-05-02T09:55:29.999Z</time></trkpt><trkpt lat="46.156620110533794" lon="11.437167409560152"><ele>1492.0</ele><time>2026-05-02T09:55:30.999Z</time></trkpt><trkpt lat="46.15656226517017" lon="11.437288868782225"><ele>1488.1999999999998</ele><time>2026-05-02T09:55:31.999Z</time></trkpt><trkpt lat="46.15647024621999" lon="11.437362212945242"><ele>1484.4</ele><time>2026-05-02T09:55:32.999Z</time></trkpt><trkpt lat="46.15637405295143" lon="11.437390880643347"><ele>1480.6</ele><time>2026-05-02T09:55:33.999Z</time></trkpt><trkpt lat="46.156290352998845" lon="11.437436938580234"><ele>1476.8000000000002</ele><time>2026-05-02T09:55:34.999Z</time></trkpt><trkpt lat="46.15621628181707" lon="11.43752639728038"><ele>1473.0</ele><time>2026-05-02T09:55:35.999Z</time></trkpt><trkpt lat="46.1561603223038" lon="11.4376438666776"><ele>1473.0</ele><time>2026-05-02T09:55:36.999Z</time></trkpt><trkpt lat="46.15612335784283" lon="11.437804804452773"><ele>1473.0</ele><time>2026-05-02T09:55:37.999Z</time></trkpt><trkpt lat="46.156085659895105" lon="11.437997822052688"><ele>1473.0</ele><time>2026-05-02T09:55:38.999Z</time></trkpt><trkpt lat="46.15602839924894" lon="11.43818096845486"><ele>1473.0</ele><time>2026-05-02T09:55:39.999Z</time></trkpt><trkpt lat="46.155935093065786" lon="11.438322998009614"><ele>1473.25</ele><time>2026-05-02T09:55:40.999Z</time></trkpt><trkpt lat="46.155825506889535" lon="11.43846731652595"><ele>1473.5</ele><time>2026-05-02T09:55:41.999Z</time></trkpt><trkpt lat="46.15572479245556" lon="11.438617790070564"><ele>1473.75</ele><time>2026-05-02T09:55:42.999Z</time></trkpt><trkpt lat="46.1556066708852" lon="11.438758863909033"><ele>1474.0</ele><time>2026-05-02T09:55:43.999Z</time></trkpt><trkpt lat="46.15545378150249" lon="11.438891615230606"><ele>1474.0</ele><time>2026-05-02T09:55:44.999Z</time></trkpt><trkpt lat="46.155306906904926" lon="11.439015116761897"><ele>1474.0</ele><time>2026-05-02T09:55:45.999Z</time></trkpt><trkpt lat="46.155175352105644" lon="11.439147266450219"><ele>1474.0</ele><time>2026-05-02T09:55:46.999Z</time></trkpt><trkpt lat="46.155062222479295" lon="11.439243121274002"><ele>1474.0</ele><time>2026-05-02T09:55:47.999Z</time></trkpt><trkpt lat="46.15495373154822" lon="11.439304144830079"><ele>1474.0</ele><time>2026-05-02T09:55:48.999Z</time></trkpt><trkpt lat="46.15485615415952" lon="11.439367357427543"><ele>1474.0</ele><time>2026-05-02T09:55:49.999Z</time></trkpt><trkpt lat="46.15476610363202" lon="11.439464809832147"><ele>1474.0</ele><time>2026-05-02T09:55:50.999Z</time></trkpt><trkpt lat="46.15467806076508" lon="11.439585409841506"><ele>1468.5</ele><time>2026-05-02T09:55:51.999Z</time></trkpt><trkpt lat="46.15459657327806" lon="11.439730750607263"><ele>1463.0</ele><time>2026-05-02T09:55:52.999Z</time></trkpt><trkpt lat="46.15452759024785" lon="11.439900263976625"><ele>1457.5</ele><time>2026-05-02T09:55:53.999Z</time></trkpt><trkpt lat="46.15446664533815" lon="11.44008775553811"><ele>1452.0</ele><time>2026-05-02T09:55:54.999Z</time></trkpt><trkpt lat="46.15439764886447" lon="11.440265182299806"><ele>1452.0</ele><time>2026-05-02T09:55:55.999Z</time></trkpt><trkpt lat="46.154309024898765" lon="11.440417115555828"><ele>1452.0</ele><time>2026-05-02T09:55:56.999Z</time></trkpt><trkpt lat="46.154212346794694" lon="11.440553252156256"><ele>1452.0</ele><time>2026-05-02T09:55:57.999Z</time></trkpt><trkpt lat="46.15410595148759" lon="11.440667458534074"><ele>1452.0</ele><time>2026-05-02T09:55:58.999Z</time></trkpt><trkpt lat="46.15399567874164" lon="11.440763272660485"><ele>1447.0</ele><time>2026-05-02T09:55:59.999Z</time></trkpt><trkpt lat="46.15389526521243" lon="11.440873370254952"><ele>1442.0</ele><time>2026-05-02T09:56:00.999Z</time></trkpt><trkpt lat="46.15380070115743" lon="11.440995470680079"><ele>1437.0</ele><time>2026-05-02T09:56:01.999Z</time></trkpt><trkpt lat="46.15370751676375" lon="11.441122762881077"><ele>1432.0</ele><time>2026-05-02T09:56:02.999Z</time></trkpt><trkpt lat="46.15362470816627" lon="11.441268765805296"><ele>1435.0</ele><time>2026-05-02T09:56:03.998Z</time></trkpt><trkpt lat="46.15355094518363" lon="11.441423902494995"><ele>1438.0</ele><time>2026-05-02T09:56:04.998Z</time></trkpt><trkpt lat="46.15345862374378" lon="11.441559414746111"><ele>1441.0</ele><time>2026-05-02T09:56:05.998Z</time></trkpt><trkpt lat="46.15336157600272" lon="11.441686237442296"><ele>1444.0</ele><time>2026-05-02T09:56:06.999Z</time></trkpt><trkpt lat="46.153260564488235" lon="11.441805141494951"><ele>1439.4</ele><time>2026-05-02T09:56:07.998Z</time></trkpt><trkpt lat="46.153167811815614" lon="11.441911121952627"><ele>1434.8000000000002</ele><time>2026-05-02T09:56:08.998Z</time></trkpt><trkpt lat="46.15310052720955" lon="11.442018067259795"><ele>1430.1999999999998</ele><time>2026-05-02T09:56:09.998Z</time></trkpt><trkpt lat="46.15303813413654" lon="11.442149260499688"><ele>1425.6</ele><time>2026-05-02T09:56:10.998Z</time></trkpt><trkpt lat="46.152980441897306" lon="11.44228137398654"><ele>1421.0</ele><time>2026-05-02T09:56:11.998Z</time></trkpt><trkpt lat="46.15293254726854" lon="11.442411000150399"><ele>1421.0</ele><time>2026-05-02T09:56:12.998Z</time></trkpt><trkpt lat="46.15287435261823" lon="11.442518270593299"><ele>1421.0</ele><time>2026-05-02T09:56:13.998Z</time></trkpt><trkpt lat="46.15280167628325" lon="11.442594073957483"><ele>1421.0</ele><time>2026-05-02T09:56:14.998Z</time></trkpt><trkpt lat="46.15271085575049" lon="11.442634094998978"><ele>1421.0</ele><time>2026-05-02T09:56:16Z</time></trkpt><trkpt lat="46.15262074627197" lon="11.442671910890153"><ele>1421.0</ele><time>2026-05-02T09:56:17Z</time></trkpt><trkpt lat="46.15254110500449" lon="11.442746937834174"><ele>1421.0</ele><time>2026-05-02T09:56:18Z</time></trkpt><trkpt lat="46.15247665256747" lon="11.442847761198724"><ele>1421.0</ele><time>2026-05-02T09:56:19Z</time></trkpt><trkpt lat="46.15243057328248" lon="11.44297095599428"><ele>1421.0</ele><time>2026-05-02T09:56:20Z</time></trkpt><trkpt lat="46.15239397628815" lon="11.443103120108775"><ele>1421.0</ele><time>2026-05-02T09:56:21Z</time></trkpt><trkpt lat="46.15236677638335" lon="11.443248604218615"><ele>1421.0</ele><time>2026-05-02T09:56:22Z</time></trkpt><trkpt lat="46.15233179774384" lon="11.44341409484276"><ele>1418.0</ele><time>2026-05-02T09:56:23Z</time></trkpt><trkpt lat="46.15228015840513" lon="11.44358158596339"><ele>1415.0</ele><time>2026-05-02T09:56:24Z</time></trkpt><trkpt lat="46.15222024522859" lon="11.443758860785127"><ele>1412.0</ele><time>2026-05-02T09:56:25Z</time></trkpt><trkpt lat="46.15215534777857" lon="11.44393177863741"><ele>1409.0</ele><time>2026-05-02T09:56:26Z</time></trkpt><trkpt lat="46.15208986173177" lon="11.44411190551679"><ele>1409.0</ele><time>2026-05-02T09:56:27Z</time></trkpt><trkpt lat="46.15203166479619" lon="11.444300554817266"><ele>1409.0</ele><time>2026-05-02T09:56:28Z</time></trkpt><trkpt lat="46.15198098791672" lon="11.444494767435211"><ele>1409.0</ele><time>2026-05-02T09:56:29Z</time></trkpt><trkpt lat="46.15191923840454" lon="11.444686583295189"><ele>1409.0</ele><time>2026-05-02T09:56:30Z</time></trkpt><trkpt lat="46.151837463356514" lon="11.444868244150825"><ele>1411.6666666666667</ele><time>2026-05-02T09:56:31Z</time></trkpt><trkpt lat="46.15174427109054" lon="11.445049682364465"><ele>1414.3333333333333</ele><time>2026-05-02T09:56:32Z</time></trkpt><trkpt lat="46.15164886307549" lon="11.445232446624864"><ele>1417.0</ele><time>2026-05-02T09:56:33Z</time></trkpt><trkpt lat="46.15156769591753" lon="11.445429049475369"><ele>1409.75</ele><time>2026-05-02T09:56:34Z</time></trkpt><trkpt lat="46.1515076719042" lon="11.445626157402119"><ele>1402.5</ele><time>2026-05-02T09:56:35Z</time></trkpt><trkpt lat="46.15145498248584" lon="11.445794501651639"><ele>1395.25</ele><time>2026-05-02T09:56:36Z</time></trkpt><trkpt lat="46.15138799591642" lon="11.445945421489935"><ele>1388.0</ele><time>2026-05-02T09:56:37Z</time></trkpt><trkpt lat="46.15130806324672" lon="11.446071493736367"><ele>1388.0</ele><time>2026-05-02T09:56:38Z</time></trkpt><trkpt lat="46.15120314990939" lon="11.446175123567107"><ele>1388.0</ele><time>2026-05-02T09:56:39Z</time></trkpt><trkpt lat="46.15108847011911" lon="11.446267997453255"><ele>1388.0</ele><time>2026-05-02T09:56:40Z</time></trkpt><trkpt lat="46.150979362825026" lon="11.446354115823075"><ele>1388.0</ele><time>2026-05-02T09:56:41Z</time></trkpt><trkpt lat="46.150884906643014" lon="11.446444406022275"><ele>1387.25</ele><time>2026-05-02T09:56:42Z</time></trkpt><trkpt lat="46.15080334029197" lon="11.446572734765141"><ele>1386.5</ele><time>2026-05-02T09:56:43Z</time></trkpt><trkpt lat="46.15071805808996" lon="11.446717853447767"><ele>1385.75</ele><time>2026-05-02T09:56:44Z</time></trkpt><trkpt lat="46.150634732449554" lon="11.446875685555742"><ele>1385.0</ele><time>2026-05-02T09:56:45Z</time></trkpt><trkpt lat="46.15056234623515" lon="11.447032949480265"><ele>1384.0</ele><time>2026-05-02T09:56:46Z</time></trkpt><trkpt lat="46.15050525193301" lon="11.447194944798325"><ele>1383.0</ele><time>2026-05-02T09:56:47Z</time></trkpt><trkpt lat="46.15046491874467" lon="11.44737680498298"><ele>1382.0</ele><time>2026-05-02T09:56:48Z</time></trkpt><trkpt lat="46.15043033464622" lon="11.447570923113146"><ele>1381.0</ele><time>2026-05-02T09:56:49Z</time></trkpt><trkpt lat="46.150397205465914" lon="11.44775295628752"><ele>1381.0</ele><time>2026-05-02T09:56:50Z</time></trkpt><trkpt lat="46.15036513345524" lon="11.447929483604213"><ele>1381.0</ele><time>2026-05-02T09:56:50.999Z</time></trkpt><trkpt lat="46.15033400052757" lon="11.448100046321219"><ele>1381.0</ele><time>2026-05-02T09:56:51.999Z</time></trkpt><trkpt lat="46.150303565840446" lon="11.448277987735048"><ele>1381.0</ele><time>2026-05-02T09:56:52.999Z</time></trkpt><trkpt lat="46.15025995393769" lon="11.448462417730628"><ele>1380.75</ele><time>2026-05-02T09:56:53.999Z</time></trkpt><trkpt lat="46.15020093239942" lon="11.44863515893993"><ele>1380.5</ele><time>2026-05-02T09:56:54.999Z</time></trkpt><trkpt lat="46.150138199809035" lon="11.448794620490045"><ele>1380.25</ele><time>2026-05-02T09:56:55.999Z</time></trkpt><trkpt lat="46.15007661193267" lon="11.448926484739546"><ele>1380.0</ele><time>2026-05-02T09:56:56.999Z</time></trkpt><trkpt lat="46.1500328551807" lon="11.449044205434951"><ele>1379.5</ele><time>2026-05-02T09:56:57.999Z</time></trkpt><trkpt lat="46.150023217954526" lon="11.449196937629024"><ele>1379.0</ele><time>2026-05-02T09:56:58.999Z</time></trkpt><trkpt lat="46.150027949164624" lon="11.449391080240677"><ele>1378.5</ele><time>2026-05-02T09:56:59.999Z</time></trkpt><trkpt lat="46.150029129248914" lon="11.449611855347348"><ele>1378.0</ele><time>2026-05-02T09:57:00.999Z</time></trkpt><trkpt lat="46.150014925506895" lon="11.449846847296552"><ele>1377.3333333333333</ele><time>2026-05-02T09:57:01.999Z</time></trkpt><trkpt lat="46.14998215483909" lon="11.45009259255344"><ele>1376.6666666666667</ele><time>2026-05-02T09:57:02.999Z</time></trkpt><trkpt lat="46.14993223814215" lon="11.450334503892428"><ele>1376.0</ele><time>2026-05-02T09:57:03.999Z</time></trkpt><trkpt lat="46.149886265151224" lon="11.450540566234784"><ele>1374.5</ele><time>2026-05-02T09:57:04.999Z</time></trkpt><trkpt lat="46.14984678552384" lon="11.450723508688917"><ele>1373.0</ele><time>2026-05-02T09:57:05.999Z</time></trkpt><trkpt lat="46.1497973314779" lon="11.450901328866598"><ele>1371.5</ele><time>2026-05-02T09:57:06.999Z</time></trkpt><trkpt lat="46.14971754510307" lon="11.451065653276132"><ele>1370.0</ele><time>2026-05-02T09:57:07.999Z</time></trkpt><trkpt lat="46.14962661387603" lon="11.451222019138413"><ele>1367.75</ele><time>2026-05-02T09:57:08.999Z</time></trkpt><trkpt lat="46.14956317659511" lon="11.451388764977168"><ele>1365.5</ele><time>2026-05-02T09:57:09.999Z</time></trkpt><trkpt lat="46.14951631864842" lon="11.451588340193915"><ele>1363.25</ele><time>2026-05-02T09:57:10.999Z</time></trkpt><trkpt lat="46.149481682385954" lon="11.451811204177819"><ele>1361.0</ele><time>2026-05-02T09:57:11.999Z</time></trkpt><trkpt lat="46.14946842207144" lon="11.45204180396067"><ele>1360.5</ele><time>2026-05-02T09:57:12.999Z</time></trkpt><trkpt lat="46.149461172368916" lon="11.452249605563846"><ele>1360.0</ele><time>2026-05-02T09:57:13.999Z</time></trkpt><trkpt lat="46.14944006992533" lon="11.452448548289745"><ele>1359.5</ele><time>2026-05-02T09:57:14.999Z</time></trkpt><trkpt lat="46.149434717935385" lon="11.45264432722201"><ele>1359.0</ele><time>2026-05-02T09:57:15.999Z</time></trkpt><trkpt lat="46.14946356761849" lon="11.452850123573839"><ele>1358.5</ele><time>2026-05-02T09:57:16.999Z</time></trkpt><trkpt lat="46.14950302363722" lon="11.453068739624696"><ele>1358.0</ele><time>2026-05-02T09:57:17.999Z</time></trkpt><trkpt lat="46.14953803611162" lon="11.453269247331217"><ele>1357.5</ele><time>2026-05-02T09:57:18.999Z</time></trkpt><trkpt lat="46.14955291595545" lon="11.45346959652604"><ele>1357.0</ele><time>2026-05-02T09:57:19.999Z</time></trkpt><trkpt lat="46.14953497867964" lon="11.453684905353873"><ele>1357.0</ele><time>2026-05-02T09:57:20.999Z</time></trkpt><trkpt lat="46.14949731875022" lon="11.4539118212535"><ele>1357.0</ele><time>2026-05-02T09:57:21.999Z</time></trkpt><trkpt lat="46.14945496430962" lon="11.45414822888009"><ele>1357.0</ele><time>2026-05-02T09:57:22.999Z</time></trkpt><trkpt lat="46.14941172077237" lon="11.45439114973877"><ele>1356.6666666666665</ele><time>2026-05-02T09:57:23.999Z</time></trkpt><trkpt lat="46.1493580456702" lon="11.4546281347069"><ele>1356.3333333333333</ele><time>2026-05-02T09:57:24.999Z</time></trkpt><trkpt lat="46.14930498175281" lon="11.454843278136059"><ele>1356.0</ele><time>2026-05-02T09:57:25.999Z</time></trkpt><trkpt lat="46.14924796293725" lon="11.455041199768381"><ele>1356.0</ele><time>2026-05-02T09:57:26.999Z</time></trkpt><trkpt lat="46.149192777859305" lon="11.455213254961588"><ele>1356.0</ele><time>2026-05-02T09:57:27.999Z</time></trkpt><trkpt lat="46.149155609962314" lon="11.45538381314332"><ele>1356.0</ele><time>2026-05-02T09:57:28.999Z</time></trkpt><trkpt lat="46.14913811179411" lon="11.455551242050294"><ele>1356.0</ele><time>2026-05-02T09:57:29.999Z</time></trkpt><trkpt lat="46.149130432520494" lon="11.455708751098024"><ele>1357.25</ele><time>2026-05-02T09:57:30.999Z</time></trkpt><trkpt lat="46.1491000612219" lon="11.45586221859599"><ele>1358.5</ele><time>2026-05-02T09:57:31.999Z</time></trkpt><trkpt lat="46.149041365021" lon="11.456021944936147"><ele>1359.75</ele><time>2026-05-02T09:57:32.999Z</time></trkpt><trkpt lat="46.14898073521757" lon="11.45618752662048"><ele>1361.0</ele><time>2026-05-02T09:57:33.999Z</time></trkpt><trkpt lat="46.148938816818315" lon="11.456356712722153"><ele>1353.75</ele><time>2026-05-02T09:57:34.999Z</time></trkpt><trkpt lat="46.148917532898146" lon="11.456550918543403"><ele>1346.5</ele><time>2026-05-02T09:57:35.999Z</time></trkpt><trkpt lat="46.1489015848646" lon="11.456752780392474"><ele>1339.25</ele><time>2026-05-02T09:57:36.999Z</time></trkpt><trkpt lat="46.14889055165547" lon="11.456930811443582"><ele>1332.0</ele><time>2026-05-02T09:57:37.999Z</time></trkpt><trkpt lat="46.14888773644926" lon="11.45708662479573"><ele>1333.6</ele><time>2026-05-02T09:57:38.999Z</time></trkpt><trkpt lat="46.148866140388215" lon="11.457215700697049"><ele>1335.1999999999998</ele><time>2026-05-02T09:57:39.999Z</time></trkpt><trkpt lat="46.14881589345167" lon="11.457326769759586"><ele>1336.8</ele><time>2026-05-02T09:57:40.999Z</time></trkpt><trkpt lat="46.14873677271167" lon="11.45742439995317"><ele>1338.4</ele><time>2026-05-02T09:57:41.999Z</time></trkpt><trkpt lat="46.14862018977959" lon="11.457512741128763"><ele>1340.0</ele><time>2026-05-02T09:57:42.999Z</time></trkpt><trkpt lat="46.148490136312496" lon="11.457604960645632"><ele>1340.0</ele><time>2026-05-02T09:57:43.999Z</time></trkpt><trkpt lat="46.14835797092327" lon="11.457709986089547"><ele>1340.0</ele><time>2026-05-02T09:57:44.999Z</time></trkpt><trkpt lat="46.14823614890235" lon="11.457819409980491"><ele>1340.0</ele><time>2026-05-02T09:57:45.999Z</time></trkpt><trkpt lat="46.14812671943326" lon="11.457933696722614"><ele>1340.0</ele><time>2026-05-02T09:57:46.999Z</time></trkpt><trkpt lat="46.14802261271816" lon="11.458037253554409"><ele>1338.0</ele><time>2026-05-02T09:57:47.999Z</time></trkpt><trkpt lat="46.14794389148141" lon="11.458131237624052"><ele>1336.0</ele><time>2026-05-02T09:57:48.999Z</time></trkpt><trkpt lat="46.147881160185925" lon="11.458255170695104"><ele>1334.0</ele><time>2026-05-02T09:57:49.999Z</time></trkpt><trkpt lat="46.14782584392058" lon="11.458392862104324"><ele>1332.0</ele><time>2026-05-02T09:57:50.999Z</time></trkpt><trkpt lat="46.1477782891529" lon="11.458528151094688"><ele>1330.0</ele><time>2026-05-02T09:57:51.999Z</time></trkpt><trkpt lat="46.147725626407926" lon="11.458651164745804"><ele>1330.0</ele><time>2026-05-02T09:57:52.999Z</time></trkpt><trkpt lat="46.14766823760815" lon="11.458765622902519"><ele>1330.0</ele><time>2026-05-02T09:57:53.999Z</time></trkpt><trkpt lat="46.14762098345123" lon="11.458881236929596"><ele>1330.0</ele><time>2026-05-02T09:57:54.999Z</time></trkpt><trkpt lat="46.147584961628205" lon="11.459014264442187"><ele>1330.0</ele><time>2026-05-02T09:57:55.999Z</time></trkpt><trkpt lat="46.147546890439585" lon="11.459156073262442"><ele>1330.0</ele><time>2026-05-02T09:57:56.999Z</time></trkpt><trkpt lat="46.14751318113182" lon="11.459303534762258"><ele>1329.4</ele><time>2026-05-02T09:57:57.999Z</time></trkpt><trkpt lat="46.14749765652412" lon="11.459442983583928"><ele>1328.8</ele><time>2026-05-02T09:57:58.999Z</time></trkpt><trkpt lat="46.147509620900664" lon="11.459594743993568"><ele>1328.1999999999998</ele><time>2026-05-02T09:57:59.999Z</time></trkpt><trkpt lat="46.147527939175525" lon="11.459748739005276"><ele>1327.6</ele><time>2026-05-02T09:58:00.999Z</time></trkpt><trkpt lat="46.14752590855865" lon="11.459892552643218"><ele>1327.0</ele><time>2026-05-02T09:58:01.999Z</time></trkpt><trkpt lat="46.14750002939375" lon="11.460034657369183"><ele>1329.0</ele><time>2026-05-02T09:58:02.999Z</time></trkpt><trkpt lat="46.14744589042581" lon="11.460162643690127"><ele>1331.0</ele><time>2026-05-02T09:58:03.999Z</time></trkpt><trkpt lat="46.14734978531598" lon="11.460269612434262"><ele>1333.0</ele><time>2026-05-02T09:58:04.999Z</time></trkpt><trkpt lat="46.14725235763778" lon="11.460405852791402"><ele>1335.0</ele><time>2026-05-02T09:58:05.999Z</time></trkpt><trkpt lat="46.14716857248098" lon="11.460586767359176"><ele>1327.6666666666667</ele><time>2026-05-02T09:58:06.999Z</time></trkpt><trkpt lat="46.14706491546524" lon="11.460766437983684"><ele>1320.3333333333335</ele><time>2026-05-02T09:58:07.999Z</time></trkpt><trkpt lat="46.14695177011365" lon="11.460931895230477"><ele>1313.0</ele><time>2026-05-02T09:58:08.999Z</time></trkpt><trkpt lat="46.146851488197136" lon="11.461092515319207"><ele>1313.0</ele><time>2026-05-02T09:58:09.999Z</time></trkpt><trkpt lat="46.146765186426606" lon="11.461253700242638"><ele>1313.0</ele><time>2026-05-02T09:58:10.999Z</time></trkpt><trkpt lat="46.146684220421484" lon="11.461419118270795"><ele>1313.0</ele><time>2026-05-02T09:58:11.999Z</time></trkpt><trkpt lat="46.14661473031022" lon="11.46158765687483"><ele>1313.0</ele><time>2026-05-02T09:58:12.999Z</time></trkpt><trkpt lat="46.14656106660678" lon="11.461761551937466"><ele>1315.25</ele><time>2026-05-02T09:58:13.999Z</time></trkpt><trkpt lat="46.146503779081876" lon="11.4619222999382"><ele>1317.5</ele><time>2026-05-02T09:58:14.999Z</time></trkpt><trkpt lat="46.146421539021055" lon="11.462030596924087"><ele>1319.75</ele><time>2026-05-02T09:58:15.999Z</time></trkpt><trkpt lat="46.14632479569235" lon="11.462100947438575"><ele>1322.0</ele><time>2026-05-02T09:58:16.999Z</time></trkpt><trkpt lat="46.14621716143834" lon="11.46217826335356"><ele>1322.0</ele><time>2026-05-02T09:58:17.999Z</time></trkpt><trkpt lat="46.14610446418801" lon="11.462252639341106"><ele>1322.0</ele><time>2026-05-02T09:58:18.999Z</time></trkpt><trkpt lat="46.14599761506413" lon="11.462302999133906"><ele>1322.0</ele><time>2026-05-02T09:58:19.999Z</time></trkpt><trkpt lat="46.145902129428436" lon="11.462353178965316"><ele>1322.0</ele><time>2026-05-02T09:58:20.998Z</time></trkpt><trkpt lat="46.14582571951395" lon="11.462425591222042"><ele>1322.0</ele><time>2026-05-02T09:58:22Z</time></trkpt><trkpt lat="46.14576997249618" lon="11.462529823334693"><ele>1322.0</ele><time>2026-05-02T09:58:23Z</time></trkpt><trkpt lat="46.14572891772579" lon="11.462677166549376"><ele>1322.0</ele><time>2026-05-02T09:58:24Z</time></trkpt><trkpt lat="46.14567487653593" lon="11.462826804041834"><ele>1322.0</ele><time>2026-05-02T09:58:25Z</time></trkpt><trkpt lat="46.145582637027324" lon="11.462969667449292"><ele>1322.0</ele><time>2026-05-02T09:58:26Z</time></trkpt><trkpt lat="46.1454810951529" lon="11.46310263889823"><ele>1321.0</ele><time>2026-05-02T09:58:27Z</time></trkpt><trkpt lat="46.14539218681115" lon="11.46320860482017"><ele>1320.0</ele><time>2026-05-02T09:58:28Z</time></trkpt><trkpt lat="46.145294105046254" lon="11.46326826256117"><ele>1319.0</ele><time>2026-05-02T09:58:29Z</time></trkpt><trkpt lat="46.14517460686805" lon="11.463277289491607"><ele>1318.0</ele><time>2026-05-02T09:58:30Z</time></trkpt><trkpt lat="46.14505416614491" lon="11.463310864244702"><ele>1318.0</ele><time>2026-05-02T09:58:31Z</time></trkpt><trkpt lat="46.14494288692381" lon="11.463396871330893"><ele>1318.0</ele><time>2026-05-02T09:58:32Z</time></trkpt><trkpt lat="46.14482512023257" lon="11.463523713476723"><ele>1318.0</ele><time>2026-05-02T09:58:33Z</time></trkpt><trkpt lat="46.14470844044144" lon="11.46366848433312"><ele>1318.0</ele><time>2026-05-02T09:58:34Z</time></trkpt><trkpt lat="46.14459626811514" lon="11.463827179733784"><ele>1314.0</ele><time>2026-05-02T09:58:35Z</time></trkpt><trkpt lat="46.14450425359615" lon="11.464001648180194"><ele>1310.0</ele><time>2026-05-02T09:58:36Z</time></trkpt><trkpt lat="46.144418943383904" lon="11.464204186642018"><ele>1306.0</ele><time>2026-05-02T09:58:37Z</time></trkpt><trkpt lat="46.14434895765103" lon="11.464406934461147"><ele>1306.0</ele><time>2026-05-02T09:58:38Z</time></trkpt><trkpt lat="46.144272851818045" lon="11.464595940664726"><ele>1306.0</ele><time>2026-05-02T09:58:39Z</time></trkpt><trkpt lat="46.14418475629438" lon="11.464746814106162"><ele>1306.0</ele><time>2026-05-02T09:58:40Z</time></trkpt><trkpt lat="46.144068621972515" lon="11.464872644307937"><ele>1306.0</ele><time>2026-05-02T09:58:41Z</time></trkpt><trkpt lat="46.143953747840484" lon="11.465027358789142"><ele>1305.0</ele><time>2026-05-02T09:58:42Z</time></trkpt><trkpt lat="46.14384982618469" lon="11.465189783554782"><ele>1304.0</ele><time>2026-05-02T09:58:43Z</time></trkpt><trkpt lat="46.14376053402493" lon="11.465350975391964"><ele>1303.0</ele><time>2026-05-02T09:58:44Z</time></trkpt><trkpt lat="46.14368635724377" lon="11.465516545933157"><ele>1302.0</ele><time>2026-05-02T09:58:45Z</time></trkpt><trkpt lat="46.14362916346028" lon="11.46568432305732"><ele>1302.0</ele><time>2026-05-02T09:58:46Z</time></trkpt><trkpt lat="46.143579855337094" lon="11.465849884040079"><ele>1302.0</ele><time>2026-05-02T09:58:47Z</time></trkpt><trkpt lat="46.14352204791072" lon="11.465994956518523"><ele>1302.0</ele><time>2026-05-02T09:58:48Z</time></trkpt><trkpt lat="46.143456710903756" lon="11.466117713317928"><ele>1302.0</ele><time>2026-05-02T09:58:49Z</time></trkpt><trkpt lat="46.14338651879538" lon="11.466222259490925"><ele>1302.0</ele><time>2026-05-02T09:58:50Z</time></trkpt><trkpt lat="46.14330246736671" lon="11.466287707153695"><ele>1300.0</ele><time>2026-05-02T09:58:51Z</time></trkpt><trkpt lat="46.14320989469223" lon="11.466296173621828"><ele>1298.0</ele><time>2026-05-02T09:58:52Z</time></trkpt><trkpt lat="46.14310977206298" lon="11.466254394327127"><ele>1296.0</ele><time>2026-05-02T09:58:53Z</time></trkpt><trkpt lat="46.14299579607829" lon="11.46624438860838"><ele>1294.0</ele><time>2026-05-02T09:58:54Z</time></trkpt><trkpt lat="46.142879984003365" lon="11.466262654164098"><ele>1292.0</ele><time>2026-05-02T09:58:55Z</time></trkpt><trkpt lat="46.14277239292166" lon="11.466300249772441"><ele>1292.0</ele><time>2026-05-02T09:58:56Z</time></trkpt><trkpt lat="46.142678757208564" lon="11.466377539745013"><ele>1292.0</ele><time>2026-05-02T09:58:57Z</time></trkpt><trkpt lat="46.14258701644936" lon="11.466503697510946"><ele>1292.0</ele><time>2026-05-02T09:58:58Z</time></trkpt><trkpt lat="46.14249844336549" lon="11.466666852427212"><ele>1292.0</ele><time>2026-05-02T09:58:59Z</time></trkpt><trkpt lat="46.14241811904554" lon="11.466826679561327"><ele>1289.0</ele><time>2026-05-02T09:59:00Z</time></trkpt><trkpt lat="46.14234332052238" lon="11.466976759682282"><ele>1286.0</ele><time>2026-05-02T09:59:00.999Z</time></trkpt><trkpt lat="46.142254718654996" lon="11.467112165463252"><ele>1283.0</ele><time>2026-05-02T09:59:01.999Z</time></trkpt><trkpt lat="46.1421438899773" lon="11.467232901667952"><ele>1280.0</ele><time>2026-05-02T09:59:02.999Z</time></trkpt><trkpt lat="46.142038471824215" lon="11.467356118384206"><ele>1280.0</ele><time>2026-05-02T09:59:03.999Z</time></trkpt><trkpt lat="46.14195710664342" lon="11.46748632031301"><ele>1280.0</ele><time>2026-05-02T09:59:04.999Z</time></trkpt><trkpt lat="46.14190021983311" lon="11.467621452152786"><ele>1280.0</ele><time>2026-05-02T09:59:05.999Z</time></trkpt><trkpt lat="46.14181888497703" lon="11.467692907113069"><ele>1280.0</ele><time>2026-05-02T09:59:06.999Z</time></trkpt><trkpt lat="46.141794413530555" lon="11.4678450655733"><ele>1280.0</ele><time>2026-05-02T09:59:07.999Z</time></trkpt><trkpt lat="46.14176863909576" lon="11.467981459333423"><ele>1279.8</ele><time>2026-05-02T09:59:08.999Z</time></trkpt><trkpt lat="46.141730008190564" lon="11.46811635500272"><ele>1279.6</ele><time>2026-05-02T09:59:09.999Z</time></trkpt><trkpt lat="46.141655201646294" lon="11.468214557283146"><ele>1279.4</ele><time>2026-05-02T09:59:10.999Z</time></trkpt><trkpt lat="46.14155856182746" lon="11.468295549311744"><ele>1279.2</ele><time>2026-05-02T09:59:11.999Z</time></trkpt><trkpt lat="46.14144721480135" lon="11.468363684519428"><ele>1279.0</ele><time>2026-05-02T09:59:12.999Z</time></trkpt><trkpt lat="46.141321367796245" lon="11.4683973179263"><ele>1279.0</ele><time>2026-05-02T09:59:13.999Z</time></trkpt><trkpt lat="46.14119730094135" lon="11.468399950193087"><ele>1279.0</ele><time>2026-05-02T09:59:14.999Z</time></trkpt><trkpt lat="46.14107739537734" lon="11.468373954724722"><ele>1279.0</ele><time>2026-05-02T09:59:15.999Z</time></trkpt><trkpt lat="46.14098679649843" lon="11.468399972026518"><ele>1279.0</ele><time>2026-05-02T09:59:16.999Z</time></trkpt><trkpt lat="46.14085597350839" lon="11.468359480912138"><ele>1279.0</ele><time>2026-05-02T09:59:17.999Z</time></trkpt><trkpt lat="46.140733479325746" lon="11.468336128458656"><ele>1279.0</ele><time>2026-05-02T09:59:18.999Z</time></trkpt><trkpt lat="46.14062349148942" lon="11.468344957056013"><ele>1279.0</ele><time>2026-05-02T09:59:19.999Z</time></trkpt><trkpt lat="46.14052769025167" lon="11.46837862048352"><ele>1279.0</ele><time>2026-05-02T09:59:20.999Z</time></trkpt><trkpt lat="46.140433689917074" lon="11.468450741323338"><ele>1279.0</ele><time>2026-05-02T09:59:21.999Z</time></trkpt><trkpt lat="46.14033966924111" lon="11.46852832859286"><ele>1276.5</ele><time>2026-05-02T09:59:22.999Z</time></trkpt><trkpt lat="46.14023817992311" lon="11.468619928857825"><ele>1274.0</ele><time>2026-05-02T09:59:23.999Z</time></trkpt><trkpt lat="46.14013807765736" lon="11.468703313717086"><ele>1271.5</ele><time>2026-05-02T09:59:24.999Z</time></trkpt><trkpt lat="46.14005042112227" lon="11.468779396975156"><ele>1269.0</ele><time>2026-05-02T09:59:25.999Z</time></trkpt><trkpt lat="46.1399791200731" lon="11.468904236043118"><ele>1269.0</ele><time>2026-05-02T09:59:26.999Z</time></trkpt><trkpt lat="46.13989761854667" lon="11.469070813303725"><ele>1269.0</ele><time>2026-05-02T09:59:27.999Z</time></trkpt><trkpt lat="46.13981973160678" lon="11.469254792173388"><ele>1269.0</ele><time>2026-05-02T09:59:28.999Z</time></trkpt><trkpt lat="46.13972220329019" lon="11.469467888384672"><ele>1265.5</ele><time>2026-05-02T09:59:29.999Z</time></trkpt><trkpt lat="46.1396405158742" lon="11.469641513256095"><ele>1262.0</ele><time>2026-05-02T09:59:30.999Z</time></trkpt><trkpt lat="46.139581989747114" lon="11.469811264383509"><ele>1258.5</ele><time>2026-05-02T09:59:31.999Z</time></trkpt><trkpt lat="46.13953988663835" lon="11.469983603762238"><ele>1255.0</ele><time>2026-05-02T09:59:32.999Z</time></trkpt><trkpt lat="46.13949601273686" lon="11.470161181188937"><ele>1255.0</ele><time>2026-05-02T09:59:33.999Z</time></trkpt><trkpt lat="46.139441243491824" lon="11.470352079916442"><ele>1255.0</ele><time>2026-05-02T09:59:34.999Z</time></trkpt><trkpt lat="46.13938183307932" lon="11.470549734926236"><ele>1255.0</ele><time>2026-05-02T09:59:35.999Z</time></trkpt><trkpt lat="46.13932890151012" lon="11.470746047750996"><ele>1255.0</ele><time>2026-05-02T09:59:36.999Z</time></trkpt><trkpt lat="46.139277168889585" lon="11.470936735126045"><ele>1254.8</ele><time>2026-05-02T09:59:37.999Z</time></trkpt><trkpt lat="46.1392288157142" lon="11.471122966296903"><ele>1254.6</ele><time>2026-05-02T09:59:38.999Z</time></trkpt><trkpt lat="46.139187428181174" lon="11.471274083687018"><ele>1254.4</ele><time>2026-05-02T09:59:39.999Z</time></trkpt><trkpt lat="46.139166084890725" lon="11.471398570823645"><ele>1254.2</ele><time>2026-05-02T09:59:40.999Z</time></trkpt><trkpt lat="46.13918452099295" lon="11.471520713015769"><ele>1254.0</ele><time>2026-05-02T09:59:41.999Z</time></trkpt><trkpt lat="46.13922738404394" lon="11.471640636614987"><ele>1253.6666666666667</ele><time>2026-05-02T09:59:42.999Z</time></trkpt><trkpt lat="46.139272373405824" lon="11.471759888689897"><ele>1253.3333333333333</ele><time>2026-05-02T09:59:43.999Z</time></trkpt><trkpt lat="46.1392877625826" lon="11.471860270203136"><ele>1253.0</ele><time>2026-05-02T09:59:44.999Z</time></trkpt><trkpt lat="46.13925692037286" lon="11.4719426292345"><ele>1252.6666666666665</ele><time>2026-05-02T09:59:45.999Z</time></trkpt><trkpt lat="46.1392001960616" lon="11.472003842784334"><ele>1252.3333333333333</ele><time>2026-05-02T09:59:46.999Z</time></trkpt><trkpt lat="46.13912224541331" lon="11.472013868296491"><ele>1252.0</ele><time>2026-05-02T09:59:47.999Z</time></trkpt><trkpt lat="46.139049426871686" lon="11.471984854455703"><ele>1246.25</ele><time>2026-05-02T09:59:48.999Z</time></trkpt><trkpt lat="46.138986585750224" lon="11.471891063416091"><ele>1240.5</ele><time>2026-05-02T09:59:49.999Z</time></trkpt><trkpt lat="46.13892096148316" lon="11.471757321834936"><ele>1234.75</ele><time>2026-05-02T09:59:50.999Z</time></trkpt><trkpt lat="46.13884087794456" lon="11.471601028697233"><ele>1229.0</ele><time>2026-05-02T09:59:51.999Z</time></trkpt><trkpt lat="46.13874270464416" lon="11.471429833976785"><ele>1230.0</ele><time>2026-05-02T09:59:52.999Z</time></trkpt><trkpt lat="46.138645665675305" lon="11.471264467658296"><ele>1231.0</ele><time>2026-05-02T09:59:53.999Z</time></trkpt><trkpt lat="46.1385562247685" lon="11.471112777340617"><ele>1232.0</ele><time>2026-05-02T09:59:54.999Z</time></trkpt><trkpt lat="46.13848806115225" lon="11.470992835682589"><ele>1233.0</ele><time>2026-05-02T09:59:55.999Z</time></trkpt><trkpt lat="46.13842425103084" lon="11.470949083092075"><ele>1233.0</ele><time>2026-05-02T09:59:56.999Z</time></trkpt><trkpt lat="46.13834660721382" lon="11.47095017031648"><ele>1233.0</ele><time>2026-05-02T09:59:57.999Z</time></trkpt><trkpt lat="46.138265089027776" lon="11.471012635055063"><ele>1233.0</ele><time>2026-05-02T09:59:58.999Z</time></trkpt><trkpt lat="46.138201586051515" lon="11.471112500465072"><ele>1233.0</ele><time>2026-05-02T09:59:59.999Z</time></trkpt><trkpt lat="46.13815021975553" lon="11.471240956812741"><ele>1233.0</ele><time>2026-05-02T10:00:00.999Z</time></trkpt><trkpt lat="46.13808673434015" lon="11.471401616131274"><ele>1227.3333333333333</ele><time>2026-05-02T10:00:01.999Z</time></trkpt><trkpt lat="46.13800840602899" lon="11.47157559882795"><ele>1221.6666666666665</ele><time>2026-05-02T10:00:02.999Z</time></trkpt><trkpt lat="46.13792459915293" lon="11.471759478873423"><ele>1216.0</ele><time>2026-05-02T10:00:03.999Z</time></trkpt><trkpt lat="46.13784042717013" lon="11.471947703186851"><ele>1215.3333333333333</ele><time>2026-05-02T10:00:04.999Z</time></trkpt><trkpt lat="46.137762466382924" lon="11.472146784730128"><ele>1214.6666666666667</ele><time>2026-05-02T10:00:05.999Z</time></trkpt><trkpt lat="46.137690077529605" lon="11.472366001546613"><ele>1214.0</ele><time>2026-05-02T10:00:06.999Z</time></trkpt><trkpt lat="46.13763318543661" lon="11.47258827646742"><ele>1214.0</ele><time>2026-05-02T10:00:07.999Z</time></trkpt><trkpt lat="46.137580508041005" lon="11.472807460276503"><ele>1214.0</ele><time>2026-05-02T10:00:08.999Z</time></trkpt><trkpt lat="46.137524200847736" lon="11.473023580717953"><ele>1214.0</ele><time>2026-05-02T10:00:09.999Z</time></trkpt><trkpt lat="46.13744644170371" lon="11.473231751674506"><ele>1209.3333333333335</ele><time>2026-05-02T10:00:10.999Z</time></trkpt><trkpt lat="46.137336370462876" lon="11.473427273684313"><ele>1204.6666666666667</ele><time>2026-05-02T10:00:11.999Z</time></trkpt><trkpt lat="46.1372135955863" lon="11.473620913634242"><ele>1200.0</ele><time>2026-05-02T10:00:12.999Z</time></trkpt><trkpt lat="46.137088752597755" lon="11.473800848285912"><ele>1200.0</ele><time>2026-05-02T10:00:13.999Z</time></trkpt><trkpt lat="46.13697397737388" lon="11.473978592770711"><ele>1200.0</ele><time>2026-05-02T10:00:14.999Z</time></trkpt><trkpt lat="46.13687288663499" lon="11.474133048418748"><ele>1200.0</ele><time>2026-05-02T10:00:15.999Z</time></trkpt><trkpt lat="46.136773261203025" lon="11.47426344915344"><ele>1200.0</ele><time>2026-05-02T10:00:16.999Z</time></trkpt><trkpt lat="46.13665685888222" lon="11.474372666808105"><ele>1200.0</ele><time>2026-05-02T10:00:17.999Z</time></trkpt><trkpt lat="46.13652533756543" lon="11.4744495061735"><ele>1200.0</ele><time>2026-05-02T10:00:18.999Z</time></trkpt><trkpt lat="46.13638929763124" lon="11.474525707112953"><ele>1200.0</ele><time>2026-05-02T10:00:19.999Z</time></trkpt><trkpt lat="46.13625197911776" lon="11.474630585459025"><ele>1195.3333333333333</ele><time>2026-05-02T10:00:20.999Z</time></trkpt><trkpt lat="46.1361250449153" lon="11.474779367549559"><ele>1190.6666666666665</ele><time>2026-05-02T10:00:21.999Z</time></trkpt><trkpt lat="46.136002404505206" lon="11.474958807453133"><ele>1186.0</ele><time>2026-05-02T10:00:22.999Z</time></trkpt><trkpt lat="46.13587232348094" lon="11.475126593566367"><ele>1186.0</ele><time>2026-05-02T10:00:23.999Z</time></trkpt><trkpt lat="46.1357343730941" lon="11.47526222984847"><ele>1186.0</ele><time>2026-05-02T10:00:24.999Z</time></trkpt><trkpt lat="46.13558519468969" lon="11.475368567228477"><ele>1186.0</ele><time>2026-05-02T10:00:25.999Z</time></trkpt><trkpt lat="46.13542490267761" lon="11.475444577410817"><ele>1182.6666666666665</ele><time>2026-05-02T10:00:27Z</time></trkpt><trkpt lat="46.135262707347415" lon="11.475491249684246"><ele>1179.3333333333333</ele><time>2026-05-02T10:00:28Z</time></trkpt><trkpt lat="46.13511924841764" lon="11.475525730026977"><ele>1176.0</ele><time>2026-05-02T10:00:29Z</time></trkpt><trkpt lat="46.134985529675646" lon="11.475581540693307"><ele>1172.5</ele><time>2026-05-02T10:00:30Z</time></trkpt><trkpt lat="46.13485127495863" lon="11.475662788077477"><ele>1169.0</ele><time>2026-05-02T10:00:31Z</time></trkpt><trkpt lat="46.13473607810158" lon="11.475778879014161"><ele>1165.5</ele><time>2026-05-02T10:00:32Z</time></trkpt><trkpt lat="46.13463130651562" lon="11.475903500285995"><ele>1162.0</ele><time>2026-05-02T10:00:33Z</time></trkpt><trkpt lat="46.13453248694965" lon="11.476026505067589"><ele>1162.0</ele><time>2026-05-02T10:00:34Z</time></trkpt><trkpt lat="46.13443197276655" lon="11.47615517410194"><ele>1162.0</ele><time>2026-05-02T10:00:35Z</time></trkpt><trkpt lat="46.134335228559856" lon="11.476292717248548"><ele>1162.0</ele><time>2026-05-02T10:00:36Z</time></trkpt><trkpt lat="46.13424449136968" lon="11.476436325214328"><ele>1162.0</ele><time>2026-05-02T10:00:37Z</time></trkpt><trkpt lat="46.13415735203725" lon="11.47658112179818"><ele>1162.5</ele><time>2026-05-02T10:00:38Z</time></trkpt><trkpt lat="46.13406623253507" lon="11.476733375026644"><ele>1163.0</ele><time>2026-05-02T10:00:39Z</time></trkpt><trkpt lat="46.133966814945815" lon="11.476895458960344"><ele>1163.5</ele><time>2026-05-02T10:00:40Z</time></trkpt><trkpt lat="46.1338590527768" lon="11.477064158488966"><ele>1164.0</ele><time>2026-05-02T10:00:41Z</time></trkpt><trkpt lat="46.13374913731265" lon="11.477239948357976"><ele>1161.0</ele><time>2026-05-02T10:00:42Z</time></trkpt><trkpt lat="46.133638666693955" lon="11.47742391913259"><ele>1158.0</ele><time>2026-05-02T10:00:43Z</time></trkpt><trkpt lat="46.13352666970551" lon="11.477613474562904"><ele>1155.0</ele><time>2026-05-02T10:00:44Z</time></trkpt><trkpt lat="46.13340698558075" lon="11.477796237107926"><ele>1152.3333333333333</ele><time>2026-05-02T10:00:45Z</time></trkpt><trkpt lat="46.13327801381635" lon="11.477963898615009"><ele>1149.6666666666665</ele><time>2026-05-02T10:00:46Z</time></trkpt><trkpt lat="46.13313072093257" lon="11.478103268990287"><ele>1147.0</ele><time>2026-05-02T10:00:47Z</time></trkpt><trkpt lat="46.13297502698996" lon="11.478211651715307"><ele>1147.0</ele><time>2026-05-02T10:00:48Z</time></trkpt><trkpt lat="46.13282601530849" lon="11.478282404535893"><ele>1147.0</ele><time>2026-05-02T10:00:49Z</time></trkpt><trkpt lat="46.132691466875826" lon="11.478346596880913"><ele>1147.0</ele><time>2026-05-02T10:00:50Z</time></trkpt><trkpt lat="46.13256971862912" lon="11.47842030340239"><ele>1147.0</ele><time>2026-05-02T10:00:51Z</time></trkpt><trkpt lat="46.13245145329809" lon="11.478487980517809"><ele>1145.75</ele><time>2026-05-02T10:00:52Z</time></trkpt><trkpt lat="46.13232201896067" lon="11.478536315590699"><ele>1144.5</ele><time>2026-05-02T10:00:53Z</time></trkpt><trkpt lat="46.13217536714378" lon="11.478537621928487"><ele>1143.25</ele><time>2026-05-02T10:00:54Z</time></trkpt><trkpt lat="46.13202838608918" lon="11.478519315922622"><ele>1142.0</ele><time>2026-05-02T10:00:55Z</time></trkpt><trkpt lat="46.13188406495886" lon="11.478483981299652"><ele>1142.0</ele><time>2026-05-02T10:00:56Z</time></trkpt><trkpt lat="46.13173630736221" lon="11.478447470114533"><ele>1142.0</ele><time>2026-05-02T10:00:57Z</time></trkpt><trkpt lat="46.131579397099465" lon="11.478415581236375"><ele>1142.0</ele><time>2026-05-02T10:00:58Z</time></trkpt><trkpt lat="46.13141446742555" lon="11.478390611346756"><ele>1141.3333333333335</ele><time>2026-05-02T10:00:59Z</time></trkpt><trkpt lat="46.13124839894923" lon="11.478361059781758"><ele>1140.6666666666667</ele><time>2026-05-02T10:01:00Z</time></trkpt><trkpt lat="46.131094563169206" lon="11.478325541341048"><ele>1140.0</ele><time>2026-05-02T10:01:01Z</time></trkpt><trkpt lat="46.13095933094158" lon="11.478297519166201"><ele>1140.0</ele><time>2026-05-02T10:01:02Z</time></trkpt><trkpt lat="46.13083308431357" lon="11.478277071995889"><ele>1140.0</ele><time>2026-05-02T10:01:03Z</time></trkpt><trkpt lat="46.130706956433535" lon="11.478254243698895"><ele>1140.0</ele><time>2026-05-02T10:01:04Z</time></trkpt><trkpt lat="46.13057741672868" lon="11.478241010807134"><ele>1140.0</ele><time>2026-05-02T10:01:05Z</time></trkpt><trkpt lat="46.130441052466956" lon="11.478245218769104"><ele>1136.5</ele><time>2026-05-02T10:01:06Z</time></trkpt><trkpt lat="46.130303797612555" lon="11.478256656587819"><ele>1133.0</ele><time>2026-05-02T10:01:07Z</time></trkpt><trkpt lat="46.13016201393176" lon="11.478279890563627"><ele>1129.5</ele><time>2026-05-02T10:01:08Z</time></trkpt><trkpt lat="46.130019055256675" lon="11.478316255637882"><ele>1126.0</ele><time>2026-05-02T10:01:09Z</time></trkpt><trkpt lat="46.12986608457775" lon="11.47835886564569"><ele>1122.25</ele><time>2026-05-02T10:01:10Z</time></trkpt><trkpt lat="46.129716785021344" lon="11.478407133031391"><ele>1118.5</ele><time>2026-05-02T10:01:10.999Z</time></trkpt><trkpt lat="46.12958005943623" lon="11.478469376457646"><ele>1114.75</ele><time>2026-05-02T10:01:11.999Z</time></trkpt><trkpt lat="46.12944416251641" lon="11.4785658059219"><ele>1111.0</ele><time>2026-05-02T10:01:12.999Z</time></trkpt><trkpt lat="46.1292953612028" lon="11.478689786405614"><ele>1113.0</ele><time>2026-05-02T10:01:13.999Z</time></trkpt><trkpt lat="46.12914132038171" lon="11.478836924564067"><ele>1115.0</ele><time>2026-05-02T10:01:14.999Z</time></trkpt><trkpt lat="46.128979726942596" lon="11.47899217898326"><ele>1117.0</ele><time>2026-05-02T10:01:15.999Z</time></trkpt><trkpt lat="46.128807665303675" lon="11.479143134820678"><ele>1112.3333333333333</ele><time>2026-05-02T10:01:16.999Z</time></trkpt><trkpt lat="46.12864342327482" lon="11.479288550643393"><ele>1107.6666666666667</ele><time>2026-05-02T10:01:17.999Z</time></trkpt><trkpt lat="46.12849602464129" lon="11.479425416912719"><ele>1103.0</ele><time>2026-05-02T10:01:18.999Z</time></trkpt><trkpt lat="46.128362543900614" lon="11.479549445620682"><ele>1101.25</ele><time>2026-05-02T10:01:19.999Z</time></trkpt><trkpt lat="46.12823662906349" lon="11.479646566591637"><ele>1099.5</ele><time>2026-05-02T10:01:20.999Z</time></trkpt><trkpt lat="46.12809481229608" lon="11.479705171801575"><ele>1097.75</ele><time>2026-05-02T10:01:21.999Z</time></trkpt><trkpt lat="46.12793835771961" lon="11.479729047876212"><ele>1096.0</ele><time>2026-05-02T10:01:22.999Z</time></trkpt><trkpt lat="46.12777200441981" lon="11.479733864388761"><ele>1096.0</ele><time>2026-05-02T10:01:23.999Z</time></trkpt><trkpt lat="46.12761854594106" lon="11.47976217685921"><ele>1096.0</ele><time>2026-05-02T10:01:24.999Z</time></trkpt><trkpt lat="46.127477939730106" lon="11.479824807914296"><ele>1096.0</ele><time>2026-05-02T10:01:25.999Z</time></trkpt><trkpt lat="46.12734345048217" lon="11.479927645210854"><ele>1089.6666666666665</ele><time>2026-05-02T10:01:26.999Z</time></trkpt><trkpt lat="46.12721021989273" lon="11.480060782337715"><ele>1083.3333333333333</ele><time>2026-05-02T10:01:27.999Z</time></trkpt><trkpt lat="46.12707431559126" lon="11.480204311469961"><ele>1077.0</ele><time>2026-05-02T10:01:28.999Z</time></trkpt><trkpt lat="46.126932492866864" lon="11.48035190619641"><ele>1079.0</ele><time>2026-05-02T10:01:29.999Z</time></trkpt><trkpt lat="46.126776509220576" lon="11.48049322395432"><ele>1081.0</ele><time>2026-05-02T10:01:30.999Z</time></trkpt><trkpt lat="46.12662276319492" lon="11.48062341590855"><ele>1083.0</ele><time>2026-05-02T10:01:31.999Z</time></trkpt><trkpt lat="46.12648021179747" lon="11.480725773075907"><ele>1078.75</ele><time>2026-05-02T10:01:32.999Z</time></trkpt><trkpt lat="46.12634675756933" lon="11.480805240283136"><ele>1074.5</ele><time>2026-05-02T10:01:33.999Z</time></trkpt><trkpt lat="46.12622949649377" lon="11.480867198785056"><ele>1070.25</ele><time>2026-05-02T10:01:34.999Z</time></trkpt><trkpt lat="46.12612957533071" lon="11.480909126452044"><ele>1066.0</ele><time>2026-05-02T10:01:35.999Z</time></trkpt><trkpt lat="46.12603754361645" lon="11.480903600041525"><ele>1066.0</ele><time>2026-05-02T10:01:36.999Z</time></trkpt><trkpt lat="46.12594803504526" lon="11.480845857634193"><ele>1066.0</ele><time>2026-05-02T10:01:37.999Z</time></trkpt><trkpt lat="46.12586011064574" lon="11.480739108938108"><ele>1066.0</ele><time>2026-05-02T10:01:38.999Z</time></trkpt><trkpt lat="46.12581087050856" lon="11.480594449896188"><ele>1066.0</ele><time>2026-05-02T10:01:39.999Z</time></trkpt><trkpt lat="46.12577753048272" lon="11.48046608487943"><ele>1066.0</ele><time>2026-05-02T10:01:40.999Z</time></trkpt><trkpt lat="46.125733970347824" lon="11.480355279342671"><ele>1071.2</ele><time>2026-05-02T10:01:41.999Z</time></trkpt><trkpt lat="46.12566148542601" lon="11.480279586106771"><ele>1076.3999999999999</ele><time>2026-05-02T10:01:42.999Z</time></trkpt><trkpt lat="46.12556804161317" lon="11.480244719870951"><ele>1081.6</ele><time>2026-05-02T10:01:43.999Z</time></trkpt><trkpt lat="46.12546147339512" lon="11.480251857663504"><ele>1086.8</ele><time>2026-05-02T10:01:44.999Z</time></trkpt><trkpt lat="46.12535667419025" lon="11.480319075672586"><ele>1092.0</ele><time>2026-05-02T10:01:45.999Z</time></trkpt><trkpt lat="46.12526171731282" lon="11.480425547783426"><ele>1091.75</ele><time>2026-05-02T10:01:46.999Z</time></trkpt><trkpt lat="46.1251649305148" lon="11.480556618022023"><ele>1091.5</ele><time>2026-05-02T10:01:47.999Z</time></trkpt><trkpt lat="46.12505843431869" lon="11.480696126252624"><ele>1091.25</ele><time>2026-05-02T10:01:48.999Z</time></trkpt><trkpt lat="46.124932792926565" lon="11.480833745903281"><ele>1091.0</ele><time>2026-05-02T10:01:49.999Z</time></trkpt><trkpt lat="46.124800200247556" lon="11.480983265429895"><ele>1091.0</ele><time>2026-05-02T10:01:50.999Z</time></trkpt><trkpt lat="46.12466364683408" lon="11.481150535767826"><ele>1091.0</ele><time>2026-05-02T10:01:51.999Z</time></trkpt><trkpt lat="46.12453816588695" lon="11.481306794081897"><ele>1091.0</ele><time>2026-05-02T10:01:52.999Z</time></trkpt><trkpt lat="46.12443196833498" lon="11.481428063533313"><ele>1083.5</ele><time>2026-05-02T10:01:53.999Z</time></trkpt><trkpt lat="46.12433111587805" lon="11.481509222907837"><ele>1076.0</ele><time>2026-05-02T10:01:54.999Z</time></trkpt><trkpt lat="46.124209830537644" lon="11.481544737233797"><ele>1068.5</ele><time>2026-05-02T10:01:55.999Z</time></trkpt><trkpt lat="46.12407945767276" lon="11.481543735291439"><ele>1061.0</ele><time>2026-05-02T10:01:56.999Z</time></trkpt><trkpt lat="46.12394370618919" lon="11.481522103401751"><ele>1059.5</ele><time>2026-05-02T10:01:57.999Z</time></trkpt><trkpt lat="46.12380250012461" lon="11.48149730412119"><ele>1058.0</ele><time>2026-05-02T10:01:58.999Z</time></trkpt><trkpt lat="46.12365567475714" lon="11.48148290859126"><ele>1056.5</ele><time>2026-05-02T10:01:59.999Z</time></trkpt><trkpt lat="46.12350092860596" lon="11.481489518688326"><ele>1055.0</ele><time>2026-05-02T10:02:00.999Z</time></trkpt><trkpt lat="46.12332177339548" lon="11.481519248760556"><ele>1059.0</ele><time>2026-05-02T10:02:01.999Z</time></trkpt><trkpt lat="46.12312113320319" lon="11.481548178881527"><ele>1063.0</ele><time>2026-05-02T10:02:02.999Z</time></trkpt><trkpt lat="46.12293892332043" lon="11.481576216468675"><ele>1067.0</ele><time>2026-05-02T10:02:03.999Z</time></trkpt><trkpt lat="46.12276614211659" lon="11.481602984386717"><ele>1067.0</ele><time>2026-05-02T10:02:04.999Z</time></trkpt><trkpt lat="46.12260252976581" lon="11.48164603059512"><ele>1067.0</ele><time>2026-05-02T10:02:05.999Z</time></trkpt><trkpt lat="46.122449327698355" lon="11.481724015526519"><ele>1067.0</ele><time>2026-05-02T10:02:06.999Z</time></trkpt><trkpt lat="46.12230684586665" lon="11.481827782030491"><ele>1069.75</ele><time>2026-05-02T10:02:07.999Z</time></trkpt><trkpt lat="46.122154885560086" lon="11.481949233825635"><ele>1072.5</ele><time>2026-05-02T10:02:08.999Z</time></trkpt><trkpt lat="46.12202482065835" lon="11.48204140078607"><ele>1075.25</ele><time>2026-05-02T10:02:09.999Z</time></trkpt><trkpt lat="46.12191734291207" lon="11.482078421146184"><ele>1078.0</ele><time>2026-05-02T10:02:10.999Z</time></trkpt><trkpt lat="46.12180349629197" lon="11.482066521477742"><ele>1078.0</ele><time>2026-05-02T10:02:11.999Z</time></trkpt><trkpt lat="46.12167635702069" lon="11.482015312848366"><ele>1078.0</ele><time>2026-05-02T10:02:12.999Z</time></trkpt><trkpt lat="46.121567130630716" lon="11.481984672991276"><ele>1078.0</ele><time>2026-05-02T10:02:13.999Z</time></trkpt><trkpt lat="46.12146181690415" lon="11.482008666828454"><ele>1078.0</ele><time>2026-05-02T10:02:14.999Z</time></trkpt><trkpt lat="46.1213508778543" lon="11.482093789066203"><ele>1075.0</ele><time>2026-05-02T10:02:15.999Z</time></trkpt><trkpt lat="46.12122300128269" lon="11.482246277107894"><ele>1072.0</ele><time>2026-05-02T10:02:16.999Z</time></trkpt><trkpt lat="46.121089238946574" lon="11.482418913149838"><ele>1069.0</ele><time>2026-05-02T10:02:17.999Z</time></trkpt><trkpt lat="46.12095549611037" lon="11.482618656357221"><ele>1069.0</ele><time>2026-05-02T10:02:18.999Z</time></trkpt><trkpt lat="46.120840157973866" lon="11.482836269807597"><ele>1069.0</ele><time>2026-05-02T10:02:19.999Z</time></trkpt><trkpt lat="46.12073108572074" lon="11.483039291356528"><ele>1069.0</ele><time>2026-05-02T10:02:20.999Z</time></trkpt><trkpt lat="46.12062415284541" lon="11.483237851094751"><ele>1073.3333333333333</ele><time>2026-05-02T10:02:21.999Z</time></trkpt><trkpt lat="46.12052568759143" lon="11.48342564025745"><ele>1077.6666666666667</ele><time>2026-05-02T10:02:22.999Z</time></trkpt><trkpt lat="46.12042567374916" lon="11.483598024465904"><ele>1082.0</ele><time>2026-05-02T10:02:23.999Z</time></trkpt><trkpt lat="46.12029918100956" lon="11.483740329288361"><ele>1089.25</ele><time>2026-05-02T10:02:24.999Z</time></trkpt><trkpt lat="46.120165204562106" lon="11.483844396543454"><ele>1096.5</ele><time>2026-05-02T10:02:25.999Z</time></trkpt><trkpt lat="46.12004745571886" lon="11.483982807561748"><ele>1103.75</ele><time>2026-05-02T10:02:26.999Z</time></trkpt><trkpt lat="46.119979718177234" lon="11.484168026874173"><ele>1111.0</ele><time>2026-05-02T10:02:27.999Z</time></trkpt><trkpt lat="46.11989602589435" lon="11.484311358956278"><ele>1111.0</ele><time>2026-05-02T10:02:28.999Z</time></trkpt><trkpt lat="46.11979389182042" lon="11.484437221188136"><ele>1111.0</ele><time>2026-05-02T10:02:29.999Z</time></trkpt><trkpt lat="46.11966541813011" lon="11.484547443181665"><ele>1111.0</ele><time>2026-05-02T10:02:30.999Z</time></trkpt><trkpt lat="46.1195484771835" lon="11.484658751065444"><ele>1111.0</ele><time>2026-05-02T10:02:31.999Z</time></trkpt><trkpt lat="46.11944651336626" lon="11.484778804753939"><ele>1096.0</ele><time>2026-05-02T10:02:33Z</time></trkpt><trkpt lat="46.11935674568395" lon="11.484917951550674"><ele>1081.0</ele><time>2026-05-02T10:02:34Z</time></trkpt><trkpt lat="46.119272801653686" lon="11.485080936634317"><ele>1066.0</ele><time>2026-05-02T10:02:35Z</time></trkpt><trkpt lat="46.1191867411366" lon="11.4852599569683"><ele>1051.0</ele><time>2026-05-02T10:02:36Z</time></trkpt><trkpt lat="46.119089832843564" lon="11.48545940099637"><ele>1064.3333333333333</ele><time>2026-05-02T10:02:37Z</time></trkpt><trkpt lat="46.11897246887603" lon="11.48566677931192"><ele>1077.6666666666667</ele><time>2026-05-02T10:02:38Z</time></trkpt><trkpt lat="46.118858605996564" lon="11.485889681713276"><ele>1091.0</ele><time>2026-05-02T10:02:39Z</time></trkpt><trkpt lat="46.11874690064248" lon="11.48611020423973"><ele>1078.0</ele><time>2026-05-02T10:02:40Z</time></trkpt><trkpt lat="46.11864519845984" lon="11.48632310288494"><ele>1065.0</ele><time>2026-05-02T10:02:41Z</time></trkpt><trkpt lat="46.11856132499562" lon="11.486544682062346"><ele>1052.0</ele><time>2026-05-02T10:02:42Z</time></trkpt><trkpt lat="46.11850196749516" lon="11.486789962613983"><ele>1052.0</ele><time>2026-05-02T10:02:43Z</time></trkpt><trkpt lat="46.118440869632735" lon="11.487049043458603"><ele>1052.0</ele><time>2026-05-02T10:02:44Z</time></trkpt><trkpt lat="46.1183880418421" lon="11.487292530196314"><ele>1052.0</ele><time>2026-05-02T10:02:45Z</time></trkpt><trkpt lat="46.11832129892313" lon="11.48752161593238"><ele>1051.3333333333335</ele><time>2026-05-02T10:02:46Z</time></trkpt><trkpt lat="46.118253235786504" lon="11.487745380477646"><ele>1050.6666666666667</ele><time>2026-05-02T10:02:47Z</time></trkpt><trkpt lat="46.11817598043555" lon="11.48795878273744"><ele>1050.0</ele><time>2026-05-02T10:02:48Z</time></trkpt><trkpt lat="46.118101569748966" lon="11.488172741502567"><ele>1050.0</ele><time>2026-05-02T10:02:49Z</time></trkpt><trkpt lat="46.118037365087424" lon="11.488349799170079"><ele>1050.0</ele><time>2026-05-02T10:02:50Z</time></trkpt><trkpt lat="46.11798302591465" lon="11.488505767241204"><ele>1050.0</ele><time>2026-05-02T10:02:51Z</time></trkpt><trkpt lat="46.11793436082419" lon="11.488638576474004"><ele>1050.0</ele><time>2026-05-02T10:02:52Z</time></trkpt><trkpt lat="46.117859824361474" lon="11.488746914399922"><ele>1047.75</ele><time>2026-05-02T10:02:53Z</time></trkpt><trkpt lat="46.11775348729585" lon="11.488847410847846"><ele>1045.5</ele><time>2026-05-02T10:02:54Z</time></trkpt><trkpt lat="46.117618401124744" lon="11.48893434541904"><ele>1043.25</ele><time>2026-05-02T10:02:55Z</time></trkpt><trkpt lat="46.117484818657125" lon="11.489031454205715"><ele>1041.0</ele><time>2026-05-02T10:02:56Z</time></trkpt><trkpt lat="46.11736264894068" lon="11.48914566083549"><ele>1041.0</ele><time>2026-05-02T10:02:57Z</time></trkpt><trkpt lat="46.11725224138252" lon="11.489300648737519"><ele>1041.0</ele><time>2026-05-02T10:02:58Z</time></trkpt><trkpt lat="46.117150808546235" lon="11.489487548588722"><ele>1041.0</ele><time>2026-05-02T10:02:59Z</time></trkpt><trkpt lat="46.117040372924635" lon="11.489674174153599"><ele>1029.6666666666667</ele><time>2026-05-02T10:03:00Z</time></trkpt><trkpt lat="46.11691631827358" lon="11.48983456534483"><ele>1018.3333333333334</ele><time>2026-05-02T10:03:01Z</time></trkpt><trkpt lat="46.1167883201453" lon="11.489984546700232"><ele>1007.0</ele><time>2026-05-02T10:03:02Z</time></trkpt><trkpt lat="46.116659195389154" lon="11.490123809291056"><ele>1010.75</ele><time>2026-05-02T10:03:03Z</time></trkpt><trkpt lat="46.11655346672447" lon="11.490280894538667"><ele>1014.5</ele><time>2026-05-02T10:03:04Z</time></trkpt><trkpt lat="46.11646307250242" lon="11.490445966375587"><ele>1018.25</ele><time>2026-05-02T10:03:05Z</time></trkpt><trkpt lat="46.11637837726354" lon="11.490612658264668"><ele>1022.0</ele><time>2026-05-02T10:03:06Z</time></trkpt><trkpt lat="46.1162743639143" lon="11.490773018337453"><ele>1013.6</ele><time>2026-05-02T10:03:07Z</time></trkpt><trkpt lat="46.11621721444457" lon="11.490830622520141"><ele>1005.2</ele><time>2026-05-02T10:03:08Z</time></trkpt><trkpt lat="46.1161347932662" lon="11.490881359497992"><ele>996.8</ele><time>2026-05-02T10:03:09Z</time></trkpt><trkpt lat="46.11602958279878" lon="11.490860636040356"><ele>988.4</ele><time>2026-05-02T10:03:10Z</time></trkpt><trkpt lat="46.11592392546108" lon="11.490831254022137"><ele>980.0</ele><time>2026-05-02T10:03:11Z</time></trkpt><trkpt lat="46.11582411730014" lon="11.490701169626167"><ele>984.5</ele><time>2026-05-02T10:03:12Z</time></trkpt><trkpt lat="46.11570615800009" lon="11.490570878040481"><ele>989.0</ele><time>2026-05-02T10:03:13Z</time></trkpt><trkpt lat="46.1155876078905" lon="11.49048241045476"><ele>993.5</ele><time>2026-05-02T10:03:14Z</time></trkpt><trkpt lat="46.11546097762154" lon="11.490414720042594"><ele>998.0</ele><time>2026-05-02T10:03:15Z</time></trkpt><trkpt lat="46.11533696574016" lon="11.490353617995634"><ele>999.5999999999999</ele><time>2026-05-02T10:03:16Z</time></trkpt><trkpt lat="46.11520796331173" lon="11.490278528565295"><ele>1001.1999999999999</ele><time>2026-05-02T10:03:17Z</time></trkpt><trkpt lat="46.115078582143184" lon="11.490212850903713"><ele>1002.8</ele><time>2026-05-02T10:03:18Z</time></trkpt><trkpt lat="46.11498863953475" lon="11.490176045033545"><ele>1004.4</ele><time>2026-05-02T10:03:19Z</time></trkpt><trkpt lat="46.11491129247039" lon="11.490186289676322"><ele>1006.0</ele><time>2026-05-02T10:03:20Z</time></trkpt><trkpt lat="46.11484868659759" lon="11.490280772293286"><ele>1004.4</ele><time>2026-05-02T10:03:21Z</time></trkpt><trkpt lat="46.114827718088826" lon="11.49040004120984"><ele>1002.8</ele><time>2026-05-02T10:03:22Z</time></trkpt><trkpt lat="46.11484877932417" lon="11.490523485334055"><ele>1001.1999999999999</ele><time>2026-05-02T10:03:23Z</time></trkpt><trkpt lat="46.11487862554701" lon="11.490608410433785"><ele>999.5999999999999</ele><time>2026-05-02T10:03:23.999Z</time></trkpt><trkpt lat="46.11495882894712" lon="11.490683245031573"><ele>998.0</ele><time>2026-05-02T10:03:24.999Z</time></trkpt><trkpt lat="46.115174966908754" lon="11.490873699586196"><ele>998.0</ele><time>2026-05-02T10:03:25.999Z</time></trkpt><trkpt lat="46.115219141357464" lon="11.491011716871304"><ele>998.0</ele><time>2026-05-02T10:03:26.999Z</time></trkpt><trkpt lat="46.115279216057104" lon="11.491199032529648"><ele>998.0</ele><time>2026-05-02T10:03:27.999Z</time></trkpt><trkpt lat="46.11533678943531" lon="11.491355955603408"><ele>998.0</ele><time>2026-05-02T10:03:28.999Z</time></trkpt><trkpt lat="46.115351169863814" lon="11.49149554245986"><ele>996.2</ele><time>2026-05-02T10:03:29.999Z</time></trkpt><trkpt lat="46.115350662347346" lon="11.491650881188137"><ele>994.4</ele><time>2026-05-02T10:03:30.999Z</time></trkpt><trkpt lat="46.11541124305362" lon="11.491781230782053"><ele>992.6000000000001</ele><time>2026-05-02T10:03:31.999Z</time></trkpt><trkpt lat="46.115424065116464" lon="11.491939359911076"><ele>990.8000000000001</ele><time>2026-05-02T10:03:32.999Z</time></trkpt><trkpt lat="46.11539216414062" lon="11.492087255814454"><ele>989.0</ele><time>2026-05-02T10:03:33.999Z</time></trkpt><trkpt lat="46.11538241389068" lon="11.492230580060792"><ele>989.0</ele><time>2026-05-02T10:03:34.999Z</time></trkpt><trkpt lat="46.11536337371473" lon="11.492364861736338"><ele>989.0000000000001</ele><time>2026-05-02T10:03:35.999Z</time></trkpt><trkpt lat="46.115307578545995" lon="11.492461075321078"><ele>989.0000000000001</ele><time>2026-05-02T10:03:36.999Z</time></trkpt><trkpt lat="46.115213944727124" lon="11.492529463676988"><ele>989.0</ele><time>2026-05-02T10:03:37.999Z</time></trkpt><trkpt lat="46.11509988081352" lon="11.492604531220879"><ele>989.0</ele><time>2026-05-02T10:03:38.999Z</time></trkpt><trkpt lat="46.11497502832181" lon="11.492709036897997"><ele>987.75</ele><time>2026-05-02T10:03:39.999Z</time></trkpt><trkpt lat="46.1148603231733" lon="11.49280340249318"><ele>986.5</ele><time>2026-05-02T10:03:40.999Z</time></trkpt><trkpt lat="46.1147509243379" lon="11.492900995573041"><ele>985.25</ele><time>2026-05-02T10:03:41.999Z</time></trkpt><trkpt lat="46.11464101480498" lon="11.493000221074325"><ele>984.0</ele><time>2026-05-02T10:03:42.999Z</time></trkpt><trkpt lat="46.114525332499774" lon="11.493103324702897"><ele>984.0</ele><time>2026-05-02T10:03:43.999Z</time></trkpt><trkpt lat="46.11441367122341" lon="11.493244264824249"><ele>984.0</ele><time>2026-05-02T10:03:44.999Z</time></trkpt><trkpt lat="46.114311417550816" lon="11.493414737368726"><ele>984.0</ele><time>2026-05-02T10:03:45.999Z</time></trkpt><trkpt lat="46.114201541185864" lon="11.493584875509935"><ele>984.0</ele><time>2026-05-02T10:03:46.999Z</time></trkpt><trkpt lat="46.114085857367904" lon="11.493752073908887"><ele>984.0</ele><time>2026-05-02T10:03:47.999Z</time></trkpt><trkpt lat="46.11396389102017" lon="11.493920263822307"><ele>984.0</ele><time>2026-05-02T10:03:48.999Z</time></trkpt><trkpt lat="46.113844641724334" lon="11.494086810082825"><ele>985.5</ele><time>2026-05-02T10:03:49.999Z</time></trkpt><trkpt lat="46.11372679946109" lon="11.494249742551624"><ele>987.0</ele><time>2026-05-02T10:03:50.999Z</time></trkpt><trkpt lat="46.113619330084774" lon="11.494383203865489"><ele>988.5</ele><time>2026-05-02T10:03:51.999Z</time></trkpt><trkpt lat="46.11353868297638" lon="11.494501182798636"><ele>990.0</ele><time>2026-05-02T10:03:52.999Z</time></trkpt><trkpt lat="46.11343986858908" lon="11.494572563572936"><ele>994.25</ele><time>2026-05-02T10:03:53.999Z</time></trkpt><trkpt lat="46.113321434208046" lon="11.494663330476468"><ele>998.5</ele><time>2026-05-02T10:03:54.999Z</time></trkpt><trkpt lat="46.1132621578959" lon="11.494807663297228"><ele>1002.75</ele><time>2026-05-02T10:03:55.999Z</time></trkpt><trkpt lat="46.113204025951234" lon="11.494987302366267"><ele>1007.0</ele><time>2026-05-02T10:03:56.999Z</time></trkpt><trkpt lat="46.11315163692863" lon="11.495173263719055"><ele>1007.0</ele><time>2026-05-02T10:03:57.999Z</time></trkpt><trkpt lat="46.11311348953042" lon="11.495347264350043"><ele>1007.0</ele><time>2026-05-02T10:03:58.999Z</time></trkpt><trkpt lat="46.11307027363143" lon="11.495514192521192"><ele>1007.0</ele><time>2026-05-02T10:03:59.999Z</time></trkpt><trkpt lat="46.11304095305911" lon="11.495660154790414"><ele>1007.0</ele><time>2026-05-02T10:04:00.999Z</time></trkpt><trkpt lat="46.11300449648656" lon="11.495799436474327"><ele>997.5</ele><time>2026-05-02T10:04:01.999Z</time></trkpt><trkpt lat="46.112943863599696" lon="11.495925525629744"><ele>988.0</ele><time>2026-05-02T10:04:02.999Z</time></trkpt><trkpt lat="46.11284384305354" lon="11.496025695907067"><ele>978.5</ele><time>2026-05-02T10:04:03.999Z</time></trkpt><trkpt lat="46.112714299554334" lon="11.496102947758658"><ele>969.0</ele><time>2026-05-02T10:04:04.999Z</time></trkpt><trkpt lat="46.11258925057758" lon="11.496187131260958"><ele>969.0</ele><time>2026-05-02T10:04:05.999Z</time></trkpt><trkpt lat="46.1124652827513" lon="11.496291233062509"><ele>969.0</ele><time>2026-05-02T10:04:06.999Z</time></trkpt><trkpt lat="46.11235257944154" lon="11.496415464362196"><ele>969.0</ele><time>2026-05-02T10:04:07.999Z</time></trkpt><trkpt lat="46.112260853065244" lon="11.496554114988575"><ele>969.0</ele><time>2026-05-02T10:04:08.999Z</time></trkpt><trkpt lat="46.11217220920137" lon="11.496684715898482"><ele>969.0</ele><time>2026-05-02T10:04:09.999Z</time></trkpt><trkpt lat="46.11206349941325" lon="11.496767649845133"><ele>969.0</ele><time>2026-05-02T10:04:10.999Z</time></trkpt><trkpt lat="46.11193054345563" lon="11.496815651938263"><ele>969.0</ele><time>2026-05-02T10:04:11.999Z</time></trkpt><trkpt lat="46.11179144422743" lon="11.496875292604697"><ele>969.0</ele><time>2026-05-02T10:04:12.999Z</time></trkpt><trkpt lat="46.11166044823018" lon="11.496974611039677"><ele>966.5</ele><time>2026-05-02T10:04:13.999Z</time></trkpt><trkpt lat="46.111539002319056" lon="11.497088553503838"><ele>964.0</ele><time>2026-05-02T10:04:14.999Z</time></trkpt><trkpt lat="46.11142236224618" lon="11.497214507685651"><ele>961.5</ele><time>2026-05-02T10:04:15.999Z</time></trkpt><trkpt lat="46.11132359049163" lon="11.497350656027333"><ele>959.0</ele><time>2026-05-02T10:04:16.999Z</time></trkpt><trkpt lat="46.1112258977813" lon="11.497468443497558"><ele>959.0</ele><time>2026-05-02T10:04:17.999Z</time></trkpt><trkpt lat="46.111123760128656" lon="11.497549736675492"><ele>959.0</ele><time>2026-05-02T10:04:18.999Z</time></trkpt><trkpt lat="46.11099776762983" lon="11.497584345903846"><ele>959.0</ele><time>2026-05-02T10:04:19.999Z</time></trkpt><trkpt lat="46.11086539643096" lon="11.497591668605391"><ele>959.0</ele><time>2026-05-02T10:04:20.999Z</time></trkpt><trkpt lat="46.11074175369779" lon="11.497619457650707"><ele>957.0</ele><time>2026-05-02T10:04:21.999Z</time></trkpt><trkpt lat="46.110634832560805" lon="11.497691564994232"><ele>955.0</ele><time>2026-05-02T10:04:22.999Z</time></trkpt><trkpt lat="46.11054111769315" lon="11.49781357417374"><ele>953.0</ele><time>2026-05-02T10:04:23.999Z</time></trkpt><trkpt lat="46.11046346206427" lon="11.497964193626512"><ele>951.0</ele><time>2026-05-02T10:04:24.999Z</time></trkpt><trkpt lat="46.1103884119431" lon="11.498112126498498"><ele>951.0</ele><time>2026-05-02T10:04:25.999Z</time></trkpt><trkpt lat="46.110306412133355" lon="11.49824573292239"><ele>951.0</ele><time>2026-05-02T10:04:26.999Z</time></trkpt><trkpt lat="46.11020339828254" lon="11.498350372684696"><ele>951.0</ele><time>2026-05-02T10:04:27.999Z</time></trkpt><trkpt lat="46.110077132232064" lon="11.498445829530318"><ele>951.0</ele><time>2026-05-02T10:04:28.999Z</time></trkpt><trkpt lat="46.10993741378459" lon="11.498545236003382"><ele>947.6666666666667</ele><time>2026-05-02T10:04:29.999Z</time></trkpt><trkpt lat="46.10979634135472" lon="11.498651866516685"><ele>944.3333333333334</ele><time>2026-05-02T10:04:30.999Z</time></trkpt><trkpt lat="46.10965059003227" lon="11.498771339613908"><ele>941.0</ele><time>2026-05-02T10:04:31.999Z</time></trkpt><trkpt lat="46.10950196756762" lon="11.498902445803479"><ele>941.0</ele><time>2026-05-02T10:04:32.999Z</time></trkpt><trkpt lat="46.109355150995285" lon="11.49902306881204"><ele>941.0</ele><time>2026-05-02T10:04:33.999Z</time></trkpt><trkpt lat="46.10920408142021" lon="11.499138188200636"><ele>941.0</ele><time>2026-05-02T10:04:34.999Z</time></trkpt><trkpt lat="46.10904240054879" lon="11.49924142140933"><ele>947.0</ele><time>2026-05-02T10:04:35.999Z</time></trkpt><trkpt lat="46.10886805184753" lon="11.499316213926702"><ele>953.0</ele><time>2026-05-02T10:04:36.999Z</time></trkpt><trkpt lat="46.10869543994539" lon="11.49936669088742"><ele>959.0</ele><time>2026-05-02T10:04:38Z</time></trkpt><trkpt lat="46.1085294655229" lon="11.499420330238937"><ele>959.0</ele><time>2026-05-02T10:04:39Z</time></trkpt><trkpt lat="46.108371598717454" lon="11.499488315237313"><ele>959.0</ele><time>2026-05-02T10:04:40Z</time></trkpt><trkpt lat="46.108217376032506" lon="11.499573480449309"><ele>959.0</ele><time>2026-05-02T10:04:41Z</time></trkpt><trkpt lat="46.108072994080594" lon="11.499688609680979"><ele>950.3333333333334</ele><time>2026-05-02T10:04:42Z</time></trkpt><trkpt lat="46.107935451688995" lon="11.499808615529998"><ele>941.6666666666667</ele><time>2026-05-02T10:04:43Z</time></trkpt><trkpt lat="46.10777934077221" lon="11.499904461479755"><ele>933.0</ele><time>2026-05-02T10:04:44Z</time></trkpt><trkpt lat="46.107615007693965" lon="11.499974543515489"><ele>933.0</ele><time>2026-05-02T10:04:45Z</time></trkpt><trkpt lat="46.107442470390154" lon="11.500025751614526"><ele>933.0</ele><time>2026-05-02T10:04:46Z</time></trkpt><trkpt lat="46.1072789656961" lon="11.500092650101157"><ele>933.0</ele><time>2026-05-02T10:04:47Z</time></trkpt><trkpt lat="46.10710868913685" lon="11.500160433215084"><ele>938.0</ele><time>2026-05-02T10:04:48Z</time></trkpt><trkpt lat="46.10695370859901" lon="11.500216533868805"><ele>943.0</ele><time>2026-05-02T10:04:49Z</time></trkpt><trkpt lat="46.10679869138739" lon="11.500260311847855"><ele>948.0</ele><time>2026-05-02T10:04:50Z</time></trkpt><trkpt lat="46.10665395087914" lon="11.500280756512604"><ele>950.25</ele><time>2026-05-02T10:04:51Z</time></trkpt><trkpt lat="46.10650716217569" lon="11.500304278687"><ele>952.5</ele><time>2026-05-02T10:04:52Z</time></trkpt><trkpt lat="46.10635993200594" lon="11.500335624024483"><ele>954.75</ele><time>2026-05-02T10:04:53Z</time></trkpt><trkpt lat="46.10622129647043" lon="11.50037344898708"><ele>957.0</ele><time>2026-05-02T10:04:54Z</time></trkpt><trkpt lat="46.10608592790919" lon="11.500439722592594"><ele>948.0</ele><time>2026-05-02T10:04:55Z</time></trkpt><trkpt lat="46.1059475839098" lon="11.500530452221854"><ele>939.0</ele><time>2026-05-02T10:04:56Z</time></trkpt><trkpt lat="46.105810807395244" lon="11.500612791884526"><ele>930.0</ele><time>2026-05-02T10:04:57Z</time></trkpt><trkpt lat="46.10566920593956" lon="11.50067486052274"><ele>921.0</ele><time>2026-05-02T10:04:58Z</time></trkpt><trkpt lat="46.10552754281945" lon="11.500716523455939"><ele>921.0</ele><time>2026-05-02T10:04:59Z</time></trkpt><trkpt lat="46.10539452089961" lon="11.500750461010147"><ele>921.0</ele><time>2026-05-02T10:05:00Z</time></trkpt><trkpt lat="46.10526594312039" lon="11.500788762742227"><ele>921.0</ele><time>2026-05-02T10:05:01Z</time></trkpt><trkpt lat="46.10513014100476" lon="11.500835727570852"><ele>921.0</ele><time>2026-05-02T10:05:02Z</time></trkpt><trkpt lat="46.10498234393585" lon="11.500885448078263"><ele>921.6666666666667</ele><time>2026-05-02T10:05:03Z</time></trkpt><trkpt lat="46.10483123937862" lon="11.500930703242526"><ele>922.3333333333334</ele><time>2026-05-02T10:05:04Z</time></trkpt><trkpt lat="46.10467766626741" lon="11.500922940291414"><ele>923.0</ele><time>2026-05-02T10:05:05Z</time></trkpt><trkpt lat="46.10452457277287" lon="11.500908392467492"><ele>923.0</ele><time>2026-05-02T10:05:06Z</time></trkpt><trkpt lat="46.104366723767335" lon="11.50088910645881"><ele>923.0</ele><time>2026-05-02T10:05:07Z</time></trkpt><trkpt lat="46.1042047092132" lon="11.500896865723995"><ele>923.0</ele><time>2026-05-02T10:05:08Z</time></trkpt><trkpt lat="46.104043650810816" lon="11.500907993165127"><ele>923.6666666666667</ele><time>2026-05-02T10:05:09Z</time></trkpt><trkpt lat="46.1038861382532" lon="11.500941784945216"><ele>924.3333333333333</ele><time>2026-05-02T10:05:10Z</time></trkpt><trkpt lat="46.10372681955209" lon="11.500977872146349"><ele>925.0</ele><time>2026-05-02T10:05:11Z</time></trkpt><trkpt lat="46.103561469294064" lon="11.501010229697787"><ele>925.0</ele><time>2026-05-02T10:05:12Z</time></trkpt><trkpt lat="46.10339299276765" lon="11.501043223844583"><ele>925.0</ele><time>2026-05-02T10:05:13Z</time></trkpt><trkpt lat="46.10322100004227" lon="11.501042811083211"><ele>925.0</ele><time>2026-05-02T10:05:14Z</time></trkpt><trkpt lat="46.10304912778885" lon="11.50106773426751"><ele>927.0</ele><time>2026-05-02T10:05:15Z</time></trkpt><trkpt lat="46.102886433748424" lon="11.501128974050959"><ele>929.0</ele><time>2026-05-02T10:05:16Z</time></trkpt><trkpt lat="46.10273449671442" lon="11.501180275293544"><ele>931.0</ele><time>2026-05-02T10:05:17Z</time></trkpt><trkpt lat="46.10257997907802" lon="11.501215906327074"><ele>930.6666666666666</ele><time>2026-05-02T10:05:18Z</time></trkpt><trkpt lat="46.10242756691591" lon="11.501249268475298"><ele>930.3333333333333</ele><time>2026-05-02T10:05:19Z</time></trkpt><trkpt lat="46.102275070390085" lon="11.501252868353495"><ele>930.0</ele><time>2026-05-02T10:05:20Z</time></trkpt><trkpt lat="46.10212320182075" lon="11.501236543798726"><ele>930.0</ele><time>2026-05-02T10:05:21Z</time></trkpt><trkpt lat="46.10196956700191" lon="11.501200775274214"><ele>930.0</ele><time>2026-05-02T10:05:22Z</time></trkpt><trkpt lat="46.101815801519905" lon="11.50114773161982"><ele>930.0</ele><time>2026-05-02T10:05:23Z</time></trkpt><trkpt lat="46.10166468627633" lon="11.501102384616097"><ele>928.0</ele><time>2026-05-02T10:05:24Z</time></trkpt><trkpt lat="46.101520516311524" lon="11.50110377731997"><ele>926.0</ele><time>2026-05-02T10:05:25Z</time></trkpt><trkpt lat="46.10137247129004" lon="11.501102157513607"><ele>924.0</ele><time>2026-05-02T10:05:26Z</time></trkpt><trkpt lat="46.101214737018324" lon="11.50110360384945"><ele>924.0</ele><time>2026-05-02T10:05:27Z</time></trkpt><trkpt lat="46.101047736449125" lon="11.501081575648541"><ele>924.0</ele><time>2026-05-02T10:05:28Z</time></trkpt><trkpt lat="46.100877872938" lon="11.501087211637218"><ele>924.0</ele><time>2026-05-02T10:05:29Z</time></trkpt><trkpt lat="46.10070762075117" lon="11.501130095667277"><ele>920.0</ele><time>2026-05-02T10:05:30Z</time></trkpt><trkpt lat="46.1005360431011" lon="11.501116223153996"><ele>916.0</ele><time>2026-05-02T10:05:31Z</time></trkpt><trkpt lat="46.1003684942936" lon="11.501119806286411"><ele>912.0</ele><time>2026-05-02T10:05:32Z</time></trkpt><trkpt lat="46.10021737744426" lon="11.50111811836061"><ele>912.0</ele><time>2026-05-02T10:05:33Z</time></trkpt><trkpt lat="46.10008315181848" lon="11.50108005639946"><ele>912.0</ele><time>2026-05-02T10:05:34Z</time></trkpt><trkpt lat="46.099943867410744" lon="11.501020627856766"><ele>912.0</ele><time>2026-05-02T10:05:34.999Z</time></trkpt><trkpt lat="46.09981843242105" lon="11.500948482188985"><ele>912.0</ele><time>2026-05-02T10:05:35.999Z</time></trkpt><trkpt lat="46.09970570541861" lon="11.500852686194072"><ele>909.0</ele><time>2026-05-02T10:05:36.999Z</time></trkpt><trkpt lat="46.09959354414232" lon="11.500786702197994"><ele>906.0</ele><time>2026-05-02T10:05:37.999Z</time></trkpt><trkpt lat="46.09949744018861" lon="11.500691519352623"><ele>903.0</ele><time>2026-05-02T10:05:38.999Z</time></trkpt><trkpt lat="46.099387523955315" lon="11.500681727072417"><ele>900.0</ele><time>2026-05-02T10:05:39.999Z</time></trkpt><trkpt lat="46.09927282256372" lon="11.500690842122411"><ele>900.0</ele><time>2026-05-02T10:05:40.999Z</time></trkpt><trkpt lat="46.09913779097336" lon="11.5007016857418"><ele>900.0</ele><time>2026-05-02T10:05:41.999Z</time></trkpt><trkpt lat="46.09899508806835" lon="11.500731426616143"><ele>900.0</ele><time>2026-05-02T10:05:42.999Z</time></trkpt><trkpt lat="46.09885945563936" lon="11.5007590760667"><ele>900.0</ele><time>2026-05-02T10:05:43.999Z</time></trkpt><trkpt lat="46.09873141211482" lon="11.500771718279625"><ele>899.25</ele><time>2026-05-02T10:05:44.999Z</time></trkpt><trkpt lat="46.09860142089174" lon="11.500790793101974"><ele>898.5</ele><time>2026-05-02T10:05:45.999Z</time></trkpt><trkpt lat="46.09847579253947" lon="11.500714124662291"><ele>897.75</ele><time>2026-05-02T10:05:46.999Z</time></trkpt><trkpt lat="46.09834103798995" lon="11.500655663365123"><ele>897.0</ele><time>2026-05-02T10:05:47.999Z</time></trkpt><trkpt lat="46.098194273305666" lon="11.500604411106591"><ele>895.5</ele><time>2026-05-02T10:05:48.999Z</time></trkpt><trkpt lat="46.09804169892462" lon="11.500588301119537"><ele>894.0</ele><time>2026-05-02T10:05:49.999Z</time></trkpt><trkpt lat="46.097900969402545" lon="11.500550884395038"><ele>892.5</ele><time>2026-05-02T10:05:50.999Z</time></trkpt><trkpt lat="46.097771765359916" lon="11.500496524632096"><ele>891.0</ele><time>2026-05-02T10:05:51.999Z</time></trkpt><trkpt lat="46.09765121300851" lon="11.500483377665267"><ele>891.0</ele><time>2026-05-02T10:05:52.999Z</time></trkpt><trkpt lat="46.097532030469964" lon="11.500523438985965"><ele>891.0</ele><time>2026-05-02T10:05:53.999Z</time></trkpt><trkpt lat="46.097430144020116" lon="11.50063238440964"><ele>891.0</ele><time>2026-05-02T10:05:54.999Z</time></trkpt><trkpt lat="46.097312262372924" lon="11.500716694297468"><ele>891.0</ele><time>2026-05-02T10:05:55.999Z</time></trkpt><trkpt lat="46.09718023949993" lon="11.500744590786706"><ele>888.75</ele><time>2026-05-02T10:05:56.999Z</time></trkpt><trkpt lat="46.09705425384824" lon="11.500778144943533"><ele>886.5</ele><time>2026-05-02T10:05:57.999Z</time></trkpt><trkpt lat="46.096926405679476" lon="11.500791470513212"><ele>884.25</ele><time>2026-05-02T10:05:58.999Z</time></trkpt><trkpt lat="46.09679014966816" lon="11.500786221776142"><ele>882.0</ele><time>2026-05-02T10:05:59.999Z</time></trkpt><trkpt lat="46.096652053743504" lon="11.500800470910152"><ele>876.5</ele><time>2026-05-02T10:06:00.999Z</time></trkpt><trkpt lat="46.096514948359626" lon="11.500771734963699"><ele>871.0</ele><time>2026-05-02T10:06:01.999Z</time></trkpt><trkpt lat="46.09637934863608" lon="11.50072298296731"><ele>865.5</ele><time>2026-05-02T10:06:02.999Z</time></trkpt><trkpt lat="46.09625145321364" lon="11.500640678682052"><ele>860.0</ele><time>2026-05-02T10:06:03.999Z</time></trkpt><trkpt lat="46.096119501145495" lon="11.500598076634748"><ele>860.0</ele><time>2026-05-02T10:06:04.999Z</time></trkpt><trkpt lat="46.096014906309314" lon="11.500505939006288"><ele>860.0</ele><time>2026-05-02T10:06:05.999Z</time></trkpt><trkpt lat="46.095929941848276" lon="11.500417331038225"><ele>860.0</ele><time>2026-05-02T10:06:06.999Z</time></trkpt><trkpt lat="46.09586236851228" lon="11.500286324224145"><ele>860.0</ele><time>2026-05-02T10:06:07.999Z</time></trkpt><trkpt lat="46.09578913858489" lon="11.500132842548886"><ele>859.0</ele><time>2026-05-02T10:06:08.999Z</time></trkpt><trkpt lat="46.095723415865756" lon="11.499970346950922"><ele>858.0</ele><time>2026-05-02T10:06:09.999Z</time></trkpt><trkpt lat="46.09567746244334" lon="11.499812214612822"><ele>857.0</ele><time>2026-05-02T10:06:10.999Z</time></trkpt><trkpt lat="46.09562647900755" lon="11.49967568730799"><ele>856.0</ele><time>2026-05-02T10:06:11.999Z</time></trkpt><trkpt lat="46.09554800070586" lon="11.49957078016864"><ele>856.0</ele><time>2026-05-02T10:06:12.999Z</time></trkpt><trkpt lat="46.09544483959895" lon="11.49952930842388"><ele>855.9999999999999</ele><time>2026-05-02T10:06:13.999Z</time></trkpt><trkpt lat="46.09535921338955" lon="11.499464180800164"><ele>855.9999999999999</ele><time>2026-05-02T10:06:14.999Z</time></trkpt><trkpt lat="46.09529885169349" lon="11.499371512188592"><ele>856.0</ele><time>2026-05-02T10:06:15.999Z</time></trkpt><trkpt lat="46.09528203279021" lon="11.499218233994911"><ele>856.0</ele><time>2026-05-02T10:06:16.999Z</time></trkpt><trkpt lat="46.0952391850314" lon="11.499061785398712"><ele>856.0</ele><time>2026-05-02T10:06:17.999Z</time></trkpt><trkpt lat="46.09520075094364" lon="11.498889252743606"><ele>856.0</ele><time>2026-05-02T10:06:18.999Z</time></trkpt><trkpt lat="46.09518488724738" lon="11.498732658329917"><ele>856.0</ele><time>2026-05-02T10:06:19.999Z</time></trkpt><trkpt lat="46.095183722361696" lon="11.49857127846945"><ele>856.0</ele><time>2026-05-02T10:06:20.999Z</time></trkpt><trkpt lat="46.09517008853846" lon="11.498407437055755"><ele>859.0</ele><time>2026-05-02T10:06:21.999Z</time></trkpt><trkpt lat="46.09516631005589" lon="11.49827061383094"><ele>861.9999999999999</ele><time>2026-05-02T10:06:22.999Z</time></trkpt><trkpt lat="46.09514835751878" lon="11.498145483174879"><ele>864.9999999999999</ele><time>2026-05-02T10:06:23.999Z</time></trkpt><trkpt lat="46.09511680032753" lon="11.498024901286113"><ele>868.0</ele><time>2026-05-02T10:06:24.999Z</time></trkpt><trkpt lat="46.09503619655239" lon="11.497941339197178"><ele>871.0</ele><time>2026-05-02T10:06:25.999Z</time></trkpt><trkpt lat="46.09493658530694" lon="11.497910857988101"><ele>869.1999999999999</ele><time>2026-05-02T10:06:26.999Z</time></trkpt><trkpt lat="46.0948376676601" lon="11.497951937188763"><ele>867.3999999999999</ele><time>2026-05-02T10:06:27.999Z</time></trkpt><trkpt lat="46.09473839626369" lon="11.497966689182952"><ele>865.6</ele><time>2026-05-02T10:06:28.999Z</time></trkpt><trkpt lat="46.09465799590071" lon="11.498034291667592"><ele>863.8</ele><time>2026-05-02T10:06:29.999Z</time></trkpt><trkpt lat="46.094617045935344" lon="11.498184986838172"><ele>862.0</ele><time>2026-05-02T10:06:30.999Z</time></trkpt><trkpt lat="46.09457282115736" lon="11.49832526807306"><ele>862.0</ele><time>2026-05-02T10:06:31.999Z</time></trkpt><trkpt lat="46.0944956201099" lon="11.498422115743972"><ele>862.0</ele><time>2026-05-02T10:06:32.999Z</time></trkpt><trkpt lat="46.09442091570002" lon="11.498494167298054"><ele>862.0</ele><time>2026-05-02T10:06:33.999Z</time></trkpt><trkpt lat="46.09433151348345" lon="11.498543188091897"><ele>862.0</ele><time>2026-05-02T10:06:34.999Z</time></trkpt><trkpt lat="46.09423570730268" lon="11.498563344730574"><ele>862.0</ele><time>2026-05-02T10:06:35.999Z</time></trkpt><trkpt lat="46.09411637300936" lon="11.49855864017695"><ele>857.75</ele><time>2026-05-02T10:06:36.999Z</time></trkpt><trkpt lat="46.09398579772594" lon="11.498554668924239"><ele>853.5</ele><time>2026-05-02T10:06:37.999Z</time></trkpt><trkpt lat="46.09385684067671" lon="11.498622850615034"><ele>849.25</ele><time>2026-05-02T10:06:38.999Z</time></trkpt><trkpt lat="46.09374860194342" lon="11.498706667388655"><ele>845.0</ele><time>2026-05-02T10:06:39.999Z</time></trkpt><trkpt lat="46.09364763011044" lon="11.498739923226287"><ele>845.0</ele><time>2026-05-02T10:06:40.999Z</time></trkpt><trkpt lat="46.09355368405546" lon="11.49871487639443"><ele>845.0</ele><time>2026-05-02T10:06:41.999Z</time></trkpt><trkpt lat="46.09345872841704" lon="11.498660409762875"><ele>845.0</ele><time>2026-05-02T10:06:43Z</time></trkpt><trkpt lat="46.09339215426296" lon="11.498575182463473"><ele>845.0</ele><time>2026-05-02T10:06:44Z</time></trkpt><trkpt lat="46.09334862725156" lon="11.498469317709933"><ele>845.0</ele><time>2026-05-02T10:06:45Z</time></trkpt><trkpt lat="46.093317235533085" lon="11.498332414580203"><ele>845.0</ele><time>2026-05-02T10:06:46Z</time></trkpt><trkpt lat="46.09327246884728" lon="11.498201554875862"><ele>845.0</ele><time>2026-05-02T10:06:47Z</time></trkpt><trkpt lat="46.093172729411016" lon="11.498107508685097"><ele>845.0</ele><time>2026-05-02T10:06:48Z</time></trkpt><trkpt lat="46.093061046067845" lon="11.498080322158252"><ele>845.0</ele><time>2026-05-02T10:06:49Z</time></trkpt><trkpt lat="46.09294548036102" lon="11.498129029856667"><ele>842.0</ele><time>2026-05-02T10:06:50Z</time></trkpt><trkpt lat="46.09282802197088" lon="11.498224276644867"><ele>839.0</ele><time>2026-05-02T10:06:51Z</time></trkpt><trkpt lat="46.09270298263233" lon="11.49830776863097"><ele>836.0</ele><time>2026-05-02T10:06:52Z</time></trkpt><trkpt lat="46.09257436233147" lon="11.49838078136866"><ele>833.0</ele><time>2026-05-02T10:06:53Z</time></trkpt><trkpt lat="46.09245258766977" lon="11.498450655282864"><ele>828.75</ele><time>2026-05-02T10:06:54Z</time></trkpt><trkpt lat="46.092349804810645" lon="11.498501296438135"><ele>824.5</ele><time>2026-05-02T10:06:55Z</time></trkpt><trkpt lat="46.09224357106933" lon="11.498513071877655"><ele>820.25</ele><time>2026-05-02T10:06:56Z</time></trkpt><trkpt lat="46.092115992680775" lon="11.498471754626557"><ele>816.0</ele><time>2026-05-02T10:06:57Z</time></trkpt><trkpt lat="46.09197261400453" lon="11.498491373343747"><ele>816.0</ele><time>2026-05-02T10:06:58Z</time></trkpt><trkpt lat="46.09185167573161" lon="11.498536500166395"><ele>816.0</ele><time>2026-05-02T10:06:59Z</time></trkpt><trkpt lat="46.091738502183844" lon="11.498546579518086"><ele>816.0</ele><time>2026-05-02T10:07:00Z</time></trkpt><trkpt lat="46.091628521703846" lon="11.498517156172662"><ele>816.0</ele><time>2026-05-02T10:07:01Z</time></trkpt><trkpt lat="46.09152236099439" lon="11.498448731360838"><ele>812.5</ele><time>2026-05-02T10:07:02Z</time></trkpt><trkpt lat="46.09142190848978" lon="11.498343039575014"><ele>809.0</ele><time>2026-05-02T10:07:03Z</time></trkpt><trkpt lat="46.09133246094431" lon="11.498200057284187"><ele>805.5</ele><time>2026-05-02T10:07:04Z</time></trkpt><trkpt lat="46.091223448685604" lon="11.498058558735702"><ele>802.0</ele><time>2026-05-02T10:07:05Z</time></trkpt><trkpt lat="46.091119919072035" lon="11.49789119591903"><ele>802.0</ele><time>2026-05-02T10:07:06Z</time></trkpt><trkpt lat="46.0910048627884" lon="11.497707771517218"><ele>802.0</ele><time>2026-05-02T10:07:07Z</time></trkpt><trkpt lat="46.090887527928494" lon="11.497521073886338"><ele>802.0</ele><time>2026-05-02T10:07:08Z</time></trkpt><trkpt lat="46.0907513334941" lon="11.49736449379038"><ele>804.3333333333333</ele><time>2026-05-02T10:07:09Z</time></trkpt><trkpt lat="46.09061310041246" lon="11.497215029378102"><ele>806.6666666666667</ele><time>2026-05-02T10:07:10Z</time></trkpt><trkpt lat="46.0904809490831" lon="11.497068925527143"><ele>809.0</ele><time>2026-05-02T10:07:11Z</time></trkpt><trkpt lat="46.090367757223675" lon="11.496948117165205"><ele>809.0</ele><time>2026-05-02T10:07:12Z</time></trkpt><trkpt lat="46.09026956961615" lon="11.496858202174508"><ele>809.0</ele><time>2026-05-02T10:07:13Z</time></trkpt><trkpt lat="46.09016606012382" lon="11.496791436142107"><ele>809.0</ele><time>2026-05-02T10:07:14Z</time></trkpt><trkpt lat="46.090043996770746" lon="11.496822493380416"><ele>809.0</ele><time>2026-05-02T10:07:15Z</time></trkpt><trkpt lat="46.08992592033597" lon="11.496862444462352"><ele>804.6</ele><time>2026-05-02T10:07:16Z</time></trkpt><trkpt lat="46.089810584024505" lon="11.496877021522508"><ele>800.2</ele><time>2026-05-02T10:07:17Z</time></trkpt><trkpt lat="46.089721980852936" lon="11.496801073087637"><ele>795.8000000000001</ele><time>2026-05-02T10:07:18Z</time></trkpt><trkpt lat="46.089635014643164" lon="11.49672110445906"><ele>791.4000000000001</ele><time>2026-05-02T10:07:19Z</time></trkpt><trkpt lat="46.08952564881269" lon="11.496646441285197"><ele>787.0</ele><time>2026-05-02T10:07:20Z</time></trkpt><trkpt lat="46.0894184457405" lon="11.496541203097001"><ele>787.0</ele><time>2026-05-02T10:07:21Z</time></trkpt><trkpt lat="46.089298644002525" lon="11.49642320372123"><ele>787.0</ele><time>2026-05-02T10:07:22Z</time></trkpt><trkpt lat="46.089165200871435" lon="11.496297305264617"><ele>787.0</ele><time>2026-05-02T10:07:23Z</time></trkpt><trkpt lat="46.08901003898402" lon="11.49617503129726"><ele>784.6666666666666</ele><time>2026-05-02T10:07:24Z</time></trkpt><trkpt lat="46.088835684486796" lon="11.496066758606714"><ele>782.3333333333333</ele><time>2026-05-02T10:07:25Z</time></trkpt><trkpt lat="46.088657595828" lon="11.49594049445866"><ele>780.0</ele><time>2026-05-02T10:07:26Z</time></trkpt><trkpt lat="46.08847392220613" lon="11.495831086637287"><ele>780.0</ele><time>2026-05-02T10:07:27Z</time></trkpt><trkpt lat="46.0882925061247" lon="11.49572425128095"><ele>780.0</ele><time>2026-05-02T10:07:28Z</time></trkpt><trkpt lat="46.08811855503666" lon="11.495623695012283"><ele>780.0</ele><time>2026-05-02T10:07:29Z</time></trkpt><trkpt lat="46.087972646783555" lon="11.49553904561403"><ele>780.5</ele><time>2026-05-02T10:07:30Z</time></trkpt><trkpt lat="46.08782966313578" lon="11.495479292879022"><ele>781.0</ele><time>2026-05-02T10:07:31Z</time></trkpt><trkpt lat="46.08768623784544" lon="11.495444472835754"><ele>781.5</ele><time>2026-05-02T10:07:32Z</time></trkpt><trkpt lat="46.08754816576228" lon="11.49535975267806"><ele>782.0</ele><time>2026-05-02T10:07:33Z</time></trkpt><trkpt lat="46.08741857726263" lon="11.49522498907737"><ele>776.0</ele><time>2026-05-02T10:07:34Z</time></trkpt><trkpt lat="46.08728972402737" lon="11.495097455557236"><ele>770.0</ele><time>2026-05-02T10:07:34.999Z</time></trkpt><trkpt lat="46.08717989902429" lon="11.494953667879665"><ele>764.0</ele><time>2026-05-02T10:07:35.999Z</time></trkpt><trkpt lat="46.0871011966973" lon="11.494779286555447"><ele>758.0</ele><time>2026-05-02T10:07:36.999Z</time></trkpt><trkpt lat="46.08703203682833" lon="11.49457426447553"><ele>758.0</ele><time>2026-05-02T10:07:37.999Z</time></trkpt><trkpt lat="46.086926235749615" lon="11.494373113707875"><ele>758.0</ele><time>2026-05-02T10:07:38.999Z</time></trkpt><trkpt lat="46.08679641317039" lon="11.4941848849995"><ele>758.0</ele><time>2026-05-02T10:07:39.999Z</time></trkpt><trkpt lat="46.086667816858494" lon="11.494007892989545"><ele>753.25</ele><time>2026-05-02T10:07:40.999Z</time></trkpt><trkpt lat="46.0865858530708" lon="11.493794274270591"><ele>748.5</ele><time>2026-05-02T10:07:41.999Z</time></trkpt><trkpt lat="46.0864953419022" lon="11.49363267172552"><ele>743.75</ele><time>2026-05-02T10:07:42.999Z</time></trkpt><trkpt lat="46.08642904413537" lon="11.493475430341613"><ele>739.0</ele><time>2026-05-02T10:07:43.999Z</time></trkpt><trkpt lat="46.08635324447178" lon="11.493336585211988"><ele>739.0</ele><time>2026-05-02T10:07:44.999Z</time></trkpt><trkpt lat="46.08624242196945" lon="11.493218901889175"><ele>739.0</ele><time>2026-05-02T10:07:45.999Z</time></trkpt><trkpt lat="46.08610572705831" lon="11.493097196812936"><ele>739.0</ele><time>2026-05-02T10:07:46.999Z</time></trkpt><trkpt lat="46.08596788633233" lon="11.492941109924267"><ele>736.6666666666667</ele><time>2026-05-02T10:07:47.999Z</time></trkpt><trkpt lat="46.08580896038932" lon="11.492792312219626"><ele>734.3333333333334</ele><time>2026-05-02T10:07:48.999Z</time></trkpt><trkpt lat="46.085649883082844" lon="11.492645270912409"><ele>732.0</ele><time>2026-05-02T10:07:49.999Z</time></trkpt><trkpt lat="46.08548618216692" lon="11.492518920984194"><ele>732.0</ele><time>2026-05-02T10:07:50.999Z</time></trkpt><trkpt lat="46.08533289591989" lon="11.492382783194744"><ele>732.0</ele><time>2026-05-02T10:07:51.999Z</time></trkpt><trkpt lat="46.08518182386698" lon="11.492278056618067"><ele>732.0</ele><time>2026-05-02T10:07:52.999Z</time></trkpt><trkpt lat="46.085031208201016" lon="11.492191465378372"><ele>733.25</ele><time>2026-05-02T10:07:53.999Z</time></trkpt><trkpt lat="46.08489299990268" lon="11.49208926928894"><ele>734.5</ele><time>2026-05-02T10:07:54.999Z</time></trkpt><trkpt lat="46.084759885686665" lon="11.492013650570469"><ele>735.75</ele><time>2026-05-02T10:07:55.999Z</time></trkpt><trkpt lat="46.084623379618634" lon="11.491966576019703"><ele>737.0</ele><time>2026-05-02T10:07:56.999Z</time></trkpt><trkpt lat="46.08447976120316" lon="11.491979900383098"><ele>737.0</ele><time>2026-05-02T10:07:57.999Z</time></trkpt><trkpt lat="46.08433345294123" lon="11.491957042228453"><ele>737.0</ele><time>2026-05-02T10:07:58.999Z</time></trkpt><trkpt lat="46.084197862416595" lon="11.491946776209028"><ele>737.0</ele><time>2026-05-02T10:07:59.999Z</time></trkpt><trkpt lat="46.084081224834776" lon="11.49191345713683"><ele>737.0</ele><time>2026-05-02T10:08:00.999Z</time></trkpt><trkpt lat="46.083987494901" lon="11.491849173221926"><ele>726.8</ele><time>2026-05-02T10:08:01.999Z</time></trkpt><trkpt lat="46.083906016553016" lon="11.49176532364757"><ele>716.6</ele><time>2026-05-02T10:08:02.999Z</time></trkpt><trkpt lat="46.08383204156912" lon="11.491682850694898"><ele>706.4</ele><time>2026-05-02T10:08:03.999Z</time></trkpt><trkpt lat="46.083791649632346" lon="11.491560923854372"><ele>696.1999999999999</ele><time>2026-05-02T10:08:04.999Z</time></trkpt><trkpt lat="46.08375817298287" lon="11.491416449096775"><ele>686.0</ele><time>2026-05-02T10:08:05.999Z</time></trkpt><trkpt lat="46.08374174154019" lon="11.491260641889811"><ele>690.0</ele><time>2026-05-02T10:08:06.999Z</time></trkpt><trkpt lat="46.083775724229724" lon="11.491116209603597"><ele>694.0</ele><time>2026-05-02T10:08:07.999Z</time></trkpt><trkpt lat="46.083796514121005" lon="11.490957319566782"><ele>698.0</ele><time>2026-05-02T10:08:08.999Z</time></trkpt><trkpt lat="46.083844985563935" lon="11.490799076295447"><ele>702.0</ele><time>2026-05-02T10:08:09.999Z</time></trkpt><trkpt lat="46.08387694761681" lon="11.490635400653957"><ele>702.0</ele><time>2026-05-02T10:08:10.999Z</time></trkpt><trkpt lat="46.08388021985406" lon="11.490462102500803"><ele>702.0</ele><time>2026-05-02T10:08:11.999Z</time></trkpt><trkpt lat="46.083862459328046" lon="11.490280938694582"><ele>702.0</ele><time>2026-05-02T10:08:12.999Z</time></trkpt><trkpt lat="46.08384003345593" lon="11.490103322373752"><ele>702.0</ele><time>2026-05-02T10:08:13.999Z</time></trkpt><trkpt lat="46.08381542391753" lon="11.4899637225604"><ele>706.8</ele><time>2026-05-02T10:08:14.999Z</time></trkpt><trkpt lat="46.08376166671435" lon="11.489863043231667"><ele>711.6</ele><time>2026-05-02T10:08:15.999Z</time></trkpt><trkpt lat="46.08368585075784" lon="11.489811444796345"><ele>716.4</ele><time>2026-05-02T10:08:16.999Z</time></trkpt><trkpt lat="46.0836046142524" lon="11.489816684686609"><ele>721.1999999999999</ele><time>2026-05-02T10:08:17.999Z</time></trkpt><trkpt lat="46.08351329354856" lon="11.489874392849355"><ele>726.0</ele><time>2026-05-02T10:08:18.999Z</time></trkpt><trkpt lat="46.08341344906914" lon="11.489948100539735"><ele>726.0</ele><time>2026-05-02T10:08:19.999Z</time></trkpt><trkpt lat="46.08330733216984" lon="11.489998493655243"><ele>726.0</ele><time>2026-05-02T10:08:20.999Z</time></trkpt><trkpt lat="46.08321660363457" lon="11.49001842077912"><ele>726.0</ele><time>2026-05-02T10:08:21.999Z</time></trkpt><trkpt lat="46.083122581744064" lon="11.489991391549834"><ele>726.0</ele><time>2026-05-02T10:08:22.999Z</time></trkpt><trkpt lat="46.083010703033075" lon="11.489918614685617"><ele>726.0</ele><time>2026-05-02T10:08:23.999Z</time></trkpt><trkpt lat="46.08289203246979" lon="11.489842567397456"><ele>725.5</ele><time>2026-05-02T10:08:24.999Z</time></trkpt><trkpt lat="46.08278647775331" lon="11.489734042740688"><ele>725.0</ele><time>2026-05-02T10:08:25.999Z</time></trkpt><trkpt lat="46.08269880709854" lon="11.48961733850719"><ele>724.5</ele><time>2026-05-02T10:08:26.999Z</time></trkpt><trkpt lat="46.08261705674795" lon="11.489506150046745"><ele>724.0</ele><time>2026-05-02T10:08:27.999Z</time></trkpt><trkpt lat="46.08250180929618" lon="11.489467623872898"><ele>715.4000000000001</ele><time>2026-05-02T10:08:28.999Z</time></trkpt><trkpt lat="46.082413196625474" lon="11.489392901164189"><ele>706.8</ele><time>2026-05-02T10:08:29.999Z</time></trkpt><trkpt lat="46.082357375148966" lon="11.489294197030214"><ele>698.2</ele><time>2026-05-02T10:08:30.999Z</time></trkpt><trkpt lat="46.08234184508816" lon="11.48915502492483"><ele>689.5999999999999</ele><time>2026-05-02T10:08:31.999Z</time></trkpt><trkpt lat="46.08235150601738" lon="11.48899970981747"><ele>681.0</ele><time>2026-05-02T10:08:32.999Z</time></trkpt><trkpt lat="46.08235688963706" lon="11.488820791154675"><ele>685.0</ele><time>2026-05-02T10:08:33.999Z</time></trkpt><trkpt lat="46.0823428688747" lon="11.48861938139653"><ele>689.0</ele><time>2026-05-02T10:08:34.999Z</time></trkpt><trkpt lat="46.08230693545728" lon="11.488402613069264"><ele>693.0</ele><time>2026-05-02T10:08:35.999Z</time></trkpt><trkpt lat="46.082269294792475" lon="11.48817282141461"><ele>693.0</ele><time>2026-05-02T10:08:36.999Z</time></trkpt><trkpt lat="46.082240918261164" lon="11.487955364039589"><ele>693.0</ele><time>2026-05-02T10:08:37.999Z</time></trkpt><trkpt lat="46.08220850178782" lon="11.48777420603967"><ele>693.0</ele><time>2026-05-02T10:08:38.999Z</time></trkpt><trkpt lat="46.08216636945344" lon="11.48762874839903"><ele>693.0</ele><time>2026-05-02T10:08:39.999Z</time></trkpt><trkpt lat="46.082087531808035" lon="11.487511832767943"><ele>696.5999999999999</ele><time>2026-05-02T10:08:40.999Z</time></trkpt><trkpt lat="46.08198507548663" lon="11.487414946181724"><ele>700.1999999999999</ele><time>2026-05-02T10:08:41.999Z</time></trkpt><trkpt lat="46.08188338700186" lon="11.487342541002386"><ele>703.8</ele><time>2026-05-02T10:08:42.999Z</time></trkpt><trkpt lat="46.08179398926327" lon="11.487290828619773"><ele>707.4</ele><time>2026-05-02T10:08:43.999Z</time></trkpt><trkpt lat="46.08170460736934" lon="11.487304710165384"><ele>711.0</ele><time>2026-05-02T10:08:44.999Z</time></trkpt><trkpt lat="46.081613161731255" lon="11.487368091044546"><ele>706.0</ele><time>2026-05-02T10:08:45.999Z</time></trkpt><trkpt lat="46.0814974819379" lon="11.487443432784495"><ele>701.0</ele><time>2026-05-02T10:08:46.999Z</time></trkpt><trkpt lat="46.081370759860214" lon="11.487464324146028"><ele>696.0</ele><time>2026-05-02T10:08:47.999Z</time></trkpt><trkpt lat="46.08126068382729" lon="11.487483274584855"><ele>691.0</ele><time>2026-05-02T10:08:49Z</time></trkpt><trkpt lat="46.081167855124505" lon="11.487478445981477"><ele>691.0</ele><time>2026-05-02T10:08:50Z</time></trkpt><trkpt lat="46.08108330899834" lon="11.487471782141926"><ele>691.0</ele><time>2026-05-02T10:08:51Z</time></trkpt><trkpt lat="46.08101473209544" lon="11.487397674431731"><ele>691.0</ele><time>2026-05-02T10:08:52Z</time></trkpt><trkpt lat="46.0809787121744" lon="11.48727899474245"><ele>691.0</ele><time>2026-05-02T10:08:53Z</time></trkpt><trkpt lat="46.080915648534216" lon="11.48716227978057"><ele>691.0</ele><time>2026-05-02T10:08:54Z</time></trkpt><trkpt lat="46.08085908322056" lon="11.487022381087922"><ele>690.0</ele><time>2026-05-02T10:08:55Z</time></trkpt><trkpt lat="46.080802249559014" lon="11.486878296632735"><ele>689.0</ele><time>2026-05-02T10:08:56Z</time></trkpt><trkpt lat="46.08074948381561" lon="11.486749182262805"><ele>688.0</ele><time>2026-05-02T10:08:57Z</time></trkpt><trkpt lat="46.08068261183168" lon="11.486639684382496"><ele>687.0</ele><time>2026-05-02T10:08:58Z</time></trkpt><trkpt lat="46.08059984557407" lon="11.48655559155336"><ele>686.0</ele><time>2026-05-02T10:08:59Z</time></trkpt><trkpt lat="46.08051182675205" lon="11.486466734332419"><ele>686.0</ele><time>2026-05-02T10:09:00Z</time></trkpt><trkpt lat="46.080423711769015" lon="11.486402102124803"><ele>686.0</ele><time>2026-05-02T10:09:01Z</time></trkpt><trkpt lat="46.08032541827177" lon="11.486375668713327"><ele>686.0</ele><time>2026-05-02T10:09:02Z</time></trkpt><trkpt lat="46.08021085475745" lon="11.486367505201333"><ele>686.0</ele><time>2026-05-02T10:09:03Z</time></trkpt><trkpt lat="46.080089309181865" lon="11.486368257929861"><ele>686.0</ele><time>2026-05-02T10:09:04Z</time></trkpt><trkpt lat="46.07995615850487" lon="11.486381965476392"><ele>682.75</ele><time>2026-05-02T10:09:05Z</time></trkpt><trkpt lat="46.0798147138314" lon="11.486397308126715"><ele>679.5</ele><time>2026-05-02T10:09:06Z</time></trkpt><trkpt lat="46.07968005624138" lon="11.486389499278946"><ele>676.25</ele><time>2026-05-02T10:09:07Z</time></trkpt><trkpt lat="46.079546564789894" lon="11.486369214876415"><ele>673.0</ele><time>2026-05-02T10:09:08Z</time></trkpt><trkpt lat="46.079422024618886" lon="11.486309649956093"><ele>673.0</ele><time>2026-05-02T10:09:09Z</time></trkpt><trkpt lat="46.079296483807966" lon="11.486276395948495"><ele>673.0</ele><time>2026-05-02T10:09:10Z</time></trkpt><trkpt lat="46.07917058043087" lon="11.48623438100138"><ele>673.0</ele><time>2026-05-02T10:09:11Z</time></trkpt><trkpt lat="46.07903958186259" lon="11.4862223867879"><ele>673.0</ele><time>2026-05-02T10:09:12Z</time></trkpt><trkpt lat="46.07891452468928" lon="11.486174990960118"><ele>671.5</ele><time>2026-05-02T10:09:13Z</time></trkpt><trkpt lat="46.07880371346837" lon="11.486127406031159"><ele>670.0</ele><time>2026-05-02T10:09:14Z</time></trkpt><trkpt lat="46.07869879104339" lon="11.486066508588358"><ele>668.5</ele><time>2026-05-02T10:09:15Z</time></trkpt><trkpt lat="46.078596523353504" lon="11.485990005635022"><ele>667.0</ele><time>2026-05-02T10:09:16Z</time></trkpt><trkpt lat="46.078487897037284" lon="11.48589497241475"><ele>667.0</ele><time>2026-05-02T10:09:17Z</time></trkpt><trkpt lat="46.07837726736388" lon="11.48575736622831"><ele>667.0</ele><time>2026-05-02T10:09:18Z</time></trkpt><trkpt lat="46.078245655205656" lon="11.485641561539913"><ele>667.0</ele><time>2026-05-02T10:09:19Z</time></trkpt><trkpt lat="46.078101278212316" lon="11.485523494492629"><ele>664.0</ele><time>2026-05-02T10:09:20Z</time></trkpt><trkpt lat="46.077949702329164" lon="11.485400742412615"><ele>661.0</ele><time>2026-05-02T10:09:21Z</time></trkpt><trkpt lat="46.07779712861304" lon="11.485271317571033"><ele>658.0</ele><time>2026-05-02T10:09:22Z</time></trkpt><trkpt lat="46.0776526920672" lon="11.485148962890861"><ele>658.0</ele><time>2026-05-02T10:09:23Z</time></trkpt><trkpt lat="46.07750968414173" lon="11.485031139165189"><ele>658.0</ele><time>2026-05-02T10:09:24Z</time></trkpt><trkpt lat="46.077369366162934" lon="11.48493935607384"><ele>658.0</ele><time>2026-05-02T10:09:25Z</time></trkpt><trkpt lat="46.07725658196544" lon="11.48481593905505"><ele>657.25</ele><time>2026-05-02T10:09:26Z</time></trkpt><trkpt lat="46.07713378629019" lon="11.48475263029787"><ele>656.5</ele><time>2026-05-02T10:09:27Z</time></trkpt><trkpt lat="46.077023675273594" lon="11.484680297066529"><ele>655.75</ele><time>2026-05-02T10:09:28Z</time></trkpt><trkpt lat="46.07692537124011" lon="11.484576447476684"><ele>655.0</ele><time>2026-05-02T10:09:29Z</time></trkpt><trkpt lat="46.07682451616609" lon="11.48448840132092"><ele>655.0</ele><time>2026-05-02T10:09:30Z</time></trkpt><trkpt lat="46.07673051883416" lon="11.48439297530627"><ele>655.0</ele><time>2026-05-02T10:09:31Z</time></trkpt><trkpt lat="46.07663719145731" lon="11.484284900084706"><ele>655.0</ele><time>2026-05-02T10:09:32Z</time></trkpt><trkpt lat="46.076533122307886" lon="11.484171286202914"><ele>655.0</ele><time>2026-05-02T10:09:33Z</time></trkpt><trkpt lat="46.0764423024306" lon="11.484025862193633"><ele>651.25</ele><time>2026-05-02T10:09:34Z</time></trkpt><trkpt lat="46.07635873706201" lon="11.483858834405856"><ele>647.5</ele><time>2026-05-02T10:09:35Z</time></trkpt><trkpt lat="46.07625476072343" lon="11.48372735766758"><ele>643.75</ele><time>2026-05-02T10:09:36Z</time></trkpt><trkpt lat="46.07617978642874" lon="11.483568206145014"><ele>640.0</ele><time>2026-05-02T10:09:37Z</time></trkpt><trkpt lat="46.07609206738146" lon="11.48342822399672"><ele>640.0</ele><time>2026-05-02T10:09:38Z</time></trkpt><trkpt lat="46.076011231085644" lon="11.483275692343645"><ele>640.0</ele><time>2026-05-02T10:09:39Z</time></trkpt><trkpt lat="46.07593265622088" lon="11.483114265189338"><ele>640.0</ele><time>2026-05-02T10:09:40Z</time></trkpt><trkpt lat="46.075859987949116" lon="11.482941367205942"><ele>640.0</ele><time>2026-05-02T10:09:41Z</time></trkpt><trkpt lat="46.07578605998256" lon="11.48276228038249"><ele>635.3333333333334</ele><time>2026-05-02T10:09:42Z</time></trkpt><trkpt lat="46.07570836036385" lon="11.48257601011057"><ele>630.6666666666666</ele><time>2026-05-02T10:09:42.999Z</time></trkpt><trkpt lat="46.07562711231818" lon="11.482384852382715"><ele>626.0</ele><time>2026-05-02T10:09:43.999Z</time></trkpt><trkpt lat="46.07554886371947" lon="11.482192810461829"><ele>626.5</ele><time>2026-05-02T10:09:44.999Z</time></trkpt><trkpt lat="46.07547545039923" lon="11.482010088186728"><ele>627.0</ele><time>2026-05-02T10:09:45.999Z</time></trkpt><trkpt lat="46.075406468737626" lon="11.48183536773253"><ele>627.5</ele><time>2026-05-02T10:09:46.999Z</time></trkpt><trkpt lat="46.07533875419185" lon="11.481672341101472"><ele>628.0</ele><time>2026-05-02T10:09:47.999Z</time></trkpt><trkpt lat="46.07527648142328" lon="11.481516546081354"><ele>628.0</ele><time>2026-05-02T10:09:48.999Z</time></trkpt><trkpt lat="46.07522304370773" lon="11.481362801521648"><ele>628.0</ele><time>2026-05-02T10:09:49.999Z</time></trkpt><trkpt lat="46.07518259856437" lon="11.481195272123227"><ele>628.0</ele><time>2026-05-02T10:09:50.999Z</time></trkpt><trkpt lat="46.0751620331326" lon="11.48101765642158"><ele>628.0</ele><time>2026-05-02T10:09:51.999Z</time></trkpt><trkpt lat="46.07516021723985" lon="11.480830323914985"><ele>628.0</ele><time>2026-05-02T10:09:52.999Z</time></trkpt><trkpt lat="46.07516155812438" lon="11.480646391020635"><ele>628.0</ele><time>2026-05-02T10:09:53.999Z</time></trkpt><trkpt lat="46.07518329979867" lon="11.480473327447706"><ele>628.0</ele><time>2026-05-02T10:09:54.999Z</time></trkpt><trkpt lat="46.07520531509908" lon="11.480310267143583"><ele>628.0</ele><time>2026-05-02T10:09:55.999Z</time></trkpt><trkpt lat="46.07524538521501" lon="11.480169106673582"><ele>627.0</ele><time>2026-05-02T10:09:56.999Z</time></trkpt><trkpt lat="46.075312266312686" lon="11.480048631245017"><ele>626.0</ele><time>2026-05-02T10:09:57.999Z</time></trkpt><trkpt lat="46.075396119116924" lon="11.479924791169294"><ele>625.0</ele><time>2026-05-02T10:09:58.999Z</time></trkpt><trkpt lat="46.07545667792177" lon="11.4797899408947"><ele>624.0</ele><time>2026-05-02T10:09:59.999Z</time></trkpt><trkpt lat="46.07549065585764" lon="11.479636489909582"><ele>619.6666666666666</ele><time>2026-05-02T10:10:00.999Z</time></trkpt><trkpt lat="46.07550314116351" lon="11.479450297181353"><ele>615.3333333333333</ele><time>2026-05-02T10:10:01.999Z</time></trkpt><trkpt lat="46.07539907659664" lon="11.479224540641269"><ele>611.0</ele><time>2026-05-02T10:10:02.999Z</time></trkpt><trkpt lat="46.07556169423377" lon="11.479051314605778"><ele>611.0</ele><time>2026-05-02T10:10:03.999Z</time></trkpt><trkpt lat="46.07561622437222" lon="11.478858384870598"><ele>611.0</ele><time>2026-05-02T10:10:04.999Z</time></trkpt><trkpt lat="46.07565716588342" lon="11.478670477873017"><ele>611.0</ele><time>2026-05-02T10:10:05.999Z</time></trkpt><trkpt lat="46.07566805996556" lon="11.478477849787474"><ele>611.0</ele><time>2026-05-02T10:10:06.999Z</time></trkpt><trkpt lat="46.07566320786095" lon="11.478283414545665"><ele>608.6666666666666</ele><time>2026-05-02T10:10:07.999Z</time></trkpt><trkpt lat="46.075667103249366" lon="11.47808074489552"><ele>606.3333333333334</ele><time>2026-05-02T10:10:08.999Z</time></trkpt><trkpt lat="46.07571469565825" lon="11.477869964026427"><ele>604.0</ele><time>2026-05-02T10:10:09.999Z</time></trkpt><trkpt lat="46.075755662155736" lon="11.477646921129159"><ele>602.6666666666667</ele><time>2026-05-02T10:10:10.999Z</time></trkpt><trkpt lat="46.07575907770555" lon="11.47742701062158"><ele>601.3333333333334</ele><time>2026-05-02T10:10:11.999Z</time></trkpt><trkpt lat="46.07578490725182" lon="11.47720744150841"><ele>600.0</ele><time>2026-05-02T10:10:12.999Z</time></trkpt><trkpt lat="46.07583580330384" lon="11.477007143346025"><ele>607.5</ele><time>2026-05-02T10:10:13.999Z</time></trkpt><trkpt lat="46.07588503809627" lon="11.4768290782547"><ele>615.0</ele><time>2026-05-02T10:10:14.999Z</time></trkpt><trkpt lat="46.07590668565548" lon="11.476656984928415"><ele>622.5</ele><time>2026-05-02T10:10:15.999Z</time></trkpt><trkpt lat="46.0759023248173" lon="11.47648798716324"><ele>630.0</ele><time>2026-05-02T10:10:16.999Z</time></trkpt><trkpt lat="46.075888428114965" lon="11.476307178246117"><ele>629.75</ele><time>2026-05-02T10:10:17.999Z</time></trkpt><trkpt lat="46.07587261376519" lon="11.476117748239702"><ele>629.5</ele><time>2026-05-02T10:10:18.999Z</time></trkpt><trkpt lat="46.07584716961863" lon="11.475916998326612"><ele>629.25</ele><time>2026-05-02T10:10:19.999Z</time></trkpt><trkpt lat="46.07580377567948" lon="11.475715250611003"><ele>629.0</ele><time>2026-05-02T10:10:20.999Z</time></trkpt><trkpt lat="46.07574697737925" lon="11.475515492282028"><ele>623.0</ele><time>2026-05-02T10:10:21.999Z</time></trkpt><trkpt lat="46.07568752482471" lon="11.475331335810735"><ele>617.0</ele><time>2026-05-02T10:10:22.999Z</time></trkpt><trkpt lat="46.07563952624909" lon="11.475147996868456"><ele>611.0</ele><time>2026-05-02T10:10:23.999Z</time></trkpt><trkpt lat="46.07559198843834" lon="11.474970464841967"><ele>605.0</ele><time>2026-05-02T10:10:24.999Z</time></trkpt><trkpt lat="46.07552855956465" lon="11.474802169848788"><ele>605.0</ele><time>2026-05-02T10:10:25.999Z</time></trkpt><trkpt lat="46.075483066346564" lon="11.474633507109798"><ele>605.0</ele><time>2026-05-02T10:10:26.999Z</time></trkpt><trkpt lat="46.075444870187866" lon="11.474484635716452"><ele>605.0</ele><time>2026-05-02T10:10:27.999Z</time></trkpt><trkpt lat="46.075415014637244" lon="11.474326227594123"><ele>605.0</ele><time>2026-05-02T10:10:28.999Z</time></trkpt><trkpt lat="46.07540567148785" lon="11.474160605981318"><ele>604.6</ele><time>2026-05-02T10:10:29.999Z</time></trkpt><trkpt lat="46.075422258647215" lon="11.473996116461745"><ele>604.2</ele><time>2026-05-02T10:10:30.999Z</time></trkpt><trkpt lat="46.07545850725234" lon="11.473839708132829"><ele>603.8</ele><time>2026-05-02T10:10:31.999Z</time></trkpt><trkpt lat="46.07549773518841" lon="11.473712635463434"><ele>603.4</ele><time>2026-05-02T10:10:32.999Z</time></trkpt><trkpt lat="46.075532540654685" lon="11.473615809080385"><ele>603.0</ele><time>2026-05-02T10:10:33.999Z</time></trkpt><trkpt lat="46.0755673083175" lon="11.473519411325157"><ele>603.0</ele><time>2026-05-02T10:10:35.999Z</time></trkpt><trkpt lat="46.075578662937986" lon="11.473410048444022"><ele>603.0</ele><time>2026-05-02T10:10:57Z</time></trkpt><trkpt lat="46.075571851903284" lon="11.473306592132744"><ele>603.0</ele><time>2026-05-02T10:11:02Z</time></trkpt><trkpt lat="46.07552938683723" lon="11.473226792331142"><ele>603.0</ele><time>2026-05-02T10:11:06Z</time></trkpt><trkpt lat="46.075505362835564" lon="11.473136831200184"><ele>603.0</ele><time>2026-05-02T10:11:10Z</time></trkpt><trkpt lat="46.07529277644074" lon="11.473310521533646"><ele>603.0</ele><time>2026-05-02T10:11:13Z</time></trkpt><trkpt lat="46.07522281755643" lon="11.473397603266807"><ele>603.0</ele><time>2026-05-02T10:11:14Z</time></trkpt><trkpt lat="46.07516343708811" lon="11.473506337674928"><ele>603.0</ele><time>2026-05-02T10:11:15Z</time></trkpt><trkpt lat="46.07512085672353" lon="11.473624976140526"><ele>603.0</ele><time>2026-05-02T10:11:16Z</time></trkpt><trkpt lat="46.07508606931728" lon="11.473756919988206"><ele>603.0</ele><time>2026-05-02T10:11:17Z</time></trkpt><trkpt lat="46.075067162318035" lon="11.473899640425056"><ele>603.4</ele><time>2026-05-02T10:11:18Z</time></trkpt><trkpt lat="46.075058418677415" lon="11.474047542086534"><ele>603.8</ele><time>2026-05-02T10:11:19Z</time></trkpt><trkpt lat="46.07504978613288" lon="11.474202827594755"><ele>604.2</ele><time>2026-05-02T10:11:20Z</time></trkpt><trkpt lat="46.075040332737196" lon="11.474362721254252"><ele>604.6</ele><time>2026-05-02T10:11:21Z</time></trkpt><trkpt lat="46.07502848432361" lon="11.474527578049907"><ele>605.0</ele><time>2026-05-02T10:11:22Z</time></trkpt><trkpt lat="46.075014713398524" lon="11.474696076834876"><ele>605.0</ele><time>2026-05-02T10:11:23Z</time></trkpt><trkpt lat="46.07500184307856" lon="11.474870390830905"><ele>605.0</ele><time>2026-05-02T10:11:24Z</time></trkpt><trkpt lat="46.074987663601185" lon="11.475052427238234"><ele>605.0</ele><time>2026-05-02T10:11:25Z</time></trkpt><trkpt lat="46.07497385504658" lon="11.47524655304328"><ele>605.0</ele><time>2026-05-02T10:11:26Z</time></trkpt><trkpt lat="46.07495829803846" lon="11.475447279325161"><ele>605.5</ele><time>2026-05-02T10:11:27Z</time></trkpt><trkpt lat="46.07494245058557" lon="11.475655262662439"><ele>606.0</ele><time>2026-05-02T10:11:28Z</time></trkpt><trkpt lat="46.07492956418695" lon="11.475859669064794"><ele>606.5</ele><time>2026-05-02T10:11:29Z</time></trkpt><trkpt lat="46.07491668025715" lon="11.476060896134317"><ele>607.0</ele><time>2026-05-02T10:11:30Z</time></trkpt><trkpt lat="46.07490411972552" lon="11.476261436676108"><ele>603.0</ele><time>2026-05-02T10:11:31Z</time></trkpt><trkpt lat="46.07489039217097" lon="11.47645635790958"><ele>599.0</ele><time>2026-05-02T10:11:32Z</time></trkpt><trkpt lat="46.07487863372546" lon="11.476655351127974"><ele>595.0</ele><time>2026-05-02T10:11:33Z</time></trkpt><trkpt lat="46.07486333948226" lon="11.476856402804867"><ele>591.0</ele><time>2026-05-02T10:11:34Z</time></trkpt><trkpt lat="46.07484781959503" lon="11.477051929853346"><ele>589.25</ele><time>2026-05-02T10:11:35Z</time></trkpt><trkpt lat="46.07483483698429" lon="11.477245545149945"><ele>587.5</ele><time>2026-05-02T10:11:36Z</time></trkpt><trkpt lat="46.07481970106949" lon="11.477438113278868"><ele>585.75</ele><time>2026-05-02T10:11:37Z</time></trkpt><trkpt lat="46.074806720264085" lon="11.47763575342565"><ele>584.0</ele><time>2026-05-02T10:11:38Z</time></trkpt><trkpt lat="46.07479433203501" lon="11.47783817355854"><ele>583.5</ele><time>2026-05-02T10:11:39Z</time></trkpt><trkpt lat="46.07477808538693" lon="11.478043504605104"><ele>583.0</ele><time>2026-05-02T10:11:40Z</time></trkpt><trkpt lat="46.074761540143925" lon="11.47825526455141"><ele>582.5</ele><time>2026-05-02T10:11:41Z</time></trkpt><trkpt lat="46.074739862794246" lon="11.478462454681415"><ele>582.0</ele><time>2026-05-02T10:11:42Z</time></trkpt><trkpt lat="46.074702085061794" lon="11.478664734603058"><ele>582.0</ele><time>2026-05-02T10:11:43Z</time></trkpt><trkpt lat="46.07465278155268" lon="11.478865495689947"><ele>582.0</ele><time>2026-05-02T10:11:44Z</time></trkpt><trkpt lat="46.07459654517334" lon="11.479061507155507"><ele>582.0</ele><time>2026-05-02T10:11:45Z</time></trkpt><trkpt lat="46.07452812493758" lon="11.479250224121914"><ele>582.0</ele><time>2026-05-02T10:11:46Z</time></trkpt><trkpt lat="46.07445638139172" lon="11.479438536861474"><ele>583.5</ele><time>2026-05-02T10:11:47Z</time></trkpt><trkpt lat="46.07438670211489" lon="11.479629497470892"><ele>585.0</ele><time>2026-05-02T10:11:48Z</time></trkpt><trkpt lat="46.07431984389452" lon="11.479822265294342"><ele>586.5</ele><time>2026-05-02T10:11:49Z</time></trkpt><trkpt lat="46.074253282964186" lon="11.480015850220909"><ele>588.0</ele><time>2026-05-02T10:11:50Z</time></trkpt><trkpt lat="46.07418136996722" lon="11.48021047196414"><ele>582.0</ele><time>2026-05-02T10:11:51Z</time></trkpt><trkpt lat="46.07410343207984" lon="11.480402017262554"><ele>576.0</ele><time>2026-05-02T10:11:52Z</time></trkpt><trkpt lat="46.074026030650295" lon="11.480603147564693"><ele>570.0</ele><time>2026-05-02T10:11:53Z</time></trkpt><trkpt lat="46.073949303495496" lon="11.480795554812959"><ele>570.0</ele><time>2026-05-02T10:11:54Z</time></trkpt><trkpt lat="46.07386637834256" lon="11.480980343841114"><ele>570.0</ele><time>2026-05-02T10:11:55Z</time></trkpt><trkpt lat="46.073772537443105" lon="11.481158448040526"><ele>570.0</ele><time>2026-05-02T10:11:56Z</time></trkpt><trkpt lat="46.07366666352935" lon="11.481322282377532"><ele>574.6666666666666</ele><time>2026-05-02T10:11:57Z</time></trkpt><trkpt lat="46.07354875862578" lon="11.481468222002723"><ele>579.3333333333333</ele><time>2026-05-02T10:11:58Z</time></trkpt><trkpt lat="46.07342625051525" lon="11.481616760428457"><ele>584.0</ele><time>2026-05-02T10:11:59Z</time></trkpt><trkpt lat="46.073300770791306" lon="11.481774755894875"><ele>579.3333333333333</ele><time>2026-05-02T10:11:59.999Z</time></trkpt><trkpt lat="46.07317807765531" lon="11.481928844344033"><ele>574.6666666666666</ele><time>2026-05-02T10:12:00.999Z</time></trkpt><trkpt lat="46.073060126552036" lon="11.482080426538108"><ele>570.0</ele><time>2026-05-02T10:12:01.999Z</time></trkpt><trkpt lat="46.072951005057064" lon="11.482222822474442"><ele>570.0</ele><time>2026-05-02T10:12:02.999Z</time></trkpt><trkpt lat="46.07285310714647" lon="11.482353860873"><ele>570.0</ele><time>2026-05-02T10:12:03.999Z</time></trkpt><trkpt lat="46.07276709335317" lon="11.48248080790515"><ele>570.0</ele><time>2026-05-02T10:12:04.999Z</time></trkpt><trkpt lat="46.072699138448996" lon="11.482630698279632"><ele>570.0</ele><time>2026-05-02T10:12:05.999Z</time></trkpt><trkpt lat="46.07265162470478" lon="11.482796733416587"><ele>570.25</ele><time>2026-05-02T10:12:06.999Z</time></trkpt><trkpt lat="46.07262697404531" lon="11.482970669496233"><ele>570.5</ele><time>2026-05-02T10:12:07.999Z</time></trkpt><trkpt lat="46.072614991621016" lon="11.48315367634178"><ele>570.75</ele><time>2026-05-02T10:12:08.999Z</time></trkpt><trkpt lat="46.072629352711736" lon="11.483348792703202"><ele>571.0</ele><time>2026-05-02T10:12:09.999Z</time></trkpt><trkpt lat="46.07266400913319" lon="11.483569830678586"><ele>568.0</ele><time>2026-05-02T10:12:10.999Z</time></trkpt><trkpt lat="46.07270446018162" lon="11.483807030237484"><ele>565.0</ele><time>2026-05-02T10:12:11.999Z</time></trkpt><trkpt lat="46.07274327923359" lon="11.484058105099523"><ele>562.0</ele><time>2026-05-02T10:12:12.999Z</time></trkpt><trkpt lat="46.07278463801571" lon="11.484324737169434"><ele>559.0</ele><time>2026-05-02T10:12:13.999Z</time></trkpt><trkpt lat="46.072828531355945" lon="11.484604280089656"><ele>556.0</ele><time>2026-05-02T10:12:14.999Z</time></trkpt><trkpt lat="46.072871047139344" lon="11.484884687345817"><ele>553.0</ele><time>2026-05-02T10:12:15.999Z</time></trkpt><trkpt lat="46.07291055099965" lon="11.485153691653634"><ele>553.0</ele><time>2026-05-02T10:12:16.999Z</time></trkpt><trkpt lat="46.072948970491595" lon="11.485397756455887"><ele>553.0</ele><time>2026-05-02T10:12:17.999Z</time></trkpt><trkpt lat="46.07298361900068" lon="11.485612299136564"><ele>553.0</ele><time>2026-05-02T10:12:18.999Z</time></trkpt><trkpt lat="46.073015004907035" lon="11.485805489742518"><ele>551.4</ele><time>2026-05-02T10:12:19.999Z</time></trkpt><trkpt lat="46.073042933719385" lon="11.485983542016507"><ele>549.8</ele><time>2026-05-02T10:12:20.999Z</time></trkpt><trkpt lat="46.07306790436714" lon="11.486141966830969"><ele>548.2</ele><time>2026-05-02T10:12:21.999Z</time></trkpt><trkpt lat="46.07307497293274" lon="11.486266953318683"><ele>546.6</ele><time>2026-05-02T10:12:22.999Z</time></trkpt><trkpt lat="46.07305111150012" lon="11.486377365555406"><ele>545.0</ele><time>2026-05-02T10:12:23.999Z</time></trkpt><trkpt lat="46.07298438820546" lon="11.486455066739678"><ele>545.0</ele><time>2026-05-02T10:12:24.999Z</time></trkpt><trkpt lat="46.072898180734846" lon="11.48647147883799"><ele>545.0</ele><time>2026-05-02T10:12:25.999Z</time></trkpt><trkpt lat="46.072814667256544" lon="11.486429236934669"><ele>545.0</ele><time>2026-05-02T10:12:26.999Z</time></trkpt><trkpt lat="46.07273443098434" lon="11.486339999198211"><ele>545.0</ele><time>2026-05-02T10:12:27.999Z</time></trkpt><trkpt lat="46.07263656350285" lon="11.486226534587287"><ele>545.0</ele><time>2026-05-02T10:12:28.999Z</time></trkpt><trkpt lat="46.07251769875007" lon="11.486098520244157"><ele>539.0</ele><time>2026-05-02T10:12:29.999Z</time></trkpt><trkpt lat="46.072385214338794" lon="11.485959656780725"><ele>533.0</ele><time>2026-05-02T10:12:30.999Z</time></trkpt><trkpt lat="46.07224420542654" lon="11.485818432768149"><ele>527.0</ele><time>2026-05-02T10:12:31.999Z</time></trkpt><trkpt lat="46.072099537793044" lon="11.485668047473574"><ele>527.0</ele><time>2026-05-02T10:12:32.999Z</time></trkpt><trkpt lat="46.0719541203208" lon="11.485508365512315"><ele>527.0</ele><time>2026-05-02T10:12:33.999Z</time></trkpt><trkpt lat="46.0718084052936" lon="11.485339900231038"><ele>527.0</ele><time>2026-05-02T10:12:34.999Z</time></trkpt><trkpt lat="46.07167994033959" lon="11.485151588488092"><ele>525.0</ele><time>2026-05-02T10:12:35.999Z</time></trkpt><trkpt lat="46.07156551402576" lon="11.484958965224752"><ele>523.0</ele><time>2026-05-02T10:12:36.999Z</time></trkpt><trkpt lat="46.071446944427386" lon="11.48477021316831"><ele>521.0</ele><time>2026-05-02T10:12:37.999Z</time></trkpt><trkpt lat="46.07132916421401" lon="11.484582363685567"><ele>521.0</ele><time>2026-05-02T10:12:38.999Z</time></trkpt><trkpt lat="46.07121451757724" lon="11.484397335143044"><ele>521.0</ele><time>2026-05-02T10:12:39.999Z</time></trkpt><trkpt lat="46.071104427054706" lon="11.484216657233238"><ele>521.0</ele><time>2026-05-02T10:12:40.999Z</time></trkpt><trkpt lat="46.07099393407804" lon="11.484040774695416"><ele>521.0</ele><time>2026-05-02T10:12:41.999Z</time></trkpt><trkpt lat="46.07088680186683" lon="11.483867486357761"><ele>521.0</ele><time>2026-05-02T10:12:42.999Z</time></trkpt><trkpt lat="46.07078129057895" lon="11.483696924631708"><ele>521.0</ele><time>2026-05-02T10:12:43.999Z</time></trkpt><trkpt lat="46.07068045604659" lon="11.483532772961397"><ele>519.5</ele><time>2026-05-02T10:12:44.999Z</time></trkpt><trkpt lat="46.07058662526014" lon="11.48338568604126"><ele>518.0</ele><time>2026-05-02T10:12:45.999Z</time></trkpt><trkpt lat="46.07049270402891" lon="11.48325102002733"><ele>516.5</ele><time>2026-05-02T10:12:46.999Z</time></trkpt><trkpt lat="46.070406263224896" lon="11.48311223560294"><ele>515.0</ele><time>2026-05-02T10:12:47.999Z</time></trkpt><trkpt lat="46.07027152386841" lon="11.483048433572948"><ele>515.0</ele><time>2026-05-02T10:12:48.999Z</time></trkpt><trkpt lat="46.07013597190084" lon="11.482980987940934"><ele>515.0</ele><time>2026-05-02T10:12:49.999Z</time></trkpt><trkpt lat="46.06999832095265" lon="11.482911048399414"><ele>515.0</ele><time>2026-05-02T10:12:50.999Z</time></trkpt><trkpt lat="46.0698655875472" lon="11.48284308429337"><ele>515.0</ele><time>2026-05-02T10:12:51.999Z</time></trkpt><trkpt lat="46.06973110820919" lon="11.482771908399831"><ele>514.3333333333333</ele><time>2026-05-02T10:12:52.999Z</time></trkpt><trkpt lat="46.06958978518849" lon="11.482694613318627"><ele>513.6666666666666</ele><time>2026-05-02T10:12:53.999Z</time></trkpt><trkpt lat="46.06944604842289" lon="11.482618029931915"><ele>513.0</ele><time>2026-05-02T10:12:54.999Z</time></trkpt><trkpt lat="46.0693084645693" lon="11.482545156707541"><ele>513.0</ele><time>2026-05-02T10:12:55.999Z</time></trkpt><trkpt lat="46.069166571507566" lon="11.482469684044597"><ele>513.0</ele><time>2026-05-02T10:12:56.999Z</time></trkpt><trkpt lat="46.06902171378776" lon="11.482393801752746"><ele>513.0</ele><time>2026-05-02T10:12:57.999Z</time></trkpt><trkpt lat="46.06888121952537" lon="11.482316347223792"><ele>511.0</ele><time>2026-05-02T10:12:58.999Z</time></trkpt><trkpt lat="46.068745195732276" lon="11.482243650279743"><ele>509.0</ele><time>2026-05-02T10:12:59.999Z</time></trkpt><trkpt lat="46.068612102419216" lon="11.482176947267314"><ele>507.0</ele><time>2026-05-02T10:13:01Z</time></trkpt><trkpt lat="46.06848825686104" lon="11.482112387076588"><ele>505.0</ele><time>2026-05-02T10:13:02Z</time></trkpt><trkpt lat="46.06837575856869" lon="11.48205724148811"><ele>503.2</ele><time>2026-05-02T10:13:03Z</time></trkpt><trkpt lat="46.06826863073693" lon="11.482009255515072"><ele>501.4</ele><time>2026-05-02T10:13:04Z</time></trkpt><trkpt lat="46.06816486383049" lon="11.481964731962933"><ele>499.6</ele><time>2026-05-02T10:13:05Z</time></trkpt><trkpt lat="46.068065378336875" lon="11.481920295906308"><ele>497.8</ele><time>2026-05-02T10:13:06Z</time></trkpt><trkpt lat="46.06797210639586" lon="11.481868725535152"><ele>496.0</ele><time>2026-05-02T10:13:07Z</time></trkpt><trkpt lat="46.06789495926488" lon="11.481800331015465"><ele>496.0</ele><time>2026-05-02T10:13:08Z</time></trkpt><trkpt lat="46.0678110525043" lon="11.48171683246183"><ele>496.0</ele><time>2026-05-02T10:13:10Z</time></trkpt><trkpt lat="46.0677212038103" lon="11.481775507752024"><ele>496.0</ele><time>2026-05-02T10:13:12Z</time></trkpt><trkpt lat="46.06766805572149" lon="11.48186207923871"><ele>496.0</ele><time>2026-05-02T10:13:13Z</time></trkpt><trkpt lat="46.06759149712362" lon="11.481945765173622"><ele>496.0</ele><time>2026-05-02T10:13:14Z</time></trkpt><trkpt lat="46.067476975784885" lon="11.482029237564504"><ele>493.75</ele><time>2026-05-02T10:13:15Z</time></trkpt><trkpt lat="46.067351656613745" lon="11.482125075849606"><ele>491.5</ele><time>2026-05-02T10:13:16Z</time></trkpt><trkpt lat="46.067224319939044" lon="11.482239760034771"><ele>489.25</ele><time>2026-05-02T10:13:17Z</time></trkpt><trkpt lat="46.06710282180748" lon="11.482352652040847"><ele>487.0</ele><time>2026-05-02T10:13:18Z</time></trkpt><trkpt lat="46.06698192573632" lon="11.482464616612333"><ele>487.0</ele><time>2026-05-02T10:13:19Z</time></trkpt><trkpt lat="46.066862447881846" lon="11.482578788149846"><ele>487.0</ele><time>2026-05-02T10:13:20Z</time></trkpt><trkpt lat="46.06674334526073" lon="11.482690609331222"><ele>487.0</ele><time>2026-05-02T10:13:21Z</time></trkpt><trkpt lat="46.06662303785199" lon="11.482796180343756"><ele>487.0</ele><time>2026-05-02T10:13:22Z</time></trkpt><trkpt lat="46.066504420523124" lon="11.482904553269961"><ele>484.5</ele><time>2026-05-02T10:13:23Z</time></trkpt><trkpt lat="46.06638732080343" lon="11.48301667680104"><ele>482.0</ele><time>2026-05-02T10:13:24Z</time></trkpt><trkpt lat="46.06627191943408" lon="11.483131290014686"><ele>479.5</ele><time>2026-05-02T10:13:25Z</time></trkpt><trkpt lat="46.0661605804424" lon="11.483246363521006"><ele>477.0</ele><time>2026-05-02T10:13:26Z</time></trkpt><trkpt lat="46.06605118333886" lon="11.483364852276491"><ele>477.0</ele><time>2026-05-02T10:13:27Z</time></trkpt><trkpt lat="46.06594356437946" lon="11.483484580296842"><ele>477.0</ele><time>2026-05-02T10:13:28Z</time></trkpt><trkpt lat="46.065834745186436" lon="11.483599886379727"><ele>477.0</ele><time>2026-05-02T10:13:29Z</time></trkpt><trkpt lat="46.06572949137457" lon="11.48371168824047"><ele>477.0</ele><time>2026-05-02T10:13:30Z</time></trkpt><trkpt lat="46.065629678555446" lon="11.483818117908248"><ele>474.75</ele><time>2026-05-02T10:13:31Z</time></trkpt><trkpt lat="46.065535469021086" lon="11.48391548869445"><ele>472.5</ele><time>2026-05-02T10:13:32Z</time></trkpt><trkpt lat="46.06539696812262" lon="11.484046459637577"><ele>470.25</ele><time>2026-05-02T10:13:33Z</time></trkpt><trkpt lat="46.06530932698174" lon="11.484146304531587"><ele>468.0</ele><time>2026-05-02T10:13:34Z</time></trkpt><trkpt lat="46.06521997909326" lon="11.48424587935067"><ele>468.0</ele><time>2026-05-02T10:13:35Z</time></trkpt><trkpt lat="46.0651232356734" lon="11.484354107519012"><ele>468.0</ele><time>2026-05-02T10:13:36Z</time></trkpt><trkpt lat="46.065014666657376" lon="11.484473481270552"><ele>468.0</ele><time>2026-05-02T10:13:37Z</time></trkpt><trkpt lat="46.06489980373606" lon="11.484598199622333"><ele>468.0</ele><time>2026-05-02T10:13:38Z</time></trkpt><trkpt lat="46.064780145894765" lon="11.484726563353963"><ele>463.66666666666663</ele><time>2026-05-02T10:13:39Z</time></trkpt><trkpt lat="46.064666698795484" lon="11.484851789976494"><ele>459.3333333333333</ele><time>2026-05-02T10:13:40Z</time></trkpt><trkpt lat="46.06454737999649" lon="11.484985053783522"><ele>455.0</ele><time>2026-05-02T10:13:41Z</time></trkpt><trkpt lat="46.06441887952279" lon="11.485126203062103"><ele>455.0</ele><time>2026-05-02T10:13:42Z</time></trkpt><trkpt lat="46.064284234851534" lon="11.48527557507294"><ele>455.0</ele><time>2026-05-02T10:13:43Z</time></trkpt><trkpt lat="46.06414690692122" lon="11.485431375022383"><ele>455.0</ele><time>2026-05-02T10:13:44Z</time></trkpt><trkpt lat="46.064020741779956" lon="11.485614511286633"><ele>451.0</ele><time>2026-05-02T10:13:45Z</time></trkpt><trkpt lat="46.06389822434504" lon="11.485835483279157"><ele>447.0</ele><time>2026-05-02T10:13:46Z</time></trkpt><trkpt lat="46.06377142166598" lon="11.486074120590185"><ele>443.0</ele><time>2026-05-02T10:13:47Z</time></trkpt><trkpt lat="46.06363867325194" lon="11.486330356928752"><ele>442.3333333333333</ele><time>2026-05-02T10:13:48Z</time></trkpt><trkpt lat="46.063508724568365" lon="11.486591470380278"><ele>441.66666666666663</ele><time>2026-05-02T10:13:49Z</time></trkpt><trkpt lat="46.06337734282979" lon="11.48684240536471"><ele>441.0</ele><time>2026-05-02T10:13:50Z</time></trkpt><trkpt lat="46.06325002758049" lon="11.487087974559211"><ele>437.33333333333337</ele><time>2026-05-02T10:13:51Z</time></trkpt><trkpt lat="46.06312688389791" lon="11.487343534006209"><ele>433.6666666666667</ele><time>2026-05-02T10:13:52Z</time></trkpt><trkpt lat="46.06300000481434" lon="11.48759355690132"><ele>430.0</ele><time>2026-05-02T10:13:53Z</time></trkpt><trkpt lat="46.062866543430346" lon="11.487837979593307"><ele>430.0</ele><time>2026-05-02T10:13:54Z</time></trkpt><trkpt lat="46.06274194437053" lon="11.488083338634574"><ele>430.0</ele><time>2026-05-02T10:13:55Z</time></trkpt><trkpt lat="46.0626156026717" lon="11.488334608586838"><ele>430.0</ele><time>2026-05-02T10:13:56Z</time></trkpt><trkpt lat="46.062488737495286" lon="11.488581009452156"><ele>427.33333333333337</ele><time>2026-05-02T10:13:57Z</time></trkpt><trkpt lat="46.062359268667684" lon="11.488824035859315"><ele>424.66666666666663</ele><time>2026-05-02T10:13:58Z</time></trkpt><trkpt lat="46.06223736586718" lon="11.48906341713713"><ele>422.0</ele><time>2026-05-02T10:13:59Z</time></trkpt><trkpt lat="46.06212126439211" lon="11.489294241782542"><ele>422.0</ele><time>2026-05-02T10:14:00Z</time></trkpt><trkpt lat="46.062012317782234" lon="11.489507916275324"><ele>422.0</ele><time>2026-05-02T10:14:01Z</time></trkpt><trkpt lat="46.06191145355101" lon="11.489678463988986"><ele>422.0</ele><time>2026-05-02T10:14:02Z</time></trkpt><trkpt lat="46.06180111104376" lon="11.489833099827697"><ele>421.0</ele><time>2026-05-02T10:14:03Z</time></trkpt><trkpt lat="46.061668887427615" lon="11.489958183219368"><ele>420.0</ele><time>2026-05-02T10:14:04Z</time></trkpt><trkpt lat="46.06152402601852" lon="11.49006582435842"><ele>419.0</ele><time>2026-05-02T10:14:05Z</time></trkpt><trkpt lat="46.06135859627536" lon="11.49012199499604"><ele>416.0</ele><time>2026-05-02T10:14:05.999Z</time></trkpt><trkpt lat="46.06118111136211" lon="11.490167014005257"><ele>413.0</ele><time>2026-05-02T10:14:06.999Z</time></trkpt><trkpt lat="46.06100388440499" lon="11.490197781172302"><ele>410.0</ele><time>2026-05-02T10:14:07.999Z</time></trkpt><trkpt lat="46.060848450719234" lon="11.490243526747504"><ele>408.75</ele><time>2026-05-02T10:14:08.999Z</time></trkpt><trkpt lat="46.06070199224186" lon="11.490264921450827"><ele>407.5</ele><time>2026-05-02T10:14:09.999Z</time></trkpt><trkpt lat="46.060567911556724" lon="11.490295509636669"><ele>406.25</ele><time>2026-05-02T10:14:10.999Z</time></trkpt><trkpt lat="46.06045602634522" lon="11.490318258941473"><ele>405.0</ele><time>2026-05-02T10:14:11.999Z</time></trkpt><trkpt lat="46.06037277492992" lon="11.490325774728545"><ele>405.0</ele><time>2026-05-02T10:14:12.999Z</time></trkpt><trkpt lat="46.06027141171541" lon="11.490329085538157"><ele>405.0</ele><time>2026-05-02T10:14:14.999Z</time></trkpt><trkpt lat="46.060293271550975" lon="11.490526248671756"><ele>405.0</ele><time>2026-05-02T10:14:17.999Z</time></trkpt><trkpt lat="46.060348520138014" lon="11.49057993837744"><ele>405.0</ele><time>2026-05-02T10:14:18.999Z</time></trkpt><trkpt lat="46.06042703797665" lon="11.49067779542056"><ele>405.0</ele><time>2026-05-02T10:14:19.999Z</time></trkpt><trkpt lat="46.06052597629507" lon="11.490796414202585"><ele>405.0</ele><time>2026-05-02T10:14:20.999Z</time></trkpt><trkpt lat="46.060629664019594" lon="11.490937640189859"><ele>405.0</ele><time>2026-05-02T10:14:21.999Z</time></trkpt><trkpt lat="46.06074005284556" lon="11.491090917285272"><ele>405.0</ele><time>2026-05-02T10:14:22.999Z</time></trkpt><trkpt lat="46.06082865110011" lon="11.491212055003755"><ele>405.0</ele><time>2026-05-02T10:14:23.999Z</time></trkpt><trkpt lat="46.06088713547139" lon="11.49129591824959"><ele>405.6666666666667</ele><time>2026-05-02T10:14:24.999Z</time></trkpt><trkpt lat="46.06093136559771" lon="11.491362245568308"><ele>406.33333333333337</ele><time>2026-05-02T10:14:25.999Z</time></trkpt><trkpt lat="46.06100484670681" lon="11.491465723306975"><ele>407.0</ele><time>2026-05-02T10:14:27.999Z</time></trkpt><trkpt lat="46.06105992196953" lon="11.491520163495945"><ele>407.6666666666667</ele><time>2026-05-02T10:14:29.999Z</time></trkpt><trkpt lat="46.06098994598215" lon="11.49162475239962"><ele>408.33333333333337</ele><time>2026-05-02T10:14:33.999Z</time></trkpt><trkpt lat="46.06091915854508" lon="11.491736082544744"><ele>409.0</ele><time>2026-05-02T10:14:35.999Z</time></trkpt><trkpt lat="46.0608958696651" lon="11.491825032354043"><ele>409.00000000000006</ele><time>2026-05-02T10:14:36.999Z</time></trkpt><trkpt lat="46.060897298999976" lon="11.491918684939941"><ele>409.0</ele><time>2026-05-02T10:14:37.999Z</time></trkpt><trkpt lat="46.06086113475856" lon="11.492094250269318"><ele>409.0</ele><time>2026-05-02T10:14:39.999Z</time></trkpt><trkpt lat="46.060844348723045" lon="11.492207561312801"><ele>409.0</ele><time>2026-05-02T10:14:40.999Z</time></trkpt><trkpt lat="46.06081992725389" lon="11.492318827994511"><ele>409.00000000000006</ele><time>2026-05-02T10:14:41.999Z</time></trkpt><trkpt lat="46.060792686733556" lon="11.492418029705663"><ele>409.0</ele><time>2026-05-02T10:14:42.999Z</time></trkpt><trkpt lat="46.06076338786218" lon="11.492522600809282"><ele>407.6666666666667</ele><time>2026-05-02T10:14:43.999Z</time></trkpt><trkpt lat="46.06073108425345" lon="11.492634111280942"><ele>406.33333333333337</ele><time>2026-05-02T10:14:44.999Z</time></trkpt><trkpt lat="46.06069479730069" lon="11.492741263953068"><ele>405.0</ele><time>2026-05-02T10:14:45.999Z</time></trkpt><trkpt lat="46.0606549209258" lon="11.492848284228923"><ele>403.66666666666663</ele><time>2026-05-02T10:14:46.999Z</time></trkpt><trkpt lat="46.06060759474726" lon="11.492960160912718"><ele>402.3333333333333</ele><time>2026-05-02T10:14:47.999Z</time></trkpt><trkpt lat="46.06056010805241" lon="11.493064423209182"><ele>401.0</ele><time>2026-05-02T10:14:48.999Z</time></trkpt><trkpt lat="46.06051394820132" lon="11.493164680178309"><ele>400.49999999999994</ele><time>2026-05-02T10:14:49.999Z</time></trkpt><trkpt lat="46.06046878038752" lon="11.49325866195511"><ele>400.0</ele><time>2026-05-02T10:14:50.999Z</time></trkpt><trkpt lat="46.06039863993143" lon="11.493314441314686"><ele>399.5</ele><time>2026-05-02T10:14:51.999Z</time></trkpt><trkpt lat="46.06032598693308" lon="11.493367802804308"><ele>399.0</ele><time>2026-05-02T10:14:52.999Z</time></trkpt><trkpt lat="46.060258927865014" lon="11.493429423564223"><ele>398.49999999999994</ele><time>2026-05-02T10:14:53.999Z</time></trkpt><trkpt lat="46.06019954755443" lon="11.493503174389176"><ele>398.0</ele><time>2026-05-02T10:14:54.999Z</time></trkpt><trkpt lat="46.060148882231225" lon="11.49358694270031"><ele>397.99999999999994</ele><time>2026-05-02T10:14:55.999Z</time></trkpt><trkpt lat="46.06009887682396" lon="11.493691536157177"><ele>398.0</ele><time>2026-05-02T10:14:56.999Z</time></trkpt><trkpt lat="46.06004048510293" lon="11.49379817792511"><ele>398.0</ele><time>2026-05-02T10:14:57.999Z</time></trkpt><trkpt lat="46.05998791663469" lon="11.493902720377385"><ele>398.0</ele><time>2026-05-02T10:14:58.999Z</time></trkpt><trkpt lat="46.05993359406355" lon="11.493991009855462"><ele>397.99999999999994</ele><time>2026-05-02T10:14:59.999Z</time></trkpt><trkpt lat="46.0598780000028" lon="11.494081660985398"><ele>398.0</ele><time>2026-05-02T10:15:00.999Z</time></trkpt><trkpt lat="46.059823863591056" lon="11.494174598206833"><ele>396.49999999999994</ele><time>2026-05-02T10:15:01.999Z</time></trkpt><trkpt lat="46.05977754526878" lon="11.494272621470694"><ele>395.0</ele><time>2026-05-02T10:15:02.999Z</time></trkpt><trkpt lat="46.05974702801453" lon="11.49438266281842"><ele>393.5</ele><time>2026-05-02T10:15:03.999Z</time></trkpt><trkpt lat="46.0597204736413" lon="11.49448960189293"><ele>392.0</ele><time>2026-05-02T10:15:04.999Z</time></trkpt><trkpt lat="46.05969738361934" lon="11.494593994338214"><ele>390.49999999999994</ele><time>2026-05-02T10:15:05.999Z</time></trkpt><trkpt lat="46.05967811892547" lon="11.494699225482936"><ele>389.0</ele><time>2026-05-02T10:15:07Z</time></trkpt><trkpt lat="46.05965365215677" lon="11.494793892925808"><ele>387.99999999999994</ele><time>2026-05-02T10:15:08Z</time></trkpt><trkpt lat="46.0596227234199" lon="11.494873494610895"><ele>387.0</ele><time>2026-05-02T10:15:09Z</time></trkpt><trkpt lat="46.05954685919463" lon="11.4949940515803"><ele>386.0</ele><time>2026-05-02T10:15:11Z</time></trkpt><trkpt lat="46.05947625285507" lon="11.49505918298826"><ele>385.0</ele><time>2026-05-02T10:15:13Z</time></trkpt><trkpt lat="46.059414867517255" lon="11.495116591484262"><ele>384.0</ele><time>2026-05-02T10:15:16Z</time></trkpt><trkpt lat="46.059354086883566" lon="11.495159387475862"><ele>383.0</ele><time>2026-05-02T10:15:21Z</time></trkpt><trkpt lat="46.059308113875105" lon="11.495226149919562"><ele>383.0</ele><time>2026-05-02T10:15:27Z</time></trkpt><trkpt lat="46.0594048518876" lon="11.495262697413596"><ele>383.0</ele><time>2026-05-02T10:15:30Z</time></trkpt><trkpt lat="46.059523705470845" lon="11.495237579462891"><ele>383.0</ele><time>2026-05-02T10:15:32Z</time></trkpt><trkpt lat="46.05963671594527" lon="11.49521227097394"><ele>383.0</ele><time>2026-05-02T10:15:34Z</time></trkpt><trkpt lat="46.05976605272129" lon="11.495199743016716"><ele>383.0</ele><time>2026-05-02T10:15:36Z</time></trkpt><trkpt lat="46.05984639695934" lon="11.495205818208687"><ele>383.0</ele><time>2026-05-02T10:15:38Z</time></trkpt><trkpt lat="46.059920234365244" lon="11.495234266321368"><ele>383.0</ele><time>2026-05-02T10:15:41Z</time></trkpt><trkpt lat="46.059879941325015" lon="11.495344400643749"><ele>383.0</ele><time>2026-05-02T10:15:44Z</time></trkpt><trkpt lat="46.05974421913133" lon="11.495292612352154"><ele>383.0</ele><time>2026-05-02T10:15:46Z</time></trkpt><trkpt lat="46.059667598670025" lon="11.495305245848025"><ele>383.0</ele><time>2026-05-02T10:15:47Z</time></trkpt><trkpt lat="46.05961703977548" lon="11.495381072564305"><ele>383.0</ele><time>2026-05-02T10:15:48Z</time></trkpt><trkpt lat="46.05953390502585" lon="11.49551044827545"><ele>383.0</ele><time>2026-05-02T10:15:50Z</time></trkpt><trkpt lat="46.05954525717886" lon="11.495603394756463"><ele>383.0</ele><time>2026-05-02T10:15:51Z</time></trkpt><trkpt lat="46.059646147100054" lon="11.495728687577374"><ele>383.0</ele><time>2026-05-02T10:15:53Z</time></trkpt><trkpt lat="46.059710429644305" lon="11.495791485682297"><ele>381.79999999999995</ele><time>2026-05-02T10:15:54Z</time></trkpt><trkpt lat="46.059780294573414" lon="11.495870194572495"><ele>380.6</ele><time>2026-05-02T10:15:55Z</time></trkpt><trkpt lat="46.059853096181364" lon="11.49595685889017"><ele>379.4</ele><time>2026-05-02T10:15:56Z</time></trkpt><trkpt lat="46.05992985425174" lon="11.496049240057639"><ele>378.20000000000005</ele><time>2026-05-02T10:15:57Z</time></trkpt><trkpt lat="46.060004974071525" lon="11.496147426483413"><ele>377.0</ele><time>2026-05-02T10:15:58Z</time></trkpt><trkpt lat="46.06006527835552" lon="11.496235780765419"><ele>376.6666666666667</ele><time>2026-05-02T10:15:59Z</time></trkpt><trkpt lat="46.06012154512726" lon="11.496310983443463"><ele>376.33333333333337</ele><time>2026-05-02T10:16:00Z</time></trkpt><trkpt lat="46.06017790088002" lon="11.496385046628495"><ele>376.0</ele><time>2026-05-02T10:16:01Z</time></trkpt><trkpt lat="46.06023220234651" lon="11.496474512038164"><ele>375.6666666666667</ele><time>2026-05-02T10:16:02Z</time></trkpt><trkpt lat="46.06029496441497" lon="11.496565156352512"><ele>375.3333333333333</ele><time>2026-05-02T10:16:03Z</time></trkpt><trkpt lat="46.0603436998258" lon="11.496658249043774"><ele>375.0</ele><time>2026-05-02T10:16:04Z</time></trkpt><trkpt lat="46.06039317941022" lon="11.49675197274938"><ele>375.0</ele><time>2026-05-02T10:16:05Z</time></trkpt><trkpt lat="46.06044237112755" lon="11.496858455392719"><ele>375.0</ele><time>2026-05-02T10:16:06Z</time></trkpt><trkpt lat="46.06047569508388" lon="11.496973603182253"><ele>375.0</ele><time>2026-05-02T10:16:07Z</time></trkpt><trkpt lat="46.06049127643068" lon="11.497111148745592"><ele>375.0</ele><time>2026-05-02T10:16:08Z</time></trkpt><trkpt lat="46.06049533848086" lon="11.497265544258836"><ele>375.0</ele><time>2026-05-02T10:16:09Z</time></trkpt><trkpt lat="46.06049772100535" lon="11.497412973177243"><ele>375.0</ele><time>2026-05-02T10:16:10Z</time></trkpt><trkpt lat="46.06049894481018" lon="11.49754527616359"><ele>375.0</ele><time>2026-05-02T10:16:11Z</time></trkpt><trkpt lat="46.060504612401274" lon="11.497664592329988"><ele>375.0</ele><time>2026-05-02T10:16:12Z</time></trkpt><trkpt lat="46.06051038267275" lon="11.497761624138672"><ele>375.0</ele><time>2026-05-02T10:16:13Z</time></trkpt><trkpt lat="46.06050146715005" lon="11.497881414596614"><ele>375.0</ele><time>2026-05-02T10:16:15Z</time></trkpt><trkpt lat="46.06048322286198" lon="11.497968845998955"><ele>375.0</ele><time>2026-05-02T10:16:18Z</time></trkpt><trkpt lat="46.06052257642311" lon="11.498138150707012"><ele>375.0</ele><time>2026-05-02T10:16:20Z</time></trkpt><trkpt lat="46.06057854200846" lon="11.498244409862966"><ele>375.0</ele><time>2026-05-02T10:16:21Z</time></trkpt><trkpt lat="46.060655281810945" lon="11.498396594548641"><ele>375.0</ele><time>2026-05-02T10:16:22Z</time></trkpt><trkpt lat="46.060754505314655" lon="11.498606790833831"><ele>375.0</ele><time>2026-05-02T10:16:23Z</time></trkpt><trkpt lat="46.06086096129828" lon="11.49882689788696"><ele>375.3333333333333</ele><time>2026-05-02T10:16:24Z</time></trkpt><trkpt lat="46.06097728564405" lon="11.499055650068913"><ele>375.66666666666663</ele><time>2026-05-02T10:16:24.999Z</time></trkpt><trkpt lat="46.0610968584089" lon="11.49929666755146"><ele>376.0</ele><time>2026-05-02T10:16:25.999Z</time></trkpt><trkpt lat="46.061211892948876" lon="11.499512292153154"><ele>376.3333333333333</ele><time>2026-05-02T10:16:26.999Z</time></trkpt><trkpt lat="46.06133470187896" lon="11.499719516385712"><ele>376.6666666666667</ele><time>2026-05-02T10:16:27.999Z</time></trkpt><trkpt lat="46.06145507610765" lon="11.49990461405397"><ele>377.0</ele><time>2026-05-02T10:16:28.999Z</time></trkpt><trkpt lat="46.06156531082358" lon="11.500081359572032"><ele>377.75</ele><time>2026-05-02T10:16:29.999Z</time></trkpt><trkpt lat="46.06166600870506" lon="11.500239525223359"><ele>378.5</ele><time>2026-05-02T10:16:30.999Z</time></trkpt><trkpt lat="46.06176216146834" lon="11.500384180631556"><ele>379.25</ele><time>2026-05-02T10:16:31.999Z</time></trkpt><trkpt lat="46.061856022475894" lon="11.500517742850672"><ele>380.0</ele><time>2026-05-02T10:16:32.999Z</time></trkpt><trkpt lat="46.06195210800416" lon="11.500652173389575"><ele>380.0</ele><time>2026-05-02T10:16:33.999Z</time></trkpt><trkpt lat="46.06204875265065" lon="11.500791250893101"><ele>380.0</ele><time>2026-05-02T10:16:34.999Z</time></trkpt><trkpt lat="46.062145804097135" lon="11.500931137941704"><ele>380.0</ele><time>2026-05-02T10:16:35.999Z</time></trkpt><trkpt lat="46.06224426689342" lon="11.501068601150799"><ele>380.0</ele><time>2026-05-02T10:16:36.999Z</time></trkpt><trkpt lat="46.062340972773335" lon="11.50120589702617"><ele>379.75</ele><time>2026-05-02T10:16:37.999Z</time></trkpt><trkpt lat="46.062436949527225" lon="11.501343604298096"><ele>379.5</ele><time>2026-05-02T10:16:38.999Z</time></trkpt><trkpt lat="46.06252279685231" lon="11.50149217792807"><ele>379.25</ele><time>2026-05-02T10:16:39.999Z</time></trkpt><trkpt lat="46.06260551149745" lon="11.50164381974434"><ele>379.0</ele><time>2026-05-02T10:16:40.999Z</time></trkpt><trkpt lat="46.062678307187454" lon="11.50180389597285"><ele>379.5</ele><time>2026-05-02T10:16:41.999Z</time></trkpt><trkpt lat="46.06274294520067" lon="11.501961269194064"><ele>380.0</ele><time>2026-05-02T10:16:42.999Z</time></trkpt><trkpt lat="46.06280126611246" lon="11.502114991421289"><ele>380.5</ele><time>2026-05-02T10:16:43.999Z</time></trkpt><trkpt lat="46.062853501617795" lon="11.502272515027054"><ele>381.0</ele><time>2026-05-02T10:16:44.999Z</time></trkpt><trkpt lat="46.06290944664404" lon="11.502436835207915"><ele>381.0</ele><time>2026-05-02T10:16:45.999Z</time></trkpt><trkpt lat="46.062970669609335" lon="11.502608675234843"><ele>381.0</ele><time>2026-05-02T10:16:46.999Z</time></trkpt><trkpt lat="46.06303827776756" lon="11.502793090886515"><ele>381.0</ele><time>2026-05-02T10:16:47.999Z</time></trkpt><trkpt lat="46.063105560745264" lon="11.502978714056525"><ele>381.0</ele><time>2026-05-02T10:16:48.999Z</time></trkpt><trkpt lat="46.06317629766972" lon="11.503158232563376"><ele>381.0</ele><time>2026-05-02T10:16:49.999Z</time></trkpt><trkpt lat="46.06325684923704" lon="11.503329049262078"><ele>381.0</ele><time>2026-05-02T10:16:50.999Z</time></trkpt><trkpt lat="46.06333626679424" lon="11.503487289415032"><ele>381.0</ele><time>2026-05-02T10:16:51.999Z</time></trkpt><trkpt lat="46.06341212168711" lon="11.503635330406286"><ele>381.0</ele><time>2026-05-02T10:16:52.999Z</time></trkpt><trkpt lat="46.06348683447921" lon="11.503776673059104"><ele>381.0</ele><time>2026-05-02T10:16:53.999Z</time></trkpt><trkpt lat="46.06355917016861" lon="11.503910588602377"><ele>381.0</ele><time>2026-05-02T10:16:54.999Z</time></trkpt><trkpt lat="46.06362891270416" lon="11.504037154135748"><ele>381.0</ele><time>2026-05-02T10:16:55.999Z</time></trkpt><trkpt lat="46.0636938041733" lon="11.50415823448034"><ele>381.0</ele><time>2026-05-02T10:16:56.999Z</time></trkpt><trkpt lat="46.0637510975302" lon="11.504280399262498"><ele>381.0</ele><time>2026-05-02T10:16:57.999Z</time></trkpt><trkpt lat="46.06380162520528" lon="11.504407449646655"><ele>381.0</ele><time>2026-05-02T10:16:58.999Z</time></trkpt><trkpt lat="46.063841813973255" lon="11.504533199656592"><ele>381.0</ele><time>2026-05-02T10:16:59.999Z</time></trkpt><trkpt lat="46.063871356668194" lon="11.504641277450604"><ele>381.0</ele><time>2026-05-02T10:17:00.999Z</time></trkpt><trkpt lat="46.06388729730306" lon="11.50476477253371"><ele>381.0</ele><time>2026-05-02T10:17:02.999Z</time></trkpt><trkpt lat="46.06404164941724" lon="11.504688684862014"><ele>381.0</ele><time>2026-05-02T10:17:04.999Z</time></trkpt><trkpt lat="46.064094839148666" lon="11.504590195821397"><ele>381.75</ele><time>2026-05-02T10:17:05.999Z</time></trkpt><trkpt lat="46.06416447910175" lon="11.504472240663484"><ele>382.5</ele><time>2026-05-02T10:17:06.999Z</time></trkpt><trkpt lat="46.06424377895563" lon="11.504333858557597"><ele>383.25</ele><time>2026-05-02T10:17:07.999Z</time></trkpt><trkpt lat="46.06432556149193" lon="11.504206138293318"><ele>384.0</ele><time>2026-05-02T10:17:08.999Z</time></trkpt><trkpt lat="46.06440753139988" lon="11.504082155929115"><ele>384.0</ele><time>2026-05-02T10:17:09.999Z</time></trkpt><trkpt lat="46.064480893358585" lon="11.503949289635475"><ele>384.0</ele><time>2026-05-02T10:17:10.999Z</time></trkpt><trkpt lat="46.06455677318952" lon="11.503824046279062"><ele>384.0</ele><time>2026-05-02T10:17:11.999Z</time></trkpt><trkpt lat="46.06463217653254" lon="11.503701910339913"><ele>384.0</ele><time>2026-05-02T10:17:13Z</time></trkpt><trkpt lat="46.06470323861332" lon="11.50358663010395"><ele>384.0</ele><time>2026-05-02T10:17:14Z</time></trkpt><trkpt lat="46.06476592406553" lon="11.503486447691497"><ele>384.0</ele><time>2026-05-02T10:17:15Z</time></trkpt><trkpt lat="46.06481667610136" lon="11.503386813325148"><ele>384.0</ele><time>2026-05-02T10:17:16Z</time></trkpt><trkpt lat="46.06486394100108" lon="11.503300634742269"><ele>384.0</ele><time>2026-05-02T10:17:17Z</time></trkpt><trkpt lat="46.06491799942135" lon="11.503245429172576"><ele>384.0</ele><time>2026-05-02T10:17:18Z</time></trkpt><trkpt lat="46.06497843278457" lon="11.503173503295974"><ele>384.0</ele><time>2026-05-02T10:17:20Z</time></trkpt><trkpt lat="46.06506111253954" lon="11.503288087672606"><ele>384.1666666666667</ele><time>2026-05-02T10:17:22Z</time></trkpt><trkpt lat="46.065123657054784" lon="11.50337204085352"><ele>384.33333333333337</ele><time>2026-05-02T10:17:23Z</time></trkpt><trkpt lat="46.065185874335654" lon="11.50346051749377"><ele>384.5</ele><time>2026-05-02T10:17:24Z</time></trkpt><trkpt lat="46.06525276275318" lon="11.503545310984192"><ele>384.6666666666667</ele><time>2026-05-02T10:17:25Z</time></trkpt><trkpt lat="46.065321500012914" lon="11.503619194705685"><ele>384.83333333333337</ele><time>2026-05-02T10:17:26Z</time></trkpt><trkpt lat="46.065388271982314" lon="11.503682089892196"><ele>385.0</ele><time>2026-05-02T10:17:27Z</time></trkpt><trkpt lat="46.06545059146963" lon="11.503734245648221"><ele>385.4</ele><time>2026-05-02T10:17:28Z</time></trkpt><trkpt lat="46.06551044913819" lon="11.503777606839826"><ele>385.8</ele><time>2026-05-02T10:17:29Z</time></trkpt><trkpt lat="46.06561253156383" lon="11.503862913509714"><ele>386.20000000000005</ele><time>2026-05-02T10:17:31Z</time></trkpt><trkpt lat="46.065678132049285" lon="11.503914064252273"><ele>386.6</ele><time>2026-05-02T10:17:33Z</time></trkpt><trkpt lat="46.065815591183004" lon="11.503774720648394"><ele>387.0</ele><time>2026-05-02T10:17:40Z</time></trkpt><trkpt lat="46.06587679503105" lon="11.503678245928707"><ele>387.6</ele><time>2026-05-02T10:17:41Z</time></trkpt><trkpt lat="46.0659492301849" lon="11.503558865235178"><ele>388.20000000000005</ele><time>2026-05-02T10:17:42Z</time></trkpt><trkpt lat="46.066021850143926" lon="11.50344385300805"><ele>388.8</ele><time>2026-05-02T10:17:43Z</time></trkpt><trkpt lat="46.06608181454104" lon="11.503347757605392"><ele>389.4</ele><time>2026-05-02T10:17:44Z</time></trkpt><trkpt lat="46.066145486931184" lon="11.503264764786909"><ele>390.0</ele><time>2026-05-02T10:17:45Z</time></trkpt><trkpt lat="46.066223628205925" lon="11.503209801102562"><ele>390.0</ele><time>2026-05-02T10:17:46Z</time></trkpt><trkpt lat="46.06630954736648" lon="11.503164755645724"><ele>390.0</ele><time>2026-05-02T10:17:47Z</time></trkpt><trkpt lat="46.0663933846159" lon="11.503115891618702"><ele>390.0</ele><time>2026-05-02T10:17:48Z</time></trkpt><trkpt lat="46.06647045871804" lon="11.503057280664187"><ele>390.0</ele><time>2026-05-02T10:17:49Z</time></trkpt><trkpt lat="46.06654123879858" lon="11.50298688174879"><ele>390.0</ele><time>2026-05-02T10:17:50Z</time></trkpt><trkpt lat="46.066571966006315" lon="11.502866929060046"><ele>390.0</ele><time>2026-05-02T10:17:51Z</time></trkpt><trkpt lat="46.066681461540135" lon="11.502769698955149"><ele>392.5</ele><time>2026-05-02T10:17:52Z</time></trkpt><trkpt lat="46.066766524987024" lon="11.502637273440698"><ele>395.0</ele><time>2026-05-02T10:17:53Z</time></trkpt><trkpt lat="46.066850762400726" lon="11.502499155043864"><ele>397.5</ele><time>2026-05-02T10:17:54Z</time></trkpt><trkpt lat="46.06693415177366" lon="11.502366086223278"><ele>400.0</ele><time>2026-05-02T10:17:55Z</time></trkpt><trkpt lat="46.067017086734" lon="11.502248897064272"><ele>400.0</ele><time>2026-05-02T10:17:56Z</time></trkpt><trkpt lat="46.06709527876376" lon="11.502168854696846"><ele>400.0</ele><time>2026-05-02T10:17:57Z</time></trkpt><trkpt lat="46.067196744915236" lon="11.502112745560066"><ele>400.0</ele><time>2026-05-02T10:17:58Z</time></trkpt><trkpt lat="46.06729367351395" lon="11.502032740848007"><ele>400.0</ele><time>2026-05-02T10:17:59Z</time></trkpt><trkpt lat="46.06736666246312" lon="11.501927515259796"><ele>400.0</ele><time>2026-05-02T10:18:00Z</time></trkpt><trkpt lat="46.067435316711716" lon="11.501841947478203"><ele>400.6666666666667</ele><time>2026-05-02T10:18:01Z</time></trkpt><trkpt lat="46.067495474415495" lon="11.501751739367307"><ele>401.33333333333337</ele><time>2026-05-02T10:18:02Z</time></trkpt><trkpt lat="46.067554153916824" lon="11.501669027621851"><ele>402.0</ele><time>2026-05-02T10:18:03Z</time></trkpt><trkpt lat="46.06761940972326" lon="11.501613002096228"><ele>402.66666666666663</ele><time>2026-05-02T10:18:04Z</time></trkpt><trkpt lat="46.06769503414789" lon="11.50158295541908"><ele>403.3333333333333</ele><time>2026-05-02T10:18:05Z</time></trkpt><trkpt lat="46.06778379033568" lon="11.501571660403167"><ele>404.0</ele><time>2026-05-02T10:18:06Z</time></trkpt><trkpt lat="46.06786940432817" lon="11.501558275801477"><ele>404.0</ele><time>2026-05-02T10:18:07Z</time></trkpt><trkpt lat="46.067951934908855" lon="11.50153114334617"><ele>404.0</ele><time>2026-05-02T10:18:08Z</time></trkpt><trkpt lat="46.06803395618682" lon="11.501497343885058"><ele>404.0</ele><time>2026-05-02T10:18:09Z</time></trkpt><trkpt lat="46.06811378188182" lon="11.501449688073873"><ele>404.0</ele><time>2026-05-02T10:18:10Z</time></trkpt><trkpt lat="46.06819817021552" lon="11.501405367802732"><ele>404.0</ele><time>2026-05-02T10:18:11Z</time></trkpt><trkpt lat="46.06832390620724" lon="11.501294974084303"><ele>406.79999999999995</ele><time>2026-05-02T10:18:12Z</time></trkpt><trkpt lat="46.068424799408156" lon="11.501234016473841"><ele>409.59999999999997</ele><time>2026-05-02T10:18:13Z</time></trkpt><trkpt lat="46.06851598507839" lon="11.501173995343459"><ele>412.4</ele><time>2026-05-02T10:18:14Z</time></trkpt><trkpt lat="46.0686061890334" lon="11.501136794129208"><ele>415.2</ele><time>2026-05-02T10:18:15Z</time></trkpt><trkpt lat="46.06869866415459" lon="11.50112958166313"><ele>418.0</ele><time>2026-05-02T10:18:16Z</time></trkpt><trkpt lat="46.06878216597831" lon="11.501155511403807"><ele>418.00000000000006</ele><time>2026-05-02T10:18:17Z</time></trkpt><trkpt lat="46.0688545087383" lon="11.50121182620338"><ele>418.0</ele><time>2026-05-02T10:18:18Z</time></trkpt><trkpt lat="46.068912136925306" lon="11.501273863691468"><ele>418.0</ele><time>2026-05-02T10:18:19Z</time></trkpt><trkpt lat="46.06897096038099" lon="11.501310729586427"><ele>418.0</ele><time>2026-05-02T10:18:20Z</time></trkpt><trkpt lat="46.06910360451928" lon="11.501286563070249"><ele>418.00000000000006</ele><time>2026-05-02T10:18:22Z</time></trkpt><trkpt lat="46.069162497590355" lon="11.501193636410013"><ele>418.0</ele><time>2026-05-02T10:18:23Z</time></trkpt><trkpt lat="46.069212382397" lon="11.501083933644615"><ele>420.4</ele><time>2026-05-02T10:18:24Z</time></trkpt><trkpt lat="46.06928210391341" lon="11.500984830156169"><ele>422.79999999999995</ele><time>2026-05-02T10:18:25Z</time></trkpt><trkpt lat="46.069371460120045" lon="11.500896732346101"><ele>425.2</ele><time>2026-05-02T10:18:26Z</time></trkpt><trkpt lat="46.06947217675132" lon="11.500822329964565"><ele>427.6</ele><time>2026-05-02T10:18:27Z</time></trkpt><trkpt lat="46.06956907600932" lon="11.500755310885156"><ele>430.0</ele><time>2026-05-02T10:18:28Z</time></trkpt><trkpt lat="46.06963726852596" lon="11.500691404972326"><ele>430.0</ele><time>2026-05-02T10:18:29Z</time></trkpt><trkpt lat="46.069721041670896" lon="11.500690097712472"><ele>430.0</ele><time>2026-05-02T10:18:30Z</time></trkpt><trkpt lat="46.06981561784445" lon="11.500721362894213"><ele>430.0</ele><time>2026-05-02T10:18:31Z</time></trkpt><trkpt lat="46.069924132918196" lon="11.500771859458151"><ele>430.0</ele><time>2026-05-02T10:18:32Z</time></trkpt><trkpt lat="46.070023004195306" lon="11.500813894080478"><ele>430.0</ele><time>2026-05-02T10:18:33Z</time></trkpt><trkpt lat="46.07010862203475" lon="11.500865023282618"><ele>431.83333333333337</ele><time>2026-05-02T10:18:34Z</time></trkpt><trkpt lat="46.07017035910406" lon="11.500930270455264"><ele>433.6666666666667</ele><time>2026-05-02T10:18:35Z</time></trkpt><trkpt lat="46.07022213753833" lon="11.50101069494455"><ele>435.5</ele><time>2026-05-02T10:18:36Z</time></trkpt><trkpt lat="46.07026452677244" lon="11.501109286291483"><ele>437.33333333333337</ele><time>2026-05-02T10:18:37Z</time></trkpt><trkpt lat="46.070304790970326" lon="11.501217894679263"><ele>439.1666666666667</ele><time>2026-05-02T10:18:38Z</time></trkpt><trkpt lat="46.07034457909339" lon="11.50132989439833"><ele>441.0</ele><time>2026-05-02T10:18:39Z</time></trkpt><trkpt lat="46.07035795787042" lon="11.501437362143088"><ele>444.20000000000005</ele><time>2026-05-02T10:18:40Z</time></trkpt><trkpt lat="46.070346362144434" lon="11.501536542420947"><ele>447.40000000000003</ele><time>2026-05-02T10:18:41Z</time></trkpt><trkpt lat="46.070298947694155" lon="11.501679723469918"><ele>450.6</ele><time>2026-05-02T10:18:42.999Z</time></trkpt><trkpt lat="46.0702920683483" lon="11.501803613976161"><ele>453.8</ele><time>2026-05-02T10:18:44.999Z</time></trkpt><trkpt lat="46.07041654274554" lon="11.501832997853727"><ele>457.0</ele><time>2026-05-02T10:18:46.999Z</time></trkpt><trkpt lat="46.07050178762064" lon="11.501796953110336"><ele>457.0</ele><time>2026-05-02T10:18:47.999Z</time></trkpt><trkpt lat="46.07060020795382" lon="11.501757180560068"><ele>457.00000000000006</ele><time>2026-05-02T10:18:48.999Z</time></trkpt><trkpt lat="46.07070677971684" lon="11.501703955663332"><ele>457.00000000000006</ele><time>2026-05-02T10:18:49.999Z</time></trkpt><trkpt lat="46.070820367231235" lon="11.50166892403651"><ele>457.0</ele><time>2026-05-02T10:18:50.999Z</time></trkpt><trkpt lat="46.070925477518045" lon="11.501614760880585"><ele>457.0</ele><time>2026-05-02T10:18:51.999Z</time></trkpt><trkpt lat="46.071020835935705" lon="11.501570527375303"><ele>459.20000000000005</ele><time>2026-05-02T10:18:52.999Z</time></trkpt><trkpt lat="46.071111320596174" lon="11.501541213013663"><ele>461.40000000000003</ele><time>2026-05-02T10:18:53.999Z</time></trkpt><trkpt lat="46.07119910282488" lon="11.501545875204519"><ele>463.59999999999997</ele><time>2026-05-02T10:18:54.999Z</time></trkpt><trkpt lat="46.071297424221086" lon="11.501557214303903"><ele>465.79999999999995</ele><time>2026-05-02T10:18:55.999Z</time></trkpt><trkpt lat="46.07141025360661" lon="11.501608960835997"><ele>468.0</ele><time>2026-05-02T10:18:56.999Z</time></trkpt><trkpt lat="46.07153825917103" lon="11.50167121028393"><ele>470.5</ele><time>2026-05-02T10:18:57.999Z</time></trkpt><trkpt lat="46.07165755091321" lon="11.501722897654552"><ele>473.0</ele><time>2026-05-02T10:18:58.999Z</time></trkpt><trkpt lat="46.07177459938139" lon="11.501759689095278"><ele>475.5</ele><time>2026-05-02T10:18:59.999Z</time></trkpt><trkpt lat="46.07189014310073" lon="11.501796369920907"><ele>478.0</ele><time>2026-05-02T10:19:00.999Z</time></trkpt><trkpt lat="46.07199728984636" lon="11.501845801844985"><ele>478.0</ele><time>2026-05-02T10:19:01.999Z</time></trkpt><trkpt lat="46.07210177076912" lon="11.501888497063094"><ele>478.0</ele><time>2026-05-02T10:19:02.999Z</time></trkpt><trkpt lat="46.07220390907798" lon="11.5019295345397"><ele>478.0</ele><time>2026-05-02T10:19:03.999Z</time></trkpt><trkpt lat="46.07231296315837" lon="11.501887773192683"><ele>478.0</ele><time>2026-05-02T10:19:04.999Z</time></trkpt><trkpt lat="46.0724326114835" lon="11.501836388913748"><ele>480.5</ele><time>2026-05-02T10:19:05.999Z</time></trkpt><trkpt lat="46.072560413840996" lon="11.501801677035868"><ele>483.0</ele><time>2026-05-02T10:19:06.999Z</time></trkpt><trkpt lat="46.07267578907344" lon="11.501758386409122"><ele>485.5</ele><time>2026-05-02T10:19:07.999Z</time></trkpt><trkpt lat="46.07278299000683" lon="11.501721741962646"><ele>488.0</ele><time>2026-05-02T10:19:08.999Z</time></trkpt><trkpt lat="46.0728844035734" lon="11.501688020580325"><ele>488.0</ele><time>2026-05-02T10:19:09.999Z</time></trkpt><trkpt lat="46.072986171087805" lon="11.501738016660719"><ele>487.99999999999994</ele><time>2026-05-02T10:19:10.999Z</time></trkpt><trkpt lat="46.07308004363546" lon="11.501714366359558"><ele>487.99999999999994</ele><time>2026-05-02T10:19:11.999Z</time></trkpt><trkpt lat="46.07315862055083" lon="11.501661542585705"><ele>488.0</ele><time>2026-05-02T10:19:12.999Z</time></trkpt><trkpt lat="46.073231171707015" lon="11.501587816285586"><ele>488.0</ele><time>2026-05-02T10:19:13.999Z</time></trkpt><trkpt lat="46.07329514848567" lon="11.501530678668727"><ele>492.0</ele><time>2026-05-02T10:19:14.999Z</time></trkpt><trkpt lat="46.073408696384725" lon="11.501538906297156"><ele>495.99999999999994</ele><time>2026-05-02T10:19:16.999Z</time></trkpt><trkpt lat="46.07348409851417" lon="11.501600618587776"><ele>499.99999999999994</ele><time>2026-05-02T10:19:17.999Z</time></trkpt><trkpt lat="46.0735570330162" lon="11.501685823609439"><ele>504.0</ele><time>2026-05-02T10:19:19Z</time></trkpt><trkpt lat="46.07360820036115" lon="11.501784306088913"><ele>508.0</ele><time>2026-05-02T10:19:20Z</time></trkpt><trkpt lat="46.073640184571566" lon="11.50189275808262"><ele>508.0</ele><time>2026-05-02T10:19:21Z</time></trkpt><trkpt lat="46.07369013381607" lon="11.501987341948585"><ele>507.99999999999994</ele><time>2026-05-02T10:19:22Z</time></trkpt><trkpt lat="46.073766655186624" lon="11.502064987434272"><ele>507.99999999999994</ele><time>2026-05-02T10:19:23Z</time></trkpt><trkpt lat="46.07384745036873" lon="11.502149243729123"><ele>508.0</ele><time>2026-05-02T10:19:24Z</time></trkpt><trkpt lat="46.07394603153149" lon="11.502164352874015"><ele>508.0</ele><time>2026-05-02T10:19:25Z</time></trkpt><trkpt lat="46.074052877128544" lon="11.502213898890984"><ele>512.4</ele><time>2026-05-02T10:19:26Z</time></trkpt><trkpt lat="46.074161349519805" lon="11.502243431270859"><ele>516.8</ele><time>2026-05-02T10:19:27Z</time></trkpt><trkpt lat="46.0742532323481" lon="11.502275391991242"><ele>521.2</ele><time>2026-05-02T10:19:28Z</time></trkpt><trkpt lat="46.074334399689924" lon="11.502322665095404"><ele>525.6</ele><time>2026-05-02T10:19:29Z</time></trkpt><trkpt lat="46.07439673238622" lon="11.502420932887086"><ele>530.0</ele><time>2026-05-02T10:19:30Z</time></trkpt><trkpt lat="46.074451677766376" lon="11.50253812487268"><ele>530.0</ele><time>2026-05-02T10:19:31Z</time></trkpt><trkpt lat="46.07449153388171" lon="11.502657210660054"><ele>530.0</ele><time>2026-05-02T10:19:32Z</time></trkpt><trkpt lat="46.07453227749277" lon="11.502748049067844"><ele>530.0</ele><time>2026-05-02T10:19:33Z</time></trkpt><trkpt lat="46.07463126627932" lon="11.502826279863182"><ele>530.0</ele><time>2026-05-02T10:19:35Z</time></trkpt><trkpt lat="46.07473384525856" lon="11.502785024062455"><ele>530.0</ele><time>2026-05-02T10:19:37Z</time></trkpt><trkpt lat="46.07473216831888" lon="11.502675026077974"><ele>529.9999999999999</ele><time>2026-05-02T10:19:38Z</time></trkpt><trkpt lat="46.07468780132596" lon="11.502606264460375"><ele>530.0</ele><time>2026-05-02T10:19:39Z</time></trkpt><trkpt lat="46.07464616343927" lon="11.502525930323685"><ele>530.0</ele><time>2026-05-02T10:19:40Z</time></trkpt><trkpt lat="46.07459714889659" lon="11.502462236820422"><ele>530.0</ele><time>2026-05-02T10:19:41Z</time></trkpt><trkpt lat="46.07459830414507" lon="11.502335342585086"><ele>530.0</ele><time>2026-05-02T10:19:43Z</time></trkpt><trkpt lat="46.07467967799447" lon="11.502285530557506"><ele>529.9999999999999</ele><time>2026-05-02T10:19:45Z</time></trkpt><trkpt lat="46.07472780315764" lon="11.502362524971222"><ele>530.0</ele><time>2026-05-02T10:19:48Z</time></trkpt><trkpt lat="46.074770669196724" lon="11.50245941514168"><ele>530.0</ele><time>2026-05-02T10:19:49Z</time></trkpt><trkpt lat="46.074821993467076" lon="11.502523826419385"><ele>530.0</ele><time>2026-05-02T10:19:50Z</time></trkpt><trkpt lat="46.07489411363313" lon="11.502576029251788"><ele>530.0</ele><time>2026-05-02T10:19:51Z</time></trkpt><trkpt lat="46.07500657968965" lon="11.502562425004994"><ele>530.0</ele><time>2026-05-02T10:19:52Z</time></trkpt><trkpt lat="46.07512070142018" lon="11.502537462894123"><ele>530.0</ele><time>2026-05-02T10:19:53Z</time></trkpt><trkpt lat="46.07522448737217" lon="11.502580736351334"><ele>532.8</ele><time>2026-05-02T10:19:54Z</time></trkpt><trkpt lat="46.07530399327355" lon="11.50264408585443"><ele>535.6</ele><time>2026-05-02T10:19:55Z</time></trkpt><trkpt lat="46.07537774486988" lon="11.502722991578397"><ele>538.4</ele><time>2026-05-02T10:19:56Z</time></trkpt><trkpt lat="46.07546561320036" lon="11.502826085377304"><ele>541.2</ele><time>2026-05-02T10:19:57Z</time></trkpt><trkpt lat="46.075575877054355" lon="11.502936263844518"><ele>544.0</ele><time>2026-05-02T10:19:58Z</time></trkpt><trkpt lat="46.07569399209369" lon="11.503092690085484"><ele>547.0</ele><time>2026-05-02T10:19:59Z</time></trkpt><trkpt lat="46.075796468043606" lon="11.503228331364644"><ele>550.0</ele><time>2026-05-02T10:20:00Z</time></trkpt><trkpt lat="46.075883788704104" lon="11.503339669076547"><ele>553.0</ele><time>2026-05-02T10:20:01Z</time></trkpt><trkpt lat="46.07596844040624" lon="11.50341422486798"><ele>556.0</ele><time>2026-05-02T10:20:02Z</time></trkpt><trkpt lat="46.07606561629993" lon="11.503459499238831"><ele>556.0</ele><time>2026-05-02T10:20:03Z</time></trkpt><trkpt lat="46.076184699859525" lon="11.503497907057518"><ele>556.0</ele><time>2026-05-02T10:20:04Z</time></trkpt><trkpt lat="46.076320041703674" lon="11.503553161176917"><ele>556.0</ele><time>2026-05-02T10:20:05Z</time></trkpt><trkpt lat="46.07644661672479" lon="11.503617147719625"><ele>556.0</ele><time>2026-05-02T10:20:06Z</time></trkpt><trkpt lat="46.0765675080699" lon="11.503681954358456"><ele>558.2</ele><time>2026-05-02T10:20:07Z</time></trkpt><trkpt lat="46.07668089151849" lon="11.503741454810072"><ele>560.4000000000001</ele><time>2026-05-02T10:20:08Z</time></trkpt><trkpt lat="46.07678399782632" lon="11.503802042206534"><ele>562.6</ele><time>2026-05-02T10:20:09Z</time></trkpt><trkpt lat="46.07686360825326" lon="11.503850319404565"><ele>564.8000000000001</ele><time>2026-05-02T10:20:10Z</time></trkpt><trkpt lat="46.07692725056894" lon="11.503878354748004"><ele>567.0</ele><time>2026-05-02T10:20:11Z</time></trkpt><trkpt lat="46.077000599568045" lon="11.503795309795485"><ele>567.0</ele><time>2026-05-02T10:20:13Z</time></trkpt><trkpt lat="46.07702119580417" lon="11.503685057204269"><ele>567.0</ele><time>2026-05-02T10:20:14Z</time></trkpt><trkpt lat="46.07703315937473" lon="11.503541481529888"><ele>567.0</ele><time>2026-05-02T10:20:15Z</time></trkpt><trkpt lat="46.07705269983171" lon="11.503440613261882"><ele>567.0</ele><time>2026-05-02T10:20:16Z</time></trkpt><trkpt lat="46.077154889135414" lon="11.50336081194804"><ele>567.0</ele><time>2026-05-02T10:20:18Z</time></trkpt><trkpt lat="46.07721439244836" lon="11.503412312581247"><ele>567.0</ele><time>2026-05-02T10:20:19Z</time></trkpt><trkpt lat="46.077308817389095" lon="11.503466780041496"><ele>570.5</ele><time>2026-05-02T10:20:20Z</time></trkpt><trkpt lat="46.07744120121578" lon="11.50352165859295"><ele>574.0</ele><time>2026-05-02T10:20:21Z</time></trkpt><trkpt lat="46.07757169729701" lon="11.503558648255972"><ele>577.5</ele><time>2026-05-02T10:20:22Z</time></trkpt><trkpt lat="46.077689992055554" lon="11.503604143231874"><ele>581.0</ele><time>2026-05-02T10:20:23Z</time></trkpt><trkpt lat="46.077774398365094" lon="11.503703333464106"><ele>582.4</ele><time>2026-05-02T10:20:24Z</time></trkpt><trkpt lat="46.07786227234803" lon="11.503779851640887"><ele>583.8</ele><time>2026-05-02T10:20:25Z</time></trkpt><trkpt lat="46.077938432665235" lon="11.503893063276669"><ele>585.1999999999999</ele><time>2026-05-02T10:20:26Z</time></trkpt><trkpt lat="46.07801236940243" lon="11.504001595243304"><ele>586.6</ele><time>2026-05-02T10:20:27Z</time></trkpt><trkpt lat="46.07806049067332" lon="11.504132092540798"><ele>588.0</ele><time>2026-05-02T10:20:28Z</time></trkpt><trkpt lat="46.07809298413045" lon="11.504261206542958"><ele>588.0</ele><time>2026-05-02T10:20:29Z</time></trkpt><trkpt lat="46.07814219690249" lon="11.504393214251879"><ele>588.0</ele><time>2026-05-02T10:20:30Z</time></trkpt><trkpt lat="46.078174984131124" lon="11.504531361543004"><ele>588.0</ele><time>2026-05-02T10:20:31Z</time></trkpt><trkpt lat="46.078221137961464" lon="11.504657173133598"><ele>588.0</ele><time>2026-05-02T10:20:32Z</time></trkpt><trkpt lat="46.07828221081734" lon="11.504767768987998"><ele>588.0</ele><time>2026-05-02T10:20:33Z</time></trkpt><trkpt lat="46.07836121500712" lon="11.50487890491426"><ele>592.25</ele><time>2026-05-02T10:20:34Z</time></trkpt><trkpt lat="46.0784561480585" lon="11.50499616647189"><ele>596.5</ele><time>2026-05-02T10:20:35Z</time></trkpt><trkpt lat="46.07855332475724" lon="11.505117135711702"><ele>600.75</ele><time>2026-05-02T10:20:36Z</time></trkpt><trkpt lat="46.07864750185418" lon="11.505226114228655"><ele>605.0</ele><time>2026-05-02T10:20:37Z</time></trkpt><trkpt lat="46.078728910382" lon="11.50533119729609"><ele>605.6</ele><time>2026-05-02T10:20:38Z</time></trkpt><trkpt lat="46.0787971791673" lon="11.505431174299801"><ele>606.2</ele><time>2026-05-02T10:20:39Z</time></trkpt><trkpt lat="46.07884264675033" lon="11.505547331860882"><ele>606.8</ele><time>2026-05-02T10:20:40Z</time></trkpt><trkpt lat="46.078883673355215" lon="11.505689227165519"><ele>607.4</ele><time>2026-05-02T10:20:41Z</time></trkpt><trkpt lat="46.078939157046" lon="11.505843664816556"><ele>608.0</ele><time>2026-05-02T10:20:42Z</time></trkpt><trkpt lat="46.0790051041373" lon="11.50598604453284"><ele>608.0</ele><time>2026-05-02T10:20:43Z</time></trkpt><trkpt lat="46.07907184130406" lon="11.506111234721848"><ele>608.0</ele><time>2026-05-02T10:20:44Z</time></trkpt><trkpt lat="46.079109171205815" lon="11.506231046489795"><ele>608.0</ele><time>2026-05-02T10:20:45Z</time></trkpt><trkpt lat="46.079150910031906" lon="11.506326726460273"><ele>608.0</ele><time>2026-05-02T10:20:46Z</time></trkpt><trkpt lat="46.07918215565455" lon="11.506417969928723"><ele>608.0</ele><time>2026-05-02T10:20:47Z</time></trkpt><trkpt lat="46.07917764059822" lon="11.506576011375651"><ele>609.5</ele><time>2026-05-02T10:20:49Z</time></trkpt><trkpt lat="46.079114572771125" lon="11.506625971861306"><ele>611.0</ele><time>2026-05-02T10:20:50Z</time></trkpt><trkpt lat="46.079036456690766" lon="11.506628790476524"><ele>612.5</ele><time>2026-05-02T10:20:51Z</time></trkpt><trkpt lat="46.07898446936722" lon="11.506704173778244"><ele>614.0</ele><time>2026-05-02T10:20:51.999Z</time></trkpt><trkpt lat="46.078956982116274" lon="11.506828871967672"><ele>615.5</ele><time>2026-05-02T10:20:52.999Z</time></trkpt><trkpt lat="46.07897540488229" lon="11.50697675451794"><ele>617.0</ele><time>2026-05-02T10:20:53.999Z</time></trkpt><trkpt lat="46.07899695575424" lon="11.507099545035047"><ele>619.5</ele><time>2026-05-02T10:20:54.999Z</time></trkpt><trkpt lat="46.07904420896539" lon="11.507194885316764"><ele>622.0</ele><time>2026-05-02T10:20:55.999Z</time></trkpt><trkpt lat="46.079120251770654" lon="11.507244310357697"><ele>624.5</ele><time>2026-05-02T10:20:56.999Z</time></trkpt><trkpt lat="46.07919071209337" lon="11.50727468847347"><ele>627.0</ele><time>2026-05-02T10:20:57.999Z</time></trkpt><trkpt lat="46.07930027995446" lon="11.507317276094971"><ele>629.5</ele><time>2026-05-02T10:20:59.999Z</time></trkpt><trkpt lat="46.079377046007224" lon="11.50732562340625"><ele>632.0</ele><time>2026-05-02T10:21:00.999Z</time></trkpt><trkpt lat="46.07947700699684" lon="11.50733268461058"><ele>633.8333333333333</ele><time>2026-05-02T10:21:01.999Z</time></trkpt><trkpt lat="46.07956922242613" lon="11.50735716681754"><ele>635.6666666666666</ele><time>2026-05-02T10:21:02.999Z</time></trkpt><trkpt lat="46.0796538868722" lon="11.507382595178353"><ele>637.5</ele><time>2026-05-02T10:21:03.999Z</time></trkpt><trkpt lat="46.07974003790212" lon="11.50737542852167"><ele>639.3333333333334</ele><time>2026-05-02T10:21:04.999Z</time></trkpt><trkpt lat="46.079815761218214" lon="11.507332508393125"><ele>641.1666666666667</ele><time>2026-05-02T10:21:05.999Z</time></trkpt><trkpt lat="46.079879065433005" lon="11.507293867976562"><ele>643.0</ele><time>2026-05-02T10:21:06.999Z</time></trkpt><trkpt lat="46.079899923992606" lon="11.507173797490324"><ele>643.0</ele><time>2026-05-02T10:21:07.999Z</time></trkpt><trkpt lat="46.079917407076316" lon="11.507061919572202"><ele>643.0</ele><time>2026-05-02T10:21:08.999Z</time></trkpt><trkpt lat="46.07995011850002" lon="11.506943980066366"><ele>643.0</ele><time>2026-05-02T10:21:09.999Z</time></trkpt><trkpt lat="46.08001079212803" lon="11.506864582476249"><ele>643.0</ele><time>2026-05-02T10:21:10.999Z</time></trkpt><trkpt lat="46.08009406573301" lon="11.506822945957595"><ele>643.0</ele><time>2026-05-02T10:21:11.999Z</time></trkpt><trkpt lat="46.08018876651893" lon="11.506812666674053"><ele>643.0</ele><time>2026-05-02T10:21:12.999Z</time></trkpt><trkpt lat="46.08030105487066" lon="11.50683336593347"><ele>643.0</ele><time>2026-05-02T10:21:13.999Z</time></trkpt><trkpt lat="46.080413000748834" lon="11.506855402069261"><ele>643.0</ele><time>2026-05-02T10:21:14.999Z</time></trkpt><trkpt lat="46.08051910179521" lon="11.506868273249326"><ele>643.0</ele><time>2026-05-02T10:21:15.999Z</time></trkpt><trkpt lat="46.080607555176044" lon="11.50686655753373"><ele>643.0</ele><time>2026-05-02T10:21:16.999Z</time></trkpt><trkpt lat="46.080680245165034" lon="11.506838586658844"><ele>643.0</ele><time>2026-05-02T10:21:17.999Z</time></trkpt><trkpt lat="46.08079014383904" lon="11.506731493147772"><ele>645.0</ele><time>2026-05-02T10:21:19.999Z</time></trkpt><trkpt lat="46.080868018582" lon="11.506712780089995"><ele>647.0</ele><time>2026-05-02T10:21:20.999Z</time></trkpt><trkpt lat="46.08095541041352" lon="11.506722514411216"><ele>649.0</ele><time>2026-05-02T10:21:21.999Z</time></trkpt><trkpt lat="46.08105330688894" lon="11.506731664239922"><ele>651.0</ele><time>2026-05-02T10:21:22.999Z</time></trkpt><trkpt lat="46.08114482978964" lon="11.506759440729992"><ele>653.0</ele><time>2026-05-02T10:21:23.999Z</time></trkpt><trkpt lat="46.081225717264324" lon="11.506768533400281"><ele>655.0</ele><time>2026-05-02T10:21:25Z</time></trkpt><trkpt lat="46.081293280246705" lon="11.50677486262408"><ele>655.0</ele><time>2026-05-02T10:21:26Z</time></trkpt><trkpt lat="46.08135960909594" lon="11.506812997978255"><ele>655.0</ele><time>2026-05-02T10:21:27Z</time></trkpt><trkpt lat="46.08141997263734" lon="11.506873859121546"><ele>655.0</ele><time>2026-05-02T10:21:28Z</time></trkpt><trkpt lat="46.0814858315806" lon="11.506966452330568"><ele>655.0</ele><time>2026-05-02T10:21:29Z</time></trkpt><trkpt lat="46.08153395019743" lon="11.507091250768571"><ele>655.0</ele><time>2026-05-02T10:21:30Z</time></trkpt><trkpt lat="46.08158259355995" lon="11.50720478641679"><ele>655.0</ele><time>2026-05-02T10:21:31Z</time></trkpt><trkpt lat="46.08162396938134" lon="11.507318951979672"><ele>658.0</ele><time>2026-05-02T10:21:32Z</time></trkpt><trkpt lat="46.08167373284177" lon="11.507419837066482"><ele>661.0</ele><time>2026-05-02T10:21:33Z</time></trkpt><trkpt lat="46.081710688715525" lon="11.507531902089907"><ele>664.0</ele><time>2026-05-02T10:21:34Z</time></trkpt><trkpt lat="46.08175181819414" lon="11.507639525228427"><ele>667.0</ele><time>2026-05-02T10:21:35Z</time></trkpt><trkpt lat="46.081798570081254" lon="11.50774562266271"><ele>670.0</ele><time>2026-05-02T10:21:36Z</time></trkpt><trkpt lat="46.08184410950808" lon="11.507849368042748"><ele>673.0</ele><time>2026-05-02T10:21:37Z</time></trkpt><trkpt lat="46.08189467612633" lon="11.50793454537097"><ele>675.0</ele><time>2026-05-02T10:21:38Z</time></trkpt><trkpt lat="46.08196382502174" lon="11.508015783213276"><ele>677.0</ele><time>2026-05-02T10:21:39Z</time></trkpt><trkpt lat="46.082043758941246" lon="11.508088701366189"><ele>679.0</ele><time>2026-05-02T10:21:40Z</time></trkpt><trkpt lat="46.0821255815557" lon="11.508140736809755"><ele>681.0</ele><time>2026-05-02T10:21:41Z</time></trkpt><trkpt lat="46.0822010805108" lon="11.508187224767099"><ele>683.0</ele><time>2026-05-02T10:21:42Z</time></trkpt><trkpt lat="46.082272944232024" lon="11.508232568561205"><ele>685.0</ele><time>2026-05-02T10:21:43Z</time></trkpt><trkpt lat="46.082342183753596" lon="11.508282877254716"><ele>685.0</ele><time>2026-05-02T10:21:44Z</time></trkpt><trkpt lat="46.08241396981823" lon="11.508330094960593"><ele>685.0</ele><time>2026-05-02T10:21:45Z</time></trkpt><trkpt lat="46.0824863382162" lon="11.508376090481628"><ele>685.0</ele><time>2026-05-02T10:21:46Z</time></trkpt><trkpt lat="46.082559226987925" lon="11.508424077229293"><ele>685.0</ele><time>2026-05-02T10:21:47Z</time></trkpt><trkpt lat="46.08263295743627" lon="11.508474053964642"><ele>685.0</ele><time>2026-05-02T10:21:48Z</time></trkpt><trkpt lat="46.08270893540652" lon="11.50852679800449"><ele>685.0</ele><time>2026-05-02T10:21:49Z</time></trkpt><trkpt lat="46.08278169591379" lon="11.508579799809858"><ele>686.6666666666667</ele><time>2026-05-02T10:21:50Z</time></trkpt><trkpt lat="46.08284499525385" lon="11.508655755266595"><ele>688.3333333333334</ele><time>2026-05-02T10:21:51Z</time></trkpt><trkpt lat="46.082923792255905" lon="11.508707080429696"><ele>690.0</ele><time>2026-05-02T10:21:52Z</time></trkpt><trkpt lat="46.082996633408804" lon="11.508752280015827"><ele>691.6666666666666</ele><time>2026-05-02T10:21:53Z</time></trkpt><trkpt lat="46.0830725931528" lon="11.50874879490924"><ele>693.3333333333333</ele><time>2026-05-02T10:21:54Z</time></trkpt><trkpt lat="46.083197114255576" lon="11.508735261174987"><ele>695.0</ele><time>2026-05-02T10:21:56Z</time></trkpt><trkpt lat="46.08327678399295" lon="11.508749183820123"><ele>698.3333333333333</ele><time>2026-05-02T10:21:58Z</time></trkpt><trkpt lat="46.083383929384354" lon="11.508759040466716"><ele>701.6666666666666</ele><time>2026-05-02T10:22:00.999Z</time></trkpt><trkpt lat="46.08348774637859" lon="11.508809397118434"><ele>705.0</ele><time>2026-05-02T10:22:02.999Z</time></trkpt><trkpt lat="46.083545850220176" lon="11.508849232036647"><ele>708.3333333333334</ele><time>2026-05-02T10:22:03.999Z</time></trkpt><trkpt lat="46.08361049167064" lon="11.508868331886134"><ele>711.6666666666667</ele><time>2026-05-02T10:22:04.999Z</time></trkpt><trkpt lat="46.08366655340551" lon="11.508912868094201"><ele>715.0</ele><time>2026-05-02T10:22:05.999Z</time></trkpt><trkpt lat="46.08372615574228" lon="11.508960019716346"><ele>715.0</ele><time>2026-05-02T10:22:06.999Z</time></trkpt><trkpt lat="46.08379099106494" lon="11.509007575869179"><ele>715.0</ele><time>2026-05-02T10:22:07.999Z</time></trkpt><trkpt lat="46.083858785623455" lon="11.509073897506376"><ele>715.0</ele><time>2026-05-02T10:22:08.999Z</time></trkpt><trkpt lat="46.083937184101124" lon="11.509127371652493"><ele>715.0</ele><time>2026-05-02T10:22:09.999Z</time></trkpt><trkpt lat="46.08401464182779" lon="11.509160039093835"><ele>715.0</ele><time>2026-05-02T10:22:10.999Z</time></trkpt><trkpt lat="46.08409027146906" lon="11.509217064379577"><ele>715.0</ele><time>2026-05-02T10:22:11.999Z</time></trkpt><trkpt lat="46.08416666535011" lon="11.509270144962425"><ele>714.3333333333334</ele><time>2026-05-02T10:22:12.999Z</time></trkpt><trkpt lat="46.08424034714789" lon="11.509321297084943"><ele>713.6666666666667</ele><time>2026-05-02T10:22:13.999Z</time></trkpt><trkpt lat="46.08431110198849" lon="11.509369185074508"><ele>713.0</ele><time>2026-05-02T10:22:14.999Z</time></trkpt><trkpt lat="46.084373864795225" lon="11.509420100659954"><ele>712.3333333333334</ele><time>2026-05-02T10:22:15.999Z</time></trkpt><trkpt lat="46.08444277091684" lon="11.509466699503395"><ele>711.6666666666666</ele><time>2026-05-02T10:22:16.999Z</time></trkpt><trkpt lat="46.08451257769264" lon="11.509517511528049"><ele>711.0</ele><time>2026-05-02T10:22:17.999Z</time></trkpt><trkpt lat="46.084588144859325" lon="11.50957191907441"><ele>714.1999999999999</ele><time>2026-05-02T10:22:18.999Z</time></trkpt><trkpt lat="46.084670056838206" lon="11.509625764385092"><ele>717.4</ele><time>2026-05-02T10:22:19.999Z</time></trkpt><trkpt lat="46.0847579827676" lon="11.50968631220253"><ele>720.6</ele><time>2026-05-02T10:22:20.999Z</time></trkpt><trkpt lat="46.08484276250043" lon="11.509746207796539"><ele>723.8</ele><time>2026-05-02T10:22:21.999Z</time></trkpt><trkpt lat="46.084930926479736" lon="11.509807269051068"><ele>727.0</ele><time>2026-05-02T10:22:22.999Z</time></trkpt><trkpt lat="46.08502462726316" lon="11.509873384123058"><ele>727.0</ele><time>2026-05-02T10:22:23.999Z</time></trkpt><trkpt lat="46.08512954093283" lon="11.509919830538092"><ele>727.0</ele><time>2026-05-02T10:22:24.999Z</time></trkpt><trkpt lat="46.08524234255142" lon="11.509936433748406"><ele>727.0</ele><time>2026-05-02T10:22:25.999Z</time></trkpt><trkpt lat="46.08535107196611" lon="11.509939479305686"><ele>727.0</ele><time>2026-05-02T10:22:26.999Z</time></trkpt><trkpt lat="46.08545467537115" lon="11.509957774648315"><ele>727.0</ele><time>2026-05-02T10:22:27.999Z</time></trkpt><trkpt lat="46.08555711078906" lon="11.509933143941508"><ele>727.0</ele><time>2026-05-02T10:22:28.999Z</time></trkpt><trkpt lat="46.0856411774121" lon="11.509849034740236"><ele>727.0</ele><time>2026-05-02T10:22:29.999Z</time></trkpt><trkpt lat="46.08571392008681" lon="11.509743728855852"><ele>727.0</ele><time>2026-05-02T10:22:30.999Z</time></trkpt><trkpt lat="46.08578693877407" lon="11.509634008502518"><ele>727.0</ele><time>2026-05-02T10:22:31.999Z</time></trkpt><trkpt lat="46.08585099539162" lon="11.509528045417978"><ele>727.0</ele><time>2026-05-02T10:22:32.999Z</time></trkpt><trkpt lat="46.085921139713314" lon="11.509452884268171"><ele>726.4000000000001</ele><time>2026-05-02T10:22:33.999Z</time></trkpt><trkpt lat="46.086005051258965" lon="11.509386001917134"><ele>725.8000000000001</ele><time>2026-05-02T10:22:34.999Z</time></trkpt><trkpt lat="46.086100361592706" lon="11.509376770149846"><ele>725.2</ele><time>2026-05-02T10:22:35.999Z</time></trkpt><trkpt lat="46.08621027667151" lon="11.509404772716806"><ele>724.6</ele><time>2026-05-02T10:22:36.999Z</time></trkpt><trkpt lat="46.08633644221181" lon="11.50942362203354"><ele>724.0</ele><time>2026-05-02T10:22:37.999Z</time></trkpt><trkpt lat="46.086454732896385" lon="11.509454208366135"><ele>724.0</ele><time>2026-05-02T10:22:38.999Z</time></trkpt><trkpt lat="46.08657384936735" lon="11.509474884300957"><ele>724.0</ele><time>2026-05-02T10:22:39.999Z</time></trkpt><trkpt lat="46.086680824231784" lon="11.509505937180617"><ele>724.0</ele><time>2026-05-02T10:22:40.999Z</time></trkpt><trkpt lat="46.086796737865704" lon="11.509503464642027"><ele>724.0</ele><time>2026-05-02T10:22:41.999Z</time></trkpt><trkpt lat="46.086912498678835" lon="11.509481576038182"><ele>728.75</ele><time>2026-05-02T10:22:42.999Z</time></trkpt><trkpt lat="46.087027470418526" lon="11.50945669736705"><ele>733.5</ele><time>2026-05-02T10:22:43.999Z</time></trkpt><trkpt lat="46.087136637926605" lon="11.5093830507054"><ele>738.25</ele><time>2026-05-02T10:22:44.999Z</time></trkpt><trkpt lat="46.08725106356323" lon="11.509291226368545"><ele>743.0</ele><time>2026-05-02T10:22:45.999Z</time></trkpt><trkpt lat="46.08736079992614" lon="11.509192578446287"><ele>750.2</ele><time>2026-05-02T10:22:46.999Z</time></trkpt><trkpt lat="46.08745330799429" lon="11.509087104358878"><ele>757.4</ele><time>2026-05-02T10:22:47.999Z</time></trkpt><trkpt lat="46.08753814961986" lon="11.508986608343466"><ele>764.6</ele><time>2026-05-02T10:22:48.999Z</time></trkpt><trkpt lat="46.08764466962499" lon="11.508965842249054"><ele>771.8000000000001</ele><time>2026-05-02T10:22:49.999Z</time></trkpt><trkpt lat="46.087747014002375" lon="11.508960080807485"><ele>779.0</ele><time>2026-05-02T10:22:50.999Z</time></trkpt><trkpt lat="46.087848666232865" lon="11.508921284898896"><ele>779.0</ele><time>2026-05-02T10:22:51.999Z</time></trkpt><trkpt lat="46.08795359000084" lon="11.508841038195428"><ele>779.0</ele><time>2026-05-02T10:22:52.999Z</time></trkpt><trkpt lat="46.08805358482725" lon="11.508761677225362"><ele>779.0</ele><time>2026-05-02T10:22:53.999Z</time></trkpt><trkpt lat="46.088160735112275" lon="11.508686950991699"><ele>779.0</ele><time>2026-05-02T10:22:54.999Z</time></trkpt><trkpt lat="46.08826480779459" lon="11.508624060526397"><ele>777.5000000000001</ele><time>2026-05-02T10:22:55.999Z</time></trkpt><trkpt lat="46.0883636654893" lon="11.508567745981589"><ele>776.0</ele><time>2026-05-02T10:22:56.999Z</time></trkpt><trkpt lat="46.088454442418126" lon="11.508522228321526"><ele>774.5</ele><time>2026-05-02T10:22:57.999Z</time></trkpt><trkpt lat="46.088534348153495" lon="11.508489862932489"><ele>773.0</ele><time>2026-05-02T10:22:58.999Z</time></trkpt><trkpt lat="46.088602767222994" lon="11.508455909343077"><ele>771.5000000000001</ele><time>2026-05-02T10:22:59.999Z</time></trkpt><trkpt lat="46.088677057509635" lon="11.508421645836254"><ele>770.0</ele><time>2026-05-02T10:23:00.999Z</time></trkpt><trkpt lat="46.0887558982419" lon="11.508449162113823"><ele>770.0000000000001</ele><time>2026-05-02T10:23:01.999Z</time></trkpt><trkpt lat="46.088841321911595" lon="11.508511067682699"><ele>770.0</ele><time>2026-05-02T10:23:02.999Z</time></trkpt><trkpt lat="46.08893282173427" lon="11.508530199067009"><ele>770.0</ele><time>2026-05-02T10:23:03.999Z</time></trkpt><trkpt lat="46.08902003914586" lon="11.508537127241194"><ele>770.0</ele><time>2026-05-02T10:23:04.999Z</time></trkpt><trkpt lat="46.089103395266974" lon="11.508518244805128"><ele>770.0000000000001</ele><time>2026-05-02T10:23:05.999Z</time></trkpt><trkpt lat="46.08918335791403" lon="11.508529772792304"><ele>770.0</ele><time>2026-05-02T10:23:06.998Z</time></trkpt><trkpt lat="46.089257362927135" lon="11.508558419027585"><ele>774.3333333333334</ele><time>2026-05-02T10:23:07.998Z</time></trkpt><trkpt lat="46.089323204978385" lon="11.508607211244156"><ele>778.6666666666667</ele><time>2026-05-02T10:23:08.998Z</time></trkpt><trkpt lat="46.08938780040383" lon="11.508617439576838"><ele>783.0</ele><time>2026-05-02T10:23:09.998Z</time></trkpt><trkpt lat="46.089454580818824" lon="11.508552202995922"><ele>787.3333333333333</ele><time>2026-05-02T10:23:10.998Z</time></trkpt><trkpt lat="46.08953530793414" lon="11.50851184863557"><ele>791.6666666666666</ele><time>2026-05-02T10:23:11.998Z</time></trkpt><trkpt lat="46.08960795463805" lon="11.508429094113147"><ele>796.0</ele><time>2026-05-02T10:23:12.998Z</time></trkpt><trkpt lat="46.089697316925324" lon="11.508394158187034"><ele>796.0</ele><time>2026-05-02T10:23:13.998Z</time></trkpt><trkpt lat="46.08979565465865" lon="11.508368981308063"><ele>796.0</ele><time>2026-05-02T10:23:14.998Z</time></trkpt><trkpt lat="46.08990143058314" lon="11.50834614369865"><ele>796.0</ele><time>2026-05-02T10:23:15.998Z</time></trkpt><trkpt lat="46.090008619538416" lon="11.508320714368983"><ele>796.0</ele><time>2026-05-02T10:23:16.998Z</time></trkpt><trkpt lat="46.0901117157351" lon="11.50829714897932"><ele>796.0</ele><time>2026-05-02T10:23:17.998Z</time></trkpt><trkpt lat="46.090210508229625" lon="11.50827173562896"><ele>799.5999999999999</ele><time>2026-05-02T10:23:18.998Z</time></trkpt><trkpt lat="46.0903088013951" lon="11.508283571162401"><ele>803.2</ele><time>2026-05-02T10:23:19.998Z</time></trkpt><trkpt lat="46.09039992578331" lon="11.508319583161008"><ele>806.8</ele><time>2026-05-02T10:23:20.998Z</time></trkpt><trkpt lat="46.090485428328705" lon="11.508366366192178"><ele>810.4000000000001</ele><time>2026-05-02T10:23:21.998Z</time></trkpt><trkpt lat="46.090573285057566" lon="11.508411010459763"><ele>814.0</ele><time>2026-05-02T10:23:22.998Z</time></trkpt><trkpt lat="46.09065510429735" lon="11.508442695786176"><ele>814.0</ele><time>2026-05-02T10:23:23.998Z</time></trkpt><trkpt lat="46.090739284861336" lon="11.508450456659784"><ele>814.0</ele><time>2026-05-02T10:23:24.998Z</time></trkpt><trkpt lat="46.09082965223831" lon="11.508417569508188"><ele>814.0</ele><time>2026-05-02T10:23:25.998Z</time></trkpt><trkpt lat="46.090927441068764" lon="11.508367441217377"><ele>814.0</ele><time>2026-05-02T10:23:26.998Z</time></trkpt><trkpt lat="46.091030721914855" lon="11.508296573465584"><ele>814.0</ele><time>2026-05-02T10:23:27.998Z</time></trkpt><trkpt lat="46.09113851939081" lon="11.508221647720271"><ele>817.0</ele><time>2026-05-02T10:23:28.998Z</time></trkpt><trkpt lat="46.091246657814594" lon="11.508150384530383"><ele>820.0</ele><time>2026-05-02T10:23:29.998Z</time></trkpt><trkpt lat="46.091348631085914" lon="11.508076981403953"><ele>823.0</ele><time>2026-05-02T10:23:31Z</time></trkpt><trkpt lat="46.09144384724865" lon="11.508007440979767"><ele>826.0</ele><time>2026-05-02T10:23:32Z</time></trkpt><trkpt lat="46.09152798816178" lon="11.507936767489177"><ele>829.0</ele><time>2026-05-02T10:23:33Z</time></trkpt><trkpt lat="46.09160377762583" lon="11.50786387139094"><ele>828.9999999999999</ele><time>2026-05-02T10:23:34Z</time></trkpt><trkpt lat="46.091674205645425" lon="11.5077908593178"><ele>829.0</ele><time>2026-05-02T10:23:34.999Z</time></trkpt><trkpt lat="46.09174263204992" lon="11.507717435199385"><ele>829.0</ele><time>2026-05-02T10:23:35.999Z</time></trkpt><trkpt lat="46.091805963112215" lon="11.507640006475828"><ele>829.0</ele><time>2026-05-02T10:23:36.999Z</time></trkpt><trkpt lat="46.09187677502896" lon="11.507571492319517"><ele>828.9999999999999</ele><time>2026-05-02T10:23:37.999Z</time></trkpt><trkpt lat="46.0919318836479" lon="11.50748106601995"><ele>829.0</ele><time>2026-05-02T10:23:38.999Z</time></trkpt><trkpt lat="46.091991201632595" lon="11.507390271478009"><ele>828.9999999999999</ele><time>2026-05-02T10:23:39.999Z</time></trkpt><trkpt lat="46.09206041436326" lon="11.507311176919996"><ele>829.0</ele><time>2026-05-02T10:23:41Z</time></trkpt><trkpt lat="46.092125414804464" lon="11.50723333260767"><ele>829.0</ele><time>2026-05-02T10:23:41.999Z</time></trkpt><trkpt lat="46.09218965575405" lon="11.507153773226397"><ele>829.0</ele><time>2026-05-02T10:23:43Z</time></trkpt><trkpt lat="46.092258502466215" lon="11.50707458357727"><ele>828.9999999999999</ele><time>2026-05-02T10:23:44Z</time></trkpt><trkpt lat="46.0923363345072" lon="11.507017702217375"><ele>829.0</ele><time>2026-05-02T10:23:45Z</time></trkpt><trkpt lat="46.09242079664886" lon="11.506988260669164"><ele>830.0</ele><time>2026-05-02T10:23:45.999Z</time></trkpt><trkpt lat="46.0925165031027" lon="11.506969789132606"><ele>831.0</ele><time>2026-05-02T10:23:46.999Z</time></trkpt><trkpt lat="46.09262011203445" lon="11.506937892898975"><ele>832.0</ele><time>2026-05-02T10:23:47.999Z</time></trkpt><trkpt lat="46.09272750502506" lon="11.506918176608739"><ele>833.0</ele><time>2026-05-02T10:23:48.999Z</time></trkpt><trkpt lat="46.092828604134624" lon="11.506911048572572"><ele>834.0</ele><time>2026-05-02T10:23:49.999Z</time></trkpt><trkpt lat="46.09293374934942" lon="11.506964357243982"><ele>834.0</ele><time>2026-05-02T10:23:51.999Z</time></trkpt><trkpt lat="46.09301337834657" lon="11.507033609839832"><ele>834.0</ele><time>2026-05-02T10:23:52.999Z</time></trkpt><trkpt lat="46.09311116292383" lon="11.507091700205889"><ele>834.0</ele><time>2026-05-02T10:23:53.999Z</time></trkpt><trkpt lat="46.09320815054064" lon="11.507144607689598"><ele>834.0</ele><time>2026-05-02T10:23:54.999Z</time></trkpt><trkpt lat="46.093318310785676" lon="11.507195684670437"><ele>834.0</ele><time>2026-05-02T10:23:55.999Z</time></trkpt><trkpt lat="46.0934268126401" lon="11.507212842385334"><ele>845.0</ele><time>2026-05-02T10:23:56.999Z</time></trkpt><trkpt lat="46.09352776430542" lon="11.507237607901912"><ele>856.0</ele><time>2026-05-02T10:23:57.999Z</time></trkpt><trkpt lat="46.09362166749198" lon="11.507317902718002"><ele>867.0000000000001</ele><time>2026-05-02T10:23:58.999Z</time></trkpt><trkpt lat="46.09371577241873" lon="11.50739147404089"><ele>878.0</ele><time>2026-05-02T10:23:59.999Z</time></trkpt><trkpt lat="46.09382331720246" lon="11.507437025050226"><ele>889.0</ele><time>2026-05-02T10:24:00.999Z</time></trkpt><trkpt lat="46.09394064891552" lon="11.507426651415226"><ele>889.0</ele><time>2026-05-02T10:24:01.999Z</time></trkpt><trkpt lat="46.09405475696377" lon="11.507424003700692"><ele>889.0000000000001</ele><time>2026-05-02T10:24:02.999Z</time></trkpt><trkpt lat="46.094149555717244" lon="11.507484643202698"><ele>889.0000000000001</ele><time>2026-05-02T10:24:03.999Z</time></trkpt><trkpt lat="46.094239374626405" lon="11.507548860124057"><ele>889.0</ele><time>2026-05-02T10:24:04.999Z</time></trkpt><trkpt lat="46.09433478796489" lon="11.50760488241897"><ele>889.0</ele><time>2026-05-02T10:24:05.999Z</time></trkpt><trkpt lat="46.09442839533745" lon="11.507662926577797"><ele>888.0</ele><time>2026-05-02T10:24:06.999Z</time></trkpt><trkpt lat="46.094520166467966" lon="11.507734821559177"><ele>887.0000000000001</ele><time>2026-05-02T10:24:07.999Z</time></trkpt><trkpt lat="46.09459068735915" lon="11.50783092773047"><ele>886.0000000000001</ele><time>2026-05-02T10:24:08.999Z</time></trkpt><trkpt lat="46.09464046525535" lon="11.507948957271223"><ele>885.0</ele><time>2026-05-02T10:24:09.999Z</time></trkpt><trkpt lat="46.09469578306491" lon="11.50806828506104"><ele>884.0</ele><time>2026-05-02T10:24:10.999Z</time></trkpt><trkpt lat="46.0947524349895" lon="11.508188147512964"><ele>886.0</ele><time>2026-05-02T10:24:11.999Z</time></trkpt><trkpt lat="46.09481139051796" lon="11.508313521104228"><ele>888.0000000000001</ele><time>2026-05-02T10:24:12.999Z</time></trkpt><trkpt lat="46.09488124788336" lon="11.508441569120011"><ele>890.0000000000001</ele><time>2026-05-02T10:24:13.999Z</time></trkpt><trkpt lat="46.09493811080984" lon="11.508569007969761"><ele>892.0</ele><time>2026-05-02T10:24:14.999Z</time></trkpt><trkpt lat="46.094994780168506" lon="11.508682381429846"><ele>894.0</ele><time>2026-05-02T10:24:15.999Z</time></trkpt><trkpt lat="46.09504762895735" lon="11.508782245651188"><ele>900.0</ele><time>2026-05-02T10:24:16.999Z</time></trkpt><trkpt lat="46.095143057195074" lon="11.50881839229677"><ele>906.0000000000001</ele><time>2026-05-02T10:24:17.999Z</time></trkpt><trkpt lat="46.09524148494741" lon="11.50885204867658"><ele>912.0000000000001</ele><time>2026-05-02T10:24:18.999Z</time></trkpt><trkpt lat="46.09534351759088" lon="11.508885023168657"><ele>918.0</ele><time>2026-05-02T10:24:19.999Z</time></trkpt><trkpt lat="46.095447797530184" lon="11.508919027020799"><ele>924.0</ele><time>2026-05-02T10:24:20.999Z</time></trkpt><trkpt lat="46.09555253899902" lon="11.508928831489209"><ele>924.0</ele><time>2026-05-02T10:24:21.999Z</time></trkpt><trkpt lat="46.09565309735066" lon="11.508900248159556"><ele>924.0</ele><time>2026-05-02T10:24:22.999Z</time></trkpt><trkpt lat="46.09575283934834" lon="11.50881831745855"><ele>924.0</ele><time>2026-05-02T10:24:23.999Z</time></trkpt><trkpt lat="46.0958530368478" lon="11.508721918291442"><ele>924.0</ele><time>2026-05-02T10:24:24.999Z</time></trkpt><trkpt lat="46.09597375722243" lon="11.508646255311351"><ele>913.5</ele><time>2026-05-02T10:24:25.999Z</time></trkpt><trkpt lat="46.096086961588156" lon="11.508521300026958"><ele>903.0</ele><time>2026-05-02T10:24:26.999Z</time></trkpt><trkpt lat="46.09621481069015" lon="11.508421918601458"><ele>892.5</ele><time>2026-05-02T10:24:27.999Z</time></trkpt><trkpt lat="46.09634019198405" lon="11.50834586926272"><ele>882.0</ele><time>2026-05-02T10:24:28.999Z</time></trkpt><trkpt lat="46.09646021275901" lon="11.508299817869421"><ele>882.0</ele><time>2026-05-02T10:24:29.999Z</time></trkpt><trkpt lat="46.0965648102293" lon="11.508273912323794"><ele>882.0</ele><time>2026-05-02T10:24:30.999Z</time></trkpt><trkpt lat="46.09667090379922" lon="11.508249049146745"><ele>882.0</ele><time>2026-05-02T10:24:31.999Z</time></trkpt><trkpt lat="46.09677264471253" lon="11.50819353541647"><ele>882.0</ele><time>2026-05-02T10:24:32.999Z</time></trkpt><trkpt lat="46.09687255981367" lon="11.508117833599643"><ele>882.0</ele><time>2026-05-02T10:24:33.999Z</time></trkpt><trkpt lat="46.096965485098806" lon="11.508039757603436"><ele>888.2</ele><time>2026-05-02T10:24:34.999Z</time></trkpt><trkpt lat="46.09704354702331" lon="11.507972282497045"><ele>894.4000000000001</ele><time>2026-05-02T10:24:35.999Z</time></trkpt><trkpt lat="46.097108331880825" lon="11.50791460129323"><ele>900.5999999999999</ele><time>2026-05-02T10:24:36.999Z</time></trkpt><trkpt lat="46.097190787019315" lon="11.507808769252133"><ele>906.8</ele><time>2026-05-02T10:24:38.999Z</time></trkpt><trkpt lat="46.09728082074284" lon="11.507711657263373"><ele>913.0</ele><time>2026-05-02T10:24:40.999Z</time></trkpt><trkpt lat="46.09733369424456" lon="11.50763705410606"><ele>912.8333333333333</ele><time>2026-05-02T10:24:41.999Z</time></trkpt><trkpt lat="46.097392271008225" lon="11.507564193354284"><ele>912.6666666666666</ele><time>2026-05-02T10:24:42.999Z</time></trkpt><trkpt lat="46.097464698219454" lon="11.50750453815366"><ele>912.5</ele><time>2026-05-02T10:24:43.999Z</time></trkpt><trkpt lat="46.09753773275023" lon="11.507427684857124"><ele>912.3333333333333</ele><time>2026-05-02T10:24:44.999Z</time></trkpt><trkpt lat="46.09761694939496" lon="11.507374463789766"><ele>912.1666666666666</ele><time>2026-05-02T10:24:45.999Z</time></trkpt><trkpt lat="46.097664303017616" lon="11.507263723365124"><ele>912.0</ele><time>2026-05-02T10:24:46.999Z</time></trkpt><trkpt lat="46.097742104071635" lon="11.507195905126133"><ele>912.0</ele><time>2026-05-02T10:24:47.999Z</time></trkpt><trkpt lat="46.09780555594886" lon="11.507138746303488"><ele>912.0</ele><time>2026-05-02T10:24:48.999Z</time></trkpt><trkpt lat="46.09786422597228" lon="11.507089234802125"><ele>912.0</ele><time>2026-05-02T10:24:49.999Z</time></trkpt><trkpt lat="46.09793877585418" lon="11.507036440483454"><ele>912.0</ele><time>2026-05-02T10:24:50.999Z</time></trkpt><trkpt lat="46.09802744206248" lon="11.506981966799634"><ele>912.0</ele><time>2026-05-02T10:24:51.999Z</time></trkpt><trkpt lat="46.09815983534214" lon="11.506924009763807"><ele>911.25</ele><time>2026-05-02T10:24:52.999Z</time></trkpt><trkpt lat="46.098285662063816" lon="11.506864903831673"><ele>910.5</ele><time>2026-05-02T10:24:53.999Z</time></trkpt><trkpt lat="46.098408339868314" lon="11.506804978740039"><ele>909.75</ele><time>2026-05-02T10:24:54.999Z</time></trkpt><trkpt lat="46.09852580487797" lon="11.506751769959003"><ele>909.0</ele><time>2026-05-02T10:24:55.999Z</time></trkpt><trkpt lat="46.098631555729774" lon="11.506708596614427"><ele>909.0</ele><time>2026-05-02T10:24:56.999Z</time></trkpt><trkpt lat="46.098729371868735" lon="11.506668980913453"><ele>909.0</ele><time>2026-05-02T10:24:57.999Z</time></trkpt><trkpt lat="46.09883763264531" lon="11.506638875298755"><ele>909.0</ele><time>2026-05-02T10:24:58.999Z</time></trkpt><trkpt lat="46.09895208804047" lon="11.506609285493722"><ele>909.0</ele><time>2026-05-02T10:24:59.999Z</time></trkpt><trkpt lat="46.09907211801277" lon="11.506578790135917"><ele>913.75</ele><time>2026-05-02T10:25:00.999Z</time></trkpt><trkpt lat="46.099190676001975" lon="11.506573068494882"><ele>918.5</ele><time>2026-05-02T10:25:01.999Z</time></trkpt><trkpt lat="46.09931224290843" lon="11.506560762233436"><ele>923.25</ele><time>2026-05-02T10:25:02.999Z</time></trkpt><trkpt lat="46.0994328361874" lon="11.506540166669321"><ele>928.0</ele><time>2026-05-02T10:25:03.999Z</time></trkpt><trkpt lat="46.09955033853887" lon="11.506532595414333"><ele>928.0</ele><time>2026-05-02T10:25:04.999Z</time></trkpt><trkpt lat="46.0996775786546" lon="11.506543396380891"><ele>928.0</ele><time>2026-05-02T10:25:05.999Z</time></trkpt><trkpt lat="46.09980708432586" lon="11.50652469065429"><ele>928.0</ele><time>2026-05-02T10:25:06.999Z</time></trkpt><trkpt lat="46.09993476049591" lon="11.50650498644111"><ele>928.0</ele><time>2026-05-02T10:25:07.999Z</time></trkpt><trkpt lat="46.100071039307856" lon="11.506484681274596"><ele>928.0</ele><time>2026-05-02T10:25:08.999Z</time></trkpt><trkpt lat="46.10021110298664" lon="11.506464348979161"><ele>928.0</ele><time>2026-05-02T10:25:09.999Z</time></trkpt><trkpt lat="46.100348618372436" lon="11.506419733494647"><ele>928.0</ele><time>2026-05-02T10:25:10.999Z</time></trkpt><trkpt lat="46.10048465917948" lon="11.506408778778063"><ele>928.0</ele><time>2026-05-02T10:25:11.999Z</time></trkpt><trkpt lat="46.10061675363524" lon="11.506392000321926"><ele>928.0</ele><time>2026-05-02T10:25:12.999Z</time></trkpt><trkpt lat="46.10073276918228" lon="11.506368324895643"><ele>928.0</ele><time>2026-05-02T10:25:13.999Z</time></trkpt><trkpt lat="46.100842100552825" lon="11.506343966794235"><ele>928.0</ele><time>2026-05-02T10:25:14.999Z</time></trkpt><trkpt lat="46.10094196621174" lon="11.506328827717319"><ele>928.0</ele><time>2026-05-02T10:25:15.999Z</time></trkpt><trkpt lat="46.10104093790051" lon="11.506322295344326"><ele>928.0</ele><time>2026-05-02T10:25:16.998Z</time></trkpt><trkpt lat="46.10113906616027" lon="11.506331410649597"><ele>929.4</ele><time>2026-05-02T10:25:17.998Z</time></trkpt><trkpt lat="46.101238229541636" lon="11.506375276274166"><ele>930.8</ele><time>2026-05-02T10:25:18.998Z</time></trkpt><trkpt lat="46.1013291097048" lon="11.50644325366139"><ele>932.2</ele><time>2026-05-02T10:25:19.998Z</time></trkpt><trkpt lat="46.10142567619761" lon="11.506515192671586"><ele>933.6</ele><time>2026-05-02T10:25:20.998Z</time></trkpt><trkpt lat="46.101511547475454" lon="11.506578648610118"><ele>935.0</ele><time>2026-05-02T10:25:21.998Z</time></trkpt><trkpt lat="46.10161050383556" lon="11.506608177451968"><ele>935.0</ele><time>2026-05-02T10:25:22.998Z</time></trkpt><trkpt lat="46.10171415329233" lon="11.506599203112073"><ele>935.0</ele><time>2026-05-02T10:25:23.998Z</time></trkpt><trkpt lat="46.10183177823825" lon="11.506583579593764"><ele>935.0</ele><time>2026-05-02T10:25:24.998Z</time></trkpt><trkpt lat="46.10195568872946" lon="11.506569649731443"><ele>935.0</ele><time>2026-05-02T10:25:25.998Z</time></trkpt><trkpt lat="46.10206606721861" lon="11.506557142770566"><ele>935.0</ele><time>2026-05-02T10:25:26.998Z</time></trkpt><trkpt lat="46.10216795372398" lon="11.50657531788759"><ele>935.0</ele><time>2026-05-02T10:25:27.998Z</time></trkpt><trkpt lat="46.10226837912152" lon="11.506558931947604"><ele>935.0</ele><time>2026-05-02T10:25:28.998Z</time></trkpt><trkpt lat="46.102368752991346" lon="11.506568493236724"><ele>935.0</ele><time>2026-05-02T10:25:29.998Z</time></trkpt><trkpt lat="46.10247286073832" lon="11.50660266272086"><ele>935.0</ele><time>2026-05-02T10:25:30.998Z</time></trkpt><trkpt lat="46.10257009875188" lon="11.506648949091865"><ele>936.0000000000001</ele><time>2026-05-02T10:25:31.998Z</time></trkpt><trkpt lat="46.10266435765515" lon="11.506663494735049"><ele>937.0</ele><time>2026-05-02T10:25:32.998Z</time></trkpt><trkpt lat="46.10274953348351" lon="11.506645363012781"><ele>938.0</ele><time>2026-05-02T10:25:33.998Z</time></trkpt><trkpt lat="46.102826816476735" lon="11.506612354159639"><ele>939.0</ele><time>2026-05-02T10:25:34.998Z</time></trkpt><trkpt lat="46.10290490742103" lon="11.50654874461961"><ele>940.0000000000001</ele><time>2026-05-02T10:25:35.998Z</time></trkpt><trkpt lat="46.10298261515502" lon="11.506464107768148"><ele>941.0</ele><time>2026-05-02T10:25:37Z</time></trkpt><trkpt lat="46.10306358639136" lon="11.506379196416905"><ele>941.0</ele><time>2026-05-02T10:25:38Z</time></trkpt><trkpt lat="46.10315784822645" lon="11.50636389210518"><ele>940.9999999999999</ele><time>2026-05-02T10:25:39Z</time></trkpt><trkpt lat="46.10325090079925" lon="11.506349883154254"><ele>940.9999999999999</ele><time>2026-05-02T10:25:40Z</time></trkpt><trkpt lat="46.103347548061976" lon="11.506332871694811"><ele>941.0</ele><time>2026-05-02T10:25:41Z</time></trkpt><trkpt lat="46.1034407806486" lon="11.506315844497353"><ele>941.0</ele><time>2026-05-02T10:25:42Z</time></trkpt><trkpt lat="46.10353642974572" lon="11.506287417865721"><ele>942.1666666666667</ele><time>2026-05-02T10:25:43Z</time></trkpt><trkpt lat="46.103635501303806" lon="11.506269280838609"><ele>943.3333333333334</ele><time>2026-05-02T10:25:44Z</time></trkpt><trkpt lat="46.10372887800586" lon="11.506256927118406"><ele>944.5</ele><time>2026-05-02T10:25:45Z</time></trkpt><trkpt lat="46.10381432123658" lon="11.506241638249925"><ele>945.6666666666667</ele><time>2026-05-02T10:25:46Z</time></trkpt><trkpt lat="46.10389692782388" lon="11.506231276339562"><ele>946.8333333333334</ele><time>2026-05-02T10:25:47Z</time></trkpt><trkpt lat="46.10397924585279" lon="11.506235765210127"><ele>948.0</ele><time>2026-05-02T10:25:48Z</time></trkpt><trkpt lat="46.10406029557289" lon="11.506271720247321"><ele>947.1666666666666</ele><time>2026-05-02T10:25:49Z</time></trkpt><trkpt lat="46.1041371737629" lon="11.506337049437104"><ele>946.3333333333333</ele><time>2026-05-02T10:25:50Z</time></trkpt><trkpt lat="46.104207220478195" lon="11.506418531776427"><ele>945.5</ele><time>2026-05-02T10:25:51Z</time></trkpt><trkpt lat="46.104262181116745" lon="11.506508041633454"><ele>944.6666666666666</ele><time>2026-05-02T10:25:52Z</time></trkpt><trkpt lat="46.10430525929111" lon="11.506591006144326"><ele>943.8333333333333</ele><time>2026-05-02T10:25:53Z</time></trkpt><trkpt lat="46.10434266341691" lon="11.50668107802607"><ele>943.0</ele><time>2026-05-02T10:25:54Z</time></trkpt><trkpt lat="46.10438567751216" lon="11.50675723431116"><ele>943.0</ele><time>2026-05-02T10:25:55Z</time></trkpt><trkpt lat="46.1044524016332" lon="11.50679196908276"><ele>943.0</ele><time>2026-05-02T10:25:56Z</time></trkpt><trkpt lat="46.10453540702898" lon="11.506751750156925"><ele>943.0</ele><time>2026-05-02T10:25:57Z</time></trkpt><trkpt lat="46.104623484515464" lon="11.506704293055122"><ele>943.0</ele><time>2026-05-02T10:25:58Z</time></trkpt><trkpt lat="46.10471054655978" lon="11.506633796298923"><ele>943.0</ele><time>2026-05-02T10:25:59Z</time></trkpt><trkpt lat="46.10482190362897" lon="11.506566657306816"><ele>945.8</ele><time>2026-05-02T10:25:59.999Z</time></trkpt><trkpt lat="46.10494013761216" lon="11.506520531982762"><ele>948.5999999999999</ele><time>2026-05-02T10:26:00.999Z</time></trkpt><trkpt lat="46.10504721903974" lon="11.506509141738603"><ele>951.4000000000001</ele><time>2026-05-02T10:26:01.999Z</time></trkpt><trkpt lat="46.10514086147554" lon="11.50648953734102"><ele>954.2</ele><time>2026-05-02T10:26:02.999Z</time></trkpt><trkpt lat="46.10522330571485" lon="11.506475429001833"><ele>957.0</ele><time>2026-05-02T10:26:03.999Z</time></trkpt><trkpt lat="46.10529443488327" lon="11.506427953024001"><ele>957.0</ele><time>2026-05-02T10:26:04.999Z</time></trkpt><trkpt lat="46.105351659702734" lon="11.506346517661669"><ele>957.0</ele><time>2026-05-02T10:26:05.999Z</time></trkpt><trkpt lat="46.10542770628325" lon="11.506191633349776"><ele>957.0</ele><time>2026-05-02T10:26:07.999Z</time></trkpt><trkpt lat="46.10544279026076" lon="11.506088295978781"><ele>957.0</ele><time>2026-05-02T10:26:08.999Z</time></trkpt><trkpt lat="46.1054956890478" lon="11.505945119228818"><ele>957.0</ele><time>2026-05-02T10:26:10.999Z</time></trkpt><trkpt lat="46.1056010996178" lon="11.505860166171459"><ele>952.1666666666666</ele><time>2026-05-02T10:26:12.999Z</time></trkpt><trkpt lat="46.10568136612364" lon="11.50586922334772"><ele>947.3333333333333</ele><time>2026-05-02T10:26:13.999Z</time></trkpt><trkpt lat="46.10575554157854" lon="11.505960469406238"><ele>942.5</ele><time>2026-05-02T10:26:14.999Z</time></trkpt><trkpt lat="46.105845596150225" lon="11.505986697345769"><ele>937.6666666666666</ele><time>2026-05-02T10:26:15.999Z</time></trkpt><trkpt lat="46.105926070296" lon="11.506042429524701"><ele>932.8333333333333</ele><time>2026-05-02T10:26:16.999Z</time></trkpt><trkpt lat="46.10600548256994" lon="11.506050631841317"><ele>928.0</ele><time>2026-05-02T10:26:17.999Z</time></trkpt><trkpt lat="46.10608013513504" lon="11.506007627649058"><ele>928.0</ele><time>2026-05-02T10:26:18.999Z</time></trkpt><trkpt lat="46.10616545043776" lon="11.505937042457704"><ele>928.0</ele><time>2026-05-02T10:26:19.999Z</time></trkpt><trkpt lat="46.10626108473287" lon="11.505932129947928"><ele>928.0</ele><time>2026-05-02T10:26:20.999Z</time></trkpt><trkpt lat="46.10634787997082" lon="11.505937864205697"><ele>928.0</ele><time>2026-05-02T10:26:21.999Z</time></trkpt><trkpt lat="46.10643381108883" lon="11.505944384641195"><ele>928.0</ele><time>2026-05-02T10:26:22.999Z</time></trkpt><trkpt lat="46.106522156428305" lon="11.50597349696411"><ele>931.0</ele><time>2026-05-02T10:26:23.999Z</time></trkpt><trkpt lat="46.106604625568544" lon="11.505975321439216"><ele>934.0</ele><time>2026-05-02T10:26:24.999Z</time></trkpt><trkpt lat="46.10670501848707" lon="11.505975186993341"><ele>937.0</ele><time>2026-05-02T10:26:25.999Z</time></trkpt><trkpt lat="46.10679765519982" lon="11.505964757746064"><ele>940.0</ele><time>2026-05-02T10:26:26.999Z</time></trkpt><trkpt lat="46.10688094693726" lon="11.50595369159773"><ele>943.0</ele><time>2026-05-02T10:26:27.999Z</time></trkpt><trkpt lat="46.10697369412079" lon="11.5059540186101"><ele>942.9999999999999</ele><time>2026-05-02T10:26:28.999Z</time></trkpt><trkpt lat="46.10706221700287" lon="11.505917906819775"><ele>943.0</ele><time>2026-05-02T10:26:29.999Z</time></trkpt><trkpt lat="46.107140588970864" lon="11.505834953073297"><ele>943.0</ele><time>2026-05-02T10:26:30.999Z</time></trkpt><trkpt lat="46.1072195928494" lon="11.505761427133573"><ele>943.0</ele><time>2026-05-02T10:26:31.999Z</time></trkpt><trkpt lat="46.1072951166876" lon="11.505725219697544"><ele>942.9999999999999</ele><time>2026-05-02T10:26:32.999Z</time></trkpt><trkpt lat="46.10736837594122" lon="11.505727944827358"><ele>943.0</ele><time>2026-05-02T10:26:33.999Z</time></trkpt><trkpt lat="46.10744542462458" lon="11.505742016769087"><ele>945.5999999999999</ele><time>2026-05-02T10:26:34.999Z</time></trkpt><trkpt lat="46.10752980555411" lon="11.505739758519411"><ele>948.1999999999999</ele><time>2026-05-02T10:26:35.999Z</time></trkpt><trkpt lat="46.107622638287694" lon="11.505777458778974"><ele>950.8</ele><time>2026-05-02T10:26:36.999Z</time></trkpt><trkpt lat="46.10772428605308" lon="11.505785736696614"><ele>953.4</ele><time>2026-05-02T10:26:37.999Z</time></trkpt><trkpt lat="46.10782079239437" lon="11.505779438363566"><ele>956.0</ele><time>2026-05-02T10:26:38.999Z</time></trkpt><trkpt lat="46.10792507511495" lon="11.505769813522548"><ele>956.0</ele><time>2026-05-02T10:26:39.999Z</time></trkpt><trkpt lat="46.108034418206394" lon="11.50575674328276"><ele>955.9999999999999</ele><time>2026-05-02T10:26:40.999Z</time></trkpt><trkpt lat="46.10813600622979" lon="11.505740828084305"><ele>955.9999999999999</ele><time>2026-05-02T10:26:41.999Z</time></trkpt><trkpt lat="46.1082150540537" lon="11.505723210487668"><ele>956.0</ele><time>2026-05-02T10:26:42.999Z</time></trkpt><trkpt lat="46.108298463834615" lon="11.50571859517445"><ele>956.0</ele><time>2026-05-02T10:26:43.999Z</time></trkpt><trkpt lat="46.10838378138081" lon="11.505708565244424"><ele>960.3333333333334</ele><time>2026-05-02T10:26:44.999Z</time></trkpt><trkpt lat="46.10847323564448" lon="11.505670903377258"><ele>964.6666666666667</ele><time>2026-05-02T10:26:45.999Z</time></trkpt><trkpt lat="46.108564608397366" lon="11.505655021948966"><ele>969.0</ele><time>2026-05-02T10:26:46.999Z</time></trkpt><trkpt lat="46.10865260525983" lon="11.505632399443689"><ele>973.3333333333333</ele><time>2026-05-02T10:26:47.999Z</time></trkpt><trkpt lat="46.10873909964665" lon="11.505608768522873"><ele>977.6666666666666</ele><time>2026-05-02T10:26:48.999Z</time></trkpt><trkpt lat="46.10881528833582" lon="11.505567038064394"><ele>982.0</ele><time>2026-05-02T10:26:49.999Z</time></trkpt><trkpt lat="46.10890662996948" lon="11.505586358609483"><ele>982.0</ele><time>2026-05-02T10:26:50.999Z</time></trkpt><trkpt lat="46.109000394599" lon="11.505562786743175"><ele>982.0</ele><time>2026-05-02T10:26:51.999Z</time></trkpt><trkpt lat="46.10909193285802" lon="11.505538541909436"><ele>982.0</ele><time>2026-05-02T10:26:52.999Z</time></trkpt><trkpt lat="46.10918281984682" lon="11.505529007085984"><ele>982.0</ele><time>2026-05-02T10:26:53.999Z</time></trkpt><trkpt lat="46.109270808020504" lon="11.505490835743467"><ele>982.0</ele><time>2026-05-02T10:26:54.999Z</time></trkpt><trkpt lat="46.109368733440846" lon="11.505460535548929"><ele>986.4000000000001</ele><time>2026-05-02T10:26:55.999Z</time></trkpt><trkpt lat="46.10947194865827" lon="11.505429120376748"><ele>990.8000000000001</ele><time>2026-05-02T10:26:56.999Z</time></trkpt><trkpt lat="46.109570227817834" lon="11.505404459352363"><ele>995.2</ele><time>2026-05-02T10:26:57.999Z</time></trkpt><trkpt lat="46.10966816648124" lon="11.505378730432582"><ele>999.6</ele><time>2026-05-02T10:26:58.999Z</time></trkpt><trkpt lat="46.10975900709329" lon="11.505345326354876"><ele>1004.0</ele><time>2026-05-02T10:26:59.999Z</time></trkpt><trkpt lat="46.10984471635584" lon="11.505316604485099"><ele>999.8333333333334</ele><time>2026-05-02T10:27:00.999Z</time></trkpt><trkpt lat="46.10992356061142" lon="11.5053300889103"><ele>995.6666666666667</ele><time>2026-05-02T10:27:01.999Z</time></trkpt><trkpt lat="46.109994650291135" lon="11.50533226835468"><ele>991.5</ele><time>2026-05-02T10:27:02.999Z</time></trkpt><trkpt lat="46.11005974274616" lon="11.505341811322666"><ele>987.3333333333333</ele><time>2026-05-02T10:27:03.999Z</time></trkpt><trkpt lat="46.11013208579625" lon="11.505351345770402"><ele>983.1666666666666</ele><time>2026-05-02T10:27:04.999Z</time></trkpt><trkpt lat="46.11020788011136" lon="11.505363406475647"><ele>979.0</ele><time>2026-05-02T10:27:05.999Z</time></trkpt><trkpt lat="46.11029452001521" lon="11.505395415565495"><ele>978.9999999999999</ele><time>2026-05-02T10:27:06.999Z</time></trkpt><trkpt lat="46.11039006999554" lon="11.50540844499931"><ele>979.0</ele><time>2026-05-02T10:27:07.999Z</time></trkpt><trkpt lat="46.110478388087074" lon="11.505405674307188"><ele>979.0</ele><time>2026-05-02T10:27:08.999Z</time></trkpt><trkpt lat="46.11055856175809" lon="11.5054305220655"><ele>979.0</ele><time>2026-05-02T10:27:09.999Z</time></trkpt><trkpt lat="46.11064072075652" lon="11.505440685149996"><ele>978.9999999999999</ele><time>2026-05-02T10:27:10.999Z</time></trkpt><trkpt lat="46.110710299348234" lon="11.505424559685279"><ele>979.0</ele><time>2026-05-02T10:27:11.999Z</time></trkpt><trkpt lat="46.110778025679885" lon="11.505450645681604"><ele>982.1428571428571</ele><time>2026-05-02T10:27:12.999Z</time></trkpt><trkpt lat="46.11084794444986" lon="11.505451087703992"><ele>985.2857142857143</ele><time>2026-05-02T10:27:13.999Z</time></trkpt><trkpt lat="46.11091229748108" lon="11.50541371277756"><ele>988.4285714285714</ele><time>2026-05-02T10:27:14.999Z</time></trkpt><trkpt lat="46.11097830816964" lon="11.505368988022012"><ele>991.5714285714286</ele><time>2026-05-02T10:27:15.999Z</time></trkpt><trkpt lat="46.1110258124111" lon="11.505292081907797"><ele>994.7142857142858</ele><time>2026-05-02T10:27:16.999Z</time></trkpt><trkpt lat="46.11105535616849" lon="11.505185455342376"><ele>997.8571428571429</ele><time>2026-05-02T10:27:17.999Z</time></trkpt><trkpt lat="46.1110615727615" lon="11.505075868066934"><ele>1001.0</ele><time>2026-05-02T10:27:18.999Z</time></trkpt><trkpt lat="46.111017387464415" lon="11.504976536373317"><ele>1001.0</ele><time>2026-05-02T10:27:19.999Z</time></trkpt><trkpt lat="46.1109830992508" lon="11.504892662498149"><ele>1000.9999999999999</ele><time>2026-05-02T10:27:20.999Z</time></trkpt><trkpt lat="46.110946210317366" lon="11.504737121556696"><ele>1000.9999999999999</ele><time>2026-05-02T10:27:22.999Z</time></trkpt><trkpt lat="46.11094056601455" lon="11.504571052329096"><ele>1001.0</ele><time>2026-05-02T10:27:24.999Z</time></trkpt><trkpt lat="46.11096500242342" lon="11.504443102052214"><ele>1001.0</ele><time>2026-05-02T10:27:25.999Z</time></trkpt><trkpt lat="46.111008615257056" lon="11.504327760595013"><ele>997.8</ele><time>2026-05-02T10:27:26.999Z</time></trkpt><trkpt lat="46.111049558275035" lon="11.504214386910652"><ele>994.5999999999999</ele><time>2026-05-02T10:27:27.999Z</time></trkpt><trkpt lat="46.11110880935111" lon="11.504148116071526"><ele>991.4</ele><time>2026-05-02T10:27:28.999Z</time></trkpt><trkpt lat="46.11121412016165" lon="11.50406044077919"><ele>988.2</ele><time>2026-05-02T10:27:30.999Z</time></trkpt><trkpt lat="46.11132175802297" lon="11.504088168873139"><ele>985.0</ele><time>2026-05-02T10:27:32.999Z</time></trkpt><trkpt lat="46.111381808534865" lon="11.504134161744325"><ele>984.9999999999999</ele><time>2026-05-02T10:27:33.999Z</time></trkpt><trkpt lat="46.11149532669327" lon="11.50417061810086"><ele>985.0</ele><time>2026-05-02T10:27:35.998Z</time></trkpt><trkpt lat="46.111591160708535" lon="11.504208901168758"><ele>985.0</ele><time>2026-05-02T10:27:37.998Z</time></trkpt><trkpt lat="46.111639206659866" lon="11.504314769241956"><ele>985.0</ele><time>2026-05-02T10:27:39.998Z</time></trkpt><trkpt lat="46.111620335151315" lon="11.504402345566735"><ele>984.9999999999999</ele><time>2026-05-02T10:27:40.998Z</time></trkpt><trkpt lat="46.111578712495785" lon="11.504486798446615"><ele>985.0</ele><time>2026-05-02T10:27:41.998Z</time></trkpt><trkpt lat="46.11152434661286" lon="11.504551067347414"><ele>987.6666666666666</ele><time>2026-05-02T10:27:43Z</time></trkpt><trkpt lat="46.111468301580906" lon="11.504593707447135"><ele>990.3333333333333</ele><time>2026-05-02T10:27:44Z</time></trkpt><trkpt lat="46.11140660507091" lon="11.50462191278371"><ele>993.0</ele><time>2026-05-02T10:27:45Z</time></trkpt><trkpt lat="46.111330787778876" lon="11.504737426278488"><ele>995.6666666666667</ele><time>2026-05-02T10:27:47Z</time></trkpt><trkpt lat="46.11136762553934" lon="11.504904860376937"><ele>998.3333333333334</ele><time>2026-05-02T10:27:49Z</time></trkpt><trkpt lat="46.11142924772661" lon="11.504965706930546"><ele>1001.0</ele><time>2026-05-02T10:27:49.999Z</time></trkpt><trkpt lat="46.111498838213784" lon="11.505005547017129"><ele>1005.3333333333334</ele><time>2026-05-02T10:27:50.999Z</time></trkpt><trkpt lat="46.11157545500034" lon="11.505012009028013"><ele>1009.6666666666667</ele><time>2026-05-02T10:27:51.999Z</time></trkpt><trkpt lat="46.11165576848132" lon="11.504981871656694"><ele>1014.0</ele><time>2026-05-02T10:27:53Z</time></trkpt><trkpt lat="46.11172961224006" lon="11.504911453144654"><ele>1018.3333333333333</ele><time>2026-05-02T10:27:54Z</time></trkpt><trkpt lat="46.11178625072271" lon="11.504816105447713"><ele>1022.6666666666666</ele><time>2026-05-02T10:27:55Z</time></trkpt><trkpt lat="46.11184134755602" lon="11.504736246152522"><ele>1027.0</ele><time>2026-05-02T10:27:56Z</time></trkpt><trkpt lat="46.11192137211829" lon="11.50470128534057"><ele>1027.0</ele><time>2026-05-02T10:27:57Z</time></trkpt><trkpt lat="46.112010539356184" lon="11.504735566094903"><ele>1027.0</ele><time>2026-05-02T10:27:58Z</time></trkpt><trkpt lat="46.11211918509649" lon="11.504734673836136"><ele>1027.0</ele><time>2026-05-02T10:27:59Z</time></trkpt><trkpt lat="46.11222136175419" lon="11.504723822481129"><ele>1027.0</ele><time>2026-05-02T10:28:00Z</time></trkpt><trkpt lat="46.112320878922176" lon="11.504721175505292"><ele>1027.0</ele><time>2026-05-02T10:28:01Z</time></trkpt><trkpt lat="46.112426607151505" lon="11.504685231887262"><ele>1029.75</ele><time>2026-05-02T10:28:02Z</time></trkpt><trkpt lat="46.11253917202941" lon="11.504642834741228"><ele>1032.5</ele><time>2026-05-02T10:28:03Z</time></trkpt><trkpt lat="46.112660782385035" lon="11.50459280040958"><ele>1035.25</ele><time>2026-05-02T10:28:04Z</time></trkpt><trkpt lat="46.11276792532892" lon="11.504536909534483"><ele>1038.0</ele><time>2026-05-02T10:28:05Z</time></trkpt><trkpt lat="46.11286525833742" lon="11.504469514400808"><ele>1038.0</ele><time>2026-05-02T10:28:06Z</time></trkpt><trkpt lat="46.11296011956749" lon="11.504387612022295"><ele>1038.0</ele><time>2026-05-02T10:28:07Z</time></trkpt><trkpt lat="46.11305218558449" lon="11.504301564406427"><ele>1038.0</ele><time>2026-05-02T10:28:07.999Z</time></trkpt><trkpt lat="46.1131451555676" lon="11.504215622691126"><ele>1038.0</ele><time>2026-05-02T10:28:08.999Z</time></trkpt><trkpt lat="46.11324094388078" lon="11.504134137475521"><ele>1038.0</ele><time>2026-05-02T10:28:09.999Z</time></trkpt><trkpt lat="46.11333634882114" lon="11.504055047654138"><ele>1039.8</ele><time>2026-05-02T10:28:10.999Z</time></trkpt><trkpt lat="46.1134179689271" lon="11.503987385296307"><ele>1041.6</ele><time>2026-05-02T10:28:11.999Z</time></trkpt><trkpt lat="46.11350124140552" lon="11.503918353118744"><ele>1043.4</ele><time>2026-05-02T10:28:12.999Z</time></trkpt><trkpt lat="46.11358368240882" lon="11.503849186934868"><ele>1045.2</ele><time>2026-05-02T10:28:13.999Z</time></trkpt><trkpt lat="46.11366619533539" lon="11.503779243959228"><ele>1047.0</ele><time>2026-05-02T10:28:14.999Z</time></trkpt><trkpt lat="46.11375022175571" lon="11.503708018039159"><ele>1047.0</ele><time>2026-05-02T10:28:15.999Z</time></trkpt><trkpt lat="46.11383238439662" lon="11.503637727298747"><ele>1047.0</ele><time>2026-05-02T10:28:16.999Z</time></trkpt><trkpt lat="46.11390721975301" lon="11.503573159368967"><ele>1047.0</ele><time>2026-05-02T10:28:17.999Z</time></trkpt><trkpt lat="46.113977369162214" lon="11.503511754492287"><ele>1047.0</ele><time>2026-05-02T10:28:18.999Z</time></trkpt><trkpt lat="46.11404665523229" lon="11.503448525311661"><ele>1047.0</ele><time>2026-05-02T10:28:19.999Z</time></trkpt><trkpt lat="46.114114029847606" lon="11.503385294288602"><ele>1047.0</ele><time>2026-05-02T10:28:20.999Z</time></trkpt><trkpt lat="46.1141912024097" lon="11.503309142497693"><ele>1049.0</ele><time>2026-05-02T10:28:21.999Z</time></trkpt><trkpt lat="46.11426256666886" lon="11.503237943028003"><ele>1051.0</ele><time>2026-05-02T10:28:22.999Z</time></trkpt><trkpt lat="46.114327552572284" lon="11.503169966673058"><ele>1053.0</ele><time>2026-05-02T10:28:23.999Z</time></trkpt><trkpt lat="46.11440284170965" lon="11.503089480988937"><ele>1055.0</ele><time>2026-05-02T10:28:24.999Z</time></trkpt><trkpt lat="46.11447881539855" lon="11.503003531654315"><ele>1057.0</ele><time>2026-05-02T10:28:25.999Z</time></trkpt><trkpt lat="46.11454350206222" lon="11.502905279371221"><ele>1057.0</ele><time>2026-05-02T10:28:26.999Z</time></trkpt><trkpt lat="46.114633315740896" lon="11.50284557358267"><ele>1057.0</ele><time>2026-05-02T10:28:27.999Z</time></trkpt><trkpt lat="46.114704764580054" lon="11.502765233202009"><ele>1057.0</ele><time>2026-05-02T10:28:28.999Z</time></trkpt><trkpt lat="46.11476855013736" lon="11.50269026433996"><ele>1057.0</ele><time>2026-05-02T10:28:29.999Z</time></trkpt><trkpt lat="46.11482904382567" lon="11.502620468868686"><ele>1057.0</ele><time>2026-05-02T10:28:30.999Z</time></trkpt><trkpt lat="46.11487883181538" lon="11.502535991040682"><ele>1057.0</ele><time>2026-05-02T10:28:31.999Z</time></trkpt><trkpt lat="46.114979237128715" lon="11.502434598648925"><ele>1064.0</ele><time>2026-05-02T10:28:33.999Z</time></trkpt><trkpt lat="46.11504633325353" lon="11.502375900089786"><ele>1071.0</ele><time>2026-05-02T10:28:34.999Z</time></trkpt><trkpt lat="46.11512680012303" lon="11.502287784902226"><ele>1078.0</ele><time>2026-05-02T10:28:35.999Z</time></trkpt><trkpt lat="46.11522765245029" lon="11.502229665892932"><ele>1085.0</ele><time>2026-05-02T10:28:36.999Z</time></trkpt><trkpt lat="46.11532921958692" lon="11.502160253708679"><ele>1092.0</ele><time>2026-05-02T10:28:37.999Z</time></trkpt><trkpt lat="46.11543592234258" lon="11.50210269625847"><ele>1092.8</ele><time>2026-05-02T10:28:38.999Z</time></trkpt><trkpt lat="46.115534673951174" lon="11.502017330096217"><ele>1093.6</ele><time>2026-05-02T10:28:39.999Z</time></trkpt><trkpt lat="46.11561849718649" lon="11.50190610344494"><ele>1094.3999999999999</ele><time>2026-05-02T10:28:40.999Z</time></trkpt><trkpt lat="46.115697236127964" lon="11.501799923050225"><ele>1095.2</ele><time>2026-05-02T10:28:41.999Z</time></trkpt><trkpt lat="46.11576899199327" lon="11.50170717326916"><ele>1096.0</ele><time>2026-05-02T10:28:42.999Z</time></trkpt><trkpt lat="46.115848858889315" lon="11.501645566303255"><ele>1096.0</ele><time>2026-05-02T10:28:43.999Z</time></trkpt><trkpt lat="46.115924315893444" lon="11.501572292664992"><ele>1096.0</ele><time>2026-05-02T10:28:44.999Z</time></trkpt><trkpt lat="46.11600404224345" lon="11.50149744123122"><ele>1096.0</ele><time>2026-05-02T10:28:45.999Z</time></trkpt><trkpt lat="46.116085393608806" lon="11.501424613533013"><ele>1096.0</ele><time>2026-05-02T10:28:46.999Z</time></trkpt><trkpt lat="46.11617220822509" lon="11.501347571240899"><ele>1096.0</ele><time>2026-05-02T10:28:47.999Z</time></trkpt><trkpt lat="46.11626425922698" lon="11.501265881988918"><ele>1097.3999999999999</ele><time>2026-05-02T10:28:48.999Z</time></trkpt><trkpt lat="46.116354512318345" lon="11.501182636293953"><ele>1098.8</ele><time>2026-05-02T10:28:49.999Z</time></trkpt><trkpt lat="46.1164461585372" lon="11.501104193840389"><ele>1100.1999999999998</ele><time>2026-05-02T10:28:50.999Z</time></trkpt><trkpt lat="46.116537132217985" lon="11.501026189148359"><ele>1101.6</ele><time>2026-05-02T10:28:51.999Z</time></trkpt><trkpt lat="46.11662386182597" lon="11.500955996892829"><ele>1103.0</ele><time>2026-05-02T10:28:52.999Z</time></trkpt><trkpt lat="46.11671285263996" lon="11.50088795244944"><ele>1103.0</ele><time>2026-05-02T10:28:53.999Z</time></trkpt><trkpt lat="46.11680211240876" lon="11.500817856033056"><ele>1103.0</ele><time>2026-05-02T10:28:54.999Z</time></trkpt><trkpt lat="46.116892039495674" lon="11.50073140869746"><ele>1103.0</ele><time>2026-05-02T10:28:55.999Z</time></trkpt><trkpt lat="46.11698243315784" lon="11.500631080883926"><ele>1103.0</ele><time>2026-05-02T10:28:56.999Z</time></trkpt><trkpt lat="46.11706801713865" lon="11.500533376899748"><ele>1103.0</ele><time>2026-05-02T10:28:57.999Z</time></trkpt><trkpt lat="46.117156826421976" lon="11.500472397677646"><ele>1102.8333333333335</ele><time>2026-05-02T10:28:58.999Z</time></trkpt><trkpt lat="46.11723101452387" lon="11.50040488313253"><ele>1102.6666666666667</ele><time>2026-05-02T10:28:59.999Z</time></trkpt><trkpt lat="46.11730605114227" lon="11.500336114206275"><ele>1102.5</ele><time>2026-05-02T10:29:00.999Z</time></trkpt><trkpt lat="46.117382705252915" lon="11.500265438433955"><ele>1102.3333333333333</ele><time>2026-05-02T10:29:01.999Z</time></trkpt><trkpt lat="46.11745706063149" lon="11.500196882117157"><ele>1102.1666666666665</ele><time>2026-05-02T10:29:02.999Z</time></trkpt><trkpt lat="46.117534453444925" lon="11.500125525296186"><ele>1102.0</ele><time>2026-05-02T10:29:03.999Z</time></trkpt><trkpt lat="46.11761381048237" lon="11.50005469339587"><ele>1102.0</ele><time>2026-05-02T10:29:04.999Z</time></trkpt><trkpt lat="46.11769595601351" lon="11.499981803707845"><ele>1102.0</ele><time>2026-05-02T10:29:05.999Z</time></trkpt><trkpt lat="46.11777629023377" lon="11.49991052124695"><ele>1102.0</ele><time>2026-05-02T10:29:06.999Z</time></trkpt><trkpt lat="46.1178610847182" lon="11.499838271003254"><ele>1102.0</ele><time>2026-05-02T10:29:07.999Z</time></trkpt><trkpt lat="46.117945212652515" lon="11.499766855092904"><ele>1102.0</ele><time>2026-05-02T10:29:08.999Z</time></trkpt><trkpt lat="46.11803181122198" lon="11.499695604769826"><ele>1102.0</ele><time>2026-05-02T10:29:09.999Z</time></trkpt><trkpt lat="46.11811122344039" lon="11.499630267240722"><ele>1102.0</ele><time>2026-05-02T10:29:10.999Z</time></trkpt><trkpt lat="46.11817708064936" lon="11.499548058191868"><ele>1102.0</ele><time>2026-05-02T10:29:11.999Z</time></trkpt><trkpt lat="46.11824801936928" lon="11.499493501239153"><ele>1102.0</ele><time>2026-05-02T10:29:12.999Z</time></trkpt><trkpt lat="46.11831219753168" lon="11.499450189855276"><ele>1102.0</ele><time>2026-05-02T10:29:13.999Z</time></trkpt><trkpt lat="46.11840682724289" lon="11.49935024885732"><ele>1102.0</ele><time>2026-05-02T10:29:15.999Z</time></trkpt><trkpt lat="46.11848812200639" lon="11.49926065728527"><ele>1102.2857142857142</ele><time>2026-05-02T10:29:17.999Z</time></trkpt><trkpt lat="46.118567522606845" lon="11.499206660258963"><ele>1102.5714285714284</ele><time>2026-05-02T10:29:19.999Z</time></trkpt><trkpt lat="46.118614651918165" lon="11.499145023268388"><ele>1102.857142857143</ele><time>2026-05-02T10:29:21.999Z</time></trkpt><trkpt lat="46.11867570644122" lon="11.499111681930064"><ele>1103.142857142857</ele><time>2026-05-02T10:29:28.999Z</time></trkpt><trkpt lat="46.11861397476958" lon="11.499080162307443"><ele>1103.4285714285716</ele><time>2026-05-02T10:33:33.999Z</time></trkpt><trkpt lat="46.11865444711337" lon="11.49900515903136"><ele>1103.7142857142858</ele><time>2026-05-02T10:35:25.999Z</time></trkpt><trkpt lat="46.11872300402588" lon="11.499006755522828"><ele>1104.0</ele><time>2026-05-02T10:35:40.999Z</time></trkpt><trkpt lat="46.118770685450365" lon="11.498932126323213"><ele>1104.0</ele><time>2026-05-02T10:36:01.999Z</time></trkpt><trkpt lat="46.118835569133665" lon="11.498867712474588"><ele>1104.0</ele><time>2026-05-02T10:36:08Z</time></trkpt><trkpt lat="46.11888558183838" lon="11.498803665900946"><ele>1104.0</ele><time>2026-05-02T10:36:17Z</time></trkpt><trkpt lat="46.11894956500655" lon="11.498773400515846"><ele>1104.0</ele><time>2026-05-02T10:36:25Z</time></trkpt><trkpt lat="46.11901730914199" lon="11.498768841706537"><ele>1104.0</ele><time>2026-05-02T10:36:39Z</time></trkpt><trkpt lat="46.11905430996513" lon="11.49868537589526"><ele>1104.0</ele><time>2026-05-02T10:36:42Z</time></trkpt><trkpt lat="46.119124864712575" lon="11.498634504237996"><ele>1104.0</ele><time>2026-05-02T10:36:46Z</time></trkpt><trkpt lat="46.11906317726983" lon="11.49867530365149"><ele>1104.0</ele><time>2026-05-02T10:36:54Z</time></trkpt><trkpt lat="46.118980735102944" lon="11.498695694818798"><ele>1104.0</ele><time>2026-05-02T10:37:10Z</time></trkpt><trkpt lat="46.11894848664246" lon="11.498611720438726"><ele>1104.0</ele><time>2026-05-02T10:37:19.999Z</time></trkpt><trkpt lat="46.118899332739886" lon="11.49853502118371"><ele>1104.0</ele><time>2026-05-02T10:37:25.999Z</time></trkpt><trkpt lat="46.11875610970129" lon="11.498830156933215"><ele>1103.0</ele><time>2026-05-02T10:37:27.999Z</time></trkpt><trkpt lat="46.11885119624974" lon="11.498575748451097"><ele>1102.0</ele><time>2026-05-02T10:37:40.367Z</time></trkpt><trkpt lat="46.11906787046384" lon="11.498312677638822"><ele>1102.0</ele><time>2026-05-02T10:38:20.999Z</time></trkpt><trkpt lat="46.119026049619094" lon="11.498428550958996"><ele>1102.0</ele><time>2026-05-02T10:38:32Z</time></trkpt><trkpt lat="46.1190869327898" lon="11.498480703047917"><ele>1102.0</ele><time>2026-05-02T10:39:02Z</time></trkpt><trkpt lat="46.119018562665346" lon="11.498473106647698"><ele>1102.0</ele><time>2026-05-02T10:39:46.999Z</time></trkpt><trkpt lat="46.11895288110785" lon="11.498471212087438"><ele>1102.0</ele><time>2026-05-02T10:39:51.999Z</time></trkpt><trkpt lat="46.11917031407668" lon="11.498575999299662"><ele>1102.0</ele><time>2026-05-02T10:42:05.998Z</time></trkpt><trkpt lat="46.119110622302365" lon="11.498496288333424"><ele>1102.0</ele><time>2026-05-02T11:00:24.999Z</time></trkpt><trkpt lat="46.119133168061346" lon="11.498593738482656"><ele>1102.0</ele><time>2026-05-02T12:20:59Z</time></trkpt><trkpt lat="46.11907358108408" lon="11.498668598559927"><ele>1102.0</ele><time>2026-05-02T12:21:08Z</time></trkpt><trkpt lat="46.11962720823411" lon="11.49857596698928"><ele>1104.0</ele><time>2026-05-02T12:23:35.014Z</time></trkpt><trkpt lat="46.11886661520738" lon="11.498838761299956"><ele>1104.0</ele><time>2026-05-02T12:23:37.998Z</time></trkpt><trkpt lat="46.11879505701152" lon="11.498871670925883"><ele>1104.0</ele><time>2026-05-02T12:23:39.998Z</time></trkpt><trkpt lat="46.11886528908438" lon="11.498904790353926"><ele>1104.0</ele><time>2026-05-02T12:23:44.025Z</time></trkpt><trkpt lat="46.11898314591852" lon="11.498924550261526"><ele>1104.0</ele><time>2026-05-02T12:23:48Z</time></trkpt><trkpt lat="46.118920512977375" lon="11.498903692003411"><ele>1104.0</ele><time>2026-05-02T12:25:19.999Z</time></trkpt><trkpt lat="46.11884565269222" lon="11.498891335436287"><ele>1104.0</ele><time>2026-05-02T12:25:26.999Z</time></trkpt><trkpt lat="46.118778502904924" lon="11.498906522374174"><ele>1104.0</ele><time>2026-05-02T12:25:35.999Z</time></trkpt><trkpt lat="46.118722305618206" lon="11.498950730637512"><ele>1104.0</ele><time>2026-05-02T12:25:42.999Z</time></trkpt><trkpt lat="46.118661409070384" lon="11.498987701217652"><ele>1104.0</ele><time>2026-05-02T12:25:50Z</time></trkpt><trkpt lat="46.1185995094462" lon="11.498946149517964"><ele>1104.0</ele><time>2026-05-02T12:31:10.999Z</time></trkpt><trkpt lat="46.118530010998434" lon="11.498991932287462"><ele>1104.0</ele><time>2026-05-02T12:32:12.999Z</time></trkpt><trkpt lat="46.11847631226049" lon="11.499043569860763"><ele>1104.0</ele><time>2026-05-02T12:32:14.999Z</time></trkpt><trkpt lat="46.1184103193406" lon="11.49905945106074"><ele>1104.0</ele><time>2026-05-02T12:32:42.999Z</time></trkpt><trkpt lat="46.11836665155037" lon="11.49914386989538"><ele>1104.0</ele><time>2026-05-02T12:32:47.999Z</time></trkpt><trkpt lat="46.11830797549638" lon="11.499236799313799"><ele>1104.0</ele><time>2026-05-02T12:32:49.999Z</time></trkpt><trkpt lat="46.118225484234415" lon="11.499307548078136"><ele>1104.0</ele><time>2026-05-02T12:32:51.999Z</time></trkpt><trkpt lat="46.11813777684574" lon="11.49936341336864"><ele>1104.0</ele><time>2026-05-02T12:32:53.999Z</time></trkpt><trkpt lat="46.11804841678746" lon="11.499431261980083"><ele>1104.0</ele><time>2026-05-02T12:32:55.999Z</time></trkpt><trkpt lat="46.11805034154758" lon="11.4995976520112"><ele>1103.6000000000001</ele><time>2026-05-02T12:32:56.999Z</time></trkpt><trkpt lat="46.117929855139266" lon="11.49969678413221"><ele>1103.2</ele><time>2026-05-02T12:32:58.999Z</time></trkpt><trkpt lat="46.11785856287145" lon="11.499757019386376"><ele>1102.8000000000002</ele><time>2026-05-02T12:32:59.999Z</time></trkpt><trkpt lat="46.11778419923418" lon="11.499820244959702"><ele>1102.4</ele><time>2026-05-02T12:33:00.999Z</time></trkpt><trkpt lat="46.11771021307041" lon="11.499884799487978"><ele>1102.0</ele><time>2026-05-02T12:33:01.999Z</time></trkpt><trkpt lat="46.11763232899533" lon="11.499953907337622"><ele>1102.0</ele><time>2026-05-02T12:33:02.999Z</time></trkpt><trkpt lat="46.11755953594291" lon="11.500018498859166"><ele>1102.0</ele><time>2026-05-02T12:33:03.999Z</time></trkpt><trkpt lat="46.11749537015483" lon="11.500076284726918"><ele>1102.0</ele><time>2026-05-02T12:33:04.999Z</time></trkpt><trkpt lat="46.117429010742384" lon="11.500137468768854"><ele>1102.0</ele><time>2026-05-02T12:33:05.999Z</time></trkpt><trkpt lat="46.11734859669318" lon="11.500211611293393"><ele>1102.0</ele><time>2026-05-02T12:33:06.999Z</time></trkpt><trkpt lat="46.117278908348105" lon="11.500275864297851"><ele>1102.0</ele><time>2026-05-02T12:33:07.999Z</time></trkpt><trkpt lat="46.11719936998546" lon="11.500348726394643"><ele>1102.2</ele><time>2026-05-02T12:33:08.999Z</time></trkpt><trkpt lat="46.11712585742063" lon="11.500415625963003"><ele>1102.4</ele><time>2026-05-02T12:33:09.999Z</time></trkpt><trkpt lat="46.117058986102215" lon="11.500476481725315"><ele>1102.6</ele><time>2026-05-02T12:33:10.999Z</time></trkpt><trkpt lat="46.11697498041121" lon="11.500552931021106"><ele>1102.8</ele><time>2026-05-02T12:33:11.999Z</time></trkpt><trkpt lat="46.116892060449004" lon="11.500626163924885"><ele>1103.0</ele><time>2026-05-02T12:33:12.999Z</time></trkpt><trkpt lat="46.11681643785774" lon="11.500692887007869"><ele>1103.0</ele><time>2026-05-02T12:33:13.999Z</time></trkpt><trkpt lat="46.11673190347866" lon="11.500767472865077"><ele>1103.0</ele><time>2026-05-02T12:33:14.999Z</time></trkpt><trkpt lat="46.11664005480386" lon="11.500824069792426"><ele>1103.0</ele><time>2026-05-02T12:33:15.999Z</time></trkpt><trkpt lat="46.11656684851879" lon="11.50091335604187"><ele>1103.0</ele><time>2026-05-02T12:33:16.999Z</time></trkpt><trkpt lat="46.1164793795572" lon="11.500990777625264"><ele>1103.0</ele><time>2026-05-02T12:33:17.999Z</time></trkpt><trkpt lat="46.116389409298364" lon="11.501070462761852"><ele>1101.8333333333335</ele><time>2026-05-02T12:33:18.999Z</time></trkpt><trkpt lat="46.116314466742956" lon="11.501136969351224"><ele>1100.6666666666667</ele><time>2026-05-02T12:33:19.999Z</time></trkpt><trkpt lat="46.116241863525886" lon="11.501201400010515"><ele>1099.5</ele><time>2026-05-02T12:33:20.999Z</time></trkpt><trkpt lat="46.11617384554979" lon="11.501261761559892"><ele>1098.3333333333333</ele><time>2026-05-02T12:33:21.999Z</time></trkpt><trkpt lat="46.116097098638136" lon="11.501329869246156"><ele>1097.1666666666665</ele><time>2026-05-02T12:33:22.999Z</time></trkpt><trkpt lat="46.11603043851928" lon="11.501389025828994"><ele>1096.0</ele><time>2026-05-02T12:33:23.999Z</time></trkpt><trkpt lat="46.11595877667249" lon="11.501454153463357"><ele>1096.0</ele><time>2026-05-02T12:33:24.999Z</time></trkpt><trkpt lat="46.11587451329091" lon="11.501534158572676"><ele>1096.0</ele><time>2026-05-02T12:33:25.999Z</time></trkpt><trkpt lat="46.11578290520985" lon="11.501611903366568"><ele>1096.0</ele><time>2026-05-02T12:33:26.999Z</time></trkpt><trkpt lat="46.11569932579997" lon="11.501712136483757"><ele>1096.0</ele><time>2026-05-02T12:33:27.999Z</time></trkpt><trkpt lat="46.11561795757599" lon="11.501803910180847"><ele>1096.0</ele><time>2026-05-02T12:33:28.999Z</time></trkpt><trkpt lat="46.11553617757767" lon="11.501891989583536"><ele>1095.2</ele><time>2026-05-02T12:33:29.999Z</time></trkpt><trkpt lat="46.11544600547781" lon="11.501966722910247"><ele>1094.3999999999999</ele><time>2026-05-02T12:33:30.999Z</time></trkpt><trkpt lat="46.11536445102923" lon="11.502060459797185"><ele>1093.6</ele><time>2026-05-02T12:33:31.999Z</time></trkpt><trkpt lat="46.115274972993085" lon="11.502125126916784"><ele>1092.8</ele><time>2026-05-02T12:33:32.999Z</time></trkpt><trkpt lat="46.115188908743406" lon="11.5021844928321"><ele>1092.0</ele><time>2026-05-02T12:33:33.999Z</time></trkpt><trkpt lat="46.11510874832468" lon="11.502242888280293"><ele>1092.0</ele><time>2026-05-02T12:33:34.999Z</time></trkpt><trkpt lat="46.11503501848602" lon="11.502302810388986"><ele>1092.0</ele><time>2026-05-02T12:33:35.999Z</time></trkpt><trkpt lat="46.114974245704694" lon="11.502353725316985"><ele>1092.0</ele><time>2026-05-02T12:33:36.999Z</time></trkpt><trkpt lat="46.11491975250257" lon="11.502405413039673"><ele>1092.0</ele><time>2026-05-02T12:33:37.999Z</time></trkpt><trkpt lat="46.11486366221602" lon="11.50246125454197"><ele>1092.0</ele><time>2026-05-02T12:33:38.999Z</time></trkpt><trkpt lat="46.11479829558271" lon="11.502510558677548"><ele>1092.0</ele><time>2026-05-02T12:33:39.999Z</time></trkpt><trkpt lat="46.114742597337035" lon="11.502602693643547"><ele>1092.0</ele><time>2026-05-02T12:33:40.999Z</time></trkpt><trkpt lat="46.114657344389755" lon="11.502677100028691"><ele>1089.8</ele><time>2026-05-02T12:33:41.999Z</time></trkpt><trkpt lat="46.114579718869415" lon="11.502789981237308"><ele>1087.6</ele><time>2026-05-02T12:33:42.999Z</time></trkpt><trkpt lat="46.11449418259588" lon="11.502891959373123"><ele>1085.3999999999999</ele><time>2026-05-02T12:33:43.999Z</time></trkpt><trkpt lat="46.11440964839671" lon="11.50299083477541"><ele>1083.2</ele><time>2026-05-02T12:33:44.999Z</time></trkpt><trkpt lat="46.11432443550118" lon="11.503083897850155"><ele>1081.0</ele><time>2026-05-02T12:33:45.999Z</time></trkpt><trkpt lat="46.11421921348913" lon="11.503193773478054"><ele>1081.0</ele><time>2026-05-02T12:33:46.999Z</time></trkpt><trkpt lat="46.11412321040483" lon="11.503289172602527"><ele>1081.0</ele><time>2026-05-02T12:33:47.999Z</time></trkpt><trkpt lat="46.11401710542989" lon="11.50336673238879"><ele>1081.0</ele><time>2026-05-02T12:33:48.999Z</time></trkpt><trkpt lat="46.11392521154212" lon="11.50347354563961"><ele>1081.0</ele><time>2026-05-02T12:33:49.999Z</time></trkpt><trkpt lat="46.1138265737548" lon="11.503559028398598"><ele>1078.0</ele><time>2026-05-02T12:33:50.999Z</time></trkpt><trkpt lat="46.11373021434248" lon="11.50364165147552"><ele>1075.0</ele><time>2026-05-02T12:33:51.999Z</time></trkpt><trkpt lat="46.11363339980512" lon="11.503723717385606"><ele>1072.0</ele><time>2026-05-02T12:33:52.999Z</time></trkpt><trkpt lat="46.113523980203404" lon="11.50381646807882"><ele>1069.0</ele><time>2026-05-02T12:33:53.999Z</time></trkpt><trkpt lat="46.1134091902577" lon="11.503886330615353"><ele>1069.0</ele><time>2026-05-02T12:33:54.999Z</time></trkpt><trkpt lat="46.11330850909599" lon="11.503985513219995"><ele>1069.0</ele><time>2026-05-02T12:33:55.999Z</time></trkpt><trkpt lat="46.11320413658481" lon="11.504081406332284"><ele>1069.0</ele><time>2026-05-02T12:33:56.999Z</time></trkpt><trkpt lat="46.11310284079349" lon="11.504177135536498"><ele>1069.0</ele><time>2026-05-02T12:33:57.999Z</time></trkpt><trkpt lat="46.11300058179851" lon="11.504279074364002"><ele>1066.2</ele><time>2026-05-02T12:33:58.999Z</time></trkpt><trkpt lat="46.1129100399221" lon="11.504367275774579"><ele>1063.4</ele><time>2026-05-02T12:33:59.999Z</time></trkpt><trkpt lat="46.11282827863911" lon="11.504445314635175"><ele>1060.6</ele><time>2026-05-02T12:34:00.999Z</time></trkpt><trkpt lat="46.1127355659132" lon="11.504492620957302"><ele>1057.8</ele><time>2026-05-02T12:34:01.999Z</time></trkpt><trkpt lat="46.11263889579764" lon="11.504542303391194"><ele>1055.0</ele><time>2026-05-02T12:34:02.999Z</time></trkpt><trkpt lat="46.11254426677767" lon="11.504587761984258"><ele>1055.0</ele><time>2026-05-02T12:34:03.999Z</time></trkpt><trkpt lat="46.11244570863671" lon="11.504638891939125"><ele>1055.0</ele><time>2026-05-02T12:34:04.999Z</time></trkpt><trkpt lat="46.11234628026414" lon="11.5046835654958"><ele>1055.0</ele><time>2026-05-02T12:34:05.999Z</time></trkpt><trkpt lat="46.11224418425639" lon="11.50471368504646"><ele>1055.0</ele><time>2026-05-02T12:34:06.999Z</time></trkpt><trkpt lat="46.11213961299347" lon="11.504720850837586"><ele>1055.0</ele><time>2026-05-02T12:34:07.999Z</time></trkpt><trkpt lat="46.112039881280296" lon="11.504702787511887"><ele>1050.3333333333335</ele><time>2026-05-02T12:34:08.999Z</time></trkpt><trkpt lat="46.11195987253991" lon="11.50466600591835"><ele>1045.6666666666667</ele><time>2026-05-02T12:34:09.998Z</time></trkpt><trkpt lat="46.11189437934101" lon="11.50467869767823"><ele>1041.0</ele><time>2026-05-02T12:34:10.998Z</time></trkpt><trkpt lat="46.111816616277686" lon="11.504706952979397"><ele>1036.3333333333333</ele><time>2026-05-02T12:34:11.999Z</time></trkpt><trkpt lat="46.111746290052075" lon="11.504809032250522"><ele>1031.6666666666665</ele><time>2026-05-02T12:34:12.999Z</time></trkpt><trkpt lat="46.11168497416196" lon="11.504899863677922"><ele>1027.0</ele><time>2026-05-02T12:34:13.999Z</time></trkpt><trkpt lat="46.11161661317625" lon="11.504949067140537"><ele>1022.6666666666666</ele><time>2026-05-02T12:34:14.999Z</time></trkpt><trkpt lat="46.111551346673764" lon="11.504994135547083"><ele>1018.3333333333333</ele><time>2026-05-02T12:34:15.999Z</time></trkpt><trkpt lat="46.11147683792113" lon="11.504971306310997"><ele>1014.0</ele><time>2026-05-02T12:34:16.999Z</time></trkpt><trkpt lat="46.11141182994078" lon="11.504931623568654"><ele>1009.6666666666667</ele><time>2026-05-02T12:34:17.999Z</time></trkpt><trkpt lat="46.11137941389778" lon="11.50484871370341"><ele>1005.3333333333334</ele><time>2026-05-02T12:34:18.999Z</time></trkpt><trkpt lat="46.11135443877492" lon="11.50470371625958"><ele>1001.0</ele><time>2026-05-02T12:34:20.999Z</time></trkpt><trkpt lat="46.11139608986728" lon="11.504628317248688"><ele>1001.0000000000001</ele><time>2026-05-02T12:34:21.999Z</time></trkpt><trkpt lat="46.111473918513376" lon="11.504632511546957"><ele>1001.0</ele><time>2026-05-02T12:34:22.999Z</time></trkpt><trkpt lat="46.111550620940115" lon="11.504584115534632"><ele>1001.0</ele><time>2026-05-02T12:34:23.999Z</time></trkpt><trkpt lat="46.11161555865773" lon="11.504522708690049"><ele>1001.0</ele><time>2026-05-02T12:34:24.999Z</time></trkpt><trkpt lat="46.11166249103046" lon="11.504444688467808"><ele>1001.0000000000001</ele><time>2026-05-02T12:34:25.999Z</time></trkpt><trkpt lat="46.111662061819445" lon="11.504332941976365"><ele>1001.0</ele><time>2026-05-02T12:34:26.999Z</time></trkpt><trkpt lat="46.11160818417852" lon="11.504175191125665"><ele>998.3333333333334</ele><time>2026-05-02T12:34:28.999Z</time></trkpt><trkpt lat="46.11152834483052" lon="11.504136123457087"><ele>995.6666666666667</ele><time>2026-05-02T12:34:29.999Z</time></trkpt><trkpt lat="46.11143604154213" lon="11.504127991520562"><ele>993.0</ele><time>2026-05-02T12:34:30.999Z</time></trkpt><trkpt lat="46.111355615486644" lon="11.50408484310614"><ele>990.3333333333333</ele><time>2026-05-02T12:34:31.999Z</time></trkpt><trkpt lat="46.111289322416404" lon="11.504022146060802"><ele>987.6666666666666</ele><time>2026-05-02T12:34:32.999Z</time></trkpt><trkpt lat="46.11121360940309" lon="11.504004609591053"><ele>985.0</ele><time>2026-05-02T12:34:33.999Z</time></trkpt><trkpt lat="46.11114037645776" lon="11.504035874468332"><ele>984.9999999999999</ele><time>2026-05-02T12:34:34.999Z</time></trkpt><trkpt lat="46.11107962645956" lon="11.504118214177705"><ele>985.0</ele><time>2026-05-02T12:34:35.999Z</time></trkpt><trkpt lat="46.11103085845822" lon="11.504242555861081"><ele>985.0</ele><time>2026-05-02T12:34:36.999Z</time></trkpt><trkpt lat="46.110981498060845" lon="11.504355908696011"><ele>985.0</ele><time>2026-05-02T12:34:37.999Z</time></trkpt><trkpt lat="46.11093038347236" lon="11.504463996181117"><ele>984.9999999999999</ele><time>2026-05-02T12:34:38.999Z</time></trkpt><trkpt lat="46.110888637662654" lon="11.504566056463137"><ele>985.0</ele><time>2026-05-02T12:34:39.999Z</time></trkpt><trkpt lat="46.110900966570156" lon="11.504748597045515"><ele>987.6666666666666</ele><time>2026-05-02T12:34:41.999Z</time></trkpt><trkpt lat="46.1109532259731" lon="11.504830807505245"><ele>990.3333333333333</ele><time>2026-05-02T12:34:42.999Z</time></trkpt><trkpt lat="46.11096962274427" lon="11.50493319217502"><ele>993.0</ele><time>2026-05-02T12:34:43.999Z</time></trkpt><trkpt lat="46.11100266169321" lon="11.50502463480739"><ele>995.6666666666667</ele><time>2026-05-02T12:34:44.999Z</time></trkpt><trkpt lat="46.1110193420977" lon="11.505184341025188"><ele>998.3333333333334</ele><time>2026-05-02T12:34:46.999Z</time></trkpt><trkpt lat="46.110969674890654" lon="11.505330144939354"><ele>1001.0</ele><time>2026-05-02T12:34:48.999Z</time></trkpt><trkpt lat="46.110868352106486" lon="11.50539799962356"><ele>996.5999999999999</ele><time>2026-05-02T12:34:50.999Z</time></trkpt><trkpt lat="46.11073490145204" lon="11.505401139244322"><ele>992.1999999999999</ele><time>2026-05-02T12:34:52.999Z</time></trkpt><trkpt lat="46.110659790249024" lon="11.505370899677892"><ele>987.8000000000001</ele><time>2026-05-02T12:34:53.999Z</time></trkpt><trkpt lat="46.11057639336762" lon="11.505360731434745"><ele>983.4000000000001</ele><time>2026-05-02T12:34:54.999Z</time></trkpt><trkpt lat="46.11049084232641" lon="11.505359577262622"><ele>979.0</ele><time>2026-05-02T12:34:55.999Z</time></trkpt><trkpt lat="46.110398435308035" lon="11.505361044991567"><ele>979.0</ele><time>2026-05-02T12:34:56.999Z</time></trkpt><trkpt lat="46.110315180853895" lon="11.505357198638904"><ele>979.0</ele><time>2026-05-02T12:34:57.999Z</time></trkpt><trkpt lat="46.110244963556745" lon="11.505337032057694"><ele>979.0</ele><time>2026-05-02T12:34:58.999Z</time></trkpt><trkpt lat="46.11018294524407" lon="11.505303205660077"><ele>979.0</ele><time>2026-05-02T12:34:59.999Z</time></trkpt><trkpt lat="46.1101201370528" lon="11.505268099600203"><ele>979.0</ele><time>2026-05-02T12:35:00.999Z</time></trkpt><trkpt lat="46.11005451600101" lon="11.505268984979928"><ele>979.0</ele><time>2026-05-02T12:35:01.999Z</time></trkpt><trkpt lat="46.10999041474544" lon="11.505241954798809"><ele>979.0</ele><time>2026-05-02T12:35:02.999Z</time></trkpt><trkpt lat="46.10992114378398" lon="11.50525872570163"><ele>973.8000000000001</ele><time>2026-05-02T12:35:03.999Z</time></trkpt><trkpt lat="46.1098470166758" lon="11.505281945647555"><ele>968.6000000000001</ele><time>2026-05-02T12:35:04.999Z</time></trkpt><trkpt lat="46.10975926303483" lon="11.505310605146859"><ele>963.4</ele><time>2026-05-02T12:35:05.999Z</time></trkpt><trkpt lat="46.109659883076034" lon="11.50533504079088"><ele>958.2</ele><time>2026-05-02T12:35:06.999Z</time></trkpt><trkpt lat="46.10955706184972" lon="11.505360314722306"><ele>953.0</ele><time>2026-05-02T12:35:07.999Z</time></trkpt><trkpt lat="46.109457460582895" lon="11.50538134244896"><ele>953.0</ele><time>2026-05-02T12:35:08.999Z</time></trkpt><trkpt lat="46.10935677423526" lon="11.505404341921436"><ele>953.0</ele><time>2026-05-02T12:35:09.999Z</time></trkpt><trkpt lat="46.10925838792354" lon="11.505438672988802"><ele>953.0</ele><time>2026-05-02T12:35:10.999Z</time></trkpt><trkpt lat="46.10915573234239" lon="11.50544866269898"><ele>953.0</ele><time>2026-05-02T12:35:11.999Z</time></trkpt><trkpt lat="46.10905399930312" lon="11.505475607734107"><ele>953.0</ele><time>2026-05-02T12:35:12.999Z</time></trkpt><trkpt lat="46.10895369855169" lon="11.50551761799904"><ele>958.8</ele><time>2026-05-02T12:35:13.999Z</time></trkpt><trkpt lat="46.108851080823825" lon="11.505516875908988"><ele>964.5999999999999</ele><time>2026-05-02T12:35:14.999Z</time></trkpt><trkpt lat="46.10876414730192" lon="11.505514123530203"><ele>970.4000000000001</ele><time>2026-05-02T12:35:15.999Z</time></trkpt><trkpt lat="46.108688415099714" lon="11.505549555944349"><ele>976.2</ele><time>2026-05-02T12:35:16.999Z</time></trkpt><trkpt lat="46.10860238271991" lon="11.505569907166425"><ele>982.0</ele><time>2026-05-02T12:35:17.999Z</time></trkpt><trkpt lat="46.10851262230005" lon="11.505619742271078"><ele>982.0</ele><time>2026-05-02T12:35:18.999Z</time></trkpt><trkpt lat="46.108404545628304" lon="11.505643855043008"><ele>982.0</ele><time>2026-05-02T12:35:19.999Z</time></trkpt><trkpt lat="46.10829091409487" lon="11.505687560778608"><ele>982.0</ele><time>2026-05-02T12:35:20.999Z</time></trkpt><trkpt lat="46.10818046256767" lon="11.505676744029465"><ele>982.0</ele><time>2026-05-02T12:35:21.999Z</time></trkpt><trkpt lat="46.108068234894986" lon="11.505682707535435"><ele>976.8</ele><time>2026-05-02T12:35:22.999Z</time></trkpt><trkpt lat="46.10795697914641" lon="11.505717344870614"><ele>971.6</ele><time>2026-05-02T12:35:23.999Z</time></trkpt><trkpt lat="46.10784427034491" lon="11.50574479575345"><ele>966.3999999999999</ele><time>2026-05-02T12:35:24.999Z</time></trkpt><trkpt lat="46.10773605226146" lon="11.505737367810124"><ele>961.1999999999999</ele><time>2026-05-02T12:35:25.999Z</time></trkpt><trkpt lat="46.107640976771904" lon="11.505729343950074"><ele>956.0</ele><time>2026-05-02T12:35:26.999Z</time></trkpt><trkpt lat="46.10755524111106" lon="11.505714667072581"><ele>956.0000000000001</ele><time>2026-05-02T12:35:27.999Z</time></trkpt><trkpt lat="46.107484519398675" lon="11.505710666627406"><ele>956.0</ele><time>2026-05-02T12:35:28.999Z</time></trkpt><trkpt lat="46.10742171023808" lon="11.505683380876023"><ele>956.0000000000001</ele><time>2026-05-02T12:35:29.999Z</time></trkpt><trkpt lat="46.10735851375395" lon="11.505672164343784"><ele>956.0000000000001</ele><time>2026-05-02T12:35:30.999Z</time></trkpt><trkpt lat="46.10729006405759" lon="11.505687176715213"><ele>956.0</ele><time>2026-05-02T12:35:31.999Z</time></trkpt><trkpt lat="46.10722195967122" lon="11.505728277568396"><ele>956.0000000000001</ele><time>2026-05-02T12:35:32.999Z</time></trkpt><trkpt lat="46.10715623551906" lon="11.505789641949667"><ele>956.0000000000001</ele><time>2026-05-02T12:35:33.999Z</time></trkpt><trkpt lat="46.10709257967026" lon="11.505848258946614"><ele>953.4</ele><time>2026-05-02T12:35:34.999Z</time></trkpt><trkpt lat="46.107018776104105" lon="11.505898883047397"><ele>950.8</ele><time>2026-05-02T12:35:35.999Z</time></trkpt><trkpt lat="46.10692323950579" lon="11.50591276172547"><ele>948.1999999999999</ele><time>2026-05-02T12:35:36.999Z</time></trkpt><trkpt lat="46.10682378913048" lon="11.505920255990187"><ele>945.5999999999999</ele><time>2026-05-02T12:35:37.999Z</time></trkpt><trkpt lat="46.10672286095389" lon="11.505916983753675"><ele>943.0</ele><time>2026-05-02T12:35:38.999Z</time></trkpt><trkpt lat="46.10663278554829" lon="11.505913909146619"><ele>940.4999999999999</ele><time>2026-05-02T12:35:39.999Z</time></trkpt><trkpt lat="46.10656216808157" lon="11.505911158347905"><ele>938.0</ele><time>2026-05-02T12:35:40.999Z</time></trkpt><trkpt lat="46.10649754548267" lon="11.505908192182002"><ele>935.5</ele><time>2026-05-02T12:35:41.999Z</time></trkpt><trkpt lat="46.10643318841202" lon="11.5059163503621"><ele>933.0</ele><time>2026-05-02T12:35:42.999Z</time></trkpt><trkpt lat="46.10631536146101" lon="11.505872126757351"><ele>930.4999999999999</ele><time>2026-05-02T12:35:44.999Z</time></trkpt><trkpt lat="46.106249220284425" lon="11.505866905208878"><ele>928.0</ele><time>2026-05-02T12:35:45.999Z</time></trkpt><trkpt lat="46.106173698469014" lon="11.50589185779166"><ele>927.9999999999999</ele><time>2026-05-02T12:35:46.999Z</time></trkpt><trkpt lat="46.10609926414668" lon="11.50593729523587"><ele>928.0</ele><time>2026-05-02T12:35:47.999Z</time></trkpt><trkpt lat="46.10602162145181" lon="11.505941045275852"><ele>928.0</ele><time>2026-05-02T12:35:48.999Z</time></trkpt><trkpt lat="46.10594358054179" lon="11.505963077912636"><ele>928.0</ele><time>2026-05-02T12:35:49.999Z</time></trkpt><trkpt lat="46.105870926839984" lon="11.505970519897671"><ele>927.9999999999999</ele><time>2026-05-02T12:35:50.999Z</time></trkpt><trkpt lat="46.105813110179284" lon="11.505918246179927"><ele>928.0</ele><time>2026-05-02T12:35:51.999Z</time></trkpt><trkpt lat="46.10570619655572" lon="11.505839325267212"><ele>925.5999999999999</ele><time>2026-05-02T12:35:53.999Z</time></trkpt><trkpt lat="46.10559460216467" lon="11.505831603212881"><ele>923.1999999999999</ele><time>2026-05-02T12:35:55.999Z</time></trkpt><trkpt lat="46.10550842664742" lon="11.505920725820445"><ele>920.8</ele><time>2026-05-02T12:35:57.999Z</time></trkpt><trkpt lat="46.10542367600727" lon="11.506042309310045"><ele>918.4</ele><time>2026-05-02T12:35:59.999Z</time></trkpt><trkpt lat="46.10539562388376" lon="11.506132858573443"><ele>916.0</ele><time>2026-05-02T12:36:00.999Z</time></trkpt><trkpt lat="46.105368269226034" lon="11.506223461597717"><ele>924.1999999999999</ele><time>2026-05-02T12:36:01.999Z</time></trkpt><trkpt lat="46.10528585232078" lon="11.506378040630564"><ele>932.3999999999999</ele><time>2026-05-02T12:36:03.998Z</time></trkpt><trkpt lat="46.105202284914085" lon="11.506414812351288"><ele>940.6</ele><time>2026-05-02T12:36:04.998Z</time></trkpt><trkpt lat="46.10511643574745" lon="11.506453187060055"><ele>948.8</ele><time>2026-05-02T12:36:05.998Z</time></trkpt><trkpt lat="46.10503113112563" lon="11.506479880093016"><ele>957.0</ele><time>2026-05-02T12:36:06.998Z</time></trkpt><trkpt lat="46.10493998024695" lon="11.506497565100561"><ele>954.6666666666666</ele><time>2026-05-02T12:36:07.998Z</time></trkpt><trkpt lat="46.10485186269231" lon="11.506524700369036"><ele>952.3333333333333</ele><time>2026-05-02T12:36:08.998Z</time></trkpt><trkpt lat="46.10476957260923" lon="11.50656011967363"><ele>950.0</ele><time>2026-05-02T12:36:09.998Z</time></trkpt><trkpt lat="46.10469644316644" lon="11.506599049309353"><ele>947.6666666666666</ele><time>2026-05-02T12:36:10.998Z</time></trkpt><trkpt lat="46.104633577568" lon="11.506651887708639"><ele>945.3333333333333</ele><time>2026-05-02T12:36:11.998Z</time></trkpt><trkpt lat="46.104574177297756" lon="11.506702608766407"><ele>943.0</ele><time>2026-05-02T12:36:12.998Z</time></trkpt><trkpt lat="46.10450953996775" lon="11.506727788648368"><ele>943.0</ele><time>2026-05-02T12:36:13.998Z</time></trkpt><trkpt lat="46.10444310560778" lon="11.506717226007378"><ele>943.0000000000001</ele><time>2026-05-02T12:36:14.998Z</time></trkpt><trkpt lat="46.10438314772965" lon="11.506683472609264"><ele>943.0</ele><time>2026-05-02T12:36:15.998Z</time></trkpt><trkpt lat="46.10433849516528" lon="11.506612891316104"><ele>943.0</ele><time>2026-05-02T12:36:16.998Z</time></trkpt><trkpt lat="46.10430618012065" lon="11.506522152540398"><ele>943.0000000000001</ele><time>2026-05-02T12:36:17.998Z</time></trkpt><trkpt lat="46.10426733921092" lon="11.506445006184963"><ele>943.0</ele><time>2026-05-02T12:36:18.998Z</time></trkpt><trkpt lat="46.10419288430867" lon="11.506377857618567"><ele>943.0</ele><time>2026-05-02T12:36:19.998Z</time></trkpt><trkpt lat="46.10413521655161" lon="11.506289590996479"><ele>935.2</ele><time>2026-05-02T12:36:20.998Z</time></trkpt><trkpt lat="46.10402395785968" lon="11.506231677899782"><ele>927.4</ele><time>2026-05-02T12:36:22.998Z</time></trkpt><trkpt lat="46.10390201643423" lon="11.50620177030248"><ele>919.6000000000001</ele><time>2026-05-02T12:36:24.998Z</time></trkpt><trkpt lat="46.10382430025138" lon="11.506205794904234"><ele>911.8000000000001</ele><time>2026-05-02T12:36:25.998Z</time></trkpt><trkpt lat="46.1037304626424" lon="11.506220247661762"><ele>904.0</ele><time>2026-05-02T12:36:26.998Z</time></trkpt><trkpt lat="46.103631943563" lon="11.506235897863448"><ele>911.4000000000001</ele><time>2026-05-02T12:36:27.998Z</time></trkpt><trkpt lat="46.10353302092135" lon="11.506254666912572"><ele>918.8000000000001</ele><time>2026-05-02T12:36:28.998Z</time></trkpt><trkpt lat="46.10343590059073" lon="11.506276193203723"><ele>926.1999999999999</ele><time>2026-05-02T12:36:29.998Z</time></trkpt><trkpt lat="46.103335549725955" lon="11.506291943124422"><ele>933.5999999999999</ele><time>2026-05-02T12:36:30.998Z</time></trkpt><trkpt lat="46.103242705198824" lon="11.506308771014531"><ele>941.0</ele><time>2026-05-02T12:36:31.998Z</time></trkpt><trkpt lat="46.10315957967437" lon="11.506325211345608"><ele>941.0000000000001</ele><time>2026-05-02T12:36:32.998Z</time></trkpt><trkpt lat="46.10308235049467" lon="11.506355268752674"><ele>941.0</ele><time>2026-05-02T12:36:33.998Z</time></trkpt><trkpt lat="46.10301150187856" lon="11.50638444150901"><ele>941.0</ele><time>2026-05-02T12:36:34.998Z</time></trkpt><trkpt lat="46.102938670689525" lon="11.506452907718623"><ele>941.0</ele><time>2026-05-02T12:36:35.998Z</time></trkpt><trkpt lat="46.10287123303753" lon="11.506542782111715"><ele>941.0000000000001</ele><time>2026-05-02T12:36:36.998Z</time></trkpt><trkpt lat="46.10278358516616" lon="11.506567693771222"><ele>941.0</ele><time>2026-05-02T12:36:37.998Z</time></trkpt><trkpt lat="46.10270545036977" lon="11.506612131732888"><ele>941.0</ele><time>2026-05-02T12:36:38.998Z</time></trkpt><trkpt lat="46.10262531184047" lon="11.506614541508085"><ele>940.9999999999999</ele><time>2026-05-02T12:36:39.998Z</time></trkpt><trkpt lat="46.10253716302642" lon="11.506589809858404"><ele>940.9999999999999</ele><time>2026-05-02T12:36:40.998Z</time></trkpt><trkpt lat="46.10244371590217" lon="11.506563708580279"><ele>941.0</ele><time>2026-05-02T12:36:41.998Z</time></trkpt><trkpt lat="46.10234988304385" lon="11.506532295570633"><ele>941.0</ele><time>2026-05-02T12:36:42.998Z</time></trkpt><trkpt lat="46.102254322441254" lon="11.506522101140407"><ele>939.8</ele><time>2026-05-02T12:36:43.998Z</time></trkpt><trkpt lat="46.10215920255966" lon="11.506540052667447"><ele>938.5999999999999</ele><time>2026-05-02T12:36:44.998Z</time></trkpt><trkpt lat="46.102058930573236" lon="11.50652717610841"><ele>937.4</ele><time>2026-05-02T12:36:45.998Z</time></trkpt><trkpt lat="46.10196106524826" lon="11.506527354773516"><ele>936.2</ele><time>2026-05-02T12:36:46.998Z</time></trkpt><trkpt lat="46.101873967691766" lon="11.506527948827948"><ele>935.0</ele><time>2026-05-02T12:36:47.998Z</time></trkpt><trkpt lat="46.10178708284925" lon="11.50652874255368"><ele>935.0</ele><time>2026-05-02T12:36:48.998Z</time></trkpt><trkpt lat="46.10170571107428" lon="11.50653103590834"><ele>935.0</ele><time>2026-05-02T12:36:49.998Z</time></trkpt><trkpt lat="46.101594770789845" lon="11.506529297177114"><ele>935.0</ele><time>2026-05-02T12:36:51.999Z</time></trkpt><trkpt lat="46.10149341277198" lon="11.506494101445474"><ele>935.0</ele><time>2026-05-02T12:36:52.999Z</time></trkpt><trkpt lat="46.10142677732642" lon="11.506446481098706"><ele>935.0</ele><time>2026-05-02T12:36:53.999Z</time></trkpt><trkpt lat="46.10135804062537" lon="11.506386268677808"><ele>935.8</ele><time>2026-05-02T12:36:54.999Z</time></trkpt><trkpt lat="46.10127781290449" lon="11.506331818306855"><ele>936.6</ele><time>2026-05-02T12:36:55.999Z</time></trkpt><trkpt lat="46.10117998340611" lon="11.506306425186915"><ele>937.4000000000001</ele><time>2026-05-02T12:36:56.999Z</time></trkpt><trkpt lat="46.10108672061901" lon="11.506282072967368"><ele>938.2</ele><time>2026-05-02T12:36:57.999Z</time></trkpt><trkpt lat="46.10097792220443" lon="11.506279606424542"><ele>939.0</ele><time>2026-05-02T12:36:58.999Z</time></trkpt><trkpt lat="46.10084967692262" lon="11.506308282498079"><ele>936.25</ele><time>2026-05-02T12:36:59.999Z</time></trkpt><trkpt lat="46.10071325888708" lon="11.50633450025731"><ele>933.5</ele><time>2026-05-02T12:37:00.999Z</time></trkpt><trkpt lat="46.10057980807499" lon="11.506360286846585"><ele>930.75</ele><time>2026-05-02T12:37:01.999Z</time></trkpt><trkpt lat="46.10045448810622" lon="11.506374926874503"><ele>928.0</ele><time>2026-05-02T12:37:02.999Z</time></trkpt><trkpt lat="46.10034364085997" lon="11.506392453112554"><ele>928.0</ele><time>2026-05-02T12:37:03.999Z</time></trkpt><trkpt lat="46.10023139121598" lon="11.506406904883418"><ele>928.0</ele><time>2026-05-02T12:37:04.999Z</time></trkpt><trkpt lat="46.10011455062543" lon="11.506411645473236"><ele>928.0</ele><time>2026-05-02T12:37:05.999Z</time></trkpt><trkpt lat="46.099999234624555" lon="11.506419152285838"><ele>928.0</ele><time>2026-05-02T12:37:06.999Z</time></trkpt><trkpt lat="46.09988806687081" lon="11.506445217427007"><ele>928.0</ele><time>2026-05-02T12:37:07.999Z</time></trkpt><trkpt lat="46.099771900339746" lon="11.506463929779622"><ele>928.0</ele><time>2026-05-02T12:37:08.999Z</time></trkpt><trkpt lat="46.0996575907304" lon="11.506486366236958"><ele>928.0</ele><time>2026-05-02T12:37:09.999Z</time></trkpt><trkpt lat="46.099533444825965" lon="11.506512658289566"><ele>928.0</ele><time>2026-05-02T12:37:10.999Z</time></trkpt><trkpt lat="46.099405965855844" lon="11.506520331363488"><ele>928.0</ele><time>2026-05-02T12:37:11.999Z</time></trkpt><trkpt lat="46.099284285550596" lon="11.506522566828194"><ele>928.0</ele><time>2026-05-02T12:37:12.999Z</time></trkpt><trkpt lat="46.09916555562225" lon="11.506523905126299"><ele>928.0</ele><time>2026-05-02T12:37:13.999Z</time></trkpt><trkpt lat="46.09905556624616" lon="11.506542981094306"><ele>928.0</ele><time>2026-05-02T12:37:14.999Z</time></trkpt><trkpt lat="46.09893749194626" lon="11.506570198915426"><ele>924.2</ele><time>2026-05-02T12:37:15.999Z</time></trkpt><trkpt lat="46.09882774095887" lon="11.506598085819997"><ele>920.4</ele><time>2026-05-02T12:37:16.999Z</time></trkpt><trkpt lat="46.098724388932524" lon="11.506632214655317"><ele>916.6000000000001</ele><time>2026-05-02T12:37:17.999Z</time></trkpt><trkpt lat="46.098624501399904" lon="11.506689936869362"><ele>912.8000000000001</ele><time>2026-05-02T12:37:18.999Z</time></trkpt><trkpt lat="46.09850383218121" lon="11.506718627621144"><ele>909.0</ele><time>2026-05-02T12:37:19.999Z</time></trkpt><trkpt lat="46.09837570674188" lon="11.506772316871794"><ele>909.0</ele><time>2026-05-02T12:37:20.999Z</time></trkpt><trkpt lat="46.09825747739738" lon="11.506846775638877"><ele>909.0</ele><time>2026-05-02T12:37:21.999Z</time></trkpt><trkpt lat="46.0981390817685" lon="11.506884813269052"><ele>909.0</ele><time>2026-05-02T12:37:22.999Z</time></trkpt><trkpt lat="46.09803770255895" lon="11.50694160409364"><ele>909.0</ele><time>2026-05-02T12:37:23.999Z</time></trkpt><trkpt lat="46.09793674484131" lon="11.506980935533743"><ele>909.5</ele><time>2026-05-02T12:37:24.999Z</time></trkpt><trkpt lat="46.09785131663665" lon="11.507040105698325"><ele>910.0</ele><time>2026-05-02T12:37:25.999Z</time></trkpt><trkpt lat="46.097765612766985" lon="11.507102037724012"><ele>910.5</ele><time>2026-05-02T12:37:26.999Z</time></trkpt><trkpt lat="46.09769728241175" lon="11.507160894763897"><ele>911.0</ele><time>2026-05-02T12:37:27.999Z</time></trkpt><trkpt lat="46.097650822199554" lon="11.507252066456934"><ele>911.5</ele><time>2026-05-02T12:37:28.999Z</time></trkpt><trkpt lat="46.09758106753049" lon="11.507352426046099"><ele>912.0</ele><time>2026-05-02T12:37:29.999Z</time></trkpt><trkpt lat="46.097522086473084" lon="11.507417841249643"><ele>912.0</ele><time>2026-05-02T12:37:30.999Z</time></trkpt><trkpt lat="46.097465056818784" lon="11.507472411694856"><ele>911.9999999999999</ele><time>2026-05-02T12:37:31.999Z</time></trkpt><trkpt lat="46.097397140952424" lon="11.507506884550942"><ele>912.0</ele><time>2026-05-02T12:37:32.999Z</time></trkpt><trkpt lat="46.097336504991546" lon="11.50755095988938"><ele>912.0</ele><time>2026-05-02T12:37:33.999Z</time></trkpt><trkpt lat="46.097276896859555" lon="11.507606714032686"><ele>911.9999999999999</ele><time>2026-05-02T12:37:34.999Z</time></trkpt><trkpt lat="46.09723268402851" lon="11.507707377099328"><ele>912.0</ele><time>2026-05-02T12:37:35.999Z</time></trkpt><trkpt lat="46.0971741400222" lon="11.507785858529324"><ele>912.0</ele><time>2026-05-02T12:37:36.999Z</time></trkpt><trkpt lat="46.09708177484581" lon="11.507892521358706"><ele>912.2</ele><time>2026-05-02T12:37:38.999Z</time></trkpt><trkpt lat="46.09694598380822" lon="11.508012939270255"><ele>912.4000000000001</ele><time>2026-05-02T12:37:39.999Z</time></trkpt><trkpt lat="46.09685140385598" lon="11.508074965285997"><ele>912.5999999999999</ele><time>2026-05-02T12:37:40.999Z</time></trkpt><trkpt lat="46.096766543701754" lon="11.508129982945357"><ele>912.8</ele><time>2026-05-02T12:37:41.999Z</time></trkpt><trkpt lat="46.09668339501898" lon="11.508177672247061"><ele>913.0</ele><time>2026-05-02T12:37:42.999Z</time></trkpt><trkpt lat="46.09653575836753" lon="11.508242482316465"><ele>906.8</ele><time>2026-05-02T12:37:44.999Z</time></trkpt><trkpt lat="46.09645782297665" lon="11.508269133958994"><ele>900.5999999999999</ele><time>2026-05-02T12:37:45.999Z</time></trkpt><trkpt lat="46.09637601833409" lon="11.508300388383171"><ele>894.4000000000001</ele><time>2026-05-02T12:37:46.999Z</time></trkpt><trkpt lat="46.09629387836191" lon="11.508342842267849"><ele>888.2</ele><time>2026-05-02T12:37:47.999Z</time></trkpt><trkpt lat="46.09620554551871" lon="11.508397410597562"><ele>882.0</ele><time>2026-05-02T12:37:48.999Z</time></trkpt><trkpt lat="46.09609190887241" lon="11.508483121574097"><ele>882.0</ele><time>2026-05-02T12:37:49.999Z</time></trkpt><trkpt lat="46.09600751714334" lon="11.508583268559539"><ele>882.0</ele><time>2026-05-02T12:37:50.999Z</time></trkpt><trkpt lat="46.09590582172191" lon="11.508646924929243"><ele>882.0</ele><time>2026-05-02T12:37:51.999Z</time></trkpt><trkpt lat="46.095825603106974" lon="11.508709740057958"><ele>882.0</ele><time>2026-05-02T12:37:52.999Z</time></trkpt><trkpt lat="46.09574974895379" lon="11.508766328276323"><ele>882.0</ele><time>2026-05-02T12:37:53.999Z</time></trkpt><trkpt lat="46.09566954809107" lon="11.508818266911808"><ele>890.4000000000001</ele><time>2026-05-02T12:37:54.999Z</time></trkpt><trkpt lat="46.095602998209515" lon="11.508850166803164"><ele>898.8000000000001</ele><time>2026-05-02T12:37:55.999Z</time></trkpt><trkpt lat="46.095435501009085" lon="11.50888028412439"><ele>907.2</ele><time>2026-05-02T12:37:57.999Z</time></trkpt><trkpt lat="46.09535801845834" lon="11.508843363443958"><ele>915.6</ele><time>2026-05-02T12:37:58.999Z</time></trkpt><trkpt lat="46.09528272687645" lon="11.508815545697516"><ele>924.0</ele><time>2026-05-02T12:37:59.999Z</time></trkpt><trkpt lat="46.09520909663258" lon="11.508782882150303"><ele>923.4000000000001</ele><time>2026-05-02T12:38:00.999Z</time></trkpt><trkpt lat="46.095137370661334" lon="11.508738945761861"><ele>922.8000000000001</ele><time>2026-05-02T12:38:01.999Z</time></trkpt><trkpt lat="46.0950567274943" lon="11.508675754078588"><ele>922.1999999999999</ele><time>2026-05-02T12:38:02.999Z</time></trkpt><trkpt lat="46.094993456608776" lon="11.508582564582662"><ele>921.5999999999999</ele><time>2026-05-02T12:38:03.999Z</time></trkpt><trkpt lat="46.094917916594305" lon="11.508469852852816"><ele>921.0</ele><time>2026-05-02T12:38:04.999Z</time></trkpt><trkpt lat="46.094865153889195" lon="11.508316053593115"><ele>921.0</ele><time>2026-05-02T12:38:05.999Z</time></trkpt><trkpt lat="46.0947848032164" lon="11.508171372279072"><ele>921.0</ele><time>2026-05-02T12:38:06.998Z</time></trkpt><trkpt lat="46.09471791606957" lon="11.508029981521355"><ele>921.0</ele><time>2026-05-02T12:38:07.998Z</time></trkpt><trkpt lat="46.09464442274732" lon="11.507908850828262"><ele>921.0</ele><time>2026-05-02T12:38:08.998Z</time></trkpt><trkpt lat="46.09459732795719" lon="11.507782333100144"><ele>913.5999999999999</ele><time>2026-05-02T12:38:09.998Z</time></trkpt><trkpt lat="46.0945248367802" lon="11.507684313410719"><ele>906.1999999999999</ele><time>2026-05-02T12:38:10.998Z</time></trkpt><trkpt lat="46.09443422096741" lon="11.50759242157778"><ele>898.8000000000001</ele><time>2026-05-02T12:38:11.998Z</time></trkpt><trkpt lat="46.09435020088717" lon="11.507539137837863"><ele>891.4000000000001</ele><time>2026-05-02T12:38:12.998Z</time></trkpt><trkpt lat="46.09426503487266" lon="11.50749330174428"><ele>884.0</ele><time>2026-05-02T12:38:13.998Z</time></trkpt><trkpt lat="46.094170378948704" lon="11.507441431729376"><ele>885.25</ele><time>2026-05-02T12:38:14.998Z</time></trkpt><trkpt lat="46.09405455807734" lon="11.507382484601143"><ele>886.5</ele><time>2026-05-02T12:38:15.998Z</time></trkpt><trkpt lat="46.09394945406788" lon="11.507370144900154"><ele>887.75</ele><time>2026-05-02T12:38:16.998Z</time></trkpt><trkpt lat="46.09381087313073" lon="11.507380166793983"><ele>889.0</ele><time>2026-05-02T12:38:17.998Z</time></trkpt><trkpt lat="46.09371299874233" lon="11.507349854112048"><ele>889.0</ele><time>2026-05-02T12:38:18.998Z</time></trkpt><trkpt lat="46.09360850404119" lon="11.50727328074915"><ele>889.0000000000001</ele><time>2026-05-02T12:38:19.998Z</time></trkpt><trkpt lat="46.093512153040024" lon="11.507219950654052"><ele>889.0000000000001</ele><time>2026-05-02T12:38:20.998Z</time></trkpt><trkpt lat="46.093409548027815" lon="11.507174520570366"><ele>889.0</ele><time>2026-05-02T12:38:21.998Z</time></trkpt><trkpt lat="46.093310396462726" lon="11.507146803047746"><ele>889.0</ele><time>2026-05-02T12:38:22.998Z</time></trkpt><trkpt lat="46.09322058714402" lon="11.507101987882523"><ele>879.8333333333333</ele><time>2026-05-02T12:38:23.998Z</time></trkpt><trkpt lat="46.09311070807699" lon="11.507040192088198"><ele>870.6666666666666</ele><time>2026-05-02T12:38:24.998Z</time></trkpt><trkpt lat="46.09303117994766" lon="11.506992686410767"><ele>861.5</ele><time>2026-05-02T12:38:25.998Z</time></trkpt><trkpt lat="46.092965832573746" lon="11.506942964035208"><ele>852.3333333333333</ele><time>2026-05-02T12:38:26.998Z</time></trkpt><trkpt lat="46.09290296034428" lon="11.506904064051746"><ele>843.1666666666666</ele><time>2026-05-02T12:38:27.998Z</time></trkpt><trkpt lat="46.09282845104216" lon="11.506892421633168"><ele>834.0</ele><time>2026-05-02T12:38:28.998Z</time></trkpt><trkpt lat="46.092758050087596" lon="11.506881172504043"><ele>834.0</ele><time>2026-05-02T12:38:29.998Z</time></trkpt><trkpt lat="46.09268273354022" lon="11.506890997928071"><ele>834.0</ele><time>2026-05-02T12:38:30.998Z</time></trkpt><trkpt lat="46.092602795065886" lon="11.506922144598558"><ele>834.0</ele><time>2026-05-02T12:38:31.998Z</time></trkpt><trkpt lat="46.092513263724186" lon="11.506930620276291"><ele>834.0</ele><time>2026-05-02T12:38:32.998Z</time></trkpt><trkpt lat="46.09243351972502" lon="11.506959906571481"><ele>834.0</ele><time>2026-05-02T12:38:33.998Z</time></trkpt><trkpt lat="46.09234650028419" lon="11.50697160069855"><ele>834.0</ele><time>2026-05-02T12:38:34.998Z</time></trkpt><trkpt lat="46.09227275114397" lon="11.507004297809967"><ele>833.0</ele><time>2026-05-02T12:38:35.998Z</time></trkpt><trkpt lat="46.09219817106987" lon="11.507102300991031"><ele>832.0</ele><time>2026-05-02T12:38:36.998Z</time></trkpt><trkpt lat="46.09212018486616" lon="11.50721246778996"><ele>831.0</ele><time>2026-05-02T12:38:37.998Z</time></trkpt><trkpt lat="46.09203558057095" lon="11.507308361774443"><ele>830.0</ele><time>2026-05-02T12:38:38.998Z</time></trkpt><trkpt lat="46.091952753866224" lon="11.507395842323982"><ele>829.0</ele><time>2026-05-02T12:38:39.998Z</time></trkpt><trkpt lat="46.09188617226041" lon="11.507491537281467"><ele>829.0</ele><time>2026-05-02T12:38:40.998Z</time></trkpt><trkpt lat="46.091818342779305" lon="11.507595977979962"><ele>829.0</ele><time>2026-05-02T12:38:41.998Z</time></trkpt><trkpt lat="46.09174880944857" lon="11.507693426468146"><ele>829.0</ele><time>2026-05-02T12:38:42.998Z</time></trkpt><trkpt lat="46.0916706718246" lon="11.507772848577712"><ele>829.0</ele><time>2026-05-02T12:38:43.998Z</time></trkpt><trkpt lat="46.09158838029447" lon="11.507843261638676"><ele>829.0</ele><time>2026-05-02T12:38:44.998Z</time></trkpt><trkpt lat="46.0915040079049" lon="11.50793455508875"><ele>830.0</ele><time>2026-05-02T12:38:45.998Z</time></trkpt><trkpt lat="46.09139671786466" lon="11.508023395407559"><ele>831.0</ele><time>2026-05-02T12:38:46.998Z</time></trkpt><trkpt lat="46.091274046300796" lon="11.508104782879515"><ele>832.0</ele><time>2026-05-02T12:38:47.998Z</time></trkpt><trkpt lat="46.09114889201718" lon="11.508184790599488"><ele>833.0</ele><time>2026-05-02T12:38:48.998Z</time></trkpt><trkpt lat="46.09102921795099" lon="11.508264279907628"><ele>833.0</ele><time>2026-05-02T12:38:49.998Z</time></trkpt><trkpt lat="46.09092399854911" lon="11.508335051818671"><ele>833.0</ele><time>2026-05-02T12:38:50.998Z</time></trkpt><trkpt lat="46.090838622108734" lon="11.508387146829149"><ele>833.0</ele><time>2026-05-02T12:38:51.998Z</time></trkpt><trkpt lat="46.09075629779505" lon="11.50842229950129"><ele>833.0</ele><time>2026-05-02T12:38:52.998Z</time></trkpt><trkpt lat="46.09067049208075" lon="11.508423374170969"><ele>833.0</ele><time>2026-05-02T12:38:53.998Z</time></trkpt><trkpt lat="46.090586768538486" lon="11.508351891691959"><ele>829.2</ele><time>2026-05-02T12:38:54.998Z</time></trkpt><trkpt lat="46.09049384527549" lon="11.50830661094209"><ele>825.4</ele><time>2026-05-02T12:38:55.999Z</time></trkpt><trkpt lat="46.090387409660146" lon="11.50828165080955"><ele>821.6</ele><time>2026-05-02T12:38:56.999Z</time></trkpt><trkpt lat="46.09030198947092" lon="11.50825127205383"><ele>817.8000000000001</ele><time>2026-05-02T12:38:57.999Z</time></trkpt><trkpt lat="46.09022148717868" lon="11.508240540314931"><ele>814.0</ele><time>2026-05-02T12:38:58.999Z</time></trkpt><trkpt lat="46.09013432132843" lon="11.508264553840565"><ele>814.0</ele><time>2026-05-02T12:38:59.999Z</time></trkpt><trkpt lat="46.09004400572899" lon="11.50830559008308"><ele>814.0</ele><time>2026-05-02T12:39:00.999Z</time></trkpt><trkpt lat="46.08993790246425" lon="11.508331406280409"><ele>814.0</ele><time>2026-05-02T12:39:01.999Z</time></trkpt><trkpt lat="46.08983056718772" lon="11.508334352198275"><ele>814.0</ele><time>2026-05-02T12:39:02.999Z</time></trkpt><trkpt lat="46.08973038467737" lon="11.508374158322303"><ele>814.0</ele><time>2026-05-02T12:39:03.999Z</time></trkpt><trkpt lat="46.08964105910648" lon="11.508391081311176"><ele>810.9999999999999</ele><time>2026-05-02T12:39:04.999Z</time></trkpt><trkpt lat="46.0895712745075" lon="11.508435268077072"><ele>808.0</ele><time>2026-05-02T12:39:05.999Z</time></trkpt><trkpt lat="46.08950817269501" lon="11.50849616624569"><ele>805.0</ele><time>2026-05-02T12:39:06.999Z</time></trkpt><trkpt lat="46.08944261678224" lon="11.508546668483323"><ele>802.0</ele><time>2026-05-02T12:39:07.999Z</time></trkpt><trkpt lat="46.08936263897812" lon="11.508583998784879"><ele>798.9999999999999</ele><time>2026-05-02T12:39:08.999Z</time></trkpt><trkpt lat="46.08927148341857" lon="11.508584980502016"><ele>796.0</ele><time>2026-05-02T12:39:09.999Z</time></trkpt><trkpt lat="46.08917722281379" lon="11.508499840396787"><ele>790.8</ele><time>2026-05-02T12:39:10.999Z</time></trkpt><trkpt lat="46.08907019054678" lon="11.508507571320623"><ele>785.5999999999999</ele><time>2026-05-02T12:39:11.999Z</time></trkpt><trkpt lat="46.0889672043641" lon="11.508501247796215"><ele>780.4</ele><time>2026-05-02T12:39:12.999Z</time></trkpt><trkpt lat="46.088875065039424" lon="11.508493783311957"><ele>775.2</ele><time>2026-05-02T12:39:13.999Z</time></trkpt><trkpt lat="46.08879252139192" lon="11.508447833279678"><ele>770.0</ele><time>2026-05-02T12:39:14.999Z</time></trkpt><trkpt lat="46.08871733640517" lon="11.508405144620259"><ele>770.0000000000001</ele><time>2026-05-02T12:39:15.999Z</time></trkpt><trkpt lat="46.08865072066635" lon="11.50840673986334"><ele>770.0</ele><time>2026-05-02T12:39:16.999Z</time></trkpt><trkpt lat="46.088577335548074" lon="11.508427172646897"><ele>770.0</ele><time>2026-05-02T12:39:17.999Z</time></trkpt><trkpt lat="46.08849954242459" lon="11.508468890052503"><ele>770.0</ele><time>2026-05-02T12:39:18.999Z</time></trkpt><trkpt lat="46.088412530679676" lon="11.508500802053003"><ele>770.0000000000001</ele><time>2026-05-02T12:39:19.999Z</time></trkpt><trkpt lat="46.08832514765549" lon="11.508544917323976"><ele>770.0</ele><time>2026-05-02T12:39:20.999Z</time></trkpt><trkpt lat="46.08823479095787" lon="11.50859692594498"><ele>771.8</ele><time>2026-05-02T12:39:21.999Z</time></trkpt><trkpt lat="46.08813717529596" lon="11.508646051263645"><ele>773.6</ele><time>2026-05-02T12:39:22.999Z</time></trkpt><trkpt lat="46.08804155832253" lon="11.508708827833633"><ele>775.4000000000001</ele><time>2026-05-02T12:39:23.999Z</time></trkpt><trkpt lat="46.087943935888916" lon="11.508783940521804"><ele>777.2</ele><time>2026-05-02T12:39:24.999Z</time></trkpt><trkpt lat="46.08786021085326" lon="11.50886046137397"><ele>779.0</ele><time>2026-05-02T12:39:25.999Z</time></trkpt><trkpt lat="46.08776366256097" lon="11.508906377684465"><ele>779.0</ele><time>2026-05-02T12:39:26.999Z</time></trkpt><trkpt lat="46.08765995979761" lon="11.508923751355173"><ele>779.0</ele><time>2026-05-02T12:39:27.999Z</time></trkpt><trkpt lat="46.087571698040335" lon="11.508954003345535"><ele>779.0</ele><time>2026-05-02T12:39:28.999Z</time></trkpt><trkpt lat="46.08749509030988" lon="11.508999404463886"><ele>779.0</ele><time>2026-05-02T12:39:29.999Z</time></trkpt><trkpt lat="46.08742458987212" lon="11.5090700219468"><ele>779.0</ele><time>2026-05-02T12:39:30.999Z</time></trkpt><trkpt lat="46.087353820575174" lon="11.509147268174981"><ele>771.8000000000001</ele><time>2026-05-02T12:39:31.999Z</time></trkpt><trkpt lat="46.08726817299313" lon="11.509225470643075"><ele>764.6</ele><time>2026-05-02T12:39:32.999Z</time></trkpt><trkpt lat="46.087183026995746" lon="11.509295612751819"><ele>757.4</ele><time>2026-05-02T12:39:33.999Z</time></trkpt><trkpt lat="46.087102085471734" lon="11.509356148063606"><ele>750.2</ele><time>2026-05-02T12:39:34.999Z</time></trkpt><trkpt lat="46.08702043711787" lon="11.509412752707263"><ele>743.0</ele><time>2026-05-02T12:39:35.999Z</time></trkpt><trkpt lat="46.08693119119264" lon="11.509445248055759"><ele>743.0</ele><time>2026-05-02T12:39:36.999Z</time></trkpt><trkpt lat="46.08684362392706" lon="11.509464631122029"><ele>743.0</ele><time>2026-05-02T12:39:37.999Z</time></trkpt><trkpt lat="46.086754789697224" lon="11.509467533805896"><ele>743.0</ele><time>2026-05-02T12:39:38.999Z</time></trkpt><trkpt lat="46.08666842096676" lon="11.50946533228751"><ele>743.0</ele><time>2026-05-02T12:39:39.999Z</time></trkpt><trkpt lat="46.08658676720426" lon="11.509450716588036"><ele>743.0</ele><time>2026-05-02T12:39:40.999Z</time></trkpt><trkpt lat="46.086509406812254" lon="11.509421731900003"><ele>743.0</ele><time>2026-05-02T12:39:41.999Z</time></trkpt><trkpt lat="46.08643690010349" lon="11.509393849106539"><ele>739.8333333333333</ele><time>2026-05-02T12:39:42.999Z</time></trkpt><trkpt lat="46.08635707397799" lon="11.509381707351357"><ele>736.6666666666666</ele><time>2026-05-02T12:39:43.999Z</time></trkpt><trkpt lat="46.0862590618447" lon="11.509362643797042"><ele>733.5</ele><time>2026-05-02T12:39:44.999Z</time></trkpt><trkpt lat="46.086168238872276" lon="11.509355374959934"><ele>730.3333333333334</ele><time>2026-05-02T12:39:45.999Z</time></trkpt><trkpt lat="46.086080458932955" lon="11.50935650862411"><ele>727.1666666666667</ele><time>2026-05-02T12:39:46.999Z</time></trkpt><trkpt lat="46.085997280881735" lon="11.50937135526537"><ele>724.0</ele><time>2026-05-02T12:39:47.999Z</time></trkpt><trkpt lat="46.08591760456088" lon="11.50941360377679"><ele>724.0</ele><time>2026-05-02T12:39:48.999Z</time></trkpt><trkpt lat="46.08583763026903" lon="11.50949153306925"><ele>724.0</ele><time>2026-05-02T12:39:49.999Z</time></trkpt><trkpt lat="46.08576947914234" lon="11.509594214298179"><ele>724.0</ele><time>2026-05-02T12:39:50.999Z</time></trkpt><trkpt lat="46.08571615108314" lon="11.509711463482518"><ele>724.0</ele><time>2026-05-02T12:39:51.999Z</time></trkpt><trkpt lat="46.085651118225705" lon="11.509811717362867"><ele>724.0</ele><time>2026-05-02T12:39:52.999Z</time></trkpt><trkpt lat="46.08556852641677" lon="11.509883784509865"><ele>724.75</ele><time>2026-05-02T12:39:53.999Z</time></trkpt><trkpt lat="46.08546804272328" lon="11.509913178454907"><ele>725.5</ele><time>2026-05-02T12:39:54.999Z</time></trkpt><trkpt lat="46.08534508994429" lon="11.509918080191234"><ele>726.25</ele><time>2026-05-02T12:39:55.999Z</time></trkpt><trkpt lat="46.08522102978445" lon="11.509910555459998"><ele>727.0</ele><time>2026-05-02T12:39:56.999Z</time></trkpt><trkpt lat="46.085096360810155" lon="11.509877819384846"><ele>727.0</ele><time>2026-05-02T12:39:57.999Z</time></trkpt><trkpt lat="46.08497641589103" lon="11.509817232516996"><ele>727.0</ele><time>2026-05-02T12:39:58.999Z</time></trkpt><trkpt lat="46.08486349695126" lon="11.509741469740469"><ele>727.0</ele><time>2026-05-02T12:39:59.999Z</time></trkpt><trkpt lat="46.08475468886103" lon="11.509665752405889"><ele>727.0</ele><time>2026-05-02T12:40:00.999Z</time></trkpt><trkpt lat="46.08464224656849" lon="11.509585718975597"><ele>723.0</ele><time>2026-05-02T12:40:01.999Z</time></trkpt><trkpt lat="46.084528749479695" lon="11.509503718262348"><ele>719.0</ele><time>2026-05-02T12:40:02.999Z</time></trkpt><trkpt lat="46.08441767248301" lon="11.509425471830237"><ele>715.0</ele><time>2026-05-02T12:40:03.999Z</time></trkpt><trkpt lat="46.0843101319374" lon="11.509348697336007"><ele>711.0</ele><time>2026-05-02T12:40:04.999Z</time></trkpt><trkpt lat="46.08420760420983" lon="11.509272353470374"><ele>711.0</ele><time>2026-05-02T12:40:05.999Z</time></trkpt><trkpt lat="46.08411169038083" lon="11.5092025457093"><ele>711.0</ele><time>2026-05-02T12:40:06.999Z</time></trkpt><trkpt lat="46.084018019834545" lon="11.50913761896968"><ele>711.0</ele><time>2026-05-02T12:40:07.999Z</time></trkpt><trkpt lat="46.08392873915902" lon="11.509075793815672"><ele>711.0</ele><time>2026-05-02T12:40:08.999Z</time></trkpt><trkpt lat="46.0838372333991" lon="11.509014748248827"><ele>711.0</ele><time>2026-05-02T12:40:09.999Z</time></trkpt><trkpt lat="46.083748086775124" lon="11.508955084943358"><ele>711.8</ele><time>2026-05-02T12:40:10.999Z</time></trkpt><trkpt lat="46.083658902060925" lon="11.5088944523466"><ele>712.5999999999999</ele><time>2026-05-02T12:40:11.999Z</time></trkpt><trkpt lat="46.083569874811644" lon="11.508833020721836"><ele>713.4</ele><time>2026-05-02T12:40:12.999Z</time></trkpt><trkpt lat="46.083483674994945" lon="11.5087605611414"><ele>714.2</ele><time>2026-05-02T12:40:13.999Z</time></trkpt><trkpt lat="46.083385006945576" lon="11.508712975473754"><ele>715.0</ele><time>2026-05-02T12:40:14.999Z</time></trkpt><trkpt lat="46.08328103498407" lon="11.508721738105574"><ele>711.0</ele><time>2026-05-02T12:40:15.999Z</time></trkpt><trkpt lat="46.083180003114386" lon="11.508724608690374"><ele>707.0</ele><time>2026-05-02T12:40:16.999Z</time></trkpt><trkpt lat="46.08307711222086" lon="11.508727672767849"><ele>703.0</ele><time>2026-05-02T12:40:17.999Z</time></trkpt><trkpt lat="46.08297262194964" lon="11.508705890027565"><ele>699.0</ele><time>2026-05-02T12:40:18.999Z</time></trkpt><trkpt lat="46.08286901940705" lon="11.50864143440318"><ele>695.0</ele><time>2026-05-02T12:40:19.999Z</time></trkpt><trkpt lat="46.0827650841737" lon="11.508554699710325"><ele>695.0</ele><time>2026-05-02T12:40:20.999Z</time></trkpt><trkpt lat="46.08266038742128" lon="11.508474692030651"><ele>695.0</ele><time>2026-05-02T12:40:21.999Z</time></trkpt><trkpt lat="46.082559679258026" lon="11.508403517635607"><ele>695.0</ele><time>2026-05-02T12:40:22.999Z</time></trkpt><trkpt lat="46.08246368766306" lon="11.508337363827527"><ele>695.0</ele><time>2026-05-02T12:40:23.999Z</time></trkpt><trkpt lat="46.08236571797284" lon="11.508275123214618"><ele>695.0</ele><time>2026-05-02T12:40:24.999Z</time></trkpt><trkpt lat="46.08227353205308" lon="11.508207956945341"><ele>693.0</ele><time>2026-05-02T12:40:25.999Z</time></trkpt><trkpt lat="46.08217772564189" lon="11.508140638402107"><ele>691.0</ele><time>2026-05-02T12:40:26.999Z</time></trkpt><trkpt lat="46.08208107955243" lon="11.508074092294997"><ele>689.0</ele><time>2026-05-02T12:40:27.999Z</time></trkpt><trkpt lat="46.08198636564507" lon="11.507996341281595"><ele>687.0</ele><time>2026-05-02T12:40:28.998Z</time></trkpt><trkpt lat="46.081899568669456" lon="11.507904113468316"><ele>685.0</ele><time>2026-05-02T12:40:29.998Z</time></trkpt><trkpt lat="46.0818287877441" lon="11.50778901385659"><ele>682.0</ele><time>2026-05-02T12:40:30.998Z</time></trkpt><trkpt lat="46.08176991485243" lon="11.507643740416839"><ele>679.0</ele><time>2026-05-02T12:40:31.998Z</time></trkpt><trkpt lat="46.081714713481965" lon="11.507491987315097"><ele>676.0</ele><time>2026-05-02T12:40:32.998Z</time></trkpt><trkpt lat="46.0816578402701" lon="11.507343692504847"><ele>673.0</ele><time>2026-05-02T12:40:33.998Z</time></trkpt><trkpt lat="46.08160190958351" lon="11.507194917377412"><ele>670.0</ele><time>2026-05-02T12:40:34.998Z</time></trkpt><trkpt lat="46.0815495000661" lon="11.507066872775486"><ele>667.0</ele><time>2026-05-02T12:40:35.998Z</time></trkpt><trkpt lat="46.081495367618466" lon="11.506961988985989"><ele>664.0</ele><time>2026-05-02T12:40:36.998Z</time></trkpt><trkpt lat="46.08144210001634" lon="11.506873842846735"><ele>661.0</ele><time>2026-05-02T12:40:37.998Z</time></trkpt><trkpt lat="46.08138666483891" lon="11.50680562201186"><ele>658.0</ele><time>2026-05-02T12:40:38.998Z</time></trkpt><trkpt lat="46.08132358415539" lon="11.506761916120986"><ele>655.0</ele><time>2026-05-02T12:40:39.998Z</time></trkpt><trkpt lat="46.08125229492312" lon="11.506741572150347"><ele>655.0</ele><time>2026-05-02T12:40:40.998Z</time></trkpt><trkpt lat="46.08118052149259" lon="11.506736041697295"><ele>655.0</ele><time>2026-05-02T12:40:41.998Z</time></trkpt><trkpt lat="46.08110466045337" lon="11.50672930790385"><ele>655.0</ele><time>2026-05-02T12:40:42.998Z</time></trkpt><trkpt lat="46.081025308699786" lon="11.506712017044222"><ele>655.0</ele><time>2026-05-02T12:40:43.998Z</time></trkpt><trkpt lat="46.08095180119308" lon="11.506692706663214"><ele>655.0</ele><time>2026-05-02T12:40:44.998Z</time></trkpt><trkpt lat="46.08087815622459" lon="11.506689384781119"><ele>655.0</ele><time>2026-05-02T12:40:45.998Z</time></trkpt><trkpt lat="46.08080648095676" lon="11.506707353938351"><ele>655.0</ele><time>2026-05-02T12:40:46.998Z</time></trkpt><trkpt lat="46.08074090121084" lon="11.506746019368556"><ele>653.0</ele><time>2026-05-02T12:40:47.998Z</time></trkpt><trkpt lat="46.080675828946845" lon="11.506801445596672"><ele>651.0</ele><time>2026-05-02T12:40:48.998Z</time></trkpt><trkpt lat="46.08060394791745" lon="11.506839909273502"><ele>649.0</ele><time>2026-05-02T12:40:49.998Z</time></trkpt><trkpt lat="46.08052363497539" lon="11.506842761192987"><ele>647.0</ele><time>2026-05-02T12:40:50.998Z</time></trkpt><trkpt lat="46.08044266792896" lon="11.506835505437925"><ele>645.0</ele><time>2026-05-02T12:40:51.998Z</time></trkpt><trkpt lat="46.0803603818659" lon="11.506825183330216"><ele>643.0</ele><time>2026-05-02T12:40:52.998Z</time></trkpt><trkpt lat="46.0802782385081" lon="11.506814230463224"><ele>643.0</ele><time>2026-05-02T12:40:53.998Z</time></trkpt><trkpt lat="46.080197546635844" lon="11.506806557732617"><ele>643.0</ele><time>2026-05-02T12:40:54.998Z</time></trkpt><trkpt lat="46.08012621765176" lon="11.506804912528581"><ele>643.0</ele><time>2026-05-02T12:40:55.998Z</time></trkpt><trkpt lat="46.08005868953858" lon="11.506823905064369"><ele>643.0</ele><time>2026-05-02T12:40:56.999Z</time></trkpt><trkpt lat="46.07998911731477" lon="11.506824693859071"><ele>643.0</ele><time>2026-05-02T12:40:57.999Z</time></trkpt><trkpt lat="46.07992043358335" lon="11.506892817370675"><ele>643.0</ele><time>2026-05-02T12:40:58.999Z</time></trkpt><trkpt lat="46.07989312805669" lon="11.507015797116324"><ele>643.0</ele><time>2026-05-02T12:40:59.999Z</time></trkpt><trkpt lat="46.079887942564504" lon="11.507117608400197"><ele>643.0</ele><time>2026-05-02T12:41:00.999Z</time></trkpt><trkpt lat="46.07986377391486" lon="11.507210462563217"><ele>643.0</ele><time>2026-05-02T12:41:01.999Z</time></trkpt><trkpt lat="46.07981507414433" lon="11.50728100246013"><ele>643.0</ele><time>2026-05-02T12:41:02.999Z</time></trkpt><trkpt lat="46.079749674802535" lon="11.507322171454916"><ele>643.0</ele><time>2026-05-02T12:41:03.999Z</time></trkpt><trkpt lat="46.07965889649453" lon="11.507327473282341"><ele>643.0</ele><time>2026-05-02T12:41:04.999Z</time></trkpt><trkpt lat="46.07956638309584" lon="11.50731977882325"><ele>643.0</ele><time>2026-05-02T12:41:05.999Z</time></trkpt><trkpt lat="46.079488387690816" lon="11.507303897839947"><ele>643.0</ele><time>2026-05-02T12:41:06.999Z</time></trkpt><trkpt lat="46.07941329706146" lon="11.507293093517555"><ele>643.0</ele><time>2026-05-02T12:41:07.999Z</time></trkpt><trkpt lat="46.079333253385485" lon="11.507295866197401"><ele>643.0</ele><time>2026-05-02T12:41:08.999Z</time></trkpt><trkpt lat="46.07924953140931" lon="11.507314585939076"><ele>643.0</ele><time>2026-05-02T12:41:09.999Z</time></trkpt><trkpt lat="46.07915831829644" lon="11.507343096659303"><ele>643.0</ele><time>2026-05-02T12:41:10.999Z</time></trkpt><trkpt lat="46.07905976786541" lon="11.507378186406397"><ele>640.8</ele><time>2026-05-02T12:41:11.999Z</time></trkpt><trkpt lat="46.07896132200367" lon="11.507412386012213"><ele>638.5999999999999</ele><time>2026-05-02T12:41:12.999Z</time></trkpt><trkpt lat="46.078863568046366" lon="11.507448222336157"><ele>636.4000000000001</ele><time>2026-05-02T12:41:13.999Z</time></trkpt><trkpt lat="46.078765136586014" lon="11.50747559997155"><ele>634.2</ele><time>2026-05-02T12:41:14.999Z</time></trkpt><trkpt lat="46.07866215383351" lon="11.507478840387053"><ele>632.0</ele><time>2026-05-02T12:41:15.999Z</time></trkpt><trkpt lat="46.078558403425504" lon="11.507463391517625"><ele>632.0</ele><time>2026-05-02T12:41:16.999Z</time></trkpt><trkpt lat="46.0784487984197" lon="11.507436457647625"><ele>632.0</ele><time>2026-05-02T12:41:17.999Z</time></trkpt><trkpt lat="46.07832302172759" lon="11.50741374093264"><ele>632.0</ele><time>2026-05-02T12:41:18.999Z</time></trkpt><trkpt lat="46.078182111693344" lon="11.507395822311265"><ele>632.0</ele><time>2026-05-02T12:41:19.999Z</time></trkpt><trkpt lat="46.078040006746384" lon="11.507401348267928"><ele>629.5</ele><time>2026-05-02T12:41:20.999Z</time></trkpt><trkpt lat="46.07790219509625" lon="11.50741190665545"><ele>627.0</ele><time>2026-05-02T12:41:21.999Z</time></trkpt><trkpt lat="46.0777519878998" lon="11.507407895988376"><ele>624.5</ele><time>2026-05-02T12:41:22.999Z</time></trkpt><trkpt lat="46.07760914852163" lon="11.50738989172712"><ele>622.0</ele><time>2026-05-02T12:41:23.999Z</time></trkpt><trkpt lat="46.07746791284295" lon="11.507354304235793"><ele>620.75</ele><time>2026-05-02T12:41:24.999Z</time></trkpt><trkpt lat="46.07732791638488" lon="11.507318173484842"><ele>619.5</ele><time>2026-05-02T12:41:25.999Z</time></trkpt><trkpt lat="46.07719114379599" lon="11.507280022692315"><ele>618.25</ele><time>2026-05-02T12:41:26.999Z</time></trkpt><trkpt lat="46.077071469623334" lon="11.507233874695638"><ele>617.0</ele><time>2026-05-02T12:41:27.999Z</time></trkpt><trkpt lat="46.07697116684174" lon="11.50718389807202"><ele>617.0</ele><time>2026-05-02T12:41:28.999Z</time></trkpt><trkpt lat="46.07688237373268" lon="11.507132943258586"><ele>617.0</ele><time>2026-05-02T12:41:29.999Z</time></trkpt><trkpt lat="46.07678987722234" lon="11.507081744909032"><ele>617.0</ele><time>2026-05-02T12:41:30.999Z</time></trkpt><trkpt lat="46.07670036299261" lon="11.507026171800801"><ele>617.0</ele><time>2026-05-02T12:41:31.999Z</time></trkpt><trkpt lat="46.07660567093879" lon="11.506990904219599"><ele>617.0</ele><time>2026-05-02T12:41:32.999Z</time></trkpt><trkpt lat="46.076505715008416" lon="11.506971429665308"><ele>612.75</ele><time>2026-05-02T12:41:33.999Z</time></trkpt><trkpt lat="46.076405814778404" lon="11.506949329430919"><ele>608.5</ele><time>2026-05-02T12:41:34.999Z</time></trkpt><trkpt lat="46.07629252146133" lon="11.506935693313213"><ele>604.25</ele><time>2026-05-02T12:41:35.999Z</time></trkpt><trkpt lat="46.07616556835494" lon="11.506928744412539"><ele>600.0</ele><time>2026-05-02T12:41:36.999Z</time></trkpt><trkpt lat="46.07602378544639" lon="11.506922439149518"><ele>600.0</ele><time>2026-05-02T12:41:37.999Z</time></trkpt><trkpt lat="46.075878671748285" lon="11.50691948480249"><ele>600.0</ele><time>2026-05-02T12:41:38.999Z</time></trkpt><trkpt lat="46.07573609196141" lon="11.506926399143378"><ele>600.0</ele><time>2026-05-02T12:41:39.999Z</time></trkpt><trkpt lat="46.07560131000995" lon="11.506941296852771"><ele>600.0</ele><time>2026-05-02T12:41:40.999Z</time></trkpt><trkpt lat="46.07547148302927" lon="11.506959622378272"><ele>599.5</ele><time>2026-05-02T12:41:41.999Z</time></trkpt><trkpt lat="46.07534682760682" lon="11.506982008075584"><ele>599.0</ele><time>2026-05-02T12:41:42.999Z</time></trkpt><trkpt lat="46.07522845628489" lon="11.507002245577766"><ele>598.5</ele><time>2026-05-02T12:41:43.999Z</time></trkpt><trkpt lat="46.07511313437679" lon="11.50701648852115"><ele>598.0</ele><time>2026-05-02T12:41:44.999Z</time></trkpt><trkpt lat="46.07499899277581" lon="11.507027894348397"><ele>598.25</ele><time>2026-05-02T12:41:45.999Z</time></trkpt><trkpt lat="46.07488226202121" lon="11.507039051077166"><ele>598.5</ele><time>2026-05-02T12:41:46.999Z</time></trkpt><trkpt lat="46.07476263957599" lon="11.507054983625771"><ele>598.75</ele><time>2026-05-02T12:41:47.999Z</time></trkpt><trkpt lat="46.07464786502342" lon="11.507069458364724"><ele>599.0</ele><time>2026-05-02T12:41:48.999Z</time></trkpt><trkpt lat="46.07453967525923" lon="11.50707823711977"><ele>599.0</ele><time>2026-05-02T12:41:49.999Z</time></trkpt><trkpt lat="46.07443242379877" lon="11.5070871381024"><ele>599.0</ele><time>2026-05-02T12:41:50.999Z</time></trkpt><trkpt lat="46.074322896377" lon="11.50709297082044"><ele>599.0</ele><time>2026-05-02T12:41:51.999Z</time></trkpt><trkpt lat="46.074207999278904" lon="11.507084949788258"><ele>599.0</ele><time>2026-05-02T12:41:52.999Z</time></trkpt><trkpt lat="46.07409256589766" lon="11.507056257988955"><ele>599.0</ele><time>2026-05-02T12:41:53.999Z</time></trkpt><trkpt lat="46.073977065645884" lon="11.507013951855406"><ele>594.75</ele><time>2026-05-02T12:41:54.999Z</time></trkpt><trkpt lat="46.07386059223177" lon="11.506968806061227"><ele>590.5</ele><time>2026-05-02T12:41:55.999Z</time></trkpt><trkpt lat="46.07373766566785" lon="11.506921163796036"><ele>586.25</ele><time>2026-05-02T12:41:56.999Z</time></trkpt><trkpt lat="46.07361275888217" lon="11.50687846963221"><ele>582.0</ele><time>2026-05-02T12:41:57.999Z</time></trkpt><trkpt lat="46.073485195445436" lon="11.506842439277118"><ele>582.0</ele><time>2026-05-02T12:41:58.999Z</time></trkpt><trkpt lat="46.07335508508455" lon="11.506817663053047"><ele>582.0</ele><time>2026-05-02T12:41:59.999Z</time></trkpt><trkpt lat="46.07322038497057" lon="11.506806831301184"><ele>582.0</ele><time>2026-05-02T12:42:00.999Z</time></trkpt><trkpt lat="46.07308412071279" lon="11.506810011147529"><ele>582.0</ele><time>2026-05-02T12:42:01.999Z</time></trkpt><trkpt lat="46.07294574485724" lon="11.506814712351074"><ele>579.75</ele><time>2026-05-02T12:42:02.999Z</time></trkpt><trkpt lat="46.072808247085504" lon="11.506817777604173"><ele>577.5</ele><time>2026-05-02T12:42:03.999Z</time></trkpt><trkpt lat="46.07267116842858" lon="11.506827253220518"><ele>575.25</ele><time>2026-05-02T12:42:04.999Z</time></trkpt><trkpt lat="46.07254640693906" lon="11.506846846378826"><ele>573.0</ele><time>2026-05-02T12:42:05.999Z</time></trkpt><trkpt lat="46.07243264162627" lon="11.506876226647712"><ele>571.8</ele><time>2026-05-02T12:42:06.999Z</time></trkpt><trkpt lat="46.07232350423305" lon="11.506920263078243"><ele>570.5999999999999</ele><time>2026-05-02T12:42:07.999Z</time></trkpt><trkpt lat="46.07222008299093" lon="11.506980523326698"><ele>569.4000000000001</ele><time>2026-05-02T12:42:08.999Z</time></trkpt><trkpt lat="46.07212296161954" lon="11.507053025363136"><ele>568.2</ele><time>2026-05-02T12:42:09.999Z</time></trkpt><trkpt lat="46.07202697470248" lon="11.507143114516284"><ele>567.0</ele><time>2026-05-02T12:42:10.999Z</time></trkpt><trkpt lat="46.07193807405759" lon="11.507235849292021"><ele>567.0</ele><time>2026-05-02T12:42:11.999Z</time></trkpt><trkpt lat="46.0718528325315" lon="11.507326663666863"><ele>567.0</ele><time>2026-05-02T12:42:12.999Z</time></trkpt><trkpt lat="46.0717739980839" lon="11.507411090614482"><ele>567.0</ele><time>2026-05-02T12:42:13.999Z</time></trkpt><trkpt lat="46.071693337790876" lon="11.507491420977766"><ele>567.0</ele><time>2026-05-02T12:42:14.999Z</time></trkpt><trkpt lat="46.07161510324323" lon="11.507569851967776"><ele>567.0</ele><time>2026-05-02T12:42:15.999Z</time></trkpt><trkpt lat="46.07154115572468" lon="11.507645517388616"><ele>566.0</ele><time>2026-05-02T12:42:16.999Z</time></trkpt><trkpt lat="46.07146824740454" lon="11.507719480327399"><ele>565.0</ele><time>2026-05-02T12:42:17.999Z</time></trkpt><trkpt lat="46.07139565629449" lon="11.5077917015015"><ele>564.0</ele><time>2026-05-02T12:42:18.999Z</time></trkpt><trkpt lat="46.07132557291449" lon="11.507864332058785"><ele>563.0</ele><time>2026-05-02T12:42:19.999Z</time></trkpt><trkpt lat="46.071254483639876" lon="11.507936352660018"><ele>562.0</ele><time>2026-05-02T12:42:20.999Z</time></trkpt><trkpt lat="46.071182329065294" lon="11.508007732067524"><ele>561.0</ele><time>2026-05-02T12:42:21.999Z</time></trkpt><trkpt lat="46.07110563808324" lon="11.50807522169729"><ele>561.0</ele><time>2026-05-02T12:42:22.999Z</time></trkpt><trkpt lat="46.071025993157036" lon="11.50813807114826"><ele>561.0</ele><time>2026-05-02T12:42:23.999Z</time></trkpt><trkpt lat="46.07094293655849" lon="11.50819638699091"><ele>561.0</ele><time>2026-05-02T12:42:24.999Z</time></trkpt><trkpt lat="46.070861721232596" lon="11.50826723938514"><ele>561.0</ele><time>2026-05-02T12:42:25.999Z</time></trkpt><trkpt lat="46.070773904676855" lon="11.508324148553092"><ele>561.0</ele><time>2026-05-02T12:42:26.999Z</time></trkpt><trkpt lat="46.07069397544401" lon="11.508398126716001"><ele>559.6666666666666</ele><time>2026-05-02T12:42:27.999Z</time></trkpt><trkpt lat="46.070621528184674" lon="11.50848417866753"><ele>558.3333333333334</ele><time>2026-05-02T12:42:28.999Z</time></trkpt><trkpt lat="46.070541699234276" lon="11.508547919945691"><ele>557.0</ele><time>2026-05-02T12:42:29.999Z</time></trkpt><trkpt lat="46.070493527640465" lon="11.508633436545777"><ele>555.6666666666667</ele><time>2026-05-02T12:42:30.999Z</time></trkpt><trkpt lat="46.070430770843274" lon="11.508675529623142"><ele>554.3333333333334</ele><time>2026-05-02T12:42:31.999Z</time></trkpt><trkpt lat="46.070386929938806" lon="11.508746300863368"><ele>553.0</ele><time>2026-05-02T12:42:32.999Z</time></trkpt><trkpt lat="46.07028845621257" lon="11.508835395461729"><ele>553.0</ele><time>2026-05-02T12:42:34.998Z</time></trkpt><trkpt lat="46.0702164925086" lon="11.50896272487519"><ele>553.0</ele><time>2026-05-02T12:42:36.998Z</time></trkpt><trkpt lat="46.070151098267466" lon="11.509089724432911"><ele>553.0</ele><time>2026-05-02T12:42:38.998Z</time></trkpt><trkpt lat="46.070081737796116" lon="11.509189243119701"><ele>553.0</ele><time>2026-05-02T12:42:40.998Z</time></trkpt><trkpt lat="46.07002326618913" lon="11.509262383440806"><ele>553.0</ele><time>2026-05-02T12:42:42.998Z</time></trkpt><trkpt lat="46.06995788237624" lon="11.509300934038144"><ele>550.6666666666667</ele><time>2026-05-02T12:42:44.999Z</time></trkpt><trkpt lat="46.06988973173388" lon="11.509207542167946"><ele>548.3333333333334</ele><time>2026-05-02T12:42:45.999Z</time></trkpt><trkpt lat="46.069818677691586" lon="11.509205382787218"><ele>546.0</ele><time>2026-05-02T12:42:46.999Z</time></trkpt><trkpt lat="46.069751058770635" lon="11.50917407999196"><ele>543.6666666666666</ele><time>2026-05-02T12:42:47.999Z</time></trkpt><trkpt lat="46.069686039413924" lon="11.50913902383686"><ele>541.3333333333333</ele><time>2026-05-02T12:42:48.999Z</time></trkpt><trkpt lat="46.06961621206867" lon="11.50910733436842"><ele>539.0</ele><time>2026-05-02T12:42:49.999Z</time></trkpt><trkpt lat="46.06955180191911" lon="11.509054545593779"><ele>539.0</ele><time>2026-05-02T12:42:50.999Z</time></trkpt><trkpt lat="46.069488449881334" lon="11.509036221734378"><ele>539.0</ele><time>2026-05-02T12:42:51.999Z</time></trkpt><trkpt lat="46.06941383968669" lon="11.509060533387323"><ele>539.0</ele><time>2026-05-02T12:42:52.999Z</time></trkpt><trkpt lat="46.06934267947916" lon="11.509097115893274"><ele>539.0</ele><time>2026-05-02T12:42:53.999Z</time></trkpt><trkpt lat="46.06926939307236" lon="11.509177634554904"><ele>539.0</ele><time>2026-05-02T12:42:54.999Z</time></trkpt><trkpt lat="46.06920281788888" lon="11.509263085236935"><ele>539.0</ele><time>2026-05-02T12:42:55.999Z</time></trkpt><trkpt lat="46.069134055092086" lon="11.509355489651012"><ele>536.0</ele><time>2026-05-02T12:42:56.999Z</time></trkpt><trkpt lat="46.06906878832586" lon="11.509454479913838"><ele>533.0</ele><time>2026-05-02T12:42:57.999Z</time></trkpt><trkpt lat="46.06901781530355" lon="11.509570453735227"><ele>530.0</ele><time>2026-05-02T12:42:58.999Z</time></trkpt><trkpt lat="46.068961605970195" lon="11.509678474379022"><ele>527.0</ele><time>2026-05-02T12:42:59.999Z</time></trkpt><trkpt lat="46.06889509422401" lon="11.509782257681602"><ele>524.0</ele><time>2026-05-02T12:43:00.999Z</time></trkpt><trkpt lat="46.06884864579636" lon="11.509901973754687"><ele>524.0</ele><time>2026-05-02T12:43:01.999Z</time></trkpt><trkpt lat="46.06881361182382" lon="11.510019654318144"><ele>524.0</ele><time>2026-05-02T12:43:02.999Z</time></trkpt><trkpt lat="46.06878229495054" lon="11.510131311436494"><ele>524.0</ele><time>2026-05-02T12:43:03.999Z</time></trkpt><trkpt lat="46.06874901627758" lon="11.510242066684414"><ele>524.0</ele><time>2026-05-02T12:43:04.999Z</time></trkpt><trkpt lat="46.068724758064626" lon="11.510364113117378"><ele>524.0</ele><time>2026-05-02T12:43:05.999Z</time></trkpt><trkpt lat="46.0686863795161" lon="11.510482075715531"><ele>524.0</ele><time>2026-05-02T12:43:06.999Z</time></trkpt><trkpt lat="46.06864306104968" lon="11.510603828702502"><ele>525.2</ele><time>2026-05-02T12:43:07.999Z</time></trkpt><trkpt lat="46.06859227035155" lon="11.510730775642898"><ele>526.4</ele><time>2026-05-02T12:43:08.999Z</time></trkpt><trkpt lat="46.06854325963917" lon="11.510860499914724"><ele>527.6</ele><time>2026-05-02T12:43:09.999Z</time></trkpt><trkpt lat="46.068475698199855" lon="11.510978646375808"><ele>528.8</ele><time>2026-05-02T12:43:10.999Z</time></trkpt><trkpt lat="46.06842736916035" lon="11.511124315955087"><ele>530.0</ele><time>2026-05-02T12:43:11.999Z</time></trkpt><trkpt lat="46.06836498541629" lon="11.51125901586717"><ele>531.75</ele><time>2026-05-02T12:43:12.999Z</time></trkpt><trkpt lat="46.068288665918814" lon="11.511382573305394"><ele>533.5</ele><time>2026-05-02T12:43:13.999Z</time></trkpt><trkpt lat="46.068226847241235" lon="11.51151774562912"><ele>535.25</ele><time>2026-05-02T12:43:14.999Z</time></trkpt><trkpt lat="46.068178634950186" lon="11.5116680605729"><ele>537.0</ele><time>2026-05-02T12:43:15.999Z</time></trkpt><trkpt lat="46.06810711028571" lon="11.511797136074463"><ele>532.2</ele><time>2026-05-02T12:43:16.999Z</time></trkpt><trkpt lat="46.068061265792494" lon="11.51194126637402"><ele>527.4000000000001</ele><time>2026-05-02T12:43:17.999Z</time></trkpt><trkpt lat="46.06802384962566" lon="11.512079922397737"><ele>522.5999999999999</ele><time>2026-05-02T12:43:18.999Z</time></trkpt><trkpt lat="46.067986033837855" lon="11.512213055741597"><ele>517.8</ele><time>2026-05-02T12:43:19.999Z</time></trkpt><trkpt lat="46.067947816554266" lon="11.512346574375496"><ele>513.0</ele><time>2026-05-02T12:43:20.999Z</time></trkpt><trkpt lat="46.06791298368938" lon="11.512486293039863"><ele>513.0</ele><time>2026-05-02T12:43:21.999Z</time></trkpt><trkpt lat="46.06784389860888" lon="11.51260731642778"><ele>513.0</ele><time>2026-05-02T12:43:22.999Z</time></trkpt><trkpt lat="46.067759928032906" lon="11.512716400046246"><ele>513.0</ele><time>2026-05-02T12:43:23.999Z</time></trkpt><trkpt lat="46.067667781705374" lon="11.512817336443794"><ele>513.0</ele><time>2026-05-02T12:43:24.999Z</time></trkpt><trkpt lat="46.067578331453184" lon="11.512933522771442"><ele>513.5</ele><time>2026-05-02T12:43:25.999Z</time></trkpt><trkpt lat="46.06750047043833" lon="11.51307119192157"><ele>514.0</ele><time>2026-05-02T12:43:27Z</time></trkpt><trkpt lat="46.06744377266866" lon="11.513231398605663"><ele>514.5</ele><time>2026-05-02T12:43:28Z</time></trkpt><trkpt lat="46.06740979090294" lon="11.513404324755793"><ele>515.0</ele><time>2026-05-02T12:43:29Z</time></trkpt><trkpt lat="46.06740309744983" lon="11.513580503210008"><ele>515.0</ele><time>2026-05-02T12:43:30Z</time></trkpt><trkpt lat="46.0674267914801" lon="11.513754380972408"><ele>515.0</ele><time>2026-05-02T12:43:31Z</time></trkpt><trkpt lat="46.06746138937771" lon="11.513925953421952"><ele>515.0</ele><time>2026-05-02T12:43:32Z</time></trkpt><trkpt lat="46.0675004423873" lon="11.514098732162436"><ele>515.0</ele><time>2026-05-02T12:43:33Z</time></trkpt><trkpt lat="46.06753446429851" lon="11.514271392734184"><ele>515.0</ele><time>2026-05-02T12:43:34Z</time></trkpt><trkpt lat="46.06756577199766" lon="11.514430950185561"><ele>515.0</ele><time>2026-05-02T12:43:35Z</time></trkpt><trkpt lat="46.067593463725764" lon="11.514586999549058"><ele>515.0</ele><time>2026-05-02T12:43:36Z</time></trkpt><trkpt lat="46.067621208784644" lon="11.514738598707147"><ele>515.0</ele><time>2026-05-02T12:43:37Z</time></trkpt><trkpt lat="46.067634976925476" lon="11.514895132445533"><ele>515.0</ele><time>2026-05-02T12:43:38Z</time></trkpt><trkpt lat="46.0676305462805" lon="11.51505945931005"><ele>515.0</ele><time>2026-05-02T12:43:39Z</time></trkpt><trkpt lat="46.067608836283256" lon="11.515225903514823"><ele>515.0</ele><time>2026-05-02T12:43:40Z</time></trkpt><trkpt lat="46.06757810862791" lon="11.515393392108408"><ele>515.0</ele><time>2026-05-02T12:43:41Z</time></trkpt><trkpt lat="46.06754703746686" lon="11.515558964904779"><ele>515.0</ele><time>2026-05-02T12:43:42Z</time></trkpt><trkpt lat="46.06751880532356" lon="11.515724481789524"><ele>515.0</ele><time>2026-05-02T12:43:43Z</time></trkpt><trkpt lat="46.06749315016602" lon="11.51589143502272"><ele>515.0</ele><time>2026-05-02T12:43:44Z</time></trkpt><trkpt lat="46.06746284026127" lon="11.51605342991012"><ele>515.0</ele><time>2026-05-02T12:43:45Z</time></trkpt><trkpt lat="46.06742962585276" lon="11.51621521565505"><ele>515.0</ele><time>2026-05-02T12:43:46Z</time></trkpt><trkpt lat="46.067396753759944" lon="11.516376522191623"><ele>515.6</ele><time>2026-05-02T12:43:47Z</time></trkpt><trkpt lat="46.067370528956964" lon="11.516538716874477"><ele>516.2</ele><time>2026-05-02T12:43:48Z</time></trkpt><trkpt lat="46.06737003158578" lon="11.516700316898312"><ele>516.8</ele><time>2026-05-02T12:43:49Z</time></trkpt><trkpt lat="46.0673941767831" lon="11.516854602849245"><ele>517.4</ele><time>2026-05-02T12:43:50Z</time></trkpt><trkpt lat="46.06742334967813" lon="11.517003991787542"><ele>518.0</ele><time>2026-05-02T12:43:51Z</time></trkpt><trkpt lat="46.06745431003457" lon="11.51714356115612"><ele>518.0</ele><time>2026-05-02T12:43:52Z</time></trkpt><trkpt lat="46.067479612721534" lon="11.517273451592187"><ele>518.0</ele><time>2026-05-02T12:43:53Z</time></trkpt><trkpt lat="46.06750337046641" lon="11.517391228338724"><ele>518.0</ele><time>2026-05-02T12:43:54Z</time></trkpt><trkpt lat="46.0675214239493" lon="11.517509400605682"><ele>518.0</ele><time>2026-05-02T12:43:55Z</time></trkpt><trkpt lat="46.067529070330785" lon="11.517634880827561"><ele>518.0</ele><time>2026-05-02T12:43:56Z</time></trkpt><trkpt lat="46.06751040204588" lon="11.517765473052679"><ele>518.0</ele><time>2026-05-02T12:43:57Z</time></trkpt><trkpt lat="46.067477402091164" lon="11.517895852806316"><ele>515.0</ele><time>2026-05-02T12:43:58Z</time></trkpt><trkpt lat="46.06743701433838" lon="11.518034234638177"><ele>511.99999999999994</ele><time>2026-05-02T12:43:59Z</time></trkpt><trkpt lat="46.067397831999536" lon="11.518183243601682"><ele>508.99999999999994</ele><time>2026-05-02T12:44:00Z</time></trkpt><trkpt lat="46.06735713191506" lon="11.518340222215993"><ele>506.0</ele><time>2026-05-02T12:44:01Z</time></trkpt><trkpt lat="46.06731536257436" lon="11.518497472941442"><ele>503.0</ele><time>2026-05-02T12:44:02Z</time></trkpt><trkpt lat="46.06728266962232" lon="11.518647769927458"><ele>502.4</ele><time>2026-05-02T12:44:03Z</time></trkpt><trkpt lat="46.06725979631181" lon="11.518795220789583"><ele>501.79999999999995</ele><time>2026-05-02T12:44:04Z</time></trkpt><trkpt lat="46.067242650391485" lon="11.518938416757813"><ele>501.2</ele><time>2026-05-02T12:44:05Z</time></trkpt><trkpt lat="46.067225838464076" lon="11.519083822405113"><ele>500.6</ele><time>2026-05-02T12:44:06Z</time></trkpt><trkpt lat="46.06721132352399" lon="11.51923360168825"><ele>500.0</ele><time>2026-05-02T12:44:07Z</time></trkpt><trkpt lat="46.06719710542207" lon="11.519387124030352"><ele>500.0</ele><time>2026-05-02T12:44:08Z</time></trkpt><trkpt lat="46.06718511099637" lon="11.519539921486547"><ele>500.0</ele><time>2026-05-02T12:44:09Z</time></trkpt><trkpt lat="46.06717183743997" lon="11.519678298439679"><ele>500.0</ele><time>2026-05-02T12:44:10Z</time></trkpt><trkpt lat="46.06714873794593" lon="11.519806428392648"><ele>500.0</ele><time>2026-05-02T12:44:11Z</time></trkpt><trkpt lat="46.06711823478379" lon="11.519923837375355"><ele>500.0</ele><time>2026-05-02T12:44:12Z</time></trkpt><trkpt lat="46.067066868137694" lon="11.520028060484531"><ele>500.0</ele><time>2026-05-02T12:44:13Z</time></trkpt><trkpt lat="46.06699901613466" lon="11.520118975059386"><ele>500.0</ele><time>2026-05-02T12:44:14Z</time></trkpt><trkpt lat="46.06692020129886" lon="11.520208436062555"><ele>500.0</ele><time>2026-05-02T12:44:15Z</time></trkpt><trkpt lat="46.066839093722045" lon="11.520302538818365"><ele>500.0</ele><time>2026-05-02T12:44:16Z</time></trkpt><trkpt lat="46.066767374967405" lon="11.520401413419952"><ele>500.0</ele><time>2026-05-02T12:44:17Z</time></trkpt><trkpt lat="46.066711661522476" lon="11.520515739113966"><ele>498.8</ele><time>2026-05-02T12:44:18Z</time></trkpt><trkpt lat="46.066685343003" lon="11.520646448564763"><ele>497.6</ele><time>2026-05-02T12:44:19Z</time></trkpt><trkpt lat="46.066685231426575" lon="11.520780979460403"><ele>496.4</ele><time>2026-05-02T12:44:20Z</time></trkpt><trkpt lat="46.066708308503095" lon="11.52090941867732"><ele>495.2</ele><time>2026-05-02T12:44:21Z</time></trkpt><trkpt lat="46.066755701647715" lon="11.52102519456745"><ele>494.0</ele><time>2026-05-02T12:44:22Z</time></trkpt><trkpt lat="46.066823266651376" lon="11.52111836573222"><ele>494.0</ele><time>2026-05-02T12:44:23Z</time></trkpt><trkpt lat="46.066906557791086" lon="11.521178910223444"><ele>494.0</ele><time>2026-05-02T12:44:24Z</time></trkpt><trkpt lat="46.06699747922443" lon="11.521211950903746"><ele>494.0</ele><time>2026-05-02T12:44:25Z</time></trkpt><trkpt lat="46.067092810699464" lon="11.521219871641566"><ele>494.0</ele><time>2026-05-02T12:44:26Z</time></trkpt><trkpt lat="46.067186893510915" lon="11.521211908896618"><ele>494.0</ele><time>2026-05-02T12:44:27Z</time></trkpt><trkpt lat="46.06728241611466" lon="11.52120286212541"><ele>493.99999999999994</ele><time>2026-05-02T12:44:28Z</time></trkpt><trkpt lat="46.06737749102682" lon="11.521193857590111"><ele>494.0</ele><time>2026-05-02T12:44:29Z</time></trkpt><trkpt lat="46.0674711569463" lon="11.521189265079602"><ele>494.0</ele><time>2026-05-02T12:44:30Z</time></trkpt><trkpt lat="46.06754615467464" lon="11.521202165865915"><ele>494.0</ele><time>2026-05-02T12:44:31Z</time></trkpt><trkpt lat="46.067606650135275" lon="11.52123682447349"><ele>493.99999999999994</ele><time>2026-05-02T12:44:32Z</time></trkpt><trkpt lat="46.06765674783746" lon="11.52130287158774"><ele>494.0</ele><time>2026-05-02T12:44:33Z</time></trkpt><trkpt lat="46.06769120818435" lon="11.521387418289073"><ele>492.66666666666663</ele><time>2026-05-02T12:44:34Z</time></trkpt><trkpt lat="46.06770971216057" lon="11.521477311014449"><ele>491.3333333333333</ele><time>2026-05-02T12:44:35Z</time></trkpt><trkpt lat="46.06770485324029" lon="11.52160864997195"><ele>490.0</ele><time>2026-05-02T12:44:37Z</time></trkpt><trkpt lat="46.06769071950638" lon="11.52172442584466"><ele>488.66666666666663</ele><time>2026-05-02T12:44:39Z</time></trkpt><trkpt lat="46.067666904326394" lon="11.521878414689272"><ele>487.3333333333333</ele><time>2026-05-02T12:44:40.999Z</time></trkpt><trkpt lat="46.067641969428294" lon="11.521971711165232"><ele>486.0</ele><time>2026-05-02T12:44:41.999Z</time></trkpt><trkpt lat="46.06761008011098" lon="11.522063106280665"><ele>485.3333333333333</ele><time>2026-05-02T12:44:42.999Z</time></trkpt><trkpt lat="46.06757559538517" lon="11.522148479479176"><ele>484.66666666666663</ele><time>2026-05-02T12:44:43.999Z</time></trkpt><trkpt lat="46.067507875998" lon="11.522259304891618"><ele>484.0</ele><time>2026-05-02T12:44:45.999Z</time></trkpt><trkpt lat="46.06746101744269" lon="11.522345464735906"><ele>483.3333333333333</ele><time>2026-05-02T12:44:47.999Z</time></trkpt><trkpt lat="46.06746030431886" lon="11.522462457604725"><ele>482.66666666666663</ele><time>2026-05-02T12:44:49.999Z</time></trkpt><trkpt lat="46.06746345251811" lon="11.5225627657964"><ele>482.0</ele><time>2026-05-02T12:44:51.999Z</time></trkpt><trkpt lat="46.06745273016079" lon="11.522669547011885"><ele>480.49999999999994</ele><time>2026-05-02T12:44:54.999Z</time></trkpt><trkpt lat="46.06737303789413" lon="11.522627080492205"><ele>479.0</ele><time>2026-05-02T12:44:58.999Z</time></trkpt><trkpt lat="46.0673226821582" lon="11.522460660115806"><ele>477.5</ele><time>2026-05-02T12:45:00.999Z</time></trkpt><trkpt lat="46.06727069865291" lon="11.522380319226595"><ele>476.0</ele><time>2026-05-02T12:45:01.999Z</time></trkpt><trkpt lat="46.067212079223815" lon="11.522309943809045"><ele>474.49999999999994</ele><time>2026-05-02T12:45:02.999Z</time></trkpt><trkpt lat="46.06714036308018" lon="11.522260580584275"><ele>473.0</ele><time>2026-05-02T12:45:03.999Z</time></trkpt><trkpt lat="46.067055062389514" lon="11.522224140940219"><ele>473.0</ele><time>2026-05-02T12:45:05Z</time></trkpt><trkpt lat="46.066957054385995" lon="11.522192754490707"><ele>472.99999999999994</ele><time>2026-05-02T12:45:06Z</time></trkpt><trkpt lat="46.06685882792444" lon="11.522155050976618"><ele>472.99999999999994</ele><time>2026-05-02T12:45:07Z</time></trkpt><trkpt lat="46.0667585357724" lon="11.52211802122404"><ele>473.0</ele><time>2026-05-02T12:45:08Z</time></trkpt><trkpt lat="46.066653551375104" lon="11.522079836525732"><ele>473.0</ele><time>2026-05-02T12:45:09Z</time></trkpt><trkpt lat="46.06655789589264" lon="11.522036009462116"><ele>471.8333333333333</ele><time>2026-05-02T12:45:10Z</time></trkpt><trkpt lat="46.066467536834736" lon="11.521993214609962"><ele>470.66666666666663</ele><time>2026-05-02T12:45:11Z</time></trkpt><trkpt lat="46.06637534697863" lon="11.521979092987324"><ele>469.5</ele><time>2026-05-02T12:45:12Z</time></trkpt><trkpt lat="46.06628705194903" lon="11.52199691324915"><ele>468.33333333333337</ele><time>2026-05-02T12:45:13Z</time></trkpt><trkpt lat="46.06620748196504" lon="11.522045723238053"><ele>467.1666666666667</ele><time>2026-05-02T12:45:14Z</time></trkpt><trkpt lat="46.066142137118504" lon="11.522114339792155"><ele>466.0</ele><time>2026-05-02T12:45:15Z</time></trkpt><trkpt lat="46.06609131236052" lon="11.522199232874991"><ele>466.00000000000006</ele><time>2026-05-02T12:45:16Z</time></trkpt><trkpt lat="46.06605579035224" lon="11.522303114285458"><ele>466.0</ele><time>2026-05-02T12:45:17Z</time></trkpt><trkpt lat="46.066032753820956" lon="11.52242573493209"><ele>466.0</ele><time>2026-05-02T12:45:18Z</time></trkpt><trkpt lat="46.06602342531372" lon="11.522558131931763"><ele>466.0</ele><time>2026-05-02T12:45:19Z</time></trkpt><trkpt lat="46.0660226173402" lon="11.522695015590854"><ele>466.00000000000006</ele><time>2026-05-02T12:45:20Z</time></trkpt><trkpt lat="46.066021586678595" lon="11.522820264443553"><ele>466.0</ele><time>2026-05-02T12:45:21Z</time></trkpt><trkpt lat="46.066017664629136" lon="11.522943297513903"><ele>466.00000000000006</ele><time>2026-05-02T12:45:22Z</time></trkpt><trkpt lat="46.066013036833596" lon="11.523062432338778"><ele>466.0</ele><time>2026-05-02T12:45:23Z</time></trkpt><trkpt lat="46.066001487809594" lon="11.523176984696052"><ele>466.0</ele><time>2026-05-02T12:45:24Z</time></trkpt><trkpt lat="46.06596762566153" lon="11.523277409535133"><ele>466.0</ele><time>2026-05-02T12:45:25Z</time></trkpt><trkpt lat="46.065910651221515" lon="11.523359509252186"><ele>466.00000000000006</ele><time>2026-05-02T12:45:26Z</time></trkpt><trkpt lat="46.06584474644698" lon="11.52343002463299"><ele>466.0</ele><time>2026-05-02T12:45:27Z</time></trkpt><trkpt lat="46.065774840139035" lon="11.523497240203678"><ele>463.8</ele><time>2026-05-02T12:45:28Z</time></trkpt><trkpt lat="46.065700959688215" lon="11.523572554520017"><ele>461.6</ele><time>2026-05-02T12:45:29Z</time></trkpt><trkpt lat="46.065620589212145" lon="11.523646059612028"><ele>459.4</ele><time>2026-05-02T12:45:30Z</time></trkpt><trkpt lat="46.06553408286046" lon="11.523710974344553"><ele>457.2</ele><time>2026-05-02T12:45:31Z</time></trkpt><trkpt lat="46.06544561321921" lon="11.52376967632538"><ele>455.0</ele><time>2026-05-02T12:45:32Z</time></trkpt><trkpt lat="46.06535168396395" lon="11.523820429966959"><ele>454.6</ele><time>2026-05-02T12:45:33Z</time></trkpt><trkpt lat="46.06525600025526" lon="11.523868918844993"><ele>454.2</ele><time>2026-05-02T12:45:34Z</time></trkpt><trkpt lat="46.06515598351509" lon="11.523921751648261"><ele>453.79999999999995</ele><time>2026-05-02T12:45:35Z</time></trkpt><trkpt lat="46.06505400747402" lon="11.523979234433845"><ele>453.4</ele><time>2026-05-02T12:45:36Z</time></trkpt><trkpt lat="46.064950196094905" lon="11.524032491298746"><ele>453.0</ele><time>2026-05-02T12:45:37Z</time></trkpt><trkpt lat="46.06484794180913" lon="11.524088487771724"><ele>451.59999999999997</ele><time>2026-05-02T12:45:38Z</time></trkpt><trkpt lat="46.06474634479322" lon="11.524144881383853"><ele>450.19999999999993</ele><time>2026-05-02T12:45:39Z</time></trkpt><trkpt lat="46.06464159039247" lon="11.524182990484949"><ele>448.8</ele><time>2026-05-02T12:45:40Z</time></trkpt><trkpt lat="46.06452833831643" lon="11.524196304534126"><ele>447.4</ele><time>2026-05-02T12:45:41Z</time></trkpt><trkpt lat="46.064410734877754" lon="11.524184273454562"><ele>446.0</ele><time>2026-05-02T12:45:42Z</time></trkpt><trkpt lat="46.0642971097077" lon="11.524154984847891"><ele>446.0</ele><time>2026-05-02T12:45:43Z</time></trkpt><trkpt lat="46.06418946469337" lon="11.524106383487695"><ele>446.0</ele><time>2026-05-02T12:45:44Z</time></trkpt><trkpt lat="46.064089252292284" lon="11.524047039972826"><ele>446.0</ele><time>2026-05-02T12:45:45Z</time></trkpt><trkpt lat="46.06399234020753" lon="11.523988384869575"><ele>446.0</ele><time>2026-05-02T12:45:46Z</time></trkpt><trkpt lat="46.06389683275779" lon="11.523930169177078"><ele>446.0</ele><time>2026-05-02T12:45:47Z</time></trkpt><trkpt lat="46.06380307466562" lon="11.523878185853981"><ele>444.6</ele><time>2026-05-02T12:45:48Z</time></trkpt><trkpt lat="46.06370944059564" lon="11.523836221271834"><ele>443.20000000000005</ele><time>2026-05-02T12:45:49Z</time></trkpt><trkpt lat="46.06361753009363" lon="11.523798558260493"><ele>441.79999999999995</ele><time>2026-05-02T12:45:50Z</time></trkpt><trkpt lat="46.06352814587909" lon="11.523769801504715"><ele>440.4</ele><time>2026-05-02T12:45:51Z</time></trkpt><trkpt lat="46.0634385971978" lon="11.523758860695743"><ele>439.0</ele><time>2026-05-02T12:45:52Z</time></trkpt><trkpt lat="46.06335095788604" lon="11.523772035020254"><ele>437.83333333333337</ele><time>2026-05-02T12:45:53Z</time></trkpt><trkpt lat="46.06326926766492" lon="11.523802351904369"><ele>436.6666666666667</ele><time>2026-05-02T12:45:54Z</time></trkpt><trkpt lat="46.06319086447307" lon="11.52383819049909"><ele>435.5</ele><time>2026-05-02T12:45:55Z</time></trkpt><trkpt lat="46.06311436605443" lon="11.523876058053762"><ele>434.33333333333337</ele><time>2026-05-02T12:45:56Z</time></trkpt><trkpt lat="46.06303746545037" lon="11.523913898552598"><ele>433.1666666666667</ele><time>2026-05-02T12:45:57Z</time></trkpt><trkpt lat="46.06296036712537" lon="11.523949447230137"><ele>432.0</ele><time>2026-05-02T12:45:58Z</time></trkpt><trkpt lat="46.06288102970787" lon="11.523977466219863"><ele>432.0</ele><time>2026-05-02T12:45:59Z</time></trkpt><trkpt lat="46.06280198752624" lon="11.523996846455338"><ele>432.0</ele><time>2026-05-02T12:46:00Z</time></trkpt><trkpt lat="46.06272101841961" lon="11.524005898111527"><ele>432.0</ele><time>2026-05-02T12:46:01Z</time></trkpt><trkpt lat="46.06264021772524" lon="11.524003779898221"><ele>432.0</ele><time>2026-05-02T12:46:02Z</time></trkpt><trkpt lat="46.06256313584205" lon="11.523991411741134"><ele>432.0</ele><time>2026-05-02T12:46:03Z</time></trkpt><trkpt lat="46.062481068625615" lon="11.523973515869367"><ele>432.0</ele><time>2026-05-02T12:46:04Z</time></trkpt><trkpt lat="46.06240295362182" lon="11.523948814927929"><ele>430.8333333333333</ele><time>2026-05-02T12:46:05Z</time></trkpt><trkpt lat="46.06232776845631" lon="11.523916927990694"><ele>429.66666666666663</ele><time>2026-05-02T12:46:06Z</time></trkpt><trkpt lat="46.06224544001417" lon="11.523883284745299"><ele>428.5</ele><time>2026-05-02T12:46:07Z</time></trkpt><trkpt lat="46.06215985072057" lon="11.523845086529347"><ele>427.3333333333333</ele><time>2026-05-02T12:46:08Z</time></trkpt><trkpt lat="46.06207070373062" lon="11.523803247878577"><ele>426.16666666666663</ele><time>2026-05-02T12:46:09Z</time></trkpt><trkpt lat="46.06197564194094" lon="11.523756580083836"><ele>425.0</ele><time>2026-05-02T12:46:10.001Z</time></trkpt><trkpt lat="46.061876079112814" lon="11.523717202465376"><ele>424.75</ele><time>2026-05-02T12:46:11.001Z</time></trkpt><trkpt lat="46.06176994694447" lon="11.52369291788492"><ele>424.5</ele><time>2026-05-02T12:46:12.001Z</time></trkpt><trkpt lat="46.06165439688049" lon="11.523687585023296"><ele>424.25</ele><time>2026-05-02T12:46:13.001Z</time></trkpt><trkpt lat="46.06152780350304" lon="11.52369201186454"><ele>424.0</ele><time>2026-05-02T12:46:14.001Z</time></trkpt><trkpt lat="46.061404802406535" lon="11.523694505598026"><ele>422.75</ele><time>2026-05-02T12:46:15.001Z</time></trkpt><trkpt lat="46.06128671009295" lon="11.523692621215933"><ele>421.5</ele><time>2026-05-02T12:46:16.001Z</time></trkpt><trkpt lat="46.061172932359035" lon="11.523680320422308"><ele>420.25</ele><time>2026-05-02T12:46:17.001Z</time></trkpt><trkpt lat="46.06106173537748" lon="11.523649147274567"><ele>419.0</ele><time>2026-05-02T12:46:18.001Z</time></trkpt><trkpt lat="46.06095681964203" lon="11.523595262498327"><ele>419.0</ele><time>2026-05-02T12:46:19.001Z</time></trkpt><trkpt lat="46.06085298048958" lon="11.52351238035835"><ele>419.0</ele><time>2026-05-02T12:46:20.001Z</time></trkpt><trkpt lat="46.06074879004518" lon="11.52340946125593"><ele>419.0</ele><time>2026-05-02T12:46:21.001Z</time></trkpt><trkpt lat="46.06064328737541" lon="11.523295951851717"><ele>419.0</ele><time>2026-05-02T12:46:22.001Z</time></trkpt><trkpt lat="46.060533716739286" lon="11.523179116730736"><ele>417.75</ele><time>2026-05-02T12:46:23.001Z</time></trkpt><trkpt lat="46.06042758582198" lon="11.523063248927446"><ele>416.5</ele><time>2026-05-02T12:46:24.001Z</time></trkpt><trkpt lat="46.060326982168085" lon="11.522950202878702"><ele>415.25</ele><time>2026-05-02T12:46:25.001Z</time></trkpt><trkpt lat="46.06022932252117" lon="11.522838651038814"><ele>414.0</ele><time>2026-05-02T12:46:26.001Z</time></trkpt><trkpt lat="46.060136648564516" lon="11.522730348312846"><ele>413.25</ele><time>2026-05-02T12:46:27.001Z</time></trkpt><trkpt lat="46.06004717661861" lon="11.522627546835874"><ele>412.5</ele><time>2026-05-02T12:46:28.001Z</time></trkpt><trkpt lat="46.05995908366419" lon="11.522530025916883"><ele>411.75</ele><time>2026-05-02T12:46:29.001Z</time></trkpt><trkpt lat="46.059867087959894" lon="11.522430940021286"><ele>411.0</ele><time>2026-05-02T12:46:30.001Z</time></trkpt><trkpt lat="46.05976147053343" lon="11.522320051325542"><ele>409.0</ele><time>2026-05-02T12:46:31.001Z</time></trkpt><trkpt lat="46.05965139844169" lon="11.522203334390948"><ele>407.0</ele><time>2026-05-02T12:46:32.001Z</time></trkpt><trkpt lat="46.059522684220916" lon="11.522074389069166"><ele>405.0</ele><time>2026-05-02T12:46:33.001Z</time></trkpt><trkpt lat="46.05938291941301" lon="11.521924552391047"><ele>405.0</ele><time>2026-05-02T12:46:34.001Z</time></trkpt><trkpt lat="46.059231070688995" lon="11.5217519623263"><ele>405.0</ele><time>2026-05-02T12:46:35.001Z</time></trkpt><trkpt lat="46.0590924018841" lon="11.521589267175111"><ele>405.0</ele><time>2026-05-02T12:46:36.001Z</time></trkpt><trkpt lat="46.058970565971975" lon="11.521440638735804"><ele>404.0</ele><time>2026-05-02T12:46:37.001Z</time></trkpt><trkpt lat="46.05885907000018" lon="11.52131260426407"><ele>403.0</ele><time>2026-05-02T12:46:38.001Z</time></trkpt><trkpt lat="46.058752473085434" lon="11.52119693464046"><ele>402.0</ele><time>2026-05-02T12:46:39.001Z</time></trkpt><trkpt lat="46.05864781441779" lon="11.521086197552604"><ele>401.0</ele><time>2026-05-02T12:46:40.001Z</time></trkpt><trkpt lat="46.05854610092268" lon="11.520973610392838"><ele>401.0</ele><time>2026-05-02T12:46:41.001Z</time></trkpt><trkpt lat="46.05844610754249" lon="11.520861321032374"><ele>401.0</ele><time>2026-05-02T12:46:42.001Z</time></trkpt><trkpt lat="46.058345832580535" lon="11.5207407066756"><ele>401.0</ele><time>2026-05-02T12:46:43.001Z</time></trkpt><trkpt lat="46.05823971738799" lon="11.52062089055174"><ele>401.0</ele><time>2026-05-02T12:46:44.001Z</time></trkpt><trkpt lat="46.058118896396245" lon="11.520517285083546"><ele>399.0</ele><time>2026-05-02T12:46:45.001Z</time></trkpt><trkpt lat="46.05798742985727" lon="11.5204235366999"><ele>397.0</ele><time>2026-05-02T12:46:46.001Z</time></trkpt><trkpt lat="46.05785193036358" lon="11.520324467388031"><ele>395.0</ele><time>2026-05-02T12:46:47Z</time></trkpt><trkpt lat="46.05771740795566" lon="11.520222186284721"><ele>395.0</ele><time>2026-05-02T12:46:48Z</time></trkpt><trkpt lat="46.05759117422769" lon="11.520119546129752"><ele>395.0</ele><time>2026-05-02T12:46:49Z</time></trkpt><trkpt lat="46.05746914576273" lon="11.520020236399892"><ele>395.0</ele><time>2026-05-02T12:46:50Z</time></trkpt><trkpt lat="46.05735091636923" lon="11.519924943722359"><ele>395.0</ele><time>2026-05-02T12:46:51Z</time></trkpt><trkpt lat="46.05723090971755" lon="11.519845783732482"><ele>393.25</ele><time>2026-05-02T12:46:52Z</time></trkpt><trkpt lat="46.05710200079407" lon="11.519775257930304"><ele>391.5</ele><time>2026-05-02T12:46:53Z</time></trkpt><trkpt lat="46.05697426000274" lon="11.51970109068998"><ele>389.75</ele><time>2026-05-02T12:46:54Z</time></trkpt><trkpt lat="46.056848178832084" lon="11.519621388548012"><ele>388.0</ele><time>2026-05-02T12:46:55Z</time></trkpt><trkpt lat="46.05672001237841" lon="11.519540272625832"><ele>385.75</ele><time>2026-05-02T12:46:56Z</time></trkpt><trkpt lat="46.056589293414184" lon="11.519459347702638"><ele>383.5</ele><time>2026-05-02T12:46:57Z</time></trkpt><trkpt lat="46.05645775411797" lon="11.519377066753082"><ele>381.25</ele><time>2026-05-02T12:46:58Z</time></trkpt><trkpt lat="46.056326264661024" lon="11.519294360140938"><ele>379.0</ele><time>2026-05-02T12:46:59Z</time></trkpt><trkpt lat="46.05619824695155" lon="11.519214826609934"><ele>379.0</ele><time>2026-05-02T12:47:00Z</time></trkpt><trkpt lat="46.056072039036124" lon="11.519138607637293"><ele>379.0</ele><time>2026-05-02T12:47:01Z</time></trkpt><trkpt lat="46.055954258033836" lon="11.519069336613276"><ele>379.0</ele><time>2026-05-02T12:47:02Z</time></trkpt><trkpt lat="46.05585641563104" lon="11.519020749064575"><ele>379.0</ele><time>2026-05-02T12:47:03Z</time></trkpt><trkpt lat="46.05575188049833" lon="11.518995253174422"><ele>377.5</ele><time>2026-05-02T12:47:04Z</time></trkpt><trkpt lat="46.05563746103403" lon="11.51899926980915"><ele>376.0</ele><time>2026-05-02T12:47:05Z</time></trkpt><trkpt lat="46.055514871140446" lon="11.519019421886508"><ele>374.5</ele><time>2026-05-02T12:47:06Z</time></trkpt><trkpt lat="46.05538347908794" lon="11.519046444509895"><ele>373.0</ele><time>2026-05-02T12:47:07Z</time></trkpt><trkpt lat="46.05524140805245" lon="11.519077625318754"><ele>373.0</ele><time>2026-05-02T12:47:08Z</time></trkpt><trkpt lat="46.05508135850447" lon="11.519110038314444"><ele>373.0</ele><time>2026-05-02T12:47:09Z</time></trkpt><trkpt lat="46.05491246255846" lon="11.519140792893058"><ele>373.0</ele><time>2026-05-02T12:47:10Z</time></trkpt><trkpt lat="46.05475119408566" lon="11.519167462065436"><ele>371.3333333333333</ele><time>2026-05-02T12:47:11Z</time></trkpt><trkpt lat="46.054591990377915" lon="11.519175724568324"><ele>369.6666666666667</ele><time>2026-05-02T12:47:12Z</time></trkpt><trkpt lat="46.05443596414355" lon="11.519134535093395"><ele>368.0</ele><time>2026-05-02T12:47:13Z</time></trkpt><trkpt lat="46.05428238961574" lon="11.519036752393994"><ele>368.0</ele><time>2026-05-02T12:47:14Z</time></trkpt><trkpt lat="46.05412595189718" lon="11.518907326517713"><ele>368.0</ele><time>2026-05-02T12:47:15Z</time></trkpt><trkpt lat="46.05396658284099" lon="11.518767964964125"><ele>368.0</ele><time>2026-05-02T12:47:16Z</time></trkpt><trkpt lat="46.05380021846471" lon="11.518636422185873"><ele>367.0</ele><time>2026-05-02T12:47:17Z</time></trkpt><trkpt lat="46.05363707810827" lon="11.51852816830327"><ele>366.0</ele><time>2026-05-02T12:47:18Z</time></trkpt><trkpt lat="46.0534730672123" lon="11.51843404649674"><ele>365.0</ele><time>2026-05-02T12:47:19Z</time></trkpt><trkpt lat="46.053313944956194" lon="11.518343351468074"><ele>363.75</ele><time>2026-05-02T12:47:20Z</time></trkpt><trkpt lat="46.05315990829754" lon="11.518250824453396"><ele>362.5</ele><time>2026-05-02T12:47:21Z</time></trkpt><trkpt lat="46.05302619443164" lon="11.51817106804598"><ele>361.25</ele><time>2026-05-02T12:47:22Z</time></trkpt><trkpt lat="46.05291272865843" lon="11.518103573915596"><ele>360.0</ele><time>2026-05-02T12:47:23Z</time></trkpt><trkpt lat="46.05280454146444" lon="11.518038837329538"><ele>360.0</ele><time>2026-05-02T12:47:24Z</time></trkpt><trkpt lat="46.05269128062151" lon="11.517979085227827"><ele>360.0</ele><time>2026-05-02T12:47:25Z</time></trkpt><trkpt lat="46.052572699573794" lon="11.517931053907335"><ele>360.0</ele><time>2026-05-02T12:47:26Z</time></trkpt><trkpt lat="46.05244780123519" lon="11.517900784567729"><ele>360.0</ele><time>2026-05-02T12:47:27Z</time></trkpt><trkpt lat="46.05231748188067" lon="11.517874722380288"><ele>358.75</ele><time>2026-05-02T12:47:28.001Z</time></trkpt><trkpt lat="46.05217833180764" lon="11.517846907096803"><ele>357.5</ele><time>2026-05-02T12:47:29.001Z</time></trkpt><trkpt lat="46.05203337483496" lon="11.517818886640395"><ele>356.25</ele><time>2026-05-02T12:47:30.001Z</time></trkpt><trkpt lat="46.051886417242045" lon="11.517792396750785"><ele>355.0</ele><time>2026-05-02T12:47:31.001Z</time></trkpt><trkpt lat="46.05173819129761" lon="11.517764882353502"><ele>354.25</ele><time>2026-05-02T12:47:32.001Z</time></trkpt><trkpt lat="46.051600972827245" lon="11.517734633775191"><ele>353.5</ele><time>2026-05-02T12:47:33.001Z</time></trkpt><trkpt lat="46.051485688257614" lon="11.51769754545498"><ele>352.75</ele><time>2026-05-02T12:47:34.001Z</time></trkpt><trkpt lat="46.051380978459946" lon="11.51765452909952"><ele>352.0</ele><time>2026-05-02T12:47:35.001Z</time></trkpt><trkpt lat="46.051290771300046" lon="11.517610012218837"><ele>352.0</ele><time>2026-05-02T12:47:36.001Z</time></trkpt><trkpt lat="46.05121471303593" lon="11.51756597301626"><ele>352.0</ele><time>2026-05-02T12:47:37.001Z</time></trkpt><trkpt lat="46.05115528971862" lon="11.51752892871159"><ele>352.0</ele><time>2026-05-02T12:47:38.001Z</time></trkpt><trkpt lat="46.05106145917916" lon="11.5174694007615"><ele>352.0</ele><time>2026-05-02T12:47:40.001Z</time></trkpt><trkpt lat="46.05099549845956" lon="11.517407904699402"><ele>352.0</ele><time>2026-05-02T12:47:42.001Z</time></trkpt><trkpt lat="46.05095415063435" lon="11.517321996616694"><ele>352.0</ele><time>2026-05-02T12:47:44.001Z</time></trkpt><trkpt lat="46.050962808198435" lon="11.517141429051712"><ele>351.20000000000005</ele><time>2026-05-02T12:47:46.001Z</time></trkpt><trkpt lat="46.05100147430606" lon="11.516998838962028"><ele>350.4</ele><time>2026-05-02T12:47:47.001Z</time></trkpt><trkpt lat="46.051039577630156" lon="11.516851061212659"><ele>349.6</ele><time>2026-05-02T12:47:48.001Z</time></trkpt><trkpt lat="46.05107520635351" lon="11.516698271205652"><ele>348.79999999999995</ele><time>2026-05-02T12:47:49.001Z</time></trkpt><trkpt lat="46.05110863044588" lon="11.516547525394474"><ele>348.0</ele><time>2026-05-02T12:47:50.001Z</time></trkpt><trkpt lat="46.051139752646016" lon="11.516397508033313"><ele>348.0</ele><time>2026-05-02T12:47:51.001Z</time></trkpt><trkpt lat="46.051172486865994" lon="11.51625038267405"><ele>348.0</ele><time>2026-05-02T12:47:52.001Z</time></trkpt><trkpt lat="46.05120575734823" lon="11.51610476847495"><ele>348.0</ele><time>2026-05-02T12:47:53.001Z</time></trkpt><trkpt lat="46.05123869903976" lon="11.51595990876731"><ele>348.0</ele><time>2026-05-02T12:47:54.001Z</time></trkpt><trkpt lat="46.051269215019744" lon="11.515811145993567"><ele>348.0</ele><time>2026-05-02T12:47:55.001Z</time></trkpt><trkpt lat="46.05130494262151" lon="11.515648188666104"><ele>347.3333333333333</ele><time>2026-05-02T12:47:56.001Z</time></trkpt><trkpt lat="46.051353230214154" lon="11.515433671273554"><ele>346.66666666666663</ele><time>2026-05-02T12:47:57.001Z</time></trkpt><trkpt lat="46.05141043823985" lon="11.51517126061647"><ele>346.0</ele><time>2026-05-02T12:47:58.001Z</time></trkpt><trkpt lat="46.05147439537984" lon="11.514893367932908"><ele>346.0</ele><time>2026-05-02T12:47:59.001Z</time></trkpt><trkpt lat="46.05153889279408" lon="11.514611345116345"><ele>346.0</ele><time>2026-05-02T12:48:00.001Z</time></trkpt><trkpt lat="46.05160360151707" lon="11.51432972130078"><ele>346.0</ele><time>2026-05-02T12:48:01.001Z</time></trkpt><trkpt lat="46.05166490015799" lon="11.514048705557533"><ele>347.0</ele><time>2026-05-02T12:48:02.001Z</time></trkpt><trkpt lat="46.051727213182204" lon="11.513764371511545"><ele>348.0</ele><time>2026-05-02T12:48:03.001Z</time></trkpt><trkpt lat="46.051792251471795" lon="11.513477249625714"><ele>349.0</ele><time>2026-05-02T12:48:04.001Z</time></trkpt><trkpt lat="46.05185459480006" lon="11.513189642571987"><ele>349.0</ele><time>2026-05-02T12:48:05.001Z</time></trkpt><trkpt lat="46.051916537756256" lon="11.512901490793398"><ele>349.0</ele><time>2026-05-02T12:48:06.001Z</time></trkpt><trkpt lat="46.05198269709529" lon="11.512583376797677"><ele>349.0</ele><time>2026-05-02T12:48:07.001Z</time></trkpt><trkpt lat="46.052051343951874" lon="11.512227647545803"><ele>349.0</ele><time>2026-05-02T12:48:08.001Z</time></trkpt><trkpt lat="46.0521134478795" lon="11.51185409395403"><ele>349.0</ele><time>2026-05-02T12:48:09.001Z</time></trkpt><trkpt lat="46.05216756629886" lon="11.511486175993646"><ele>348.0</ele><time>2026-05-02T12:48:10.001Z</time></trkpt><trkpt lat="46.05221046604407" lon="11.511136704320688"><ele>347.0</ele><time>2026-05-02T12:48:11.001Z</time></trkpt><trkpt lat="46.052242999280416" lon="11.510800136253154"><ele>347.0</ele><time>2026-05-02T12:48:12.001Z</time></trkpt><trkpt lat="46.05224910236042" lon="11.510468546596801"><ele>347.0</ele><time>2026-05-02T12:48:13.001Z</time></trkpt><trkpt lat="46.05222798629645" lon="11.510120805548752"><ele>347.0</ele><time>2026-05-02T12:48:14.001Z</time></trkpt><trkpt lat="46.052175334888304" lon="11.50975327289743"><ele>347.0</ele><time>2026-05-02T12:48:15.001Z</time></trkpt><trkpt lat="46.05210247400774" lon="11.50935429421428"><ele>348.0</ele><time>2026-05-02T12:48:16.001Z</time></trkpt><trkpt lat="46.05202005747064" lon="11.508925179361306"><ele>349.0</ele><time>2026-05-02T12:48:17.001Z</time></trkpt><trkpt lat="46.05193184490568" lon="11.508477440458725"><ele>349.5</ele><time>2026-05-02T12:48:18.001Z</time></trkpt><trkpt lat="46.05184173094245" lon="11.508023942026187"><ele>350.0</ele><time>2026-05-02T12:48:19.001Z</time></trkpt><trkpt lat="46.051750602949994" lon="11.507569441607526"><ele>350.0</ele><time>2026-05-02T12:48:20.001Z</time></trkpt><trkpt lat="46.05165710016543" lon="11.507111801672123"><ele>350.0</ele><time>2026-05-02T12:48:21.001Z</time></trkpt><trkpt lat="46.05156042039572" lon="11.506640947721944"><ele>348.5</ele><time>2026-05-02T12:48:22.001Z</time></trkpt><trkpt lat="46.051459283514184" lon="11.506144879906365"><ele>347.0</ele><time>2026-05-02T12:48:23.001Z</time></trkpt><trkpt lat="46.051357344424396" lon="11.505636669906858"><ele>346.5</ele><time>2026-05-02T12:48:24.001Z</time></trkpt><trkpt lat="46.051253764931495" lon="11.505110936448041"><ele>346.0</ele><time>2026-05-02T12:48:25.001Z</time></trkpt><trkpt lat="46.051153835558175" lon="11.50459879913982"><ele>346.0</ele><time>2026-05-02T12:48:26.001Z</time></trkpt><trkpt lat="46.05105298377464" lon="11.504096097542911"><ele>346.0</ele><time>2026-05-02T12:48:27.001Z</time></trkpt><trkpt lat="46.05095407112149" lon="11.503603740704618"><ele>346.5</ele><time>2026-05-02T12:48:28.001Z</time></trkpt><trkpt lat="46.05085813067069" lon="11.503120639729644"><ele>347.0</ele><time>2026-05-02T12:48:29.001Z</time></trkpt><trkpt lat="46.050763596090704" lon="11.502646540975267"><ele>346.0</ele><time>2026-05-02T12:48:30.001Z</time></trkpt><trkpt lat="46.05067568491677" lon="11.50218096886385"><ele>345.0</ele><time>2026-05-02T12:48:31.001Z</time></trkpt><trkpt lat="46.05060439887033" lon="11.501717720379089"><ele>345.0</ele><time>2026-05-02T12:48:32.001Z</time></trkpt><trkpt lat="46.0505463839797" lon="11.501249112147079"><ele>345.0</ele><time>2026-05-02T12:48:33.001Z</time></trkpt><trkpt lat="46.050501485730294" lon="11.500774559721842"><ele>345.0</ele><time>2026-05-02T12:48:34.001Z</time></trkpt><trkpt lat="46.050481949972394" lon="11.50030642921158"><ele>345.0</ele><time>2026-05-02T12:48:35.001Z</time></trkpt><trkpt lat="46.0504864901167" lon="11.49983480185849"><ele>344.5</ele><time>2026-05-02T12:48:36.001Z</time></trkpt><trkpt lat="46.05050852815718" lon="11.499364312056446"><ele>344.0</ele><time>2026-05-02T12:48:37.001Z</time></trkpt><trkpt lat="46.05054476428633" lon="11.49889303496046"><ele>344.5</ele><time>2026-05-02T12:48:38.001Z</time></trkpt><trkpt lat="46.0505875369856" lon="11.498423049162412"><ele>345.0</ele><time>2026-05-02T12:48:39.001Z</time></trkpt><trkpt lat="46.050624755646034" lon="11.497966368938343"><ele>345.5</ele><time>2026-05-02T12:48:40.001Z</time></trkpt><trkpt lat="46.05065640965719" lon="11.497523631578778"><ele>346.0</ele><time>2026-05-02T12:48:41.001Z</time></trkpt><trkpt lat="46.05068393713105" lon="11.49708616683428"><ele>347.0</ele><time>2026-05-02T12:48:42.001Z</time></trkpt><trkpt lat="46.0507116063986" lon="11.4966515960059"><ele>348.0</ele><time>2026-05-02T12:48:43.001Z</time></trkpt><trkpt lat="46.05074266285133" lon="11.496215507768719"><ele>349.5</ele><time>2026-05-02T12:48:44.001Z</time></trkpt><trkpt lat="46.0507777586828" lon="11.495777868305936"><ele>351.0</ele><time>2026-05-02T12:48:45.001Z</time></trkpt><trkpt lat="46.050812835994044" lon="11.495330440661833"><ele>351.0</ele><time>2026-05-02T12:48:46.001Z</time></trkpt><trkpt lat="46.05084810228089" lon="11.494879378776282"><ele>351.0</ele><time>2026-05-02T12:48:47.001Z</time></trkpt><trkpt lat="46.05088629281691" lon="11.494431316656899"><ele>350.5</ele><time>2026-05-02T12:48:48.001Z</time></trkpt><trkpt lat="46.050922249048604" lon="11.493992282798864"><ele>350.0</ele><time>2026-05-02T12:48:49.001Z</time></trkpt><trkpt lat="46.050958240234465" lon="11.493558662236996"><ele>350.5</ele><time>2026-05-02T12:48:50.001Z</time></trkpt><trkpt lat="46.050996713925954" lon="11.493131197994499"><ele>351.0</ele><time>2026-05-02T12:48:51.001Z</time></trkpt><trkpt lat="46.05103523570622" lon="11.492700719187498"><ele>351.0</ele><time>2026-05-02T12:48:52.001Z</time></trkpt><trkpt lat="46.05107528202226" lon="11.492264027516976"><ele>351.0</ele><time>2026-05-02T12:48:53.001Z</time></trkpt><trkpt lat="46.051111375191745" lon="11.491820710694677"><ele>350.5</ele><time>2026-05-02T12:48:54.001Z</time></trkpt><trkpt lat="46.05114585299131" lon="11.491371022994754"><ele>350.0</ele><time>2026-05-02T12:48:55.001Z</time></trkpt><trkpt lat="46.05118075260634" lon="11.490916689137341"><ele>351.0</ele><time>2026-05-02T12:48:56.001Z</time></trkpt><trkpt lat="46.05121820471446" lon="11.490459351564729"><ele>352.0</ele><time>2026-05-02T12:48:57.001Z</time></trkpt><trkpt lat="46.051255943094816" lon="11.490008647968486"><ele>352.5</ele><time>2026-05-02T12:48:58.001Z</time></trkpt><trkpt lat="46.05128710408758" lon="11.489561164580701"><ele>353.0</ele><time>2026-05-02T12:48:59.001Z</time></trkpt><trkpt lat="46.051309753109656" lon="11.489113063393095"><ele>353.0</ele><time>2026-05-02T12:49:00.001Z</time></trkpt><trkpt lat="46.051323516287056" lon="11.48866465129111"><ele>353.0</ele><time>2026-05-02T12:49:01.001Z</time></trkpt><trkpt lat="46.05132318705954" lon="11.48821689093916"><ele>352.5</ele><time>2026-05-02T12:49:02.001Z</time></trkpt><trkpt lat="46.05131154143427" lon="11.487772922343051"><ele>352.0</ele><time>2026-05-02T12:49:03.001Z</time></trkpt><trkpt lat="46.05129032974893" lon="11.487335398321665"><ele>353.0</ele><time>2026-05-02T12:49:04.001Z</time></trkpt><trkpt lat="46.051262304629674" lon="11.486909344355517"><ele>354.0</ele><time>2026-05-02T12:49:05.001Z</time></trkpt><trkpt lat="46.051230870039916" lon="11.486489725663589"><ele>355.5</ele><time>2026-05-02T12:49:06.001Z</time></trkpt><trkpt lat="46.051198314212435" lon="11.486066037145005"><ele>357.0</ele><time>2026-05-02T12:49:07.001Z</time></trkpt><trkpt lat="46.051166323990735" lon="11.48563943456327"><ele>358.5</ele><time>2026-05-02T12:49:08.001Z</time></trkpt><trkpt lat="46.05113489281689" lon="11.48521409401549"><ele>360.0</ele><time>2026-05-02T12:49:09.001Z</time></trkpt><trkpt lat="46.05110266667467" lon="11.484783608227714"><ele>360.0</ele><time>2026-05-02T12:49:10.001Z</time></trkpt><trkpt lat="46.051068552785" lon="11.48435065919429"><ele>360.0</ele><time>2026-05-02T12:49:11.001Z</time></trkpt><trkpt lat="46.05103435741002" lon="11.483917931105456"><ele>359.5</ele><time>2026-05-02T12:49:12.001Z</time></trkpt><trkpt lat="46.050999891459725" lon="11.483481085275779"><ele>359.0</ele><time>2026-05-02T12:49:13.001Z</time></trkpt><trkpt lat="46.05096656002155" lon="11.483039089617927"><ele>360.5</ele><time>2026-05-02T12:49:14.001Z</time></trkpt><trkpt lat="46.05093125805713" lon="11.48259675479252"><ele>362.0</ele><time>2026-05-02T12:49:15.001Z</time></trkpt><trkpt lat="46.05089063628984" lon="11.482159911609209"><ele>362.0</ele><time>2026-05-02T12:49:16.001Z</time></trkpt><trkpt lat="46.050842068522236" lon="11.481729164206415"><ele>362.0</ele><time>2026-05-02T12:49:17.001Z</time></trkpt><trkpt lat="46.05078246736297" lon="11.481305556182079"><ele>362.5</ele><time>2026-05-02T12:49:18.001Z</time></trkpt><trkpt lat="46.05071363217685" lon="11.480888955761971"><ele>363.0</ele><time>2026-05-02T12:49:19.001Z</time></trkpt><trkpt lat="46.05063584824018" lon="11.480483009430403"><ele>363.0</ele><time>2026-05-02T12:49:20.001Z</time></trkpt><trkpt lat="46.050549521341615" lon="11.480084259681318"><ele>363.0</ele><time>2026-05-02T12:49:21.001Z</time></trkpt><trkpt lat="46.05045695933249" lon="11.479692308958283"><ele>364.0</ele><time>2026-05-02T12:49:22.001Z</time></trkpt><trkpt lat="46.05035447130477" lon="11.47930389604259"><ele>365.0</ele><time>2026-05-02T12:49:23.001Z</time></trkpt><trkpt lat="46.05024142881924" lon="11.47891698469663"><ele>366.0</ele><time>2026-05-02T12:49:24.001Z</time></trkpt><trkpt lat="46.05011728072174" lon="11.478531466252196"><ele>367.0</ele><time>2026-05-02T12:49:25.001Z</time></trkpt><trkpt lat="46.049983890979576" lon="11.478150408446174"><ele>370.5</ele><time>2026-05-02T12:49:26.001Z</time></trkpt><trkpt lat="46.04984343063322" lon="11.477774342660823"><ele>374.0</ele><time>2026-05-02T12:49:27.001Z</time></trkpt><trkpt lat="46.04970055190764" lon="11.47740752453789"><ele>374.0</ele><time>2026-05-02T12:49:28.001Z</time></trkpt><trkpt lat="46.04955752560279" lon="11.477043703478463"><ele>374.0</ele><time>2026-05-02T12:49:29.001Z</time></trkpt><trkpt lat="46.04941391446746" lon="11.476682411505232"><ele>374.0</ele><time>2026-05-02T12:49:30.001Z</time></trkpt><trkpt lat="46.049267681984496" lon="11.476316710570952"><ele>374.0</ele><time>2026-05-02T12:49:31.001Z</time></trkpt><trkpt lat="46.0491173380642" lon="11.475942579784748"><ele>378.5</ele><time>2026-05-02T12:49:32.001Z</time></trkpt><trkpt lat="46.04896465057299" lon="11.475561287509366"><ele>383.0</ele><time>2026-05-02T12:49:33.001Z</time></trkpt><trkpt lat="46.04881319170963" lon="11.475181608630427"><ele>383.0</ele><time>2026-05-02T12:49:34.001Z</time></trkpt><trkpt lat="46.04865951702488" lon="11.47479881705128"><ele>383.0</ele><time>2026-05-02T12:49:35.001Z</time></trkpt><trkpt lat="46.04850791072915" lon="11.474417695984373"><ele>382.5</ele><time>2026-05-02T12:49:36.001Z</time></trkpt><trkpt lat="46.04835747430993" lon="11.474038236430074"><ele>382.0</ele><time>2026-05-02T12:49:37.001Z</time></trkpt><trkpt lat="46.04821172624324" lon="11.473657572057839"><ele>387.0</ele><time>2026-05-02T12:49:38.001Z</time></trkpt><trkpt lat="46.04806757697649" lon="11.473274005828495"><ele>392.0</ele><time>2026-05-02T12:49:39.001Z</time></trkpt><trkpt lat="46.04792332530279" lon="11.472892782343225"><ele>392.0</ele><time>2026-05-02T12:49:40.001Z</time></trkpt><trkpt lat="46.04777575703123" lon="11.472513193513398"><ele>392.0</ele><time>2026-05-02T12:49:41.001Z</time></trkpt><trkpt lat="46.047626314389866" lon="11.472139116165804"><ele>391.5</ele><time>2026-05-02T12:49:42.001Z</time></trkpt><trkpt lat="46.04747728930698" lon="11.471764973826378"><ele>391.0</ele><time>2026-05-02T12:49:43.001Z</time></trkpt><trkpt lat="46.04733136078928" lon="11.471392894027888"><ele>395.5</ele><time>2026-05-02T12:49:44.001Z</time></trkpt><trkpt lat="46.04718333895852" lon="11.47102206358061"><ele>400.0</ele><time>2026-05-02T12:49:45.001Z</time></trkpt><trkpt lat="46.047036583696766" lon="11.470654026448377"><ele>400.0</ele><time>2026-05-02T12:49:46.001Z</time></trkpt><trkpt lat="46.046887986248024" lon="11.470284329170985"><ele>400.0</ele><time>2026-05-02T12:49:47.001Z</time></trkpt><trkpt lat="46.04674041455276" lon="11.469915637043497"><ele>404.5</ele><time>2026-05-02T12:49:48.001Z</time></trkpt><trkpt lat="46.04659479755614" lon="11.46954740400024"><ele>409.0</ele><time>2026-05-02T12:49:49.001Z</time></trkpt><trkpt lat="46.04645128206389" lon="11.469182677835214"><ele>409.0</ele><time>2026-05-02T12:49:50.001Z</time></trkpt><trkpt lat="46.046308833343446" lon="11.468824015745774"><ele>409.0</ele><time>2026-05-02T12:49:51.001Z</time></trkpt><trkpt lat="46.04616828315828" lon="11.468468777623993"><ele>408.0</ele><time>2026-05-02T12:49:52.001Z</time></trkpt><trkpt lat="46.046030049897695" lon="11.468115115750678"><ele>407.0</ele><time>2026-05-02T12:49:53.001Z</time></trkpt><trkpt lat="46.045889833851184" lon="11.46775801225846"><ele>408.0</ele><time>2026-05-02T12:49:54.001Z</time></trkpt><trkpt lat="46.04574531744614" lon="11.467400726154647"><ele>409.0</ele><time>2026-05-02T12:49:55.001Z</time></trkpt><trkpt lat="46.045606359948685" lon="11.467036012755393"><ele>409.0</ele><time>2026-05-02T12:49:56.001Z</time></trkpt><trkpt lat="46.04548376250968" lon="11.466662144851206"><ele>409.0</ele><time>2026-05-02T12:49:57.001Z</time></trkpt><trkpt lat="46.04538235084999" lon="11.466280471955159"><ele>409.0</ele><time>2026-05-02T12:49:58.001Z</time></trkpt><trkpt lat="46.04529543035583" lon="11.465880619094834"><ele>409.0</ele><time>2026-05-02T12:49:59.001Z</time></trkpt><trkpt lat="46.045222921933075" lon="11.4654693972083"><ele>409.0</ele><time>2026-05-02T12:50:00.001Z</time></trkpt><trkpt lat="46.04516634585867" lon="11.465052230397905"><ele>409.0</ele><time>2026-05-02T12:50:01.001Z</time></trkpt><trkpt lat="46.04512544935661" lon="11.464632608895744"><ele>408.5</ele><time>2026-05-02T12:50:02.001Z</time></trkpt><trkpt lat="46.04510118093464" lon="11.464211208246336"><ele>408.0</ele><time>2026-05-02T12:50:03.001Z</time></trkpt><trkpt lat="46.04508981363691" lon="11.463789326046575"><ele>409.5</ele><time>2026-05-02T12:50:04.001Z</time></trkpt><trkpt lat="46.04509506534876" lon="11.46336666667072"><ele>411.0</ele><time>2026-05-02T12:50:05.001Z</time></trkpt><trkpt lat="46.045118740058065" lon="11.462940844569918"><ele>413.5</ele><time>2026-05-02T12:50:06.001Z</time></trkpt><trkpt lat="46.04516156030581" lon="11.46251750405506"><ele>416.0</ele><time>2026-05-02T12:50:07.001Z</time></trkpt><trkpt lat="46.04521080738173" lon="11.46209221719784"><ele>417.0</ele><time>2026-05-02T12:50:08.001Z</time></trkpt><trkpt lat="46.04525727754574" lon="11.461681606123225"><ele>418.0</ele><time>2026-05-02T12:50:09.001Z</time></trkpt><trkpt lat="46.045306218716775" lon="11.461279653881133"><ele>419.0</ele><time>2026-05-02T12:50:10.001Z</time></trkpt><trkpt lat="46.04537088698121" lon="11.460859643684286"><ele>420.0</ele><time>2026-05-02T12:50:11.001Z</time></trkpt><trkpt lat="46.045443349944186" lon="11.460417960025826"><ele>420.5</ele><time>2026-05-02T12:50:12.001Z</time></trkpt><trkpt lat="46.04552810297164" lon="11.459959789950585"><ele>421.0</ele><time>2026-05-02T12:50:13.001Z</time></trkpt><trkpt lat="46.045579943121375" lon="11.459467015987483"><ele>422.0</ele><time>2026-05-02T12:50:14.001Z</time></trkpt><trkpt lat="46.04563554847163" lon="11.458948520484778"><ele>423.0</ele><time>2026-05-02T12:50:15.001Z</time></trkpt><trkpt lat="46.04568654998417" lon="11.458460444803821"><ele>434.5</ele><time>2026-05-02T12:50:16.001Z</time></trkpt><trkpt lat="46.04572564381229" lon="11.458086328844919"><ele>446.0</ele><time>2026-05-02T12:50:17.001Z</time></trkpt><trkpt lat="46.04577503320975" lon="11.457668438888108"><ele>432.0</ele><time>2026-05-02T12:50:18.001Z</time></trkpt><trkpt lat="46.04591575065112" lon="11.457245943041503"><ele>418.0</ele><time>2026-05-02T12:50:19.001Z</time></trkpt><trkpt lat="46.04599190709078" lon="11.456786217113352"><ele>418.0</ele><time>2026-05-02T12:50:20.001Z</time></trkpt><trkpt lat="46.04586756231554" lon="11.456455007774277"><ele>418.0</ele><time>2026-05-02T12:50:21.001Z</time></trkpt><trkpt lat="46.04586393321133" lon="11.456025117219752"><ele>428.5</ele><time>2026-05-02T12:50:22.001Z</time></trkpt><trkpt lat="46.045878016424226" lon="11.455583549286327"><ele>439.0</ele><time>2026-05-02T12:50:23.001Z</time></trkpt><trkpt lat="46.045906647838144" lon="11.455148186136853"><ele>453.0</ele><time>2026-05-02T12:50:24.001Z</time></trkpt><trkpt lat="46.04592873779288" lon="11.454706276524563"><ele>467.0</ele><time>2026-05-02T12:50:25.001Z</time></trkpt><trkpt lat="46.04594863882905" lon="11.454262691989554"><ele>468.0</ele><time>2026-05-02T12:50:26.001Z</time></trkpt><trkpt lat="46.04596109394346" lon="11.453809782759574"><ele>469.0</ele><time>2026-05-02T12:50:27.001Z</time></trkpt><trkpt lat="46.045813992450036" lon="11.453144004818151"><ele>515.0</ele><time>2026-05-02T12:50:28.001Z</time></trkpt><trkpt lat="46.045792868414274" lon="11.45261558990756"><ele>561.0</ele><time>2026-05-02T12:50:29.07Z</time></trkpt><trkpt lat="46.04577256615985" lon="11.452128103611281"><ele>557.5</ele><time>2026-05-02T12:50:30.051Z</time></trkpt><trkpt lat="46.045751776296534" lon="11.451631650662238"><ele>554.0</ele><time>2026-05-02T12:50:31.049Z</time></trkpt><trkpt lat="46.04573127565177" lon="11.451135431397622"><ele>535.5</ele><time>2026-05-02T12:50:32.048Z</time></trkpt><trkpt lat="46.04571068777542" lon="11.450642047109772"><ele>517.0</ele><time>2026-05-02T12:50:33.041Z</time></trkpt><trkpt lat="46.046801677288926" lon="11.448907605777947"><ele>470.5</ele><time>2026-05-02T12:50:38.001Z</time></trkpt><trkpt lat="46.04684392350092" lon="11.448487216733543"><ele>424.0</ele><time>2026-05-02T12:50:39.001Z</time></trkpt><trkpt lat="46.04689692555608" lon="11.448057215722253"><ele>426.0</ele><time>2026-05-02T12:50:40.001Z</time></trkpt><trkpt lat="46.04691151651999" lon="11.447652272859811"><ele>428.0</ele><time>2026-05-02T12:50:41.001Z</time></trkpt><trkpt lat="46.04692992458707" lon="11.447229203841571"><ele>427.0</ele><time>2026-05-02T12:50:42.001Z</time></trkpt><trkpt lat="46.0469210801614" lon="11.44683203311324"><ele>426.0</ele><time>2026-05-02T12:50:43.001Z</time></trkpt><trkpt lat="46.046914503090676" lon="11.44645320203482"><ele>426.0</ele><time>2026-05-02T12:50:44.001Z</time></trkpt><trkpt lat="46.04690331596388" lon="11.446090488566087"><ele>426.0</ele><time>2026-05-02T12:50:45.002Z</time></trkpt><trkpt lat="46.046875666160304" lon="11.445728573392696"><ele>426.5</ele><time>2026-05-02T12:50:46.002Z</time></trkpt><trkpt lat="46.04683814143159" lon="11.445355135529354"><ele>427.0</ele><time>2026-05-02T12:50:47.002Z</time></trkpt><trkpt lat="46.04680165158854" lon="11.444956686696923"><ele>426.5</ele><time>2026-05-02T12:50:48.002Z</time></trkpt><trkpt lat="46.04676099058463" lon="11.444548884691109"><ele>426.0</ele><time>2026-05-02T12:50:49.002Z</time></trkpt><trkpt lat="46.04672386075035" lon="11.444143682281807"><ele>425.5</ele><time>2026-05-02T12:50:50.002Z</time></trkpt><trkpt lat="46.04668367525961" lon="11.443738181182848"><ele>425.0</ele><time>2026-05-02T12:50:51.002Z</time></trkpt><trkpt lat="46.04664250963137" lon="11.44332023855745"><ele>431.0</ele><time>2026-05-02T12:50:52.002Z</time></trkpt><trkpt lat="46.04659793027233" lon="11.442893898180282"><ele>437.0</ele><time>2026-05-02T12:50:53.002Z</time></trkpt><trkpt lat="46.04655194661728" lon="11.442462045221946"><ele>434.5</ele><time>2026-05-02T12:50:54.002Z</time></trkpt><trkpt lat="46.04650530737719" lon="11.442033014188096"><ele>432.0</ele><time>2026-05-02T12:50:55.002Z</time></trkpt><trkpt lat="46.046460641868705" lon="11.441605539475434"><ele>429.0</ele><time>2026-05-02T12:50:56.002Z</time></trkpt><trkpt lat="46.04641778276589" lon="11.441179926231907"><ele>426.0</ele><time>2026-05-02T12:50:57.002Z</time></trkpt><trkpt lat="46.046374399746675" lon="11.440750908576486"><ele>425.0</ele><time>2026-05-02T12:50:58.001Z</time></trkpt><trkpt lat="46.046330993143826" lon="11.44032139959161"><ele>424.0</ele><time>2026-05-02T12:50:59.001Z</time></trkpt><trkpt lat="46.046285286264734" lon="11.439885194821532"><ele>421.0</ele><time>2026-05-02T12:51:00.001Z</time></trkpt><trkpt lat="46.046242280079056" lon="11.439443825813523"><ele>418.0</ele><time>2026-05-02T12:51:01.001Z</time></trkpt><trkpt lat="46.04619771592791" lon="11.4390143199041"><ele>415.5</ele><time>2026-05-02T12:51:02.001Z</time></trkpt><trkpt lat="46.04615746450787" lon="11.4385781954155"><ele>413.0</ele><time>2026-05-02T12:51:03.001Z</time></trkpt><trkpt lat="46.046119158247315" lon="11.438142443890936"><ele>410.5</ele><time>2026-05-02T12:51:04.001Z</time></trkpt><trkpt lat="46.046080027526976" lon="11.437713729415169"><ele>408.0</ele><time>2026-05-02T12:51:05.001Z</time></trkpt><trkpt lat="46.04604694416986" lon="11.437291599405183"><ele>405.0</ele><time>2026-05-02T12:51:06.001Z</time></trkpt><trkpt lat="46.04602959145315" lon="11.436869101620362"><ele>402.0</ele><time>2026-05-02T12:51:07.001Z</time></trkpt><trkpt lat="46.04602295212349" lon="11.43645293195547"><ele>401.5</ele><time>2026-05-02T12:51:08.001Z</time></trkpt><trkpt lat="46.04602320610216" lon="11.436035419484485"><ele>401.0</ele><time>2026-05-02T12:51:09.001Z</time></trkpt><trkpt lat="46.04603645770487" lon="11.435619846409963"><ele>400.0</ele><time>2026-05-02T12:51:10.001Z</time></trkpt><trkpt lat="46.04605849395838" lon="11.435205578868603"><ele>399.0</ele><time>2026-05-02T12:51:11.001Z</time></trkpt><trkpt lat="46.04609009751787" lon="11.434787575934358"><ele>397.0</ele><time>2026-05-02T12:51:12.001Z</time></trkpt><trkpt lat="46.04613355985065" lon="11.43436155427548"><ele>395.0</ele><time>2026-05-02T12:51:13.001Z</time></trkpt><trkpt lat="46.04618384825119" lon="11.433928234113257"><ele>395.5</ele><time>2026-05-02T12:51:14.001Z</time></trkpt><trkpt lat="46.04624053328982" lon="11.433498975375189"><ele>396.0</ele><time>2026-05-02T12:51:15.001Z</time></trkpt><trkpt lat="46.046297235146646" lon="11.433075805820293"><ele>396.5</ele><time>2026-05-02T12:51:16.001Z</time></trkpt><trkpt lat="46.04635016695271" lon="11.43265989912441"><ele>397.0</ele><time>2026-05-02T12:51:17.001Z</time></trkpt><trkpt lat="46.04640241494682" lon="11.432245694104623"><ele>397.0</ele><time>2026-05-02T12:51:18.001Z</time></trkpt><trkpt lat="46.046453812220975" lon="11.431831589078136"><ele>397.0</ele><time>2026-05-02T12:51:19.001Z</time></trkpt><trkpt lat="46.04650791409215" lon="11.43142457209486"><ele>394.5</ele><time>2026-05-02T12:51:20.001Z</time></trkpt><trkpt lat="46.046562416384724" lon="11.431022432850027"><ele>392.0</ele><time>2026-05-02T12:51:21.001Z</time></trkpt><trkpt lat="46.046617094592484" lon="11.430618277909117"><ele>392.5</ele><time>2026-05-02T12:51:22.001Z</time></trkpt><trkpt lat="46.046655368362465" lon="11.43021861430762"><ele>393.0</ele><time>2026-05-02T12:51:23.001Z</time></trkpt><trkpt lat="46.04667960613455" lon="11.42981072600506"><ele>394.0</ele><time>2026-05-02T12:51:24.001Z</time></trkpt><trkpt lat="46.04668754783309" lon="11.429385475689408"><ele>395.0</ele><time>2026-05-02T12:51:25.001Z</time></trkpt><trkpt lat="46.046682142914655" lon="11.428949891795082"><ele>394.5</ele><time>2026-05-02T12:51:26.001Z</time></trkpt><trkpt lat="46.04665944943832" lon="11.428512755439623"><ele>394.0</ele><time>2026-05-02T12:51:27.001Z</time></trkpt><trkpt lat="46.04661634678719" lon="11.428078063832903"><ele>395.0</ele><time>2026-05-02T12:51:28.001Z</time></trkpt><trkpt lat="46.0465534780975" lon="11.42765040959938"><ele>396.0</ele><time>2026-05-02T12:51:29.001Z</time></trkpt><trkpt lat="46.046473600041224" lon="11.427225695694235"><ele>395.5</ele><time>2026-05-02T12:51:30.001Z</time></trkpt><trkpt lat="46.04637541288732" lon="11.426779610653261"><ele>395.0</ele><time>2026-05-02T12:51:31.001Z</time></trkpt><trkpt lat="46.04626010886928" lon="11.426327188352975"><ele>396.5</ele><time>2026-05-02T12:51:32.001Z</time></trkpt><trkpt lat="46.046123812716644" lon="11.425905541916407"><ele>398.0</ele><time>2026-05-02T12:51:33.001Z</time></trkpt><trkpt lat="46.045973675811524" lon="11.425504933847789"><ele>398.0</ele><time>2026-05-02T12:51:34.001Z</time></trkpt><trkpt lat="46.04581223799737" lon="11.425127722678079"><ele>398.0</ele><time>2026-05-02T12:51:35.001Z</time></trkpt><trkpt lat="46.045643071059416" lon="11.424781093845013"><ele>399.0</ele><time>2026-05-02T12:51:36.001Z</time></trkpt><trkpt lat="46.0454718511591" lon="11.424453394841297"><ele>400.0</ele><time>2026-05-02T12:51:37.001Z</time></trkpt><trkpt lat="46.04529257049351" lon="11.424121575969359"><ele>400.0</ele><time>2026-05-02T12:51:38.001Z</time></trkpt><trkpt lat="46.045114699881374" lon="11.423790428105573"><ele>400.0</ele><time>2026-05-02T12:51:39.001Z</time></trkpt><trkpt lat="46.04494481194814" lon="11.423465949505722"><ele>399.5</ele><time>2026-05-02T12:51:40.001Z</time></trkpt><trkpt lat="46.04477192997356" lon="11.423143150465165"><ele>399.0</ele><time>2026-05-02T12:51:41.001Z</time></trkpt><trkpt lat="46.044598531225716" lon="11.42281459060032"><ele>400.5</ele><time>2026-05-02T12:51:42.001Z</time></trkpt><trkpt lat="46.044425427957435" lon="11.422485904717762"><ele>402.0</ele><time>2026-05-02T12:51:43.001Z</time></trkpt><trkpt lat="46.044255084614925" lon="11.422161560387886"><ele>401.5</ele><time>2026-05-02T12:51:44.001Z</time></trkpt><trkpt lat="46.044083484719415" lon="11.42183907446513"><ele>401.0</ele><time>2026-05-02T12:51:45.001Z</time></trkpt><trkpt lat="46.04391330659758" lon="11.421520348742684"><ele>402.0</ele><time>2026-05-02T12:51:46.001Z</time></trkpt><trkpt lat="46.043743934469866" lon="11.421199783708182"><ele>403.0</ele><time>2026-05-02T12:51:47.001Z</time></trkpt><trkpt lat="46.043576380977235" lon="11.420878833440812"><ele>403.0</ele><time>2026-05-02T12:51:48.001Z</time></trkpt><trkpt lat="46.043409374067885" lon="11.420556843208804"><ele>403.0</ele><time>2026-05-02T12:51:49.001Z</time></trkpt><trkpt lat="46.043245550518556" lon="11.420235694066978"><ele>403.5</ele><time>2026-05-02T12:51:50.001Z</time></trkpt><trkpt lat="46.04307993226521" lon="11.419920039972304"><ele>404.0</ele><time>2026-05-02T12:51:51.001Z</time></trkpt><trkpt lat="46.04291601253895" lon="11.419606500652868"><ele>405.5</ele><time>2026-05-02T12:51:52.001Z</time></trkpt><trkpt lat="46.04275001328061" lon="11.419289666619136"><ele>407.0</ele><time>2026-05-02T12:51:53.001Z</time></trkpt><trkpt lat="46.042573399923896" lon="11.41897106409798"><ele>408.5</ele><time>2026-05-02T12:51:54.001Z</time></trkpt><trkpt lat="46.04240711683878" lon="11.418658358298444"><ele>410.0</ele><time>2026-05-02T12:51:55.001Z</time></trkpt><trkpt lat="46.04224368558942" lon="11.41834427327983"><ele>410.0</ele><time>2026-05-02T12:51:56.001Z</time></trkpt><trkpt lat="46.04208145867703" lon="11.418034049601685"><ele>410.0</ele><time>2026-05-02T12:51:57.001Z</time></trkpt><trkpt lat="46.04192212582274" lon="11.417731169048766"><ele>410.0</ele><time>2026-05-02T12:51:58.001Z</time></trkpt><trkpt lat="46.04176917848867" lon="11.417429841836457"><ele>410.0</ele><time>2026-05-02T12:51:59.001Z</time></trkpt><trkpt lat="46.04162797713139" lon="11.417129449844497"><ele>411.0</ele><time>2026-05-02T12:52:00.001Z</time></trkpt><trkpt lat="46.04149653961835" lon="11.416817905004889"><ele>412.0</ele><time>2026-05-02T12:52:01.001Z</time></trkpt><trkpt lat="46.04137721139592" lon="11.41649347513809"><ele>411.5</ele><time>2026-05-02T12:52:02.001Z</time></trkpt><trkpt lat="46.04127448337911" lon="11.41615047542092"><ele>411.0</ele><time>2026-05-02T12:52:03.001Z</time></trkpt><trkpt lat="46.04117089519724" lon="11.4158086349696"><ele>412.0</ele><time>2026-05-02T12:52:04.001Z</time></trkpt><trkpt lat="46.0410612564581" lon="11.415474712796536"><ele>413.0</ele><time>2026-05-02T12:52:05.001Z</time></trkpt><trkpt lat="46.04094356393939" lon="11.415145925520612"><ele>413.0</ele><time>2026-05-02T12:52:06.001Z</time></trkpt><trkpt lat="46.04083412669275" lon="11.414807247073329"><ele>413.0</ele><time>2026-05-02T12:52:07.001Z</time></trkpt><trkpt lat="46.04072938362147" lon="11.414467456892117"><ele>413.0</ele><time>2026-05-02T12:52:08.001Z</time></trkpt><trkpt lat="46.04061562913859" lon="11.414123842485306"><ele>413.0</ele><time>2026-05-02T12:52:09.001Z</time></trkpt><trkpt lat="46.04050018549452" lon="11.4137785599913"><ele>413.0</ele><time>2026-05-02T12:52:10.001Z</time></trkpt><trkpt lat="46.04038550056538" lon="11.413428535351752"><ele>413.0</ele><time>2026-05-02T12:52:11.001Z</time></trkpt><trkpt lat="46.0402736546694" lon="11.413074003478243"><ele>413.0</ele><time>2026-05-02T12:52:12.001Z</time></trkpt><trkpt lat="46.04016967196195" lon="11.412713567137338"><ele>413.0</ele><time>2026-05-02T12:52:13.001Z</time></trkpt><trkpt lat="46.04007716688197" lon="11.412342535440589"><ele>413.5</ele><time>2026-05-02T12:52:14.001Z</time></trkpt><trkpt lat="46.03999601159705" lon="11.411956496419185"><ele>414.0</ele><time>2026-05-02T12:52:15.001Z</time></trkpt><trkpt lat="46.039925362674126" lon="11.411564387854837"><ele>415.0</ele><time>2026-05-02T12:52:16.001Z</time></trkpt><trkpt lat="46.039869933324944" lon="11.411170342873815"><ele>416.0</ele><time>2026-05-02T12:52:17.001Z</time></trkpt><trkpt lat="46.03982696796617" lon="11.410772305993806"><ele>415.5</ele><time>2026-05-02T12:52:18.001Z</time></trkpt><trkpt lat="46.0397889668727" lon="11.410368800138151"><ele>415.0</ele><time>2026-05-02T12:52:19.001Z</time></trkpt><trkpt lat="46.03976012841423" lon="11.40995555019957"><ele>414.0</ele><time>2026-05-02T12:52:20.001Z</time></trkpt><trkpt lat="46.03973575589632" lon="11.409521733497511"><ele>413.0</ele><time>2026-05-02T12:52:21.001Z</time></trkpt><trkpt lat="46.039708135132564" lon="11.409070709652736"><ele>412.5</ele><time>2026-05-02T12:52:22.001Z</time></trkpt><trkpt lat="46.03966508018105" lon="11.408611695826915"><ele>412.0</ele><time>2026-05-02T12:52:23.001Z</time></trkpt><trkpt lat="46.03961600508203" lon="11.408145283415301"><ele>413.5</ele><time>2026-05-02T12:52:24.001Z</time></trkpt><trkpt lat="46.0395785053547" lon="11.40767900086187"><ele>415.0</ele><time>2026-05-02T12:52:25.001Z</time></trkpt><trkpt lat="46.03955290340548" lon="11.407220335509304"><ele>414.0</ele><time>2026-05-02T12:52:26.001Z</time></trkpt><trkpt lat="46.03952188073063" lon="11.406767469917174"><ele>413.0</ele><time>2026-05-02T12:52:27.001Z</time></trkpt><trkpt lat="46.0394885968646" lon="11.40631591671938"><ele>413.0</ele><time>2026-05-02T12:52:28.001Z</time></trkpt><trkpt lat="46.03946237856672" lon="11.405869227155055"><ele>413.0</ele><time>2026-05-02T12:52:29.001Z</time></trkpt><trkpt lat="46.039434525541736" lon="11.405430053445324"><ele>414.5</ele><time>2026-05-02T12:52:30.001Z</time></trkpt><trkpt lat="46.039404567170195" lon="11.405002304438383"><ele>416.0</ele><time>2026-05-02T12:52:31.001Z</time></trkpt><trkpt lat="46.039374628070235" lon="11.404595467825047"><ele>416.5</ele><time>2026-05-02T12:52:32.001Z</time></trkpt><trkpt lat="46.03932616786092" lon="11.404215412092547"><ele>417.0</ele><time>2026-05-02T12:52:33Z</time></trkpt><trkpt lat="46.039252303598786" lon="11.403839609460208"><ele>416.0</ele><time>2026-05-02T12:52:34Z</time></trkpt><trkpt lat="46.03917573644725" lon="11.403469300444492"><ele>415.0</ele><time>2026-05-02T12:52:35Z</time></trkpt><trkpt lat="46.03908802489802" lon="11.40310817145659"><ele>415.0</ele><time>2026-05-02T12:52:36Z</time></trkpt><trkpt lat="46.038985319676236" lon="11.402755844073544"><ele>415.0</ele><time>2026-05-02T12:52:37Z</time></trkpt><trkpt lat="46.038868783289956" lon="11.402392625389126"><ele>417.0</ele><time>2026-05-02T12:52:38Z</time></trkpt><trkpt lat="46.038732274487266" lon="11.402017845635735"><ele>419.0</ele><time>2026-05-02T12:52:39Z</time></trkpt><trkpt lat="46.038566079740434" lon="11.401628641990255"><ele>420.0</ele><time>2026-05-02T12:52:40Z</time></trkpt><trkpt lat="46.03839055579428" lon="11.401263397797793"><ele>421.0</ele><time>2026-05-02T12:52:41Z</time></trkpt><trkpt lat="46.038207244311394" lon="11.40092738811086"><ele>421.0</ele><time>2026-05-02T12:52:42Z</time></trkpt><trkpt lat="46.038014692180234" lon="11.40061159080486"><ele>421.0</ele><time>2026-05-02T12:52:43Z</time></trkpt><trkpt lat="46.03780393502579" lon="11.400292283613556"><ele>421.0</ele><time>2026-05-02T12:52:44Z</time></trkpt><trkpt lat="46.037574825406736" lon="11.399935526562393"><ele>421.0</ele><time>2026-05-02T12:52:45Z</time></trkpt><trkpt lat="46.03734272467807" lon="11.39956367849159"><ele>419.5</ele><time>2026-05-02T12:52:46Z</time></trkpt><trkpt lat="46.03712539198777" lon="11.399215059765863"><ele>418.0</ele><time>2026-05-02T12:52:47Z</time></trkpt><trkpt lat="46.03692216641871" lon="11.398887114081797"><ele>418.0</ele><time>2026-05-02T12:52:48Z</time></trkpt><trkpt lat="46.036723935378376" lon="11.398554234075885"><ele>418.0</ele><time>2026-05-02T12:52:49.001Z</time></trkpt><trkpt lat="46.03652477014647" lon="11.398210661018613"><ele>417.0</ele><time>2026-05-02T12:52:50.001Z</time></trkpt><trkpt lat="46.0363213272209" lon="11.397862749076026"><ele>416.0</ele><time>2026-05-02T12:52:51.001Z</time></trkpt><trkpt lat="46.03609949300125" lon="11.397510646505989"><ele>415.5</ele><time>2026-05-02T12:52:52.001Z</time></trkpt><trkpt lat="46.03586679828865" lon="11.397136783019459"><ele>415.0</ele><time>2026-05-02T12:52:53.001Z</time></trkpt><trkpt lat="46.035637445671526" lon="11.3967672100692"><ele>414.5</ele><time>2026-05-02T12:52:54.001Z</time></trkpt><trkpt lat="46.03540527813499" lon="11.396399125590564"><ele>414.0</ele><time>2026-05-02T12:52:55.001Z</time></trkpt><trkpt lat="46.03517349745145" lon="11.396042178487113"><ele>415.5</ele><time>2026-05-02T12:52:56.001Z</time></trkpt><trkpt lat="46.034937486797766" lon="11.395709073714235"><ele>417.0</ele><time>2026-05-02T12:52:57.001Z</time></trkpt><trkpt lat="46.03470186161905" lon="11.39539146253787"><ele>417.0</ele><time>2026-05-02T12:52:58.001Z</time></trkpt><trkpt lat="46.03446911745653" lon="11.395084672049991"><ele>417.0</ele><time>2026-05-02T12:52:59.001Z</time></trkpt><trkpt lat="46.03423952394427" lon="11.394777344867622"><ele>418.5</ele><time>2026-05-02T12:53:00.001Z</time></trkpt><trkpt lat="46.03401310507012" lon="11.394470927858267"><ele>420.0</ele><time>2026-05-02T12:53:01.001Z</time></trkpt><trkpt lat="46.03379094465266" lon="11.394167173813054"><ele>420.0</ele><time>2026-05-02T12:53:02.001Z</time></trkpt><trkpt lat="46.03357735560222" lon="11.393857538061818"><ele>420.0</ele><time>2026-05-02T12:53:03.001Z</time></trkpt><trkpt lat="46.03335592857976" lon="11.393564373452554"><ele>421.5</ele><time>2026-05-02T12:53:04Z</time></trkpt><trkpt lat="46.033142939530215" lon="11.393293903136053"><ele>423.0</ele><time>2026-05-02T12:53:05Z</time></trkpt><trkpt lat="46.032926648315446" lon="11.393052260303318"><ele>422.5</ele><time>2026-05-02T12:53:06Z</time></trkpt><trkpt lat="46.03271211199133" lon="11.392812807265074"><ele>422.0</ele><time>2026-05-02T12:53:07Z</time></trkpt><trkpt lat="46.03249314061482" lon="11.392559615714832"><ele>421.0</ele><time>2026-05-02T12:53:08Z</time></trkpt><trkpt lat="46.032266769173305" lon="11.392300726439757"><ele>420.0</ele><time>2026-05-02T12:53:09Z</time></trkpt><trkpt lat="46.032027408568446" lon="11.39204393370409"><ele>420.0</ele><time>2026-05-02T12:53:10Z</time></trkpt><trkpt lat="46.031780816934095" lon="11.391781388750003"><ele>420.0</ele><time>2026-05-02T12:53:11Z</time></trkpt><trkpt lat="46.031528598357575" lon="11.391513464344936"><ele>421.0</ele><time>2026-05-02T12:53:12Z</time></trkpt><trkpt lat="46.03127093044527" lon="11.391247021888226"><ele>422.0</ele><time>2026-05-02T12:53:13Z</time></trkpt><trkpt lat="46.03101774160396" lon="11.390984507352043"><ele>422.0</ele><time>2026-05-02T12:53:14Z</time></trkpt><trkpt lat="46.03077176764554" lon="11.390717089389836"><ele>422.0</ele><time>2026-05-02T12:53:15Z</time></trkpt><trkpt lat="46.030529559231226" lon="11.390457822048159"><ele>422.0</ele><time>2026-05-02T12:53:16Z</time></trkpt><trkpt lat="46.030301206435254" lon="11.390212807617587"><ele>422.0</ele><time>2026-05-02T12:53:16.999Z</time></trkpt><trkpt lat="46.0300937506521" lon="11.389968631108601"><ele>423.5</ele><time>2026-05-02T12:53:17.999Z</time></trkpt><trkpt lat="46.02990968628373" lon="11.389711395206799"><ele>425.0</ele><time>2026-05-02T12:53:18.999Z</time></trkpt><trkpt lat="46.029738679241476" lon="11.389424989899775"><ele>425.0</ele><time>2026-05-02T12:53:20Z</time></trkpt><trkpt lat="46.02958616710335" lon="11.389113746744979"><ele>425.0</ele><time>2026-05-02T12:53:21Z</time></trkpt><trkpt lat="46.02945410616626" lon="11.38877588683826"><ele>424.5</ele><time>2026-05-02T12:53:22Z</time></trkpt><trkpt lat="46.02934410707477" lon="11.388406628727516"><ele>424.0</ele><time>2026-05-02T12:53:23Z</time></trkpt><trkpt lat="46.02925701682531" lon="11.38801209298035"><ele>422.5</ele><time>2026-05-02T12:53:24Z</time></trkpt><trkpt lat="46.029200102430394" lon="11.387609459951111"><ele>421.0</ele><time>2026-05-02T12:53:25Z</time></trkpt><trkpt lat="46.02917535451947" lon="11.387205474144706"><ele>421.5</ele><time>2026-05-02T12:53:26Z</time></trkpt><trkpt lat="46.02917866264873" lon="11.386792579819764"><ele>422.0</ele><time>2026-05-02T12:53:27Z</time></trkpt><trkpt lat="46.029210776106815" lon="11.386369875431903"><ele>422.0</ele><time>2026-05-02T12:53:28Z</time></trkpt><trkpt lat="46.02925805195163" lon="11.385955729370803"><ele>422.0</ele><time>2026-05-02T12:53:29Z</time></trkpt><trkpt lat="46.029301132175625" lon="11.385542791044138"><ele>422.5</ele><time>2026-05-02T12:53:30Z</time></trkpt><trkpt lat="46.02933412914205" lon="11.38512825240426"><ele>423.0</ele><time>2026-05-02T12:53:31Z</time></trkpt><trkpt lat="46.0293545457745" lon="11.384706405951478"><ele>423.0</ele><time>2026-05-02T12:53:32Z</time></trkpt><trkpt lat="46.02935103873757" lon="11.384273926876872"><ele>423.0</ele><time>2026-05-02T12:53:33Z</time></trkpt><trkpt lat="46.02932978749271" lon="11.383837753079884"><ele>423.0</ele><time>2026-05-02T12:53:34Z</time></trkpt><trkpt lat="46.02929368064459" lon="11.38339777167639"><ele>423.0</ele><time>2026-05-02T12:53:35Z</time></trkpt><trkpt lat="46.02925595206168" lon="11.382950599457631"><ele>424.0</ele><time>2026-05-02T12:53:36Z</time></trkpt><trkpt lat="46.0292288777327" lon="11.382486211824448"><ele>425.0</ele><time>2026-05-02T12:53:37Z</time></trkpt><trkpt lat="46.02920544194769" lon="11.382017405961045"><ele>426.0</ele><time>2026-05-02T12:53:38Z</time></trkpt><trkpt lat="46.02918063886592" lon="11.381563589895944"><ele>427.0</ele><time>2026-05-02T12:53:39Z</time></trkpt><trkpt lat="46.02915034593459" lon="11.38113221634616"><ele>424.5</ele><time>2026-05-02T12:53:40Z</time></trkpt><trkpt lat="46.029113631291345" lon="11.380712206397856"><ele>422.0</ele><time>2026-05-02T12:53:41Z</time></trkpt><trkpt lat="46.02907722666057" lon="11.380298397506074"><ele>422.0</ele><time>2026-05-02T12:53:42Z</time></trkpt><trkpt lat="46.029048395776" lon="11.379883696853225"><ele>422.0</ele><time>2026-05-02T12:53:43Z</time></trkpt><trkpt lat="46.02901817306066" lon="11.379471634082865"><ele>421.5</ele><time>2026-05-02T12:53:44Z</time></trkpt><trkpt lat="46.028986806881555" lon="11.379053239885778"><ele>421.0</ele><time>2026-05-02T12:53:45Z</time></trkpt><trkpt lat="46.02894952368886" lon="11.378634441315707"><ele>422.0</ele><time>2026-05-02T12:53:46Z</time></trkpt><trkpt lat="46.02890168655326" lon="11.378223647914249"><ele>423.0</ele><time>2026-05-02T12:53:47Z</time></trkpt><trkpt lat="46.028831704369566" lon="11.377824976496926"><ele>424.0</ele><time>2026-05-02T12:53:48Z</time></trkpt><trkpt lat="46.028748821997915" lon="11.37743884022381"><ele>425.0</ele><time>2026-05-02T12:53:49Z</time></trkpt><trkpt lat="46.02864892091303" lon="11.377066759548454"><ele>425.0</ele><time>2026-05-02T12:53:50Z</time></trkpt><trkpt lat="46.02853666168789" lon="11.37671179847636"><ele>425.0</ele><time>2026-05-02T12:53:51Z</time></trkpt><trkpt lat="46.02841424405045" lon="11.376370837211965"><ele>426.0</ele><time>2026-05-02T12:53:52Z</time></trkpt><trkpt lat="46.028272871777" lon="11.376041234725724"><ele>427.0</ele><time>2026-05-02T12:53:53Z</time></trkpt><trkpt lat="46.0281148220703" lon="11.375721907327387"><ele>427.5</ele><time>2026-05-02T12:53:54Z</time></trkpt><trkpt lat="46.027941483750176" lon="11.375415074333077"><ele>428.0</ele><time>2026-05-02T12:53:55Z</time></trkpt><trkpt lat="46.02775945629042" lon="11.37512120880777"><ele>428.0</ele><time>2026-05-02T12:53:56Z</time></trkpt><trkpt lat="46.02756691306497" lon="11.374842767628074"><ele>428.0</ele><time>2026-05-02T12:53:57Z</time></trkpt><trkpt lat="46.027360647160634" lon="11.37458206697902"><ele>427.5</ele><time>2026-05-02T12:53:58Z</time></trkpt><trkpt lat="46.027136240072274" lon="11.374335017776431"><ele>427.0</ele><time>2026-05-02T12:53:59Z</time></trkpt><trkpt lat="46.02689345540524" lon="11.374100590626108"><ele>426.5</ele><time>2026-05-02T12:54:00Z</time></trkpt><trkpt lat="46.02663641941375" lon="11.373874803180803"><ele>426.0</ele><time>2026-05-02T12:54:01Z</time></trkpt><trkpt lat="46.02637254840663" lon="11.373649398229588"><ele>429.5</ele><time>2026-05-02T12:54:02Z</time></trkpt><trkpt lat="46.026107910463715" lon="11.373428014457575"><ele>433.0</ele><time>2026-05-02T12:54:03Z</time></trkpt><trkpt lat="46.02584789350008" lon="11.37320536441324"><ele>435.0</ele><time>2026-05-02T12:54:04Z</time></trkpt><trkpt lat="46.02559326299432" lon="11.372987002211149"><ele>437.0</ele><time>2026-05-02T12:54:05Z</time></trkpt><trkpt lat="46.025344814540674" lon="11.372769842551422"><ele>437.0</ele><time>2026-05-02T12:54:06Z</time></trkpt><trkpt lat="46.02509871956102" lon="11.372561041357399"><ele>437.0</ele><time>2026-05-02T12:54:07Z</time></trkpt><trkpt lat="46.02485746953538" lon="11.372355224744876"><ele>440.0</ele><time>2026-05-02T12:54:08Z</time></trkpt><trkpt lat="46.02461822160049" lon="11.372150753111558"><ele>443.0</ele><time>2026-05-02T12:54:09Z</time></trkpt><trkpt lat="46.02437598508595" lon="11.371947901906776"><ele>442.5</ele><time>2026-05-02T12:54:10Z</time></trkpt><trkpt lat="46.024134283191565" lon="11.371744639489407"><ele>442.0</ele><time>2026-05-02T12:54:11Z</time></trkpt><trkpt lat="46.02388924185883" lon="11.371541564708128"><ele>445.5</ele><time>2026-05-02T12:54:12Z</time></trkpt><trkpt lat="46.02364062873909" lon="11.371335412505477"><ele>449.0</ele><time>2026-05-02T12:54:13Z</time></trkpt><trkpt lat="46.023391142617136" lon="11.371130111483417"><ele>447.5</ele><time>2026-05-02T12:54:14Z</time></trkpt><trkpt lat="46.023137333041895" lon="11.370931832706727"><ele>446.0</ele><time>2026-05-02T12:54:15Z</time></trkpt><trkpt lat="46.02288257693623" lon="11.37073963980543"><ele>447.0</ele><time>2026-05-02T12:54:16Z</time></trkpt><trkpt lat="46.02265528841335" lon="11.370497131199384"><ele>448.0</ele><time>2026-05-02T12:54:17Z</time></trkpt><trkpt lat="46.02242023880861" lon="11.370252899848765"><ele>448.0</ele><time>2026-05-02T12:54:18Z</time></trkpt><trkpt lat="46.02220163223328" lon="11.369981297593627"><ele>448.0</ele><time>2026-05-02T12:54:19Z</time></trkpt><trkpt lat="46.021994528629556" lon="11.369698190275644"><ele>448.5</ele><time>2026-05-02T12:54:20Z</time></trkpt><trkpt lat="46.02180149755266" lon="11.36937396199116"><ele>449.0</ele><time>2026-05-02T12:54:21Z</time></trkpt><trkpt lat="46.021619012677405" lon="11.36903016688023"><ele>446.5</ele><time>2026-05-02T12:54:22Z</time></trkpt><trkpt lat="46.0214575262843" lon="11.368675194821765"><ele>444.0</ele><time>2026-05-02T12:54:23Z</time></trkpt><trkpt lat="46.021313235330176" lon="11.36830301273742"><ele>446.5</ele><time>2026-05-02T12:54:24Z</time></trkpt><trkpt lat="46.02118860511027" lon="11.367932140547314"><ele>449.0</ele><time>2026-05-02T12:54:25Z</time></trkpt><trkpt lat="46.02107259014756" lon="11.367550487144518"><ele>451.0</ele><time>2026-05-02T12:54:26Z</time></trkpt><trkpt lat="46.02096039608721" lon="11.367164192781118"><ele>453.0</ele><time>2026-05-02T12:54:27Z</time></trkpt><trkpt lat="46.0208489412229" lon="11.3667747762586"><ele>450.0</ele><time>2026-05-02T12:54:28Z</time></trkpt><trkpt lat="46.02074338093744" lon="11.366384745076084"><ele>447.0</ele><time>2026-05-02T12:54:29Z</time></trkpt><trkpt lat="46.02063161685176" lon="11.366012818717836"><ele>447.0</ele><time>2026-05-02T12:54:30Z</time></trkpt><trkpt lat="46.02052480880615" lon="11.365651725137608"><ele>447.0</ele><time>2026-05-02T12:54:31Z</time></trkpt><trkpt lat="46.0204170661584" lon="11.365283849522207"><ele>449.0</ele><time>2026-05-02T12:54:32Z</time></trkpt><trkpt lat="46.02031407498555" lon="11.364911115614742"><ele>451.0</ele><time>2026-05-02T12:54:33Z</time></trkpt><trkpt lat="46.02020952345145" lon="11.364535300816966"><ele>452.0</ele><time>2026-05-02T12:54:34Z</time></trkpt><trkpt lat="46.02010414907536" lon="11.364173133299788"><ele>453.0</ele><time>2026-05-02T12:54:35Z</time></trkpt><trkpt lat="46.0200013233456" lon="11.363802776215483"><ele>449.5</ele><time>2026-05-02T12:54:36Z</time></trkpt><trkpt lat="46.019900148026615" lon="11.363435270738933"><ele>446.0</ele><time>2026-05-02T12:54:37Z</time></trkpt><trkpt lat="46.01980165686079" lon="11.363056245147705"><ele>446.5</ele><time>2026-05-02T12:54:38Z</time></trkpt><trkpt lat="46.01971494547526" lon="11.362647809477863"><ele>447.0</ele><time>2026-05-02T12:54:39Z</time></trkpt><trkpt lat="46.019633764774504" lon="11.36222802601203"><ele>448.0</ele><time>2026-05-02T12:54:40Z</time></trkpt><trkpt lat="46.01956524207076" lon="11.361808799976343"><ele>449.0</ele><time>2026-05-02T12:54:41Z</time></trkpt><trkpt lat="46.01949939221096" lon="11.361355306869251"><ele>451.0</ele><time>2026-05-02T12:54:42Z</time></trkpt><trkpt lat="46.01944531299378" lon="11.360903869138056"><ele>453.0</ele><time>2026-05-02T12:54:43Z</time></trkpt><trkpt lat="46.01939887967198" lon="11.36043985078922"><ele>453.5</ele><time>2026-05-02T12:54:44Z</time></trkpt><trkpt lat="46.019350301502215" lon="11.359966180086348"><ele>454.0</ele><time>2026-05-02T12:54:45Z</time></trkpt><trkpt lat="46.01929547613078" lon="11.359498125907153"><ele>454.0</ele><time>2026-05-02T12:54:46.001Z</time></trkpt><trkpt lat="46.01924769568878" lon="11.359034891585317"><ele>454.0</ele><time>2026-05-02T12:54:47.001Z</time></trkpt><trkpt lat="46.01919955293683" lon="11.358577235072737"><ele>454.0</ele><time>2026-05-02T12:54:48.001Z</time></trkpt><trkpt lat="46.01915534319913" lon="11.358132363302614"><ele>454.0</ele><time>2026-05-02T12:54:49.001Z</time></trkpt><trkpt lat="46.019116459073" lon="11.357701963544166"><ele>447.5</ele><time>2026-05-02T12:54:50.001Z</time></trkpt><trkpt lat="46.01907611451957" lon="11.357286883714737"><ele>441.0</ele><time>2026-05-02T12:54:51.001Z</time></trkpt><trkpt lat="46.01903228450543" lon="11.35687841773445"><ele>441.0</ele><time>2026-05-02T12:54:52.001Z</time></trkpt><trkpt lat="46.018987066818234" lon="11.35646828514614"><ele>441.0</ele><time>2026-05-02T12:54:53.001Z</time></trkpt><trkpt lat="46.018940498044714" lon="11.356055512093228"><ele>443.0</ele><time>2026-05-02T12:54:54.001Z</time></trkpt><trkpt lat="46.01889350442049" lon="11.355642660172885"><ele>445.0</ele><time>2026-05-02T12:54:55.001Z</time></trkpt><trkpt lat="46.01884380295469" lon="11.35523071791574"><ele>445.5</ele><time>2026-05-02T12:54:56.001Z</time></trkpt><trkpt lat="46.01879216987136" lon="11.354817531936034"><ele>446.0</ele><time>2026-05-02T12:54:57.001Z</time></trkpt><trkpt lat="46.01873401874045" lon="11.354402398580135"><ele>446.5</ele><time>2026-05-02T12:54:58.001Z</time></trkpt><trkpt lat="46.01867211315546" lon="11.353983473207764"><ele>447.0</ele><time>2026-05-02T12:54:59.001Z</time></trkpt><trkpt lat="46.018611105100824" lon="11.35356873759908"><ele>447.0</ele><time>2026-05-02T12:55:00.001Z</time></trkpt><trkpt lat="46.018551173148005" lon="11.353157733378415"><ele>447.0</ele><time>2026-05-02T12:55:01.001Z</time></trkpt><trkpt lat="46.01849209038504" lon="11.35275205454536"><ele>447.0</ele><time>2026-05-02T12:55:02.001Z</time></trkpt><trkpt lat="46.01843290653878" lon="11.352344151681113"><ele>447.0</ele><time>2026-05-02T12:55:03.001Z</time></trkpt><trkpt lat="46.018377276357654" lon="11.351939638924394"><ele>447.5</ele><time>2026-05-02T12:55:04.001Z</time></trkpt><trkpt lat="46.0183198235901" lon="11.351535346943706"><ele>448.0</ele><time>2026-05-02T12:55:05.001Z</time></trkpt><trkpt lat="46.018264676138095" lon="11.351138537623282"><ele>444.5</ele><time>2026-05-02T12:55:06.001Z</time></trkpt><trkpt lat="46.01821092180509" lon="11.350745791276063"><ele>441.0</ele><time>2026-05-02T12:55:07.001Z</time></trkpt><trkpt lat="46.01816204090411" lon="11.350350920749673"><ele>441.0</ele><time>2026-05-02T12:55:08.001Z</time></trkpt><trkpt lat="46.0181148499458" lon="11.349953526313309"><ele>441.0</ele><time>2026-05-02T12:55:09.001Z</time></trkpt><trkpt lat="46.0180674834557" lon="11.349557760303561"><ele>440.5</ele><time>2026-05-02T12:55:10Z</time></trkpt><trkpt lat="46.01802247482031" lon="11.349169068881753"><ele>440.0</ele><time>2026-05-02T12:55:11Z</time></trkpt><trkpt lat="46.01797587492867" lon="11.348786257584162"><ele>439.5</ele><time>2026-05-02T12:55:12Z</time></trkpt><trkpt lat="46.01792784586475" lon="11.348411273268173"><ele>439.0</ele><time>2026-05-02T12:55:13Z</time></trkpt><trkpt lat="46.0178829542443" lon="11.348040970783213"><ele>440.0</ele><time>2026-05-02T12:55:14Z</time></trkpt><trkpt lat="46.017839559062395" lon="11.347673142110832"><ele>441.0</ele><time>2026-05-02T12:55:15Z</time></trkpt><trkpt lat="46.01779597315264" lon="11.34731106953762"><ele>439.5</ele><time>2026-05-02T12:55:16Z</time></trkpt><trkpt lat="46.01774931534291" lon="11.346949144091262"><ele>438.0</ele><time>2026-05-02T12:55:17Z</time></trkpt><trkpt lat="46.01770332854052" lon="11.346590075149656"><ele>437.0</ele><time>2026-05-02T12:55:18Z</time></trkpt><trkpt lat="46.01765793203917" lon="11.34623400977847"><ele>436.0</ele><time>2026-05-02T12:55:19Z</time></trkpt><trkpt lat="46.017614385036694" lon="11.345878842909466"><ele>435.0</ele><time>2026-05-02T12:55:20Z</time></trkpt><trkpt lat="46.01756883830389" lon="11.345528025931353"><ele>434.0</ele><time>2026-05-02T12:55:21Z</time></trkpt><trkpt lat="46.017524437300985" lon="11.345179143299552"><ele>431.5</ele><time>2026-05-02T12:55:22Z</time></trkpt><trkpt lat="46.01748015326096" lon="11.344832408647173"><ele>429.0</ele><time>2026-05-02T12:55:23Z</time></trkpt><trkpt lat="46.017438820197114" lon="11.344482335670207"><ele>429.0</ele><time>2026-05-02T12:55:24Z</time></trkpt><trkpt lat="46.017395929031785" lon="11.344122606032556"><ele>429.0</ele><time>2026-05-02T12:55:25Z</time></trkpt><trkpt lat="46.01734802903017" lon="11.343750789049215"><ele>429.0</ele><time>2026-05-02T12:55:26Z</time></trkpt><trkpt lat="46.017299271106076" lon="11.343368881786528"><ele>429.0</ele><time>2026-05-02T12:55:27Z</time></trkpt><trkpt lat="46.01724775667373" lon="11.342975094845992"><ele>430.5</ele><time>2026-05-02T12:55:28Z</time></trkpt><trkpt lat="46.01719454716371" lon="11.342570361645478"><ele>432.0</ele><time>2026-05-02T12:55:29Z</time></trkpt><trkpt lat="46.01714186430791" lon="11.342164368596986"><ele>433.0</ele><time>2026-05-02T12:55:30Z</time></trkpt><trkpt lat="46.017090988033026" lon="11.34175613770165"><ele>434.0</ele><time>2026-05-02T12:55:31Z</time></trkpt><trkpt lat="46.01703893005159" lon="11.341346048488234"><ele>437.5</ele><time>2026-05-02T12:55:32Z</time></trkpt><trkpt lat="46.01698757788716" lon="11.340941515906245"><ele>441.0</ele><time>2026-05-02T12:55:33Z</time></trkpt><trkpt lat="46.01692779406617" lon="11.340542616320748"><ele>443.0</ele><time>2026-05-02T12:55:34Z</time></trkpt><trkpt lat="46.016854699835285" lon="11.340151192244548"><ele>445.0</ele><time>2026-05-02T12:55:35Z</time></trkpt><trkpt lat="46.016773591529315" lon="11.339755275100313"><ele>446.0</ele><time>2026-05-02T12:55:36Z</time></trkpt><trkpt lat="46.01668268643256" lon="11.339361676628045"><ele>447.0</ele><time>2026-05-02T12:55:37Z</time></trkpt><trkpt lat="46.0165767098093" lon="11.338946179209"><ele>447.5</ele><time>2026-05-02T12:55:38Z</time></trkpt><trkpt lat="46.0164514327085" lon="11.33850916561419"><ele>448.0</ele><time>2026-05-02T12:55:39Z</time></trkpt><trkpt lat="46.01631257791373" lon="11.33805774005191"><ele>446.5</ele><time>2026-05-02T12:55:40Z</time></trkpt><trkpt lat="46.016161298819135" lon="11.33761252537977"><ele>445.0</ele><time>2026-05-02T12:55:41Z</time></trkpt><trkpt lat="46.01600151870286" lon="11.337176698801565"><ele>443.5</ele><time>2026-05-02T12:55:42Z</time></trkpt><trkpt lat="46.01583505825674" lon="11.336757910395631"><ele>442.0</ele><time>2026-05-02T12:55:43Z</time></trkpt><trkpt lat="46.01567214639505" lon="11.336347547364685"><ele>437.0</ele><time>2026-05-02T12:55:44Z</time></trkpt><trkpt lat="46.01551661858363" lon="11.335944083063463"><ele>432.0</ele><time>2026-05-02T12:55:45Z</time></trkpt><trkpt lat="46.01536742554299" lon="11.33555233450727"><ele>432.0</ele><time>2026-05-02T12:55:46Z</time></trkpt><trkpt lat="46.01521782895905" lon="11.335160510368969"><ele>432.0</ele><time>2026-05-02T12:55:47Z</time></trkpt><trkpt lat="46.015065709431745" lon="11.334762231620486"><ele>431.0</ele><time>2026-05-02T12:55:48Z</time></trkpt><trkpt lat="46.01490598487365" lon="11.334354478127365"><ele>430.0</ele><time>2026-05-02T12:55:49Z</time></trkpt><trkpt lat="46.01474273834963" lon="11.333942879526674"><ele>430.5</ele><time>2026-05-02T12:55:50Z</time></trkpt><trkpt lat="46.01458207496094" lon="11.333530239918584"><ele>431.0</ele><time>2026-05-02T12:55:51Z</time></trkpt><trkpt lat="46.01442310164085" lon="11.333116751619823"><ele>430.5</ele><time>2026-05-02T12:55:52Z</time></trkpt><trkpt lat="46.01426769243628" lon="11.332722222518518"><ele>430.0</ele><time>2026-05-02T12:55:53Z</time></trkpt><trkpt lat="46.014121485152224" lon="11.332341059656615"><ele>428.5</ele><time>2026-05-02T12:55:54Z</time></trkpt><trkpt lat="46.0139827006497" lon="11.331986415881731"><ele>427.0</ele><time>2026-05-02T12:55:55Z</time></trkpt><trkpt lat="46.01385262579529" lon="11.331645163950052"><ele>427.5</ele><time>2026-05-02T12:55:56Z</time></trkpt><trkpt lat="46.01372595564299" lon="11.331314619551733"><ele>428.0</ele><time>2026-05-02T12:55:57Z</time></trkpt><trkpt lat="46.01359698932053" lon="11.330986866109567"><ele>428.0</ele><time>2026-05-02T12:55:58Z</time></trkpt><trkpt lat="46.01347018866969" lon="11.330662715453458"><ele>428.0</ele><time>2026-05-02T12:55:59Z</time></trkpt><trkpt lat="46.01334602494154" lon="11.330339555349601"><ele>428.0</ele><time>2026-05-02T12:56:00Z</time></trkpt><trkpt lat="46.01322130773446" lon="11.330023267783867"><ele>428.0</ele><time>2026-05-02T12:56:01Z</time></trkpt><trkpt lat="46.01309643654205" lon="11.32970157285069"><ele>429.5</ele><time>2026-05-02T12:56:02Z</time></trkpt><trkpt lat="46.01296288402397" lon="11.329383708014207"><ele>431.0</ele><time>2026-05-02T12:56:03Z</time></trkpt><trkpt lat="46.01282842857058" lon="11.329062019545193"><ele>431.5</ele><time>2026-05-02T12:56:04Z</time></trkpt><trkpt lat="46.01267875666848" lon="11.328747324150196"><ele>432.0</ele><time>2026-05-02T12:56:05Z</time></trkpt><trkpt lat="46.01251152500782" lon="11.32843680181689"><ele>432.5</ele><time>2026-05-02T12:56:06Z</time></trkpt><trkpt lat="46.01232743251497" lon="11.328125024161462"><ele>433.0</ele><time>2026-05-02T12:56:07Z</time></trkpt><trkpt lat="46.01213042208718" lon="11.32782402637022"><ele>433.0</ele><time>2026-05-02T12:56:08Z</time></trkpt><trkpt lat="46.01192412779833" lon="11.327541520965365"><ele>433.0</ele><time>2026-05-02T12:56:09Z</time></trkpt><trkpt lat="46.01171377815378" lon="11.327277691460912"><ele>433.0</ele><time>2026-05-02T12:56:10Z</time></trkpt><trkpt lat="46.011497735828286" lon="11.327029419158118"><ele>433.0</ele><time>2026-05-02T12:56:11Z</time></trkpt><trkpt lat="46.01127560947965" lon="11.326789823679247"><ele>433.0</ele><time>2026-05-02T12:56:12Z</time></trkpt><trkpt lat="46.01103891321149" lon="11.32656069436501"><ele>433.0</ele><time>2026-05-02T12:56:13Z</time></trkpt><trkpt lat="46.010793477771536" lon="11.326350175599378"><ele>435.0</ele><time>2026-05-02T12:56:14Z</time></trkpt><trkpt lat="46.01053897568378" lon="11.326158868127482"><ele>437.0</ele><time>2026-05-02T12:56:15Z</time></trkpt><trkpt lat="46.01028734618293" lon="11.32597759544829"><ele>437.0</ele><time>2026-05-02T12:56:16Z</time></trkpt><trkpt lat="46.01004894434416" lon="11.325804498090617"><ele>437.0</ele><time>2026-05-02T12:56:17Z</time></trkpt><trkpt lat="46.0098219164332" lon="11.325620507845676"><ele>436.0</ele><time>2026-05-02T12:56:18Z</time></trkpt><trkpt lat="46.00959698803558" lon="11.325424207622884"><ele>435.0</ele><time>2026-05-02T12:56:19Z</time></trkpt><trkpt lat="46.00937365344242" lon="11.325211014805838"><ele>434.0</ele><time>2026-05-02T12:56:20Z</time></trkpt><trkpt lat="46.009157170926734" lon="11.32499297219448"><ele>433.0</ele><time>2026-05-02T12:56:21Z</time></trkpt><trkpt lat="46.008951946752674" lon="11.324767566546969"><ele>434.5</ele><time>2026-05-02T12:56:22Z</time></trkpt><trkpt lat="46.00875787868225" lon="11.32453452895553"><ele>436.0</ele><time>2026-05-02T12:56:23Z</time></trkpt><trkpt lat="46.00857598650528" lon="11.32429976573991"><ele>436.0</ele><time>2026-05-02T12:56:24Z</time></trkpt><trkpt lat="46.008403472382106" lon="11.324065106295357"><ele>436.0</ele><time>2026-05-02T12:56:25Z</time></trkpt><trkpt lat="46.008234653650405" lon="11.323825873205116"><ele>436.0</ele><time>2026-05-02T12:56:26Z</time></trkpt><trkpt lat="46.00807183430657" lon="11.323572472435103"><ele>436.0</ele><time>2026-05-02T12:56:27Z</time></trkpt><trkpt lat="46.007916364498946" lon="11.32330672909907"><ele>437.5</ele><time>2026-05-02T12:56:28Z</time></trkpt><trkpt lat="46.0077693383335" lon="11.323034664750988"><ele>439.0</ele><time>2026-05-02T12:56:29Z</time></trkpt><trkpt lat="46.00762937538281" lon="11.322763956236319"><ele>439.0</ele><time>2026-05-02T12:56:30Z</time></trkpt><trkpt lat="46.0074979549254" lon="11.322494288641542"><ele>439.0</ele><time>2026-05-02T12:56:31Z</time></trkpt><trkpt lat="46.007369258641106" lon="11.32222098973899"><ele>439.33333333333337</ele><time>2026-05-02T12:56:32Z</time></trkpt><trkpt lat="46.00724669728113" lon="11.321947274545236"><ele>439.66666666666663</ele><time>2026-05-02T12:56:33Z</time></trkpt><trkpt lat="46.007130577072225" lon="11.321674156177876"><ele>440.0</ele><time>2026-05-02T12:56:34Z</time></trkpt><trkpt lat="46.00701853906816" lon="11.32140582194"><ele>441.3333333333333</ele><time>2026-05-02T12:56:35Z</time></trkpt><trkpt lat="46.00690618233308" lon="11.321147487091148"><ele>442.66666666666663</ele><time>2026-05-02T12:56:36Z</time></trkpt><trkpt lat="46.00679560590947" lon="11.3208974176935"><ele>444.0</ele><time>2026-05-02T12:56:37Z</time></trkpt><trkpt lat="46.00668682054858" lon="11.320649584809123"><ele>442.66666666666663</ele><time>2026-05-02T12:56:38Z</time></trkpt><trkpt lat="46.006579220292444" lon="11.320401161127656"><ele>441.3333333333333</ele><time>2026-05-02T12:56:39Z</time></trkpt><trkpt lat="46.006471836366366" lon="11.320155463247488"><ele>440.0</ele><time>2026-05-02T12:56:40.001Z</time></trkpt><trkpt lat="46.00636857465198" lon="11.319912266224865"><ele>440.3333333333333</ele><time>2026-05-02T12:56:41.001Z</time></trkpt><trkpt lat="46.00626539291098" lon="11.319670822589453"><ele>440.66666666666663</ele><time>2026-05-02T12:56:42.001Z</time></trkpt><trkpt lat="46.00615992200432" lon="11.319426263618444"><ele>441.0</ele><time>2026-05-02T12:56:43.001Z</time></trkpt><trkpt lat="46.00605378683679" lon="11.319176863406561"><ele>441.0</ele><time>2026-05-02T12:56:44.001Z</time></trkpt><trkpt lat="46.005940040527605" lon="11.318913381283604"><ele>441.0</ele><time>2026-05-02T12:56:45.001Z</time></trkpt><trkpt lat="46.00581896718592" lon="11.318633914129032"><ele>441.0</ele><time>2026-05-02T12:56:46.001Z</time></trkpt><trkpt lat="46.005695001992514" lon="11.318350016617266"><ele>441.0</ele><time>2026-05-02T12:56:47.001Z</time></trkpt><trkpt lat="46.00557233705763" lon="11.318060876136974"><ele>441.0</ele><time>2026-05-02T12:56:48.001Z</time></trkpt><trkpt lat="46.00545542501515" lon="11.317770554786515"><ele>441.0</ele><time>2026-05-02T12:56:49.001Z</time></trkpt><trkpt lat="46.0053525321937" lon="11.317476301702856"><ele>441.0</ele><time>2026-05-02T12:56:50.001Z</time></trkpt><trkpt lat="46.00524641331298" lon="11.317182745341041"><ele>441.0</ele><time>2026-05-02T12:56:51.001Z</time></trkpt><trkpt lat="46.00515055575197" lon="11.31689914934455"><ele>441.0</ele><time>2026-05-02T12:56:52.001Z</time></trkpt><trkpt lat="46.00506096105787" lon="11.316634738131158"><ele>441.0</ele><time>2026-05-02T12:56:53.001Z</time></trkpt><trkpt lat="46.0049705880859" lon="11.316363379220844"><ele>439.66666666666663</ele><time>2026-05-02T12:56:54.001Z</time></trkpt><trkpt lat="46.00489572790658" lon="11.316122057859415"><ele>438.3333333333333</ele><time>2026-05-02T12:56:55.001Z</time></trkpt><trkpt lat="46.00482562433281" lon="11.315888787618217"><ele>437.0</ele><time>2026-05-02T12:56:56.001Z</time></trkpt><trkpt lat="46.00475728048893" lon="11.31565057464068"><ele>437.66666666666663</ele><time>2026-05-02T12:56:57.001Z</time></trkpt><trkpt lat="46.00469707126414" lon="11.315412615762273"><ele>438.33333333333337</ele><time>2026-05-02T12:56:58.001Z</time></trkpt><trkpt lat="46.00463815104863" lon="11.315189970059386"><ele>439.0</ele><time>2026-05-02T12:56:59.001Z</time></trkpt><trkpt lat="46.00458415158304" lon="11.31497970134167"><ele>439.0</ele><time>2026-05-02T12:57:00.001Z</time></trkpt><trkpt lat="46.00453115939793" lon="11.314773505815726"><ele>439.0</ele><time>2026-05-02T12:57:01.001Z</time></trkpt><trkpt lat="46.00448371961366" lon="11.314564026195487"><ele>439.0</ele><time>2026-05-02T12:57:02.001Z</time></trkpt><trkpt lat="46.00444014256547" lon="11.31434628440543"><ele>439.6666666666667</ele><time>2026-05-02T12:57:03.001Z</time></trkpt><trkpt lat="46.00439165972556" lon="11.314120492066488"><ele>440.33333333333337</ele><time>2026-05-02T12:57:04.001Z</time></trkpt><trkpt lat="46.00434336474937" lon="11.313877341451253"><ele>441.0</ele><time>2026-05-02T12:57:05.001Z</time></trkpt><trkpt lat="46.004293620774334" lon="11.313629425053286"><ele>441.33333333333337</ele><time>2026-05-02T12:57:06.001Z</time></trkpt><trkpt lat="46.00424585792913" lon="11.313366092582132"><ele>441.6666666666667</ele><time>2026-05-02T12:57:07.001Z</time></trkpt><trkpt lat="46.00419984745138" lon="11.313090213397823"><ele>442.0</ele><time>2026-05-02T12:57:08.001Z</time></trkpt><trkpt lat="46.004155281718404" lon="11.312815810302284"><ele>441.33333333333337</ele><time>2026-05-02T12:57:09.001Z</time></trkpt><trkpt lat="46.00411770216442" lon="11.31256126180166"><ele>440.66666666666663</ele><time>2026-05-02T12:57:10.001Z</time></trkpt><trkpt lat="46.00408282670491" lon="11.312318054244372"><ele>440.0</ele><time>2026-05-02T12:57:11.001Z</time></trkpt><trkpt lat="46.00405571154231" lon="11.312091154305215"><ele>440.0</ele><time>2026-05-02T12:57:12.001Z</time></trkpt><trkpt lat="46.00403259821625" lon="11.31187423335956"><ele>440.0</ele><time>2026-05-02T12:57:13.001Z</time></trkpt><trkpt lat="46.004008594782775" lon="11.311653458169356"><ele>440.0</ele><time>2026-05-02T12:57:14.001Z</time></trkpt><trkpt lat="46.003983017076344" lon="11.311427876778849"><ele>441.0</ele><time>2026-05-02T12:57:15.001Z</time></trkpt><trkpt lat="46.003959291930045" lon="11.31119867884801"><ele>442.0</ele><time>2026-05-02T12:57:16Z</time></trkpt><trkpt lat="46.00394349578163" lon="11.310963368775218"><ele>443.0</ele><time>2026-05-02T12:57:17Z</time></trkpt><trkpt lat="46.003928126505414" lon="11.310730517601128"><ele>442.3333333333333</ele><time>2026-05-02T12:57:18Z</time></trkpt><trkpt lat="46.003917405117704" lon="11.310496114862266"><ele>441.66666666666663</ele><time>2026-05-02T12:57:19Z</time></trkpt><trkpt lat="46.00390470473145" lon="11.31025985376008"><ele>441.0</ele><time>2026-05-02T12:57:20Z</time></trkpt><trkpt lat="46.0038899225187" lon="11.31001852624648"><ele>441.0</ele><time>2026-05-02T12:57:21Z</time></trkpt><trkpt lat="46.0038823713326" lon="11.309766878064343"><ele>441.0</ele><time>2026-05-02T12:57:22Z</time></trkpt><trkpt lat="46.003879519291125" lon="11.309502416379193"><ele>441.0</ele><time>2026-05-02T12:57:23Z</time></trkpt><trkpt lat="46.00387629536519" lon="11.309224097391116"><ele>441.0</ele><time>2026-05-02T12:57:24Z</time></trkpt><trkpt lat="46.00387408767904" lon="11.308935337406842"><ele>441.0</ele><time>2026-05-02T12:57:25Z</time></trkpt><trkpt lat="46.00387418257796" lon="11.308639181026642"><ele>441.0</ele><time>2026-05-02T12:57:26Z</time></trkpt><trkpt lat="46.003878829522954" lon="11.308332368094126"><ele>439.66666666666663</ele><time>2026-05-02T12:57:27Z</time></trkpt><trkpt lat="46.00388741164789" lon="11.308016161915242"><ele>438.3333333333333</ele><time>2026-05-02T12:57:28Z</time></trkpt><trkpt lat="46.003898324630455" lon="11.307700166406669"><ele>437.0</ele><time>2026-05-02T12:57:29Z</time></trkpt><trkpt lat="46.00390901271155" lon="11.307385310889556"><ele>437.3333333333333</ele><time>2026-05-02T12:57:30Z</time></trkpt><trkpt lat="46.00391898677861" lon="11.307073560435096"><ele>437.66666666666663</ele><time>2026-05-02T12:57:31Z</time></trkpt><trkpt lat="46.00393194491905" lon="11.306763238136664"><ele>438.0</ele><time>2026-05-02T12:57:32Z</time></trkpt><trkpt lat="46.00394719694047" lon="11.30646050237348"><ele>438.33333333333337</ele><time>2026-05-02T12:57:33Z</time></trkpt><trkpt lat="46.00395407663417" lon="11.306160088235927"><ele>438.6666666666667</ele><time>2026-05-02T12:57:34Z</time></trkpt><trkpt lat="46.003960459890344" lon="11.305865918573463"><ele>439.0</ele><time>2026-05-02T12:57:35Z</time></trkpt><trkpt lat="46.0039661791583" lon="11.305574863062404"><ele>438.6666666666667</ele><time>2026-05-02T12:57:36Z</time></trkpt><trkpt lat="46.003974009360775" lon="11.305286826205528"><ele>438.33333333333337</ele><time>2026-05-02T12:57:37Z</time></trkpt><trkpt lat="46.00398249393614" lon="11.305003402995938"><ele>438.0</ele><time>2026-05-02T12:57:38Z</time></trkpt><trkpt lat="46.003991331371616" lon="11.304721604985671"><ele>438.0</ele><time>2026-05-02T12:57:39Z</time></trkpt><trkpt lat="46.00399898809685" lon="11.304442958402179"><ele>438.0</ele><time>2026-05-02T12:57:40Z</time></trkpt><trkpt lat="46.004007406918" lon="11.3041746900135"><ele>438.0</ele><time>2026-05-02T12:57:41Z</time></trkpt><trkpt lat="46.004017084455015" lon="11.303922717037583"><ele>437.66666666666663</ele><time>2026-05-02T12:57:42Z</time></trkpt><trkpt lat="46.00402414851726" lon="11.30368264082416"><ele>437.3333333333333</ele><time>2026-05-02T12:57:43Z</time></trkpt><trkpt lat="46.00402999421725" lon="11.303455789571766"><ele>437.0</ele><time>2026-05-02T12:57:44Z</time></trkpt><trkpt lat="46.00403742504637" lon="11.303236566580804"><ele>437.0</ele><time>2026-05-02T12:57:45Z</time></trkpt><trkpt lat="46.004047176650474" lon="11.303026217312848"><ele>437.0</ele><time>2026-05-02T12:57:46Z</time></trkpt><trkpt lat="46.00405584057467" lon="11.302820619846194"><ele>437.0</ele><time>2026-05-02T12:57:47Z</time></trkpt><trkpt lat="46.00406950690938" lon="11.302623519827547"><ele>437.0</ele><time>2026-05-02T12:57:48Z</time></trkpt><trkpt lat="46.00408386042389" lon="11.30243728405863"><ele>437.0</ele><time>2026-05-02T12:57:49Z</time></trkpt><trkpt lat="46.00409224676077" lon="11.302262177872292"><ele>437.0</ele><time>2026-05-02T12:57:50Z</time></trkpt><trkpt lat="46.004094562313746" lon="11.302102755900323"><ele>437.0</ele><time>2026-05-02T12:57:51Z</time></trkpt><trkpt lat="46.00410296232668" lon="11.301945114067307"><ele>437.0</ele><time>2026-05-02T12:57:52Z</time></trkpt><trkpt lat="46.00413232639399" lon="11.301780488475057"><ele>437.25</ele><time>2026-05-02T12:57:53Z</time></trkpt><trkpt lat="46.00418276331886" lon="11.301612612172647"><ele>437.5</ele><time>2026-05-02T12:57:54Z</time></trkpt><trkpt lat="46.00424766951537" lon="11.301451470522842"><ele>437.75</ele><time>2026-05-02T12:57:55Z</time></trkpt><trkpt lat="46.0043331658528" lon="11.301309947775179"><ele>438.0</ele><time>2026-05-02T12:57:56Z</time></trkpt><trkpt lat="46.00442600074257" lon="11.301181458193373"><ele>438.2</ele><time>2026-05-02T12:57:57Z</time></trkpt><trkpt lat="46.00452123248555" lon="11.301074219717215"><ele>438.4</ele><time>2026-05-02T12:57:58Z</time></trkpt><trkpt lat="46.00459494581573" lon="11.300989151201906"><ele>438.59999999999997</ele><time>2026-05-02T12:57:59Z</time></trkpt><trkpt lat="46.00464113021793" lon="11.300918357453979"><ele>438.79999999999995</ele><time>2026-05-02T12:58:00Z</time></trkpt><trkpt lat="46.00468427589022" lon="11.300771359369188"><ele>439.0</ele><time>2026-05-02T12:58:02Z</time></trkpt><trkpt lat="46.00470602502526" lon="11.300647818074571"><ele>438.6</ele><time>2026-05-02T12:58:04Z</time></trkpt><trkpt lat="46.00472996080635" lon="11.300556874105855"><ele>438.2</ele><time>2026-05-02T12:58:06Z</time></trkpt><trkpt lat="46.00476381635144" lon="11.300433504412375"><ele>437.80000000000007</ele><time>2026-05-02T12:58:09Z</time></trkpt><trkpt lat="46.00468534232802" lon="11.300284431950852"><ele>437.40000000000003</ele><time>2026-05-02T12:58:12Z</time></trkpt><trkpt lat="46.00461210435543" lon="11.3002399758402"><ele>437.0</ele><time>2026-05-02T12:58:13Z</time></trkpt><trkpt lat="46.00452136885256" lon="11.300195175827488"><ele>437.0</ele><time>2026-05-02T12:58:14Z</time></trkpt><trkpt lat="46.00442536790632" lon="11.300146119705836"><ele>437.00000000000006</ele><time>2026-05-02T12:58:15Z</time></trkpt><trkpt lat="46.00434270943498" lon="11.300101911017867"><ele>437.00000000000006</ele><time>2026-05-02T12:58:16Z</time></trkpt><trkpt lat="46.00424280868111" lon="11.300059401970092"><ele>437.0</ele><time>2026-05-02T12:58:17Z</time></trkpt><trkpt lat="46.00412875572937" lon="11.300014802650855"><ele>437.0</ele><time>2026-05-02T12:58:18Z</time></trkpt><trkpt lat="46.004008590432" lon="11.299965342461405"><ele>437.0</ele><time>2026-05-02T12:58:19Z</time></trkpt><trkpt lat="46.00388419096142" lon="11.299918151336405"><ele>437.0</ele><time>2026-05-02T12:58:20Z</time></trkpt><trkpt lat="46.00375772126141" lon="11.299872333289438"><ele>437.0</ele><time>2026-05-02T12:58:21Z</time></trkpt><trkpt lat="46.00363026670049" lon="11.29982354042365"><ele>437.0</ele><time>2026-05-02T12:58:22Z</time></trkpt><trkpt lat="46.00349532669833" lon="11.29977713023392"><ele>437.0</ele><time>2026-05-02T12:58:23Z</time></trkpt><trkpt lat="46.00335789846378" lon="11.299733123646082"><ele>437.0</ele><time>2026-05-02T12:58:24Z</time></trkpt><trkpt lat="46.003222266090276" lon="11.299689296061903"><ele>437.0</ele><time>2026-05-02T12:58:25Z</time></trkpt><trkpt lat="46.00308964432096" lon="11.299644218951542"><ele>437.0</ele><time>2026-05-02T12:58:26Z</time></trkpt><trkpt lat="46.002963288735515" lon="11.299600172239604"><ele>437.75</ele><time>2026-05-02T12:58:27Z</time></trkpt><trkpt lat="46.0028436557465" lon="11.29956025918416"><ele>438.5</ele><time>2026-05-02T12:58:28Z</time></trkpt><trkpt lat="46.00272077640637" lon="11.299524132419132"><ele>439.25</ele><time>2026-05-02T12:58:29Z</time></trkpt><trkpt lat="46.00259037107629" lon="11.299486047609273"><ele>440.0</ele><time>2026-05-02T12:58:30Z</time></trkpt><trkpt lat="46.00246440832072" lon="11.299446861344906"><ele>440.5</ele><time>2026-05-02T12:58:31Z</time></trkpt><trkpt lat="46.00233815784097" lon="11.29941084568377"><ele>441.0</ele><time>2026-05-02T12:58:32Z</time></trkpt><trkpt lat="46.00220785980494" lon="11.299375818828857"><ele>441.5</ele><time>2026-05-02T12:58:33Z</time></trkpt><trkpt lat="46.00207458607017" lon="11.299342782713076"><ele>442.0</ele><time>2026-05-02T12:58:34Z</time></trkpt><trkpt lat="46.001938608962334" lon="11.299310054543671"><ele>442.0</ele><time>2026-05-02T12:58:35Z</time></trkpt><trkpt lat="46.00179333518623" lon="11.299275676696897"><ele>442.0</ele><time>2026-05-02T12:58:36.001Z</time></trkpt><trkpt lat="46.001639581662296" lon="11.299242710401208"><ele>442.0</ele><time>2026-05-02T12:58:37.001Z</time></trkpt><trkpt lat="46.00148274720963" lon="11.299207554416009"><ele>442.0</ele><time>2026-05-02T12:58:38.001Z</time></trkpt><trkpt lat="46.00131867422434" lon="11.299170542635327"><ele>442.0</ele><time>2026-05-02T12:58:39.001Z</time></trkpt><trkpt lat="46.00115796029869" lon="11.29912988519964"><ele>442.0</ele><time>2026-05-02T12:58:40.001Z</time></trkpt><trkpt lat="46.000999561565706" lon="11.299091670540662"><ele>442.0</ele><time>2026-05-02T12:58:41.001Z</time></trkpt><trkpt lat="46.00085098489445" lon="11.299049300386411"><ele>442.0</ele><time>2026-05-02T12:58:42.001Z</time></trkpt><trkpt lat="46.000715304439964" lon="11.299005124123315"><ele>442.0</ele><time>2026-05-02T12:58:43.001Z</time></trkpt><trkpt lat="46.00059065661063" lon="11.298959157775492"><ele>442.0</ele><time>2026-05-02T12:58:44.001Z</time></trkpt><trkpt lat="46.00047725725031" lon="11.298908556987168"><ele>442.1666666666667</ele><time>2026-05-02T12:58:45.001Z</time></trkpt><trkpt lat="46.000384862563294" lon="11.298857946271204"><ele>442.33333333333337</ele><time>2026-05-02T12:58:46.001Z</time></trkpt><trkpt lat="46.00032090118034" lon="11.29882434737351"><ele>442.5</ele><time>2026-05-02T12:58:47.001Z</time></trkpt><trkpt lat="46.00024998271015" lon="11.298790300222786"><ele>442.66666666666663</ele><time>2026-05-02T12:58:48.001Z</time></trkpt><trkpt lat="46.0001791289644" lon="11.298756040730126"><ele>442.8333333333333</ele><time>2026-05-02T12:58:49.001Z</time></trkpt><trkpt lat="46.00010020233556" lon="11.298712884209412"><ele>443.0</ele><time>2026-05-02T12:58:50.001Z</time></trkpt><trkpt lat="46.00001419484811" lon="11.298665343849246"><ele>443.0</ele><time>2026-05-02T12:58:51.001Z</time></trkpt><trkpt lat="45.99992560707396" lon="11.298618742707223"><ele>442.99999999999994</ele><time>2026-05-02T12:58:52.001Z</time></trkpt><trkpt lat="45.9998350462116" lon="11.298569808278069"><ele>442.99999999999994</ele><time>2026-05-02T12:58:53.001Z</time></trkpt><trkpt lat="45.99974598281173" lon="11.298519786763809"><ele>443.0</ele><time>2026-05-02T12:58:54.001Z</time></trkpt><trkpt lat="45.99965953461336" lon="11.298475700449169"><ele>443.0</ele><time>2026-05-02T12:58:55.001Z</time></trkpt><trkpt lat="45.999579742328216" lon="11.29842292775317"><ele>442.99999999999994</ele><time>2026-05-02T12:58:56.001Z</time></trkpt><trkpt lat="45.99949854283784" lon="11.298376778421506"><ele>443.0</ele><time>2026-05-02T12:58:57.001Z</time></trkpt><trkpt lat="45.99941554967417" lon="11.298333826741345"><ele>443.0</ele><time>2026-05-02T12:58:58.001Z</time></trkpt><trkpt lat="45.99932806836794" lon="11.298289502180461"><ele>443.0</ele><time>2026-05-02T12:58:59.001Z</time></trkpt><trkpt lat="45.99924199063784" lon="11.298246030383314"><ele>442.99999999999994</ele><time>2026-05-02T12:59:00.001Z</time></trkpt><trkpt lat="45.9991738119539" lon="11.29818610725265"><ele>443.0</ele><time>2026-05-02T12:59:01.001Z</time></trkpt><trkpt lat="45.99910204780521" lon="11.298141583301742"><ele>443.0</ele><time>2026-05-02T12:59:02.001Z</time></trkpt><trkpt lat="45.999018835327206" lon="11.298091581924803"><ele>442.99999999999994</ele><time>2026-05-02T12:59:03.001Z</time></trkpt><trkpt lat="45.99891827486744" lon="11.298052508379232"><ele>442.99999999999994</ele><time>2026-05-02T12:59:04.001Z</time></trkpt><trkpt lat="45.99881197808392" lon="11.29799028556295"><ele>443.0</ele><time>2026-05-02T12:59:05.001Z</time></trkpt><trkpt lat="45.99869146370107" lon="11.297931190197101"><ele>443.0</ele><time>2026-05-02T12:59:06.001Z</time></trkpt><trkpt lat="45.99854674061086" lon="11.297873471452492"><ele>442.66666666666663</ele><time>2026-05-02T12:59:07.001Z</time></trkpt><trkpt lat="45.99839161715183" lon="11.297822720449975"><ele>442.33333333333337</ele><time>2026-05-02T12:59:08.001Z</time></trkpt><trkpt lat="45.998239179793025" lon="11.297781340245072"><ele>442.0</ele><time>2026-05-02T12:59:09.001Z</time></trkpt><trkpt lat="45.998076055548296" lon="11.2977379967399"><ele>442.0</ele><time>2026-05-02T12:59:10.001Z</time></trkpt><trkpt lat="45.99790850735577" lon="11.297692300838046"><ele>442.0</ele><time>2026-05-02T12:59:11.001Z</time></trkpt><trkpt lat="45.99773500545346" lon="11.297654340975381"><ele>442.0</ele><time>2026-05-02T12:59:12.001Z</time></trkpt><trkpt lat="45.99755718977798" lon="11.29761152091523"><ele>442.6666666666667</ele><time>2026-05-02T12:59:13.001Z</time></trkpt><trkpt lat="45.99738525389107" lon="11.29755327735878"><ele>443.33333333333337</ele><time>2026-05-02T12:59:14.001Z</time></trkpt><trkpt lat="45.99723002270843" lon="11.297483167318335"><ele>444.0</ele><time>2026-05-02T12:59:15.001Z</time></trkpt><trkpt lat="45.99708506373885" lon="11.297430417905945"><ele>444.0</ele><time>2026-05-02T12:59:16.001Z</time></trkpt><trkpt lat="45.996937806767185" lon="11.29740298745648"><ele>444.0</ele><time>2026-05-02T12:59:17.001Z</time></trkpt><trkpt lat="45.99677856355074" lon="11.29739864921623"><ele>444.0</ele><time>2026-05-02T12:59:18.001Z</time></trkpt><trkpt lat="45.99661389393189" lon="11.297406910883627"><ele>444.0</ele><time>2026-05-02T12:59:19.001Z</time></trkpt><trkpt lat="45.99644451175901" lon="11.297419217925247"><ele>444.0</ele><time>2026-05-02T12:59:20.001Z</time></trkpt><trkpt lat="45.99627140286175" lon="11.297428601317195"><ele>444.0</ele><time>2026-05-02T12:59:21.001Z</time></trkpt><trkpt lat="45.99610811825114" lon="11.297447536954136"><ele>444.0</ele><time>2026-05-02T12:59:22Z</time></trkpt><trkpt lat="45.995939889676784" lon="11.297462334072561"><ele>444.0</ele><time>2026-05-02T12:59:23Z</time></trkpt><trkpt lat="45.99577679855115" lon="11.297493109503922"><ele>444.0</ele><time>2026-05-02T12:59:24Z</time></trkpt><trkpt lat="45.99561508950919" lon="11.29753582793964"><ele>445.0</ele><time>2026-05-02T12:59:25Z</time></trkpt><trkpt lat="45.995450652003235" lon="11.297582737624765"><ele>446.0</ele><time>2026-05-02T12:59:26Z</time></trkpt><trkpt lat="45.99528429112197" lon="11.297675757594362"><ele>447.0</ele><time>2026-05-02T12:59:27Z</time></trkpt><trkpt lat="45.99510901216713" lon="11.297801899479024"><ele>447.33333333333337</ele><time>2026-05-02T12:59:28Z</time></trkpt><trkpt lat="45.994951229147645" lon="11.29790776313062"><ele>447.6666666666667</ele><time>2026-05-02T12:59:29Z</time></trkpt><trkpt lat="45.994803389776735" lon="11.297996501934554"><ele>448.0</ele><time>2026-05-02T12:59:30Z</time></trkpt><trkpt lat="45.99466188894257" lon="11.298077742704804"><ele>448.0</ele><time>2026-05-02T12:59:31Z</time></trkpt><trkpt lat="45.994517948857705" lon="11.298152535570491"><ele>448.0</ele><time>2026-05-02T12:59:32Z</time></trkpt><trkpt lat="45.994374638471214" lon="11.298228437769811"><ele>448.0</ele><time>2026-05-02T12:59:33Z</time></trkpt><trkpt lat="45.99423243014671" lon="11.298307522030788"><ele>450.0</ele><time>2026-05-02T12:59:34Z</time></trkpt><trkpt lat="45.99409207534161" lon="11.298384274634582"><ele>452.0</ele><time>2026-05-02T12:59:35Z</time></trkpt><trkpt lat="45.99395383843804" lon="11.2984595010372"><ele>454.0</ele><time>2026-05-02T12:59:36Z</time></trkpt><trkpt lat="45.99381854961594" lon="11.298539684359104"><ele>456.0</ele><time>2026-05-02T12:59:37Z</time></trkpt><trkpt lat="45.99368424286454" lon="11.298621294270742"><ele>456.0</ele><time>2026-05-02T12:59:38Z</time></trkpt><trkpt lat="45.993549235611916" lon="11.298703813657315"><ele>456.0</ele><time>2026-05-02T12:59:39Z</time></trkpt><trkpt lat="45.993409347940116" lon="11.29879404429913"><ele>456.0</ele><time>2026-05-02T12:59:40Z</time></trkpt><trkpt lat="45.99326078483219" lon="11.298885768499762"><ele>458.66666666666663</ele><time>2026-05-02T12:59:41Z</time></trkpt><trkpt lat="45.99311204027293" lon="11.298970940723692"><ele>461.3333333333333</ele><time>2026-05-02T12:59:42Z</time></trkpt><trkpt lat="45.99296265205915" lon="11.29905447377667"><ele>464.0</ele><time>2026-05-02T12:59:43Z</time></trkpt><trkpt lat="45.99281550007254" lon="11.29914229513359"><ele>464.0</ele><time>2026-05-02T12:59:44Z</time></trkpt><trkpt lat="45.99266939204646" lon="11.299229078049919"><ele>464.0</ele><time>2026-05-02T12:59:45Z</time></trkpt><trkpt lat="45.992526666071626" lon="11.299323819154196"><ele>464.0</ele><time>2026-05-02T12:59:46Z</time></trkpt><trkpt lat="45.99238334443038" lon="11.299420468012753"><ele>465.3333333333333</ele><time>2026-05-02T12:59:47Z</time></trkpt><trkpt lat="45.99223542973831" lon="11.299514760561829"><ele>466.66666666666663</ele><time>2026-05-02T12:59:48Z</time></trkpt><trkpt lat="45.99208855196017" lon="11.299605463512611"><ele>468.0</ele><time>2026-05-02T12:59:49Z</time></trkpt><trkpt lat="45.99194290938835" lon="11.299694758487004"><ele>468.0</ele><time>2026-05-02T12:59:50Z</time></trkpt><trkpt lat="45.991801270332786" lon="11.299785969935485"><ele>468.0</ele><time>2026-05-02T12:59:51Z</time></trkpt><trkpt lat="45.99166233836466" lon="11.299875891142408"><ele>468.0</ele><time>2026-05-02T12:59:52Z</time></trkpt><trkpt lat="45.99152638148397" lon="11.299964698572937"><ele>469.5</ele><time>2026-05-02T12:59:53Z</time></trkpt><trkpt lat="45.991393162588594" lon="11.300051353642566"><ele>471.0</ele><time>2026-05-02T12:59:54Z</time></trkpt><trkpt lat="45.9912639067498" lon="11.300135987495086"><ele>472.5</ele><time>2026-05-02T12:59:55Z</time></trkpt><trkpt lat="45.99113600029786" lon="11.300216628001184"><ele>474.0</ele><time>2026-05-02T12:59:56Z</time></trkpt><trkpt lat="45.99100800656806" lon="11.300293852555614"><ele>474.0</ele><time>2026-05-02T12:59:57Z</time></trkpt><trkpt lat="45.99087476504243" lon="11.300364765956962"><ele>474.0</ele><time>2026-05-02T12:59:58Z</time></trkpt><trkpt lat="45.99073818367013" lon="11.30043038531086"><ele>474.0</ele><time>2026-05-02T12:59:59Z</time></trkpt><trkpt lat="45.990598447570704" lon="11.300488517868407"><ele>474.0</ele><time>2026-05-02T13:00:00Z</time></trkpt><trkpt lat="45.99045336769966" lon="11.300542200241997"><ele>477.33333333333337</ele><time>2026-05-02T13:00:01Z</time></trkpt><trkpt lat="45.99030271952447" lon="11.300597544480478"><ele>480.6666666666667</ele><time>2026-05-02T13:00:02Z</time></trkpt><trkpt lat="45.99014583921033" lon="11.30065351128696"><ele>484.0</ele><time>2026-05-02T13:00:03Z</time></trkpt><trkpt lat="45.98999565277537" lon="11.300706222929739"><ele>486.0</ele><time>2026-05-02T13:00:04Z</time></trkpt><trkpt lat="45.989853898513736" lon="11.300752265042036"><ele>488.0</ele><time>2026-05-02T13:00:05Z</time></trkpt><trkpt lat="45.98971802761583" lon="11.300783704336746"><ele>490.0</ele><time>2026-05-02T13:00:06Z</time></trkpt><trkpt lat="45.98958889361437" lon="11.300805713758853"><ele>492.0</ele><time>2026-05-02T13:00:07Z</time></trkpt><trkpt lat="45.989454505352285" lon="11.300826331980655"><ele>492.0</ele><time>2026-05-02T13:00:08Z</time></trkpt><trkpt lat="45.98932239709384" lon="11.30083722700703"><ele>492.0</ele><time>2026-05-02T13:00:09Z</time></trkpt><trkpt lat="45.989194091691196" lon="11.300854782396032"><ele>492.0</ele><time>2026-05-02T13:00:10Z</time></trkpt><trkpt lat="45.98906842130618" lon="11.300873790409135"><ele>492.0</ele><time>2026-05-02T13:00:11Z</time></trkpt><trkpt lat="45.98894047812884" lon="11.300892348665203"><ele>493.5</ele><time>2026-05-02T13:00:12Z</time></trkpt><trkpt lat="45.988808176941845" lon="11.300910863868793"><ele>495.0</ele><time>2026-05-02T13:00:13Z</time></trkpt><trkpt lat="45.98866762157448" lon="11.300930577407962"><ele>496.5</ele><time>2026-05-02T13:00:14Z</time></trkpt><trkpt lat="45.988518643807936" lon="11.300943220563576"><ele>498.0</ele><time>2026-05-02T13:00:15Z</time></trkpt><trkpt lat="45.98836993778694" lon="11.30094315030379"><ele>501.0</ele><time>2026-05-02T13:00:16Z</time></trkpt><trkpt lat="45.988220369569746" lon="11.30093481539193"><ele>504.0</ele><time>2026-05-02T13:00:17Z</time></trkpt><trkpt lat="45.98806500800945" lon="11.300932586305033"><ele>507.0</ele><time>2026-05-02T13:00:18Z</time></trkpt><trkpt lat="45.98790778740223" lon="11.300934961261653"><ele>507.0</ele><time>2026-05-02T13:00:19Z</time></trkpt><trkpt lat="45.98775124322326" lon="11.30093857288273"><ele>507.0</ele><time>2026-05-02T13:00:20Z</time></trkpt><trkpt lat="45.987590891083045" lon="11.300953681863358"><ele>507.0</ele><time>2026-05-02T13:00:21Z</time></trkpt><trkpt lat="45.98741710964793" lon="11.300984760249007"><ele>510.0</ele><time>2026-05-02T13:00:22Z</time></trkpt><trkpt lat="45.98723256872541" lon="11.301019273217747"><ele>513.0</ele><time>2026-05-02T13:00:23Z</time></trkpt><trkpt lat="45.98703241873361" lon="11.301068953549859"><ele>516.0</ele><time>2026-05-02T13:00:24Z</time></trkpt><trkpt lat="45.98680207629734" lon="11.301134127486288"><ele>519.0</ele><time>2026-05-02T13:00:25Z</time></trkpt><trkpt lat="45.98655838662536" lon="11.301214057412588"><ele>522.0</ele><time>2026-05-02T13:00:26Z</time></trkpt><trkpt lat="45.986321473071015" lon="11.301305739763484"><ele>522.0</ele><time>2026-05-02T13:00:27Z</time></trkpt><trkpt lat="45.98609228708134" lon="11.301400617851048"><ele>522.0</ele><time>2026-05-02T13:00:28Z</time></trkpt><trkpt lat="45.985877389958475" lon="11.301500374267885"><ele>525.0</ele><time>2026-05-02T13:00:29Z</time></trkpt><trkpt lat="45.98567305869312" lon="11.301596852098221"><ele>528.0</ele><time>2026-05-02T13:00:30Z</time></trkpt><trkpt lat="45.98548621996561" lon="11.301690814990263"><ele>531.0</ele><time>2026-05-02T13:00:31Z</time></trkpt><trkpt lat="45.985307216797146" lon="11.301779367917302"><ele>531.0</ele><time>2026-05-02T13:00:32Z</time></trkpt><trkpt lat="45.985133903418486" lon="11.301865872066765"><ele>531.0</ele><time>2026-05-02T13:00:33Z</time></trkpt><trkpt lat="45.984965602490725" lon="11.301951663796942"><ele>531.0</ele><time>2026-05-02T13:00:34Z</time></trkpt><trkpt lat="45.98480477262364" lon="11.302028867051828"><ele>532.6666666666666</ele><time>2026-05-02T13:00:35Z</time></trkpt><trkpt lat="45.9846483917217" lon="11.302107043066577"><ele>534.3333333333333</ele><time>2026-05-02T13:00:36Z</time></trkpt><trkpt lat="45.984494223178764" lon="11.302182879253998"><ele>536.0</ele><time>2026-05-02T13:00:37Z</time></trkpt><trkpt lat="45.984346065561596" lon="11.302250504137023"><ele>536.0</ele><time>2026-05-02T13:00:38Z</time></trkpt><trkpt lat="45.98421691222129" lon="11.302310991043607"><ele>536.0</ele><time>2026-05-02T13:00:39Z</time></trkpt><trkpt lat="45.984111757101026" lon="11.302363720062312"><ele>536.0</ele><time>2026-05-02T13:00:40Z</time></trkpt><trkpt lat="45.984027565879664" lon="11.302413467534622"><ele>536.0</ele><time>2026-05-02T13:00:41Z</time></trkpt><trkpt lat="45.98395566546663" lon="11.302438435719521"><ele>536.0</ele><time>2026-05-02T13:00:42Z</time></trkpt><trkpt lat="45.98386168871046" lon="11.302349440725658"><ele>536.6666666666666</ele><time>2026-05-02T13:00:44Z</time></trkpt><trkpt lat="45.983863856716724" lon="11.302254653827058"><ele>537.3333333333333</ele><time>2026-05-02T13:00:45Z</time></trkpt><trkpt lat="45.983914719209885" lon="11.302177944175511"><ele>538.0</ele><time>2026-05-02T13:00:46Z</time></trkpt><trkpt lat="45.98399789984641" lon="11.302173190391493"><ele>538.6666666666666</ele><time>2026-05-02T13:00:47Z</time></trkpt><trkpt lat="45.98406494159255" lon="11.302148769226227"><ele>539.3333333333334</ele><time>2026-05-02T13:00:48.001Z</time></trkpt><trkpt lat="45.98416357781342" lon="11.302076828536368"><ele>540.0</ele><time>2026-05-02T13:00:49.001Z</time></trkpt><trkpt lat="45.98426153659735" lon="11.301971459715057"><ele>541.3333333333334</ele><time>2026-05-02T13:00:50.001Z</time></trkpt><trkpt lat="45.9843600875766" lon="11.301798309598546"><ele>542.6666666666667</ele><time>2026-05-02T13:00:51.001Z</time></trkpt><trkpt lat="45.98447768879678" lon="11.30158709924959"><ele>544.0</ele><time>2026-05-02T13:00:52.001Z</time></trkpt><trkpt lat="45.98460462687124" lon="11.301394308564662"><ele>552.3333333333334</ele><time>2026-05-02T13:00:53.001Z</time></trkpt><trkpt lat="45.984743330515" lon="11.301220737620662"><ele>560.6666666666666</ele><time>2026-05-02T13:00:54.001Z</time></trkpt><trkpt lat="45.98486841758098" lon="11.301067183514132"><ele>569.0</ele><time>2026-05-02T13:00:55.001Z</time></trkpt><trkpt lat="45.98496706732619" lon="11.300915752699382"><ele>565.75</ele><time>2026-05-02T13:00:56.001Z</time></trkpt><trkpt lat="45.98506153846764" lon="11.3007910043515"><ele>562.5</ele><time>2026-05-02T13:00:57.001Z</time></trkpt><trkpt lat="45.98513369017207" lon="11.300656909494315"><ele>559.25</ele><time>2026-05-02T13:00:58.001Z</time></trkpt><trkpt lat="45.98520894347075" lon="11.30050352856925"><ele>556.0</ele><time>2026-05-02T13:00:59.001Z</time></trkpt><trkpt lat="45.98526907149822" lon="11.300371550365742"><ele>556.0</ele><time>2026-05-02T13:01:00.001Z</time></trkpt><trkpt lat="45.98533742569018" lon="11.300220032641068"><ele>556.0</ele><time>2026-05-02T13:01:01.001Z</time></trkpt><trkpt lat="45.985396151291106" lon="11.300079426818872"><ele>556.0</ele><time>2026-05-02T13:01:02.001Z</time></trkpt><trkpt lat="45.98545851601594" lon="11.299947874576857"><ele>556.0</ele><time>2026-05-02T13:01:03.001Z</time></trkpt><trkpt lat="45.985501032555725" lon="11.299817211230156"><ele>554.5</ele><time>2026-05-02T13:01:04.001Z</time></trkpt><trkpt lat="45.985505738432394" lon="11.299692081692921"><ele>553.0</ele><time>2026-05-02T13:01:05.001Z</time></trkpt><trkpt lat="45.985497416920175" lon="11.299557865679317"><ele>551.5</ele><time>2026-05-02T13:01:06.001Z</time></trkpt><trkpt lat="45.98544994258294" lon="11.299421817235965"><ele>550.0</ele><time>2026-05-02T13:01:07.001Z</time></trkpt><trkpt lat="45.98540075924528" lon="11.299319124237078"><ele>548.5</ele><time>2026-05-02T13:01:08.001Z</time></trkpt><trkpt lat="45.98538093178181" lon="11.299217873401872"><ele>547.0</ele><time>2026-05-02T13:01:09.001Z</time></trkpt><trkpt lat="45.985366497339534" lon="11.299122559318736"><ele>547.0</ele><time>2026-05-02T13:01:10.001Z</time></trkpt><trkpt lat="45.985337358306836" lon="11.29896345412986"><ele>547.0</ele><time>2026-05-02T13:01:12.001Z</time></trkpt><trkpt lat="45.98526444578994" lon="11.298877198178102"><ele>547.0</ele><time>2026-05-02T13:01:14.001Z</time></trkpt><trkpt lat="45.9851970136885" lon="11.29891734573566"><ele>547.0</ele><time>2026-05-02T13:01:15.001Z</time></trkpt><trkpt lat="45.98519193882662" lon="11.29905349221848"><ele>547.0</ele><time>2026-05-02T13:01:16.001Z</time></trkpt><trkpt lat="45.985226730551936" lon="11.299174818456915"><ele>547.0</ele><time>2026-05-02T13:01:17.001Z</time></trkpt><trkpt lat="45.9852321525101" lon="11.299314542020705"><ele>547.0</ele><time>2026-05-02T13:01:18.001Z</time></trkpt><trkpt lat="45.98520735358854" lon="11.29941396741695"><ele>547.0</ele><time>2026-05-02T13:01:19.001Z</time></trkpt><trkpt lat="45.98515945142238" lon="11.299484173056703"><ele>547.0</ele><time>2026-05-02T13:01:20.001Z</time></trkpt><trkpt lat="45.985090136763624" lon="11.299553954165159"><ele>547.0</ele><time>2026-05-02T13:01:21.001Z</time></trkpt><trkpt lat="45.984997198937364" lon="11.299663090340108"><ele>547.0</ele><time>2026-05-02T13:01:22.001Z</time></trkpt><trkpt lat="45.98488102635426" lon="11.29977094748451"><ele>557.5</ele><time>2026-05-02T13:01:23.001Z</time></trkpt><trkpt lat="45.98477193248977" lon="11.299896709254375"><ele>568.0</ele><time>2026-05-02T13:01:24.001Z</time></trkpt><trkpt lat="45.984664402323595" lon="11.30002613444073"><ele>578.5</ele><time>2026-05-02T13:01:25.001Z</time></trkpt><trkpt lat="45.984546171145084" lon="11.30014452248523"><ele>589.0</ele><time>2026-05-02T13:01:26.001Z</time></trkpt><trkpt lat="45.98444456284428" lon="11.300274400283977"><ele>589.0</ele><time>2026-05-02T13:01:27Z</time></trkpt><trkpt lat="45.984330129140396" lon="11.300390884995895"><ele>589.0</ele><time>2026-05-02T13:01:28Z</time></trkpt><trkpt lat="45.98421111106359" lon="11.300494161663906"><ele>589.0</ele><time>2026-05-02T13:01:29Z</time></trkpt><trkpt lat="45.98408071993944" lon="11.300587622195456"><ele>589.0</ele><time>2026-05-02T13:01:30Z</time></trkpt><trkpt lat="45.98395957663423" lon="11.300681430489474"><ele>591.0</ele><time>2026-05-02T13:01:31Z</time></trkpt><trkpt lat="45.9838498227662" lon="11.300772789083869"><ele>593.0</ele><time>2026-05-02T13:01:32Z</time></trkpt><trkpt lat="45.983761672569784" lon="11.300865524725538"><ele>595.0</ele><time>2026-05-02T13:01:33Z</time></trkpt><trkpt lat="45.9836897217434" lon="11.300959510353804"><ele>597.0</ele><time>2026-05-02T13:01:34Z</time></trkpt><trkpt lat="45.98362305835438" lon="11.301018118372287"><ele>599.0</ele><time>2026-05-02T13:01:35Z</time></trkpt><trkpt lat="45.98357560381129" lon="11.30107994557677"><ele>599.0</ele><time>2026-05-02T13:01:36Z</time></trkpt><trkpt lat="45.98345696991707" lon="11.30103789540707"><ele>599.0</ele><time>2026-05-02T13:01:38Z</time></trkpt><trkpt lat="45.9833917670642" lon="11.300943701215608"><ele>599.0</ele><time>2026-05-02T13:01:39Z</time></trkpt><trkpt lat="45.983333258089196" lon="11.300821036901446"><ele>599.0</ele><time>2026-05-02T13:01:40Z</time></trkpt><trkpt lat="45.98325644370846" lon="11.300718528506067"><ele>599.0</ele><time>2026-05-02T13:01:41Z</time></trkpt><trkpt lat="45.983158038570366" lon="11.300622925559265"><ele>610.5</ele><time>2026-05-02T13:01:42Z</time></trkpt><trkpt lat="45.983035727438015" lon="11.300554703300154"><ele>622.0</ele><time>2026-05-02T13:01:43Z</time></trkpt><trkpt lat="45.9829048666825" lon="11.300503579926202"><ele>633.5</ele><time>2026-05-02T13:01:44Z</time></trkpt><trkpt lat="45.98277978343941" lon="11.300470881636024"><ele>645.0</ele><time>2026-05-02T13:01:45Z</time></trkpt><trkpt lat="45.982657286828896" lon="11.300465886960986"><ele>645.0</ele><time>2026-05-02T13:01:46Z</time></trkpt><trkpt lat="45.98254086131666" lon="11.300514553947572"><ele>645.0</ele><time>2026-05-02T13:01:47Z</time></trkpt><trkpt lat="45.98242252988759" lon="11.300592066919506"><ele>645.0</ele><time>2026-05-02T13:01:48Z</time></trkpt><trkpt lat="45.98232730515367" lon="11.300648467427086"><ele>645.0</ele><time>2026-05-02T13:01:49Z</time></trkpt><trkpt lat="45.982255769852415" lon="11.300722011579436"><ele>645.0</ele><time>2026-05-02T13:01:50Z</time></trkpt><trkpt lat="45.982210928180564" lon="11.300821263010992"><ele>641.4</ele><time>2026-05-02T13:01:51Z</time></trkpt><trkpt lat="45.98217983079125" lon="11.300923163840556"><ele>637.8</ele><time>2026-05-02T13:01:52Z</time></trkpt><trkpt lat="45.98213618476974" lon="11.300998147642165"><ele>634.2</ele><time>2026-05-02T13:01:53Z</time></trkpt><trkpt lat="45.98207290223489" lon="11.301177549699565"><ele>630.6</ele><time>2026-05-02T13:01:55Z</time></trkpt><trkpt lat="45.981979313041464" lon="11.301141274372286"><ele>627.0</ele><time>2026-05-02T13:01:57Z</time></trkpt><trkpt lat="45.982003052988894" lon="11.301046881711175"><ele>627.0</ele><time>2026-05-02T13:01:58Z</time></trkpt><trkpt lat="45.98205940816135" lon="11.300914582790192"><ele>627.0</ele><time>2026-05-02T13:02:00Z</time></trkpt><trkpt lat="45.982094801839494" lon="11.300764453134782"><ele>627.0</ele><time>2026-05-02T13:02:01Z</time></trkpt><trkpt lat="45.98213882231539" lon="11.300589917408407"><ele>627.0</ele><time>2026-05-02T13:02:02Z</time></trkpt><trkpt lat="45.98217636644661" lon="11.300399885319655"><ele>632.5</ele><time>2026-05-02T13:02:03Z</time></trkpt><trkpt lat="45.982218537326375" lon="11.300220888277648"><ele>638.0</ele><time>2026-05-02T13:02:04Z</time></trkpt><trkpt lat="45.982257471849614" lon="11.300036061731209"><ele>643.5</ele><time>2026-05-02T13:02:05Z</time></trkpt><trkpt lat="45.98229823439434" lon="11.299865369762163"><ele>649.0</ele><time>2026-05-02T13:02:06Z</time></trkpt><trkpt lat="45.98234797300325" lon="11.299725971395954"><ele>651.8000000000001</ele><time>2026-05-02T13:02:07Z</time></trkpt><trkpt lat="45.982420801163" lon="11.299612210835908"><ele>654.6</ele><time>2026-05-02T13:02:08Z</time></trkpt><trkpt lat="45.98249464752813" lon="11.299516119005784"><ele>657.4</ele><time>2026-05-02T13:02:09Z</time></trkpt><trkpt lat="45.982568812405816" lon="11.299449028474076"><ele>660.2</ele><time>2026-05-02T13:02:10Z</time></trkpt><trkpt lat="45.9826573396023" lon="11.299390411221788"><ele>663.0</ele><time>2026-05-02T13:02:11Z</time></trkpt><trkpt lat="45.982739735449464" lon="11.29935988579539"><ele>663.0</ele><time>2026-05-02T13:02:12Z</time></trkpt><trkpt lat="45.98280841772494" lon="11.299356710741103"><ele>663.0</ele><time>2026-05-02T13:02:13Z</time></trkpt><trkpt lat="45.9828726579489" lon="11.299378738163185"><ele>663.0</ele><time>2026-05-02T13:02:14Z</time></trkpt><trkpt lat="45.982944300662616" lon="11.299420440209504"><ele>663.0</ele><time>2026-05-02T13:02:15Z</time></trkpt><trkpt lat="45.983019831342716" lon="11.299475177924883"><ele>663.0</ele><time>2026-05-02T13:02:16Z</time></trkpt><trkpt lat="45.983097801371514" lon="11.299506858095766"><ele>663.0</ele><time>2026-05-02T13:02:17Z</time></trkpt><trkpt lat="45.983208189387085" lon="11.299545541464509"><ele>663.0</ele><time>2026-05-02T13:02:19Z</time></trkpt><trkpt lat="45.9832690488419" lon="11.29948979715108"><ele>663.0</ele><time>2026-05-02T13:02:20Z</time></trkpt><trkpt lat="45.98332363875393" lon="11.299391412344177"><ele>663.0</ele><time>2026-05-02T13:02:21Z</time></trkpt><trkpt lat="45.98338674930816" lon="11.29927874433901"><ele>663.0</ele><time>2026-05-02T13:02:22Z</time></trkpt><trkpt lat="45.983447499487966" lon="11.299179182556424"><ele>663.0</ele><time>2026-05-02T13:02:23Z</time></trkpt><trkpt lat="45.983508030300314" lon="11.299085824971451"><ele>663.0</ele><time>2026-05-02T13:02:24Z</time></trkpt><trkpt lat="45.98358687694402" lon="11.29897610370585"><ele>655.5</ele><time>2026-05-02T13:02:26Z</time></trkpt><trkpt lat="45.98365960814602" lon="11.298877571270019"><ele>648.0</ele><time>2026-05-02T13:02:28Z</time></trkpt><trkpt lat="45.98373673438891" lon="11.298666560733661"><ele>640.5</ele><time>2026-05-02T13:02:30Z</time></trkpt><trkpt lat="45.98357457591366" lon="11.298578075974739"><ele>633.0</ele><time>2026-05-02T13:02:31Z</time></trkpt><trkpt lat="45.983504043891664" lon="11.298490062794611"><ele>633.0</ele><time>2026-05-02T13:02:32Z</time></trkpt><trkpt lat="45.98342588632241" lon="11.29839123663372"><ele>633.0</ele><time>2026-05-02T13:02:33Z</time></trkpt><trkpt lat="45.98335018933499" lon="11.298295160358316"><ele>633.0</ele><time>2026-05-02T13:02:34Z</time></trkpt><trkpt lat="45.98328720974003" lon="11.298191230667891"><ele>633.0</ele><time>2026-05-02T13:02:35Z</time></trkpt><trkpt lat="45.98321580805829" lon="11.298069853168354"><ele>633.0</ele><time>2026-05-02T13:02:36Z</time></trkpt><trkpt lat="45.98312550856743" lon="11.297948216893184"><ele>639.25</ele><time>2026-05-02T13:02:37Z</time></trkpt><trkpt lat="45.98301418639132" lon="11.297835539922382"><ele>645.5</ele><time>2026-05-02T13:02:38Z</time></trkpt><trkpt lat="45.98290745053537" lon="11.297741669644614"><ele>651.75</ele><time>2026-05-02T13:02:39Z</time></trkpt><trkpt lat="45.98280769656678" lon="11.297664410944446"><ele>658.0</ele><time>2026-05-02T13:02:40Z</time></trkpt><trkpt lat="45.98272366997082" lon="11.297582378097946"><ele>658.0</ele><time>2026-05-02T13:02:41Z</time></trkpt><trkpt lat="45.98264342247048" lon="11.29751093496734"><ele>658.0</ele><time>2026-05-02T13:02:42Z</time></trkpt><trkpt lat="45.982577238575495" lon="11.297392733704779"><ele>658.0</ele><time>2026-05-02T13:02:43Z</time></trkpt><trkpt lat="45.98251293890713" lon="11.297264122566801"><ele>658.0</ele><time>2026-05-02T13:02:44Z</time></trkpt><trkpt lat="45.98244831313018" lon="11.297132077545756"><ele>658.0</ele><time>2026-05-02T13:02:45Z</time></trkpt><trkpt lat="45.982396747573176" lon="11.296991605547403"><ele>663.0</ele><time>2026-05-02T13:02:46Z</time></trkpt><trkpt lat="45.98234448273202" lon="11.296853350203534"><ele>668.0</ele><time>2026-05-02T13:02:47Z</time></trkpt><trkpt lat="45.98227747945873" lon="11.2967315932806"><ele>673.0</ele><time>2026-05-02T13:02:48Z</time></trkpt><trkpt lat="45.98216663499764" lon="11.29665339290882"><ele>678.0</ele><time>2026-05-02T13:02:49Z</time></trkpt><trkpt lat="45.982060438964076" lon="11.29656106399413"><ele>672.6666666666666</ele><time>2026-05-02T13:02:50Z</time></trkpt><trkpt lat="45.98194866181681" lon="11.296394911556925"><ele>667.3333333333333</ele><time>2026-05-02T13:02:51Z</time></trkpt><trkpt lat="45.98190310736472" lon="11.296223531455235"><ele>662.0</ele><time>2026-05-02T13:02:52Z</time></trkpt><trkpt lat="45.9818502863012" lon="11.295987605816775"><ele>662.0</ele><time>2026-05-02T13:02:53Z</time></trkpt><trkpt lat="45.98178791663771" lon="11.295727091407512"><ele>662.0</ele><time>2026-05-02T13:02:54Z</time></trkpt><trkpt lat="45.981732137917284" lon="11.295478794923023"><ele>662.0</ele><time>2026-05-02T13:02:55Z</time></trkpt><trkpt lat="45.98167888102623" lon="11.295239917899703"><ele>667.75</ele><time>2026-05-02T13:02:56Z</time></trkpt><trkpt lat="45.98162856478255" lon="11.295027431106085"><ele>673.5</ele><time>2026-05-02T13:02:57Z</time></trkpt><trkpt lat="45.981578225128374" lon="11.294810043518831"><ele>679.25</ele><time>2026-05-02T13:02:58Z</time></trkpt><trkpt lat="45.98153257222318" lon="11.294640471029107"><ele>685.0</ele><time>2026-05-02T13:02:59Z</time></trkpt><trkpt lat="45.981491325830184" lon="11.294480690885933"><ele>685.0</ele><time>2026-05-02T13:03:00Z</time></trkpt><trkpt lat="45.98145506405944" lon="11.29432993418953"><ele>685.0</ele><time>2026-05-02T13:03:01Z</time></trkpt><trkpt lat="45.98141346745186" lon="11.294204295986432"><ele>685.0</ele><time>2026-05-02T13:03:02Z</time></trkpt><trkpt lat="45.981357531318345" lon="11.294105216927864"><ele>685.0</ele><time>2026-05-02T13:03:03Z</time></trkpt><trkpt lat="45.98125400602014" lon="11.294033426519611"><ele>685.0</ele><time>2026-05-02T13:03:04Z</time></trkpt><trkpt lat="45.98113857245812" lon="11.293993277352783"><ele>685.0</ele><time>2026-05-02T13:03:05Z</time></trkpt><trkpt lat="45.981027829196044" lon="11.293934762780674"><ele>685.0</ele><time>2026-05-02T13:03:06Z</time></trkpt><trkpt lat="45.98093380961293" lon="11.29382439540057"><ele>685.0</ele><time>2026-05-02T13:03:07.001Z</time></trkpt><trkpt lat="45.98086476771559" lon="11.293672949578308"><ele>685.0</ele><time>2026-05-02T13:03:08.001Z</time></trkpt><trkpt lat="45.980822424878184" lon="11.293514256221076"><ele>686.6</ele><time>2026-05-02T13:03:09.001Z</time></trkpt><trkpt lat="45.98078929030629" lon="11.293357551247174"><ele>688.2</ele><time>2026-05-02T13:03:10.001Z</time></trkpt><trkpt lat="45.98074504387273" lon="11.29321218854051"><ele>689.8</ele><time>2026-05-02T13:03:11.001Z</time></trkpt><trkpt lat="45.98069235040255" lon="11.293091552900533"><ele>691.4</ele><time>2026-05-02T13:03:12.001Z</time></trkpt><trkpt lat="45.98064913265095" lon="11.292993544286494"><ele>693.0</ele><time>2026-05-02T13:03:13.001Z</time></trkpt><trkpt lat="45.9806160076827" lon="11.292913213129678"><ele>693.0</ele><time>2026-05-02T13:03:14.001Z</time></trkpt><trkpt lat="45.98051846506697" lon="11.292831475930337"><ele>693.0</ele><time>2026-05-02T13:03:16.001Z</time></trkpt><trkpt lat="45.98046275240952" lon="11.29287411076507"><ele>693.0</ele><time>2026-05-02T13:03:17.001Z</time></trkpt><trkpt lat="45.98043175637343" lon="11.292968726298781"><ele>693.0</ele><time>2026-05-02T13:03:18.001Z</time></trkpt><trkpt lat="45.98044592189823" lon="11.29308189651261"><ele>693.0</ele><time>2026-05-02T13:03:19.001Z</time></trkpt><trkpt lat="45.98049422408491" lon="11.293201021297866"><ele>693.0</ele><time>2026-05-02T13:03:20.001Z</time></trkpt><trkpt lat="45.98055155142853" lon="11.2933542815028"><ele>694.5</ele><time>2026-05-02T13:03:21.001Z</time></trkpt><trkpt lat="45.98059886813297" lon="11.293528065527532"><ele>696.0</ele><time>2026-05-02T13:03:22.001Z</time></trkpt><trkpt lat="45.980602286297156" lon="11.29373879288323"><ele>697.5</ele><time>2026-05-02T13:03:23.001Z</time></trkpt><trkpt lat="45.980626054776664" lon="11.293935941533782"><ele>699.0</ele><time>2026-05-02T13:03:24.001Z</time></trkpt><trkpt lat="45.98066439637697" lon="11.294111711633915"><ele>695.5</ele><time>2026-05-02T13:03:25.001Z</time></trkpt><trkpt lat="45.980739784936475" lon="11.294280911631429"><ele>692.0</ele><time>2026-05-02T13:03:26.001Z</time></trkpt><trkpt lat="45.98084045412648" lon="11.294438601805792"><ele>688.5</ele><time>2026-05-02T13:03:27.001Z</time></trkpt><trkpt lat="45.98093014049561" lon="11.29457122855691"><ele>685.0</ele><time>2026-05-02T13:03:28.001Z</time></trkpt><trkpt lat="45.98097100154342" lon="11.294709791963536"><ele>686.5</ele><time>2026-05-02T13:03:29.001Z</time></trkpt><trkpt lat="45.98101583646222" lon="11.294840271768903"><ele>688.0</ele><time>2026-05-02T13:03:30.001Z</time></trkpt><trkpt lat="45.981011022794235" lon="11.29499980933353"><ele>689.5</ele><time>2026-05-02T13:03:31.001Z</time></trkpt><trkpt lat="45.98100236532478" lon="11.295175867841678"><ele>691.0</ele><time>2026-05-02T13:03:32.001Z</time></trkpt><trkpt lat="45.98100365359511" lon="11.29537430830346"><ele>691.0</ele><time>2026-05-02T13:03:33Z</time></trkpt><trkpt lat="45.980990799848286" lon="11.295579017304954"><ele>691.0</ele><time>2026-05-02T13:03:34Z</time></trkpt><trkpt lat="45.98097966159574" lon="11.295773986571051"><ele>691.0</ele><time>2026-05-02T13:03:35Z</time></trkpt><trkpt lat="45.98097621531587" lon="11.295963394489439"><ele>691.0</ele><time>2026-05-02T13:03:36Z</time></trkpt><trkpt lat="45.980970627190594" lon="11.29614725473231"><ele>693.0</ele><time>2026-05-02T13:03:37Z</time></trkpt><trkpt lat="45.98097670038427" lon="11.296322232646292"><ele>695.0</ele><time>2026-05-02T13:03:38Z</time></trkpt><trkpt lat="45.980986652834474" lon="11.296488005466035"><ele>697.0</ele><time>2026-05-02T13:03:39Z</time></trkpt><trkpt lat="45.98099903948138" lon="11.296649594303728"><ele>699.0</ele><time>2026-05-02T13:03:40Z</time></trkpt><trkpt lat="45.981012101947705" lon="11.29681796604141"><ele>700.6666666666666</ele><time>2026-05-02T13:03:41Z</time></trkpt><trkpt lat="45.9810214143857" lon="11.296983522773553"><ele>702.3333333333334</ele><time>2026-05-02T13:03:42Z</time></trkpt><trkpt lat="45.981027820371025" lon="11.297126697132201"><ele>704.0</ele><time>2026-05-02T13:03:43Z</time></trkpt><trkpt lat="45.981034873110914" lon="11.297239338450751"><ele>705.6666666666667</ele><time>2026-05-02T13:03:44Z</time></trkpt><trkpt lat="45.98103638238957" lon="11.297335898423723"><ele>707.3333333333334</ele><time>2026-05-02T13:03:45Z</time></trkpt><trkpt lat="45.981034390314626" lon="11.297434573647713"><ele>709.0</ele><time>2026-05-02T13:03:46Z</time></trkpt><trkpt lat="45.98101169051775" lon="11.297541959779238"><ele>710.75</ele><time>2026-05-02T13:03:47Z</time></trkpt><trkpt lat="45.98096993091086" lon="11.297663389919485"><ele>712.5</ele><time>2026-05-02T13:03:48Z</time></trkpt><trkpt lat="45.98091248107822" lon="11.297800605100244"><ele>714.25</ele><time>2026-05-02T13:03:49Z</time></trkpt><trkpt lat="45.98084342906028" lon="11.29795716075598"><ele>716.0</ele><time>2026-05-02T13:03:50Z</time></trkpt><trkpt lat="45.980774333880476" lon="11.298128613651006"><ele>723.75</ele><time>2026-05-02T13:03:51Z</time></trkpt><trkpt lat="45.980710524265284" lon="11.29829442034454"><ele>731.5</ele><time>2026-05-02T13:03:52Z</time></trkpt><trkpt lat="45.98065018309459" lon="11.298449477338774"><ele>739.25</ele><time>2026-05-02T13:03:53Z</time></trkpt><trkpt lat="45.980592758918185" lon="11.29859541508138"><ele>747.0</ele><time>2026-05-02T13:03:54Z</time></trkpt><trkpt lat="45.980535569535014" lon="11.29873201499716"><ele>747.0</ele><time>2026-05-02T13:03:55Z</time></trkpt><trkpt lat="45.980477975398244" lon="11.298859632248895"><ele>747.0</ele><time>2026-05-02T13:03:56Z</time></trkpt><trkpt lat="45.98042542293924" lon="11.298983408087604"><ele>747.0</ele><time>2026-05-02T13:03:57Z</time></trkpt><trkpt lat="45.980382733521694" lon="11.299112484267207"><ele>747.0</ele><time>2026-05-02T13:03:58Z</time></trkpt><trkpt lat="45.98035761442234" lon="11.29924337432718"><ele>747.0</ele><time>2026-05-02T13:03:59Z</time></trkpt><trkpt lat="45.980356109128444" lon="11.299373798269828"><ele>744.6</ele><time>2026-05-02T13:04:00Z</time></trkpt><trkpt lat="45.98035815753195" lon="11.299493450539927"><ele>742.2</ele><time>2026-05-02T13:04:01Z</time></trkpt><trkpt lat="45.980360823669656" lon="11.299657203441283"><ele>739.8</ele><time>2026-05-02T13:04:03Z</time></trkpt><trkpt lat="45.980379045768096" lon="11.299796735730503"><ele>737.4</ele><time>2026-05-02T13:04:05Z</time></trkpt><trkpt lat="45.980354410466646" lon="11.299926607945693"><ele>735.0</ele><time>2026-05-02T13:04:07Z</time></trkpt><trkpt lat="45.98025491339005" lon="11.299925071579331"><ele>735.0</ele><time>2026-05-02T13:04:09Z</time></trkpt><trkpt lat="45.98023931005066" lon="11.299736225794652"><ele>735.0</ele><time>2026-05-02T13:04:11Z</time></trkpt><trkpt lat="45.98023554645227" lon="11.299637112416164"><ele>735.0</ele><time>2026-05-02T13:04:12Z</time></trkpt><trkpt lat="45.980225179234516" lon="11.299513743848951"><ele>735.0</ele><time>2026-05-02T13:04:13Z</time></trkpt><trkpt lat="45.980208442574074" lon="11.299297390016395"><ele>735.0</ele><time>2026-05-02T13:04:14Z</time></trkpt><trkpt lat="45.98022355918079" lon="11.299092330304743"><ele>738.0</ele><time>2026-05-02T13:04:15Z</time></trkpt><trkpt lat="45.98026459945814" lon="11.29889890227441"><ele>741.0</ele><time>2026-05-02T13:04:16Z</time></trkpt><trkpt lat="45.98031196151038" lon="11.298705323178314"><ele>744.0</ele><time>2026-05-02T13:04:17Z</time></trkpt><trkpt lat="45.98035428536003" lon="11.298522691212979"><ele>747.0</ele><time>2026-05-02T13:04:18Z</time></trkpt><trkpt lat="45.980401837943845" lon="11.298364490730343"><ele>747.0</ele><time>2026-05-02T13:04:19Z</time></trkpt><trkpt lat="45.98043110237205" lon="11.2982262076991"><ele>747.0</ele><time>2026-05-02T13:04:20Z</time></trkpt><trkpt lat="45.98045669083776" lon="11.298097219353096"><ele>747.0</ele><time>2026-05-02T13:04:21Z</time></trkpt><trkpt lat="45.9804901187207" lon="11.29796733037301"><ele>747.0</ele><time>2026-05-02T13:04:22Z</time></trkpt><trkpt lat="45.98051923605482" lon="11.297847010881878"><ele>747.0</ele><time>2026-05-02T13:04:23Z</time></trkpt><trkpt lat="45.98053326545678" lon="11.297724609374832"><ele>749.0</ele><time>2026-05-02T13:04:24Z</time></trkpt><trkpt lat="45.98052087128789" lon="11.297590754566803"><ele>751.0</ele><time>2026-05-02T13:04:25Z</time></trkpt><trkpt lat="45.980484301827076" lon="11.297441406986618"><ele>753.0</ele><time>2026-05-02T13:04:26Z</time></trkpt><trkpt lat="45.98042819419059" lon="11.297284400901994"><ele>755.0</ele><time>2026-05-02T13:04:27Z</time></trkpt><trkpt lat="45.980365751420216" lon="11.297125645388341"><ele>755.0</ele><time>2026-05-02T13:04:28Z</time></trkpt><trkpt lat="45.980314461035626" lon="11.296969395571193"><ele>755.0</ele><time>2026-05-02T13:04:29Z</time></trkpt><trkpt lat="45.98026490583541" lon="11.296805207960135"><ele>755.0</ele><time>2026-05-02T13:04:30Z</time></trkpt><trkpt lat="45.98022332868606" lon="11.296640742009906"><ele>755.0</ele><time>2026-05-02T13:04:31Z</time></trkpt><trkpt lat="45.980179869336794" lon="11.296470211041372"><ele>753.25</ele><time>2026-05-02T13:04:32Z</time></trkpt><trkpt lat="45.98014023997036" lon="11.29629697081055"><ele>751.5</ele><time>2026-05-02T13:04:33Z</time></trkpt><trkpt lat="45.980112444749174" lon="11.296122442020474"><ele>749.75</ele><time>2026-05-02T13:04:34Z</time></trkpt><trkpt lat="45.98008433515849" lon="11.2959535834065"><ele>748.0</ele><time>2026-05-02T13:04:35Z</time></trkpt><trkpt lat="45.98005305847584" lon="11.295789803732127"><ele>748.0</ele><time>2026-05-02T13:04:36Z</time></trkpt><trkpt lat="45.98002302909302" lon="11.2956341859882"><ele>748.0</ele><time>2026-05-02T13:04:37Z</time></trkpt><trkpt lat="45.97998744913285" lon="11.295487817646102"><ele>748.0</ele><time>2026-05-02T13:04:38Z</time></trkpt><trkpt lat="45.97994775898477" lon="11.295351823239471"><ele>748.0</ele><time>2026-05-02T13:04:39Z</time></trkpt><trkpt lat="45.979887726633365" lon="11.295220214005415"><ele>748.0</ele><time>2026-05-02T13:04:40Z</time></trkpt><trkpt lat="45.979800537462346" lon="11.295092357994212"><ele>754.0</ele><time>2026-05-02T13:04:41Z</time></trkpt><trkpt lat="45.97971284754409" lon="11.29493299818403"><ele>760.0</ele><time>2026-05-02T13:04:42Z</time></trkpt><trkpt lat="45.979621102535155" lon="11.294772853328546"><ele>766.0</ele><time>2026-05-02T13:04:43Z</time></trkpt><trkpt lat="45.97953320600675" lon="11.294619490656945"><ele>772.0</ele><time>2026-05-02T13:04:44Z</time></trkpt><trkpt lat="45.97944646326417" lon="11.294472065964962"><ele>772.0</ele><time>2026-05-02T13:04:45Z</time></trkpt><trkpt lat="45.979364583970764" lon="11.29433373963898"><ele>772.0</ele><time>2026-05-02T13:04:46Z</time></trkpt><trkpt lat="45.97928550823962" lon="11.294203038830393"><ele>772.0</ele><time>2026-05-02T13:04:47Z</time></trkpt><trkpt lat="45.97921364530234" lon="11.294089457492843"><ele>772.0</ele><time>2026-05-02T13:04:48Z</time></trkpt><trkpt lat="45.97915868756805" lon="11.29399192944915"><ele>772.0</ele><time>2026-05-02T13:04:49Z</time></trkpt><trkpt lat="45.979115049914576" lon="11.293878532194144"><ele>781.6</ele><time>2026-05-02T13:04:50Z</time></trkpt><trkpt lat="45.979081353343645" lon="11.293749252184266"><ele>791.2</ele><time>2026-05-02T13:04:51Z</time></trkpt><trkpt lat="45.97905979498646" lon="11.293605078174506"><ele>800.8</ele><time>2026-05-02T13:04:52Z</time></trkpt><trkpt lat="45.97905549340658" lon="11.293450589219965"><ele>810.4</ele><time>2026-05-02T13:04:53Z</time></trkpt><trkpt lat="45.97907431667031" lon="11.293276257494295"><ele>820.0</ele><time>2026-05-02T13:04:54Z</time></trkpt><trkpt lat="45.979098336720654" lon="11.293083572336284"><ele>821.0</ele><time>2026-05-02T13:04:55Z</time></trkpt><trkpt lat="45.97912068927369" lon="11.292873946399807"><ele>822.0</ele><time>2026-05-02T13:04:56.001Z</time></trkpt><trkpt lat="45.979136904762626" lon="11.292673396804174"><ele>823.0</ele><time>2026-05-02T13:04:57.001Z</time></trkpt><trkpt lat="45.97914727518108" lon="11.29248540258187"><ele>824.0</ele><time>2026-05-02T13:04:58.001Z</time></trkpt><trkpt lat="45.979152860664584" lon="11.292308653403976"><ele>823.4000000000001</ele><time>2026-05-02T13:04:59.001Z</time></trkpt><trkpt lat="45.97916129480633" lon="11.292149812432292"><ele>822.8</ele><time>2026-05-02T13:05:00.001Z</time></trkpt><trkpt lat="45.97916163847772" lon="11.292004822063053"><ele>822.2</ele><time>2026-05-02T13:05:01.001Z</time></trkpt><trkpt lat="45.9791412232038" lon="11.291867693367964"><ele>821.5999999999999</ele><time>2026-05-02T13:05:02.001Z</time></trkpt><trkpt lat="45.97909090817721" lon="11.291738124515879"><ele>821.0</ele><time>2026-05-02T13:05:03.001Z</time></trkpt><trkpt lat="45.9790145549483" lon="11.29160249532667"><ele>821.0</ele><time>2026-05-02T13:05:04.001Z</time></trkpt><trkpt lat="45.978922704950634" lon="11.291459289746488"><ele>821.0</ele><time>2026-05-02T13:05:05.001Z</time></trkpt><trkpt lat="45.9788241937376" lon="11.291321734861418"><ele>821.0</ele><time>2026-05-02T13:05:06.001Z</time></trkpt><trkpt lat="45.978732056234854" lon="11.291195902665415"><ele>821.0</ele><time>2026-05-02T13:05:07.001Z</time></trkpt><trkpt lat="45.97865518362016" lon="11.29108140708716"><ele>820.8333333333334</ele><time>2026-05-02T13:05:08.001Z</time></trkpt><trkpt lat="45.97859920238249" lon="11.290979744848984"><ele>820.6666666666667</ele><time>2026-05-02T13:05:09.001Z</time></trkpt><trkpt lat="45.97856537746803" lon="11.290880062486282"><ele>820.5</ele><time>2026-05-02T13:05:10.001Z</time></trkpt><trkpt lat="45.97855377805794" lon="11.29077862036401"><ele>820.3333333333333</ele><time>2026-05-02T13:05:11.001Z</time></trkpt><trkpt lat="45.97855872834306" lon="11.290663308128856"><ele>820.1666666666666</ele><time>2026-05-02T13:05:12.001Z</time></trkpt><trkpt lat="45.97857514545324" lon="11.290518869415482"><ele>820.0</ele><time>2026-05-02T13:05:13.001Z</time></trkpt><trkpt lat="45.978579020640815" lon="11.290365481805543"><ele>820.0</ele><time>2026-05-02T13:05:14.001Z</time></trkpt><trkpt lat="45.97856929819747" lon="11.290211732335276"><ele>820.0</ele><time>2026-05-02T13:05:15.001Z</time></trkpt><trkpt lat="45.978584977117926" lon="11.29006273856393"><ele>820.0</ele><time>2026-05-02T13:05:16.001Z</time></trkpt><trkpt lat="45.97862896229403" lon="11.289929103375579"><ele>820.0</ele><time>2026-05-02T13:05:17.001Z</time></trkpt><trkpt lat="45.97868458523534" lon="11.289800337334281"><ele>820.0</ele><time>2026-05-02T13:05:18.001Z</time></trkpt><trkpt lat="45.97874530567249" lon="11.289677041067375"><ele>821.4999999999999</ele><time>2026-05-02T13:05:19.001Z</time></trkpt><trkpt lat="45.97880531655758" lon="11.289581162892357"><ele>823.0</ele><time>2026-05-02T13:05:20.001Z</time></trkpt><trkpt lat="45.97886893322948" lon="11.289503134851747"><ele>824.5</ele><time>2026-05-02T13:05:21.001Z</time></trkpt><trkpt lat="45.97892122545467" lon="11.28942685553121"><ele>826.0</ele><time>2026-05-02T13:05:22.001Z</time></trkpt><trkpt lat="45.9789465292743" lon="11.289323438032698"><ele>827.4999999999999</ele><time>2026-05-02T13:05:23.001Z</time></trkpt><trkpt lat="45.97894725471736" lon="11.289207409961188"><ele>829.0</ele><time>2026-05-02T13:05:24.001Z</time></trkpt><trkpt lat="45.97893065741609" lon="11.289083887653598"><ele>828.9999999999999</ele><time>2026-05-02T13:05:25.001Z</time></trkpt><trkpt lat="45.978900801520595" lon="11.288969730447304"><ele>829.0</ele><time>2026-05-02T13:05:26.001Z</time></trkpt><trkpt lat="45.97885188668033" lon="11.288888473609537"><ele>829.0</ele><time>2026-05-02T13:05:27.001Z</time></trkpt><trkpt lat="45.97879892946169" lon="11.288833949331499"><ele>829.0</ele><time>2026-05-02T13:05:28.001Z</time></trkpt><trkpt lat="45.97871950315222" lon="11.288845114638754"><ele>828.9999999999999</ele><time>2026-05-02T13:05:29.001Z</time></trkpt><trkpt lat="45.978642436776305" lon="11.28895581246535"><ele>829.0</ele><time>2026-05-02T13:05:30.001Z</time></trkpt><trkpt lat="45.97854435536657" lon="11.289009960211674"><ele>828.9999999999999</ele><time>2026-05-02T13:05:31.001Z</time></trkpt><trkpt lat="45.97845486435908" lon="11.289033852583328"><ele>829.0</ele><time>2026-05-02T13:05:32.001Z</time></trkpt><trkpt lat="45.978386251202075" lon="11.28903383005585"><ele>829.0</ele><time>2026-05-02T13:05:33.001Z</time></trkpt><trkpt lat="45.97829723011133" lon="11.289043053158569"><ele>829.0</ele><time>2026-05-02T13:05:35.001Z</time></trkpt><trkpt lat="45.97821972603676" lon="11.289034560465025"><ele>828.9999999999999</ele><time>2026-05-02T13:05:37.001Z</time></trkpt><trkpt lat="45.978157786403216" lon="11.289054639956058"><ele>829.0</ele><time>2026-05-02T13:05:38.001Z</time></trkpt><trkpt lat="45.97808850014962" lon="11.289083100410886"><ele>833.4285714285714</ele><time>2026-05-02T13:05:39Z</time></trkpt><trkpt lat="45.97801144306381" lon="11.289107398594071"><ele>837.8571428571429</ele><time>2026-05-02T13:05:40Z</time></trkpt><trkpt lat="45.9779347609691" lon="11.289122522681392"><ele>842.2857142857142</ele><time>2026-05-02T13:05:41Z</time></trkpt><trkpt lat="45.97786479751903" lon="11.289124015465598"><ele>846.7142857142858</ele><time>2026-05-02T13:05:42Z</time></trkpt><trkpt lat="45.97780035396188" lon="11.289121700041628"><ele>851.1428571428572</ele><time>2026-05-02T13:05:43Z</time></trkpt><trkpt lat="45.97773546089802" lon="11.28911960242076"><ele>855.5714285714286</ele><time>2026-05-02T13:05:44Z</time></trkpt><trkpt lat="45.97767262010836" lon="11.289085922000103"><ele>860.0</ele><time>2026-05-02T13:05:45Z</time></trkpt><trkpt lat="45.977613863495534" lon="11.28902775107807"><ele>860.0000000000001</ele><time>2026-05-02T13:05:46Z</time></trkpt><trkpt lat="45.97755698787149" lon="11.288973537972359"><ele>860.0</ele><time>2026-05-02T13:05:47Z</time></trkpt><trkpt lat="45.977496356958795" lon="11.288921186026275"><ele>860.0</ele><time>2026-05-02T13:05:48Z</time></trkpt><trkpt lat="45.977439759360884" lon="11.288855750105492"><ele>860.0</ele><time>2026-05-02T13:05:49Z</time></trkpt><trkpt lat="45.97737469617847" lon="11.288823022329899"><ele>860.0000000000001</ele><time>2026-05-02T13:05:50Z</time></trkpt><trkpt lat="45.977278393343234" lon="11.288751702234538"><ele>860.0</ele><time>2026-05-02T13:05:52Z</time></trkpt><trkpt lat="45.977240206208066" lon="11.288642389074242"><ele>858.0000000000001</ele><time>2026-05-02T13:05:54Z</time></trkpt><trkpt lat="45.977241701742415" lon="11.28848652592436"><ele>856.0</ele><time>2026-05-02T13:05:56Z</time></trkpt><trkpt lat="45.977256816621846" lon="11.288306819403513"><ele>854.0</ele><time>2026-05-02T13:05:58Z</time></trkpt><trkpt lat="45.97725594961912" lon="11.288207458405099"><ele>852.0</ele><time>2026-05-02T13:05:59Z</time></trkpt><trkpt lat="45.977250652284646" lon="11.288114569270276"><ele>850.0000000000001</ele><time>2026-05-02T13:06:00Z</time></trkpt><trkpt lat="45.97725238888371" lon="11.28802246302706"><ele>848.0</ele><time>2026-05-02T13:06:02Z</time></trkpt><trkpt lat="45.9771793166165" lon="11.287906689971098"><ele>841.8333333333334</ele><time>2026-05-02T13:06:05Z</time></trkpt><trkpt lat="45.977097331246" lon="11.287851275352557"><ele>835.6666666666667</ele><time>2026-05-02T13:06:06Z</time></trkpt><trkpt lat="45.97702940257841" lon="11.287804933991296"><ele>829.5</ele><time>2026-05-02T13:06:07Z</time></trkpt><trkpt lat="45.97696443252717" lon="11.287744034080326"><ele>823.3333333333333</ele><time>2026-05-02T13:06:08Z</time></trkpt><trkpt lat="45.97690554989345" lon="11.287677797422454"><ele>817.1666666666666</ele><time>2026-05-02T13:06:09Z</time></trkpt><trkpt lat="45.97684341887035" lon="11.287612094857108"><ele>811.0</ele><time>2026-05-02T13:06:10Z</time></trkpt><trkpt lat="45.976783714660634" lon="11.287543601090372"><ele>811.0</ele><time>2026-05-02T13:06:11Z</time></trkpt><trkpt lat="45.97674364377451" lon="11.28746972852506"><ele>811.0</ele><time>2026-05-02T13:06:12Z</time></trkpt><trkpt lat="45.97671213122176" lon="11.287389141662775"><ele>811.0</ele><time>2026-05-02T13:06:13Z</time></trkpt><trkpt lat="45.97668032534508" lon="11.287299323965556"><ele>811.0</ele><time>2026-05-02T13:06:14Z</time></trkpt><trkpt lat="45.976648337671364" lon="11.287208992891548"><ele>811.0</ele><time>2026-05-02T13:06:15Z</time></trkpt><trkpt lat="45.97661261418445" lon="11.287115262641661"><ele>811.0</ele><time>2026-05-02T13:06:16Z</time></trkpt><trkpt lat="45.976571654569305" lon="11.287032176209431"><ele>811.0</ele><time>2026-05-02T13:06:17Z</time></trkpt><trkpt lat="45.976526063895236" lon="11.28696054855227"><ele>817.8</ele><time>2026-05-02T13:06:18Z</time></trkpt><trkpt lat="45.9764655465585" lon="11.286850103840225"><ele>824.5999999999999</ele><time>2026-05-02T13:06:20Z</time></trkpt><trkpt lat="45.976438910117274" lon="11.286720416437173"><ele>831.4</ele><time>2026-05-02T13:06:22Z</time></trkpt><trkpt lat="45.976393304631934" lon="11.286602321279798"><ele>838.2</ele><time>2026-05-02T13:06:24Z</time></trkpt><trkpt lat="45.97632538351691" lon="11.286487397075993"><ele>845.0</ele><time>2026-05-02T13:06:26Z</time></trkpt><trkpt lat="45.976202911913084" lon="11.28648230070553"><ele>845.0</ele><time>2026-05-02T13:06:28Z</time></trkpt><trkpt lat="45.97610306433166" lon="11.286569450947288"><ele>845.0</ele><time>2026-05-02T13:06:30Z</time></trkpt><trkpt lat="45.976021628560126" lon="11.286639454058504"><ele>845.0</ele><time>2026-05-02T13:06:32Z</time></trkpt><trkpt lat="45.97592075795818" lon="11.28672118088955"><ele>845.0</ele><time>2026-05-02T13:06:34Z</time></trkpt><trkpt lat="45.97584107357136" lon="11.286779907427752"><ele>845.0</ele><time>2026-05-02T13:06:36Z</time></trkpt><trkpt lat="45.97577415538343" lon="11.28679151270892"><ele>852.8</ele><time>2026-05-02T13:06:39Z</time></trkpt><trkpt lat="45.97563940811991" lon="11.286760455851109"><ele>860.6</ele><time>2026-05-02T13:06:41Z</time></trkpt><trkpt lat="45.97554533962562" lon="11.286740318481955"><ele>868.4000000000001</ele><time>2026-05-02T13:06:42Z</time></trkpt><trkpt lat="45.97545781187943" lon="11.286802195866093"><ele>876.2</ele><time>2026-05-02T13:06:43Z</time></trkpt><trkpt lat="45.975397536516766" lon="11.286862523990202"><ele>884.0</ele><time>2026-05-02T13:06:44Z</time></trkpt><trkpt lat="45.975301696611105" lon="11.286980002723451"><ele>884.0000000000001</ele><time>2026-05-02T13:06:46Z</time></trkpt><trkpt lat="45.97527365469171" lon="11.287066060785483"><ele>884.0</ele><time>2026-05-02T13:06:47Z</time></trkpt><trkpt lat="45.97525750463603" lon="11.287163611632796"><ele>884.0</ele><time>2026-05-02T13:06:48Z</time></trkpt><trkpt lat="45.97522866210672" lon="11.28730424989685"><ele>884.0</ele><time>2026-05-02T13:06:50.001Z</time></trkpt><trkpt lat="45.97517001207773" lon="11.287340060577646"><ele>884.0000000000001</ele><time>2026-05-02T13:06:51.001Z</time></trkpt><trkpt lat="45.9750927802398" lon="11.287324803544319"><ele>884.0</ele><time>2026-05-02T13:06:52.001Z</time></trkpt><trkpt lat="45.97500715208218" lon="11.287323418332138"><ele>887.5000000000001</ele><time>2026-05-02T13:06:53.001Z</time></trkpt><trkpt lat="45.974905165137905" lon="11.287379076528453"><ele>891.0</ele><time>2026-05-02T13:06:54.001Z</time></trkpt><trkpt lat="45.97483245539492" lon="11.28746100873758"><ele>894.5</ele><time>2026-05-02T13:06:55.001Z</time></trkpt><trkpt lat="45.974775036836434" lon="11.287527573833891"><ele>898.0</ele><time>2026-05-02T13:06:56.001Z</time></trkpt><trkpt lat="45.97471670835589" lon="11.287589999944165"><ele>901.5000000000001</ele><time>2026-05-02T13:06:57.001Z</time></trkpt><trkpt lat="45.97462849415162" lon="11.287602865135565"><ele>905.0</ele><time>2026-05-02T13:06:58.001Z</time></trkpt><trkpt lat="45.97454104962885" lon="11.287597294162676"><ele>905.0</ele><time>2026-05-02T13:06:59.001Z</time></trkpt><trkpt lat="45.974456435108884" lon="11.287598382951996"><ele>904.9999999999999</ele><time>2026-05-02T13:07:00.001Z</time></trkpt><trkpt lat="45.97437800742061" lon="11.287595492095791"><ele>905.0</ele><time>2026-05-02T13:07:01.001Z</time></trkpt><trkpt lat="45.97430253295932" lon="11.287591561467888"><ele>905.0</ele><time>2026-05-02T13:07:02.001Z</time></trkpt><trkpt lat="45.97423009543334" lon="11.287586160104658"><ele>904.9999999999999</ele><time>2026-05-02T13:07:03.001Z</time></trkpt><trkpt lat="45.97416360631893" lon="11.28758160643661"><ele>905.0</ele><time>2026-05-02T13:07:04.001Z</time></trkpt><trkpt lat="45.97409919744966" lon="11.287574961064895"><ele>905.0</ele><time>2026-05-02T13:07:05.001Z</time></trkpt><trkpt lat="45.97400474371016" lon="11.287548293803493"><ele>904.8333333333334</ele><time>2026-05-02T13:07:07.001Z</time></trkpt><trkpt lat="45.97392734563068" lon="11.287504618938867"><ele>904.6666666666667</ele><time>2026-05-02T13:07:09.001Z</time></trkpt><trkpt lat="45.973840803165196" lon="11.287550539380398"><ele>904.5</ele><time>2026-05-02T13:07:11.001Z</time></trkpt><trkpt lat="45.97383403720535" lon="11.287695602424245"><ele>904.3333333333333</ele><time>2026-05-02T13:07:13.001Z</time></trkpt><trkpt lat="45.973928491139674" lon="11.287752536576411"><ele>904.1666666666666</ele><time>2026-05-02T13:07:15.001Z</time></trkpt><trkpt lat="45.97399842699417" lon="11.287745685312109"><ele>904.0</ele><time>2026-05-02T13:07:16.001Z</time></trkpt><trkpt lat="45.9740762895022" lon="11.28774190404283"><ele>904.0</ele><time>2026-05-02T13:07:17.001Z</time></trkpt><trkpt lat="45.974161369070025" lon="11.287768026693744"><ele>904.0</ele><time>2026-05-02T13:07:18.001Z</time></trkpt><trkpt lat="45.974266122917896" lon="11.287823775774003"><ele>904.0</ele><time>2026-05-02T13:07:19.001Z</time></trkpt><trkpt lat="45.97439678005363" lon="11.28789309648544"><ele>904.0</ele><time>2026-05-02T13:07:20.001Z</time></trkpt><trkpt lat="45.974526851480064" lon="11.287963441670001"><ele>904.2</ele><time>2026-05-02T13:07:21.001Z</time></trkpt><trkpt lat="45.974639978293006" lon="11.288024375476374"><ele>904.4000000000001</ele><time>2026-05-02T13:07:22.001Z</time></trkpt><trkpt lat="45.9747475478216" lon="11.28807856218256"><ele>904.6</ele><time>2026-05-02T13:07:23.001Z</time></trkpt><trkpt lat="45.974837748882436" lon="11.288090505934862"><ele>904.8</ele><time>2026-05-02T13:07:24.001Z</time></trkpt><trkpt lat="45.974914638328094" lon="11.288070255092249"><ele>905.0</ele><time>2026-05-02T13:07:25.001Z</time></trkpt><trkpt lat="45.974983711153726" lon="11.288024503787138"><ele>909.0000000000001</ele><time>2026-05-02T13:07:26.001Z</time></trkpt><trkpt lat="45.97505063617479" lon="11.28797445734517"><ele>913.0</ele><time>2026-05-02T13:07:27.001Z</time></trkpt><trkpt lat="45.975123163662666" lon="11.287918989404346"><ele>917.0</ele><time>2026-05-02T13:07:28.001Z</time></trkpt><trkpt lat="45.97519592726455" lon="11.287904503739522"><ele>921.0</ele><time>2026-05-02T13:07:29.001Z</time></trkpt><trkpt lat="45.97527828233576" lon="11.28792746898972"><ele>925.0000000000001</ele><time>2026-05-02T13:07:30.001Z</time></trkpt><trkpt lat="45.97535773112317" lon="11.287964935698318"><ele>929.0</ele><time>2026-05-02T13:07:31.001Z</time></trkpt><trkpt lat="45.97543219483671" lon="11.287986241972792"><ele>929.0000000000001</ele><time>2026-05-02T13:07:32.001Z</time></trkpt><trkpt lat="45.97551298840601" lon="11.287962519319759"><ele>929.0</ele><time>2026-05-02T13:07:33.001Z</time></trkpt><trkpt lat="45.97559233204917" lon="11.287898843953768"><ele>929.0</ele><time>2026-05-02T13:07:34.001Z</time></trkpt><trkpt lat="45.97567028489686" lon="11.287818049776542"><ele>929.0</ele><time>2026-05-02T13:07:35.001Z</time></trkpt><trkpt lat="45.975736316088216" lon="11.287727299648985"><ele>929.0000000000001</ele><time>2026-05-02T13:07:36.001Z</time></trkpt><trkpt lat="45.9757838523463" lon="11.287638055348664"><ele>929.0</ele><time>2026-05-02T13:07:37.001Z</time></trkpt><trkpt lat="45.975870836580825" lon="11.287521178057519"><ele>924.8333333333334</ele><time>2026-05-02T13:07:39.001Z</time></trkpt><trkpt lat="45.975916418988994" lon="11.287457962249558"><ele>920.6666666666667</ele><time>2026-05-02T13:07:40.001Z</time></trkpt><trkpt lat="45.97598822505077" lon="11.287437731010865"><ele>916.5</ele><time>2026-05-02T13:07:41.001Z</time></trkpt><trkpt lat="45.97605562552692" lon="11.287451001931245"><ele>912.3333333333333</ele><time>2026-05-02T13:07:42.001Z</time></trkpt><trkpt lat="45.97613586161977" lon="11.287444407985276"><ele>908.1666666666666</ele><time>2026-05-02T13:07:44.001Z</time></trkpt><trkpt lat="45.97621268788837" lon="11.287485246031801"><ele>904.0</ele><time>2026-05-02T13:07:47Z</time></trkpt><trkpt lat="45.97613605605436" lon="11.287551226481302"><ele>903.9999999999999</ele><time>2026-05-02T13:07:49Z</time></trkpt><trkpt lat="45.97606683977278" lon="11.287518921044054"><ele>904.0</ele><time>2026-05-02T13:07:50Z</time></trkpt><trkpt lat="45.97599701820608" lon="11.287568336322604"><ele>904.0</ele><time>2026-05-02T13:07:51Z</time></trkpt><trkpt lat="45.97596337717236" lon="11.287657121715972"><ele>904.0</ele><time>2026-05-02T13:07:52Z</time></trkpt><trkpt lat="45.97592566516992" lon="11.287731878792039"><ele>903.9999999999999</ele><time>2026-05-02T13:07:53Z</time></trkpt><trkpt lat="45.975880044356416" lon="11.28783650082683"><ele>904.0</ele><time>2026-05-02T13:07:54Z</time></trkpt><trkpt lat="45.97582664631014" lon="11.287949299432217"><ele>909.0</ele><time>2026-05-02T13:07:55Z</time></trkpt><trkpt lat="45.97576418165213" lon="11.288069709307909"><ele>914.0000000000001</ele><time>2026-05-02T13:07:56Z</time></trkpt><trkpt lat="45.975675734933375" lon="11.288184094358032"><ele>919.0000000000001</ele><time>2026-05-02T13:07:57Z</time></trkpt><trkpt lat="45.975584306661915" lon="11.288257086293173"><ele>924.0</ele><time>2026-05-02T13:07:58Z</time></trkpt><trkpt lat="45.97549976656101" lon="11.288299467964919"><ele>929.0</ele><time>2026-05-02T13:07:59Z</time></trkpt><trkpt lat="45.97541836265537" lon="11.28833803815318"><ele>932.0000000000001</ele><time>2026-05-02T13:08:00Z</time></trkpt><trkpt lat="45.97535286961895" lon="11.288403426580757"><ele>935.0</ele><time>2026-05-02T13:08:01Z</time></trkpt><trkpt lat="45.97529753654365" lon="11.288505505481716"><ele>938.0</ele><time>2026-05-02T13:08:02Z</time></trkpt><trkpt lat="45.97524371902894" lon="11.28859973148296"><ele>941.0</ele><time>2026-05-02T13:08:03Z</time></trkpt><trkpt lat="45.97516471273633" lon="11.288653508218491"><ele>944.0000000000001</ele><time>2026-05-02T13:08:04Z</time></trkpt><trkpt lat="45.97507106528856" lon="11.288664371421802"><ele>947.0</ele><time>2026-05-02T13:08:05Z</time></trkpt><trkpt lat="45.97496847261471" lon="11.288644819133655"><ele>947.0000000000001</ele><time>2026-05-02T13:08:06Z</time></trkpt><trkpt lat="45.974864063354794" lon="11.288612794685191"><ele>947.0</ele><time>2026-05-02T13:08:07Z</time></trkpt><trkpt lat="45.974771967206095" lon="11.288572187542973"><ele>947.0</ele><time>2026-05-02T13:08:08Z</time></trkpt><trkpt lat="45.97468549153741" lon="11.288542689216762"><ele>947.0</ele><time>2026-05-02T13:08:09Z</time></trkpt><trkpt lat="45.974605638526036" lon="11.288524174783731"><ele>947.0000000000001</ele><time>2026-05-02T13:08:10Z</time></trkpt><trkpt lat="45.97452956160589" lon="11.288523754981837"><ele>947.0</ele><time>2026-05-02T13:08:11Z</time></trkpt><trkpt lat="45.974455182088036" lon="11.288536640259617"><ele>947.0</ele><time>2026-05-02T13:08:12Z</time></trkpt><trkpt lat="45.97438342896871" lon="11.2885476642789"><ele>946.9999999999999</ele><time>2026-05-02T13:08:13Z</time></trkpt><trkpt lat="45.97431508890788" lon="11.288542087244565"><ele>947.0</ele><time>2026-05-02T13:08:14Z</time></trkpt><trkpt lat="45.974246120107935" lon="11.288528560791105"><ele>947.0</ele><time>2026-05-02T13:08:15Z</time></trkpt><trkpt lat="45.97418068958376" lon="11.288509773587812"><ele>946.9999999999999</ele><time>2026-05-02T13:08:16Z</time></trkpt><trkpt lat="45.974114944277616" lon="11.288502374677797"><ele>947.0</ele><time>2026-05-02T13:08:17Z</time></trkpt><trkpt lat="45.97404043762805" lon="11.288528113240227"><ele>947.0</ele><time>2026-05-02T13:08:18Z</time></trkpt><trkpt lat="45.973955315652184" lon="11.288573769137718"><ele>948.6666666666667</ele><time>2026-05-02T13:08:19Z</time></trkpt><trkpt lat="45.97386431583736" lon="11.28861575276666"><ele>950.3333333333334</ele><time>2026-05-02T13:08:20Z</time></trkpt><trkpt lat="45.97377089647385" lon="11.288653451059615"><ele>952.0</ele><time>2026-05-02T13:08:21Z</time></trkpt><trkpt lat="45.973688035781166" lon="11.288701555699255"><ele>953.6666666666667</ele><time>2026-05-02T13:08:22Z</time></trkpt><trkpt lat="45.97361011752818" lon="11.288741575958039"><ele>955.3333333333334</ele><time>2026-05-02T13:08:23Z</time></trkpt><trkpt lat="45.97354399180187" lon="11.288806867237799"><ele>957.0</ele><time>2026-05-02T13:08:24Z</time></trkpt><trkpt lat="45.97348091423804" lon="11.288846141841175"><ele>957.0</ele><time>2026-05-02T13:08:25Z</time></trkpt><trkpt lat="45.973403170017306" lon="11.288875413279165"><ele>957.0</ele><time>2026-05-02T13:08:27Z</time></trkpt><trkpt lat="45.97333986446752" lon="11.288842586728238"><ele>957.0</ele><time>2026-05-02T13:08:32Z</time></trkpt><trkpt lat="45.9732817278621" lon="11.288878144715394"><ele>957.0</ele><time>2026-05-02T13:08:34Z</time></trkpt><trkpt lat="45.97318214894587" lon="11.288861112942172"><ele>957.0</ele><time>2026-05-02T13:08:36Z</time></trkpt><trkpt lat="45.97306992868767" lon="11.288833346567388"><ele>957.0</ele><time>2026-05-02T13:08:38Z</time></trkpt><trkpt lat="45.972961151236916" lon="11.288848984048865"><ele>956.1666666666666</ele><time>2026-05-02T13:08:40Z</time></trkpt><trkpt lat="45.97284853237438" lon="11.288881289534595"><ele>955.3333333333333</ele><time>2026-05-02T13:08:42Z</time></trkpt><trkpt lat="45.97278348251122" lon="11.288890737178708"><ele>954.5</ele><time>2026-05-02T13:08:43Z</time></trkpt><trkpt lat="45.97271063196763" lon="11.288898982090172"><ele>953.6666666666666</ele><time>2026-05-02T13:08:44Z</time></trkpt><trkpt lat="45.972640305619805" lon="11.2889045006438"><ele>952.8333333333333</ele><time>2026-05-02T13:08:45.001Z</time></trkpt><trkpt lat="45.972577258593574" lon="11.288907744442737"><ele>952.0</ele><time>2026-05-02T13:08:46.001Z</time></trkpt><trkpt lat="45.97250645581628" lon="11.288911387281725"><ele>962.6</ele><time>2026-05-02T13:08:48.001Z</time></trkpt><trkpt lat="45.97241570422488" lon="11.288952109811282"><ele>973.2</ele><time>2026-05-02T13:08:51.001Z</time></trkpt><trkpt lat="45.97243857122541" lon="11.28908880437746"><ele>983.8</ele><time>2026-05-02T13:08:53.001Z</time></trkpt><trkpt lat="45.97252555254395" lon="11.289085997436022"><ele>994.4</ele><time>2026-05-02T13:08:55.001Z</time></trkpt><trkpt lat="45.97259714143779" lon="11.289031370790589"><ele>1005.0</ele><time>2026-05-02T13:08:56.001Z</time></trkpt><trkpt lat="45.972690821049454" lon="11.289001020213048"><ele>1007.8333333333334</ele><time>2026-05-02T13:08:57.001Z</time></trkpt><trkpt lat="45.97279016298594" lon="11.288998282083845"><ele>1010.6666666666667</ele><time>2026-05-02T13:08:58.001Z</time></trkpt><trkpt lat="45.97288591304396" lon="11.289002917169066"><ele>1013.5</ele><time>2026-05-02T13:08:59.001Z</time></trkpt><trkpt lat="45.97296903637765" lon="11.28901644453721"><ele>1016.3333333333334</ele><time>2026-05-02T13:09:00.001Z</time></trkpt><trkpt lat="45.97304836311461" lon="11.289020856622175"><ele>1019.1666666666667</ele><time>2026-05-02T13:09:01.001Z</time></trkpt><trkpt lat="45.973117481765264" lon="11.289023014627928"><ele>1022.0</ele><time>2026-05-02T13:09:02.001Z</time></trkpt><trkpt lat="45.97323742471343" lon="11.289059095358253"><ele>1022.0</ele><time>2026-05-02T13:09:04.001Z</time></trkpt><trkpt lat="45.973344168738976" lon="11.289128194533513"><ele>1022.0</ele><time>2026-05-02T13:09:06.001Z</time></trkpt><trkpt lat="45.97343983354783" lon="11.289155032886406"><ele>1022.0</ele><time>2026-05-02T13:09:08.001Z</time></trkpt><trkpt lat="45.973535579774584" lon="11.28915584038664"><ele>1022.0</ele><time>2026-05-02T13:09:10.001Z</time></trkpt><trkpt lat="45.97365552023434" lon="11.289173784814524"><ele>1022.0</ele><time>2026-05-02T13:09:12.001Z</time></trkpt><trkpt lat="45.973776419361265" lon="11.289225889477903"><ele>1022.8333333333334</ele><time>2026-05-02T13:09:14.001Z</time></trkpt><trkpt lat="45.9738400363736" lon="11.289269212361582"><ele>1023.6666666666667</ele><time>2026-05-02T13:09:15.001Z</time></trkpt><trkpt lat="45.97389820961076" lon="11.289311468523644"><ele>1024.5</ele><time>2026-05-02T13:09:16.001Z</time></trkpt><trkpt lat="45.97400864510961" lon="11.289340044246625"><ele>1025.3333333333333</ele><time>2026-05-02T13:09:18.001Z</time></trkpt><trkpt lat="45.974092455103396" lon="11.289314924149128"><ele>1026.1666666666665</ele><time>2026-05-02T13:09:20.001Z</time></trkpt><trkpt lat="45.974151877855086" lon="11.289177324580425"><ele>1027.0</ele><time>2026-05-02T13:09:22.001Z</time></trkpt><trkpt lat="45.97421358159379" lon="11.289044472673929"><ele>1024.8</ele><time>2026-05-02T13:09:24.001Z</time></trkpt><trkpt lat="45.97430607120164" lon="11.288990400476486"><ele>1022.6</ele><time>2026-05-02T13:09:26.001Z</time></trkpt><trkpt lat="45.97437436360088" lon="11.289010378931513"><ele>1020.3999999999999</ele><time>2026-05-02T13:09:27.001Z</time></trkpt><trkpt lat="45.97444100682804" lon="11.289028332887328"><ele>1018.1999999999999</ele><time>2026-05-02T13:09:28.001Z</time></trkpt><trkpt lat="45.974554891981775" lon="11.289061281923294"><ele>1016.0</ele><time>2026-05-02T13:09:30.001Z</time></trkpt><trkpt lat="45.974647716135664" lon="11.289162270846195"><ele>1016.0</ele><time>2026-05-02T13:09:32.001Z</time></trkpt><trkpt lat="45.974685546565034" lon="11.2892370318762"><ele>1016.0</ele><time>2026-05-02T13:09:33.001Z</time></trkpt><trkpt lat="45.97472626570093" lon="11.28931254985506"><ele>1016.0</ele><time>2026-05-02T13:09:34.001Z</time></trkpt><trkpt lat="45.97477387995163" lon="11.289381033999227"><ele>1016.0</ele><time>2026-05-02T13:09:35.001Z</time></trkpt><trkpt lat="45.974834106055134" lon="11.28943500614778"><ele>1016.0</ele><time>2026-05-02T13:09:36.001Z</time></trkpt><trkpt lat="45.974906849952745" lon="11.28946707169936"><ele>1016.0</ele><time>2026-05-02T13:09:37.001Z</time></trkpt><trkpt lat="45.97498715786941" lon="11.289498339053528"><ele>1016.0</ele><time>2026-05-02T13:09:38.001Z</time></trkpt><trkpt lat="45.975069414611305" lon="11.28954776612138"><ele>1013.3333333333334</ele><time>2026-05-02T13:09:39.001Z</time></trkpt><trkpt lat="45.97514001137954" lon="11.28960354793455"><ele>1010.6666666666667</ele><time>2026-05-02T13:09:40.001Z</time></trkpt><trkpt lat="45.97519928210097" lon="11.289688971967644"><ele>1008.0</ele><time>2026-05-02T13:09:41.001Z</time></trkpt><trkpt lat="45.975245483421986" lon="11.289796357983862"><ele>1005.3333333333333</ele><time>2026-05-02T13:09:42.001Z</time></trkpt><trkpt lat="45.975290713740854" lon="11.28989959728219"><ele>1002.6666666666666</ele><time>2026-05-02T13:09:43.001Z</time></trkpt><trkpt lat="45.97535487012063" lon="11.289974263324273"><ele>1000.0</ele><time>2026-05-02T13:09:44.001Z</time></trkpt><trkpt lat="45.97542413180671" lon="11.290031902953327"><ele>998.3333333333333</ele><time>2026-05-02T13:09:45.001Z</time></trkpt><trkpt lat="45.97549400050147" lon="11.290081738591002"><ele>996.6666666666666</ele><time>2026-05-02T13:09:46.001Z</time></trkpt><trkpt lat="45.975566222787684" lon="11.290114254364287"><ele>995.0</ele><time>2026-05-02T13:09:47.001Z</time></trkpt><trkpt lat="45.97564484361768" lon="11.290126119842164"><ele>993.3333333333333</ele><time>2026-05-02T13:09:48.001Z</time></trkpt><trkpt lat="45.97572551236639" lon="11.290107716476747"><ele>991.6666666666666</ele><time>2026-05-02T13:09:49.001Z</time></trkpt><trkpt lat="45.97580551572453" lon="11.290070751662656"><ele>990.0</ele><time>2026-05-02T13:09:50.001Z</time></trkpt><trkpt lat="45.97588006776792" lon="11.290026447962054"><ele>990.0</ele><time>2026-05-02T13:09:51Z</time></trkpt><trkpt lat="45.975943309029155" lon="11.28998493500584"><ele>990.0</ele><time>2026-05-02T13:09:52Z</time></trkpt><trkpt lat="45.97603326902766" lon="11.289931647075013"><ele>990.0</ele><time>2026-05-02T13:09:54Z</time></trkpt><trkpt lat="45.97611375099385" lon="11.289904733186853"><ele>990.0</ele><time>2026-05-02T13:09:56Z</time></trkpt><trkpt lat="45.97619119641172" lon="11.289963146847233"><ele>990.0</ele><time>2026-05-02T13:09:58Z</time></trkpt><trkpt lat="45.97616616983311" lon="11.290100258867277"><ele>990.0</ele><time>2026-05-02T13:10:00Z</time></trkpt><trkpt lat="45.97606215934917" lon="11.290098232552696"><ele>990.0</ele><time>2026-05-02T13:10:02Z</time></trkpt><trkpt lat="45.97594297645196" lon="11.290169774848854"><ele>990.0</ele><time>2026-05-02T13:10:04Z</time></trkpt><trkpt lat="45.97587693379998" lon="11.290206994936977"><ele>990.0</ele><time>2026-05-02T13:10:05Z</time></trkpt><trkpt lat="45.97581410509249" lon="11.290254351170104"><ele>990.0</ele><time>2026-05-02T13:10:06Z</time></trkpt><trkpt lat="45.975754749191005" lon="11.290287433659302"><ele>990.0</ele><time>2026-05-02T13:10:07Z</time></trkpt><trkpt lat="45.97568814067672" lon="11.290315426425295"><ele>990.0</ele><time>2026-05-02T13:10:08Z</time></trkpt><trkpt lat="45.97561547940775" lon="11.29030871919482"><ele>998.3333333333334</ele><time>2026-05-02T13:10:09Z</time></trkpt><trkpt lat="45.97553617974336" lon="11.290264870830171"><ele>1006.6666666666667</ele><time>2026-05-02T13:10:10Z</time></trkpt><trkpt lat="45.975459286715264" lon="11.290219149450259"><ele>1015.0</ele><time>2026-05-02T13:10:11Z</time></trkpt><trkpt lat="45.975380924829395" lon="11.290179621982604"><ele>1023.3333333333334</ele><time>2026-05-02T13:10:12Z</time></trkpt><trkpt lat="45.975306148640925" lon="11.29013729809706"><ele>1031.6666666666667</ele><time>2026-05-02T13:10:13Z</time></trkpt><trkpt lat="45.97524267849354" lon="11.290089823804617"><ele>1040.0</ele><time>2026-05-02T13:10:14Z</time></trkpt><trkpt lat="45.97517965124122" lon="11.290035414481252"><ele>1040.0000000000002</ele><time>2026-05-02T13:10:15Z</time></trkpt><trkpt lat="45.975116240467" lon="11.289990962526272"><ele>1040.0</ele><time>2026-05-02T13:10:16Z</time></trkpt><trkpt lat="45.975053863073" lon="11.28996135197487"><ele>1040.0</ele><time>2026-05-02T13:10:17Z</time></trkpt><trkpt lat="45.974991567770914" lon="11.289925972120171"><ele>1040.0</ele><time>2026-05-02T13:10:18Z</time></trkpt><trkpt lat="45.97492611633787" lon="11.289923361811327"><ele>1040.0</ele><time>2026-05-02T13:10:19Z</time></trkpt><trkpt lat="45.974858908085075" lon="11.289921993438247"><ele>1040.0000000000002</ele><time>2026-05-02T13:10:20Z</time></trkpt><trkpt lat="45.97477677954965" lon="11.289922362517908"><ele>1040.0</ele><time>2026-05-02T13:10:21Z</time></trkpt><trkpt lat="45.97468817675331" lon="11.28992299609547"><ele>1044.0</ele><time>2026-05-02T13:10:22Z</time></trkpt><trkpt lat="45.97460550000083" lon="11.289934789555534"><ele>1048.0</ele><time>2026-05-02T13:10:23Z</time></trkpt><trkpt lat="45.97451990197472" lon="11.28999963990059"><ele>1052.0</ele><time>2026-05-02T13:10:24Z</time></trkpt><trkpt lat="45.974436471697196" lon="11.290160941361602"><ele>1056.0</ele><time>2026-05-02T13:10:26Z</time></trkpt><trkpt lat="45.97438179701486" lon="11.290220735096783"><ele>1060.0</ele><time>2026-05-02T13:10:27Z</time></trkpt><trkpt lat="45.974313165983084" lon="11.290232533573393"><ele>1060.0</ele><time>2026-05-02T13:10:28Z</time></trkpt><trkpt lat="45.974234900071295" lon="11.290207432824964"><ele>1060.0</ele><time>2026-05-02T13:10:29Z</time></trkpt><trkpt lat="45.9741521829477" lon="11.290197560128421"><ele>1060.0</ele><time>2026-05-02T13:10:30Z</time></trkpt><trkpt lat="45.974059121609535" lon="11.290185618947023"><ele>1060.0</ele><time>2026-05-02T13:10:31Z</time></trkpt><trkpt lat="45.973953172874246" lon="11.290104956951195"><ele>1060.0</ele><time>2026-05-02T13:10:32.001Z</time></trkpt><trkpt lat="45.97390882987301" lon="11.29003522163278"><ele>1060.0</ele><time>2026-05-02T13:10:33.001Z</time></trkpt><trkpt lat="45.9738481780358" lon="11.289978603913964"><ele>1061.8333333333333</ele><time>2026-05-02T13:10:34.001Z</time></trkpt><trkpt lat="45.97376637217565" lon="11.289942128471004"><ele>1063.6666666666665</ele><time>2026-05-02T13:10:35.001Z</time></trkpt><trkpt lat="45.973690438114964" lon="11.28992477606583"><ele>1065.5</ele><time>2026-05-02T13:10:36.001Z</time></trkpt><trkpt lat="45.97361212643726" lon="11.289903566974106"><ele>1067.3333333333333</ele><time>2026-05-02T13:10:37.001Z</time></trkpt><trkpt lat="45.97354371109833" lon="11.28990728700842"><ele>1069.1666666666667</ele><time>2026-05-02T13:10:38.001Z</time></trkpt><trkpt lat="45.97342845968448" lon="11.289939154264037"><ele>1071.0</ele><time>2026-05-02T13:10:40.001Z</time></trkpt><trkpt lat="45.97337133204974" lon="11.29004775237003"><ele>1071.5</ele><time>2026-05-02T13:10:41.001Z</time></trkpt><trkpt lat="45.973308078669035" lon="11.290165374155217"><ele>1072.0</ele><time>2026-05-02T13:10:42.001Z</time></trkpt><trkpt lat="45.973208645275726" lon="11.29032015039442"><ele>1072.5</ele><time>2026-05-02T13:10:43.001Z</time></trkpt><trkpt lat="45.97312467176163" lon="11.29046230785739"><ele>1073.0</ele><time>2026-05-02T13:10:44.001Z</time></trkpt><trkpt lat="45.9730560360899" lon="11.290599840771831"><ele>1081.0</ele><time>2026-05-02T13:10:45.001Z</time></trkpt><trkpt lat="45.97299531985833" lon="11.290739561791952"><ele>1089.0</ele><time>2026-05-02T13:10:46.001Z</time></trkpt><trkpt lat="45.97289913525387" lon="11.290793443967265"><ele>1097.0</ele><time>2026-05-02T13:10:47.001Z</time></trkpt><trkpt lat="45.97280637070194" lon="11.290823735089907"><ele>1105.0</ele><time>2026-05-02T13:10:48.001Z</time></trkpt><trkpt lat="45.972687509285855" lon="11.290876728260114"><ele>1113.0</ele><time>2026-05-02T13:10:49.001Z</time></trkpt><trkpt lat="45.97254945414683" lon="11.290938278743164"><ele>1108.8</ele><time>2026-05-02T13:10:50.001Z</time></trkpt><trkpt lat="45.972410867593034" lon="11.29099913773716"><ele>1104.6</ele><time>2026-05-02T13:10:51.001Z</time></trkpt><trkpt lat="45.972318587398654" lon="11.291036800253643"><ele>1100.4</ele><time>2026-05-02T13:10:52.001Z</time></trkpt><trkpt lat="45.972225000971235" lon="11.291071256245152"><ele>1096.2</ele><time>2026-05-02T13:10:53.001Z</time></trkpt><trkpt lat="45.97214280991781" lon="11.291121767598234"><ele>1092.0</ele><time>2026-05-02T13:10:54.001Z</time></trkpt><trkpt lat="45.97203796215654" lon="11.291199107376059"><ele>1092.0</ele><time>2026-05-02T13:10:56.001Z</time></trkpt><trkpt lat="45.97197754905411" lon="11.29123865027725"><ele>1092.0</ele><time>2026-05-02T13:10:57.001Z</time></trkpt><trkpt lat="45.971908425931865" lon="11.291319368230658"><ele>1092.0</ele><time>2026-05-02T13:10:58.001Z</time></trkpt><trkpt lat="45.97183423041628" lon="11.291403721457636"><ele>1092.0</ele><time>2026-05-02T13:10:59.001Z</time></trkpt><trkpt lat="45.97175508436737" lon="11.29147053754339"><ele>1092.0</ele><time>2026-05-02T13:11:00.001Z</time></trkpt><trkpt lat="45.97164382866252" lon="11.291534347188165"><ele>1101.0</ele><time>2026-05-02T13:11:01.001Z</time></trkpt><trkpt lat="45.971529076381685" lon="11.291545988172278"><ele>1110.0</ele><time>2026-05-02T13:11:02.001Z</time></trkpt><trkpt lat="45.971416170081625" lon="11.291572203443941"><ele>1119.0</ele><time>2026-05-02T13:11:03.001Z</time></trkpt><trkpt lat="45.97131081687648" lon="11.291596625874591"><ele>1128.0</ele><time>2026-05-02T13:11:04.001Z</time></trkpt><trkpt lat="45.971200414958886" lon="11.291629204808656"><ele>1137.0</ele><time>2026-05-02T13:11:05.001Z</time></trkpt><trkpt lat="45.97109670599936" lon="11.291683502803918"><ele>1137.0</ele><time>2026-05-02T13:11:06.001Z</time></trkpt><trkpt lat="45.97100164506681" lon="11.291736990051133"><ele>1137.0</ele><time>2026-05-02T13:11:07.001Z</time></trkpt><trkpt lat="45.970908231950474" lon="11.291787017967234"><ele>1137.0</ele><time>2026-05-02T13:11:08.001Z</time></trkpt><trkpt lat="45.97081074277905" lon="11.291837976084146"><ele>1137.0</ele><time>2026-05-02T13:11:09.001Z</time></trkpt><trkpt lat="45.9707054376773" lon="11.29191593195208"><ele>1137.0</ele><time>2026-05-02T13:11:10.001Z</time></trkpt><trkpt lat="45.97056267765934" lon="11.291962584784732"><ele>1135.6</ele><time>2026-05-02T13:11:11.001Z</time></trkpt><trkpt lat="45.970420958653165" lon="11.292021062444205"><ele>1134.2</ele><time>2026-05-02T13:11:12.001Z</time></trkpt><trkpt lat="45.97030416684216" lon="11.292080314859012"><ele>1132.8</ele><time>2026-05-02T13:11:13.001Z</time></trkpt><trkpt lat="45.97020765771102" lon="11.29210623158997"><ele>1131.4</ele><time>2026-05-02T13:11:14.001Z</time></trkpt><trkpt lat="45.970131487181796" lon="11.29210655078476"><ele>1130.0</ele><time>2026-05-02T13:11:15.001Z</time></trkpt><trkpt lat="45.97006315064945" lon="11.292065291176389"><ele>1130.0</ele><time>2026-05-02T13:11:16.001Z</time></trkpt><trkpt lat="45.96999307764666" lon="11.291994477217825"><ele>1130.0</ele><time>2026-05-02T13:11:17.001Z</time></trkpt><trkpt lat="45.969944725060294" lon="11.291933798012751"><ele>1130.0</ele><time>2026-05-02T13:11:18.001Z</time></trkpt><trkpt lat="45.96988239449625" lon="11.291902988638595"><ele>1130.0</ele><time>2026-05-02T13:11:19.001Z</time></trkpt><trkpt lat="45.96980635535642" lon="11.291916154540147"><ele>1130.0</ele><time>2026-05-02T13:11:20.001Z</time></trkpt><trkpt lat="45.96971876682195" lon="11.291910539807715"><ele>1130.0</ele><time>2026-05-02T13:11:21.001Z</time></trkpt><trkpt lat="45.96961398984023" lon="11.29194381618152"><ele>1130.0</ele><time>2026-05-02T13:11:22.001Z</time></trkpt><trkpt lat="45.969542680126025" lon="11.292010639343387"><ele>1130.0</ele><time>2026-05-02T13:11:23.001Z</time></trkpt><trkpt lat="45.96945236269415" lon="11.2920675015321"><ele>1130.0</ele><time>2026-05-02T13:11:25.001Z</time></trkpt><trkpt lat="45.96936052041437" lon="11.292179349823313"><ele>1130.0</ele><time>2026-05-02T13:11:27.001Z</time></trkpt><trkpt lat="45.96929082188927" lon="11.292274394294154"><ele>1130.0</ele><time>2026-05-02T13:11:29.001Z</time></trkpt><trkpt lat="45.96923705267839" lon="11.292400198318322"><ele>1130.0</ele><time>2026-05-02T13:11:31.001Z</time></trkpt><trkpt lat="45.96926766217495" lon="11.292523795911858"><ele>1130.0</ele><time>2026-05-02T13:11:33.001Z</time></trkpt><trkpt lat="45.96935131607478" lon="11.292540766841569"><ele>1130.0</ele><time>2026-05-02T13:11:34.001Z</time></trkpt><trkpt lat="45.969414339493426" lon="11.29245028481016"><ele>1130.0</ele><time>2026-05-02T13:11:35.001Z</time></trkpt><trkpt lat="45.969438528762225" lon="11.292337916226588"><ele>1130.0</ele><time>2026-05-02T13:11:36.001Z</time></trkpt><trkpt lat="45.96947767612007" lon="11.292258220049868"><ele>1130.0</ele><time>2026-05-02T13:11:37.001Z</time></trkpt><trkpt lat="45.969579880616216" lon="11.292197153072367"><ele>1130.0</ele><time>2026-05-02T13:11:39.001Z</time></trkpt><trkpt lat="45.96969065711544" lon="11.29224498200794"><ele>1130.0</ele><time>2026-05-02T13:11:41.001Z</time></trkpt><trkpt lat="45.96974262812183" lon="11.292303141356975"><ele>1130.0</ele><time>2026-05-02T13:11:42.001Z</time></trkpt><trkpt lat="45.96974901221239" lon="11.292414755947421"><ele>1130.0</ele><time>2026-05-02T13:11:43.001Z</time></trkpt><trkpt lat="45.96976970826317" lon="11.292540617414105"><ele>1130.0</ele><time>2026-05-02T13:11:44.001Z</time></trkpt><trkpt lat="45.96979979011062" lon="11.292666173194734"><ele>1130.0</ele><time>2026-05-02T13:11:45.001Z</time></trkpt><trkpt lat="45.96984012029567" lon="11.29276763907146"><ele>1135.6</ele><time>2026-05-02T13:11:46.001Z</time></trkpt><trkpt lat="45.969886994006714" lon="11.292848180767074"><ele>1141.2</ele><time>2026-05-02T13:11:47.001Z</time></trkpt><trkpt lat="45.9699669042599" lon="11.292909488097658"><ele>1146.8</ele><time>2026-05-02T13:11:48.001Z</time></trkpt><trkpt lat="45.970093506190786" lon="11.292942908129895"><ele>1152.4</ele><time>2026-05-02T13:11:49.001Z</time></trkpt><trkpt lat="45.970207395558425" lon="11.292950260253216"><ele>1158.0</ele><time>2026-05-02T13:11:50.001Z</time></trkpt><trkpt lat="45.97032073554764" lon="11.292957100371328"><ele>1159.6</ele><time>2026-05-02T13:11:51.001Z</time></trkpt><trkpt lat="45.97042754943894" lon="11.29296494901831"><ele>1161.1999999999998</ele><time>2026-05-02T13:11:52.001Z</time></trkpt><trkpt lat="45.97054622234991" lon="11.292973669054279"><ele>1162.8</ele><time>2026-05-02T13:11:53.001Z</time></trkpt><trkpt lat="45.97066039086494" lon="11.292982058116573"><ele>1164.3999999999999</ele><time>2026-05-02T13:11:54.001Z</time></trkpt><trkpt lat="45.970763254566826" lon="11.292989616490877"><ele>1166.0</ele><time>2026-05-02T13:11:55.001Z</time></trkpt><trkpt lat="45.97086330013844" lon="11.29299136674625"><ele>1169.3999999999999</ele><time>2026-05-02T13:11:56.001Z</time></trkpt><trkpt lat="45.97096288524475" lon="11.292963005588202"><ele>1172.8</ele><time>2026-05-02T13:11:57Z</time></trkpt><trkpt lat="45.971054724959295" lon="11.2928790401988"><ele>1176.1999999999998</ele><time>2026-05-02T13:11:58Z</time></trkpt><trkpt lat="45.97113264014977" lon="11.292771220917224"><ele>1179.6</ele><time>2026-05-02T13:11:59Z</time></trkpt><trkpt lat="45.97120980014539" lon="11.292679977958862"><ele>1183.0</ele><time>2026-05-02T13:12:00Z</time></trkpt><trkpt lat="45.97128347469174" lon="11.292652293929942"><ele>1183.0</ele><time>2026-05-02T13:12:01Z</time></trkpt><trkpt lat="45.97135588552319" lon="11.292654419307633"><ele>1183.0</ele><time>2026-05-02T13:12:02Z</time></trkpt><trkpt lat="45.971449520552724" lon="11.292670269781949"><ele>1183.0</ele><time>2026-05-02T13:12:03Z</time></trkpt><trkpt lat="45.97152395841434" lon="11.292653244533708"><ele>1183.0</ele><time>2026-05-02T13:12:04Z</time></trkpt><trkpt lat="45.97163715103253" lon="11.292666182470763"><ele>1183.0</ele><time>2026-05-02T13:12:06Z</time></trkpt><trkpt lat="45.97172117023154" lon="11.292665104362309"><ele>1183.0</ele><time>2026-05-02T13:12:08Z</time></trkpt><trkpt lat="45.97169534074427" lon="11.29279608039744"><ele>1183.0</ele><time>2026-05-02T13:12:11Z</time></trkpt><trkpt lat="45.97162878154348" lon="11.292812964590581"><ele>1183.0</ele><time>2026-05-02T13:12:12Z</time></trkpt><trkpt lat="45.97155434611428" lon="11.292804570645417"><ele>1183.0</ele><time>2026-05-02T13:12:13Z</time></trkpt><trkpt lat="45.97147512173346" lon="11.292806644206996"><ele>1183.0</ele><time>2026-05-02T13:12:14Z</time></trkpt><trkpt lat="45.97140083728857" lon="11.292830255971177"><ele>1183.0</ele><time>2026-05-02T13:12:15Z</time></trkpt><trkpt lat="45.971317004956326" lon="11.292899159647188"><ele>1183.0</ele><time>2026-05-02T13:12:16Z</time></trkpt><trkpt lat="45.97123311510002" lon="11.292996612935571"><ele>1185.75</ele><time>2026-05-02T13:12:17Z</time></trkpt><trkpt lat="45.971157630333785" lon="11.293123747578182"><ele>1188.5</ele><time>2026-05-02T13:12:18Z</time></trkpt><trkpt lat="45.97107999962131" lon="11.293238260615322"><ele>1191.25</ele><time>2026-05-02T13:12:19Z</time></trkpt><trkpt lat="45.970979805218604" lon="11.293323127826511"><ele>1194.0</ele><time>2026-05-02T13:12:20Z</time></trkpt><trkpt lat="45.97085930972368" lon="11.293388401942996"><ele>1195.5</ele><time>2026-05-02T13:12:21Z</time></trkpt><trkpt lat="45.970733697040565" lon="11.293449730045836"><ele>1197.0</ele><time>2026-05-02T13:12:22Z</time></trkpt><trkpt lat="45.97059737478446" lon="11.293505936458082"><ele>1198.5</ele><time>2026-05-02T13:12:23Z</time></trkpt><trkpt lat="45.970456177844305" lon="11.293558482271303"><ele>1200.0</ele><time>2026-05-02T13:12:24Z</time></trkpt><trkpt lat="45.97031702939507" lon="11.29361775884741"><ele>1200.0</ele><time>2026-05-02T13:12:25Z</time></trkpt><trkpt lat="45.970176734082834" lon="11.293672069553015"><ele>1200.0</ele><time>2026-05-02T13:12:26Z</time></trkpt><trkpt lat="45.97004602760986" lon="11.293727896039679"><ele>1200.0</ele><time>2026-05-02T13:12:27Z</time></trkpt><trkpt lat="45.96991917689901" lon="11.293777273090564"><ele>1200.0</ele><time>2026-05-02T13:12:28Z</time></trkpt><trkpt lat="45.969785893717926" lon="11.293777646159988"><ele>1199.5</ele><time>2026-05-02T13:12:29Z</time></trkpt><trkpt lat="45.969664464256276" lon="11.293785464584207"><ele>1199.0</ele><time>2026-05-02T13:12:30Z</time></trkpt><trkpt lat="45.969535041933106" lon="11.293787013251798"><ele>1198.5</ele><time>2026-05-02T13:12:31Z</time></trkpt><trkpt lat="45.969422343277756" lon="11.293783440108157"><ele>1198.0</ele><time>2026-05-02T13:12:32.001Z</time></trkpt><trkpt lat="45.96930186023715" lon="11.293786113835214"><ele>1200.0</ele><time>2026-05-02T13:12:33.001Z</time></trkpt><trkpt lat="45.96918227770392" lon="11.293759020212883"><ele>1202.0</ele><time>2026-05-02T13:12:34.001Z</time></trkpt><trkpt lat="45.969071537451505" lon="11.293691946882404"><ele>1204.0</ele><time>2026-05-02T13:12:35.001Z</time></trkpt><trkpt lat="45.968946553353256" lon="11.293630373927387"><ele>1206.0</ele><time>2026-05-02T13:12:36.001Z</time></trkpt><trkpt lat="45.968832755854855" lon="11.293555261519248"><ele>1206.0</ele><time>2026-05-02T13:12:37.001Z</time></trkpt><trkpt lat="45.968723358336234" lon="11.293476849249341"><ele>1206.0</ele><time>2026-05-02T13:12:38.001Z</time></trkpt><trkpt lat="45.96862604505241" lon="11.29340049057517"><ele>1206.0</ele><time>2026-05-02T13:12:39.001Z</time></trkpt><trkpt lat="45.96853200370948" lon="11.293333871642428"><ele>1206.0</ele><time>2026-05-02T13:12:40.001Z</time></trkpt><trkpt lat="45.96844229028675" lon="11.293294860159493"><ele>1206.0</ele><time>2026-05-02T13:12:41.001Z</time></trkpt><trkpt lat="45.96834005279119" lon="11.293299135565997"><ele>1208.2</ele><time>2026-05-02T13:12:42.001Z</time></trkpt><trkpt lat="45.96822366344065" lon="11.29334843802646"><ele>1210.3999999999999</ele><time>2026-05-02T13:12:43.001Z</time></trkpt><trkpt lat="45.968118647690616" lon="11.29339209261195"><ele>1212.6</ele><time>2026-05-02T13:12:44.001Z</time></trkpt><trkpt lat="45.968038340902666" lon="11.293437232542878"><ele>1214.8</ele><time>2026-05-02T13:12:45.001Z</time></trkpt><trkpt lat="45.96799570402378" lon="11.293517778223372"><ele>1217.0</ele><time>2026-05-02T13:12:46.001Z</time></trkpt><trkpt lat="45.9679798577609" lon="11.293706243556116"><ele>1217.0</ele><time>2026-05-02T13:12:48.001Z</time></trkpt><trkpt lat="45.96797782658135" lon="11.293849177780004"><ele>1217.0</ele><time>2026-05-02T13:12:49.001Z</time></trkpt><trkpt lat="45.967961854347905" lon="11.294008500326166"><ele>1217.0</ele><time>2026-05-02T13:12:50.001Z</time></trkpt><trkpt lat="45.96792566853469" lon="11.294142392229483"><ele>1217.0</ele><time>2026-05-02T13:12:51.001Z</time></trkpt><trkpt lat="45.967879484572656" lon="11.294257199838963"><ele>1217.0</ele><time>2026-05-02T13:12:52.001Z</time></trkpt><trkpt lat="45.967805980749574" lon="11.294348876836755"><ele>1220.6</ele><time>2026-05-02T13:12:53.001Z</time></trkpt><trkpt lat="45.96772386026884" lon="11.294428268898294"><ele>1224.2</ele><time>2026-05-02T13:12:54.001Z</time></trkpt><trkpt lat="45.967658517189754" lon="11.294520928769833"><ele>1227.8</ele><time>2026-05-02T13:12:55.001Z</time></trkpt><trkpt lat="45.967594210159575" lon="11.294631282606707"><ele>1231.4</ele><time>2026-05-02T13:12:56.001Z</time></trkpt><trkpt lat="45.96752981779322" lon="11.294772465974495"><ele>1235.0</ele><time>2026-05-02T13:12:57.001Z</time></trkpt><trkpt lat="45.967471781736066" lon="11.294905258955486"><ele>1239.0</ele><time>2026-05-02T13:12:58.001Z</time></trkpt><trkpt lat="45.9674179289244" lon="11.295031478524077"><ele>1243.0</ele><time>2026-05-02T13:12:59.001Z</time></trkpt><trkpt lat="45.96736538452617" lon="11.29514783841684"><ele>1247.0</ele><time>2026-05-02T13:13:00.001Z</time></trkpt><trkpt lat="45.96730353078778" lon="11.295246517968756"><ele>1251.0</ele><time>2026-05-02T13:13:01.001Z</time></trkpt><trkpt lat="45.96723440384452" lon="11.295318470196877"><ele>1255.0</ele><time>2026-05-02T13:13:02.001Z</time></trkpt><trkpt lat="45.96717151220525" lon="11.295355468864578"><ele>1259.0</ele><time>2026-05-02T13:13:03.001Z</time></trkpt><trkpt lat="45.967082427266185" lon="11.295357212172018"><ele>1259.0</ele><time>2026-05-02T13:13:04.001Z</time></trkpt><trkpt lat="45.96699513466835" lon="11.295338596132146"><ele>1259.0</ele><time>2026-05-02T13:13:05.001Z</time></trkpt><trkpt lat="45.96690187179192" lon="11.295283386789853"><ele>1259.0</ele><time>2026-05-02T13:13:06.001Z</time></trkpt><trkpt lat="45.966836585742904" lon="11.295204413415469"><ele>1259.0</ele><time>2026-05-02T13:13:07.001Z</time></trkpt><trkpt lat="45.96677401777825" lon="11.295077227235737"><ele>1259.0</ele><time>2026-05-02T13:13:08.001Z</time></trkpt><trkpt lat="45.96672268314181" lon="11.294925665319354"><ele>1261.0</ele><time>2026-05-02T13:13:09.001Z</time></trkpt><trkpt lat="45.966660924622545" lon="11.294797328404323"><ele>1263.0</ele><time>2026-05-02T13:13:10.001Z</time></trkpt><trkpt lat="45.96658473754881" lon="11.294679460108261"><ele>1265.0</ele><time>2026-05-02T13:13:11.001Z</time></trkpt><trkpt lat="45.96648376806364" lon="11.29459766741833"><ele>1267.0</ele><time>2026-05-02T13:13:12.001Z</time></trkpt><trkpt lat="45.96636828477607" lon="11.294592127178351"><ele>1267.5</ele><time>2026-05-02T13:13:13.001Z</time></trkpt><trkpt lat="45.96624197588235" lon="11.29458933214697"><ele>1268.0</ele><time>2026-05-02T13:13:14.001Z</time></trkpt><trkpt lat="45.96609018570318" lon="11.294610522994569"><ele>1268.5</ele><time>2026-05-02T13:13:15.001Z</time></trkpt><trkpt lat="45.96595104458786" lon="11.294628647093996"><ele>1269.0</ele><time>2026-05-02T13:13:16.001Z</time></trkpt><trkpt lat="45.965821607967015" lon="11.294630232613876"><ele>1269.0</ele><time>2026-05-02T13:13:17.001Z</time></trkpt><trkpt lat="45.96571010487665" lon="11.294652348542932"><ele>1269.0</ele><time>2026-05-02T13:13:18.001Z</time></trkpt><trkpt lat="45.965616497808924" lon="11.294699605343363"><ele>1269.0</ele><time>2026-05-02T13:13:19.001Z</time></trkpt><trkpt lat="45.965537497874436" lon="11.294743826139412"><ele>1269.0</ele><time>2026-05-02T13:13:20.001Z</time></trkpt><trkpt lat="45.96545837517208" lon="11.2948009417131"><ele>1269.0</ele><time>2026-05-02T13:13:21.001Z</time></trkpt><trkpt lat="45.96538700606248" lon="11.294865954218826"><ele>1270.6000000000001</ele><time>2026-05-02T13:13:22.001Z</time></trkpt><trkpt lat="45.96531341177681" lon="11.294936729777715"><ele>1272.2</ele><time>2026-05-02T13:13:23.001Z</time></trkpt><trkpt lat="45.96524297978782" lon="11.295012124632873"><ele>1273.8000000000002</ele><time>2026-05-02T13:13:24.001Z</time></trkpt><trkpt lat="45.96517279219909" lon="11.295094649644513"><ele>1275.4</ele><time>2026-05-02T13:13:25.001Z</time></trkpt><trkpt lat="45.96509936752844" lon="11.295185988674529"><ele>1277.0</ele><time>2026-05-02T13:13:26.001Z</time></trkpt><trkpt lat="45.965029121974815" lon="11.29529421159693"><ele>1277.0</ele><time>2026-05-02T13:13:27.001Z</time></trkpt><trkpt lat="45.96496186039007" lon="11.295422414603461"><ele>1277.0</ele><time>2026-05-02T13:13:28.001Z</time></trkpt><trkpt lat="45.96490350154844" lon="11.295555040846608"><ele>1277.0</ele><time>2026-05-02T13:13:29.001Z</time></trkpt><trkpt lat="45.9648465882597" lon="11.29567196683814"><ele>1277.0</ele><time>2026-05-02T13:13:30.001Z</time></trkpt><trkpt lat="45.96477447674754" lon="11.295777016178144"><ele>1277.0</ele><time>2026-05-02T13:13:31.001Z</time></trkpt><trkpt lat="45.964687965885126" lon="11.295863607054423"><ele>1279.0</ele><time>2026-05-02T13:13:32.001Z</time></trkpt><trkpt lat="45.96459565723161" lon="11.29593606324271"><ele>1281.0</ele><time>2026-05-02T13:13:33.001Z</time></trkpt><trkpt lat="45.964495416955785" lon="11.296002175150536"><ele>1283.0</ele><time>2026-05-02T13:13:34.001Z</time></trkpt><trkpt lat="45.96440093526581" lon="11.296079098296287"><ele>1285.0</ele><time>2026-05-02T13:13:35.001Z</time></trkpt><trkpt lat="45.96431291761129" lon="11.296156103272708"><ele>1287.0</ele><time>2026-05-02T13:13:36.001Z</time></trkpt><trkpt lat="45.96423294977183" lon="11.296234855848056"><ele>1284.5</ele><time>2026-05-02T13:13:37.001Z</time></trkpt><trkpt lat="45.96416225324479" lon="11.29631965990119"><ele>1282.0</ele><time>2026-05-02T13:13:38.001Z</time></trkpt><trkpt lat="45.96409632876113" lon="11.296417277431756"><ele>1279.5</ele><time>2026-05-02T13:13:39.001Z</time></trkpt><trkpt lat="45.96403777066179" lon="11.296522872018903"><ele>1277.0</ele><time>2026-05-02T13:13:40.001Z</time></trkpt><trkpt lat="45.96398551896855" lon="11.296631650975236"><ele>1274.5</ele><time>2026-05-02T13:13:41.001Z</time></trkpt><trkpt lat="45.96394505160694" lon="11.296721942758944"><ele>1272.0</ele><time>2026-05-02T13:13:42.001Z</time></trkpt><trkpt lat="45.963915571887156" lon="11.296806946689768"><ele>1272.0</ele><time>2026-05-02T13:13:43.001Z</time></trkpt><trkpt lat="45.96387007126685" lon="11.296964153748162"><ele>1272.0</ele><time>2026-05-02T13:13:45.001Z</time></trkpt><trkpt lat="45.963808877236715" lon="11.297093978767288"><ele>1272.0</ele><time>2026-05-02T13:13:47.001Z</time></trkpt><trkpt lat="45.9637178929948" lon="11.297143138976407"><ele>1272.0</ele><time>2026-05-02T13:13:49.001Z</time></trkpt><trkpt lat="45.96364610942179" lon="11.29717861179547"><ele>1272.0</ele><time>2026-05-02T13:13:51.001Z</time></trkpt><trkpt lat="45.96357681417192" lon="11.29717650389316"><ele>1272.0</ele><time>2026-05-02T13:13:55.001Z</time></trkpt><trkpt lat="45.96364911275465" lon="11.297142187346362"><ele>1272.0</ele><time>2026-05-02T13:13:58.001Z</time></trkpt><trkpt lat="45.96372307761542" lon="11.297088192494645"><ele>1272.0</ele><time>2026-05-02T13:13:59.001Z</time></trkpt><trkpt lat="45.96379680396605" lon="11.297015178142857"><ele>1272.0</ele><time>2026-05-02T13:14:00.001Z</time></trkpt><trkpt lat="45.96383841686606" lon="11.296874671415218"><ele>1272.0</ele><time>2026-05-02T13:14:01.001Z</time></trkpt><trkpt lat="45.963876239794644" lon="11.296736923573777"><ele>1272.0</ele><time>2026-05-02T13:14:02.001Z</time></trkpt><trkpt lat="45.963902899092275" lon="11.296610710804332"><ele>1272.0</ele><time>2026-05-02T13:14:03Z</time></trkpt><trkpt lat="45.96393933121539" lon="11.296492034912704"><ele>1272.0</ele><time>2026-05-02T13:14:04Z</time></trkpt><trkpt lat="45.96397987268509" lon="11.296377476801943"><ele>1272.0</ele><time>2026-05-02T13:14:05Z</time></trkpt><trkpt lat="45.964004922259996" lon="11.29625848880789"><ele>1272.0</ele><time>2026-05-02T13:14:06Z</time></trkpt><trkpt lat="45.963992808997574" lon="11.296122794509872"><ele>1270.25</ele><time>2026-05-02T13:14:07Z</time></trkpt><trkpt lat="45.96394046747036" lon="11.295980157360875"><ele>1268.5</ele><time>2026-05-02T13:14:08Z</time></trkpt><trkpt lat="45.963865528410615" lon="11.295818728887477"><ele>1266.75</ele><time>2026-05-02T13:14:09Z</time></trkpt><trkpt lat="45.96379290967811" lon="11.29562222439148"><ele>1265.0</ele><time>2026-05-02T13:14:10Z</time></trkpt><trkpt lat="45.96372831261435" lon="11.295398608459752"><ele>1265.0</ele><time>2026-05-02T13:14:11Z</time></trkpt><trkpt lat="45.96366769837928" lon="11.295190076493705"><ele>1265.0</ele><time>2026-05-02T13:14:12Z</time></trkpt><trkpt lat="45.9636104684659" lon="11.294993547008744"><ele>1265.0</ele><time>2026-05-02T13:14:13Z</time></trkpt><trkpt lat="45.96355203292975" lon="11.294832672567232"><ele>1265.0</ele><time>2026-05-02T13:14:14Z</time></trkpt><trkpt lat="45.96346744372686" lon="11.294699823255655"><ele>1267.0</ele><time>2026-05-02T13:14:15Z</time></trkpt><trkpt lat="45.96335416251878" lon="11.294593613193921"><ele>1269.0</ele><time>2026-05-02T13:14:16Z</time></trkpt><trkpt lat="45.96320981976354" lon="11.294511361140998"><ele>1271.0</ele><time>2026-05-02T13:14:17Z</time></trkpt><trkpt lat="45.96301923229136" lon="11.294437100103213"><ele>1271.0</ele><time>2026-05-02T13:14:18Z</time></trkpt><trkpt lat="45.96281296855126" lon="11.294318202488371"><ele>1271.0</ele><time>2026-05-02T13:14:19Z</time></trkpt><trkpt lat="45.96259576104815" lon="11.294194359442079"><ele>1277.5</ele><time>2026-05-02T13:14:20Z</time></trkpt><trkpt lat="45.96237980588536" lon="11.294045474085355"><ele>1284.0</ele><time>2026-05-02T13:14:21Z</time></trkpt><trkpt lat="45.962175135527175" lon="11.293908316018936"><ele>1284.0</ele><time>2026-05-02T13:14:22Z</time></trkpt><trkpt lat="45.96198839088838" lon="11.293738061344632"><ele>1284.0</ele><time>2026-05-02T13:14:23Z</time></trkpt><trkpt lat="45.96181290252629" lon="11.293565531747316"><ele>1284.0</ele><time>2026-05-02T13:14:24Z</time></trkpt><trkpt lat="45.9616210279768" lon="11.293440208394747"><ele>1275.6666666666667</ele><time>2026-05-02T13:14:25Z</time></trkpt><trkpt lat="45.96141155617622" lon="11.293324360546206"><ele>1267.3333333333335</ele><time>2026-05-02T13:14:26Z</time></trkpt><trkpt lat="45.96122838651214" lon="11.293205718547586"><ele>1259.0</ele><time>2026-05-02T13:14:27Z</time></trkpt><trkpt lat="45.96105455797412" lon="11.293100152929995"><ele>1261.3333333333335</ele><time>2026-05-02T13:14:28Z</time></trkpt><trkpt lat="45.960874827564936" lon="11.293041013148674"><ele>1263.6666666666667</ele><time>2026-05-02T13:14:29Z</time></trkpt><trkpt lat="45.96068193838608" lon="11.293041853623505"><ele>1266.0</ele><time>2026-05-02T13:14:30Z</time></trkpt><trkpt lat="45.9604668463937" lon="11.293082183612444"><ele>1254.5</ele><time>2026-05-02T13:14:31Z</time></trkpt><trkpt lat="45.96020999317128" lon="11.293149136180386"><ele>1243.0</ele><time>2026-05-02T13:14:32Z</time></trkpt><trkpt lat="45.95995536535867" lon="11.293215312495397"><ele>1242.6666666666665</ele><time>2026-05-02T13:14:33Z</time></trkpt><trkpt lat="45.959752963685766" lon="11.293267147766667"><ele>1242.3333333333333</ele><time>2026-05-02T13:14:34.001Z</time></trkpt><trkpt lat="45.95959099037938" lon="11.293318692653816"><ele>1242.0</ele><time>2026-05-02T13:14:35.001Z</time></trkpt><trkpt lat="45.9594739138474" lon="11.293345903850772"><ele>1242.0</ele><time>2026-05-02T13:14:36.001Z</time></trkpt><trkpt lat="45.9593712179509" lon="11.293330238926355"><ele>1242.0</ele><time>2026-05-02T13:14:37.001Z</time></trkpt><trkpt lat="45.95926394464612" lon="11.29325031685504"><ele>1242.0</ele><time>2026-05-02T13:14:38.001Z</time></trkpt><trkpt lat="45.95911785260297" lon="11.293113031860225"><ele>1242.0</ele><time>2026-05-02T13:14:39.001Z</time></trkpt><trkpt lat="45.95892504992668" lon="11.292979071354923"><ele>1248.3333333333333</ele><time>2026-05-02T13:14:40.001Z</time></trkpt><trkpt lat="45.958720682335354" lon="11.292859876171724"><ele>1254.6666666666665</ele><time>2026-05-02T13:14:41.001Z</time></trkpt><trkpt lat="45.95854178303214" lon="11.292758550395094"><ele>1261.0</ele><time>2026-05-02T13:14:42Z</time></trkpt><trkpt lat="45.95837029152558" lon="11.292679219899783"><ele>1257.3333333333333</ele><time>2026-05-02T13:14:43Z</time></trkpt><trkpt lat="45.95820764539497" lon="11.292603633385303"><ele>1253.6666666666667</ele><time>2026-05-02T13:14:44Z</time></trkpt><trkpt lat="45.95804896432299" lon="11.292531362371948"><ele>1250.0</ele><time>2026-05-02T13:14:45Z</time></trkpt><trkpt lat="45.95789830954315" lon="11.292450995725016"><ele>1250.0</ele><time>2026-05-02T13:14:46Z</time></trkpt><trkpt lat="45.95776995010853" lon="11.292353368511161"><ele>1250.0</ele><time>2026-05-02T13:14:47Z</time></trkpt><trkpt lat="45.95764803177247" lon="11.292253342643814"><ele>1250.0</ele><time>2026-05-02T13:14:48Z</time></trkpt><trkpt lat="45.95752074602259" lon="11.292198281995617"><ele>1250.0</ele><time>2026-05-02T13:14:49Z</time></trkpt><trkpt lat="45.95739115413018" lon="11.292199775409927"><ele>1248.25</ele><time>2026-05-02T13:14:50Z</time></trkpt><trkpt lat="45.95726571886672" lon="11.292243997481384"><ele>1246.5</ele><time>2026-05-02T13:14:51Z</time></trkpt><trkpt lat="45.9571338780901" lon="11.292303220124857"><ele>1244.75</ele><time>2026-05-02T13:14:52Z</time></trkpt><trkpt lat="45.95699626893943" lon="11.292372433183345"><ele>1243.0</ele><time>2026-05-02T13:14:53Z</time></trkpt><trkpt lat="45.95685338440696" lon="11.29243145215979"><ele>1243.0</ele><time>2026-05-02T13:14:54Z</time></trkpt><trkpt lat="45.95670337758478" lon="11.292491060924172"><ele>1243.0</ele><time>2026-05-02T13:14:55Z</time></trkpt><trkpt lat="45.95655304590837" lon="11.292541403346725"><ele>1243.0</ele><time>2026-05-02T13:14:56Z</time></trkpt><trkpt lat="45.956390127284365" lon="11.292609966723678"><ele>1244.3333333333333</ele><time>2026-05-02T13:14:57Z</time></trkpt><trkpt lat="45.95623120899094" lon="11.2926959916913"><ele>1245.6666666666667</ele><time>2026-05-02T13:14:58Z</time></trkpt><trkpt lat="45.95605785888392" lon="11.292787366570671"><ele>1247.0</ele><time>2026-05-02T13:14:59Z</time></trkpt><trkpt lat="45.955902474475735" lon="11.29286874004772"><ele>1249.25</ele><time>2026-05-02T13:15:00Z</time></trkpt><trkpt lat="45.95575695270059" lon="11.292946692647545"><ele>1251.5</ele><time>2026-05-02T13:15:01Z</time></trkpt><trkpt lat="45.95563330855542" lon="11.293032652692185"><ele>1253.75</ele><time>2026-05-02T13:15:02Z</time></trkpt><trkpt lat="45.955543321022844" lon="11.293138388008378"><ele>1256.0</ele><time>2026-05-02T13:15:03Z</time></trkpt><trkpt lat="45.955478651771706" lon="11.29327824918144"><ele>1253.25</ele><time>2026-05-02T13:15:04Z</time></trkpt><trkpt lat="45.955416459411886" lon="11.293441631025614"><ele>1250.5</ele><time>2026-05-02T13:15:05Z</time></trkpt><trkpt lat="45.955311178960464" lon="11.293584650538877"><ele>1247.75</ele><time>2026-05-02T13:15:06Z</time></trkpt><trkpt lat="45.95516981576765" lon="11.293685916308112"><ele>1245.0</ele><time>2026-05-02T13:15:07Z</time></trkpt><trkpt lat="45.955033041699885" lon="11.293771681641028"><ele>1245.0</ele><time>2026-05-02T13:15:08Z</time></trkpt><trkpt lat="45.95490560324455" lon="11.293878674236293"><ele>1245.0</ele><time>2026-05-02T13:15:09Z</time></trkpt><trkpt lat="45.95479479391639" lon="11.293992986260962"><ele>1245.0</ele><time>2026-05-02T13:15:10Z</time></trkpt><trkpt lat="45.95468520208853" lon="11.294105310926705"><ele>1245.0</ele><time>2026-05-02T13:15:11Z</time></trkpt><trkpt lat="45.9545879836698" lon="11.294211741278058"><ele>1242.5</ele><time>2026-05-02T13:15:12Z</time></trkpt><trkpt lat="45.95449660671036" lon="11.294317862787823"><ele>1240.0</ele><time>2026-05-02T13:15:13Z</time></trkpt><trkpt lat="45.95438961016697" lon="11.294409966541286"><ele>1237.5</ele><time>2026-05-02T13:15:14Z</time></trkpt><trkpt lat="45.95426816976614" lon="11.294477257920875"><ele>1235.0</ele><time>2026-05-02T13:15:15Z</time></trkpt><trkpt lat="45.95414222978651" lon="11.294530525272037"><ele>1235.0</ele><time>2026-05-02T13:15:16Z</time></trkpt><trkpt lat="45.954005347909884" lon="11.294557804104256"><ele>1235.0</ele><time>2026-05-02T13:15:17Z</time></trkpt><trkpt lat="45.953861338202096" lon="11.294554411318408"><ele>1235.0</ele><time>2026-05-02T13:15:18Z</time></trkpt><trkpt lat="45.953712598725154" lon="11.294553362221137"><ele>1235.0</ele><time>2026-05-02T13:15:19Z</time></trkpt><trkpt lat="45.953556385331666" lon="11.294559763721038"><ele>1235.0</ele><time>2026-05-02T13:15:20Z</time></trkpt><trkpt lat="45.953395165320316" lon="11.294567474190778"><ele>1235.0</ele><time>2026-05-02T13:15:21Z</time></trkpt><trkpt lat="45.95323019559691" lon="11.29456689138856"><ele>1235.0</ele><time>2026-05-02T13:15:22Z</time></trkpt><trkpt lat="45.95307078645817" lon="11.294572226532713"><ele>1236.6666666666667</ele><time>2026-05-02T13:15:23Z</time></trkpt><trkpt lat="45.95291739468258" lon="11.294579292265826"><ele>1238.3333333333333</ele><time>2026-05-02T13:15:24Z</time></trkpt><trkpt lat="45.95275832629744" lon="11.294586611606746"><ele>1240.0</ele><time>2026-05-02T13:15:25Z</time></trkpt><trkpt lat="45.95257557092005" lon="11.294594259046963"><ele>1240.3333333333333</ele><time>2026-05-02T13:15:26Z</time></trkpt><trkpt lat="45.95236354704955" lon="11.294596700843314"><ele>1240.6666666666667</ele><time>2026-05-02T13:15:27Z</time></trkpt><trkpt lat="45.952141330938126" lon="11.294582201435436"><ele>1241.0</ele><time>2026-05-02T13:15:28Z</time></trkpt><trkpt lat="45.95190605916228" lon="11.2945872623979"><ele>1240.5</ele><time>2026-05-02T13:15:29Z</time></trkpt><trkpt lat="45.95164337701647" lon="11.294593262050558"><ele>1240.0</ele><time>2026-05-02T13:15:30Z</time></trkpt><trkpt lat="45.951395777642446" lon="11.29460103228122"><ele>1240.0</ele><time>2026-05-02T13:15:31Z</time></trkpt><trkpt lat="45.951156401662274" lon="11.294626653137266"><ele>1240.0</ele><time>2026-05-02T13:15:32Z</time></trkpt><trkpt lat="45.95092425134946" lon="11.294699692785583"><ele>1237.0</ele><time>2026-05-02T13:15:33Z</time></trkpt><trkpt lat="45.95069714919248" lon="11.294765552846876"><ele>1234.0</ele><time>2026-05-02T13:15:34Z</time></trkpt><trkpt lat="45.95047208946472" lon="11.294822062687643"><ele>1234.0</ele><time>2026-05-02T13:15:35Z</time></trkpt><trkpt lat="45.95025896904502" lon="11.294868219284403"><ele>1234.0</ele><time>2026-05-02T13:15:36Z</time></trkpt><trkpt lat="45.95005770706148" lon="11.29491712277212"><ele>1234.0</ele><time>2026-05-02T13:15:37Z</time></trkpt><trkpt lat="45.949871665841904" lon="11.294970523308583"><ele>1237.3333333333333</ele><time>2026-05-02T13:15:38Z</time></trkpt><trkpt lat="45.94968913191796" lon="11.29505463000934"><ele>1240.6666666666667</ele><time>2026-05-02T13:15:39Z</time></trkpt><trkpt lat="45.949511177780394" lon="11.295173849596196"><ele>1244.0</ele><time>2026-05-02T13:15:40Z</time></trkpt><trkpt lat="45.94934403268888" lon="11.295292939623772"><ele>1246.6666666666667</ele><time>2026-05-02T13:15:41Z</time></trkpt><trkpt lat="45.94916830063679" lon="11.295379405475705"><ele>1249.3333333333333</ele><time>2026-05-02T13:15:42Z</time></trkpt><trkpt lat="45.94898719249996" lon="11.295439400970894"><ele>1252.0</ele><time>2026-05-02T13:15:43Z</time></trkpt><trkpt lat="45.94882155215422" lon="11.295507507722778"><ele>1252.0</ele><time>2026-05-02T13:15:44Z</time></trkpt><trkpt lat="45.94867422673976" lon="11.29557455452537"><ele>1252.0</ele><time>2026-05-02T13:15:45Z</time></trkpt><trkpt lat="45.9485517316457" lon="11.295621452437128"><ele>1252.0</ele><time>2026-05-02T13:15:46Z</time></trkpt><trkpt lat="45.94844818437851" lon="11.295658599866826"><ele>1252.0</ele><time>2026-05-02T13:15:47Z</time></trkpt><trkpt lat="45.94835705029733" lon="11.295683683898506"><ele>1253.2</ele><time>2026-05-02T13:15:48Z</time></trkpt><trkpt lat="45.94825993595633" lon="11.295694898755947"><ele>1254.4</ele><time>2026-05-02T13:15:49Z</time></trkpt><trkpt lat="45.948160706478895" lon="11.29568970432511"><ele>1255.6</ele><time>2026-05-02T13:15:50Z</time></trkpt><trkpt lat="45.94805090923049" lon="11.295666474521191"><ele>1256.8</ele><time>2026-05-02T13:15:51Z</time></trkpt><trkpt lat="45.94792801896943" lon="11.295627083678413"><ele>1258.0</ele><time>2026-05-02T13:15:52Z</time></trkpt><trkpt lat="45.947787323600295" lon="11.295580387591833"><ele>1258.0</ele><time>2026-05-02T13:15:53Z</time></trkpt><trkpt lat="45.94764048579911" lon="11.295526426216208"><ele>1258.0</ele><time>2026-05-02T13:15:54Z</time></trkpt><trkpt lat="45.94749787725532" lon="11.295454562461321"><ele>1258.0</ele><time>2026-05-02T13:15:55Z</time></trkpt><trkpt lat="45.94736323237307" lon="11.295357535600166"><ele>1257.75</ele><time>2026-05-02T13:15:56Z</time></trkpt><trkpt lat="45.94723894338915" lon="11.295257176315818"><ele>1257.5</ele><time>2026-05-02T13:15:57Z</time></trkpt><trkpt lat="45.947120116580685" lon="11.295165180548087"><ele>1257.25</ele><time>2026-05-02T13:15:58Z</time></trkpt><trkpt lat="45.94702189305449" lon="11.295057311450874"><ele>1257.0</ele><time>2026-05-02T13:15:59Z</time></trkpt><trkpt lat="45.946929712435136" lon="11.294912760479477"><ele>1257.0</ele><time>2026-05-02T13:16:00Z</time></trkpt><trkpt lat="45.946842378685126" lon="11.294777844122075"><ele>1257.0</ele><time>2026-05-02T13:16:01Z</time></trkpt><trkpt lat="45.946756319060476" lon="11.294649217007569"><ele>1257.0</ele><time>2026-05-02T13:16:02Z</time></trkpt><trkpt lat="45.94666481129927" lon="11.294512902313723"><ele>1257.0</ele><time>2026-05-02T13:16:03Z</time></trkpt><trkpt lat="45.946576986130346" lon="11.294373907102601"><ele>1258.75</ele><time>2026-05-02T13:16:04Z</time></trkpt><trkpt lat="45.94650027158064" lon="11.294229144417951"><ele>1260.5</ele><time>2026-05-02T13:16:05.001Z</time></trkpt><trkpt lat="45.94643065366884" lon="11.294084871761724"><ele>1262.25</ele><time>2026-05-02T13:16:06.001Z</time></trkpt><trkpt lat="45.946354164744236" lon="11.29397089639322"><ele>1264.0</ele><time>2026-05-02T13:16:07.001Z</time></trkpt><trkpt lat="45.94627206614436" lon="11.293883222590376"><ele>1265.1666666666665</ele><time>2026-05-02T13:16:08.001Z</time></trkpt><trkpt lat="45.94619270186858" lon="11.293810409700228"><ele>1266.3333333333333</ele><time>2026-05-02T13:16:09Z</time></trkpt><trkpt lat="45.94611543989031" lon="11.293742382371132"><ele>1267.5</ele><time>2026-05-02T13:16:09.999Z</time></trkpt><trkpt lat="45.9460528228413" lon="11.293665316716034"><ele>1268.6666666666667</ele><time>2026-05-02T13:16:11Z</time></trkpt><trkpt lat="45.94602110502264" lon="11.293569590182578"><ele>1269.8333333333335</ele><time>2026-05-02T13:16:12Z</time></trkpt><trkpt lat="45.946028166407444" lon="11.293447469905551"><ele>1271.0</ele><time>2026-05-02T13:16:13Z</time></trkpt><trkpt lat="45.94605782299159" lon="11.293300231338975"><ele>1271.0</ele><time>2026-05-02T13:16:14Z</time></trkpt><trkpt lat="45.94610911137171" lon="11.293145965444245"><ele>1271.0</ele><time>2026-05-02T13:16:15Z</time></trkpt><trkpt lat="45.94613788502729" lon="11.292993927000749"><ele>1271.0</ele><time>2026-05-02T13:16:16Z</time></trkpt><trkpt lat="45.946163006970124" lon="11.292844566110922"><ele>1271.0</ele><time>2026-05-02T13:16:17Z</time></trkpt><trkpt lat="45.94617838084592" lon="11.292701182650523"><ele>1271.0</ele><time>2026-05-02T13:16:18Z</time></trkpt><trkpt lat="45.946182378296086" lon="11.292561082909039"><ele>1272.3333333333335</ele><time>2026-05-02T13:16:19Z</time></trkpt><trkpt lat="45.9461836330248" lon="11.29243319935767"><ele>1273.6666666666667</ele><time>2026-05-02T13:16:20Z</time></trkpt><trkpt lat="45.94618264311867" lon="11.292318269118649"><ele>1275.0</ele><time>2026-05-02T13:16:21Z</time></trkpt><trkpt lat="45.94617478489541" lon="11.29221504379742"><ele>1276.3333333333333</ele><time>2026-05-02T13:16:21.999Z</time></trkpt><trkpt lat="45.94613818982059" lon="11.292116785557054"><ele>1277.6666666666665</ele><time>2026-05-02T13:16:22.999Z</time></trkpt><trkpt lat="45.94606629074547" lon="11.292054306326296"><ele>1279.0</ele><time>2026-05-02T13:16:23.999Z</time></trkpt><trkpt lat="45.94597033555775" lon="11.292031835829794"><ele>1276.8</ele><time>2026-05-02T13:16:24.999Z</time></trkpt><trkpt lat="45.94585781301256" lon="11.292045006409625"><ele>1274.6000000000001</ele><time>2026-05-02T13:16:26Z</time></trkpt><trkpt lat="45.94574898502935" lon="11.292042768900592"><ele>1272.4</ele><time>2026-05-02T13:16:27Z</time></trkpt><trkpt lat="45.94564930444065" lon="11.292003675035437"><ele>1270.2</ele><time>2026-05-02T13:16:28Z</time></trkpt><trkpt lat="45.94556817125635" lon="11.291920094393964"><ele>1268.0</ele><time>2026-05-02T13:16:29Z</time></trkpt><trkpt lat="45.945492701972135" lon="11.291807289131901"><ele>1268.0</ele><time>2026-05-02T13:16:30Z</time></trkpt><trkpt lat="45.945418079392425" lon="11.29169207314167"><ele>1268.0</ele><time>2026-05-02T13:16:31Z</time></trkpt><trkpt lat="45.94530659867968" lon="11.291657072140591"><ele>1268.0</ele><time>2026-05-02T13:16:32Z</time></trkpt><trkpt lat="45.94519866557416" lon="11.291646956860541"><ele>1268.0</ele><time>2026-05-02T13:16:33Z</time></trkpt><trkpt lat="45.94509532054017" lon="11.291724436130693"><ele>1268.0</ele><time>2026-05-02T13:16:34Z</time></trkpt><trkpt lat="45.944994074659526" lon="11.291847634362695"><ele>1270.6666666666667</ele><time>2026-05-02T13:16:35Z</time></trkpt><trkpt lat="45.94486963793446" lon="11.291956496490265"><ele>1273.3333333333333</ele><time>2026-05-02T13:16:36Z</time></trkpt><trkpt lat="45.94471574920066" lon="11.292030155793034"><ele>1276.0</ele><time>2026-05-02T13:16:37Z</time></trkpt><trkpt lat="45.94454536251195" lon="11.29209216720638"><ele>1276.0</ele><time>2026-05-02T13:16:38Z</time></trkpt><trkpt lat="45.94438679494209" lon="11.29213776340473"><ele>1276.0</ele><time>2026-05-02T13:16:39Z</time></trkpt><trkpt lat="45.944228485709054" lon="11.292171465708401"><ele>1276.0</ele><time>2026-05-02T13:16:40Z</time></trkpt><trkpt lat="45.944076498492414" lon="11.292209187949654"><ele>1274.0</ele><time>2026-05-02T13:16:41Z</time></trkpt><trkpt lat="45.94393156935183" lon="11.292257592352124"><ele>1272.0</ele><time>2026-05-02T13:16:42Z</time></trkpt><trkpt lat="45.94379426068687" lon="11.29233158951321"><ele>1270.0</ele><time>2026-05-02T13:16:43Z</time></trkpt><trkpt lat="45.943658146385424" lon="11.292404274284026"><ele>1268.0</ele><time>2026-05-02T13:16:44Z</time></trkpt><trkpt lat="45.943523894458814" lon="11.292452554489246"><ele>1268.0</ele><time>2026-05-02T13:16:45Z</time></trkpt><trkpt lat="45.94338891899237" lon="11.292512527699238"><ele>1268.0</ele><time>2026-05-02T13:16:46Z</time></trkpt><trkpt lat="45.943272142772365" lon="11.292595460404188"><ele>1268.0</ele><time>2026-05-02T13:16:47Z</time></trkpt><trkpt lat="45.94317755137351" lon="11.292713549276755"><ele>1268.0</ele><time>2026-05-02T13:16:48Z</time></trkpt><trkpt lat="45.94308649105789" lon="11.292814463892542"><ele>1271.5</ele><time>2026-05-02T13:16:49Z</time></trkpt><trkpt lat="45.94298261877023" lon="11.292883994875918"><ele>1275.0</ele><time>2026-05-02T13:16:50Z</time></trkpt><trkpt lat="45.94287310094783" lon="11.292901570964588"><ele>1278.5</ele><time>2026-05-02T13:16:51Z</time></trkpt><trkpt lat="45.942752850858966" lon="11.292874576257118"><ele>1282.0</ele><time>2026-05-02T13:16:52Z</time></trkpt><trkpt lat="45.9426227273346" lon="11.292832563424398"><ele>1283.5</ele><time>2026-05-02T13:16:53Z</time></trkpt><trkpt lat="45.94249623110693" lon="11.292829470124618"><ele>1285.0</ele><time>2026-05-02T13:16:54Z</time></trkpt><trkpt lat="45.94237728142561" lon="11.29287524854711"><ele>1286.5</ele><time>2026-05-02T13:16:55Z</time></trkpt><trkpt lat="45.9422444138172" lon="11.292962943886398"><ele>1288.0</ele><time>2026-05-02T13:16:56Z</time></trkpt><trkpt lat="45.94211440391787" lon="11.293053861532398"><ele>1287.8000000000002</ele><time>2026-05-02T13:16:57Z</time></trkpt><trkpt lat="45.941986274699" lon="11.293109203403274"><ele>1287.6</ele><time>2026-05-02T13:16:58Z</time></trkpt><trkpt lat="45.94187795903436" lon="11.293131421830347"><ele>1287.4</ele><time>2026-05-02T13:16:59Z</time></trkpt><trkpt lat="45.941772797053886" lon="11.293117742733825"><ele>1287.1999999999998</ele><time>2026-05-02T13:17:00Z</time></trkpt><trkpt lat="45.94169036623602" lon="11.293065104248068"><ele>1287.0</ele><time>2026-05-02T13:17:01Z</time></trkpt><trkpt lat="45.94162339309073" lon="11.292982041365612"><ele>1287.0</ele><time>2026-05-02T13:17:02Z</time></trkpt><trkpt lat="45.94158657328081" lon="11.292857829117311"><ele>1287.0</ele><time>2026-05-02T13:17:03Z</time></trkpt><trkpt lat="45.941578020073464" lon="11.292723021718562"><ele>1287.0</ele><time>2026-05-02T13:17:04Z</time></trkpt><trkpt lat="45.94160594600549" lon="11.29258590066472"><ele>1287.0</ele><time>2026-05-02T13:17:05Z</time></trkpt><trkpt lat="45.94165973233434" lon="11.292462115220001"><ele>1287.0</ele><time>2026-05-02T13:17:06Z</time></trkpt><trkpt lat="45.94173551183972" lon="11.2923542327588"><ele>1287.0</ele><time>2026-05-02T13:17:07Z</time></trkpt><trkpt lat="45.941822028507616" lon="11.292264641144586"><ele>1287.0</ele><time>2026-05-02T13:17:08Z</time></trkpt><trkpt lat="45.94190194981462" lon="11.292195342779909"><ele>1287.0</ele><time>2026-05-02T13:17:09Z</time></trkpt><trkpt lat="45.94194964072289" lon="11.292093326301105"><ele>1287.0</ele><time>2026-05-02T13:17:10Z</time></trkpt><trkpt lat="45.94194604772956" lon="11.291975818004486"><ele>1287.0</ele><time>2026-05-02T13:17:11Z</time></trkpt><trkpt lat="45.94190939206909" lon="11.29188289703724"><ele>1287.0</ele><time>2026-05-02T13:17:12Z</time></trkpt><trkpt lat="45.94186051520055" lon="11.291802099611063"><ele>1287.0</ele><time>2026-05-02T13:17:13Z</time></trkpt><trkpt lat="45.94176549068949" lon="11.29179588369193"><ele>1287.0</ele><time>2026-05-02T13:17:14Z</time></trkpt><trkpt lat="45.94166796962179" lon="11.291834328863105"><ele>1287.0</ele><time>2026-05-02T13:17:15Z</time></trkpt><trkpt lat="45.94155707161981" lon="11.29191317536757"><ele>1287.0</ele><time>2026-05-02T13:17:16Z</time></trkpt><trkpt lat="45.941435900958716" lon="11.291986785162676"><ele>1288.0</ele><time>2026-05-02T13:17:17Z</time></trkpt><trkpt lat="45.941317049406756" lon="11.292051984533353"><ele>1289.0</ele><time>2026-05-02T13:17:18Z</time></trkpt><trkpt lat="45.94120427487108" lon="11.29211637652558"><ele>1290.0</ele><time>2026-05-02T13:17:19Z</time></trkpt><trkpt lat="45.94109584871991" lon="11.292172947051665"><ele>1291.0</ele><time>2026-05-02T13:17:20Z</time></trkpt><trkpt lat="45.940992768763095" lon="11.292234505594665"><ele>1291.0</ele><time>2026-05-02T13:17:21Z</time></trkpt><trkpt lat="45.940889174006756" lon="11.292293623541509"><ele>1291.0</ele><time>2026-05-02T13:17:22Z</time></trkpt><trkpt lat="45.94078836245404" lon="11.29235238042572"><ele>1291.0</ele><time>2026-05-02T13:17:23Z</time></trkpt><trkpt lat="45.940683169973326" lon="11.292409900222133"><ele>1291.0</ele><time>2026-05-02T13:17:24Z</time></trkpt><trkpt lat="45.940574008674574" lon="11.292466509460505"><ele>1291.0</ele><time>2026-05-02T13:17:25Z</time></trkpt><trkpt lat="45.940460186363076" lon="11.2925044206994"><ele>1291.0</ele><time>2026-05-02T13:17:26Z</time></trkpt><trkpt lat="45.94034569144399" lon="11.292516423637185"><ele>1291.0</ele><time>2026-05-02T13:17:27Z</time></trkpt><trkpt lat="45.94022223764886" lon="11.292488968245461"><ele>1291.0</ele><time>2026-05-02T13:17:28Z</time></trkpt><trkpt lat="45.940108550228544" lon="11.292398141651555"><ele>1291.0</ele><time>2026-05-02T13:17:29Z</time></trkpt><trkpt lat="45.94000232707199" lon="11.292300050973854"><ele>1294.0</ele><time>2026-05-02T13:17:30Z</time></trkpt><trkpt lat="45.93988625688257" lon="11.292228735849267"><ele>1297.0</ele><time>2026-05-02T13:17:31Z</time></trkpt><trkpt lat="45.93977432398064" lon="11.292192791458692"><ele>1300.0</ele><time>2026-05-02T13:17:32Z</time></trkpt><trkpt lat="45.93965365644403" lon="11.29219271766837"><ele>1303.0</ele><time>2026-05-02T13:17:33Z</time></trkpt><trkpt lat="45.939536194293424" lon="11.292164227919734"><ele>1303.0</ele><time>2026-05-02T13:17:34Z</time></trkpt><trkpt lat="45.93942288159974" lon="11.292103688183655"><ele>1303.0</ele><time>2026-05-02T13:17:35Z</time></trkpt><trkpt lat="45.939318360673475" lon="11.29201561631544"><ele>1303.0</ele><time>2026-05-02T13:17:36Z</time></trkpt><trkpt lat="45.939227726131826" lon="11.291903010393163"><ele>1303.0</ele><time>2026-05-02T13:17:37Z</time></trkpt><trkpt lat="45.93915540427714" lon="11.291777349099515"><ele>1302.5</ele><time>2026-05-02T13:17:38Z</time></trkpt><trkpt lat="45.9391341230947" lon="11.291619694752168"><ele>1302.0</ele><time>2026-05-02T13:17:39Z</time></trkpt><trkpt lat="45.93911999203858" lon="11.29146331922727"><ele>1301.5</ele><time>2026-05-02T13:17:40Z</time></trkpt><trkpt lat="45.93910252453979" lon="11.291290588427225"><ele>1301.0</ele><time>2026-05-02T13:17:41Z</time></trkpt><trkpt lat="45.93909476673877" lon="11.291123978032426"><ele>1301.0</ele><time>2026-05-02T13:17:42Z</time></trkpt><trkpt lat="45.93907913912029" lon="11.290983586820273"><ele>1301.0</ele><time>2026-05-02T13:17:43Z</time></trkpt><trkpt lat="45.9390446658309" lon="11.290860281713975"><ele>1301.0</ele><time>2026-05-02T13:17:44Z</time></trkpt><trkpt lat="45.938993686350265" lon="11.290757731041115"><ele>1301.0</ele><time>2026-05-02T13:17:45Z</time></trkpt><trkpt lat="45.93892607894581" lon="11.290671015700442"><ele>1301.0</ele><time>2026-05-02T13:17:46Z</time></trkpt><trkpt lat="45.93884815432309" lon="11.290600789298763"><ele>1300.8</ele><time>2026-05-02T13:17:47Z</time></trkpt><trkpt lat="45.93876078359391" lon="11.290530995349455"><ele>1300.6</ele><time>2026-05-02T13:17:48Z</time></trkpt><trkpt lat="45.93866779467128" lon="11.290445587188575"><ele>1300.4</ele><time>2026-05-02T13:17:49.001Z</time></trkpt><trkpt lat="45.938576365180396" lon="11.29035443026257"><ele>1300.2</ele><time>2026-05-02T13:17:50.001Z</time></trkpt><trkpt lat="45.93847894577665" lon="11.29025835300259"><ele>1300.0</ele><time>2026-05-02T13:17:51.001Z</time></trkpt><trkpt lat="45.938379867455446" lon="11.290159428819027"><ele>1300.0</ele><time>2026-05-02T13:17:52.001Z</time></trkpt><trkpt lat="45.938277859455035" lon="11.290067573441446"><ele>1300.0</ele><time>2026-05-02T13:17:53.001Z</time></trkpt><trkpt lat="45.93816780533197" lon="11.289969222769281"><ele>1300.0</ele><time>2026-05-02T13:17:54.001Z</time></trkpt><trkpt lat="45.93804961592073" lon="11.28986779004775"><ele>1300.0</ele><time>2026-05-02T13:17:55.001Z</time></trkpt><trkpt lat="45.93793368552528" lon="11.289767204329024"><ele>1301.25</ele><time>2026-05-02T13:17:56.001Z</time></trkpt><trkpt lat="45.9378294913605" lon="11.28965655877915"><ele>1302.5</ele><time>2026-05-02T13:17:57.001Z</time></trkpt><trkpt lat="45.937741111936745" lon="11.289522562820203"><ele>1303.75</ele><time>2026-05-02T13:17:58.001Z</time></trkpt><trkpt lat="45.9376698736036" lon="11.289363736202365"><ele>1305.0</ele><time>2026-05-02T13:17:59.001Z</time></trkpt><trkpt lat="45.93763860333066" lon="11.2891775540322"><ele>1305.0</ele><time>2026-05-02T13:18:00.001Z</time></trkpt><trkpt lat="45.93760525670462" lon="11.28901155153611"><ele>1305.0</ele><time>2026-05-02T13:18:01.001Z</time></trkpt><trkpt lat="45.937594828161224" lon="11.288843365408713"><ele>1305.0</ele><time>2026-05-02T13:18:02.001Z</time></trkpt><trkpt lat="45.937592975727476" lon="11.288681555547452"><ele>1305.0</ele><time>2026-05-02T13:18:03.001Z</time></trkpt><trkpt lat="45.93758829100101" lon="11.288520411039462"><ele>1306.6</ele><time>2026-05-02T13:18:04.001Z</time></trkpt><trkpt lat="45.937594200572526" lon="11.288360664490133"><ele>1308.2</ele><time>2026-05-02T13:18:05.001Z</time></trkpt><trkpt lat="45.93758874823011" lon="11.288204581538547"><ele>1309.8000000000002</ele><time>2026-05-02T13:18:06.001Z</time></trkpt><trkpt lat="45.937584887367116" lon="11.288048422768759"><ele>1311.4</ele><time>2026-05-02T13:18:07.001Z</time></trkpt><trkpt lat="45.93758009086562" lon="11.287886256132223"><ele>1313.0</ele><time>2026-05-02T13:18:08.001Z</time></trkpt><trkpt lat="45.93757090319972" lon="11.287727238505427"><ele>1311.6666666666667</ele><time>2026-05-02T13:18:09.001Z</time></trkpt><trkpt lat="45.93756011246517" lon="11.287575303600123"><ele>1310.3333333333335</ele><time>2026-05-02T13:18:10.001Z</time></trkpt><trkpt lat="45.93754020438419" lon="11.287441774898271"><ele>1309.0</ele><time>2026-05-02T13:18:11.001Z</time></trkpt><trkpt lat="45.937508863010784" lon="11.28732118589071"><ele>1307.6666666666667</ele><time>2026-05-02T13:18:12.001Z</time></trkpt><trkpt lat="45.93746953529046" lon="11.287219195970616"><ele>1306.3333333333333</ele><time>2026-05-02T13:18:13.001Z</time></trkpt><trkpt lat="45.9374340592247" lon="11.287133255558182"><ele>1305.0</ele><time>2026-05-02T13:18:14.001Z</time></trkpt><trkpt lat="45.93737002233332" lon="11.286988829605544"><ele>1304.8</ele><time>2026-05-02T13:18:16Z</time></trkpt><trkpt lat="45.93732655736116" lon="11.286819664650181"><ele>1304.6</ele><time>2026-05-02T13:18:18Z</time></trkpt><trkpt lat="45.937325879437296" lon="11.286714512381105"><ele>1304.4</ele><time>2026-05-02T13:18:19Z</time></trkpt><trkpt lat="45.937358612240374" lon="11.286603445363165"><ele>1304.2</ele><time>2026-05-02T13:18:20Z</time></trkpt><trkpt lat="45.93741672997188" lon="11.286508788066715"><ele>1304.0</ele><time>2026-05-02T13:18:21Z</time></trkpt><trkpt lat="45.93749370522416" lon="11.286425990184052"><ele>1306.0</ele><time>2026-05-02T13:18:22Z</time></trkpt><trkpt lat="45.937586167148055" lon="11.286327845471696"><ele>1308.0</ele><time>2026-05-02T13:18:23Z</time></trkpt><trkpt lat="45.937682083122475" lon="11.286217806000653"><ele>1310.0</ele><time>2026-05-02T13:18:24Z</time></trkpt><trkpt lat="45.93777872148925" lon="11.286106594966594"><ele>1312.0</ele><time>2026-05-02T13:18:25Z</time></trkpt><trkpt lat="45.93786558879015" lon="11.285995816888706"><ele>1312.0</ele><time>2026-05-02T13:18:26Z</time></trkpt><trkpt lat="45.93795120907936" lon="11.28589152481591"><ele>1312.0</ele><time>2026-05-02T13:18:27Z</time></trkpt><trkpt lat="45.93802755325927" lon="11.285783119122165"><ele>1312.0</ele><time>2026-05-02T13:18:28Z</time></trkpt><trkpt lat="45.93807599171702" lon="11.285652667672998"><ele>1312.0</ele><time>2026-05-02T13:18:29Z</time></trkpt><trkpt lat="45.93807805310039" lon="11.285505809745384"><ele>1312.0</ele><time>2026-05-02T13:18:30Z</time></trkpt><trkpt lat="45.93804914908308" lon="11.28538121183134"><ele>1310.8</ele><time>2026-05-02T13:18:31Z</time></trkpt><trkpt lat="45.938000457103534" lon="11.285268213449376"><ele>1309.6</ele><time>2026-05-02T13:18:32Z</time></trkpt><trkpt lat="45.93795427058024" lon="11.285142426397258"><ele>1308.3999999999999</ele><time>2026-05-02T13:18:33Z</time></trkpt><trkpt lat="45.93793946033788" lon="11.285000660613802"><ele>1307.1999999999998</ele><time>2026-05-02T13:18:34Z</time></trkpt><trkpt lat="45.93796835605601" lon="11.284850161478856"><ele>1306.0</ele><time>2026-05-02T13:18:35Z</time></trkpt><trkpt lat="45.93797729468007" lon="11.284693864984607"><ele>1304.0</ele><time>2026-05-02T13:18:36Z</time></trkpt><trkpt lat="45.93800618118026" lon="11.284536386447014"><ele>1302.0</ele><time>2026-05-02T13:18:36.999Z</time></trkpt><trkpt lat="45.938040693590196" lon="11.284368598953437"><ele>1300.0</ele><time>2026-05-02T13:18:37.999Z</time></trkpt><trkpt lat="45.93808952702564" lon="11.28419752930562"><ele>1298.0</ele><time>2026-05-02T13:18:38.999Z</time></trkpt><trkpt lat="45.938146973101404" lon="11.284029994886255"><ele>1301.0</ele><time>2026-05-02T13:18:39.999Z</time></trkpt><trkpt lat="45.938215085452015" lon="11.283878894799386"><ele>1304.0</ele><time>2026-05-02T13:18:40.999Z</time></trkpt><trkpt lat="45.93829772467507" lon="11.283731559230858"><ele>1307.0</ele><time>2026-05-02T13:18:41.999Z</time></trkpt><trkpt lat="45.93838923621113" lon="11.283590977510668"><ele>1310.0</ele><time>2026-05-02T13:18:42.999Z</time></trkpt><trkpt lat="45.938489505263604" lon="11.283457666007926"><ele>1310.0</ele><time>2026-05-02T13:18:43.999Z</time></trkpt><trkpt lat="45.93859820359644" lon="11.283336760701996"><ele>1310.0</ele><time>2026-05-02T13:18:44.999Z</time></trkpt><trkpt lat="45.93870827677563" lon="11.283230240220757"><ele>1310.0</ele><time>2026-05-02T13:18:45.999Z</time></trkpt><trkpt lat="45.93881232622865" lon="11.283130392201395"><ele>1310.0</ele><time>2026-05-02T13:18:46.999Z</time></trkpt><trkpt lat="45.93890064693257" lon="11.283009926754337"><ele>1305.5</ele><time>2026-05-02T13:18:47.999Z</time></trkpt><trkpt lat="45.93896945375015" lon="11.282873944827404"><ele>1301.0</ele><time>2026-05-02T13:18:48.999Z</time></trkpt><trkpt lat="45.93902390893725" lon="11.282724226410794"><ele>1296.5</ele><time>2026-05-02T13:18:49.999Z</time></trkpt><trkpt lat="45.93906550997084" lon="11.282560506009952"><ele>1292.0</ele><time>2026-05-02T13:18:50.999Z</time></trkpt><trkpt lat="45.93910023315482" lon="11.282393955741245"><ele>1291.5</ele><time>2026-05-02T13:18:51.999Z</time></trkpt><trkpt lat="45.93915446925987" lon="11.282241752375883"><ele>1291.0</ele><time>2026-05-02T13:18:52.999Z</time></trkpt><trkpt lat="45.939197231178916" lon="11.282075643396018"><ele>1290.5</ele><time>2026-05-02T13:18:53.999Z</time></trkpt><trkpt lat="45.93922691169347" lon="11.281892688895002"><ele>1290.0</ele><time>2026-05-02T13:18:54.999Z</time></trkpt><trkpt lat="45.939272920884356" lon="11.28172770390415"><ele>1290.0</ele><time>2026-05-02T13:18:55.999Z</time></trkpt><trkpt lat="45.939314037163626" lon="11.281565098540051"><ele>1290.0</ele><time>2026-05-02T13:18:56.999Z</time></trkpt><trkpt lat="45.93935556150016" lon="11.281408971832647"><ele>1290.0</ele><time>2026-05-02T13:18:57.999Z</time></trkpt><trkpt lat="45.939395909201174" lon="11.281255320122696"><ele>1290.0</ele><time>2026-05-02T13:18:58.999Z</time></trkpt><trkpt lat="45.9394364131682" lon="11.281109998843249"><ele>1284.0</ele><time>2026-05-02T13:18:59.999Z</time></trkpt><trkpt lat="45.9394927028617" lon="11.280998082367061"><ele>1278.0</ele><time>2026-05-02T13:19:00.999Z</time></trkpt><trkpt lat="45.93957087722915" lon="11.280929125979627"><ele>1272.0</ele><time>2026-05-02T13:19:01.999Z</time></trkpt><trkpt lat="45.93966474900183" lon="11.280905309639582"><ele>1266.0</ele><time>2026-05-02T13:19:02.999Z</time></trkpt><trkpt lat="45.93975120953421" lon="11.280955994359958"><ele>1260.0</ele><time>2026-05-02T13:19:03.999Z</time></trkpt><trkpt lat="45.93984252047985" lon="11.280991085624926"><ele>1260.0</ele><time>2026-05-02T13:19:04.999Z</time></trkpt><trkpt lat="45.93993314779466" lon="11.281036619466825"><ele>1260.0</ele><time>2026-05-02T13:19:05.999Z</time></trkpt><trkpt lat="45.94002548752689" lon="11.28104660633233"><ele>1260.0</ele><time>2026-05-02T13:19:06.999Z</time></trkpt><trkpt lat="45.94011977985054" lon="11.28102722109373"><ele>1260.0</ele><time>2026-05-02T13:19:07.999Z</time></trkpt><trkpt lat="45.94021231191477" lon="11.280986404591827"><ele>1260.0</ele><time>2026-05-02T13:19:08.999Z</time></trkpt><trkpt lat="45.940302609935166" lon="11.280916666140964"><ele>1259.6</ele><time>2026-05-02T13:19:09.999Z</time></trkpt><trkpt lat="45.940391405267" lon="11.280833957996714"><ele>1259.2</ele><time>2026-05-02T13:19:10.999Z</time></trkpt><trkpt lat="45.94047883085945" lon="11.28075087886062"><ele>1258.8</ele><time>2026-05-02T13:19:11.999Z</time></trkpt><trkpt lat="45.94056278329012" lon="11.280665493178285"><ele>1258.4</ele><time>2026-05-02T13:19:12.999Z</time></trkpt><trkpt lat="45.94064098433483" lon="11.280577970232937"><ele>1258.0</ele><time>2026-05-02T13:19:13.999Z</time></trkpt><trkpt lat="45.94071650032571" lon="11.280491241832449"><ele>1258.2</ele><time>2026-05-02T13:19:14.999Z</time></trkpt><trkpt lat="45.94079047267494" lon="11.280391784469389"><ele>1258.4</ele><time>2026-05-02T13:19:15.999Z</time></trkpt><trkpt lat="45.94085855186077" lon="11.280291628443658"><ele>1258.6000000000001</ele><time>2026-05-02T13:19:16.999Z</time></trkpt><trkpt lat="45.9409262607728" lon="11.280195118550484"><ele>1258.8</ele><time>2026-05-02T13:19:17.999Z</time></trkpt><trkpt lat="45.94099191503521" lon="11.280103357787363"><ele>1259.0</ele><time>2026-05-02T13:19:18.999Z</time></trkpt><trkpt lat="45.94104965089621" lon="11.280020032692063"><ele>1259.0</ele><time>2026-05-02T13:19:19.999Z</time></trkpt><trkpt lat="45.94110241725267" lon="11.279938294181767"><ele>1259.0</ele><time>2026-05-02T13:19:20.999Z</time></trkpt><trkpt lat="45.94115830350547" lon="11.279853351209828"><ele>1259.0</ele><time>2026-05-02T13:19:21.999Z</time></trkpt><trkpt lat="45.94121853681552" lon="11.279766471091085"><ele>1259.0</ele><time>2026-05-02T13:19:22.999Z</time></trkpt><trkpt lat="45.94128292413016" lon="11.279676431306836"><ele>1259.0</ele><time>2026-05-02T13:19:23.999Z</time></trkpt><trkpt lat="45.94134673730797" lon="11.279570154410415"><ele>1259.0</ele><time>2026-05-02T13:19:24.999Z</time></trkpt><trkpt lat="45.941390326820155" lon="11.27943569399002"><ele>1257.4</ele><time>2026-05-02T13:19:25.999Z</time></trkpt><trkpt lat="45.941409925773236" lon="11.279290935697134"><ele>1255.8000000000002</ele><time>2026-05-02T13:19:26.999Z</time></trkpt><trkpt lat="45.941402443481195" lon="11.279149529986165"><ele>1254.1999999999998</ele><time>2026-05-02T13:19:27.999Z</time></trkpt><trkpt lat="45.94137550167128" lon="11.279026851350617"><ele>1252.6</ele><time>2026-05-02T13:19:28.999Z</time></trkpt><trkpt lat="45.94132361594512" lon="11.278930171392368"><ele>1251.0</ele><time>2026-05-02T13:19:29.999Z</time></trkpt><trkpt lat="45.94124511800756" lon="11.278882694829752"><ele>1251.0</ele><time>2026-05-02T13:19:30.999Z</time></trkpt><trkpt lat="45.94116123920378" lon="11.27887917614128"><ele>1251.0</ele><time>2026-05-02T13:19:31.999Z</time></trkpt><trkpt lat="45.94108258014458" lon="11.278913424543065"><ele>1251.0</ele><time>2026-05-02T13:19:32.999Z</time></trkpt><trkpt lat="45.941005797290316" lon="11.278986039746336"><ele>1251.0</ele><time>2026-05-02T13:19:33.999Z</time></trkpt><trkpt lat="45.94092248925253" lon="11.279066040215168"><ele>1251.0</ele><time>2026-05-02T13:19:34.999Z</time></trkpt><trkpt lat="45.940835016742916" lon="11.279127249681432"><ele>1248.2</ele><time>2026-05-02T13:19:35.999Z</time></trkpt><trkpt lat="45.94074197694794" lon="11.279145557693091"><ele>1245.3999999999999</ele><time>2026-05-02T13:19:36.999Z</time></trkpt><trkpt lat="45.94064748077626" lon="11.279114795716586"><ele>1242.6</ele><time>2026-05-02T13:19:37.999Z</time></trkpt><trkpt lat="45.94056474409115" lon="11.279038320183423"><ele>1239.8</ele><time>2026-05-02T13:19:38.999Z</time></trkpt><trkpt lat="45.94049642417631" lon="11.278930157019467"><ele>1237.0</ele><time>2026-05-02T13:19:39.999Z</time></trkpt><trkpt lat="45.9404502343561" lon="11.27879462045741"><ele>1235.4</ele><time>2026-05-02T13:19:40.999Z</time></trkpt><trkpt lat="45.94040936833264" lon="11.278648011261552"><ele>1233.8000000000002</ele><time>2026-05-02T13:19:42Z</time></trkpt><trkpt lat="45.94035970036546" lon="11.2785084555182"><ele>1232.2</ele><time>2026-05-02T13:19:43Z</time></trkpt><trkpt lat="45.94029778813828" lon="11.278384451572162"><ele>1230.6000000000001</ele><time>2026-05-02T13:19:44Z</time></trkpt><trkpt lat="45.940231902799304" lon="11.278270300393235"><ele>1229.0</ele><time>2026-05-02T13:19:45Z</time></trkpt><trkpt lat="45.940165748698526" lon="11.278162538571227"><ele>1227.6000000000001</ele><time>2026-05-02T13:19:46Z</time></trkpt><trkpt lat="45.94009576690311" lon="11.278065124854898"><ele>1226.2</ele><time>2026-05-02T13:19:47Z</time></trkpt><trkpt lat="45.94001990250711" lon="11.277987276347579"><ele>1224.8000000000002</ele><time>2026-05-02T13:19:48Z</time></trkpt><trkpt lat="45.939939378206816" lon="11.277928583262673"><ele>1223.4</ele><time>2026-05-02T13:19:49Z</time></trkpt><trkpt lat="45.939875014749134" lon="11.277892495126066"><ele>1222.0</ele><time>2026-05-02T13:19:50Z</time></trkpt><trkpt lat="45.939770126051286" lon="11.277871009789198"><ele>1221.0</ele><time>2026-05-02T13:19:52Z</time></trkpt><trkpt lat="45.93968904989665" lon="11.277863503057308"><ele>1220.0</ele><time>2026-05-02T13:19:54Z</time></trkpt><trkpt lat="45.939627773890614" lon="11.277778606587356"><ele>1219.0</ele><time>2026-05-02T13:19:56Z</time></trkpt><trkpt lat="45.93967204801362" lon="11.27762261570357"><ele>1218.0</ele><time>2026-05-02T13:19:58Z</time></trkpt><trkpt lat="45.93974768987361" lon="11.277619405253693"><ele>1217.0</ele><time>2026-05-02T13:19:59Z</time></trkpt><trkpt lat="45.93981547481005" lon="11.27763826134041"><ele>1216.0</ele><time>2026-05-02T13:20:00Z</time></trkpt><trkpt lat="45.93989869883418" lon="11.277634811844615"><ele>1216.0</ele><time>2026-05-02T13:20:01Z</time></trkpt><trkpt lat="45.93998035801147" lon="11.277649974649568"><ele>1216.0</ele><time>2026-05-02T13:20:02Z</time></trkpt><trkpt lat="45.94005484059647" lon="11.277660714463984"><ele>1216.0</ele><time>2026-05-02T13:20:03Z</time></trkpt><trkpt lat="45.940125417920115" lon="11.277672301282042"><ele>1216.0</ele><time>2026-05-02T13:20:04Z</time></trkpt><trkpt lat="45.94023508731066" lon="11.277681132949592"><ele>1216.0</ele><time>2026-05-02T13:20:06Z</time></trkpt><trkpt lat="45.9403065274692" lon="11.277621071911604"><ele>1216.0</ele><time>2026-05-02T13:20:08Z</time></trkpt><trkpt lat="45.940366560474715" lon="11.277519261713474"><ele>1215.8</ele><time>2026-05-02T13:20:10Z</time></trkpt><trkpt lat="45.94042958307824" lon="11.27742208217191"><ele>1215.6</ele><time>2026-05-02T13:20:12Z</time></trkpt><trkpt lat="45.94049034614239" lon="11.277330582103215"><ele>1215.4</ele><time>2026-05-02T13:20:14Z</time></trkpt><trkpt lat="45.94054514992378" lon="11.277205670143454"><ele>1215.2</ele><time>2026-05-02T13:20:16Z</time></trkpt><trkpt lat="45.94058204646439" lon="11.27706577421266"><ele>1215.0</ele><time>2026-05-02T13:20:18Z</time></trkpt><trkpt lat="45.94061180262072" lon="11.27690489662572"><ele>1215.0</ele><time>2026-05-02T13:20:20Z</time></trkpt><trkpt lat="45.940630603360155" lon="11.276815696917948"><ele>1215.0</ele><time>2026-05-02T13:20:20.999Z</time></trkpt><trkpt lat="45.94064921941225" lon="11.276717973231015"><ele>1215.0</ele><time>2026-05-02T13:20:21.999Z</time></trkpt><trkpt lat="45.94065009267995" lon="11.276616470148168"><ele>1215.0</ele><time>2026-05-02T13:20:22.999Z</time></trkpt><trkpt lat="45.94061975711136" lon="11.27651734492319"><ele>1215.0</ele><time>2026-05-02T13:20:23.999Z</time></trkpt><trkpt lat="45.940564913771325" lon="11.276413130423546"><ele>1215.0</ele><time>2026-05-02T13:20:24.999Z</time></trkpt><trkpt lat="45.94049618607163" lon="11.276300340132122"><ele>1213.6</ele><time>2026-05-02T13:20:25.999Z</time></trkpt><trkpt lat="45.9404232115459" lon="11.276188809441273"><ele>1212.2</ele><time>2026-05-02T13:20:26.999Z</time></trkpt><trkpt lat="45.94035466096973" lon="11.276078933830748"><ele>1210.8</ele><time>2026-05-02T13:20:27.999Z</time></trkpt><trkpt lat="45.94028761513099" lon="11.275974095134933"><ele>1209.4</ele><time>2026-05-02T13:20:28.999Z</time></trkpt><trkpt lat="45.940226180626816" lon="11.275876446709685"><ele>1208.0</ele><time>2026-05-02T13:20:29.999Z</time></trkpt><trkpt lat="45.940175604167685" lon="11.275795239031131"><ele>1208.0</ele><time>2026-05-02T13:20:31Z</time></trkpt><trkpt lat="45.94012457084219" lon="11.275713592742239"><ele>1208.0</ele><time>2026-05-02T13:20:32Z</time></trkpt><trkpt lat="45.940074809918734" lon="11.275634169148784"><ele>1208.0</ele><time>2026-05-02T13:20:33Z</time></trkpt><trkpt lat="45.940025960365745" lon="11.275556925392996"><ele>1208.0</ele><time>2026-05-02T13:20:34Z</time></trkpt><trkpt lat="45.939976956963825" lon="11.275481389136042"><ele>1208.0</ele><time>2026-05-02T13:20:35Z</time></trkpt><trkpt lat="45.93992533441204" lon="11.275406837670788"><ele>1208.0</ele><time>2026-05-02T13:20:36Z</time></trkpt><trkpt lat="45.93986685047715" lon="11.275319461650646"><ele>1206.8333333333335</ele><time>2026-05-02T13:20:37Z</time></trkpt><trkpt lat="45.939804428116226" lon="11.275220740389504"><ele>1205.6666666666667</ele><time>2026-05-02T13:20:38Z</time></trkpt><trkpt lat="45.93973938429257" lon="11.275117861241377"><ele>1204.5</ele><time>2026-05-02T13:20:39Z</time></trkpt><trkpt lat="45.93967933465298" lon="11.27502477449138"><ele>1203.3333333333333</ele><time>2026-05-02T13:20:40Z</time></trkpt><trkpt lat="45.93962746321696" lon="11.274945592611873"><ele>1202.1666666666665</ele><time>2026-05-02T13:20:41Z</time></trkpt><trkpt lat="45.93958148487418" lon="11.274874456378623"><ele>1201.0</ele><time>2026-05-02T13:20:42Z</time></trkpt><trkpt lat="45.93950316023141" lon="11.274741428942773"><ele>1200.1666666666665</ele><time>2026-05-02T13:20:44Z</time></trkpt><trkpt lat="45.93946561232852" lon="11.274663041716108"><ele>1199.3333333333333</ele><time>2026-05-02T13:20:45Z</time></trkpt><trkpt lat="45.93944427918766" lon="11.274562713794511"><ele>1198.5</ele><time>2026-05-02T13:20:46Z</time></trkpt><trkpt lat="45.93942959748192" lon="11.274450369727653"><ele>1197.6666666666667</ele><time>2026-05-02T13:20:47Z</time></trkpt><trkpt lat="45.93943388052541" lon="11.274318984210769"><ele>1196.8333333333335</ele><time>2026-05-02T13:20:48Z</time></trkpt><trkpt lat="45.939451320119" lon="11.27418449799154"><ele>1196.0</ele><time>2026-05-02T13:20:49Z</time></trkpt><trkpt lat="45.93947943664447" lon="11.27403017422105"><ele>1194.5</ele><time>2026-05-02T13:20:50Z</time></trkpt><trkpt lat="45.93951751568354" lon="11.273872574833966"><ele>1193.0</ele><time>2026-05-02T13:20:51Z</time></trkpt><trkpt lat="45.939558948687456" lon="11.273704096545918"><ele>1191.5</ele><time>2026-05-02T13:20:52Z</time></trkpt><trkpt lat="45.93959510273972" lon="11.2735336475527"><ele>1190.0</ele><time>2026-05-02T13:20:53Z</time></trkpt><trkpt lat="45.93963425567586" lon="11.273371593223215"><ele>1190.0</ele><time>2026-05-02T13:20:54Z</time></trkpt><trkpt lat="45.939693416038004" lon="11.273219363540642"><ele>1190.0</ele><time>2026-05-02T13:20:55Z</time></trkpt><trkpt lat="45.93978640567628" lon="11.273103121232435"><ele>1190.0</ele><time>2026-05-02T13:20:56Z</time></trkpt><trkpt lat="45.939894294262174" lon="11.273024174319934"><ele>1190.0</ele><time>2026-05-02T13:20:57Z</time></trkpt><trkpt lat="45.94001733803429" lon="11.27297120194781"><ele>1188.0</ele><time>2026-05-02T13:20:58Z</time></trkpt><trkpt lat="45.94014104438503" lon="11.272897069264964"><ele>1186.0</ele><time>2026-05-02T13:20:59Z</time></trkpt><trkpt lat="45.94026219370004" lon="11.272796951942894"><ele>1184.0</ele><time>2026-05-02T13:21:00Z</time></trkpt><trkpt lat="45.940367949272755" lon="11.2726842924791"><ele>1182.0</ele><time>2026-05-02T13:21:01Z</time></trkpt><trkpt lat="45.94046235089044" lon="11.272565988249157"><ele>1182.0</ele><time>2026-05-02T13:21:02Z</time></trkpt><trkpt lat="45.940550487468116" lon="11.27245093039593"><ele>1182.0</ele><time>2026-05-02T13:21:03Z</time></trkpt><trkpt lat="45.94063424261584" lon="11.272338161963928"><ele>1182.0</ele><time>2026-05-02T13:21:04Z</time></trkpt><trkpt lat="45.94071518619517" lon="11.272247783399163"><ele>1182.0</ele><time>2026-05-02T13:21:05Z</time></trkpt><trkpt lat="45.94078814674247" lon="11.272164955952872"><ele>1182.0</ele><time>2026-05-02T13:21:06Z</time></trkpt><trkpt lat="45.940850691922726" lon="11.272069055845227"><ele>1181.0</ele><time>2026-05-02T13:21:07Z</time></trkpt><trkpt lat="45.94089534341696" lon="11.271943817812723"><ele>1180.0</ele><time>2026-05-02T13:21:08Z</time></trkpt><trkpt lat="45.94092879674471" lon="11.27179488306387"><ele>1179.0</ele><time>2026-05-02T13:21:09Z</time></trkpt><trkpt lat="45.94095824493061" lon="11.271636210640606"><ele>1178.0</ele><time>2026-05-02T13:21:10Z</time></trkpt><trkpt lat="45.94099361791316" lon="11.271474488560123"><ele>1177.0</ele><time>2026-05-02T13:21:11Z</time></trkpt><trkpt lat="45.941029826714285" lon="11.271314120034182"><ele>1177.0</ele><time>2026-05-02T13:21:12Z</time></trkpt><trkpt lat="45.94106584803166" lon="11.271155717783907"><ele>1177.0</ele><time>2026-05-02T13:21:13Z</time></trkpt><trkpt lat="45.94108721755375" lon="11.270998606823039"><ele>1177.0</ele><time>2026-05-02T13:21:14Z</time></trkpt><trkpt lat="45.94106893833827" lon="11.270860880890726"><ele>1177.0</ele><time>2026-05-02T13:21:15Z</time></trkpt><trkpt lat="45.94101881739741" lon="11.270703534566234"><ele>1177.0</ele><time>2026-05-02T13:21:16Z</time></trkpt><trkpt lat="45.940966439316895" lon="11.270547427300873"><ele>1176.5</ele><time>2026-05-02T13:21:17Z</time></trkpt><trkpt lat="45.94092210190347" lon="11.270390769361743"><ele>1176.0</ele><time>2026-05-02T13:21:18Z</time></trkpt><trkpt lat="45.940885390192804" lon="11.27023384693616"><ele>1175.5</ele><time>2026-05-02T13:21:19Z</time></trkpt><trkpt lat="45.94084385644198" lon="11.270074202707377"><ele>1175.0</ele><time>2026-05-02T13:21:20Z</time></trkpt><trkpt lat="45.94080532553895" lon="11.269913514343722"><ele>1172.4</ele><time>2026-05-02T13:21:21Z</time></trkpt><trkpt lat="45.94077106094897" lon="11.269759591352281"><ele>1169.8</ele><time>2026-05-02T13:21:22Z</time></trkpt><trkpt lat="45.94073630551437" lon="11.269616976155708"><ele>1167.2</ele><time>2026-05-02T13:21:23.001Z</time></trkpt><trkpt lat="45.94070951254775" lon="11.269501808589286"><ele>1164.6</ele><time>2026-05-02T13:21:24.001Z</time></trkpt><trkpt lat="45.940683557397925" lon="11.269391883694004"><ele>1162.0</ele><time>2026-05-02T13:21:25.001Z</time></trkpt><trkpt lat="45.94066073785688" lon="11.269285283986084"><ele>1162.0</ele><time>2026-05-02T13:21:26.001Z</time></trkpt><trkpt lat="45.94064558188669" lon="11.269174561102256"><ele>1162.0</ele><time>2026-05-02T13:21:27.001Z</time></trkpt><trkpt lat="45.940637631649494" lon="11.269059545004742"><ele>1162.0</ele><time>2026-05-02T13:21:28.001Z</time></trkpt><trkpt lat="45.94064419127661" lon="11.268940374628116"><ele>1162.0</ele><time>2026-05-02T13:21:29.001Z</time></trkpt><trkpt lat="45.94066054784869" lon="11.268819767904912"><ele>1162.0</ele><time>2026-05-02T13:21:30.001Z</time></trkpt><trkpt lat="45.940658851962624" lon="11.268697876673384"><ele>1162.0</ele><time>2026-05-02T13:21:31.001Z</time></trkpt><trkpt lat="45.94061893831041" lon="11.26858774775993"><ele>1162.4</ele><time>2026-05-02T13:21:32.001Z</time></trkpt><trkpt lat="45.940557617680916" lon="11.26849246767616"><ele>1162.8000000000002</ele><time>2026-05-02T13:21:33.001Z</time></trkpt><trkpt lat="45.94049691171121" lon="11.2683851451975"><ele>1163.2</ele><time>2026-05-02T13:21:34.001Z</time></trkpt><trkpt lat="45.940467722715134" lon="11.268222883515586"><ele>1163.6000000000001</ele><time>2026-05-02T13:21:35.001Z</time></trkpt><trkpt lat="45.940449133299104" lon="11.26801728638358"><ele>1164.0</ele><time>2026-05-02T13:21:36.001Z</time></trkpt><trkpt lat="45.940427286536746" lon="11.267806674109393"><ele>1164.0</ele><time>2026-05-02T13:21:37.001Z</time></trkpt><trkpt lat="45.940376913148675" lon="11.267613109653848"><ele>1164.0</ele><time>2026-05-02T13:21:38.001Z</time></trkpt><trkpt lat="45.94029726727616" lon="11.267428048871166"><ele>1164.0</ele><time>2026-05-02T13:21:39.001Z</time></trkpt><trkpt lat="45.94022740378692" lon="11.267250839942403"><ele>1164.0</ele><time>2026-05-02T13:21:40.001Z</time></trkpt><trkpt lat="45.94020451220809" lon="11.2670597755944"><ele>1164.0</ele><time>2026-05-02T13:21:41.001Z</time></trkpt><trkpt lat="45.94021483277018" lon="11.266864199648252"><ele>1164.0</ele><time>2026-05-02T13:21:42.001Z</time></trkpt><trkpt lat="45.94025786349669" lon="11.266668904768508"><ele>1164.0</ele><time>2026-05-02T13:21:43.001Z</time></trkpt><trkpt lat="45.94032909750554" lon="11.266476318021217"><ele>1164.0</ele><time>2026-05-02T13:21:44.001Z</time></trkpt><trkpt lat="45.940404324955374" lon="11.266294754390824"><ele>1163.0</ele><time>2026-05-02T13:21:45.001Z</time></trkpt><trkpt lat="45.9404391408753" lon="11.266097768555374"><ele>1162.0</ele><time>2026-05-02T13:21:46.001Z</time></trkpt><trkpt lat="45.94045744359381" lon="11.26592516372016"><ele>1161.0</ele><time>2026-05-02T13:21:47.001Z</time></trkpt><trkpt lat="45.94049420164195" lon="11.265788390559086"><ele>1160.0</ele><time>2026-05-02T13:21:48.001Z</time></trkpt><trkpt lat="45.94056572007049" lon="11.265673498515518"><ele>1157.25</ele><time>2026-05-02T13:21:49.001Z</time></trkpt><trkpt lat="45.94065939561412" lon="11.265595729298568"><ele>1154.5</ele><time>2026-05-02T13:21:50.001Z</time></trkpt><trkpt lat="45.940750107039904" lon="11.265484093646704"><ele>1151.75</ele><time>2026-05-02T13:21:51.001Z</time></trkpt><trkpt lat="45.94081682010132" lon="11.265319163118122"><ele>1149.0</ele><time>2026-05-02T13:21:52.001Z</time></trkpt><trkpt lat="45.94085023157816" lon="11.265126539125852"><ele>1149.0</ele><time>2026-05-02T13:21:53.001Z</time></trkpt><trkpt lat="45.94087331152239" lon="11.26493067150907"><ele>1149.0</ele><time>2026-05-02T13:21:54.001Z</time></trkpt><trkpt lat="45.94092098405967" lon="11.264757177594234"><ele>1149.0</ele><time>2026-05-02T13:21:55.001Z</time></trkpt><trkpt lat="45.94100155473627" lon="11.264614875087481"><ele>1149.0</ele><time>2026-05-02T13:21:56.001Z</time></trkpt><trkpt lat="45.94105536933677" lon="11.26450946559902"><ele>1150.5</ele><time>2026-05-02T13:21:57.001Z</time></trkpt><trkpt lat="45.941092086234704" lon="11.264420294579432"><ele>1152.0</ele><time>2026-05-02T13:21:58.001Z</time></trkpt><trkpt lat="45.94111384695255" lon="11.264333241370467"><ele>1153.5</ele><time>2026-05-02T13:21:59.001Z</time></trkpt><trkpt lat="45.941109455272674" lon="11.264196046412223"><ele>1155.0</ele><time>2026-05-02T13:22:01.001Z</time></trkpt><trkpt lat="45.94110903948726" lon="11.26407780137205"><ele>1156.5</ele><time>2026-05-02T13:22:04.001Z</time></trkpt><trkpt lat="45.94104349371855" lon="11.26401660034397"><ele>1158.0</ele><time>2026-05-02T13:26:58.001Z</time></trkpt><trkpt lat="45.94093585712606" lon="11.263895398214514"><ele>1156.5</ele><time>2026-05-02T13:27:00.001Z</time></trkpt><trkpt lat="45.940875333923344" lon="11.26380533729149"><ele>1155.0</ele><time>2026-05-02T13:27:01.001Z</time></trkpt><trkpt lat="45.940806221236485" lon="11.263764777204523"><ele>1153.5</ele><time>2026-05-02T13:27:02.001Z</time></trkpt><trkpt lat="45.940752262385" lon="11.263710037234606"><ele>1152.0</ele><time>2026-05-02T13:27:03.001Z</time></trkpt><trkpt lat="45.940700636029376" lon="11.263649963783553"><ele>1150.5</ele><time>2026-05-02T13:27:04.001Z</time></trkpt><trkpt lat="45.940648247967246" lon="11.26357161538016"><ele>1149.0</ele><time>2026-05-02T13:27:05.001Z</time></trkpt><trkpt lat="45.94060900920897" lon="11.263465120731825"><ele>1149.0</ele><time>2026-05-02T13:27:06.001Z</time></trkpt><trkpt lat="45.94057949051214" lon="11.263362305321492"><ele>1149.0</ele><time>2026-05-02T13:27:07.001Z</time></trkpt><trkpt lat="45.94055354366916" lon="11.2632603137166"><ele>1149.0</ele><time>2026-05-02T13:27:08.001Z</time></trkpt><trkpt lat="45.94052289912716" lon="11.263154184418507"><ele>1149.0</ele><time>2026-05-02T13:27:09.001Z</time></trkpt><trkpt lat="45.94048434834547" lon="11.263047167409137"><ele>1149.0</ele><time>2026-05-02T13:27:10.001Z</time></trkpt><trkpt lat="45.940435022817894" lon="11.262937715014138"><ele>1149.0</ele><time>2026-05-02T13:27:11.001Z</time></trkpt><trkpt lat="45.9403844031321" lon="11.262828837734146"><ele>1149.0</ele><time>2026-05-02T13:27:12.001Z</time></trkpt><trkpt lat="45.94032686469204" lon="11.262720858985581"><ele>1149.0</ele><time>2026-05-02T13:27:13.001Z</time></trkpt><trkpt lat="45.94026796093171" lon="11.262614162561608"><ele>1149.0</ele><time>2026-05-02T13:27:14.001Z</time></trkpt><trkpt lat="45.94021002791531" lon="11.262505701310532"><ele>1149.0</ele><time>2026-05-02T13:27:15.001Z</time></trkpt><trkpt lat="45.94015996287007" lon="11.262403179400017"><ele>1149.0</ele><time>2026-05-02T13:27:16.001Z</time></trkpt><trkpt lat="45.940117192449605" lon="11.262311546886313"><ele>1149.0</ele><time>2026-05-02T13:27:17.001Z</time></trkpt><trkpt lat="45.94007694864146" lon="11.26223265772561"><ele>1148.0</ele><time>2026-05-02T13:27:18.001Z</time></trkpt><trkpt lat="45.940006339558686" lon="11.262087352661846"><ele>1147.0</ele><time>2026-05-02T13:27:20.001Z</time></trkpt><trkpt lat="45.939940235647114" lon="11.261953052020877"><ele>1146.0</ele><time>2026-05-02T13:27:22.001Z</time></trkpt><trkpt lat="45.93986094097883" lon="11.261807563896157"><ele>1145.0</ele><time>2026-05-02T13:27:24.001Z</time></trkpt><trkpt lat="45.93982070481616" lon="11.261728882672678"><ele>1144.0</ele><time>2026-05-02T13:27:25.001Z</time></trkpt><trkpt lat="45.93977874755139" lon="11.26164665750107"><ele>1144.0</ele><time>2026-05-02T13:27:26.001Z</time></trkpt><trkpt lat="45.939734845629765" lon="11.261566429551864"><ele>1144.0</ele><time>2026-05-02T13:27:27.001Z</time></trkpt><trkpt lat="45.93968919369981" lon="11.261484552438294"><ele>1144.0</ele><time>2026-05-02T13:27:28.001Z</time></trkpt><trkpt lat="45.939339881950055" lon="11.261199964237505"><ele>1143.6000000000001</ele><time>2026-05-02T13:27:33.001Z</time></trkpt><trkpt lat="45.939247443010856" lon="11.261165239161668"><ele>1143.2</ele><time>2026-05-02T13:27:34.001Z</time></trkpt><trkpt lat="45.93915163268605" lon="11.261122858072868"><ele>1142.8000000000002</ele><time>2026-05-02T13:27:35.001Z</time></trkpt><trkpt lat="45.939053794419685" lon="11.261076013835684"><ele>1142.4</ele><time>2026-05-02T13:27:36.001Z</time></trkpt><trkpt lat="45.938958387353104" lon="11.261007815991034"><ele>1142.0</ele><time>2026-05-02T13:27:37.001Z</time></trkpt><trkpt lat="45.938864694272596" lon="11.260927349192317"><ele>1142.0</ele><time>2026-05-02T13:27:38.001Z</time></trkpt><trkpt lat="45.93877307876933" lon="11.260839206662899"><ele>1142.0</ele><time>2026-05-02T13:27:39.001Z</time></trkpt><trkpt lat="45.93868611009525" lon="11.260745385689438"><ele>1142.0</ele><time>2026-05-02T13:27:40.001Z</time></trkpt><trkpt lat="45.938591803860646" lon="11.260655191070567"><ele>1142.0</ele><time>2026-05-02T13:27:41.001Z</time></trkpt><trkpt lat="45.938502261580894" lon="11.260554294172733"><ele>1142.0</ele><time>2026-05-02T13:27:42.001Z</time></trkpt><trkpt lat="45.93840605966211" lon="11.26047542057327"><ele>1142.4</ele><time>2026-05-02T13:27:43.001Z</time></trkpt><trkpt lat="45.93831248072598" lon="11.260397541909017"><ele>1142.8000000000002</ele><time>2026-05-02T13:27:44.001Z</time></trkpt><trkpt lat="45.93821629265973" lon="11.260328473124284"><ele>1143.2</ele><time>2026-05-02T13:27:45.001Z</time></trkpt><trkpt lat="45.938121877267555" lon="11.260258781772501"><ele>1143.6000000000001</ele><time>2026-05-02T13:27:46.001Z</time></trkpt><trkpt lat="45.93804039235006" lon="11.260174620985897"><ele>1144.0</ele><time>2026-05-02T13:27:47.001Z</time></trkpt><trkpt lat="45.93798741848595" lon="11.260063459839587"><ele>1144.0</ele><time>2026-05-02T13:27:48.001Z</time></trkpt><trkpt lat="45.93795144705635" lon="11.259946967438076"><ele>1144.0</ele><time>2026-05-02T13:27:49.001Z</time></trkpt><trkpt lat="45.937921992371244" lon="11.259826616193944"><ele>1144.0</ele><time>2026-05-02T13:27:50.001Z</time></trkpt><trkpt lat="45.93789812539461" lon="11.259675692534888"><ele>1144.0</ele><time>2026-05-02T13:27:51.001Z</time></trkpt><trkpt lat="45.93789357758399" lon="11.259528867960348"><ele>1144.0</ele><time>2026-05-02T13:27:52.001Z</time></trkpt><trkpt lat="45.93791162295393" lon="11.259379479077753"><ele>1143.8</ele><time>2026-05-02T13:27:53.001Z</time></trkpt><trkpt lat="45.937935584180444" lon="11.259232850617899"><ele>1143.6000000000001</ele><time>2026-05-02T13:27:54.001Z</time></trkpt><trkpt lat="45.937959144102685" lon="11.259090729395082"><ele>1143.4</ele><time>2026-05-02T13:27:55.001Z</time></trkpt><trkpt lat="45.93798032953487" lon="11.25895487410618"><ele>1143.2</ele><time>2026-05-02T13:27:56.001Z</time></trkpt><trkpt lat="45.93798443676467" lon="11.258819243166707"><ele>1143.0</ele><time>2026-05-02T13:27:57.001Z</time></trkpt><trkpt lat="45.93797692023631" lon="11.258684742833575"><ele>1141.0</ele><time>2026-05-02T13:27:58.001Z</time></trkpt><trkpt lat="45.93796386680677" lon="11.258542095812322"><ele>1139.0</ele><time>2026-05-02T13:27:59.001Z</time></trkpt><trkpt lat="45.93794934795434" lon="11.258395673946728"><ele>1137.0</ele><time>2026-05-02T13:28:00.001Z</time></trkpt><trkpt lat="45.937933995843125" lon="11.258254939693003"><ele>1135.0</ele><time>2026-05-02T13:28:01.001Z</time></trkpt><trkpt lat="45.93792402226318" lon="11.258135782525834"><ele>1133.0</ele><time>2026-05-02T13:28:02.001Z</time></trkpt><trkpt lat="45.937913666351484" lon="11.258009639998502"><ele>1133.6</ele><time>2026-05-02T13:28:03.001Z</time></trkpt><trkpt lat="45.93791867691668" lon="11.257867961478945"><ele>1134.1999999999998</ele><time>2026-05-02T13:28:04.001Z</time></trkpt><trkpt lat="45.93793307804882" lon="11.257716169960386"><ele>1134.8</ele><time>2026-05-02T13:28:05.001Z</time></trkpt><trkpt lat="45.93795027221956" lon="11.257558601559207"><ele>1135.3999999999999</ele><time>2026-05-02T13:28:06.001Z</time></trkpt><trkpt lat="45.93796910433751" lon="11.257398129056957"><ele>1136.0</ele><time>2026-05-02T13:28:07.001Z</time></trkpt><trkpt lat="45.93800162844465" lon="11.257243567589036"><ele>1136.0</ele><time>2026-05-02T13:28:08.001Z</time></trkpt><trkpt lat="45.93801871997401" lon="11.257083071466385"><ele>1136.0</ele><time>2026-05-02T13:28:09.001Z</time></trkpt><trkpt lat="45.938015479140034" lon="11.256922349370775"><ele>1136.0</ele><time>2026-05-02T13:28:10.001Z</time></trkpt><trkpt lat="45.93802312461718" lon="11.256765163939194"><ele>1136.0</ele><time>2026-05-02T13:28:11.001Z</time></trkpt><trkpt lat="45.93802349944355" lon="11.256604806129614"><ele>1136.0</ele><time>2026-05-02T13:28:12.001Z</time></trkpt><trkpt lat="45.93803005644156" lon="11.256445117578187"><ele>1137.8</ele><time>2026-05-02T13:28:13.001Z</time></trkpt><trkpt lat="45.938046869466575" lon="11.256292209715"><ele>1139.6</ele><time>2026-05-02T13:28:14.001Z</time></trkpt><trkpt lat="45.93808693214504" lon="11.256146065615953"><ele>1141.4</ele><time>2026-05-02T13:28:15.001Z</time></trkpt><trkpt lat="45.938107936617534" lon="11.255990651226014"><ele>1143.2</ele><time>2026-05-02T13:28:16.001Z</time></trkpt><trkpt lat="45.93811929550512" lon="11.25584631162116"><ele>1145.0</ele><time>2026-05-02T13:28:17.001Z</time></trkpt><trkpt lat="45.93812721798231" lon="11.255710168075183"><ele>1145.6</ele><time>2026-05-02T13:28:18.001Z</time></trkpt><trkpt lat="45.938130222189024" lon="11.25556402647845"><ele>1146.2</ele><time>2026-05-02T13:28:19.001Z</time></trkpt><trkpt lat="45.93816198702085" lon="11.255428093740491"><ele>1146.8</ele><time>2026-05-02T13:28:20.001Z</time></trkpt><trkpt lat="45.93820986157768" lon="11.255310858641158"><ele>1147.4</ele><time>2026-05-02T13:28:21.001Z</time></trkpt><trkpt lat="45.93827303787055" lon="11.255195647165865"><ele>1148.0</ele><time>2026-05-02T13:28:22.001Z</time></trkpt><trkpt lat="45.938348514422195" lon="11.255108304411225"><ele>1148.4</ele><time>2026-05-02T13:28:23.001Z</time></trkpt><trkpt lat="45.93842829989852" lon="11.255032657150643"><ele>1148.8</ele><time>2026-05-02T13:28:24.001Z</time></trkpt><trkpt lat="45.93851303751504" lon="11.254963212284933"><ele>1149.2</ele><time>2026-05-02T13:28:25.001Z</time></trkpt><trkpt lat="45.938600898242214" lon="11.254888737300472"><ele>1149.6</ele><time>2026-05-02T13:28:26.001Z</time></trkpt><trkpt lat="45.93868486440147" lon="11.254820636427477"><ele>1150.0</ele><time>2026-05-02T13:28:27.001Z</time></trkpt><trkpt lat="45.938766725943765" lon="11.254752291001044"><ele>1150.0</ele><time>2026-05-02T13:28:28.001Z</time></trkpt><trkpt lat="45.93884574431522" lon="11.254684463251383"><ele>1150.0</ele><time>2026-05-02T13:28:29.001Z</time></trkpt><trkpt lat="45.93892323854958" lon="11.254616620538794"><ele>1150.0</ele><time>2026-05-02T13:28:30.001Z</time></trkpt><trkpt lat="45.93900133702119" lon="11.254555364929187"><ele>1150.0</ele><time>2026-05-02T13:28:31.001Z</time></trkpt><trkpt lat="45.93908787254367" lon="11.25452709805417"><ele>1150.0</ele><time>2026-05-02T13:28:32.001Z</time></trkpt><trkpt lat="45.9391687254481" lon="11.254464380228582"><ele>1151.0</ele><time>2026-05-02T13:28:33.001Z</time></trkpt><trkpt lat="45.93925682516034" lon="11.25442964147873"><ele>1152.0</ele><time>2026-05-02T13:28:34.001Z</time></trkpt><trkpt lat="45.939347762096176" lon="11.254395099258145"><ele>1153.0</ele><time>2026-05-02T13:28:35.001Z</time></trkpt><trkpt lat="45.93943902324471" lon="11.254366801565638"><ele>1154.0</ele><time>2026-05-02T13:28:36.001Z</time></trkpt><trkpt lat="45.939531476003246" lon="11.254342416747583"><ele>1155.0</ele><time>2026-05-02T13:28:37.001Z</time></trkpt><trkpt lat="45.93962559282888" lon="11.254321285410493"><ele>1155.0</ele><time>2026-05-02T13:28:38.001Z</time></trkpt><trkpt lat="45.93971598630209" lon="11.254305244988176"><ele>1155.0</ele><time>2026-05-02T13:28:39.001Z</time></trkpt><trkpt lat="45.93980543251355" lon="11.254280955959597"><ele>1155.0</ele><time>2026-05-02T13:28:40.001Z</time></trkpt><trkpt lat="45.93988813672696" lon="11.254241731645353"><ele>1155.0</ele><time>2026-05-02T13:28:41.001Z</time></trkpt><trkpt lat="45.939961477517826" lon="11.25418542465105"><ele>1155.0</ele><time>2026-05-02T13:28:42.001Z</time></trkpt><trkpt lat="45.94002525549303" lon="11.254109600697555"><ele>1155.0</ele><time>2026-05-02T13:28:43.001Z</time></trkpt><trkpt lat="45.940078942895525" lon="11.2540179553428"><ele>1156.1666666666667</ele><time>2026-05-02T13:28:44.001Z</time></trkpt><trkpt lat="45.940120188283046" lon="11.253912785599832"><ele>1157.3333333333333</ele><time>2026-05-02T13:28:45.001Z</time></trkpt><trkpt lat="45.94014560002239" lon="11.253797288878008"><ele>1158.5</ele><time>2026-05-02T13:28:46.001Z</time></trkpt><trkpt lat="45.94015788396201" lon="11.253671915995843"><ele>1159.6666666666665</ele><time>2026-05-02T13:28:47.001Z</time></trkpt><trkpt lat="45.94016338464432" lon="11.253542804971264"><ele>1160.8333333333333</ele><time>2026-05-02T13:28:48.001Z</time></trkpt><trkpt lat="45.94017032799831" lon="11.253412603454422"><ele>1162.0</ele><time>2026-05-02T13:28:49.001Z</time></trkpt><trkpt lat="45.940202043738886" lon="11.25328821673399"><ele>1162.0</ele><time>2026-05-02T13:28:50.001Z</time></trkpt><trkpt lat="45.940217752565054" lon="11.253156646418443"><ele>1162.0</ele><time>2026-05-02T13:28:51.001Z</time></trkpt><trkpt lat="45.94027462582296" lon="11.253036457273915"><ele>1162.0</ele><time>2026-05-02T13:28:52.001Z</time></trkpt><trkpt lat="45.94033377360728" lon="11.252914418459133"><ele>1162.0</ele><time>2026-05-02T13:28:53.001Z</time></trkpt><trkpt lat="45.94040936601451" lon="11.252810160629284"><ele>1162.0</ele><time>2026-05-02T13:28:54.001Z</time></trkpt><trkpt lat="45.940471963044004" lon="11.252693373346267"><ele>1163.6</ele><time>2026-05-02T13:28:55.001Z</time></trkpt><trkpt lat="45.94053409219293" lon="11.252573817800577"><ele>1165.2</ele><time>2026-05-02T13:28:56.001Z</time></trkpt><trkpt lat="45.94059164428925" lon="11.252450858756477"><ele>1166.8</ele><time>2026-05-02T13:28:57.001Z</time></trkpt><trkpt lat="45.94064652419497" lon="11.252327513477336"><ele>1168.4</ele><time>2026-05-02T13:28:58.001Z</time></trkpt><trkpt lat="45.940702096339834" lon="11.252201489228021"><ele>1170.0</ele><time>2026-05-02T13:28:59.001Z</time></trkpt><trkpt lat="45.940747288759496" lon="11.252073689939184"><ele>1170.0</ele><time>2026-05-02T13:29:00.001Z</time></trkpt><trkpt lat="45.94076842370391" lon="11.251936091833512"><ele>1170.0</ele><time>2026-05-02T13:29:01.001Z</time></trkpt><trkpt lat="45.94079736546633" lon="11.251811921213065"><ele>1170.0</ele><time>2026-05-02T13:29:02.001Z</time></trkpt><trkpt lat="45.94082282189864" lon="11.251690795801867"><ele>1170.0</ele><time>2026-05-02T13:29:03.001Z</time></trkpt><trkpt lat="45.940846000826" lon="11.25157795705143"><ele>1170.0</ele><time>2026-05-02T13:29:04.001Z</time></trkpt><trkpt lat="45.940877243028844" lon="11.251464548702314"><ele>1170.0</ele><time>2026-05-02T13:29:05.001Z</time></trkpt><trkpt lat="45.94093662405711" lon="11.251362547652828"><ele>1171.2</ele><time>2026-05-02T13:29:06.001Z</time></trkpt><trkpt lat="45.940991957735264" lon="11.251256706463337"><ele>1172.4</ele><time>2026-05-02T13:29:07.001Z</time></trkpt><trkpt lat="45.941049787391734" lon="11.25115395975487"><ele>1173.6</ele><time>2026-05-02T13:29:08.001Z</time></trkpt><trkpt lat="45.94111746449319" lon="11.251062136194449"><ele>1174.8</ele><time>2026-05-02T13:29:09.001Z</time></trkpt><trkpt lat="45.941190724350626" lon="11.250978006020777"><ele>1176.0</ele><time>2026-05-02T13:29:10.001Z</time></trkpt><trkpt lat="45.94128082294753" lon="11.250926350532763"><ele>1176.0</ele><time>2026-05-02T13:29:11.001Z</time></trkpt><trkpt lat="45.941374031890355" lon="11.250874790535022"><ele>1176.0</ele><time>2026-05-02T13:29:12.001Z</time></trkpt><trkpt lat="45.94146632655802" lon="11.25080718909845"><ele>1176.0</ele><time>2026-05-02T13:29:13.001Z</time></trkpt><trkpt lat="45.94155021564055" lon="11.250704353535761"><ele>1176.0</ele><time>2026-05-02T13:29:14.001Z</time></trkpt><trkpt lat="45.94162607936722" lon="11.250584281766374"><ele>1176.0</ele><time>2026-05-02T13:29:15.001Z</time></trkpt><trkpt lat="45.94169488729625" lon="11.250451541678114"><ele>1176.0</ele><time>2026-05-02T13:29:16.001Z</time></trkpt><trkpt lat="45.94176588730119" lon="11.250321258125902"><ele>1176.0</ele><time>2026-05-02T13:29:17.001Z</time></trkpt><trkpt lat="45.9418435347608" lon="11.250190153176538"><ele>1176.0</ele><time>2026-05-02T13:29:18.001Z</time></trkpt><trkpt lat="45.94192744681592" lon="11.25006210609354"><ele>1176.0</ele><time>2026-05-02T13:29:19.001Z</time></trkpt><trkpt lat="45.942014255580084" lon="11.249925238820637"><ele>1173.5</ele><time>2026-05-02T13:29:20.001Z</time></trkpt><trkpt lat="45.942101914206866" lon="11.249782477934014"><ele>1171.0</ele><time>2026-05-02T13:29:21.001Z</time></trkpt><trkpt lat="45.942192682033934" lon="11.249643575012033"><ele>1168.5</ele><time>2026-05-02T13:29:22.001Z</time></trkpt><trkpt lat="45.94228726787375" lon="11.249513490359966"><ele>1166.0</ele><time>2026-05-02T13:29:23.001Z</time></trkpt><trkpt lat="45.94238843531076" lon="11.249391885552447"><ele>1166.0</ele><time>2026-05-02T13:29:24.001Z</time></trkpt><trkpt lat="45.942497757016014" lon="11.249288470239277"><ele>1166.0</ele><time>2026-05-02T13:29:25.001Z</time></trkpt><trkpt lat="45.942606259616305" lon="11.249192404777581"><ele>1166.0</ele><time>2026-05-02T13:29:26.001Z</time></trkpt><trkpt lat="45.94270792579949" lon="11.2490964096075"><ele>1166.0</ele><time>2026-05-02T13:29:27.001Z</time></trkpt><trkpt lat="45.94280548321108" lon="11.249009522846032"><ele>1168.2</ele><time>2026-05-02T13:29:28.001Z</time></trkpt><trkpt lat="45.942898934202454" lon="11.248926650004476"><ele>1170.3999999999999</ele><time>2026-05-02T13:29:29.001Z</time></trkpt><trkpt lat="45.942994938422046" lon="11.248852345650201"><ele>1172.6</ele><time>2026-05-02T13:29:30.001Z</time></trkpt><trkpt lat="45.94309694756602" lon="11.24880470503598"><ele>1174.8</ele><time>2026-05-02T13:29:31.001Z</time></trkpt><trkpt lat="45.94320370045148" lon="11.248772316682986"><ele>1177.0</ele><time>2026-05-02T13:29:32.001Z</time></trkpt><trkpt lat="45.94331035969564" lon="11.248746735783948"><ele>1176.2</ele><time>2026-05-02T13:29:33.001Z</time></trkpt><trkpt lat="45.94341877886936" lon="11.248764630214264"><ele>1175.4</ele><time>2026-05-02T13:29:34.001Z</time></trkpt><trkpt lat="45.94352541644626" lon="11.248765626215784"><ele>1174.6</ele><time>2026-05-02T13:29:35.001Z</time></trkpt><trkpt lat="45.9436245908835" lon="11.24876476543399"><ele>1173.8</ele><time>2026-05-02T13:29:36.001Z</time></trkpt><trkpt lat="45.94373233417032" lon="11.24873887227945"><ele>1173.0</ele><time>2026-05-02T13:29:37.001Z</time></trkpt><trkpt lat="45.94384071440759" lon="11.248733990610742"><ele>1173.0</ele><time>2026-05-02T13:29:38.001Z</time></trkpt><trkpt lat="45.94394990386106" lon="11.248704377784641"><ele>1173.0</ele><time>2026-05-02T13:29:39.001Z</time></trkpt><trkpt lat="45.944053999077894" lon="11.248647946933529"><ele>1173.0</ele><time>2026-05-02T13:29:40.001Z</time></trkpt><trkpt lat="45.944156396418926" lon="11.248579476440863"><ele>1173.0</ele><time>2026-05-02T13:29:41.001Z</time></trkpt><trkpt lat="45.94425424886243" lon="11.248507027331085"><ele>1173.0</ele><time>2026-05-02T13:29:42.001Z</time></trkpt><trkpt lat="45.94434665673636" lon="11.24843870188985"><ele>1173.4</ele><time>2026-05-02T13:29:43.001Z</time></trkpt><trkpt lat="45.944444020838354" lon="11.248395376743858"><ele>1173.8</ele><time>2026-05-02T13:29:44.001Z</time></trkpt><trkpt lat="45.944539443866006" lon="11.248338446308157"><ele>1174.2</ele><time>2026-05-02T13:29:45.001Z</time></trkpt><trkpt lat="45.94465010153726" lon="11.248372934577386"><ele>1174.6</ele><time>2026-05-02T13:29:46.001Z</time></trkpt><trkpt lat="45.94475157423516" lon="11.248389282051109"><ele>1175.0</ele><time>2026-05-02T13:29:47.001Z</time></trkpt><trkpt lat="45.94485086918944" lon="11.248414642129989"><ele>1175.0</ele><time>2026-05-02T13:29:48.001Z</time></trkpt><trkpt lat="45.944948696221466" lon="11.24843846444249"><ele>1175.0</ele><time>2026-05-02T13:29:49.001Z</time></trkpt><trkpt lat="45.94504305355033" lon="11.248447730264996"><ele>1175.0</ele><time>2026-05-02T13:29:50.001Z</time></trkpt><trkpt lat="45.945131929585884" lon="11.24843112747481"><ele>1175.0</ele><time>2026-05-02T13:29:51.001Z</time></trkpt><trkpt lat="45.9452253010996" lon="11.24839953354881"><ele>1175.0</ele><time>2026-05-02T13:29:52.001Z</time></trkpt><trkpt lat="45.94532553448246" lon="11.24835434188553"><ele>1175.0</ele><time>2026-05-02T13:29:53.001Z</time></trkpt><trkpt lat="45.945431265821945" lon="11.248280592230278"><ele>1175.0</ele><time>2026-05-02T13:29:54.001Z</time></trkpt><trkpt lat="45.945545799277305" lon="11.248181724471756"><ele>1175.0</ele><time>2026-05-02T13:29:55.001Z</time></trkpt><trkpt lat="45.94566378411953" lon="11.248056045139498"><ele>1175.0</ele><time>2026-05-02T13:29:56.001Z</time></trkpt><trkpt lat="45.94579066322231" lon="11.247921473409823"><ele>1172.0</ele><time>2026-05-02T13:29:57.001Z</time></trkpt><trkpt lat="45.945936943181344" lon="11.247818231829584"><ele>1169.0</ele><time>2026-05-02T13:29:58.001Z</time></trkpt><trkpt lat="45.94611876210374" lon="11.247687672953782"><ele>1166.0</ele><time>2026-05-02T13:29:59.001Z</time></trkpt><trkpt lat="45.94628314690291" lon="11.247565808322411"><ele>1166.0</ele><time>2026-05-02T13:30:00.001Z</time></trkpt><trkpt lat="45.94644350402135" lon="11.247428571778999"><ele>1166.0</ele><time>2026-05-02T13:30:01.001Z</time></trkpt><trkpt lat="45.94658907033067" lon="11.247274364525861"><ele>1166.0</ele><time>2026-05-02T13:30:02.001Z</time></trkpt><trkpt lat="45.94674555628978" lon="11.24714332530389"><ele>1166.6666666666667</ele><time>2026-05-02T13:30:03.001Z</time></trkpt><trkpt lat="45.946894413126515" lon="11.247008627265622"><ele>1167.3333333333333</ele><time>2026-05-02T13:30:04.001Z</time></trkpt><trkpt lat="45.94703227229006" lon="11.246880944912728"><ele>1168.0</ele><time>2026-05-02T13:30:05.001Z</time></trkpt><trkpt lat="45.9471686258845" lon="11.246793456314103"><ele>1168.0</ele><time>2026-05-02T13:30:06.001Z</time></trkpt><trkpt lat="45.94727978617758" lon="11.246722869339065"><ele>1168.0</ele><time>2026-05-02T13:30:07.001Z</time></trkpt><trkpt lat="45.947374426341185" lon="11.24666326730026"><ele>1168.0</ele><time>2026-05-02T13:30:08.001Z</time></trkpt><trkpt lat="45.947461397044755" lon="11.246631423634353"><ele>1168.0</ele><time>2026-05-02T13:30:09.001Z</time></trkpt><trkpt lat="45.94752487057051" lon="11.246552398446767"><ele>1168.0</ele><time>2026-05-02T13:30:10.001Z</time></trkpt><trkpt lat="45.9475635212649" lon="11.246427860892487"><ele>1167.6</ele><time>2026-05-02T13:30:11.001Z</time></trkpt><trkpt lat="45.94756725674447" lon="11.246277534482731"><ele>1167.1999999999998</ele><time>2026-05-02T13:30:12.001Z</time></trkpt><trkpt lat="45.94753859527825" lon="11.246115101589837"><ele>1166.8</ele><time>2026-05-02T13:30:13.001Z</time></trkpt><trkpt lat="45.94749948313367" lon="11.245963175972364"><ele>1166.3999999999999</ele><time>2026-05-02T13:30:14.001Z</time></trkpt><trkpt lat="45.94750068154734" lon="11.245819403823871"><ele>1166.0</ele><time>2026-05-02T13:30:15.001Z</time></trkpt><trkpt lat="45.94754527745704" lon="11.245703266213235"><ele>1167.75</ele><time>2026-05-02T13:30:16.001Z</time></trkpt><trkpt lat="45.9476274684122" lon="11.245620803692637"><ele>1169.5</ele><time>2026-05-02T13:30:17.001Z</time></trkpt><trkpt lat="45.94772693114084" lon="11.245513821423815"><ele>1171.25</ele><time>2026-05-02T13:30:18.001Z</time></trkpt><trkpt lat="45.94781941863933" lon="11.245396237677"><ele>1173.0</ele><time>2026-05-02T13:30:19.001Z</time></trkpt><trkpt lat="45.947872408517995" lon="11.245216202047908"><ele>1173.0</ele><time>2026-05-02T13:30:20.001Z</time></trkpt><trkpt lat="45.94790198878239" lon="11.245012493999079"><ele>1173.0</ele><time>2026-05-02T13:30:21.001Z</time></trkpt><trkpt lat="45.947902781695014" lon="11.244791917437194"><ele>1173.0</ele><time>2026-05-02T13:30:22.001Z</time></trkpt><trkpt lat="45.947928379155655" lon="11.244576165321757"><ele>1170.25</ele><time>2026-05-02T13:30:23.001Z</time></trkpt><trkpt lat="45.94793168545932" lon="11.244370649364505"><ele>1167.5</ele><time>2026-05-02T13:30:24.001Z</time></trkpt><trkpt lat="45.9479682748819" lon="11.244186969210906"><ele>1164.75</ele><time>2026-05-02T13:30:25.001Z</time></trkpt><trkpt lat="45.94798891510511" lon="11.244022620458928"><ele>1162.0</ele><time>2026-05-02T13:30:26.001Z</time></trkpt><trkpt lat="45.948012099416765" lon="11.24389789288741"><ele>1161.4</ele><time>2026-05-02T13:30:27.001Z</time></trkpt><trkpt lat="45.94804907945747" lon="11.24379934642906"><ele>1160.8000000000002</ele><time>2026-05-02T13:30:28.001Z</time></trkpt><trkpt lat="45.94812429530182" lon="11.24374654012647"><ele>1160.2</ele><time>2026-05-02T13:30:29.001Z</time></trkpt><trkpt lat="45.94821575922154" lon="11.24376179810057"><ele>1159.6000000000001</ele><time>2026-05-02T13:30:30.001Z</time></trkpt><trkpt lat="45.948317810264946" lon="11.243797172728378"><ele>1159.0</ele><time>2026-05-02T13:30:31.001Z</time></trkpt><trkpt lat="45.94839966913169" lon="11.24391630071984"><ele>1157.0</ele><time>2026-05-02T13:30:32.001Z</time></trkpt><trkpt lat="45.94844556155756" lon="11.244081812683445"><ele>1155.0</ele><time>2026-05-02T13:30:33.001Z</time></trkpt><trkpt lat="45.94846999926475" lon="11.244225647070685"><ele>1153.0</ele><time>2026-05-02T13:30:34.001Z</time></trkpt><trkpt lat="45.94848190870302" lon="11.244326009943213"><ele>1151.0</ele><time>2026-05-02T13:30:35.001Z</time></trkpt><trkpt lat="45.948550614255105" lon="11.244467651050291"><ele>1149.0</ele><time>2026-05-02T13:30:36.001Z</time></trkpt><trkpt lat="45.948640315911234" lon="11.244538554803139"><ele>1149.0</ele><time>2026-05-02T13:30:37.001Z</time></trkpt><trkpt lat="45.94877696073081" lon="11.244522230647846"><ele>1149.0</ele><time>2026-05-02T13:30:38.001Z</time></trkpt><trkpt lat="45.94889370153678" lon="11.244447755682106"><ele>1149.0</ele><time>2026-05-02T13:30:39.001Z</time></trkpt><trkpt lat="45.949018700281755" lon="11.244379047017002"><ele>1149.0</ele><time>2026-05-02T13:30:40.001Z</time></trkpt><trkpt lat="45.94914381584729" lon="11.244315368032787"><ele>1148.5</ele><time>2026-05-02T13:30:41.001Z</time></trkpt><trkpt lat="45.9492623590078" lon="11.244258368044168"><ele>1148.0</ele><time>2026-05-02T13:30:42.001Z</time></trkpt><trkpt lat="45.949368814233885" lon="11.24420581605763"><ele>1147.5</ele><time>2026-05-02T13:30:43.001Z</time></trkpt><trkpt lat="45.949450949050274" lon="11.244119125114944"><ele>1147.0</ele><time>2026-05-02T13:30:44.001Z</time></trkpt><trkpt lat="45.949496594887144" lon="11.243966577902059"><ele>1146.5</ele><time>2026-05-02T13:30:45.001Z</time></trkpt><trkpt lat="45.949496327665" lon="11.243780281066094"><ele>1146.0</ele><time>2026-05-02T13:30:46.001Z</time></trkpt><trkpt lat="45.94946080941896" lon="11.243591381836568"><ele>1145.5</ele><time>2026-05-02T13:30:47.001Z</time></trkpt><trkpt lat="45.94939595858936" lon="11.243424056924706"><ele>1145.0</ele><time>2026-05-02T13:30:48.001Z</time></trkpt><trkpt lat="45.94929927598611" lon="11.243281562545855"><ele>1145.75</ele><time>2026-05-02T13:30:49.001Z</time></trkpt><trkpt lat="45.94916815591154" lon="11.243159820507659"><ele>1146.5</ele><time>2026-05-02T13:30:50.001Z</time></trkpt><trkpt lat="45.9490340296318" lon="11.24305407391306"><ele>1147.25</ele><time>2026-05-02T13:30:51.001Z</time></trkpt><trkpt lat="45.94892254476776" lon="11.24293416936427"><ele>1148.0</ele><time>2026-05-02T13:30:52.001Z</time></trkpt><trkpt lat="45.948817716953194" lon="11.242823222617151"><ele>1147.5</ele><time>2026-05-02T13:30:53.001Z</time></trkpt><trkpt lat="45.948738813744235" lon="11.242690772948066"><ele>1147.0</ele><time>2026-05-02T13:30:54.001Z</time></trkpt><trkpt lat="45.948695239419614" lon="11.242528989902414"><ele>1146.5</ele><time>2026-05-02T13:30:55.001Z</time></trkpt><trkpt lat="45.94868794598175" lon="11.24235036983018"><ele>1146.0</ele><time>2026-05-02T13:30:56.001Z</time></trkpt><trkpt lat="45.94867766217954" lon="11.242156183946495"><ele>1146.0</ele><time>2026-05-02T13:30:57.001Z</time></trkpt><trkpt lat="45.948670155335854" lon="11.241979542402877"><ele>1146.0</ele><time>2026-05-02T13:30:58.001Z</time></trkpt><trkpt lat="45.9486250211473" lon="11.241838754767594"><ele>1146.0</ele><time>2026-05-02T13:30:59.001Z</time></trkpt><trkpt lat="45.948547448337216" lon="11.241721376542888"><ele>1146.0</ele><time>2026-05-02T13:31:00.001Z</time></trkpt><trkpt lat="45.94844996095886" lon="11.241608212083172"><ele>1146.5</ele><time>2026-05-02T13:31:01.001Z</time></trkpt><trkpt lat="45.94833373698608" lon="11.241502037496737"><ele>1147.0</ele><time>2026-05-02T13:31:02.001Z</time></trkpt><trkpt lat="45.94821840831635" lon="11.241390179525924"><ele>1147.5</ele><time>2026-05-02T13:31:03.001Z</time></trkpt><trkpt lat="45.94809657697039" lon="11.241299889102288"><ele>1148.0</ele><time>2026-05-02T13:31:04.001Z</time></trkpt><trkpt lat="45.94795927688389" lon="11.241241594789782"><ele>1148.0</ele><time>2026-05-02T13:31:05.001Z</time></trkpt><trkpt lat="45.947819328769555" lon="11.241201674469753"><ele>1148.0</ele><time>2026-05-02T13:31:06.001Z</time></trkpt><trkpt lat="45.94766880983667" lon="11.241183971001103"><ele>1148.0</ele><time>2026-05-02T13:31:07.001Z</time></trkpt><trkpt lat="45.94749056032589" lon="11.241209700099633"><ele>1145.3333333333335</ele><time>2026-05-02T13:31:08.001Z</time></trkpt><trkpt lat="45.947300649760166" lon="11.241239032650459"><ele>1142.6666666666667</ele><time>2026-05-02T13:31:09.001Z</time></trkpt><trkpt lat="45.94709405135598" lon="11.241196146379176"><ele>1140.0</ele><time>2026-05-02T13:31:10.001Z</time></trkpt><trkpt lat="45.946848782372584" lon="11.24112634514116"><ele>1135.0</ele><time>2026-05-02T13:31:11.001Z</time></trkpt><trkpt lat="45.94661665326765" lon="11.241063733436636"><ele>1130.0</ele><time>2026-05-02T13:31:12.001Z</time></trkpt><trkpt lat="45.946409494792434" lon="11.241027125999686"><ele>1125.0</ele><time>2026-05-02T13:31:13.001Z</time></trkpt><trkpt lat="45.94622948380969" lon="11.240973934068249"><ele>1125.0</ele><time>2026-05-02T13:31:14.001Z</time></trkpt><trkpt lat="45.94608776937095" lon="11.240925995969542"><ele>1125.0</ele><time>2026-05-02T13:31:15.001Z</time></trkpt><trkpt lat="45.94598461521237" lon="11.240872701668104"><ele>1125.0</ele><time>2026-05-02T13:31:16.001Z</time></trkpt><trkpt lat="45.94590363129468" lon="11.240792986222408"><ele>1125.0</ele><time>2026-05-02T13:31:17.001Z</time></trkpt><trkpt lat="45.945835236258674" lon="11.240679215237945"><ele>1123.25</ele><time>2026-05-02T13:31:18.001Z</time></trkpt><trkpt lat="45.945833781406606" lon="11.240511065125347"><ele>1121.5</ele><time>2026-05-02T13:31:19.001Z</time></trkpt><trkpt lat="45.945847762101195" lon="11.240337059275351"><ele>1119.75</ele><time>2026-05-02T13:31:20.001Z</time></trkpt><trkpt lat="45.94587016519678" lon="11.240140176869595"><ele>1118.0</ele><time>2026-05-02T13:31:21.001Z</time></trkpt><trkpt lat="45.94588292868551" lon="11.239965843626239"><ele>1118.0</ele><time>2026-05-02T13:31:22.001Z</time></trkpt><trkpt lat="45.94591893971002" lon="11.239808054415356"><ele>1118.0</ele><time>2026-05-02T13:31:23.001Z</time></trkpt><trkpt lat="45.945973543548696" lon="11.239686008317532"><ele>1118.0</ele><time>2026-05-02T13:31:24.001Z</time></trkpt><trkpt lat="45.94601506799258" lon="11.239609268276519"><ele>1118.0</ele><time>2026-05-02T13:31:25.001Z</time></trkpt><trkpt lat="45.946044089379235" lon="11.239435294822384"><ele>1118.0</ele><time>2026-05-02T13:31:27.001Z</time></trkpt><trkpt lat="45.946020030493074" lon="11.239343279057962"><ele>1116.8333333333335</ele><time>2026-05-02T13:31:28.001Z</time></trkpt><trkpt lat="45.94596818699746" lon="11.239256641649986"><ele>1115.6666666666667</ele><time>2026-05-02T13:31:29.001Z</time></trkpt><trkpt lat="45.945912985377895" lon="11.239180989093134"><ele>1114.5</ele><time>2026-05-02T13:31:30.001Z</time></trkpt><trkpt lat="45.945856209896895" lon="11.239100309793223"><ele>1113.3333333333333</ele><time>2026-05-02T13:31:31.001Z</time></trkpt><trkpt lat="45.94579376519859" lon="11.239008838532607"><ele>1112.1666666666665</ele><time>2026-05-02T13:31:32.001Z</time></trkpt><trkpt lat="45.94572818799829" lon="11.238912403205102"><ele>1111.0</ele><time>2026-05-02T13:31:33.001Z</time></trkpt><trkpt lat="45.94566036523434" lon="11.238823549149389"><ele>1109.3999999999999</ele><time>2026-05-02T13:31:34.001Z</time></trkpt><trkpt lat="45.945585867752605" lon="11.238757187645447"><ele>1107.8</ele><time>2026-05-02T13:31:35.001Z</time></trkpt><trkpt lat="45.94550335921172" lon="11.238704089607182"><ele>1106.1999999999998</ele><time>2026-05-02T13:31:36.001Z</time></trkpt><trkpt lat="45.94541706100987" lon="11.238648778601597"><ele>1104.6</ele><time>2026-05-02T13:31:37.001Z</time></trkpt><trkpt lat="45.945330618433324" lon="11.238587577018288"><ele>1103.0</ele><time>2026-05-02T13:31:38.001Z</time></trkpt><trkpt lat="45.9452441891484" lon="11.238508587871431"><ele>1103.0</ele><time>2026-05-02T13:31:39.001Z</time></trkpt><trkpt lat="45.945159336155655" lon="11.238396994161514"><ele>1103.0</ele><time>2026-05-02T13:31:40.001Z</time></trkpt><trkpt lat="45.94507256438679" lon="11.238277462790853"><ele>1103.0</ele><time>2026-05-02T13:31:41.001Z</time></trkpt><trkpt lat="45.9449782692929" lon="11.238148103166056"><ele>1103.0</ele><time>2026-05-02T13:31:42.001Z</time></trkpt><trkpt lat="45.94487148473616" lon="11.238009681262541"><ele>1103.0</ele><time>2026-05-02T13:31:43.001Z</time></trkpt><trkpt lat="45.94476835504131" lon="11.237871981757818"><ele>1103.0</ele><time>2026-05-02T13:31:44.001Z</time></trkpt><trkpt lat="45.9446604055359" lon="11.237765302313536"><ele>1103.0</ele><time>2026-05-02T13:31:45.001Z</time></trkpt><trkpt lat="45.94455550112644" lon="11.237686375364301"><ele>1103.0</ele><time>2026-05-02T13:31:46.001Z</time></trkpt><trkpt lat="45.94444537659642" lon="11.237617250550274"><ele>1103.0</ele><time>2026-05-02T13:31:47.001Z</time></trkpt><trkpt lat="45.94432908594726" lon="11.237563178538334"><ele>1103.0</ele><time>2026-05-02T13:31:48.001Z</time></trkpt><trkpt lat="45.94421838353005" lon="11.23752136761107"><ele>1103.0</ele><time>2026-05-02T13:31:49.001Z</time></trkpt><trkpt lat="45.94411656295794" lon="11.237479911193137"><ele>1103.0</ele><time>2026-05-02T13:31:50.001Z</time></trkpt><trkpt lat="45.94402291709269" lon="11.237429201479545"><ele>1103.0</ele><time>2026-05-02T13:31:51.001Z</time></trkpt><trkpt lat="45.94392618379801" lon="11.23737013747423"><ele>1106.25</ele><time>2026-05-02T13:31:52.001Z</time></trkpt><trkpt lat="45.94382751489315" lon="11.23728854890445"><ele>1109.5</ele><time>2026-05-02T13:31:53.001Z</time></trkpt><trkpt lat="45.94374393251386" lon="11.237166799008753"><ele>1112.75</ele><time>2026-05-02T13:31:54.001Z</time></trkpt><trkpt lat="45.94365056723532" lon="11.237055432963293"><ele>1116.0</ele><time>2026-05-02T13:31:55.001Z</time></trkpt><trkpt lat="45.94356042405488" lon="11.236942969162765"><ele>1116.0</ele><time>2026-05-02T13:31:56.001Z</time></trkpt><trkpt lat="45.94346152655471" lon="11.23686221602665"><ele>1116.0</ele><time>2026-05-02T13:31:57.001Z</time></trkpt><trkpt lat="45.9433781928028" lon="11.236774591755955"><ele>1116.0</ele><time>2026-05-02T13:31:58.001Z</time></trkpt><trkpt lat="45.94329692348897" lon="11.236695827461144"><ele>1116.0</ele><time>2026-05-02T13:31:59.001Z</time></trkpt><trkpt lat="45.94319787884813" lon="11.236636581836366"><ele>1116.0</ele><time>2026-05-02T13:32:00.001Z</time></trkpt><trkpt lat="45.943091391179586" lon="11.236595190906717"><ele>1116.0</ele><time>2026-05-02T13:32:01.001Z</time></trkpt><trkpt lat="45.94298653182109" lon="11.236565892731454"><ele>1116.0</ele><time>2026-05-02T13:32:02.001Z</time></trkpt><trkpt lat="45.94288814814118" lon="11.23654118319835"><ele>1116.0</ele><time>2026-05-02T13:32:03.001Z</time></trkpt><trkpt lat="45.94280772655999" lon="11.236515487321775"><ele>1116.0</ele><time>2026-05-02T13:32:04.001Z</time></trkpt><trkpt lat="45.942729465527314" lon="11.236490726054962"><ele>1116.0</ele><time>2026-05-02T13:32:05.001Z</time></trkpt><trkpt lat="45.94264907926338" lon="11.236466093662509"><ele>1116.0</ele><time>2026-05-02T13:32:06.001Z</time></trkpt><trkpt lat="45.94256849534776" lon="11.236433483085818"><ele>1116.0</ele><time>2026-05-02T13:32:07.001Z</time></trkpt><trkpt lat="45.94248522574003" lon="11.236383116874757"><ele>1116.0</ele><time>2026-05-02T13:32:08.001Z</time></trkpt><trkpt lat="45.94239662661415" lon="11.236292411567026"><ele>1116.0</ele><time>2026-05-02T13:32:09.001Z</time></trkpt><trkpt lat="45.94231032210012" lon="11.236184028030385"><ele>1116.0</ele><time>2026-05-02T13:32:10.001Z</time></trkpt><trkpt lat="45.94223187117988" lon="11.236073495649824"><ele>1116.0</ele><time>2026-05-02T13:32:11.001Z</time></trkpt><trkpt lat="45.942167443119935" lon="11.235962075159147"><ele>1116.0</ele><time>2026-05-02T13:32:12.001Z</time></trkpt><trkpt lat="45.94211280495906" lon="11.235854057845852"><ele>1116.0</ele><time>2026-05-02T13:32:13.001Z</time></trkpt><trkpt lat="45.942073737772" lon="11.235734021624443"><ele>1116.0</ele><time>2026-05-02T13:32:14.001Z</time></trkpt><trkpt lat="45.94204838631616" lon="11.235597814764596"><ele>1116.0</ele><time>2026-05-02T13:32:15.001Z</time></trkpt><trkpt lat="45.94205013592124" lon="11.23542073252835"><ele>1115.0</ele><time>2026-05-02T13:32:16.001Z</time></trkpt><trkpt lat="45.94205499993009" lon="11.235221796496221"><ele>1114.0</ele><time>2026-05-02T13:32:17.001Z</time></trkpt><trkpt lat="45.94204708217422" lon="11.23501707730893"><ele>1113.0</ele><time>2026-05-02T13:32:18.001Z</time></trkpt><trkpt lat="45.94203748620909" lon="11.23482697342629"><ele>1112.0</ele><time>2026-05-02T13:32:19.001Z</time></trkpt><trkpt lat="45.94202793215207" lon="11.234643480495762"><ele>1109.75</ele><time>2026-05-02T13:32:20.001Z</time></trkpt><trkpt lat="45.9420038339588" lon="11.234472884789334"><ele>1107.5</ele><time>2026-05-02T13:32:21.001Z</time></trkpt><trkpt lat="45.941968457948235" lon="11.234311977034908"><ele>1105.25</ele><time>2026-05-02T13:32:22.001Z</time></trkpt><trkpt lat="45.94194503122675" lon="11.234153393060414"><ele>1103.0</ele><time>2026-05-02T13:32:23.001Z</time></trkpt><trkpt lat="45.94192376023263" lon="11.234003456312497"><ele>1101.0</ele><time>2026-05-02T13:32:24.001Z</time></trkpt><trkpt lat="45.94190375287462" lon="11.233859447196794"><ele>1099.0</ele><time>2026-05-02T13:32:25.001Z</time></trkpt><trkpt lat="45.94188206209754" lon="11.233708212384375"><ele>1097.0</ele><time>2026-05-02T13:32:26.001Z</time></trkpt><trkpt lat="45.94187426365109" lon="11.233542323895445"><ele>1095.0</ele><time>2026-05-02T13:32:27.001Z</time></trkpt><trkpt lat="45.94183462208502" lon="11.233393346627274"><ele>1093.0</ele><time>2026-05-02T13:32:28.001Z</time></trkpt><trkpt lat="45.94182109841263" lon="11.233241576570526"><ele>1092.5</ele><time>2026-05-02T13:32:29.001Z</time></trkpt><trkpt lat="45.94176037238632" lon="11.23312597365104"><ele>1092.0</ele><time>2026-05-02T13:32:30.001Z</time></trkpt><trkpt lat="45.94171766911701" lon="11.233009112045725"><ele>1091.5</ele><time>2026-05-02T13:32:31.001Z</time></trkpt><trkpt lat="45.94166792483344" lon="11.232910599942418"><ele>1091.0</ele><time>2026-05-02T13:32:32.001Z</time></trkpt><trkpt lat="45.941618379253725" lon="11.232822330574045"><ele>1090.5</ele><time>2026-05-02T13:32:33.001Z</time></trkpt><trkpt lat="45.94156514247787" lon="11.232741990266724"><ele>1090.0</ele><time>2026-05-02T13:32:34.001Z</time></trkpt><trkpt lat="45.94151020273555" lon="11.232664044651962"><ele>1088.4</ele><time>2026-05-02T13:32:35.001Z</time></trkpt><trkpt lat="45.941453459497644" lon="11.232581212145675"><ele>1086.8</ele><time>2026-05-02T13:32:36.001Z</time></trkpt><trkpt lat="45.941393925818176" lon="11.232487092879442"><ele>1085.2</ele><time>2026-05-02T13:32:37.001Z</time></trkpt><trkpt lat="45.941331463717454" lon="11.232386628863438"><ele>1083.6</ele><time>2026-05-02T13:32:38.001Z</time></trkpt><trkpt lat="45.941263354314586" lon="11.232284059929308"><ele>1082.0</ele><time>2026-05-02T13:32:39.001Z</time></trkpt><trkpt lat="45.941187236364634" lon="11.232180066979057"><ele>1080.75</ele><time>2026-05-02T13:32:40.001Z</time></trkpt><trkpt lat="45.941098217051966" lon="11.232082991400636"><ele>1079.5</ele><time>2026-05-02T13:32:41.001Z</time></trkpt><trkpt lat="45.94098749745101" lon="11.232000363421161"><ele>1078.25</ele><time>2026-05-02T13:32:42.001Z</time></trkpt><trkpt lat="45.94086259683759" lon="11.231925971109527"><ele>1077.0</ele><time>2026-05-02T13:32:43.001Z</time></trkpt><trkpt lat="45.940728965997415" lon="11.231840984141815"><ele>1074.6666666666667</ele><time>2026-05-02T13:32:44.001Z</time></trkpt><trkpt lat="45.940594224977865" lon="11.231730507641768"><ele>1072.3333333333335</ele><time>2026-05-02T13:32:45.001Z</time></trkpt><trkpt lat="45.94047861683347" lon="11.231587355201935"><ele>1070.0</ele><time>2026-05-02T13:32:46.001Z</time></trkpt><trkpt lat="45.94036296852701" lon="11.231465622366068"><ele>1071.0</ele><time>2026-05-02T13:32:47.001Z</time></trkpt><trkpt lat="45.94024469536105" lon="11.231368683536557"><ele>1072.0</ele><time>2026-05-02T13:32:48.001Z</time></trkpt><trkpt lat="45.940147379129044" lon="11.23125216198234"><ele>1073.0</ele><time>2026-05-02T13:32:49.001Z</time></trkpt><trkpt lat="45.940065036893095" lon="11.231129346945288"><ele>1074.0</ele><time>2026-05-02T13:32:50.001Z</time></trkpt><trkpt lat="45.939998533108316" lon="11.230992248973442"><ele>1074.0</ele><time>2026-05-02T13:32:51.001Z</time></trkpt><trkpt lat="45.93994885316517" lon="11.230841578085263"><ele>1074.0</ele><time>2026-05-02T13:32:52.001Z</time></trkpt><trkpt lat="45.939913583126575" lon="11.230687774775683"><ele>1074.0</ele><time>2026-05-02T13:32:53.001Z</time></trkpt><trkpt lat="45.93989300441763" lon="11.230541449626804"><ele>1074.0</ele><time>2026-05-02T13:32:54.001Z</time></trkpt><trkpt lat="45.939880684550076" lon="11.230407098187325"><ele>1074.0</ele><time>2026-05-02T13:32:55.001Z</time></trkpt><trkpt lat="45.93986787719544" lon="11.230286686818273"><ele>1072.5</ele><time>2026-05-02T13:32:56.001Z</time></trkpt><trkpt lat="45.939845842870625" lon="11.230178072775487"><ele>1071.0</ele><time>2026-05-02T13:32:57.001Z</time></trkpt><trkpt lat="45.93981672546093" lon="11.230083985081814"><ele>1069.5</ele><time>2026-05-02T13:32:58.001Z</time></trkpt><trkpt lat="45.9397798241588" lon="11.229997980659203"><ele>1068.0</ele><time>2026-05-02T13:32:59.001Z</time></trkpt><trkpt lat="45.939728956964714" lon="11.229910138862746"><ele>1066.5</ele><time>2026-05-02T13:33:00.001Z</time></trkpt><trkpt lat="45.93966625537071" lon="11.22981965358281"><ele>1065.0</ele><time>2026-05-02T13:33:01.001Z</time></trkpt><trkpt lat="45.93959522856344" lon="11.229722985109015"><ele>1064.5</ele><time>2026-05-02T13:33:02.001Z</time></trkpt><trkpt lat="45.93951158900028" lon="11.22962957436594"><ele>1064.0</ele><time>2026-05-02T13:33:03.001Z</time></trkpt><trkpt lat="45.939408711728746" lon="11.229534965196105"><ele>1063.5</ele><time>2026-05-02T13:33:04.001Z</time></trkpt><trkpt lat="45.93929091421422" lon="11.229441595288534"><ele>1063.0</ele><time>2026-05-02T13:33:05.001Z</time></trkpt><trkpt lat="45.93915894225542" lon="11.229351521316797"><ele>1063.0</ele><time>2026-05-02T13:33:06.001Z</time></trkpt><trkpt lat="45.93901654161809" lon="11.229262081432015"><ele>1063.0</ele><time>2026-05-02T13:33:07.001Z</time></trkpt><trkpt lat="45.93887142964489" lon="11.229150712660315"><ele>1063.0</ele><time>2026-05-02T13:33:08.001Z</time></trkpt><trkpt lat="45.938714431872874" lon="11.229045999653696"><ele>1062.3333333333333</ele><time>2026-05-02T13:33:09.001Z</time></trkpt><trkpt lat="45.93856137222236" lon="11.228942310888796"><ele>1061.6666666666667</ele><time>2026-05-02T13:33:10.001Z</time></trkpt><trkpt lat="45.938421959053414" lon="11.228828144601371"><ele>1061.0</ele><time>2026-05-02T13:33:11.001Z</time></trkpt><trkpt lat="45.9382928985394" lon="11.228699590780126"><ele>1061.0</ele><time>2026-05-02T13:33:12.001Z</time></trkpt><trkpt lat="45.93817199216764" lon="11.228555075381408"><ele>1061.0</ele><time>2026-05-02T13:33:13.001Z</time></trkpt><trkpt lat="45.93805180117887" lon="11.228396958248783"><ele>1061.0</ele><time>2026-05-02T13:33:14.001Z</time></trkpt><trkpt lat="45.9379487357256" lon="11.228259609850454"><ele>1058.8</ele><time>2026-05-02T13:33:15.001Z</time></trkpt><trkpt lat="45.93785812779505" lon="11.22813737127635"><ele>1056.6</ele><time>2026-05-02T13:33:16.001Z</time></trkpt><trkpt lat="45.93778557876889" lon="11.22803810778407"><ele>1054.4</ele><time>2026-05-02T13:33:17.001Z</time></trkpt><trkpt lat="45.937722826940984" lon="11.22794619683794"><ele>1052.2</ele><time>2026-05-02T13:33:18.001Z</time></trkpt><trkpt lat="45.93766547062782" lon="11.227838704697833"><ele>1050.0</ele><time>2026-05-02T13:33:19.001Z</time></trkpt><trkpt lat="45.937624781244104" lon="11.227707749148209"><ele>1050.0</ele><time>2026-05-02T13:33:20.001Z</time></trkpt><trkpt lat="45.93759744050568" lon="11.227567948575802"><ele>1050.0</ele><time>2026-05-02T13:33:21.001Z</time></trkpt><trkpt lat="45.93757625724832" lon="11.227421933579269"><ele>1050.0</ele><time>2026-05-02T13:33:22.001Z</time></trkpt><trkpt lat="45.93755322903242" lon="11.227277244425979"><ele>1050.0</ele><time>2026-05-02T13:33:23.001Z</time></trkpt><trkpt lat="45.93751745995545" lon="11.227143373399334"><ele>1050.0</ele><time>2026-05-02T13:33:24.001Z</time></trkpt><trkpt lat="45.93749228183229" lon="11.227004071985451"><ele>1052.8</ele><time>2026-05-02T13:33:25.001Z</time></trkpt><trkpt lat="45.93746579762965" lon="11.22687144125441"><ele>1055.6</ele><time>2026-05-02T13:33:26.001Z</time></trkpt><trkpt lat="45.93742459841079" lon="11.226736745213909"><ele>1058.4</ele><time>2026-05-02T13:33:27.001Z</time></trkpt><trkpt lat="45.937360249372034" lon="11.226633604024938"><ele>1061.2</ele><time>2026-05-02T13:33:28.001Z</time></trkpt><trkpt lat="45.937291452442466" lon="11.226564035245953"><ele>1064.0</ele><time>2026-05-02T13:33:29.001Z</time></trkpt><trkpt lat="45.93719926650829" lon="11.226525999340481"><ele>1064.0</ele><time>2026-05-02T13:33:30.001Z</time></trkpt><trkpt lat="45.937102215567265" lon="11.226514349813778"><ele>1064.0</ele><time>2026-05-02T13:33:31.001Z</time></trkpt><trkpt lat="45.93698555158327" lon="11.226531475426114"><ele>1064.0</ele><time>2026-05-02T13:33:32.001Z</time></trkpt><trkpt lat="45.93684822531587" lon="11.22659294761667"><ele>1064.0</ele><time>2026-05-02T13:33:33.001Z</time></trkpt><trkpt lat="45.93665174083242" lon="11.226736135545732"><ele>1065.4</ele><time>2026-05-02T13:33:34.001Z</time></trkpt><trkpt lat="45.93648938629364" lon="11.226816840992408"><ele>1066.8000000000002</ele><time>2026-05-02T13:33:35.001Z</time></trkpt><trkpt lat="45.93639592249635" lon="11.22689004299966"><ele>1068.1999999999998</ele><time>2026-05-02T13:33:36.001Z</time></trkpt><trkpt lat="45.936322126166836" lon="11.22692701702634"><ele>1069.6</ele><time>2026-05-02T13:33:37.001Z</time></trkpt><trkpt lat="45.93625757574107" lon="11.226963740857824"><ele>1071.0</ele><time>2026-05-02T13:33:38.001Z</time></trkpt><trkpt lat="45.93619663961119" lon="11.226994870756249"><ele>1071.0</ele><time>2026-05-02T13:33:39.001Z</time></trkpt><trkpt lat="45.93612742099277" lon="11.227032677173963"><ele>1071.0</ele><time>2026-05-02T13:33:40.001Z</time></trkpt><trkpt lat="45.93605286276066" lon="11.22706681806899"><ele>1071.0</ele><time>2026-05-02T13:33:41.001Z</time></trkpt><trkpt lat="45.93596678557733" lon="11.22707231207691"><ele>1071.0</ele><time>2026-05-02T13:33:42.001Z</time></trkpt><trkpt lat="45.9358755243326" lon="11.227036034472514"><ele>1071.0</ele><time>2026-05-02T13:33:43.001Z</time></trkpt><trkpt lat="45.935782398853625" lon="11.22699730996949"><ele>1071.0</ele><time>2026-05-02T13:33:44.001Z</time></trkpt><trkpt lat="45.93569160036449" lon="11.226958125311118"><ele>1070.3999999999999</ele><time>2026-05-02T13:33:45.001Z</time></trkpt><trkpt lat="45.93560026672871" lon="11.226919712947172"><ele>1069.8</ele><time>2026-05-02T13:33:46.001Z</time></trkpt><trkpt lat="45.935499822451135" lon="11.226878036845815"><ele>1069.1999999999998</ele><time>2026-05-02T13:33:47.001Z</time></trkpt><trkpt lat="45.93539031760208" lon="11.226838952459254"><ele>1068.6</ele><time>2026-05-02T13:33:48.001Z</time></trkpt><trkpt lat="45.935283865720216" lon="11.226796551788706"><ele>1068.0</ele><time>2026-05-02T13:33:49.001Z</time></trkpt><trkpt lat="45.93518058671395" lon="11.226762126441354"><ele>1068.0</ele><time>2026-05-02T13:33:50.001Z</time></trkpt><trkpt lat="45.93508043154701" lon="11.226732047218771"><ele>1068.0</ele><time>2026-05-02T13:33:51.001Z</time></trkpt><trkpt lat="45.93499140844304" lon="11.226720031475068"><ele>1068.0</ele><time>2026-05-02T13:33:52.001Z</time></trkpt><trkpt lat="45.934913181060864" lon="11.22669318412526"><ele>1068.0</ele><time>2026-05-02T13:33:53.001Z</time></trkpt><trkpt lat="45.93484271485886" lon="11.22667324512934"><ele>1068.0</ele><time>2026-05-02T13:33:54.001Z</time></trkpt><trkpt lat="45.934768349033575" lon="11.226674248260107"><ele>1068.0</ele><time>2026-05-02T13:33:55.001Z</time></trkpt><trkpt lat="45.93469397491869" lon="11.226655465183434"><ele>1069.0</ele><time>2026-05-02T13:33:56.001Z</time></trkpt><trkpt lat="45.93461870770697" lon="11.226611562203749"><ele>1070.0</ele><time>2026-05-02T13:33:57.001Z</time></trkpt><trkpt lat="45.93453525187315" lon="11.226590716566298"><ele>1071.0</ele><time>2026-05-02T13:33:58.001Z</time></trkpt><trkpt lat="45.934442374227736" lon="11.226566791494564"><ele>1072.0</ele><time>2026-05-02T13:33:59.001Z</time></trkpt><trkpt lat="45.93434269921392" lon="11.226523424424398"><ele>1073.0</ele><time>2026-05-02T13:34:00.001Z</time></trkpt><trkpt lat="45.93424063429143" lon="11.226499855049695"><ele>1073.8</ele><time>2026-05-02T13:34:01.001Z</time></trkpt><trkpt lat="45.9341598678348" lon="11.226432007159872"><ele>1074.6</ele><time>2026-05-02T13:34:02.001Z</time></trkpt><trkpt lat="45.93407959312832" lon="11.226385175904362"><ele>1075.4</ele><time>2026-05-02T13:34:03.001Z</time></trkpt><trkpt lat="45.9339970428684" lon="11.22632895590475"><ele>1076.2</ele><time>2026-05-02T13:34:04.001Z</time></trkpt><trkpt lat="45.933906835582384" lon="11.226274255168176"><ele>1077.0</ele><time>2026-05-02T13:34:05.001Z</time></trkpt><trkpt lat="45.93381586558966" lon="11.226227102630471"><ele>1077.0</ele><time>2026-05-02T13:34:06.001Z</time></trkpt><trkpt lat="45.93372632966341" lon="11.22621254274102"><ele>1077.0</ele><time>2026-05-02T13:34:07.001Z</time></trkpt><trkpt lat="45.93365107900251" lon="11.226192343405101"><ele>1077.0</ele><time>2026-05-02T13:34:08.001Z</time></trkpt><trkpt lat="45.93354900772516" lon="11.226163651703509"><ele>1077.0</ele><time>2026-05-02T13:34:10.001Z</time></trkpt><trkpt lat="45.93343523363863" lon="11.226139218334717"><ele>1077.0</ele><time>2026-05-02T13:34:12.001Z</time></trkpt><trkpt lat="45.933367983162995" lon="11.226114756782174"><ele>1078.0</ele><time>2026-05-02T13:34:13.001Z</time></trkpt><trkpt lat="45.93329683282949" lon="11.22607557307214"><ele>1079.0</ele><time>2026-05-02T13:34:14.001Z</time></trkpt><trkpt lat="45.93323642838301" lon="11.226010402089216"><ele>1080.0</ele><time>2026-05-02T13:34:15.001Z</time></trkpt><trkpt lat="45.93320618933051" lon="11.225904578072164"><ele>1081.0</ele><time>2026-05-02T13:34:16.001Z</time></trkpt><trkpt lat="45.93315672311415" lon="11.225814133027594"><ele>1082.0</ele><time>2026-05-02T13:34:17.001Z</time></trkpt><trkpt lat="45.933121914373196" lon="11.225695729192806"><ele>1083.0</ele><time>2026-05-02T13:34:18.001Z</time></trkpt><trkpt lat="45.93308163335432" lon="11.225577442846195"><ele>1083.0</ele><time>2026-05-02T13:34:19.001Z</time></trkpt><trkpt lat="45.933042770552376" lon="11.225456715735522"><ele>1083.0</ele><time>2026-05-02T13:34:20.001Z</time></trkpt><trkpt lat="45.93303231368994" lon="11.225323431219575"><ele>1083.0</ele><time>2026-05-02T13:34:21.001Z</time></trkpt><trkpt lat="45.93299725595325" lon="11.225205911758268"><ele>1083.0</ele><time>2026-05-02T13:34:22.001Z</time></trkpt><trkpt lat="45.93294754123762" lon="11.225105705771693"><ele>1083.0</ele><time>2026-05-02T13:34:23.001Z</time></trkpt><trkpt lat="45.93289294852378" lon="11.22501842687095"><ele>1083.0</ele><time>2026-05-02T13:34:24.001Z</time></trkpt><trkpt lat="45.932787746472044" lon="11.22499138252932"><ele>1083.0</ele><time>2026-05-02T13:34:25.001Z</time></trkpt><trkpt lat="45.93269181757991" lon="11.224966351884088"><ele>1083.0</ele><time>2026-05-02T13:34:26.001Z</time></trkpt><trkpt lat="45.93259329923816" lon="11.224937256599791"><ele>1083.0</ele><time>2026-05-02T13:34:27.001Z</time></trkpt><trkpt lat="45.93250333780733" lon="11.224901148083005"><ele>1083.0</ele><time>2026-05-02T13:34:28.001Z</time></trkpt><trkpt lat="45.93241649806956" lon="11.22486223675413"><ele>1083.0</ele><time>2026-05-02T13:34:29.001Z</time></trkpt><trkpt lat="45.93233255863962" lon="11.224826588303195"><ele>1085.4</ele><time>2026-05-02T13:34:30.001Z</time></trkpt><trkpt lat="45.932248831741255" lon="11.224796748704003"><ele>1087.8</ele><time>2026-05-02T13:34:31.001Z</time></trkpt><trkpt lat="45.932168433954054" lon="11.224759339132863"><ele>1090.2</ele><time>2026-05-02T13:34:32.001Z</time></trkpt><trkpt lat="45.93208344686883" lon="11.224784670816987"><ele>1092.6</ele><time>2026-05-02T13:34:33.001Z</time></trkpt><trkpt lat="45.93202840636021" lon="11.22490900138937"><ele>1095.0</ele><time>2026-05-02T13:34:34.001Z</time></trkpt><trkpt lat="45.932001823603656" lon="11.22503973551837"><ele>1095.0</ele><time>2026-05-02T13:34:35.001Z</time></trkpt><trkpt lat="45.932004550728145" lon="11.225171583218884"><ele>1095.0</ele><time>2026-05-02T13:34:36.001Z</time></trkpt><trkpt lat="45.93201384006309" lon="11.22529908689222"><ele>1095.0</ele><time>2026-05-02T13:34:37.001Z</time></trkpt><trkpt lat="45.93198599810566" lon="11.225418453522268"><ele>1095.0</ele><time>2026-05-02T13:34:38.001Z</time></trkpt><trkpt lat="45.93196044853971" lon="11.225543247379163"><ele>1095.0</ele><time>2026-05-02T13:34:39.001Z</time></trkpt><trkpt lat="45.93193015436362" lon="11.225670665498377"><ele>1094.0</ele><time>2026-05-02T13:34:40.001Z</time></trkpt><trkpt lat="45.9318985162276" lon="11.225790531081145"><ele>1093.0</ele><time>2026-05-02T13:34:41.001Z</time></trkpt><trkpt lat="45.93186921818859" lon="11.225898436591955"><ele>1092.0</ele><time>2026-05-02T13:34:42.001Z</time></trkpt><trkpt lat="45.93178810956515" lon="11.226016926741357"><ele>1091.0</ele><time>2026-05-02T13:34:44.001Z</time></trkpt><trkpt lat="45.93168088488111" lon="11.226001624268243"><ele>1090.0</ele><time>2026-05-02T13:34:46.001Z</time></trkpt><trkpt lat="45.93163170948088" lon="11.225927579601509"><ele>1093.3333333333333</ele><time>2026-05-02T13:34:47.001Z</time></trkpt><trkpt lat="45.931602852133" lon="11.225826572364733"><ele>1096.6666666666665</ele><time>2026-05-02T13:34:48.001Z</time></trkpt><trkpt lat="45.93159999308089" lon="11.225697177655807"><ele>1100.0</ele><time>2026-05-02T13:34:49.001Z</time></trkpt><trkpt lat="45.931601255723145" lon="11.225568510091527"><ele>1103.3333333333333</ele><time>2026-05-02T13:34:50.001Z</time></trkpt><trkpt lat="45.93158777512537" lon="11.225447518803245"><ele>1106.6666666666667</ele><time>2026-05-02T13:34:51.001Z</time></trkpt><trkpt lat="45.93154887324518" lon="11.225336059252733"><ele>1110.0</ele><time>2026-05-02T13:34:52.001Z</time></trkpt><trkpt lat="45.93149285189377" lon="11.225233427706673"><ele>1110.0</ele><time>2026-05-02T13:34:53.001Z</time></trkpt><trkpt lat="45.931412013193864" lon="11.225142358658786"><ele>1110.0</ele><time>2026-05-02T13:34:54.001Z</time></trkpt><trkpt lat="45.93131524228214" lon="11.225047779556284"><ele>1110.0</ele><time>2026-05-02T13:34:55.001Z</time></trkpt><trkpt lat="45.93123078726603" lon="11.224948806959295"><ele>1110.0</ele><time>2026-05-02T13:34:56.001Z</time></trkpt><trkpt lat="45.931153326297405" lon="11.224855982252162"><ele>1110.0</ele><time>2026-05-02T13:34:57.001Z</time></trkpt><trkpt lat="45.9310820448983" lon="11.224771482878353"><ele>1111.5</ele><time>2026-05-02T13:34:58.001Z</time></trkpt><trkpt lat="45.93100681456541" lon="11.224710922308622"><ele>1113.0</ele><time>2026-05-02T13:34:59.001Z</time></trkpt><trkpt lat="45.930921760775725" lon="11.224682473217397"><ele>1114.5</ele><time>2026-05-02T13:35:00.001Z</time></trkpt><trkpt lat="45.93082724870701" lon="11.224678172177121"><ele>1116.0</ele><time>2026-05-02T13:35:01.001Z</time></trkpt><trkpt lat="45.930741161303835" lon="11.224657495451302"><ele>1117.5</ele><time>2026-05-02T13:35:02.001Z</time></trkpt><trkpt lat="45.930667302794454" lon="11.224653315630604"><ele>1119.0</ele><time>2026-05-02T13:35:03.001Z</time></trkpt><trkpt lat="45.93060254695193" lon="11.22464896092265"><ele>1121.0</ele><time>2026-05-02T13:35:04.001Z</time></trkpt><trkpt lat="45.93053423448326" lon="11.2246542514556"><ele>1123.0</ele><time>2026-05-02T13:35:05.001Z</time></trkpt><trkpt lat="45.930473413729246" lon="11.224592532207103"><ele>1125.0</ele><time>2026-05-02T13:35:06.001Z</time></trkpt><trkpt lat="45.93042270228705" lon="11.2245243720357"><ele>1127.0</ele><time>2026-05-02T13:35:07.001Z</time></trkpt><trkpt lat="45.93041889117565" lon="11.22441517153764"><ele>1129.0</ele><time>2026-05-02T13:35:08.001Z</time></trkpt><trkpt lat="45.93044886986558" lon="11.22430121692783"><ele>1131.0</ele><time>2026-05-02T13:35:09.001Z</time></trkpt><trkpt lat="45.93051768571684" lon="11.224210444061285"><ele>1131.0</ele><time>2026-05-02T13:35:10.001Z</time></trkpt><trkpt lat="45.93062180679091" lon="11.22415016899068"><ele>1131.0</ele><time>2026-05-02T13:35:11.001Z</time></trkpt><trkpt lat="45.9307516668484" lon="11.224095501685522"><ele>1131.0</ele><time>2026-05-02T13:35:12.001Z</time></trkpt><trkpt lat="45.93087426908425" lon="11.224021068506183"><ele>1131.0</ele><time>2026-05-02T13:35:13.001Z</time></trkpt><trkpt lat="45.930979268792626" lon="11.223955636979941"><ele>1131.8</ele><time>2026-05-02T13:35:14.001Z</time></trkpt><trkpt lat="45.93107193188769" lon="11.223894837853738"><ele>1132.6</ele><time>2026-05-02T13:35:15.001Z</time></trkpt><trkpt lat="45.93114367074171" lon="11.223845886266538"><ele>1133.4</ele><time>2026-05-02T13:35:16.001Z</time></trkpt><trkpt lat="45.931206043504076" lon="11.223802002652347"><ele>1134.2</ele><time>2026-05-02T13:35:17.001Z</time></trkpt><trkpt lat="45.93129014419703" lon="11.223697160233911"><ele>1135.0</ele><time>2026-05-02T13:35:19.001Z</time></trkpt><trkpt lat="45.931305258403825" lon="11.223532300216664"><ele>1135.0</ele><time>2026-05-02T13:35:21.001Z</time></trkpt><trkpt lat="45.931272534868484" lon="11.223448495955406"><ele>1135.0</ele><time>2026-05-02T13:35:22.001Z</time></trkpt><trkpt lat="45.93120888813237" lon="11.223390457794252"><ele>1135.0</ele><time>2026-05-02T13:35:23.001Z</time></trkpt><trkpt lat="45.93112610270406" lon="11.223373166766809"><ele>1135.0</ele><time>2026-05-02T13:35:24.001Z</time></trkpt><trkpt lat="45.931028146484735" lon="11.223395271203223"><ele>1135.0</ele><time>2026-05-02T13:35:25.001Z</time></trkpt><trkpt lat="45.93091080285648" lon="11.223430144958025"><ele>1135.0</ele><time>2026-05-02T13:35:26.001Z</time></trkpt><trkpt lat="45.93078528597745" lon="11.223467329544908"><ele>1137.4</ele><time>2026-05-02T13:35:27.001Z</time></trkpt><trkpt lat="45.930670219912386" lon="11.223499754405147"><ele>1139.8</ele><time>2026-05-02T13:35:28.001Z</time></trkpt><trkpt lat="45.930568606106675" lon="11.223527866469466"><ele>1142.2</ele><time>2026-05-02T13:35:29.001Z</time></trkpt><trkpt lat="45.9304782792394" lon="11.223548893613076"><ele>1144.6</ele><time>2026-05-02T13:35:30.001Z</time></trkpt><trkpt lat="45.93040007464985" lon="11.223547834599799"><ele>1147.0</ele><time>2026-05-02T13:35:31.001Z</time></trkpt><trkpt lat="45.9303408321486" lon="11.22348130055255"><ele>1147.0</ele><time>2026-05-02T13:35:32.001Z</time></trkpt><trkpt lat="45.93028286090235" lon="11.223415407102074"><ele>1147.0</ele><time>2026-05-02T13:35:33.001Z</time></trkpt><trkpt lat="45.93023387527299" lon="11.223317205041495"><ele>1147.0</ele><time>2026-05-02T13:35:34.001Z</time></trkpt><trkpt lat="45.93017555553046" lon="11.223160600821531"><ele>1147.0</ele><time>2026-05-02T13:35:35.001Z</time></trkpt><trkpt lat="45.93009968138545" lon="11.222951600231912"><ele>1147.0</ele><time>2026-05-02T13:35:36.001Z</time></trkpt><trkpt lat="45.92998878556966" lon="11.222647765374022"><ele>1149.0</ele><time>2026-05-02T13:35:37.001Z</time></trkpt><trkpt lat="45.92987936273576" lon="11.222347119185311"><ele>1151.0</ele><time>2026-05-02T13:35:38.001Z</time></trkpt><trkpt lat="45.9297885066145" lon="11.222091900228211"><ele>1153.0</ele><time>2026-05-02T13:35:39.001Z</time></trkpt><trkpt lat="45.929704391263094" lon="11.221908984908293"><ele>1154.8</ele><time>2026-05-02T13:35:40.001Z</time></trkpt><trkpt lat="45.929654501813694" lon="11.221764426003908"><ele>1156.6</ele><time>2026-05-02T13:35:41.001Z</time></trkpt><trkpt lat="45.92960975375097" lon="11.221638938958598"><ele>1158.4</ele><time>2026-05-02T13:35:42.001Z</time></trkpt><trkpt lat="45.92955925303753" lon="11.221515139268336"><ele>1160.2</ele><time>2026-05-02T13:35:43.001Z</time></trkpt><trkpt lat="45.92949380380331" lon="11.221404365654504"><ele>1162.0</ele><time>2026-05-02T13:35:44.001Z</time></trkpt><trkpt lat="45.92941042416287" lon="11.22129746076044"><ele>1164.75</ele><time>2026-05-02T13:35:45.001Z</time></trkpt><trkpt lat="45.929316194621336" lon="11.221177725762601"><ele>1167.5</ele><time>2026-05-02T13:35:46.001Z</time></trkpt><trkpt lat="45.92920597376642" lon="11.221045401218017"><ele>1170.25</ele><time>2026-05-02T13:35:47.001Z</time></trkpt><trkpt lat="45.92907397552312" lon="11.220922199708985"><ele>1173.0</ele><time>2026-05-02T13:35:48.001Z</time></trkpt><trkpt lat="45.928919300826195" lon="11.220816997052376"><ele>1173.0</ele><time>2026-05-02T13:35:49.001Z</time></trkpt><trkpt lat="45.928803353478706" lon="11.220706307732451"><ele>1173.0</ele><time>2026-05-02T13:35:50.001Z</time></trkpt><trkpt lat="45.92868480529007" lon="11.220630856988354"><ele>1173.0</ele><time>2026-05-02T13:35:51.001Z</time></trkpt><trkpt lat="45.92860671482071" lon="11.220485299352198"><ele>1173.0</ele><time>2026-05-02T13:35:52.001Z</time></trkpt><trkpt lat="45.928545699884815" lon="11.220311925572028"><ele>1175.25</ele><time>2026-05-02T13:35:53.001Z</time></trkpt><trkpt lat="45.928471556160716" lon="11.220148303759673"><ele>1177.5</ele><time>2026-05-02T13:35:54.001Z</time></trkpt><trkpt lat="45.92839492743556" lon="11.220007610013747"><ele>1179.75</ele><time>2026-05-02T13:35:55.001Z</time></trkpt><trkpt lat="45.92829795147043" lon="11.219906354362893"><ele>1182.0</ele><time>2026-05-02T13:35:56.001Z</time></trkpt><trkpt lat="45.92817590884424" lon="11.219846950899626"><ele>1182.0</ele><time>2026-05-02T13:35:57.001Z</time></trkpt><trkpt lat="45.928032784768334" lon="11.21981942533702"><ele>1182.0</ele><time>2026-05-02T13:35:58.001Z</time></trkpt><trkpt lat="45.92785363547527" lon="11.21980101957367"><ele>1182.0</ele><time>2026-05-02T13:35:59.001Z</time></trkpt><trkpt lat="45.927651402435544" lon="11.219774369379255"><ele>1194.6666666666667</ele><time>2026-05-02T13:36:00.001Z</time></trkpt><trkpt lat="45.92745909746374" lon="11.219748135603364"><ele>1207.3333333333335</ele><time>2026-05-02T13:36:01.001Z</time></trkpt><trkpt lat="45.92727226347416" lon="11.21972363759964"><ele>1220.0</ele><time>2026-05-02T13:36:02.001Z</time></trkpt><trkpt lat="45.92710822123911" lon="11.219690777265534"><ele>1220.0</ele><time>2026-05-02T13:36:03.001Z</time></trkpt><trkpt lat="45.92697126668781" lon="11.21962994907997"><ele>1220.0</ele><time>2026-05-02T13:36:04.001Z</time></trkpt><trkpt lat="45.92684478420841" lon="11.219521207443787"><ele>1220.0</ele><time>2026-05-02T13:36:05.001Z</time></trkpt><trkpt lat="45.926712913660246" lon="11.219397806594342"><ele>1220.0</ele><time>2026-05-02T13:36:06.001Z</time></trkpt><trkpt lat="45.926580817863304" lon="11.219264604143534"><ele>1216.75</ele><time>2026-05-02T13:36:07.001Z</time></trkpt><trkpt lat="45.92644306665518" lon="11.219138811798157"><ele>1213.5</ele><time>2026-05-02T13:36:08.001Z</time></trkpt><trkpt lat="45.92631951131417" lon="11.219072646241093"><ele>1210.25</ele><time>2026-05-02T13:36:09.001Z</time></trkpt><trkpt lat="45.926204856030246" lon="11.21905609935872"><ele>1207.0</ele><time>2026-05-02T13:36:10.001Z</time></trkpt><trkpt lat="45.92609389356024" lon="11.219110004268824"><ele>1207.0</ele><time>2026-05-02T13:36:11.001Z</time></trkpt><trkpt lat="45.92599071358103" lon="11.219148925585086"><ele>1207.0</ele><time>2026-05-02T13:36:12.001Z</time></trkpt><trkpt lat="45.92588938422128" lon="11.219101536091197"><ele>1207.0</ele><time>2026-05-02T13:36:13.001Z</time></trkpt><trkpt lat="45.92575984388296" lon="11.219036308759408"><ele>1207.0</ele><time>2026-05-02T13:36:14.001Z</time></trkpt><trkpt lat="45.92558730400919" lon="11.218948256411828"><ele>1213.0</ele><time>2026-05-02T13:36:15.001Z</time></trkpt><trkpt lat="45.92541276515619" lon="11.218844277307054"><ele>1219.0</ele><time>2026-05-02T13:36:16.001Z</time></trkpt><trkpt lat="45.92523927704007" lon="11.218716247242588"><ele>1225.0</ele><time>2026-05-02T13:36:17.001Z</time></trkpt><trkpt lat="45.925078081460704" lon="11.218592966666229"><ele>1222.75</ele><time>2026-05-02T13:36:18.001Z</time></trkpt><trkpt lat="45.92493927816312" lon="11.218491223000662"><ele>1220.5</ele><time>2026-05-02T13:36:19.001Z</time></trkpt><trkpt lat="45.9248231714826" lon="11.21839083373925"><ele>1218.25</ele><time>2026-05-02T13:36:20.001Z</time></trkpt><trkpt lat="45.92472694612222" lon="11.218289512850838"><ele>1216.0</ele><time>2026-05-02T13:36:21.001Z</time></trkpt><trkpt lat="45.92466818537158" lon="11.21818215881363"><ele>1220.0</ele><time>2026-05-02T13:36:22.001Z</time></trkpt><trkpt lat="45.9246586658666" lon="11.218045430986058"><ele>1224.0</ele><time>2026-05-02T13:36:23.001Z</time></trkpt><trkpt lat="45.92465043685846" lon="11.217875368959584"><ele>1228.0</ele><time>2026-05-02T13:36:24.001Z</time></trkpt><trkpt lat="45.92463294015876" lon="11.217666930319565"><ele>1232.0</ele><time>2026-05-02T13:36:25.001Z</time></trkpt><trkpt lat="45.924584907126295" lon="11.21750156470183"><ele>1232.0</ele><time>2026-05-02T13:36:26.001Z</time></trkpt><trkpt lat="45.92449426435032" lon="11.217322085007096"><ele>1232.0</ele><time>2026-05-02T13:36:27.001Z</time></trkpt><trkpt lat="45.92440227943017" lon="11.217154838775981"><ele>1232.0</ele><time>2026-05-02T13:36:28.001Z</time></trkpt><trkpt lat="45.9243191502044" lon="11.21702137523428"><ele>1232.0</ele><time>2026-05-02T13:36:29.001Z</time></trkpt><trkpt lat="45.92424363874293" lon="11.216909686355239"><ele>1230.75</ele><time>2026-05-02T13:36:30.001Z</time></trkpt><trkpt lat="45.92414167704099" lon="11.216837034582252"><ele>1229.5</ele><time>2026-05-02T13:36:31.001Z</time></trkpt><trkpt lat="45.9240224863752" lon="11.216790801286278"><ele>1228.25</ele><time>2026-05-02T13:36:32.001Z</time></trkpt><trkpt lat="45.92391055033508" lon="11.216736179604098"><ele>1227.0</ele><time>2026-05-02T13:36:33.001Z</time></trkpt><trkpt lat="45.92382005091224" lon="11.216666766223765"><ele>1227.0</ele><time>2026-05-02T13:36:34.001Z</time></trkpt><trkpt lat="45.923750118506895" lon="11.216602114672591"><ele>1227.0</ele><time>2026-05-02T13:36:35.001Z</time></trkpt><trkpt lat="45.92369068134046" lon="11.21655109620358"><ele>1227.0</ele><time>2026-05-02T13:36:36.001Z</time></trkpt><trkpt lat="45.923652437599465" lon="11.216479207553405"><ele>1227.0</ele><time>2026-05-02T13:36:37.001Z</time></trkpt><trkpt lat="45.92364370335346" lon="11.216345745455063"><ele>1227.0</ele><time>2026-05-02T13:36:39.001Z</time></trkpt><trkpt lat="45.92370329314175" lon="11.21628819497174"><ele>1227.0</ele><time>2026-05-02T13:36:40.001Z</time></trkpt><trkpt lat="45.92376941306071" lon="11.216293724205093"><ele>1227.0</ele><time>2026-05-02T13:36:41.001Z</time></trkpt><trkpt lat="45.923827379315945" lon="11.21637771443495"><ele>1227.0</ele><time>2026-05-02T13:36:42.001Z</time></trkpt><trkpt lat="45.92391995815002" lon="11.216466899168728"><ele>1227.0</ele><time>2026-05-02T13:36:43.001Z</time></trkpt><trkpt lat="45.92402851607864" lon="11.216557987385293"><ele>1227.0</ele><time>2026-05-02T13:36:44.001Z</time></trkpt><trkpt lat="45.92416700370616" lon="11.216602061623567"><ele>1227.0</ele><time>2026-05-02T13:36:45.001Z</time></trkpt><trkpt lat="45.92432548415621" lon="11.2166203801893"><ele>1234.0</ele><time>2026-05-02T13:36:46.001Z</time></trkpt><trkpt lat="45.924478321558055" lon="11.216670650978905"><ele>1241.0</ele><time>2026-05-02T13:36:47.001Z</time></trkpt><trkpt lat="45.92460491088051" lon="11.216799675649238"><ele>1248.0</ele><time>2026-05-02T13:36:48.001Z</time></trkpt><trkpt lat="45.9247397585721" lon="11.216898853019803"><ele>1248.0</ele><time>2026-05-02T13:36:49.001Z</time></trkpt><trkpt lat="45.924847893968305" lon="11.217001795395943"><ele>1248.0</ele><time>2026-05-02T13:36:50.001Z</time></trkpt><trkpt lat="45.924941324268374" lon="11.217081739487062"><ele>1248.0</ele><time>2026-05-02T13:36:51.001Z</time></trkpt><trkpt lat="45.92501883941136" lon="11.217151337274515"><ele>1248.0</ele><time>2026-05-02T13:36:52.001Z</time></trkpt><trkpt lat="45.92508393012475" lon="11.217208222121679"><ele>1248.0</ele><time>2026-05-02T13:36:53.001Z</time></trkpt><trkpt lat="45.925193249679474" lon="11.217288898159074"><ele>1250.5</ele><time>2026-05-02T13:36:55.001Z</time></trkpt><trkpt lat="45.92530243735009" lon="11.217222034306179"><ele>1253.0</ele><time>2026-05-02T13:36:57.001Z</time></trkpt><trkpt lat="45.92532692415277" lon="11.217126512467068"><ele>1255.5</ele><time>2026-05-02T13:36:58.001Z</time></trkpt><trkpt lat="45.925325069318845" lon="11.217012071970505"><ele>1258.0</ele><time>2026-05-02T13:36:59.001Z</time></trkpt><trkpt lat="45.92528109263524" lon="11.216918618622888"><ele>1260.5</ele><time>2026-05-02T13:37:00.001Z</time></trkpt><trkpt lat="45.92519853831542" lon="11.216845984606818"><ele>1263.0</ele><time>2026-05-02T13:37:01.001Z</time></trkpt><trkpt lat="45.92508559991447" lon="11.21677672994724"><ele>1262.5</ele><time>2026-05-02T13:37:02.001Z</time></trkpt><trkpt lat="45.924975128223956" lon="11.216685213713392"><ele>1262.0</ele><time>2026-05-02T13:37:03.001Z</time></trkpt><trkpt lat="45.92486873377383" lon="11.216592131875837"><ele>1261.5</ele><time>2026-05-02T13:37:04.001Z</time></trkpt><trkpt lat="45.9247690357331" lon="11.216502309845486"><ele>1261.0</ele><time>2026-05-02T13:37:05.001Z</time></trkpt><trkpt lat="45.92467414561154" lon="11.216407558043594"><ele>1261.0</ele><time>2026-05-02T13:37:06.001Z</time></trkpt><trkpt lat="45.92459024398198" lon="11.21629188995711"><ele>1261.0</ele><time>2026-05-02T13:37:07.001Z</time></trkpt><trkpt lat="45.92452882311208" lon="11.2161514258264"><ele>1261.0</ele><time>2026-05-02T13:37:08.001Z</time></trkpt><trkpt lat="45.92448720592089" lon="11.215996483037745"><ele>1261.0</ele><time>2026-05-02T13:37:09.001Z</time></trkpt><trkpt lat="45.92448948052534" lon="11.215820682690929"><ele>1263.0</ele><time>2026-05-02T13:37:10.001Z</time></trkpt><trkpt lat="45.924465172578586" lon="11.215619379264474"><ele>1265.0</ele><time>2026-05-02T13:37:11.001Z</time></trkpt><trkpt lat="45.92446069817593" lon="11.215377551884206"><ele>1267.0</ele><time>2026-05-02T13:37:12.001Z</time></trkpt><trkpt lat="45.92444722786785" lon="11.21509652428373"><ele>1270.0</ele><time>2026-05-02T13:37:13.001Z</time></trkpt><trkpt lat="45.92443559725703" lon="11.214809300480844"><ele>1273.0</ele><time>2026-05-02T13:37:14.001Z</time></trkpt><trkpt lat="45.92442612674684" lon="11.21452428873111"><ele>1276.0</ele><time>2026-05-02T13:37:15.001Z</time></trkpt><trkpt lat="45.92441728299541" lon="11.214249130030312"><ele>1279.3333333333333</ele><time>2026-05-02T13:37:16.001Z</time></trkpt><trkpt lat="45.924408245412046" lon="11.213982434068159"><ele>1282.6666666666667</ele><time>2026-05-02T13:37:17.001Z</time></trkpt><trkpt lat="45.9243981276816" lon="11.213718362320089"><ele>1286.0</ele><time>2026-05-02T13:37:18.001Z</time></trkpt><trkpt lat="45.924389610888504" lon="11.213456947045666"><ele>1286.0</ele><time>2026-05-02T13:37:19.001Z</time></trkpt><trkpt lat="45.92437930217475" lon="11.21319930332679"><ele>1286.0</ele><time>2026-05-02T13:37:20.001Z</time></trkpt><trkpt lat="45.92436897423711" lon="11.212940715727997"><ele>1286.0</ele><time>2026-05-02T13:37:21.001Z</time></trkpt><trkpt lat="45.92435709885936" lon="11.212679719591886"><ele>1286.6666666666667</ele><time>2026-05-02T13:37:22.001Z</time></trkpt><trkpt lat="45.92434722600733" lon="11.21242293781009"><ele>1287.3333333333333</ele><time>2026-05-02T13:37:23.001Z</time></trkpt><trkpt lat="45.9243413208518" lon="11.21216931957794"><ele>1288.0</ele><time>2026-05-02T13:37:24.001Z</time></trkpt><trkpt lat="45.92433438825383" lon="11.21191325063553"><ele>1290.3333333333333</ele><time>2026-05-02T13:37:25.001Z</time></trkpt><trkpt lat="45.92432264774675" lon="11.211657502403805"><ele>1292.6666666666667</ele><time>2026-05-02T13:37:26.001Z</time></trkpt><trkpt lat="45.92430989895946" lon="11.211401603299635"><ele>1295.0</ele><time>2026-05-02T13:37:27.001Z</time></trkpt><trkpt lat="45.92430126463057" lon="11.211148843680547"><ele>1295.6666666666667</ele><time>2026-05-02T13:37:28.001Z</time></trkpt><trkpt lat="45.924293614942506" lon="11.210900888967018"><ele>1296.3333333333333</ele><time>2026-05-02T13:37:29.001Z</time></trkpt><trkpt lat="45.92428495620392" lon="11.210672428636878"><ele>1297.0</ele><time>2026-05-02T13:37:30.001Z</time></trkpt><trkpt lat="45.92427675121593" lon="11.210475053185283"><ele>1298.25</ele><time>2026-05-02T13:37:31.001Z</time></trkpt><trkpt lat="45.92426756341589" lon="11.210290124058805"><ele>1299.5</ele><time>2026-05-02T13:37:32.001Z</time></trkpt><trkpt lat="45.924259105367135" lon="11.210111347408343"><ele>1300.75</ele><time>2026-05-02T13:37:33.001Z</time></trkpt><trkpt lat="45.92425793452484" lon="11.20993555249104"><ele>1302.0</ele><time>2026-05-02T13:37:34.001Z</time></trkpt><trkpt lat="45.92428095218628" lon="11.209758473826964"><ele>1303.75</ele><time>2026-05-02T13:37:35.001Z</time></trkpt><trkpt lat="45.924343404981805" lon="11.209587406911172"><ele>1305.5</ele><time>2026-05-02T13:37:36.001Z</time></trkpt><trkpt lat="45.92444886125732" lon="11.209462925563598"><ele>1307.25</ele><time>2026-05-02T13:37:37.001Z</time></trkpt><trkpt lat="45.92454995341786" lon="11.209337191595349"><ele>1309.0</ele><time>2026-05-02T13:37:38.001Z</time></trkpt><trkpt lat="45.92466569731973" lon="11.209245032760002"><ele>1309.0</ele><time>2026-05-02T13:37:39.001Z</time></trkpt><trkpt lat="45.92476459580454" lon="11.209162931909367"><ele>1309.0</ele><time>2026-05-02T13:37:40.001Z</time></trkpt><trkpt lat="45.9248451652952" lon="11.209069760134991"><ele>1309.0</ele><time>2026-05-02T13:37:41.001Z</time></trkpt><trkpt lat="45.92489683408533" lon="11.208979857006721"><ele>1309.0</ele><time>2026-05-02T13:37:42.001Z</time></trkpt><trkpt lat="45.9248933193387" lon="11.208845747483535"><ele>1309.0</ele><time>2026-05-02T13:37:43.001Z</time></trkpt><trkpt lat="45.92484898503792" lon="11.208730626253763"><ele>1313.5</ele><time>2026-05-02T13:37:44.001Z</time></trkpt><trkpt lat="45.92476989952263" lon="11.208656231136482"><ele>1318.0</ele><time>2026-05-02T13:37:45Z</time></trkpt><trkpt lat="45.924658114935546" lon="11.208621774466863"><ele>1322.5</ele><time>2026-05-02T13:37:46Z</time></trkpt><trkpt lat="45.92452554855158" lon="11.208630016715311"><ele>1327.0</ele><time>2026-05-02T13:37:47Z</time></trkpt><trkpt lat="45.924369665978745" lon="11.2086334686465"><ele>1325.25</ele><time>2026-05-02T13:37:48Z</time></trkpt><trkpt lat="45.924201316046435" lon="11.208647953688427"><ele>1323.5</ele><time>2026-05-02T13:37:49Z</time></trkpt><trkpt lat="45.92405695432849" lon="11.208652231345779"><ele>1321.75</ele><time>2026-05-02T13:37:50Z</time></trkpt><trkpt lat="45.92393880375551" lon="11.20861292932121"><ele>1320.0</ele><time>2026-05-02T13:37:51Z</time></trkpt><trkpt lat="45.92384737131167" lon="11.208539589644573"><ele>1320.0</ele><time>2026-05-02T13:37:52Z</time></trkpt><trkpt lat="45.92378158190468" lon="11.208441756685392"><ele>1320.0</ele><time>2026-05-02T13:37:53Z</time></trkpt><trkpt lat="45.92372657590284" lon="11.208319829091472"><ele>1320.0</ele><time>2026-05-02T13:37:54Z</time></trkpt><trkpt lat="45.92367399427998" lon="11.208195674176208"><ele>1320.0</ele><time>2026-05-02T13:37:55Z</time></trkpt><trkpt lat="45.923634842185486" lon="11.208081747749137"><ele>1320.0</ele><time>2026-05-02T13:37:56Z</time></trkpt><trkpt lat="45.923593750440915" lon="11.208006174559705"><ele>1320.6</ele><time>2026-05-02T13:37:57Z</time></trkpt><trkpt lat="45.923471017408446" lon="11.207955326532563"><ele>1321.2</ele><time>2026-05-02T13:37:59Z</time></trkpt><trkpt lat="45.92339764641206" lon="11.20800093477555"><ele>1321.8000000000002</ele><time>2026-05-02T13:38:00Z</time></trkpt><trkpt lat="45.9233354323471" lon="11.208081561037428"><ele>1322.4</ele><time>2026-05-02T13:38:01Z</time></trkpt><trkpt lat="45.9233056507707" lon="11.208252104999406"><ele>1323.0</ele><time>2026-05-02T13:38:02Z</time></trkpt><trkpt lat="45.923243987791814" lon="11.208403668562095"><ele>1323.0</ele><time>2026-05-02T13:38:03Z</time></trkpt><trkpt lat="45.923182230064796" lon="11.208555402382144"><ele>1323.0</ele><time>2026-05-02T13:38:04Z</time></trkpt><trkpt lat="45.92310681643879" lon="11.20868572067251"><ele>1323.0</ele><time>2026-05-02T13:38:05Z</time></trkpt><trkpt lat="45.923007234761144" lon="11.20873520387502"><ele>1323.0</ele><time>2026-05-02T13:38:06Z</time></trkpt><trkpt lat="45.92289538512729" lon="11.208738571232658"><ele>1323.0</ele><time>2026-05-02T13:38:07Z</time></trkpt><trkpt lat="45.92279472720448" lon="11.208660186808341"><ele>1323.0</ele><time>2026-05-02T13:38:08Z</time></trkpt><trkpt lat="45.92271286742608" lon="11.208521667476427"><ele>1323.0</ele><time>2026-05-02T13:38:09Z</time></trkpt><trkpt lat="45.92260374267743" lon="11.208366434139078"><ele>1323.0</ele><time>2026-05-02T13:38:10Z</time></trkpt><trkpt lat="45.9224946990874" lon="11.208168822918106"><ele>1330.6666666666667</ele><time>2026-05-02T13:38:11Z</time></trkpt><trkpt lat="45.92237928960518" lon="11.207962575561663"><ele>1338.3333333333335</ele><time>2026-05-02T13:38:12Z</time></trkpt><trkpt lat="45.9222720335206" lon="11.20779487936197"><ele>1346.0</ele><time>2026-05-02T13:38:13Z</time></trkpt><trkpt lat="45.92218034490915" lon="11.207648675154903"><ele>1346.0</ele><time>2026-05-02T13:38:14Z</time></trkpt><trkpt lat="45.9220897796379" lon="11.207530400676372"><ele>1346.0</ele><time>2026-05-02T13:38:15Z</time></trkpt><trkpt lat="45.921982998716366" lon="11.207438810426853"><ele>1346.0</ele><time>2026-05-02T13:38:16Z</time></trkpt><trkpt lat="45.921866418694684" lon="11.207340476391868"><ele>1346.0</ele><time>2026-05-02T13:38:17Z</time></trkpt><trkpt lat="45.921732394327655" lon="11.207303811066707"><ele>1344.0</ele><time>2026-05-02T13:38:18Z</time></trkpt><trkpt lat="45.921593015007716" lon="11.20731409970063"><ele>1342.0</ele><time>2026-05-02T13:38:19Z</time></trkpt><trkpt lat="45.921465715042494" lon="11.207356886217507"><ele>1340.0</ele><time>2026-05-02T13:38:20Z</time></trkpt><trkpt lat="45.92134590709109" lon="11.20740986091397"><ele>1338.0</ele><time>2026-05-02T13:38:21Z</time></trkpt><trkpt lat="45.92123894885318" lon="11.207448153662973"><ele>1338.0</ele><time>2026-05-02T13:38:22Z</time></trkpt><trkpt lat="45.92111291157843" lon="11.207526679098073"><ele>1338.0</ele><time>2026-05-02T13:38:23Z</time></trkpt><trkpt lat="45.92099623033781" lon="11.207596402988756"><ele>1338.0</ele><time>2026-05-02T13:38:24Z</time></trkpt><trkpt lat="45.920896955865864" lon="11.20762576555814"><ele>1338.0</ele><time>2026-05-02T13:38:25Z</time></trkpt><trkpt lat="45.920796349999854" lon="11.20760727397579"><ele>1338.75</ele><time>2026-05-02T13:38:26Z</time></trkpt><trkpt lat="45.92068328440174" lon="11.207532019587283"><ele>1339.5</ele><time>2026-05-02T13:38:27Z</time></trkpt><trkpt lat="45.920589942854086" lon="11.207422182279867"><ele>1340.25</ele><time>2026-05-02T13:38:28Z</time></trkpt><trkpt lat="45.92048149152083" lon="11.207334958893368"><ele>1341.0</ele><time>2026-05-02T13:38:29Z</time></trkpt><trkpt lat="45.920374772756254" lon="11.207221305363918"><ele>1344.0</ele><time>2026-05-02T13:38:30Z</time></trkpt><trkpt lat="45.92026132863784" lon="11.207111036506904"><ele>1347.0</ele><time>2026-05-02T13:38:31Z</time></trkpt><trkpt lat="45.920149580228475" lon="11.206991284373204"><ele>1350.0</ele><time>2026-05-02T13:38:32Z</time></trkpt><trkpt lat="45.920037695495616" lon="11.206884966718414"><ele>1353.0</ele><time>2026-05-02T13:38:33Z</time></trkpt><trkpt lat="45.9199315146559" lon="11.206768509663759"><ele>1353.0</ele><time>2026-05-02T13:38:34Z</time></trkpt><trkpt lat="45.919827718219665" lon="11.206628823427431"><ele>1353.0</ele><time>2026-05-02T13:38:35Z</time></trkpt><trkpt lat="45.9197323337768" lon="11.206487105081326"><ele>1353.0</ele><time>2026-05-02T13:38:36Z</time></trkpt><trkpt lat="45.91965347789905" lon="11.206347257746556"><ele>1353.0</ele><time>2026-05-02T13:38:37Z</time></trkpt><trkpt lat="45.91958361382199" lon="11.206204077233897"><ele>1354.25</ele><time>2026-05-02T13:38:38Z</time></trkpt><trkpt lat="45.91951987413674" lon="11.20604376414799"><ele>1355.5</ele><time>2026-05-02T13:38:39Z</time></trkpt><trkpt lat="45.919452274590554" lon="11.205874429451098"><ele>1356.75</ele><time>2026-05-02T13:38:40Z</time></trkpt><trkpt lat="45.91938800238957" lon="11.205701928064999"><ele>1358.0</ele><time>2026-05-02T13:38:41Z</time></trkpt><trkpt lat="45.91932137756879" lon="11.205528029607532"><ele>1357.5</ele><time>2026-05-02T13:38:42Z</time></trkpt><trkpt lat="45.91926811181185" lon="11.205353744980528"><ele>1357.0</ele><time>2026-05-02T13:38:43Z</time></trkpt><trkpt lat="45.91921281968837" lon="11.205192536790877"><ele>1356.5</ele><time>2026-05-02T13:38:44Z</time></trkpt><trkpt lat="45.919160679366435" lon="11.205034693567242"><ele>1356.0</ele><time>2026-05-02T13:38:45Z</time></trkpt><trkpt lat="45.91910830491279" lon="11.204878508141247"><ele>1357.25</ele><time>2026-05-02T13:38:46Z</time></trkpt><trkpt lat="45.919052454700896" lon="11.204720265105685"><ele>1358.5</ele><time>2026-05-02T13:38:47Z</time></trkpt><trkpt lat="45.91899421913336" lon="11.204557226983388"><ele>1359.75</ele><time>2026-05-02T13:38:48Z</time></trkpt><trkpt lat="45.91893810320283" lon="11.204389114493603"><ele>1361.0</ele><time>2026-05-02T13:38:49Z</time></trkpt><trkpt lat="45.9188829868211" lon="11.204214799272078"><ele>1361.0</ele><time>2026-05-02T13:38:50Z</time></trkpt><trkpt lat="45.91882975240628" lon="11.204044483558851"><ele>1361.0</ele><time>2026-05-02T13:38:51Z</time></trkpt><trkpt lat="45.91877690352743" lon="11.203880376785715"><ele>1361.0</ele><time>2026-05-02T13:38:52Z</time></trkpt><trkpt lat="45.91872208545806" lon="11.203710228137714"><ele>1361.0</ele><time>2026-05-02T13:38:53Z</time></trkpt><trkpt lat="45.91866335520314" lon="11.203549519649009"><ele>1363.0</ele><time>2026-05-02T13:38:54Z</time></trkpt><trkpt lat="45.91860740127826" lon="11.203393337383005"><ele>1365.0</ele><time>2026-05-02T13:38:55Z</time></trkpt><trkpt lat="45.91855027572936" lon="11.20322812750802"><ele>1367.0</ele><time>2026-05-02T13:38:56Z</time></trkpt><trkpt lat="45.918492852182055" lon="11.203041920782997"><ele>1369.0</ele><time>2026-05-02T13:38:57Z</time></trkpt><trkpt lat="45.91843559762235" lon="11.202851852251246"><ele>1360.0</ele><time>2026-05-02T13:38:58Z</time></trkpt><trkpt lat="45.918377713899275" lon="11.20265141444274"><ele>1351.0</ele><time>2026-05-02T13:38:59Z</time></trkpt><trkpt lat="45.91832013816694" lon="11.202446675329131"><ele>1342.0</ele><time>2026-05-02T13:39:00Z</time></trkpt><trkpt lat="45.91826134438239" lon="11.202243980181448"><ele>1341.25</ele><time>2026-05-02T13:39:01Z</time></trkpt><trkpt lat="45.91820590562427" lon="11.202050683315523"><ele>1340.5</ele><time>2026-05-02T13:39:02Z</time></trkpt><trkpt lat="45.91816212495667" lon="11.201878237102578"><ele>1339.75</ele><time>2026-05-02T13:39:03Z</time></trkpt><trkpt lat="45.918125998675194" lon="11.201712517904669"><ele>1339.0</ele><time>2026-05-02T13:39:04Z</time></trkpt><trkpt lat="45.91810736985947" lon="11.201542353918278"><ele>1336.25</ele><time>2026-05-02T13:39:05Z</time></trkpt><trkpt lat="45.918111089899526" lon="11.201357116435677"><ele>1333.5</ele><time>2026-05-02T13:39:06Z</time></trkpt><trkpt lat="45.918135812193825" lon="11.201169285406861"><ele>1330.75</ele><time>2026-05-02T13:39:07Z</time></trkpt><trkpt lat="45.918192496936015" lon="11.200975644654353"><ele>1328.0</ele><time>2026-05-02T13:39:08Z</time></trkpt><trkpt lat="45.91827761345213" lon="11.200774778733992"><ele>1330.0</ele><time>2026-05-02T13:39:09Z</time></trkpt><trkpt lat="45.91837488449076" lon="11.200576619839447"><ele>1332.0</ele><time>2026-05-02T13:39:10Z</time></trkpt><trkpt lat="45.91846351568718" lon="11.200365005346173"><ele>1334.0</ele><time>2026-05-02T13:39:11Z</time></trkpt><trkpt lat="45.9185476626566" lon="11.200158304244924"><ele>1334.0</ele><time>2026-05-02T13:39:12Z</time></trkpt><trkpt lat="45.918622839091036" lon="11.199951342285342"><ele>1334.0</ele><time>2026-05-02T13:39:13Z</time></trkpt><trkpt lat="45.91867997001919" lon="11.199727212974544"><ele>1334.0</ele><time>2026-05-02T13:39:14Z</time></trkpt><trkpt lat="45.918738463608015" lon="11.199510407502462"><ele>1330.3333333333335</ele><time>2026-05-02T13:39:15Z</time></trkpt><trkpt lat="45.9187989988217" lon="11.19929170830197"><ele>1326.6666666666667</ele><time>2026-05-02T13:39:16Z</time></trkpt><trkpt lat="45.91885291289025" lon="11.199086957922828"><ele>1323.0</ele><time>2026-05-02T13:39:17Z</time></trkpt><trkpt lat="45.918887014377745" lon="11.19887923378134"><ele>1320.5</ele><time>2026-05-02T13:39:18Z</time></trkpt><trkpt lat="45.91893110331658" lon="11.198684451876051"><ele>1318.0</ele><time>2026-05-02T13:39:19Z</time></trkpt><trkpt lat="45.91897624758329" lon="11.198494493094671"><ele>1315.5</ele><time>2026-05-02T13:39:20Z</time></trkpt><trkpt lat="45.91901434894005" lon="11.198305442678661"><ele>1313.0</ele><time>2026-05-02T13:39:21Z</time></trkpt><trkpt lat="45.91904986457482" lon="11.198116369885849"><ele>1309.5</ele><time>2026-05-02T13:39:22Z</time></trkpt><trkpt lat="45.919082216592635" lon="11.197913593526266"><ele>1306.0</ele><time>2026-05-02T13:39:23Z</time></trkpt><trkpt lat="45.91911351601173" lon="11.197704140175134"><ele>1302.5</ele><time>2026-05-02T13:39:24Z</time></trkpt><trkpt lat="45.919145393752224" lon="11.197493655188676"><ele>1299.0</ele><time>2026-05-02T13:39:25Z</time></trkpt><trkpt lat="45.919178273576655" lon="11.197291717838468"><ele>1301.25</ele><time>2026-05-02T13:39:26Z</time></trkpt><trkpt lat="45.91920919146082" lon="11.197092801794094"><ele>1303.5</ele><time>2026-05-02T13:39:27Z</time></trkpt><trkpt lat="45.91923807257079" lon="11.196899086307287"><ele>1305.75</ele><time>2026-05-02T13:39:28Z</time></trkpt><trkpt lat="45.919263644292705" lon="11.196732539699886"><ele>1308.0</ele><time>2026-05-02T13:39:29Z</time></trkpt><trkpt lat="45.919285854445974" lon="11.196586472288024"><ele>1305.25</ele><time>2026-05-02T13:39:30Z</time></trkpt><trkpt lat="45.91931088805135" lon="11.196443955687055"><ele>1302.5</ele><time>2026-05-02T13:39:31Z</time></trkpt><trkpt lat="45.919363969417596" lon="11.1963013943908"><ele>1299.75</ele><time>2026-05-02T13:39:32Z</time></trkpt><trkpt lat="45.919410514377404" lon="11.196134008750585"><ele>1297.0</ele><time>2026-05-02T13:39:33Z</time></trkpt><trkpt lat="45.91945552216011" lon="11.195968812422759"><ele>1297.0</ele><time>2026-05-02T13:39:34Z</time></trkpt><trkpt lat="45.91948925853966" lon="11.195800758560287"><ele>1297.0</ele><time>2026-05-02T13:39:35Z</time></trkpt><trkpt lat="45.919533883303565" lon="11.195647176535477"><ele>1297.0</ele><time>2026-05-02T13:39:36Z</time></trkpt><trkpt lat="45.91957547526427" lon="11.195496605411996"><ele>1297.0</ele><time>2026-05-02T13:39:37Z</time></trkpt><trkpt lat="45.919610636034434" lon="11.195358497984584"><ele>1294.25</ele><time>2026-05-02T13:39:38Z</time></trkpt><trkpt lat="45.91965911418739" lon="11.19521033938109"><ele>1291.5</ele><time>2026-05-02T13:39:39Z</time></trkpt><trkpt lat="45.9197217338263" lon="11.195051998701482"><ele>1288.75</ele><time>2026-05-02T13:39:40Z</time></trkpt><trkpt lat="45.91980123466502" lon="11.194888869677524"><ele>1286.0</ele><time>2026-05-02T13:39:41Z</time></trkpt><trkpt lat="45.91988823324489" lon="11.194725869711284"><ele>1288.0</ele><time>2026-05-02T13:39:42Z</time></trkpt><trkpt lat="45.91997402817239" lon="11.194572297275197"><ele>1290.0</ele><time>2026-05-02T13:39:43Z</time></trkpt><trkpt lat="45.92005410979405" lon="11.19442339471398"><ele>1292.0</ele><time>2026-05-02T13:39:44Z</time></trkpt><trkpt lat="45.92012873064718" lon="11.19427498732293"><ele>1294.0</ele><time>2026-05-02T13:39:45Z</time></trkpt><trkpt lat="45.92020200808995" lon="11.194130235180316"><ele>1291.0</ele><time>2026-05-02T13:39:46Z</time></trkpt><trkpt lat="45.920272632092356" lon="11.193990406997887"><ele>1288.0</ele><time>2026-05-02T13:39:47Z</time></trkpt><trkpt lat="45.920345152575344" lon="11.19386860109651"><ele>1285.0</ele><time>2026-05-02T13:39:48Z</time></trkpt><trkpt lat="45.92040677757361" lon="11.19374450298849"><ele>1282.0</ele><time>2026-05-02T13:39:49Z</time></trkpt><trkpt lat="45.920472531173765" lon="11.193618347047094"><ele>1279.0</ele><time>2026-05-02T13:39:50Z</time></trkpt><trkpt lat="45.9205327142102" lon="11.193487525235392"><ele>1279.0</ele><time>2026-05-02T13:39:51Z</time></trkpt><trkpt lat="45.92058670137232" lon="11.193357692533187"><ele>1279.0</ele><time>2026-05-02T13:39:52Z</time></trkpt><trkpt lat="45.920634800465976" lon="11.193225543673808"><ele>1279.0</ele><time>2026-05-02T13:39:53Z</time></trkpt><trkpt lat="45.92068169077078" lon="11.193094980119769"><ele>1279.0</ele><time>2026-05-02T13:39:54Z</time></trkpt><trkpt lat="45.920729664038305" lon="11.192968562853371"><ele>1279.0</ele><time>2026-05-02T13:39:55Z</time></trkpt><trkpt lat="45.92077906825202" lon="11.192838626005981"><ele>1278.6000000000001</ele><time>2026-05-02T13:39:56Z</time></trkpt><trkpt lat="45.92082821682451" lon="11.192699016582058"><ele>1278.2</ele><time>2026-05-02T13:39:57Z</time></trkpt><trkpt lat="45.92087752267144" lon="11.192552651614387"><ele>1277.8000000000002</ele><time>2026-05-02T13:39:58Z</time></trkpt><trkpt lat="45.92092864637019" lon="11.19240320236458"><ele>1277.4</ele><time>2026-05-02T13:39:59Z</time></trkpt><trkpt lat="45.92097047340866" lon="11.192254570010743"><ele>1277.0</ele><time>2026-05-02T13:40:00Z</time></trkpt><trkpt lat="45.9210089611213" lon="11.192112008612902"><ele>1277.0</ele><time>2026-05-02T13:40:01Z</time></trkpt><trkpt lat="45.921051891583616" lon="11.191966657936126"><ele>1277.0</ele><time>2026-05-02T13:40:02Z</time></trkpt><trkpt lat="45.92109425901808" lon="11.191824726720208"><ele>1277.0</ele><time>2026-05-02T13:40:03Z</time></trkpt><trkpt lat="45.921133136011655" lon="11.191684412233553"><ele>1277.0</ele><time>2026-05-02T13:40:04Z</time></trkpt><trkpt lat="45.921164161460474" lon="11.191546416150219"><ele>1277.0</ele><time>2026-05-02T13:40:05Z</time></trkpt><trkpt lat="45.92117651872655" lon="11.191405417867436"><ele>1275.8333333333335</ele><time>2026-05-02T13:40:06Z</time></trkpt><trkpt lat="45.921169042586364" lon="11.19126830539065"><ele>1274.6666666666667</ele><time>2026-05-02T13:40:07Z</time></trkpt><trkpt lat="45.92114780451278" lon="11.19113923122918"><ele>1273.5</ele><time>2026-05-02T13:40:08Z</time></trkpt><trkpt lat="45.92111920309184" lon="11.191034111858718"><ele>1272.3333333333333</ele><time>2026-05-02T13:40:09Z</time></trkpt><trkpt lat="45.921079346579546" lon="11.190900149455933"><ele>1271.1666666666665</ele><time>2026-05-02T13:40:11Z</time></trkpt><trkpt lat="45.921052608809006" lon="11.190817938743043"><ele>1270.0</ele><time>2026-05-02T13:40:15Z</time></trkpt><trkpt lat="45.92100647194523" lon="11.190698333797059"><ele>1269.5714285714284</ele><time>2026-05-02T13:40:18Z</time></trkpt><trkpt lat="45.92096694996849" lon="11.190588457736718"><ele>1269.142857142857</ele><time>2026-05-02T13:40:20Z</time></trkpt><trkpt lat="45.92094151723028" lon="11.190502164145666"><ele>1268.7142857142858</ele><time>2026-05-02T13:40:21Z</time></trkpt><trkpt lat="45.92091247315935" lon="11.190415877670238"><ele>1268.2857142857142</ele><time>2026-05-02T13:40:22Z</time></trkpt><trkpt lat="45.92088069575436" lon="11.19032484230767"><ele>1267.857142857143</ele><time>2026-05-02T13:40:23Z</time></trkpt><trkpt lat="45.92084927295722" lon="11.190233905768867"><ele>1267.4285714285713</ele><time>2026-05-02T13:40:24Z</time></trkpt><trkpt lat="45.920818477520896" lon="11.19014802927751"><ele>1267.0</ele><time>2026-05-02T13:40:25Z</time></trkpt><trkpt lat="45.9207887247835" lon="11.190064844421583"><ele>1265.3333333333333</ele><time>2026-05-02T13:40:26Z</time></trkpt><trkpt lat="45.92075443356414" lon="11.189976250097255"><ele>1263.6666666666665</ele><time>2026-05-02T13:40:27Z</time></trkpt><trkpt lat="45.920718523338984" lon="11.189882354586427"><ele>1262.0</ele><time>2026-05-02T13:40:28Z</time></trkpt><trkpt lat="45.920681472742785" lon="11.189784551055256"><ele>1260.3333333333333</ele><time>2026-05-02T13:40:29Z</time></trkpt><trkpt lat="45.92064142692007" lon="11.18968748921353"><ele>1258.6666666666667</ele><time>2026-05-02T13:40:30Z</time></trkpt><trkpt lat="45.92059960689358" lon="11.189583912536525"><ele>1257.0</ele><time>2026-05-02T13:40:31Z</time></trkpt><trkpt lat="45.92055445581834" lon="11.189476014246056"><ele>1256.8</ele><time>2026-05-02T13:40:32Z</time></trkpt><trkpt lat="45.92050755048484" lon="11.189358381262812"><ele>1256.6</ele><time>2026-05-02T13:40:33Z</time></trkpt><trkpt lat="45.92046660976489" lon="11.18924079365762"><ele>1256.3999999999999</ele><time>2026-05-02T13:40:34Z</time></trkpt><trkpt lat="45.92042699357914" lon="11.189124913245305"><ele>1256.2</ele><time>2026-05-02T13:40:35Z</time></trkpt><trkpt lat="45.920389458615034" lon="11.189010119920015"><ele>1256.0</ele><time>2026-05-02T13:40:36Z</time></trkpt><trkpt lat="45.92035741117443" lon="11.18889094768335"><ele>1256.0</ele><time>2026-05-02T13:40:37Z</time></trkpt><trkpt lat="45.92032768141724" lon="11.188767052731228"><ele>1256.0</ele><time>2026-05-02T13:40:38Z</time></trkpt><trkpt lat="45.92029428665235" lon="11.188631723804686"><ele>1256.0</ele><time>2026-05-02T13:40:39Z</time></trkpt><trkpt lat="45.92026700579431" lon="11.188486689387409"><ele>1256.0</ele><time>2026-05-02T13:40:40Z</time></trkpt><trkpt lat="45.92024246844632" lon="11.18835074796657"><ele>1256.0</ele><time>2026-05-02T13:40:40.999Z</time></trkpt><trkpt lat="45.92022884717325" lon="11.188207910538758"><ele>1257.0</ele><time>2026-05-02T13:40:41.999Z</time></trkpt><trkpt lat="45.92021029805345" lon="11.188061080451002"><ele>1258.0</ele><time>2026-05-02T13:40:42.999Z</time></trkpt><trkpt lat="45.920192882948385" lon="11.18791406036647"><ele>1259.0</ele><time>2026-05-02T13:40:43.999Z</time></trkpt><trkpt lat="45.92017136594304" lon="11.187779148755709"><ele>1260.0</ele><time>2026-05-02T13:40:44.999Z</time></trkpt><trkpt lat="45.92015122331032" lon="11.187650924958174"><ele>1261.0</ele><time>2026-05-02T13:40:45.999Z</time></trkpt><trkpt lat="45.920123242513526" lon="11.18752088482459"><ele>1261.0</ele><time>2026-05-02T13:40:46.999Z</time></trkpt><trkpt lat="45.920086351930905" lon="11.187397087948165"><ele>1261.0</ele><time>2026-05-02T13:40:47.999Z</time></trkpt><trkpt lat="45.92003958067071" lon="11.187274786990118"><ele>1261.0</ele><time>2026-05-02T13:40:48.999Z</time></trkpt><trkpt lat="45.91998442080012" lon="11.187154520609832"><ele>1261.0</ele><time>2026-05-02T13:40:49.999Z</time></trkpt><trkpt lat="45.919917894521944" lon="11.187039424810655"><ele>1261.0</ele><time>2026-05-02T13:40:50.999Z</time></trkpt><trkpt lat="45.919841103751885" lon="11.18693471299572"><ele>1262.0</ele><time>2026-05-02T13:40:51.999Z</time></trkpt><trkpt lat="45.91975736609562" lon="11.18683444934976"><ele>1263.0</ele><time>2026-05-02T13:40:52.999Z</time></trkpt><trkpt lat="45.919667595072795" lon="11.186742504056294"><ele>1264.0</ele><time>2026-05-02T13:40:53.999Z</time></trkpt><trkpt lat="45.91958013699564" lon="11.186649727468886"><ele>1265.0</ele><time>2026-05-02T13:40:54.999Z</time></trkpt><trkpt lat="45.91949547875025" lon="11.186563949036849"><ele>1266.0</ele><time>2026-05-02T13:40:55.999Z</time></trkpt><trkpt lat="45.91941029243221" lon="11.186484507914123"><ele>1266.0</ele><time>2026-05-02T13:40:56.999Z</time></trkpt><trkpt lat="45.91932105847781" lon="11.186416871478018"><ele>1266.0</ele><time>2026-05-02T13:40:57.999Z</time></trkpt><trkpt lat="45.91922869574668" lon="11.186353598766098"><ele>1266.0</ele><time>2026-05-02T13:40:58.999Z</time></trkpt><trkpt lat="45.919126083645686" lon="11.186308971784937"><ele>1266.0</ele><time>2026-05-02T13:40:59.999Z</time></trkpt><trkpt lat="45.91901849164716" lon="11.186277235177277"><ele>1266.0</ele><time>2026-05-02T13:41:00.999Z</time></trkpt><trkpt lat="45.91890754814347" lon="11.18626276439928"><ele>1262.3999999999999</ele><time>2026-05-02T13:41:01.999Z</time></trkpt><trkpt lat="45.91879608213884" lon="11.186253393259166"><ele>1258.8</ele><time>2026-05-02T13:41:02.999Z</time></trkpt><trkpt lat="45.918685378216836" lon="11.186251635881368"><ele>1255.1999999999998</ele><time>2026-05-02T13:41:03.999Z</time></trkpt><trkpt lat="45.91858124281042" lon="11.186253837126067"><ele>1251.6</ele><time>2026-05-02T13:41:04.999Z</time></trkpt><trkpt lat="45.91848327060872" lon="11.186256009150883"><ele>1248.0</ele><time>2026-05-02T13:41:05.999Z</time></trkpt><trkpt lat="45.91839529293914" lon="11.186260096817897"><ele>1247.0</ele><time>2026-05-02T13:41:06.999Z</time></trkpt><trkpt lat="45.91829823279365" lon="11.186263782728876"><ele>1246.0</ele><time>2026-05-02T13:41:07.999Z</time></trkpt><trkpt lat="45.91819740985564" lon="11.1862630555492"><ele>1245.0</ele><time>2026-05-02T13:41:08.999Z</time></trkpt><trkpt lat="45.91809083935535" lon="11.186265987113794"><ele>1244.0</ele><time>2026-05-02T13:41:09.999Z</time></trkpt><trkpt lat="45.91796919944861" lon="11.186268829687297"><ele>1243.0</ele><time>2026-05-02T13:41:10.999Z</time></trkpt><trkpt lat="45.91783969116477" lon="11.186272455492137"><ele>1243.0</ele><time>2026-05-02T13:41:11.999Z</time></trkpt><trkpt lat="45.917714770711605" lon="11.186276590195503"><ele>1243.0</ele><time>2026-05-02T13:41:12.999Z</time></trkpt><trkpt lat="45.91759816131533" lon="11.186272085705726"><ele>1243.0</ele><time>2026-05-02T13:41:13.999Z</time></trkpt><trkpt lat="45.91748713382944" lon="11.186273208727485"><ele>1243.0</ele><time>2026-05-02T13:41:14.999Z</time></trkpt><trkpt lat="45.917381464480435" lon="11.186276663762937"><ele>1242.75</ele><time>2026-05-02T13:41:15.999Z</time></trkpt><trkpt lat="45.91727553491807" lon="11.186278651726676"><ele>1242.5</ele><time>2026-05-02T13:41:16.999Z</time></trkpt><trkpt lat="45.91716320843865" lon="11.186278977365665"><ele>1242.25</ele><time>2026-05-02T13:41:17.999Z</time></trkpt><trkpt lat="45.917047118655205" lon="11.186278703890995"><ele>1242.0</ele><time>2026-05-02T13:41:18.999Z</time></trkpt><trkpt lat="45.91692718187076" lon="11.186284231848443"><ele>1242.0</ele><time>2026-05-02T13:41:19.999Z</time></trkpt><trkpt lat="45.91680544273839" lon="11.186286507498346"><ele>1242.0</ele><time>2026-05-02T13:41:21Z</time></trkpt><trkpt lat="45.91668258024542" lon="11.186290658404554"><ele>1242.0</ele><time>2026-05-02T13:41:22Z</time></trkpt><trkpt lat="45.9165652667402" lon="11.186296557691458"><ele>1242.0</ele><time>2026-05-02T13:41:23Z</time></trkpt><trkpt lat="45.91644627026698" lon="11.186294962066851"><ele>1240.0</ele><time>2026-05-02T13:41:24Z</time></trkpt><trkpt lat="45.91631526242954" lon="11.186274354469786"><ele>1238.0</ele><time>2026-05-02T13:41:25Z</time></trkpt><trkpt lat="45.91618904700142" lon="11.186244749857591"><ele>1236.0</ele><time>2026-05-02T13:41:26Z</time></trkpt><trkpt lat="45.9160507028378" lon="11.186187725238328"><ele>1234.0</ele><time>2026-05-02T13:41:27Z</time></trkpt><trkpt lat="45.91592205557568" lon="11.186114658639017"><ele>1232.25</ele><time>2026-05-02T13:41:28Z</time></trkpt><trkpt lat="45.91580387587085" lon="11.186027446828101"><ele>1230.5</ele><time>2026-05-02T13:41:29Z</time></trkpt><trkpt lat="45.915689972665234" lon="11.185928302576851"><ele>1228.75</ele><time>2026-05-02T13:41:30Z</time></trkpt><trkpt lat="45.9155845309805" lon="11.185813727190013"><ele>1227.0</ele><time>2026-05-02T13:41:31Z</time></trkpt><trkpt lat="45.9154775250998" lon="11.185697987075889"><ele>1226.75</ele><time>2026-05-02T13:41:32Z</time></trkpt><trkpt lat="45.91536940979982" lon="11.185583960698363"><ele>1226.5</ele><time>2026-05-02T13:41:33Z</time></trkpt><trkpt lat="45.91525085266883" lon="11.185465594502427"><ele>1226.25</ele><time>2026-05-02T13:41:34Z</time></trkpt><trkpt lat="45.91512633436217" lon="11.185343858925254"><ele>1226.0</ele><time>2026-05-02T13:41:35Z</time></trkpt><trkpt lat="45.915003113781935" lon="11.185224007195345"><ele>1223.75</ele><time>2026-05-02T13:41:36Z</time></trkpt><trkpt lat="45.914887098339435" lon="11.185105824746081"><ele>1221.5</ele><time>2026-05-02T13:41:37Z</time></trkpt><trkpt lat="45.91479365094184" lon="11.184995307733125"><ele>1219.25</ele><time>2026-05-02T13:41:38Z</time></trkpt><trkpt lat="45.91470644271917" lon="11.184890247509195"><ele>1217.0</ele><time>2026-05-02T13:41:39Z</time></trkpt><trkpt lat="45.91463079963409" lon="11.184776901420303"><ele>1217.0</ele><time>2026-05-02T13:41:40Z</time></trkpt><trkpt lat="45.914564209690845" lon="11.18464912043873"><ele>1217.0</ele><time>2026-05-02T13:41:41Z</time></trkpt><trkpt lat="45.91450358427381" lon="11.184518369070782"><ele>1217.0</ele><time>2026-05-02T13:41:42Z</time></trkpt><trkpt lat="45.91445301308945" lon="11.18439026026774"><ele>1217.0</ele><time>2026-05-02T13:41:43Z</time></trkpt><trkpt lat="45.9144191303614" lon="11.184276861704783"><ele>1217.0</ele><time>2026-05-02T13:41:44Z</time></trkpt><trkpt lat="45.91439547288409" lon="11.184191459634738"><ele>1217.0</ele><time>2026-05-02T13:41:45Z</time></trkpt><trkpt lat="45.91433123442863" lon="11.184020601646012"><ele>1217.0</ele><time>2026-05-02T13:41:47Z</time></trkpt><trkpt lat="45.914258823235656" lon="11.183924925469391"><ele>1217.0</ele><time>2026-05-02T13:41:48Z</time></trkpt><trkpt lat="45.91417871513029" lon="11.183814564951406"><ele>1217.0</ele><time>2026-05-02T13:41:49Z</time></trkpt><trkpt lat="45.91411453994344" lon="11.183666056306143"><ele>1213.25</ele><time>2026-05-02T13:41:50Z</time></trkpt><trkpt lat="45.91405005344711" lon="11.18349818998811"><ele>1209.5</ele><time>2026-05-02T13:41:51Z</time></trkpt><trkpt lat="45.91398115501187" lon="11.18331856232085"><ele>1205.75</ele><time>2026-05-02T13:41:52Z</time></trkpt><trkpt lat="45.91391006085055" lon="11.183141576067241"><ele>1202.0</ele><time>2026-05-02T13:41:53Z</time></trkpt><trkpt lat="45.91384165577752" lon="11.182970239085515"><ele>1201.0</ele><time>2026-05-02T13:41:54Z</time></trkpt><trkpt lat="45.91377322072207" lon="11.182801066048677"><ele>1200.0</ele><time>2026-05-02T13:41:55Z</time></trkpt><trkpt lat="45.91370371309499" lon="11.182635658729769"><ele>1199.0</ele><time>2026-05-02T13:41:56Z</time></trkpt><trkpt lat="45.91363288023292" lon="11.182473644934273"><ele>1198.0</ele><time>2026-05-02T13:41:57Z</time></trkpt><trkpt lat="45.913560697421154" lon="11.182315111205307"><ele>1196.6666666666665</ele><time>2026-05-02T13:41:58Z</time></trkpt><trkpt lat="45.9134798517793" lon="11.182140313788016"><ele>1195.3333333333333</ele><time>2026-05-02T13:41:59Z</time></trkpt><trkpt lat="45.913386309516284" lon="11.181958579554852"><ele>1194.0</ele><time>2026-05-02T13:42:00Z</time></trkpt><trkpt lat="45.9132960328345" lon="11.18178297735744"><ele>1192.75</ele><time>2026-05-02T13:42:01Z</time></trkpt><trkpt lat="45.91320771997201" lon="11.181608252374756"><ele>1191.5</ele><time>2026-05-02T13:42:02Z</time></trkpt><trkpt lat="45.913124382504336" lon="11.181442133492663"><ele>1190.25</ele><time>2026-05-02T13:42:03Z</time></trkpt><trkpt lat="45.91304919941593" lon="11.181297537797027"><ele>1189.0</ele><time>2026-05-02T13:42:04Z</time></trkpt><trkpt lat="45.91298412572367" lon="11.181169460963693"><ele>1187.5</ele><time>2026-05-02T13:42:05Z</time></trkpt><trkpt lat="45.91291981677032" lon="11.181041206393468"><ele>1186.0</ele><time>2026-05-02T13:42:06Z</time></trkpt><trkpt lat="45.91285857318918" lon="11.180904238155222"><ele>1184.5</ele><time>2026-05-02T13:42:07Z</time></trkpt><trkpt lat="45.91280078164821" lon="11.180761405720894"><ele>1183.0</ele><time>2026-05-02T13:42:08Z</time></trkpt><trkpt lat="45.91275496312877" lon="11.180600624811252"><ele>1181.5</ele><time>2026-05-02T13:42:09Z</time></trkpt><trkpt lat="45.91271389042585" lon="11.180430511609776"><ele>1180.0</ele><time>2026-05-02T13:42:10Z</time></trkpt><trkpt lat="45.912678650776535" lon="11.180249709553372"><ele>1178.5</ele><time>2026-05-02T13:42:11Z</time></trkpt><trkpt lat="45.912657314370655" lon="11.180068604027907"><ele>1177.0</ele><time>2026-05-02T13:42:12Z</time></trkpt><trkpt lat="45.91264556292161" lon="11.179890690201395"><ele>1175.75</ele><time>2026-05-02T13:42:13Z</time></trkpt><trkpt lat="45.912646091060545" lon="11.179712427629994"><ele>1174.5</ele><time>2026-05-02T13:42:14Z</time></trkpt><trkpt lat="45.912658270374635" lon="11.179537637216972"><ele>1173.25</ele><time>2026-05-02T13:42:15Z</time></trkpt><trkpt lat="45.91267583117972" lon="11.179369594374473"><ele>1172.0</ele><time>2026-05-02T13:42:16Z</time></trkpt><trkpt lat="45.912695987373695" lon="11.179225959374538"><ele>1172.0</ele><time>2026-05-02T13:42:17Z</time></trkpt><trkpt lat="45.91271924001813" lon="11.179107585460944"><ele>1172.0</ele><time>2026-05-02T13:42:18Z</time></trkpt><trkpt lat="45.91274683925769" lon="11.179000133128403"><ele>1172.0</ele><time>2026-05-02T13:42:19Z</time></trkpt><trkpt lat="45.91277811564181" lon="11.178909093794635"><ele>1172.0</ele><time>2026-05-02T13:42:20Z</time></trkpt><trkpt lat="45.912806577638705" lon="11.178821137486674"><ele>1172.0</ele><time>2026-05-02T13:42:21Z</time></trkpt><trkpt lat="45.91284555582429" lon="11.178652259550352"><ele>1172.0</ele><time>2026-05-02T13:42:23Z</time></trkpt><trkpt lat="45.91286301464803" lon="11.178556680403208"><ele>1171.5714285714284</ele><time>2026-05-02T13:42:24Z</time></trkpt><trkpt lat="45.912877803237876" lon="11.178456576512996"><ele>1171.142857142857</ele><time>2026-05-02T13:42:25Z</time></trkpt><trkpt lat="45.91287606326194" lon="11.178354666109145"><ele>1170.7142857142858</ele><time>2026-05-02T13:42:26Z</time></trkpt><trkpt lat="45.912862083685546" lon="11.178255701963058"><ele>1170.2857142857142</ele><time>2026-05-02T13:42:27Z</time></trkpt><trkpt lat="45.91284647213523" lon="11.178154158718991"><ele>1169.857142857143</ele><time>2026-05-02T13:42:28Z</time></trkpt><trkpt lat="45.91284976636729" lon="11.178049976099436"><ele>1169.4285714285713</ele><time>2026-05-02T13:42:29Z</time></trkpt><trkpt lat="45.91289177274065" lon="11.177945529768225"><ele>1169.0</ele><time>2026-05-02T13:42:30Z</time></trkpt><trkpt lat="45.91294197019318" lon="11.177814113360116"><ele>1168.25</ele><time>2026-05-02T13:42:31Z</time></trkpt><trkpt lat="45.91298317530623" lon="11.177660059128625"><ele>1167.5</ele><time>2026-05-02T13:42:32Z</time></trkpt><trkpt lat="45.91302026782157" lon="11.17748054848996"><ele>1166.75</ele><time>2026-05-02T13:42:33Z</time></trkpt><trkpt lat="45.91305558898361" lon="11.177301313522465"><ele>1166.0</ele><time>2026-05-02T13:42:34Z</time></trkpt><trkpt lat="45.913087604489" lon="11.177129926008027"><ele>1164.25</ele><time>2026-05-02T13:42:35Z</time></trkpt><trkpt lat="45.913121285576636" lon="11.17696201275734"><ele>1162.5</ele><time>2026-05-02T13:42:36Z</time></trkpt><trkpt lat="45.91315342253503" lon="11.176787903572935"><ele>1160.75</ele><time>2026-05-02T13:42:37Z</time></trkpt><trkpt lat="45.91318964742907" lon="11.176602074914253"><ele>1159.0</ele><time>2026-05-02T13:42:38Z</time></trkpt><trkpt lat="45.91322365867787" lon="11.176405640141006"><ele>1157.0</ele><time>2026-05-02T13:42:39Z</time></trkpt><trkpt lat="45.91325521287017" lon="11.17619939364965"><ele>1155.0</ele><time>2026-05-02T13:42:40Z</time></trkpt><trkpt lat="45.91328928632631" lon="11.175983241289726"><ele>1153.0</ele><time>2026-05-02T13:42:41Z</time></trkpt><trkpt lat="45.913330190606324" lon="11.175757220543241"><ele>1150.0</ele><time>2026-05-02T13:42:42Z</time></trkpt><trkpt lat="45.913368561634805" lon="11.1755264077354"><ele>1147.0</ele><time>2026-05-02T13:42:43Z</time></trkpt><trkpt lat="45.91339188993767" lon="11.175289770261411"><ele>1144.0</ele><time>2026-05-02T13:42:44Z</time></trkpt><trkpt lat="45.91340401104739" lon="11.175044657457832"><ele>1146.6666666666665</ele><time>2026-05-02T13:42:45Z</time></trkpt><trkpt lat="45.91341272554568" lon="11.17480204408225"><ele>1149.3333333333333</ele><time>2026-05-02T13:42:46Z</time></trkpt><trkpt lat="45.913421681250874" lon="11.17455792670767"><ele>1152.0</ele><time>2026-05-02T13:42:47Z</time></trkpt><trkpt lat="45.913433035714895" lon="11.174317809939058"><ele>1152.0</ele><time>2026-05-02T13:42:48Z</time></trkpt><trkpt lat="45.913445242515365" lon="11.174085958990828"><ele>1152.0</ele><time>2026-05-02T13:42:49Z</time></trkpt><trkpt lat="45.913457046013946" lon="11.173861529906006"><ele>1152.0</ele><time>2026-05-02T13:42:50Z</time></trkpt><trkpt lat="45.913466950291415" lon="11.173644694977856"><ele>1151.5</ele><time>2026-05-02T13:42:51Z</time></trkpt><trkpt lat="45.91347505951218" lon="11.173432811273324"><ele>1151.0</ele><time>2026-05-02T13:42:52Z</time></trkpt><trkpt lat="45.91348137317515" lon="11.173228654035059"><ele>1150.5</ele><time>2026-05-02T13:42:53Z</time></trkpt><trkpt lat="45.913487456849786" lon="11.173026149868889"><ele>1150.0</ele><time>2026-05-02T13:42:54Z</time></trkpt><trkpt lat="45.91349400399567" lon="11.172818924340662"><ele>1148.75</ele><time>2026-05-02T13:42:55Z</time></trkpt><trkpt lat="45.913506743121104" lon="11.172610515579963"><ele>1147.5</ele><time>2026-05-02T13:42:56Z</time></trkpt><trkpt lat="45.913520366181466" lon="11.172405819509471"><ele>1146.25</ele><time>2026-05-02T13:42:57Z</time></trkpt><trkpt lat="45.91353694053452" lon="11.17220799198253"><ele>1145.0</ele><time>2026-05-02T13:42:58Z</time></trkpt><trkpt lat="45.913558074472625" lon="11.17200338033926"><ele>1143.3333333333335</ele><time>2026-05-02T13:42:59Z</time></trkpt><trkpt lat="45.91358954991455" lon="11.17179069935866"><ele>1141.6666666666667</ele><time>2026-05-02T13:43:00Z</time></trkpt><trkpt lat="45.91362647547917" lon="11.17157061284856"><ele>1140.0</ele><time>2026-05-02T13:43:01Z</time></trkpt><trkpt lat="45.91366349351608" lon="11.171352781001636"><ele>1138.75</ele><time>2026-05-02T13:43:02Z</time></trkpt><trkpt lat="45.91369933787932" lon="11.171143101269209"><ele>1137.5</ele><time>2026-05-02T13:43:03Z</time></trkpt><trkpt lat="45.913730681444356" lon="11.170939656915372"><ele>1136.25</ele><time>2026-05-02T13:43:04Z</time></trkpt><trkpt lat="45.91376189111436" lon="11.17072801409019"><ele>1135.0</ele><time>2026-05-02T13:43:05Z</time></trkpt><trkpt lat="45.913794738334666" lon="11.170509078456034"><ele>1134.3333333333333</ele><time>2026-05-02T13:43:06Z</time></trkpt><trkpt lat="45.91383074521958" lon="11.170288396722874"><ele>1133.6666666666667</ele><time>2026-05-02T13:43:07Z</time></trkpt><trkpt lat="45.91387038947174" lon="11.170063474923293"><ele>1133.0</ele><time>2026-05-02T13:43:08Z</time></trkpt><trkpt lat="45.913909515647795" lon="11.169834328438624"><ele>1130.6666666666667</ele><time>2026-05-02T13:43:09Z</time></trkpt><trkpt lat="45.91395091049148" lon="11.169601541311634"><ele>1128.3333333333333</ele><time>2026-05-02T13:43:10Z</time></trkpt><trkpt lat="45.913990949558396" lon="11.169383946657423"><ele>1126.0</ele><time>2026-05-02T13:43:11Z</time></trkpt><trkpt lat="45.91402608622775" lon="11.169172430746773"><ele>1125.25</ele><time>2026-05-02T13:43:12Z</time></trkpt><trkpt lat="45.91405910036058" lon="11.168971072470812"><ele>1124.5</ele><time>2026-05-02T13:43:13Z</time></trkpt><trkpt lat="45.914087493144514" lon="11.168774552033918"><ele>1123.75</ele><time>2026-05-02T13:43:14Z</time></trkpt><trkpt lat="45.914118375516104" lon="11.168581366637381"><ele>1123.0</ele><time>2026-05-02T13:43:15Z</time></trkpt><trkpt lat="45.914148316580615" lon="11.168385650044753"><ele>1123.0</ele><time>2026-05-02T13:43:16Z</time></trkpt><trkpt lat="45.914177444109185" lon="11.1681955641422"><ele>1123.0</ele><time>2026-05-02T13:43:17Z</time></trkpt><trkpt lat="45.914206122465714" lon="11.168012098095518"><ele>1123.0</ele><time>2026-05-02T13:43:18Z</time></trkpt><trkpt lat="45.914234073135795" lon="11.167837014000328"><ele>1123.0</ele><time>2026-05-02T13:43:18.999Z</time></trkpt><trkpt lat="45.91425945881235" lon="11.167686606074009"><ele>1124.1666666666665</ele><time>2026-05-02T13:43:19.999Z</time></trkpt><trkpt lat="45.91428225060475" lon="11.167555469330026"><ele>1125.3333333333333</ele><time>2026-05-02T13:43:20.999Z</time></trkpt><trkpt lat="45.91430221604253" lon="11.167436150778686"><ele>1126.5</ele><time>2026-05-02T13:43:21.999Z</time></trkpt><trkpt lat="45.91431931342519" lon="11.167327528015997"><ele>1127.6666666666667</ele><time>2026-05-02T13:43:22.999Z</time></trkpt><trkpt lat="45.91433373946974" lon="11.167233534386055"><ele>1128.8333333333335</ele><time>2026-05-02T13:43:23.999Z</time></trkpt><trkpt lat="45.91436654727954" lon="11.167134696866015"><ele>1130.0</ele><time>2026-05-02T13:43:25.999Z</time></trkpt><trkpt lat="45.91442958021577" lon="11.16708068829612"><ele>1130.0</ele><time>2026-05-02T13:43:28Z</time></trkpt><trkpt lat="45.914449729277784" lon="11.166977620532442"><ele>1130.0</ele><time>2026-05-02T13:43:32Z</time></trkpt><trkpt lat="45.914553892625186" lon="11.166917338379788"><ele>1130.0</ele><time>2026-05-02T13:43:41Z</time></trkpt><trkpt lat="45.9145646997797" lon="11.166827895225877"><ele>1130.0</ele><time>2026-05-02T13:43:53Z</time></trkpt><trkpt lat="45.91456129181411" lon="11.16693109482559"><ele>1130.0</ele><time>2026-05-02T13:44:05Z</time></trkpt><trkpt lat="45.914504710183" lon="11.166888639569029"><ele>1130.0</ele><time>2026-05-02T13:44:29Z</time></trkpt><trkpt lat="45.91450162117258" lon="11.166782369561579"><ele>1130.0</ele><time>2026-05-02T13:48:17.999Z</time></trkpt><trkpt lat="45.914511292702414" lon="11.166683253354083"><ele>1130.0</ele><time>2026-05-02T13:48:22.999Z</time></trkpt><trkpt lat="45.91450881620954" lon="11.166590794026947"><ele>1130.0</ele><time>2026-05-02T13:48:26.999Z</time></trkpt><trkpt lat="45.91448823649333" lon="11.16648999599096"><ele>1130.0</ele><time>2026-05-02T13:48:29.999Z</time></trkpt><trkpt lat="45.914469311059875" lon="11.166399501954665"><ele>1130.0</ele><time>2026-05-02T13:48:31.999Z</time></trkpt><trkpt lat="45.91448023423927" lon="11.166272881531613"><ele>1130.0</ele><time>2026-05-02T13:48:33.999Z</time></trkpt><trkpt lat="45.914513978739805" lon="11.166088451948472"><ele>1128.8333333333335</ele><time>2026-05-02T13:48:35.999Z</time></trkpt><trkpt lat="45.91453429254281" lon="11.165968386307378"><ele>1127.6666666666667</ele><time>2026-05-02T13:48:36.999Z</time></trkpt><trkpt lat="45.914554158510676" lon="11.165842922241266"><ele>1126.5</ele><time>2026-05-02T13:48:37.999Z</time></trkpt><trkpt lat="45.91457261149653" lon="11.165722718118454"><ele>1125.3333333333333</ele><time>2026-05-02T13:48:38.999Z</time></trkpt><trkpt lat="45.91459194594098" lon="11.165603117867006"><ele>1124.1666666666665</ele><time>2026-05-02T13:48:39.999Z</time></trkpt><trkpt lat="45.91461245207736" lon="11.165484251376835"><ele>1123.0</ele><time>2026-05-02T13:48:40.999Z</time></trkpt><trkpt lat="45.914635916865315" lon="11.16534765826602"><ele>1121.25</ele><time>2026-05-02T13:48:41.999Z</time></trkpt><trkpt lat="45.91465771369421" lon="11.165191653372329"><ele>1119.5</ele><time>2026-05-02T13:48:42.999Z</time></trkpt><trkpt lat="45.91467511821163" lon="11.165020328693439"><ele>1117.75</ele><time>2026-05-02T13:48:43.999Z</time></trkpt><trkpt lat="45.91469170421546" lon="11.164834776649023"><ele>1116.0</ele><time>2026-05-02T13:48:44.999Z</time></trkpt><trkpt lat="45.914704240635345" lon="11.164655615335036"><ele>1114.5</ele><time>2026-05-02T13:48:45.999Z</time></trkpt><trkpt lat="45.91471039493635" lon="11.16447239587706"><ele>1113.0</ele><time>2026-05-02T13:48:46.999Z</time></trkpt><trkpt lat="45.91471358679532" lon="11.16427065550831"><ele>1111.5</ele><time>2026-05-02T13:48:47.999Z</time></trkpt><trkpt lat="45.91471335521796" lon="11.164065375461066"><ele>1110.0</ele><time>2026-05-02T13:48:48.999Z</time></trkpt><trkpt lat="45.91471291404448" lon="11.163866437663236"><ele>1109.25</ele><time>2026-05-02T13:48:49.999Z</time></trkpt><trkpt lat="45.914714859668884" lon="11.163668890740066"><ele>1108.5</ele><time>2026-05-02T13:48:50.999Z</time></trkpt><trkpt lat="45.91471739604091" lon="11.16346282720108"><ele>1107.75</ele><time>2026-05-02T13:48:51.999Z</time></trkpt><trkpt lat="45.914718282082525" lon="11.163250080331888"><ele>1107.0</ele><time>2026-05-02T13:48:52.999Z</time></trkpt><trkpt lat="45.91471981771109" lon="11.163031308990481"><ele>1105.6666666666667</ele><time>2026-05-02T13:48:53.999Z</time></trkpt><trkpt lat="45.91472356972154" lon="11.162812583582733"><ele>1104.3333333333335</ele><time>2026-05-02T13:48:54.999Z</time></trkpt><trkpt lat="45.91473160598902" lon="11.162599236148333"><ele>1103.0</ele><time>2026-05-02T13:48:55.999Z</time></trkpt><trkpt lat="45.91475227972964" lon="11.162385822418852"><ele>1100.0</ele><time>2026-05-02T13:48:56.999Z</time></trkpt><trkpt lat="45.91478400132254" lon="11.16217181637866"><ele>1097.0</ele><time>2026-05-02T13:48:57.999Z</time></trkpt><trkpt lat="45.91482150248415" lon="11.16194502206155"><ele>1094.0</ele><time>2026-05-02T13:48:58.999Z</time></trkpt><trkpt lat="45.91486684187946" lon="11.161699599465718"><ele>1091.0</ele><time>2026-05-02T13:48:59.999Z</time></trkpt><trkpt lat="45.914915862481806" lon="11.161448740580513"><ele>1088.0</ele><time>2026-05-02T13:49:00.999Z</time></trkpt><trkpt lat="45.914972883138454" lon="11.16121122798684"><ele>1085.0</ele><time>2026-05-02T13:49:01.999Z</time></trkpt><trkpt lat="45.91503872384292" lon="11.160982830459423"><ele>1086.0</ele><time>2026-05-02T13:49:02.999Z</time></trkpt><trkpt lat="45.9151080132965" lon="11.16076091859762"><ele>1087.0</ele><time>2026-05-02T13:49:03.999Z</time></trkpt><trkpt lat="45.91518140123378" lon="11.160543660299874"><ele>1088.0</ele><time>2026-05-02T13:49:04.999Z</time></trkpt><trkpt lat="45.915265011005964" lon="11.160319420716093"><ele>1088.0</ele><time>2026-05-02T13:49:05.999Z</time></trkpt><trkpt lat="45.91535765383594" lon="11.160102017912344"><ele>1088.0</ele><time>2026-05-02T13:49:06.999Z</time></trkpt><trkpt lat="45.915454955113795" lon="11.159899218990251"><ele>1088.0</ele><time>2026-05-02T13:49:07.999Z</time></trkpt><trkpt lat="45.9155560548586" lon="11.159704282236577"><ele>1083.6666666666667</ele><time>2026-05-02T13:49:08.999Z</time></trkpt><trkpt lat="45.9156574198212" lon="11.15951600887447"><ele>1079.3333333333333</ele><time>2026-05-02T13:49:09.999Z</time></trkpt><trkpt lat="45.9157554457247" lon="11.15934198976683"><ele>1075.0</ele><time>2026-05-02T13:49:10.999Z</time></trkpt><trkpt lat="45.91584305625627" lon="11.159191271260148"><ele>1075.0</ele><time>2026-05-02T13:49:11.999Z</time></trkpt><trkpt lat="45.91592181816273" lon="11.15904040286266"><ele>1075.0</ele><time>2026-05-02T13:49:12.999Z</time></trkpt><trkpt lat="45.9159825397384" lon="11.158885133826297"><ele>1075.0</ele><time>2026-05-02T13:49:13.999Z</time></trkpt><trkpt lat="45.91602188456993" lon="11.15873913732888"><ele>1075.0</ele><time>2026-05-02T13:49:14.999Z</time></trkpt><trkpt lat="45.91603320270102" lon="11.158593363965014"><ele>1075.0</ele><time>2026-05-02T13:49:15.999Z</time></trkpt><trkpt lat="45.916027914603916" lon="11.158438956481346"><ele>1075.0</ele><time>2026-05-02T13:49:16.999Z</time></trkpt><trkpt lat="45.91596940604793" lon="11.158292138708708"><ele>1075.0</ele><time>2026-05-02T13:49:17.999Z</time></trkpt><trkpt lat="45.91589177193538" lon="11.158172600421858"><ele>1075.0</ele><time>2026-05-02T13:49:18.999Z</time></trkpt><trkpt lat="45.915773319739934" lon="11.158127579691024"><ele>1073.25</ele><time>2026-05-02T13:49:19.999Z</time></trkpt><trkpt lat="45.915656893867016" lon="11.158129897512353"><ele>1071.5</ele><time>2026-05-02T13:49:20.999Z</time></trkpt><trkpt lat="45.91553791509132" lon="11.158185582857717"><ele>1069.75</ele><time>2026-05-02T13:49:21.999Z</time></trkpt><trkpt lat="45.915395394012535" lon="11.15827136290273"><ele>1068.0</ele><time>2026-05-02T13:49:22.999Z</time></trkpt><trkpt lat="45.91524368261559" lon="11.158387909705095"><ele>1068.0</ele><time>2026-05-02T13:49:23.999Z</time></trkpt><trkpt lat="45.915098373876724" lon="11.158510353060164"><ele>1068.0</ele><time>2026-05-02T13:49:24.999Z</time></trkpt><trkpt lat="45.91495813359082" lon="11.15863422617568"><ele>1068.0</ele><time>2026-05-02T13:49:25.999Z</time></trkpt><trkpt lat="45.91481350136872" lon="11.158744238981642"><ele>1064.0</ele><time>2026-05-02T13:49:26.999Z</time></trkpt><trkpt lat="45.91465103219168" lon="11.158808154197185"><ele>1060.0</ele><time>2026-05-02T13:49:27.999Z</time></trkpt><trkpt lat="45.914486327102885" lon="11.15883963822622"><ele>1056.0</ele><time>2026-05-02T13:49:28.999Z</time></trkpt><trkpt lat="45.91433879061237" lon="11.158858497571044"><ele>1054.6666666666667</ele><time>2026-05-02T13:49:29.999Z</time></trkpt><trkpt lat="45.914207555219285" lon="11.158897541812188"><ele>1053.3333333333335</ele><time>2026-05-02T13:49:30.999Z</time></trkpt><trkpt lat="45.91406934747409" lon="11.158981400103762"><ele>1052.0</ele><time>2026-05-02T13:49:31.999Z</time></trkpt><trkpt lat="45.9139216309579" lon="11.159093662660167"><ele>1052.0</ele><time>2026-05-02T13:49:32.999Z</time></trkpt><trkpt lat="45.913783065857736" lon="11.159209391181749"><ele>1052.0</ele><time>2026-05-02T13:49:33.999Z</time></trkpt><trkpt lat="45.91366068274682" lon="11.159316891688263"><ele>1052.0</ele><time>2026-05-02T13:49:34.999Z</time></trkpt><trkpt lat="45.91354842011826" lon="11.159467967518017"><ele>1052.0</ele><time>2026-05-02T13:49:35.999Z</time></trkpt><trkpt lat="45.913439604760974" lon="11.159656678238049"><ele>1052.0</ele><time>2026-05-02T13:49:36.999Z</time></trkpt><trkpt lat="45.91333513339755" lon="11.15983505123861"><ele>1052.0</ele><time>2026-05-02T13:49:37.999Z</time></trkpt><trkpt lat="45.913247656618154" lon="11.15996417790392"><ele>1050.2</ele><time>2026-05-02T13:49:38.999Z</time></trkpt><trkpt lat="45.91315978349443" lon="11.160059576179393"><ele>1048.4</ele><time>2026-05-02T13:49:39.999Z</time></trkpt><trkpt lat="45.913061413866814" lon="11.160109876153847"><ele>1046.6</ele><time>2026-05-02T13:49:40.999Z</time></trkpt><trkpt lat="45.91295652811257" lon="11.160131070161084"><ele>1044.8</ele><time>2026-05-02T13:49:41.999Z</time></trkpt><trkpt lat="45.91285154159339" lon="11.160123824136349"><ele>1043.0</ele><time>2026-05-02T13:49:42.999Z</time></trkpt><trkpt lat="45.912754523521826" lon="11.160064974245472"><ele>1043.0</ele><time>2026-05-02T13:49:43.999Z</time></trkpt><trkpt lat="45.91267701678886" lon="11.159954041739496"><ele>1043.0</ele><time>2026-05-02T13:49:45Z</time></trkpt><trkpt lat="45.9126183160747" lon="11.15979872632889"><ele>1043.0</ele><time>2026-05-02T13:49:46Z</time></trkpt><trkpt lat="45.912582684065875" lon="11.15958645718043"><ele>1043.0</ele><time>2026-05-02T13:49:47Z</time></trkpt><trkpt lat="45.91256214106096" lon="11.15934457374192"><ele>1038.6666666666667</ele><time>2026-05-02T13:49:48Z</time></trkpt><trkpt lat="45.91257064795716" lon="11.15908783200653"><ele>1034.3333333333333</ele><time>2026-05-02T13:49:49Z</time></trkpt><trkpt lat="45.912589771685205" lon="11.158903556600848"><ele>1030.0</ele><time>2026-05-02T13:49:50Z</time></trkpt><trkpt lat="45.91262340963743" lon="11.158660603050194"><ele>1030.0</ele><time>2026-05-02T13:49:51Z</time></trkpt><trkpt lat="45.91265743995488" lon="11.158428706274508"><ele>1030.0</ele><time>2026-05-02T13:49:52Z</time></trkpt><trkpt lat="45.912712059803624" lon="11.158214989174011"><ele>1030.0</ele><time>2026-05-02T13:49:53Z</time></trkpt><trkpt lat="45.9127632755261" lon="11.1580051084341"><ele>1028.0</ele><time>2026-05-02T13:49:54Z</time></trkpt><trkpt lat="45.91280936125975" lon="11.157807793252212"><ele>1026.0</ele><time>2026-05-02T13:49:55Z</time></trkpt><trkpt lat="45.91283475153518" lon="11.157618247910548"><ele>1024.0</ele><time>2026-05-02T13:49:56Z</time></trkpt><trkpt lat="45.91286782328868" lon="11.157419125046328"><ele>1022.0</ele><time>2026-05-02T13:49:57Z</time></trkpt><trkpt lat="45.91288921707565" lon="11.15720932568573"><ele>1021.25</ele><time>2026-05-02T13:49:58Z</time></trkpt><trkpt lat="45.91288742810761" lon="11.156997756603875"><ele>1020.5</ele><time>2026-05-02T13:49:59Z</time></trkpt><trkpt lat="45.912879786121" lon="11.156815807782442"><ele>1019.75</ele><time>2026-05-02T13:50:00Z</time></trkpt><trkpt lat="45.912876257145214" lon="11.156641761981268"><ele>1019.0</ele><time>2026-05-02T13:50:01Z</time></trkpt><trkpt lat="45.91288172339996" lon="11.15645769922911"><ele>1017.25</ele><time>2026-05-02T13:50:02Z</time></trkpt><trkpt lat="45.912861843942764" lon="11.156282853038753"><ele>1015.5</ele><time>2026-05-02T13:50:03Z</time></trkpt><trkpt lat="45.9128504923682" lon="11.15611557183216"><ele>1013.75</ele><time>2026-05-02T13:50:04Z</time></trkpt><trkpt lat="45.912818653453826" lon="11.15595639090082"><ele>1012.0</ele><time>2026-05-02T13:50:05Z</time></trkpt><trkpt lat="45.912786038125795" lon="11.155801553845546"><ele>1009.5</ele><time>2026-05-02T13:50:06Z</time></trkpt><trkpt lat="45.91275517837677" lon="11.155648560612498"><ele>1007.0</ele><time>2026-05-02T13:50:07Z</time></trkpt><trkpt lat="45.91272285032377" lon="11.1554965827228"><ele>1004.5</ele><time>2026-05-02T13:50:08Z</time></trkpt><trkpt lat="45.91269459686906" lon="11.155335180700453"><ele>1002.0</ele><time>2026-05-02T13:50:09Z</time></trkpt><trkpt lat="45.91267959888147" lon="11.155163432566692"><ele>1002.0</ele><time>2026-05-02T13:50:10Z</time></trkpt><trkpt lat="45.91268354207016" lon="11.154983787814214"><ele>1002.0</ele><time>2026-05-02T13:50:11Z</time></trkpt><trkpt lat="45.912710249877236" lon="11.154816308079802"><ele>1002.0</ele><time>2026-05-02T13:50:12Z</time></trkpt><trkpt lat="45.91272720829606" lon="11.154636334406637"><ele>1002.0</ele><time>2026-05-02T13:50:13Z</time></trkpt><trkpt lat="45.912759259027055" lon="11.15444934494287"><ele>1000.25</ele><time>2026-05-02T13:50:14Z</time></trkpt><trkpt lat="45.91279951084878" lon="11.154268238265894"><ele>998.5</ele><time>2026-05-02T13:50:15Z</time></trkpt><trkpt lat="45.912851560696225" lon="11.154102496494621"><ele>996.75</ele><time>2026-05-02T13:50:16Z</time></trkpt><trkpt lat="45.9129167191658" lon="11.153952388543233"><ele>995.0</ele><time>2026-05-02T13:50:17Z</time></trkpt><trkpt lat="45.91299767951537" lon="11.153827796843938"><ele>992.25</ele><time>2026-05-02T13:50:18Z</time></trkpt><trkpt lat="45.91308900831098" lon="11.15371760724001"><ele>989.5</ele><time>2026-05-02T13:50:19Z</time></trkpt><trkpt lat="45.913190238194694" lon="11.15361576663376"><ele>986.75</ele><time>2026-05-02T13:50:20Z</time></trkpt><trkpt lat="45.91329550053326" lon="11.153522797478427"><ele>984.0</ele><time>2026-05-02T13:50:21Z</time></trkpt><trkpt lat="45.913395225588374" lon="11.153424706329663"><ele>983.2</ele><time>2026-05-02T13:50:22Z</time></trkpt><trkpt lat="45.91348006541532" lon="11.153307325977115"><ele>982.4000000000001</ele><time>2026-05-02T13:50:23Z</time></trkpt><trkpt lat="45.9135496460355" lon="11.153178751249781"><ele>981.6</ele><time>2026-05-02T13:50:24Z</time></trkpt><trkpt lat="45.91360929873119" lon="11.153047064502124"><ele>980.8</ele><time>2026-05-02T13:50:25Z</time></trkpt><trkpt lat="45.91365912683643" lon="11.152915298312829"><ele>980.0</ele><time>2026-05-02T13:50:26Z</time></trkpt><trkpt lat="45.913707382179865" lon="11.152784862267449"><ele>980.0</ele><time>2026-05-02T13:50:27Z</time></trkpt><trkpt lat="45.913766042397945" lon="11.152649967913838"><ele>980.0</ele><time>2026-05-02T13:50:28Z</time></trkpt><trkpt lat="45.91383319383608" lon="11.152516848387789"><ele>980.0</ele><time>2026-05-02T13:50:29Z</time></trkpt><trkpt lat="45.913911369148536" lon="11.152384981193617"><ele>980.0</ele><time>2026-05-02T13:50:30Z</time></trkpt><trkpt lat="45.914001578355474" lon="11.152256000075482"><ele>977.75</ele><time>2026-05-02T13:50:31Z</time></trkpt><trkpt lat="45.91409432325892" lon="11.152129961210754"><ele>975.5</ele><time>2026-05-02T13:50:32Z</time></trkpt><trkpt lat="45.914185407776486" lon="11.152006436254977"><ele>973.25</ele><time>2026-05-02T13:50:33Z</time></trkpt><trkpt lat="45.914276604899406" lon="11.15188901451753"><ele>971.0</ele><time>2026-05-02T13:50:34Z</time></trkpt><trkpt lat="45.914368153685594" lon="11.151770176942861"><ele>971.0</ele><time>2026-05-02T13:50:35Z</time></trkpt><trkpt lat="45.91446146545173" lon="11.151649893021597"><ele>971.0</ele><time>2026-05-02T13:50:36Z</time></trkpt><trkpt lat="45.914565954026685" lon="11.151534467324204"><ele>971.0</ele><time>2026-05-02T13:50:37Z</time></trkpt><trkpt lat="45.914683434011835" lon="11.151417670365209"><ele>971.0</ele><time>2026-05-02T13:50:38Z</time></trkpt><trkpt lat="45.91481268265967" lon="11.151312926895415"><ele>967.75</ele><time>2026-05-02T13:50:39Z</time></trkpt><trkpt lat="45.91494509638656" lon="11.15121108668636"><ele>964.5</ele><time>2026-05-02T13:50:40Z</time></trkpt><trkpt lat="45.91507290010599" lon="11.151106193659215"><ele>961.25</ele><time>2026-05-02T13:50:41Z</time></trkpt><trkpt lat="45.915201371905404" lon="11.15100707252748"><ele>958.0</ele><time>2026-05-02T13:50:42Z</time></trkpt><trkpt lat="45.91532898612727" lon="11.150909800527396"><ele>958.0</ele><time>2026-05-02T13:50:43Z</time></trkpt><trkpt lat="45.91545449716794" lon="11.150814487328171"><ele>958.0</ele><time>2026-05-02T13:50:44Z</time></trkpt><trkpt lat="45.91557359604293" lon="11.150731410692622"><ele>958.0</ele><time>2026-05-02T13:50:45Z</time></trkpt><trkpt lat="45.915687439897404" lon="11.150646170726601"><ele>958.0</ele><time>2026-05-02T13:50:46Z</time></trkpt><trkpt lat="45.91580056069987" lon="11.150558552317376"><ele>955.75</ele><time>2026-05-02T13:50:47Z</time></trkpt><trkpt lat="45.91591358688476" lon="11.150474994258357"><ele>953.5</ele><time>2026-05-02T13:50:48Z</time></trkpt><trkpt lat="45.91602769942067" lon="11.150396609817603"><ele>951.25</ele><time>2026-05-02T13:50:49Z</time></trkpt><trkpt lat="45.91614116184924" lon="11.150316000153811"><ele>949.0</ele><time>2026-05-02T13:50:50Z</time></trkpt><trkpt lat="45.91625573448504" lon="11.150247069453291"><ele>949.0</ele><time>2026-05-02T13:50:51Z</time></trkpt><trkpt lat="45.91637171569514" lon="11.150189791777807"><ele>949.0</ele><time>2026-05-02T13:50:52Z</time></trkpt><trkpt lat="45.916487107177716" lon="11.150139376460327"><ele>949.0</ele><time>2026-05-02T13:50:53Z</time></trkpt><trkpt lat="45.916601586031014" lon="11.150090096675047"><ele>949.0</ele><time>2026-05-02T13:50:54Z</time></trkpt><trkpt lat="45.916713958594265" lon="11.150040873736534"><ele>950.75</ele><time>2026-05-02T13:50:55Z</time></trkpt><trkpt lat="45.91682139833666" lon="11.149988532576572"><ele>952.5</ele><time>2026-05-02T13:50:56Z</time></trkpt><trkpt lat="45.91693183935592" lon="11.1499481752935"><ele>954.25</ele><time>2026-05-02T13:50:57Z</time></trkpt><trkpt lat="45.917039199284645" lon="11.149903269172432"><ele>956.0</ele><time>2026-05-02T13:50:58Z</time></trkpt><trkpt lat="45.91715236832976" lon="11.149860400126473"><ele>953.5</ele><time>2026-05-02T13:50:59Z</time></trkpt><trkpt lat="45.917266679524644" lon="11.149806268936755"><ele>951.0</ele><time>2026-05-02T13:51:00Z</time></trkpt><trkpt lat="45.91738048698874" lon="11.149735879975035"><ele>948.5</ele><time>2026-05-02T13:51:01Z</time></trkpt><trkpt lat="45.91748723548994" lon="11.149662124382745"><ele>946.0</ele><time>2026-05-02T13:51:02Z</time></trkpt><trkpt lat="45.91758842105513" lon="11.149581998437094"><ele>946.0</ele><time>2026-05-02T13:51:03Z</time></trkpt><trkpt lat="45.917688850685515" lon="11.1494766550685"><ele>946.0</ele><time>2026-05-02T13:51:04Z</time></trkpt><trkpt lat="45.91779275525863" lon="11.149374995057226"><ele>946.0</ele><time>2026-05-02T13:51:05Z</time></trkpt><trkpt lat="45.917889179988606" lon="11.149272091971078"><ele>946.0</ele><time>2026-05-02T13:51:06Z</time></trkpt><trkpt lat="45.91798462624696" lon="11.149174264101237"><ele>946.0</ele><time>2026-05-02T13:51:07Z</time></trkpt><trkpt lat="45.918069566264855" lon="11.149059197647409"><ele>945.9999999999999</ele><time>2026-05-02T13:51:08Z</time></trkpt><trkpt lat="45.918133617587216" lon="11.148946740106757"><ele>945.9999999999999</ele><time>2026-05-02T13:51:09Z</time></trkpt><trkpt lat="45.91820767298546" lon="11.14885693774926"><ele>946.0</ele><time>2026-05-02T13:51:10Z</time></trkpt><trkpt lat="45.91828446347328" lon="11.148802443369927"><ele>946.0</ele><time>2026-05-02T13:51:11Z</time></trkpt><trkpt lat="45.91835383571712" lon="11.148745698831295"><ele>943.0</ele><time>2026-05-02T13:51:12Z</time></trkpt><trkpt lat="45.918428857837355" lon="11.148734777370132"><ele>939.9999999999999</ele><time>2026-05-02T13:51:13Z</time></trkpt><trkpt lat="45.91851617730636" lon="11.148718187054852"><ele>936.9999999999999</ele><time>2026-05-02T13:51:15Z</time></trkpt><trkpt lat="45.918603788557355" lon="11.148680356508534"><ele>934.0</ele><time>2026-05-02T13:51:17Z</time></trkpt><trkpt lat="45.918667331504466" lon="11.148586766484062"><ele>931.0</ele><time>2026-05-02T13:51:19Z</time></trkpt><trkpt lat="45.918683899673674" lon="11.148438259066697"><ele>930.9999999999999</ele><time>2026-05-02T13:51:21Z</time></trkpt><trkpt lat="45.918629552822054" lon="11.148300355260238"><ele>931.0</ele><time>2026-05-02T13:51:23Z</time></trkpt><trkpt lat="45.91856888311833" lon="11.148238698689518"><ele>931.0</ele><time>2026-05-02T13:51:24Z</time></trkpt><trkpt lat="45.91850300222315" lon="11.148219222890631"><ele>931.0</ele><time>2026-05-02T13:51:25Z</time></trkpt><trkpt lat="45.91843253163617" lon="11.148243369565769"><ele>930.9999999999999</ele><time>2026-05-02T13:51:26Z</time></trkpt><trkpt lat="45.91835694959803" lon="11.14830090792813"><ele>931.0</ele><time>2026-05-02T13:51:27Z</time></trkpt><trkpt lat="45.91823879856133" lon="11.148396269008412"><ele>929.1999999999999</ele><time>2026-05-02T13:51:28Z</time></trkpt><trkpt lat="45.918123666044316" lon="11.148447085418017"><ele>927.3999999999999</ele><time>2026-05-02T13:51:29Z</time></trkpt><trkpt lat="45.91802700102689" lon="11.148524213302334"><ele>925.6</ele><time>2026-05-02T13:51:30Z</time></trkpt><trkpt lat="45.917939748642155" lon="11.14857387063964"><ele>923.8</ele><time>2026-05-02T13:51:31Z</time></trkpt><trkpt lat="45.91786026614346" lon="11.1486192320391"><ele>922.0</ele><time>2026-05-02T13:51:32Z</time></trkpt><trkpt lat="45.91778376242614" lon="11.148657874015248"><ele>922.0</ele><time>2026-05-02T13:51:33Z</time></trkpt><trkpt lat="45.9176984923542" lon="11.14867837126542"><ele>922.0</ele><time>2026-05-02T13:51:34Z</time></trkpt><trkpt lat="45.917601209298944" lon="11.148669591226085"><ele>922.0</ele><time>2026-05-02T13:51:35Z</time></trkpt><trkpt lat="45.9175021604402" lon="11.148622611490284"><ele>922.0</ele><time>2026-05-02T13:51:36Z</time></trkpt><trkpt lat="45.917382886422246" lon="11.148597044557137"><ele>922.0</ele><time>2026-05-02T13:51:37Z</time></trkpt><trkpt lat="45.917273934323866" lon="11.148555484972912"><ele>919.4000000000001</ele><time>2026-05-02T13:51:38Z</time></trkpt><trkpt lat="45.91716798882114" lon="11.148527320537438"><ele>916.8000000000001</ele><time>2026-05-02T13:51:39Z</time></trkpt><trkpt lat="45.91706206687858" lon="11.148502192179244"><ele>914.2</ele><time>2026-05-02T13:51:40Z</time></trkpt><trkpt lat="45.91696204507697" lon="11.148478902133359"><ele>911.6</ele><time>2026-05-02T13:51:41Z</time></trkpt><trkpt lat="45.916863882404954" lon="11.148482466664603"><ele>909.0</ele><time>2026-05-02T13:51:42Z</time></trkpt><trkpt lat="45.916754824813225" lon="11.14851816048583"><ele>907.0</ele><time>2026-05-02T13:51:43Z</time></trkpt><trkpt lat="45.91663300756299" lon="11.148581032549474"><ele>905.0</ele><time>2026-05-02T13:51:44Z</time></trkpt><trkpt lat="45.91650567063149" lon="11.14863519404798"><ele>903.0</ele><time>2026-05-02T13:51:45Z</time></trkpt><trkpt lat="45.916378714293515" lon="11.14867350112586"><ele>901.0</ele><time>2026-05-02T13:51:46Z</time></trkpt><trkpt lat="45.91624761144374" lon="11.148683651416817"><ele>901.0</ele><time>2026-05-02T13:51:47Z</time></trkpt><trkpt lat="45.916101673759016" lon="11.148676025800048"><ele>901.0</ele><time>2026-05-02T13:51:48Z</time></trkpt><trkpt lat="45.915950468670545" lon="11.148667034364706"><ele>901.0</ele><time>2026-05-02T13:51:49Z</time></trkpt><trkpt lat="45.9158057755665" lon="11.148663020577825"><ele>901.0</ele><time>2026-05-02T13:51:50Z</time></trkpt><trkpt lat="45.915679818737246" lon="11.148665507921194"><ele>898.75</ele><time>2026-05-02T13:51:51Z</time></trkpt><trkpt lat="45.915550978644056" lon="11.148664678739946"><ele>896.5</ele><time>2026-05-02T13:51:52Z</time></trkpt><trkpt lat="45.91542401536854" lon="11.148660892535723"><ele>894.25</ele><time>2026-05-02T13:51:53Z</time></trkpt><trkpt lat="45.91530449527963" lon="11.14866250264137"><ele>892.0</ele><time>2026-05-02T13:51:54Z</time></trkpt><trkpt lat="45.915186569622286" lon="11.148664368018416"><ele>892.0</ele><time>2026-05-02T13:51:55Z</time></trkpt><trkpt lat="45.91508025679008" lon="11.148664713136178"><ele>892.0</ele><time>2026-05-02T13:51:56Z</time></trkpt><trkpt lat="45.914983051889216" lon="11.148661685143061"><ele>892.0</ele><time>2026-05-02T13:51:57Z</time></trkpt><trkpt lat="45.91489274853243" lon="11.148657537768317"><ele>892.0</ele><time>2026-05-02T13:51:58Z</time></trkpt><trkpt lat="45.914807154022924" lon="11.148660275269046"><ele>892.0</ele><time>2026-05-02T13:51:59Z</time></trkpt><trkpt lat="45.914723507541225" lon="11.148655717657965"><ele>891.6666666666666</ele><time>2026-05-02T13:52:00Z</time></trkpt><trkpt lat="45.914636494011305" lon="11.148660170870741"><ele>891.3333333333333</ele><time>2026-05-02T13:52:01Z</time></trkpt><trkpt lat="45.91455330249012" lon="11.148644438016298"><ele>891.0</ele><time>2026-05-02T13:52:02Z</time></trkpt><trkpt lat="45.91448838912427" lon="11.148551144819974"><ele>890.6666666666667</ele><time>2026-05-02T13:52:03Z</time></trkpt><trkpt lat="45.914448385537675" lon="11.14845860194906"><ele>890.3333333333334</ele><time>2026-05-02T13:52:04Z</time></trkpt><trkpt lat="45.91441136030931" lon="11.148351385761442"><ele>890.0</ele><time>2026-05-02T13:52:05Z</time></trkpt><trkpt lat="45.914429920987054" lon="11.14822608355068"><ele>886.2</ele><time>2026-05-02T13:52:06Z</time></trkpt><trkpt lat="45.91447761632111" lon="11.148112985869105"><ele>882.4</ele><time>2026-05-02T13:52:07Z</time></trkpt><trkpt lat="45.91455636664258" lon="11.148033778338757"><ele>878.5999999999999</ele><time>2026-05-02T13:52:08Z</time></trkpt><trkpt lat="45.91465271689494" lon="11.148010639393032"><ele>874.8</ele><time>2026-05-02T13:52:09Z</time></trkpt><trkpt lat="45.91475624065674" lon="11.148047938966098"><ele>871.0</ele><time>2026-05-02T13:52:10Z</time></trkpt><trkpt lat="45.914858361089244" lon="11.148120429815513"><ele>871.0</ele><time>2026-05-02T13:52:11Z</time></trkpt><trkpt lat="45.91496235146791" lon="11.148183074051067"><ele>871.0</ele><time>2026-05-02T13:52:12Z</time></trkpt><trkpt lat="45.91507487110092" lon="11.148267218285595"><ele>871.0</ele><time>2026-05-02T13:52:13Z</time></trkpt><trkpt lat="45.91517705889061" lon="11.148317235093483"><ele>871.0</ele><time>2026-05-02T13:52:14Z</time></trkpt><trkpt lat="45.915284174790216" lon="11.148330767354421"><ele>875.1999999999999</ele><time>2026-05-02T13:52:15Z</time></trkpt><trkpt lat="45.915399253352106" lon="11.1483190962672"><ele>879.3999999999999</ele><time>2026-05-02T13:52:16Z</time></trkpt><trkpt lat="45.91551272717305" lon="11.148295958071033"><ele>883.6</ele><time>2026-05-02T13:52:17Z</time></trkpt><trkpt lat="45.9156200623408" lon="11.148302180865617"><ele>887.8</ele><time>2026-05-02T13:52:18Z</time></trkpt><trkpt lat="45.915724131601415" lon="11.148283652325931"><ele>892.0</ele><time>2026-05-02T13:52:19Z</time></trkpt><trkpt lat="45.91582118711758" lon="11.14826321401749"><ele>893.8</ele><time>2026-05-02T13:52:20Z</time></trkpt><trkpt lat="45.91593283465209" lon="11.148227382923748"><ele>895.6</ele><time>2026-05-02T13:52:21Z</time></trkpt><trkpt lat="45.91604585413619" lon="11.148173558442329"><ele>897.3999999999999</ele><time>2026-05-02T13:52:22Z</time></trkpt><trkpt lat="45.916150032098486" lon="11.14811368143558"><ele>899.1999999999999</ele><time>2026-05-02T13:52:23Z</time></trkpt><trkpt lat="45.91624458594649" lon="11.148058016798245"><ele>901.0</ele><time>2026-05-02T13:52:24Z</time></trkpt><trkpt lat="45.91634641577521" lon="11.147998069289644"><ele>896.0</ele><time>2026-05-02T13:52:25Z</time></trkpt><trkpt lat="45.91644681434161" lon="11.147938963805771"><ele>890.9999999999999</ele><time>2026-05-02T13:52:26Z</time></trkpt><trkpt lat="45.91654652151985" lon="11.147880265726975"><ele>885.9999999999999</ele><time>2026-05-02T13:52:27Z</time></trkpt><trkpt lat="45.916647952598204" lon="11.147820552714219"><ele>881.0</ele><time>2026-05-02T13:52:28Z</time></trkpt><trkpt lat="45.91674733958386" lon="11.147763201938035"><ele>876.0</ele><time>2026-05-02T13:52:29Z</time></trkpt><trkpt lat="45.916845444554674" lon="11.147707587860992"><ele>876.0</ele><time>2026-05-02T13:52:30Z</time></trkpt><trkpt lat="45.91694032473846" lon="11.147653449623425"><ele>875.9999999999999</ele><time>2026-05-02T13:52:31Z</time></trkpt><trkpt lat="45.91703443528748" lon="11.147598103920712"><ele>875.9999999999999</ele><time>2026-05-02T13:52:32Z</time></trkpt><trkpt lat="45.91712574730488" lon="11.147544404231535"><ele>876.0</ele><time>2026-05-02T13:52:33Z</time></trkpt><trkpt lat="45.91721637706555" lon="11.147491105513009"><ele>876.0</ele><time>2026-05-02T13:52:34Z</time></trkpt><trkpt lat="45.91730879246502" lon="11.147436854164308"><ele>876.0</ele><time>2026-05-02T13:52:35Z</time></trkpt><trkpt lat="45.91740191737503" lon="11.147382673451016"><ele>875.9999999999999</ele><time>2026-05-02T13:52:36Z</time></trkpt><trkpt lat="45.917496576704615" lon="11.147327216162621"><ele>875.9999999999999</ele><time>2026-05-02T13:52:37Z</time></trkpt><trkpt lat="45.91759183689751" lon="11.14726871380854"><ele>876.0</ele><time>2026-05-02T13:52:38Z</time></trkpt><trkpt lat="45.91768143712061" lon="11.14718332796255"><ele>876.0</ele><time>2026-05-02T13:52:39Z</time></trkpt><trkpt lat="45.917771346153856" lon="11.14709466358681"><ele>872.6666666666666</ele><time>2026-05-02T13:52:40Z</time></trkpt><trkpt lat="45.91784203687655" lon="11.146992069439836"><ele>869.3333333333333</ele><time>2026-05-02T13:52:41Z</time></trkpt><trkpt lat="45.91791419722998" lon="11.14690667324012"><ele>866.0</ele><time>2026-05-02T13:52:42Z</time></trkpt><trkpt lat="45.91797196168775" lon="11.146814574972852"><ele>862.6666666666666</ele><time>2026-05-02T13:52:43Z</time></trkpt><trkpt lat="45.91802793326834" lon="11.146723617713452"><ele>859.3333333333333</ele><time>2026-05-02T13:52:44Z</time></trkpt><trkpt lat="45.91808135900498" lon="11.146636638068424"><ele>856.0</ele><time>2026-05-02T13:52:45Z</time></trkpt><trkpt lat="45.91813360489058" lon="11.146549566293132"><ele>854.1428571428572</ele><time>2026-05-02T13:52:46Z</time></trkpt><trkpt lat="45.91818427987364" lon="11.146463744397659"><ele>852.2857142857143</ele><time>2026-05-02T13:52:47Z</time></trkpt><trkpt lat="45.91823373204882" lon="11.146385130125898"><ele>850.4285714285714</ele><time>2026-05-02T13:52:48Z</time></trkpt><trkpt lat="45.91828673054225" lon="11.146313824418982"><ele>848.5714285714287</ele><time>2026-05-02T13:52:49Z</time></trkpt><trkpt lat="45.91834540394704" lon="11.146263792016375"><ele>846.7142857142857</ele><time>2026-05-02T13:52:50Z</time></trkpt><trkpt lat="45.918412591503774" lon="11.146226011372816"><ele>844.8571428571429</ele><time>2026-05-02T13:52:51Z</time></trkpt><trkpt lat="45.918485019143176" lon="11.14621088903395"><ele>843.0</ele><time>2026-05-02T13:52:52Z</time></trkpt><trkpt lat="45.9185586221001" lon="11.146203525969266"><ele>843.0</ele><time>2026-05-02T13:52:53Z</time></trkpt><trkpt lat="45.918634284725094" lon="11.146194373959798"><ele>843.0</ele><time>2026-05-02T13:52:54Z</time></trkpt><trkpt lat="45.918707294927906" lon="11.146171545627439"><ele>843.0</ele><time>2026-05-02T13:52:55Z</time></trkpt><trkpt lat="45.918778855581316" lon="11.146132643008123"><ele>843.0</ele><time>2026-05-02T13:52:56Z</time></trkpt><trkpt lat="45.91883100782862" lon="11.146050281921886"><ele>843.0</ele><time>2026-05-02T13:52:57Z</time></trkpt><trkpt lat="45.91892028680382" lon="11.145912305784162"><ele>843.0</ele><time>2026-05-02T13:52:59Z</time></trkpt><trkpt lat="45.918942465303985" lon="11.14581431528378"><ele>843.0</ele><time>2026-05-02T13:53:00Z</time></trkpt><trkpt lat="45.91895410733109" lon="11.145719360644616"><ele>843.0</ele><time>2026-05-02T13:53:01Z</time></trkpt><trkpt lat="45.91896599698863" lon="11.145624304756746"><ele>843.0</ele><time>2026-05-02T13:53:02Z</time></trkpt><trkpt lat="45.91898227539902" lon="11.145536761334967"><ele>843.0</ele><time>2026-05-02T13:53:03Z</time></trkpt><trkpt lat="45.919042001296575" lon="11.145357808660947"><ele>843.0</ele><time>2026-05-02T13:53:05Z</time></trkpt><trkpt lat="45.91908698665944" lon="11.145238497647584"><ele>843.0</ele><time>2026-05-02T13:53:06Z</time></trkpt><trkpt lat="45.91917029758649" lon="11.145152819762952"><ele>844.0</ele><time>2026-05-02T13:53:07Z</time></trkpt><trkpt lat="45.919263974973" lon="11.145043362138734"><ele>845.0</ele><time>2026-05-02T13:53:08Z</time></trkpt><trkpt lat="45.91936251063852" lon="11.144935728497181"><ele>846.0</ele><time>2026-05-02T13:53:09Z</time></trkpt><trkpt lat="45.91944290828585" lon="11.144798465191272"><ele>847.0</ele><time>2026-05-02T13:53:10Z</time></trkpt><trkpt lat="45.919528170226556" lon="11.144671927866368"><ele>844.4000000000001</ele><time>2026-05-02T13:53:11Z</time></trkpt><trkpt lat="45.91958854313396" lon="11.144521807017458"><ele>841.8000000000001</ele><time>2026-05-02T13:53:12Z</time></trkpt><trkpt lat="45.919636174782404" lon="11.14436858829912"><ele>839.2</ele><time>2026-05-02T13:53:13Z</time></trkpt><trkpt lat="45.919677164645655" lon="11.144229473302108"><ele>836.6</ele><time>2026-05-02T13:53:14Z</time></trkpt><trkpt lat="45.919713160628184" lon="11.144087207372232"><ele>834.0</ele><time>2026-05-02T13:53:15Z</time></trkpt><trkpt lat="45.9197591870508" lon="11.143941672607724"><ele>831.75</ele><time>2026-05-02T13:53:16Z</time></trkpt><trkpt lat="45.9198163013308" lon="11.143815680996289"><ele>829.5</ele><time>2026-05-02T13:53:17Z</time></trkpt><trkpt lat="45.9199042635835" lon="11.143721941646236"><ele>827.25</ele><time>2026-05-02T13:53:18Z</time></trkpt><trkpt lat="45.91999955282085" lon="11.143615780338383"><ele>825.0</ele><time>2026-05-02T13:53:19Z</time></trkpt><trkpt lat="45.92010688750837" lon="11.14347970877002"><ele>825.0</ele><time>2026-05-02T13:53:20Z</time></trkpt><trkpt lat="45.92020877151697" lon="11.143372419540874"><ele>825.0</ele><time>2026-05-02T13:53:21Z</time></trkpt><trkpt lat="45.92030364359716" lon="11.143268123609893"><ele>825.0</ele><time>2026-05-02T13:53:22Z</time></trkpt><trkpt lat="45.92039740085992" lon="11.143157895823657"><ele>825.0</ele><time>2026-05-02T13:53:23Z</time></trkpt><trkpt lat="45.92048818939451" lon="11.143055561924703"><ele>824.6</ele><time>2026-05-02T13:53:24Z</time></trkpt><trkpt lat="45.92056853701675" lon="11.14296367642276"><ele>824.2</ele><time>2026-05-02T13:53:25Z</time></trkpt><trkpt lat="45.92064520356886" lon="11.142893346283998"><ele>823.8</ele><time>2026-05-02T13:53:26Z</time></trkpt><trkpt lat="45.920728076773344" lon="11.142843826491724"><ele>823.4</ele><time>2026-05-02T13:53:27Z</time></trkpt><trkpt lat="45.92081964419418" lon="11.142809438272744"><ele>823.0</ele><time>2026-05-02T13:53:28Z</time></trkpt><trkpt lat="45.92091429794456" lon="11.142789346165447"><ele>822.9999999999999</ele><time>2026-05-02T13:53:29Z</time></trkpt><trkpt lat="45.9210048675645" lon="11.142759022330075"><ele>823.0</ele><time>2026-05-02T13:53:30Z</time></trkpt><trkpt lat="45.92108744049302" lon="11.142727617560162"><ele>823.0</ele><time>2026-05-02T13:53:31Z</time></trkpt><trkpt lat="45.92115707220964" lon="11.142692310397385"><ele>823.0</ele><time>2026-05-02T13:53:32Z</time></trkpt><trkpt lat="45.92120943145949" lon="11.142631605430024"><ele>822.9999999999999</ele><time>2026-05-02T13:53:33Z</time></trkpt><trkpt lat="45.9212345966994" lon="11.142542460132827"><ele>823.0</ele><time>2026-05-02T13:53:34Z</time></trkpt><trkpt lat="45.921225470174285" lon="11.142441968825509"><ele>820.3333333333333</ele><time>2026-05-02T13:53:35Z</time></trkpt><trkpt lat="45.92118727614362" lon="11.142352428563111"><ele>817.6666666666666</ele><time>2026-05-02T13:53:36Z</time></trkpt><trkpt lat="45.92112362948297" lon="11.142298882912458"><ele>815.0</ele><time>2026-05-02T13:53:37Z</time></trkpt><trkpt lat="45.921048465671426" lon="11.142296516842922"><ele>812.3333333333333</ele><time>2026-05-02T13:53:38Z</time></trkpt><trkpt lat="45.92097362138741" lon="11.142338370440203"><ele>809.6666666666666</ele><time>2026-05-02T13:53:39Z</time></trkpt><trkpt lat="45.920895428081316" lon="11.142403568475542"><ele>807.0</ele><time>2026-05-02T13:53:40Z</time></trkpt><trkpt lat="45.920801005846876" lon="11.142444043364012"><ele>806.8</ele><time>2026-05-02T13:53:41Z</time></trkpt><trkpt lat="45.92070917493719" lon="11.142526148287619"><ele>806.6</ele><time>2026-05-02T13:53:42Z</time></trkpt><trkpt lat="45.92061279724184" lon="11.142580328284831"><ele>806.4</ele><time>2026-05-02T13:53:43Z</time></trkpt><trkpt lat="45.92052230190882" lon="11.142630590898074"><ele>806.1999999999999</ele><time>2026-05-02T13:53:44Z</time></trkpt><trkpt lat="45.92043236977829" lon="11.142680852444832"><ele>806.0</ele><time>2026-05-02T13:53:45Z</time></trkpt><trkpt lat="45.92034064001303" lon="11.142722658072989"><ele>806.0</ele><time>2026-05-02T13:53:46Z</time></trkpt><trkpt lat="45.920245440115515" lon="11.142753471885088"><ele>806.0</ele><time>2026-05-02T13:53:47Z</time></trkpt><trkpt lat="45.920150414881306" lon="11.142772649850013"><ele>806.0</ele><time>2026-05-02T13:53:48Z</time></trkpt><trkpt lat="45.92005295960225" lon="11.142801166376756"><ele>806.0</ele><time>2026-05-02T13:53:49Z</time></trkpt><trkpt lat="45.91995562604188" lon="11.142838565356394"><ele>806.0</ele><time>2026-05-02T13:53:50Z</time></trkpt><trkpt lat="45.91985002929201" lon="11.142849857590953"><ele>802.8</ele><time>2026-05-02T13:53:51Z</time></trkpt><trkpt lat="45.91974530247621" lon="11.142879577355778"><ele>799.5999999999999</ele><time>2026-05-02T13:53:52Z</time></trkpt><trkpt lat="45.9196489980762" lon="11.142932152712062"><ele>796.4</ele><time>2026-05-02T13:53:53Z</time></trkpt><trkpt lat="45.919548885674665" lon="11.142938878020212"><ele>793.2</ele><time>2026-05-02T13:53:54Z</time></trkpt><trkpt lat="45.91945292222727" lon="11.14297150465973"><ele>790.0</ele><time>2026-05-02T13:53:55Z</time></trkpt><trkpt lat="45.91936587543712" lon="11.14303935116734"><ele>789.9999999999999</ele><time>2026-05-02T13:53:56Z</time></trkpt><trkpt lat="45.91928040431208" lon="11.143092084306856"><ele>790.0</ele><time>2026-05-02T13:53:57Z</time></trkpt><trkpt lat="45.91919246142989" lon="11.143133682438947"><ele>790.0</ele><time>2026-05-02T13:53:58Z</time></trkpt><trkpt lat="45.91911555749203" lon="11.143207736295484"><ele>790.0</ele><time>2026-05-02T13:53:59Z</time></trkpt><trkpt lat="45.91903634578206" lon="11.143256861961687"><ele>789.9999999999999</ele><time>2026-05-02T13:54:00Z</time></trkpt><trkpt lat="45.91895945911192" lon="11.143309222666963"><ele>790.0</ele><time>2026-05-02T13:54:01Z</time></trkpt><trkpt lat="45.91888461779693" lon="11.143363675949097"><ele>791.3333333333333</ele><time>2026-05-02T13:54:02Z</time></trkpt><trkpt lat="45.918804027725" lon="11.143400747126393"><ele>792.6666666666666</ele><time>2026-05-02T13:54:03Z</time></trkpt><trkpt lat="45.91874074880474" lon="11.143486838678653"><ele>794.0</ele><time>2026-05-02T13:54:04Z</time></trkpt><trkpt lat="45.918676236357356" lon="11.143573264315615"><ele>795.3333333333333</ele><time>2026-05-02T13:54:05Z</time></trkpt><trkpt lat="45.91861857181695" lon="11.143661945688127"><ele>796.6666666666666</ele><time>2026-05-02T13:54:06Z</time></trkpt><trkpt lat="45.918564397474945" lon="11.143736036187564"><ele>798.0</ele><time>2026-05-02T13:54:07Z</time></trkpt><trkpt lat="45.91850124438033" lon="11.143752283869903"><ele>798.0</ele><time>2026-05-02T13:54:08Z</time></trkpt><trkpt lat="45.91838783993703" lon="11.143707695527189"><ele>798.0</ele><time>2026-05-02T13:54:10Z</time></trkpt><trkpt lat="45.918348549427456" lon="11.143618066673547"><ele>798.0</ele><time>2026-05-02T13:54:11Z</time></trkpt><trkpt lat="45.91834999118952" lon="11.143508515539072"><ele>798.0</ele><time>2026-05-02T13:54:12Z</time></trkpt><trkpt lat="45.918384623351635" lon="11.143406365945744"><ele>798.0</ele><time>2026-05-02T13:54:13Z</time></trkpt><trkpt lat="45.918454999611804" lon="11.143311706966808"><ele>798.0</ele><time>2026-05-02T13:54:14Z</time></trkpt><trkpt lat="45.91854691167205" lon="11.143232242574909"><ele>792.5</ele><time>2026-05-02T13:54:15Z</time></trkpt><trkpt lat="45.9186505806737" lon="11.1431489511837"><ele>787.0</ele><time>2026-05-02T13:54:16Z</time></trkpt><trkpt lat="45.91875777799669" lon="11.143050914885444"><ele>781.5</ele><time>2026-05-02T13:54:17Z</time></trkpt><trkpt lat="45.918856140671515" lon="11.142957766127134"><ele>776.0</ele><time>2026-05-02T13:54:18Z</time></trkpt><trkpt lat="45.918937702658326" lon="11.142860091916042"><ele>776.0</ele><time>2026-05-02T13:54:19Z</time></trkpt><trkpt lat="45.919004799451116" lon="11.142744175211284"><ele>776.0</ele><time>2026-05-02T13:54:20Z</time></trkpt><trkpt lat="45.919060313161744" lon="11.142610058829513"><ele>776.0</ele><time>2026-05-02T13:54:21Z</time></trkpt><trkpt lat="45.919111041532" lon="11.142477501411678"><ele>776.0</ele><time>2026-05-02T13:54:22Z</time></trkpt><trkpt lat="45.91916616389969" lon="11.142353915798365"><ele>776.0</ele><time>2026-05-02T13:54:23Z</time></trkpt><trkpt lat="45.919232767825946" lon="11.14224111125378"><ele>776.0</ele><time>2026-05-02T13:54:24Z</time></trkpt><trkpt lat="45.91931165137392" lon="11.14214093586676"><ele>776.0</ele><time>2026-05-02T13:54:25Z</time></trkpt><trkpt lat="45.91939456574878" lon="11.142052753276692"><ele>776.0</ele><time>2026-05-02T13:54:26Z</time></trkpt><trkpt lat="45.91947959356106" lon="11.141976008670982"><ele>776.0</ele><time>2026-05-02T13:54:27Z</time></trkpt><trkpt lat="45.91956609554678" lon="11.141906031047295"><ele>776.0</ele><time>2026-05-02T13:54:28Z</time></trkpt><trkpt lat="45.919655461501925" lon="11.141843228419186"><ele>776.0</ele><time>2026-05-02T13:54:29Z</time></trkpt><trkpt lat="45.919744328018915" lon="11.14178498893544"><ele>776.0</ele><time>2026-05-02T13:54:30Z</time></trkpt><trkpt lat="45.919828941417116" lon="11.141714699073994"><ele>776.0</ele><time>2026-05-02T13:54:31Z</time></trkpt><trkpt lat="45.9198990728271" lon="11.141626774916407"><ele>776.0</ele><time>2026-05-02T13:54:32Z</time></trkpt><trkpt lat="45.91994681876318" lon="11.141494034987671"><ele>776.0</ele><time>2026-05-02T13:54:33Z</time></trkpt><trkpt lat="45.919974832329984" lon="11.14133123086785"><ele>776.5999999999999</ele><time>2026-05-02T13:54:34Z</time></trkpt><trkpt lat="45.9199956832525" lon="11.141180923349735"><ele>777.2</ele><time>2026-05-02T13:54:35Z</time></trkpt><trkpt lat="45.92001676059878" lon="11.14103920683252"><ele>777.8</ele><time>2026-05-02T13:54:36Z</time></trkpt><trkpt lat="45.92005701065276" lon="11.140897021442354"><ele>778.4000000000001</ele><time>2026-05-02T13:54:37Z</time></trkpt><trkpt lat="45.92012255417195" lon="11.140742491672317"><ele>779.0</ele><time>2026-05-02T13:54:38Z</time></trkpt><trkpt lat="45.920207234233395" lon="11.140583142818144"><ele>773.25</ele><time>2026-05-02T13:54:39Z</time></trkpt><trkpt lat="45.92029692381168" lon="11.140449062737964"><ele>767.5</ele><time>2026-05-02T13:54:40Z</time></trkpt><trkpt lat="45.92038043126651" lon="11.140338409107148"><ele>761.75</ele><time>2026-05-02T13:54:41Z</time></trkpt><trkpt lat="45.920461035338676" lon="11.140229178300542"><ele>756.0</ele><time>2026-05-02T13:54:42Z</time></trkpt><trkpt lat="45.9205416976415" lon="11.140110741323548"><ele>756.0</ele><time>2026-05-02T13:54:43Z</time></trkpt><trkpt lat="45.92062236744946" lon="11.13999458253719"><ele>756.0</ele><time>2026-05-02T13:54:44Z</time></trkpt><trkpt lat="45.92070202372194" lon="11.139874815227294"><ele>756.0</ele><time>2026-05-02T13:54:45Z</time></trkpt><trkpt lat="45.92078611302717" lon="11.13973689117493"><ele>756.0</ele><time>2026-05-02T13:54:46Z</time></trkpt><trkpt lat="45.92086913167966" lon="11.13958421725949"><ele>757.3333333333334</ele><time>2026-05-02T13:54:47Z</time></trkpt><trkpt lat="45.92095288868967" lon="11.139398011561108"><ele>758.6666666666667</ele><time>2026-05-02T13:54:48Z</time></trkpt><trkpt lat="45.92103996960191" lon="11.13919751753555"><ele>760.0</ele><time>2026-05-02T13:54:49Z</time></trkpt><trkpt lat="45.921120801313265" lon="11.139004950590339"><ele>754.0</ele><time>2026-05-02T13:54:50Z</time></trkpt><trkpt lat="45.92120730554981" lon="11.13882201817443"><ele>748.0</ele><time>2026-05-02T13:54:51Z</time></trkpt><trkpt lat="45.9213067069715" lon="11.138632760324708"><ele>742.0</ele><time>2026-05-02T13:54:52Z</time></trkpt><trkpt lat="45.92141434529796" lon="11.138448512835655"><ele>742.0</ele><time>2026-05-02T13:54:53Z</time></trkpt><trkpt lat="45.92152084976165" lon="11.138272043026006"><ele>742.0</ele><time>2026-05-02T13:54:54Z</time></trkpt><trkpt lat="45.921618002078986" lon="11.13810970491415"><ele>742.0</ele><time>2026-05-02T13:54:55Z</time></trkpt><trkpt lat="45.9217042984148" lon="11.137957757556167"><ele>742.0</ele><time>2026-05-02T13:54:56Z</time></trkpt><trkpt lat="45.92178457395968" lon="11.13781695521224"><ele>740.25</ele><time>2026-05-02T13:54:57Z</time></trkpt><trkpt lat="45.921865685938585" lon="11.137684609429439"><ele>738.5</ele><time>2026-05-02T13:54:58Z</time></trkpt><trkpt lat="45.921942362437846" lon="11.137556177009927"><ele>736.75</ele><time>2026-05-02T13:54:59Z</time></trkpt><trkpt lat="45.92201910090817" lon="11.137438633571723"><ele>735.0</ele><time>2026-05-02T13:55:00Z</time></trkpt><trkpt lat="45.922105660285" lon="11.137343988904444"><ele>732.5</ele><time>2026-05-02T13:55:01Z</time></trkpt><trkpt lat="45.922207005307804" lon="11.137276007605196"><ele>730.0</ele><time>2026-05-02T13:55:02Z</time></trkpt><trkpt lat="45.92233243492649" lon="11.137262390729836"><ele>727.5</ele><time>2026-05-02T13:55:03Z</time></trkpt><trkpt lat="45.92245528972261" lon="11.137218117920586"><ele>725.0</ele><time>2026-05-02T13:55:04Z</time></trkpt><trkpt lat="45.92256670404653" lon="11.137169005999912"><ele>725.0</ele><time>2026-05-02T13:55:05Z</time></trkpt><trkpt lat="45.92267680944445" lon="11.137127830607382"><ele>725.0</ele><time>2026-05-02T13:55:06Z</time></trkpt><trkpt lat="45.92278700975988" lon="11.137080327592288"><ele>725.0</ele><time>2026-05-02T13:55:07Z</time></trkpt><trkpt lat="45.92288687176897" lon="11.137052248431008"><ele>725.0</ele><time>2026-05-02T13:55:08Z</time></trkpt><trkpt lat="45.92296569185621" lon="11.137024300551865"><ele>725.0</ele><time>2026-05-02T13:55:09Z</time></trkpt><trkpt lat="45.92303528313408" lon="11.136993550802082"><ele>725.0</ele><time>2026-05-02T13:55:10Z</time></trkpt><trkpt lat="45.92310184375931" lon="11.136964143651284"><ele>725.0</ele><time>2026-05-02T13:55:11Z</time></trkpt><trkpt lat="45.92316417737218" lon="11.136927570176493"><ele>725.0</ele><time>2026-05-02T13:55:12Z</time></trkpt><trkpt lat="45.9232172435042" lon="11.13687059423163"><ele>725.0</ele><time>2026-05-02T13:55:13Z</time></trkpt><trkpt lat="45.92325794654756" lon="11.136799835768368"><ele>725.0</ele><time>2026-05-02T13:55:14Z</time></trkpt><trkpt lat="45.92326743394843" lon="11.136687533574921"><ele>725.0</ele><time>2026-05-02T13:55:15Z</time></trkpt><trkpt lat="45.92323917942203" lon="11.136549935176491"><ele>725.0</ele><time>2026-05-02T13:55:16Z</time></trkpt><trkpt lat="45.92318894209299" lon="11.136354866209492"><ele>724.0</ele><time>2026-05-02T13:55:17Z</time></trkpt><trkpt lat="45.92312759662569" lon="11.136133803725864"><ele>723.0</ele><time>2026-05-02T13:55:18Z</time></trkpt><trkpt lat="45.92308508945063" lon="11.135975186902229"><ele>722.0</ele><time>2026-05-02T13:55:19Z</time></trkpt><trkpt lat="45.923053700539114" lon="11.135855386914471"><ele>721.0</ele><time>2026-05-02T13:55:20Z</time></trkpt><trkpt lat="45.92302424566009" lon="11.135742968428994"><ele>718.8333333333334</ele><time>2026-05-02T13:55:21Z</time></trkpt><trkpt lat="45.92298518891034" lon="11.135660677802763"><ele>716.6666666666667</ele><time>2026-05-02T13:55:22Z</time></trkpt><trkpt lat="45.922954498683104" lon="11.13554481789737"><ele>714.5</ele><time>2026-05-02T13:55:24Z</time></trkpt><trkpt lat="45.92292489531256" lon="11.135436772818483"><ele>712.3333333333334</ele><time>2026-05-02T13:55:26Z</time></trkpt><trkpt lat="45.922819732793634" lon="11.135380792510821"><ele>710.1666666666666</ele><time>2026-05-02T13:55:28Z</time></trkpt><trkpt lat="45.922748982002126" lon="11.135430233899214"><ele>708.0</ele><time>2026-05-02T13:55:29Z</time></trkpt><trkpt lat="45.92269081819207" lon="11.135534674745331"><ele>708.0</ele><time>2026-05-02T13:55:30Z</time></trkpt><trkpt lat="45.92266626335692" lon="11.135673066553391"><ele>708.0</ele><time>2026-05-02T13:55:31Z</time></trkpt><trkpt lat="45.922642485464266" lon="11.13582294126438"><ele>708.0</ele><time>2026-05-02T13:55:32Z</time></trkpt><trkpt lat="45.92261997336285" lon="11.135933481638775"><ele>708.0</ele><time>2026-05-02T13:55:33Z</time></trkpt><trkpt lat="45.922598502371585" lon="11.136040834932768"><ele>708.0</ele><time>2026-05-02T13:55:34Z</time></trkpt><trkpt lat="45.92252961906483" lon="11.136115438159656"><ele>706.0</ele><time>2026-05-02T13:55:35Z</time></trkpt><trkpt lat="45.92243869882689" lon="11.136117692225191"><ele>704.0</ele><time>2026-05-02T13:55:36Z</time></trkpt><trkpt lat="45.92233442336342" lon="11.136102914610904"><ele>702.0</ele><time>2026-05-02T13:55:37Z</time></trkpt><trkpt lat="45.922206708485625" lon="11.136103057898955"><ele>700.0</ele><time>2026-05-02T13:55:38Z</time></trkpt><trkpt lat="45.9220771946457" lon="11.136074325414215"><ele>700.0</ele><time>2026-05-02T13:55:39Z</time></trkpt><trkpt lat="45.92195887989438" lon="11.136051029084156"><ele>700.0</ele><time>2026-05-02T13:55:40Z</time></trkpt><trkpt lat="45.9218589959339" lon="11.136035414648903"><ele>700.0</ele><time>2026-05-02T13:55:41Z</time></trkpt><trkpt lat="45.92176936110265" lon="11.136033364460461"><ele>700.0</ele><time>2026-05-02T13:55:42Z</time></trkpt><trkpt lat="45.9216807409462" lon="11.136028617783255"><ele>700.0</ele><time>2026-05-02T13:55:43Z</time></trkpt><trkpt lat="45.921592881791696" lon="11.136024715831558"><ele>697.0</ele><time>2026-05-02T13:55:44Z</time></trkpt><trkpt lat="45.921511189050285" lon="11.136017329005547"><ele>694.0</ele><time>2026-05-02T13:55:45Z</time></trkpt><trkpt lat="45.9214397278181" lon="11.136018067925601"><ele>691.0</ele><time>2026-05-02T13:55:46Z</time></trkpt><trkpt lat="45.9213763157689" lon="11.136031877436709"><ele>688.0</ele><time>2026-05-02T13:55:47Z</time></trkpt><trkpt lat="45.92125703976508" lon="11.136104977397297"><ele>685.0</ele><time>2026-05-02T13:55:49Z</time></trkpt><trkpt lat="45.92117693181077" lon="11.136170126409109"><ele>682.0</ele><time>2026-05-02T13:55:50Z</time></trkpt><trkpt lat="45.92108106155922" lon="11.136288380209795"><ele>682.0</ele><time>2026-05-02T13:55:51Z</time></trkpt><trkpt lat="45.92094410775552" lon="11.136468238229135"><ele>682.0</ele><time>2026-05-02T13:55:52Z</time></trkpt><trkpt lat="45.92079048431433" lon="11.13667280978144"><ele>682.0</ele><time>2026-05-02T13:55:53Z</time></trkpt><trkpt lat="45.9206354912269" lon="11.136868967414404"><ele>681.3333333333334</ele><time>2026-05-02T13:55:54Z</time></trkpt><trkpt lat="45.92047880148542" lon="11.137021363215117"><ele>680.6666666666666</ele><time>2026-05-02T13:55:55Z</time></trkpt><trkpt lat="45.920325606225134" lon="11.137148399908005"><ele>680.0</ele><time>2026-05-02T13:55:56Z</time></trkpt><trkpt lat="45.920191055263395" lon="11.137255423780855"><ele>677.25</ele><time>2026-05-02T13:55:57Z</time></trkpt><trkpt lat="45.92008627540708" lon="11.137387951030988"><ele>674.5</ele><time>2026-05-02T13:55:58Z</time></trkpt><trkpt lat="45.919986717793954" lon="11.137528722531576"><ele>671.75</ele><time>2026-05-02T13:55:59Z</time></trkpt><trkpt lat="45.91989129182844" lon="11.137701679430068"><ele>669.0</ele><time>2026-05-02T13:55:59.999Z</time></trkpt><trkpt lat="45.91978739875602" lon="11.137889603916593"><ele>669.0</ele><time>2026-05-02T13:56:00.999Z</time></trkpt><trkpt lat="45.919690240273695" lon="11.138047517630529"><ele>669.0</ele><time>2026-05-02T13:56:02Z</time></trkpt><trkpt lat="45.91961385389384" lon="11.138183167849602"><ele>669.0</ele><time>2026-05-02T13:56:03Z</time></trkpt><trkpt lat="45.919535088349086" lon="11.138255474573704"><ele>669.0</ele><time>2026-05-02T13:56:04Z</time></trkpt><trkpt lat="45.91946027904305" lon="11.138298214526179"><ele>669.0</ele><time>2026-05-02T13:56:05Z</time></trkpt><trkpt lat="45.91937556791865" lon="11.1382778802178"><ele>667.75</ele><time>2026-05-02T13:56:06Z</time></trkpt><trkpt lat="45.91924632411808" lon="11.138254830590935"><ele>666.5</ele><time>2026-05-02T13:56:07Z</time></trkpt><trkpt lat="45.9190957353361" lon="11.13821157445572"><ele>665.25</ele><time>2026-05-02T13:56:08Z</time></trkpt><trkpt lat="45.91895515151688" lon="11.138190522635323"><ele>664.0</ele><time>2026-05-02T13:56:09Z</time></trkpt><trkpt lat="45.918814448373304" lon="11.138224598549519"><ele>664.0</ele><time>2026-05-02T13:56:10Z</time></trkpt><trkpt lat="45.918668759737635" lon="11.138291557070268"><ele>664.0</ele><time>2026-05-02T13:56:11Z</time></trkpt><trkpt lat="45.91849980270692" lon="11.138387370514831"><ele>664.0</ele><time>2026-05-02T13:56:12Z</time></trkpt><trkpt lat="45.91830688408885" lon="11.138541177570753"><ele>656.6666666666667</ele><time>2026-05-02T13:56:13Z</time></trkpt><trkpt lat="45.91813849918967" lon="11.138651709896875"><ele>649.3333333333334</ele><time>2026-05-02T13:56:14Z</time></trkpt><trkpt lat="45.91798179974436" lon="11.138770035769051"><ele>642.0</ele><time>2026-05-02T13:56:15Z</time></trkpt><trkpt lat="45.91782698165381" lon="11.13889955521418"><ele>642.0</ele><time>2026-05-02T13:56:16Z</time></trkpt><trkpt lat="45.917664106230795" lon="11.138923666085244"><ele>642.0</ele><time>2026-05-02T13:56:17Z</time></trkpt><trkpt lat="45.917526765291285" lon="11.138937919774454"><ele>642.0</ele><time>2026-05-02T13:56:18Z</time></trkpt><trkpt lat="45.91741493442336" lon="11.13896791980292"><ele>642.0</ele><time>2026-05-02T13:56:19Z</time></trkpt><trkpt lat="45.91732126097082" lon="11.139042307139027"><ele>642.75</ele><time>2026-05-02T13:56:20Z</time></trkpt><trkpt lat="45.91721096270254" lon="11.139125318682416"><ele>643.5</ele><time>2026-05-02T13:56:21Z</time></trkpt><trkpt lat="45.91711092942151" lon="11.13926555471343"><ele>644.25</ele><time>2026-05-02T13:56:22Z</time></trkpt><trkpt lat="45.91701301102121" lon="11.1393188669298"><ele>645.0</ele><time>2026-05-02T13:56:23Z</time></trkpt><trkpt lat="45.916921555085786" lon="11.139385657568617"><ele>645.0</ele><time>2026-05-02T13:56:24Z</time></trkpt><trkpt lat="45.91679625374343" lon="11.139398246272437"><ele>645.0</ele><time>2026-05-02T13:56:25Z</time></trkpt><trkpt lat="45.9166819572611" lon="11.139388709319748"><ele>645.0</ele><time>2026-05-02T13:56:26Z</time></trkpt><trkpt lat="45.916583792796345" lon="11.139380395837556"><ele>645.0</ele><time>2026-05-02T13:56:27Z</time></trkpt><trkpt lat="45.91652555168739" lon="11.139244414083867"><ele>642.25</ele><time>2026-05-02T13:56:28Z</time></trkpt><trkpt lat="45.916513323492346" lon="11.139093882428122"><ele>639.5</ele><time>2026-05-02T13:56:30Z</time></trkpt><trkpt lat="45.91655540143527" lon="11.138943149236711"><ele>636.75</ele><time>2026-05-02T13:56:32Z</time></trkpt><trkpt lat="45.91663748874584" lon="11.13885682681843"><ele>634.0</ele><time>2026-05-02T13:56:33Z</time></trkpt><trkpt lat="45.91685493434614" lon="11.138724820798258"><ele>631.0</ele><time>2026-05-02T13:56:35Z</time></trkpt><trkpt lat="45.916978903599194" lon="11.138629193939629"><ele>628.0</ele><time>2026-05-02T13:56:36Z</time></trkpt><trkpt lat="45.91709869680711" lon="11.138513908466877"><ele>625.0</ele><time>2026-05-02T13:56:37Z</time></trkpt><trkpt lat="45.91720384814377" lon="11.13837916560341"><ele>622.0</ele><time>2026-05-02T13:56:38Z</time></trkpt><trkpt lat="45.91731497410253" lon="11.138257996711095"><ele>622.0</ele><time>2026-05-02T13:56:39Z</time></trkpt><trkpt lat="45.91742854416727" lon="11.138135790213333"><ele>622.0</ele><time>2026-05-02T13:56:40Z</time></trkpt><trkpt lat="45.917532731640705" lon="11.138014526833572"><ele>622.0</ele><time>2026-05-02T13:56:41Z</time></trkpt><trkpt lat="45.917623997889166" lon="11.137878229065395"><ele>622.0</ele><time>2026-05-02T13:56:42Z</time></trkpt><trkpt lat="45.917704372501795" lon="11.137714518185174"><ele>622.0</ele><time>2026-05-02T13:56:43Z</time></trkpt><trkpt lat="45.91776944548969" lon="11.137527563073084"><ele>622.0</ele><time>2026-05-02T13:56:44Z</time></trkpt><trkpt lat="45.91786541120584" lon="11.137330129655382"><ele>622.0</ele><time>2026-05-02T13:56:45Z</time></trkpt><trkpt lat="45.9179707348166" lon="11.137107627386719"><ele>617.0</ele><time>2026-05-02T13:56:46Z</time></trkpt><trkpt lat="45.91806991823736" lon="11.136900731828694"><ele>612.0</ele><time>2026-05-02T13:56:47Z</time></trkpt><trkpt lat="45.91816105464596" lon="11.136716678947487"><ele>607.0</ele><time>2026-05-02T13:56:48Z</time></trkpt><trkpt lat="45.91824719275585" lon="11.136555302551718"><ele>607.6666666666667</ele><time>2026-05-02T13:56:49Z</time></trkpt><trkpt lat="45.91836421669127" lon="11.136430743876929"><ele>608.3333333333334</ele><time>2026-05-02T13:56:50Z</time></trkpt><trkpt lat="45.918486718729646" lon="11.13627998340747"><ele>609.0</ele><time>2026-05-02T13:56:51Z</time></trkpt><trkpt lat="45.9186238551712" lon="11.136123684343913"><ele>609.0</ele><time>2026-05-02T13:56:52Z</time></trkpt><trkpt lat="45.91875545881025" lon="11.13595544679921"><ele>609.0</ele><time>2026-05-02T13:56:53Z</time></trkpt><trkpt lat="45.91887534989939" lon="11.13576557788348"><ele>609.0</ele><time>2026-05-02T13:56:54Z</time></trkpt><trkpt lat="45.91899354987546" lon="11.135550740618656"><ele>608.3333333333334</ele><time>2026-05-02T13:56:55Z</time></trkpt><trkpt lat="45.91912498114266" lon="11.135305001744701"><ele>607.6666666666667</ele><time>2026-05-02T13:56:56Z</time></trkpt><trkpt lat="45.91924899748567" lon="11.135077182340693"><ele>607.0</ele><time>2026-05-02T13:56:57Z</time></trkpt><trkpt lat="45.919358894553746" lon="11.134877366168348"><ele>602.0</ele><time>2026-05-02T13:56:58Z</time></trkpt><trkpt lat="45.91946492759593" lon="11.13469294622838"><ele>597.0</ele><time>2026-05-02T13:56:59Z</time></trkpt><trkpt lat="45.9195643637526" lon="11.134517412655738"><ele>592.0</ele><time>2026-05-02T13:57:00Z</time></trkpt><trkpt lat="45.91964943198649" lon="11.134332189886592"><ele>592.0</ele><time>2026-05-02T13:57:01Z</time></trkpt><trkpt lat="45.91971110144074" lon="11.134135996775585"><ele>592.0</ele><time>2026-05-02T13:57:02Z</time></trkpt><trkpt lat="45.919757683718444" lon="11.133932860652845"><ele>592.0</ele><time>2026-05-02T13:57:03Z</time></trkpt><trkpt lat="45.91980080818352" lon="11.133738225782622"><ele>592.0</ele><time>2026-05-02T13:57:04Z</time></trkpt><trkpt lat="45.919854535901024" lon="11.133554708458963"><ele>589.8000000000001</ele><time>2026-05-02T13:57:05Z</time></trkpt><trkpt lat="45.91991800673967" lon="11.133384908718513"><ele>587.6</ele><time>2026-05-02T13:57:06Z</time></trkpt><trkpt lat="45.91997829136372" lon="11.133249324573352"><ele>585.4000000000001</ele><time>2026-05-02T13:57:07Z</time></trkpt><trkpt lat="45.92001698507974" lon="11.133150428971815"><ele>583.2</ele><time>2026-05-02T13:57:08Z</time></trkpt><trkpt lat="45.91998049341521" lon="11.132996346541695"><ele>581.0</ele><time>2026-05-02T13:57:10Z</time></trkpt><trkpt lat="45.91989689993356" lon="11.132956542238336"><ele>581.0</ele><time>2026-05-02T13:57:11Z</time></trkpt><trkpt lat="45.91980871685753" lon="11.133077907633206"><ele>581.0</ele><time>2026-05-02T13:57:12Z</time></trkpt><trkpt lat="45.91976643241889" lon="11.13320716281517"><ele>581.0</ele><time>2026-05-02T13:57:13Z</time></trkpt><trkpt lat="45.91972239864332" lon="11.133377990913607"><ele>581.0</ele><time>2026-05-02T13:57:14Z</time></trkpt><trkpt lat="45.919639540695265" lon="11.1335715979821"><ele>581.0</ele><time>2026-05-02T13:57:15Z</time></trkpt><trkpt lat="45.9195676790073" lon="11.133751814174683"><ele>581.0</ele><time>2026-05-02T13:57:16Z</time></trkpt><trkpt lat="45.91949253257897" lon="11.133889837363073"><ele>581.0</ele><time>2026-05-02T13:57:17Z</time></trkpt><trkpt lat="45.919393371670246" lon="11.134000405335362"><ele>581.0</ele><time>2026-05-02T13:57:18Z</time></trkpt><trkpt lat="45.919266911082005" lon="11.134070895691655"><ele>575.3333333333333</ele><time>2026-05-02T13:57:19Z</time></trkpt><trkpt lat="45.91910673548439" lon="11.134142876527198"><ele>569.6666666666666</ele><time>2026-05-02T13:57:20Z</time></trkpt><trkpt lat="45.91892275632878" lon="11.134222108620602"><ele>564.0</ele><time>2026-05-02T13:57:21Z</time></trkpt><trkpt lat="45.91873161628615" lon="11.134309464171064"><ele>564.0</ele><time>2026-05-02T13:57:22Z</time></trkpt><trkpt lat="45.91854896860984" lon="11.134414052139721"><ele>564.0</ele><time>2026-05-02T13:57:23Z</time></trkpt><trkpt lat="45.91836636092787" lon="11.134491255044415"><ele>564.0</ele><time>2026-05-02T13:57:24Z</time></trkpt><trkpt lat="45.91818816802855" lon="11.13456835263751"><ele>557.6666666666666</ele><time>2026-05-02T13:57:25Z</time></trkpt><trkpt lat="45.91801257812074" lon="11.134649645396745"><ele>551.3333333333333</ele><time>2026-05-02T13:57:26Z</time></trkpt><trkpt lat="45.91784612344161" lon="11.134720426937756"><ele>545.0</ele><time>2026-05-02T13:57:27Z</time></trkpt><trkpt lat="45.91770088120729" lon="11.13477877339318"><ele>545.75</ele><time>2026-05-02T13:57:28Z</time></trkpt><trkpt lat="45.917540327122154" lon="11.134835464820867"><ele>546.5</ele><time>2026-05-02T13:57:29Z</time></trkpt><trkpt lat="45.91741998343422" lon="11.134913820678921"><ele>547.25</ele><time>2026-05-02T13:57:30Z</time></trkpt><trkpt lat="45.91731076803219" lon="11.135041219676525"><ele>548.0</ele><time>2026-05-02T13:57:31Z</time></trkpt><trkpt lat="45.917195191511425" lon="11.135181716444896"><ele>548.0</ele><time>2026-05-02T13:57:32Z</time></trkpt><trkpt lat="45.917099650612975" lon="11.135299343887745"><ele>548.0</ele><time>2026-05-02T13:57:33Z</time></trkpt><trkpt lat="45.91702567281502" lon="11.13539078844191"><ele>548.0</ele><time>2026-05-02T13:57:34Z</time></trkpt><trkpt lat="45.91695851211617" lon="11.13543241885952"><ele>548.0</ele><time>2026-05-02T13:57:35Z</time></trkpt><trkpt lat="45.91688856518089" lon="11.135365151739409"><ele>548.0</ele><time>2026-05-02T13:57:36Z</time></trkpt><trkpt lat="45.916837061983465" lon="11.13530179623526"><ele>548.0</ele><time>2026-05-02T13:57:37Z</time></trkpt><trkpt lat="45.91682283263959" lon="11.135193702893636"><ele>548.0</ele><time>2026-05-02T13:57:38Z</time></trkpt><trkpt lat="45.91683624045046" lon="11.135095780936286"><ele>548.0</ele><time>2026-05-02T13:57:39Z</time></trkpt><trkpt lat="45.91688539967726" lon="11.135010331332184"><ele>548.0</ele><time>2026-05-02T13:57:40Z</time></trkpt><trkpt lat="45.91699822696614" lon="11.134925872988468"><ele>548.0</ele><time>2026-05-02T13:57:41Z</time></trkpt><trkpt lat="45.917110076502404" lon="11.134813148143575"><ele>548.0</ele><time>2026-05-02T13:57:42Z</time></trkpt><trkpt lat="45.9172437682146" lon="11.134708231318529"><ele>547.25</ele><time>2026-05-02T13:57:43Z</time></trkpt><trkpt lat="45.91735680361355" lon="11.134608893932477"><ele>546.5</ele><time>2026-05-02T13:57:44Z</time></trkpt><trkpt lat="45.91745457031576" lon="11.134517347371613"><ele>545.75</ele><time>2026-05-02T13:57:45Z</time></trkpt><trkpt lat="45.9175439259717" lon="11.134414709682703"><ele>545.0</ele><time>2026-05-02T13:57:46Z</time></trkpt><trkpt lat="45.91761157161148" lon="11.134287374350071"><ele>545.0</ele><time>2026-05-02T13:57:47Z</time></trkpt><trkpt lat="45.917657667880704" lon="11.134129629379231"><ele>545.0</ele><time>2026-05-02T13:57:48Z</time></trkpt><trkpt lat="45.917682043539344" lon="11.133973303562618"><ele>545.0</ele><time>2026-05-02T13:57:49Z</time></trkpt><trkpt lat="45.917714237839064" lon="11.133825297488531"><ele>545.0</ele><time>2026-05-02T13:57:50Z</time></trkpt><trkpt lat="45.91781069993562" lon="11.13374135743038"><ele>538.5</ele><time>2026-05-02T13:57:51Z</time></trkpt><trkpt lat="45.91791611855783" lon="11.13368074371809"><ele>532.0</ele><time>2026-05-02T13:57:52Z</time></trkpt><trkpt lat="45.91802824769241" lon="11.133585151816767"><ele>525.5</ele><time>2026-05-02T13:57:53Z</time></trkpt><trkpt lat="45.9181599551742" lon="11.13350071626632"><ele>519.0</ele><time>2026-05-02T13:57:54Z</time></trkpt><trkpt lat="45.91828660361598" lon="11.133375932361478"><ele>521.25</ele><time>2026-05-02T13:57:55Z</time></trkpt><trkpt lat="45.918409287568416" lon="11.133246403983165"><ele>523.5</ele><time>2026-05-02T13:57:56Z</time></trkpt><trkpt lat="45.91852136415642" lon="11.133122740013018"><ele>525.75</ele><time>2026-05-02T13:57:57Z</time></trkpt><trkpt lat="45.91863101169577" lon="11.133006728690626"><ele>528.0</ele><time>2026-05-02T13:57:58Z</time></trkpt><trkpt lat="45.918720928930725" lon="11.13287089382003"><ele>528.0</ele><time>2026-05-02T13:57:59Z</time></trkpt><trkpt lat="45.91878108509385" lon="11.132689832843518"><ele>528.0</ele><time>2026-05-02T13:58:00Z</time></trkpt><trkpt lat="45.9187978140579" lon="11.132469254009855"><ele>528.0</ele><time>2026-05-02T13:58:01Z</time></trkpt><trkpt lat="45.91879366831135" lon="11.132264244705928"><ele>528.0</ele><time>2026-05-02T13:58:02Z</time></trkpt><trkpt lat="45.91881801279171" lon="11.13205829460392"><ele>521.3333333333334</ele><time>2026-05-02T13:58:03Z</time></trkpt><trkpt lat="45.91886940507143" lon="11.131902000391046"><ele>514.6666666666667</ele><time>2026-05-02T13:58:04Z</time></trkpt><trkpt lat="45.91897232259136" lon="11.131714935310683"><ele>508.0</ele><time>2026-05-02T13:58:05Z</time></trkpt><trkpt lat="45.91911157941316" lon="11.131492570232437"><ele>508.33333333333337</ele><time>2026-05-02T13:58:06Z</time></trkpt><trkpt lat="45.91927137503658" lon="11.131315339906134"><ele>508.66666666666663</ele><time>2026-05-02T13:58:07Z</time></trkpt><trkpt lat="45.919410907355655" lon="11.13110338224027"><ele>509.0</ele><time>2026-05-02T13:58:08Z</time></trkpt><trkpt lat="45.91953247832105" lon="11.13089730906377"><ele>495.3333333333333</ele><time>2026-05-02T13:58:09Z</time></trkpt><trkpt lat="45.919668021579504" lon="11.130717022671591"><ele>481.66666666666663</ele><time>2026-05-02T13:58:10Z</time></trkpt><trkpt lat="45.91978603940787" lon="11.13052200668899"><ele>468.0</ele><time>2026-05-02T13:58:11Z</time></trkpt><trkpt lat="45.91989954910554" lon="11.130358377658073"><ele>468.0</ele><time>2026-05-02T13:58:12Z</time></trkpt><trkpt lat="45.91999404449815" lon="11.130239420377858"><ele>467.99999999999994</ele><time>2026-05-02T13:58:13Z</time></trkpt><trkpt lat="45.92008845162022" lon="11.130194289215629"><ele>467.99999999999994</ele><time>2026-05-02T13:58:14Z</time></trkpt><trkpt lat="45.92018503873315" lon="11.13019751495914"><ele>468.0</ele><time>2026-05-02T13:58:15Z</time></trkpt><trkpt lat="45.92030793534484" lon="11.130193041385414"><ele>468.0</ele><time>2026-05-02T13:58:16Z</time></trkpt><trkpt lat="45.92042404892502" lon="11.130173500478657"><ele>467.0</ele><time>2026-05-02T13:58:17Z</time></trkpt><trkpt lat="45.920520449306885" lon="11.130118845784915"><ele>466.0</ele><time>2026-05-02T13:58:18Z</time></trkpt><trkpt lat="45.920579503009364" lon="11.129959203823763"><ele>465.0</ele><time>2026-05-02T13:58:19Z</time></trkpt><trkpt lat="45.92065871406496" lon="11.129787991721109"><ele>464.0</ele><time>2026-05-02T13:58:20Z</time></trkpt><trkpt lat="45.920715565510235" lon="11.129557989250152"><ele>464.0</ele><time>2026-05-02T13:58:21Z</time></trkpt><trkpt lat="45.92082678542808" lon="11.129376310753013"><ele>464.0</ele><time>2026-05-02T13:58:22Z</time></trkpt><trkpt lat="45.92095295034074" lon="11.129199452861489"><ele>464.0</ele><time>2026-05-02T13:58:23Z</time></trkpt><trkpt lat="45.921085949041014" lon="11.12905832632871"><ele>460.0</ele><time>2026-05-02T13:58:24Z</time></trkpt><trkpt lat="45.92122616829046" lon="11.128938587877295"><ele>456.0</ele><time>2026-05-02T13:58:25Z</time></trkpt><trkpt lat="45.92136288864389" lon="11.128818643574109"><ele>452.0</ele><time>2026-05-02T13:58:26Z</time></trkpt><trkpt lat="45.9214573732598" lon="11.12867995056082"><ele>452.0</ele><time>2026-05-02T13:58:27Z</time></trkpt><trkpt lat="45.9215260177852" lon="11.128512721781116"><ele>452.00000000000006</ele><time>2026-05-02T13:58:28Z</time></trkpt><trkpt lat="45.921574436106674" lon="11.128356838822265"><ele>452.00000000000006</ele><time>2026-05-02T13:58:29Z</time></trkpt><trkpt lat="45.921640835553355" lon="11.128257329072246"><ele>452.0</ele><time>2026-05-02T13:58:30Z</time></trkpt><trkpt lat="45.921714343468174" lon="11.128182589501975"><ele>452.0</ele><time>2026-05-02T13:58:31Z</time></trkpt><trkpt lat="45.921819422598006" lon="11.12816338132673"><ele>444.20000000000005</ele><time>2026-05-02T13:58:32Z</time></trkpt><trkpt lat="45.92192646402232" lon="11.128237335298438"><ele>436.40000000000003</ele><time>2026-05-02T13:58:33Z</time></trkpt><trkpt lat="45.921989480964825" lon="11.128348106165975"><ele>428.6</ele><time>2026-05-02T13:58:34Z</time></trkpt><trkpt lat="45.92204539089427" lon="11.12846642299113"><ele>420.79999999999995</ele><time>2026-05-02T13:58:35Z</time></trkpt><trkpt lat="45.922058282411186" lon="11.128621629606986"><ele>413.0</ele><time>2026-05-02T13:58:36Z</time></trkpt><trkpt lat="45.92201379838789" lon="11.128771736685117"><ele>413.0</ele><time>2026-05-02T13:58:37Z</time></trkpt><trkpt lat="45.9219257085012" lon="11.128895884558508"><ele>413.0</ele><time>2026-05-02T13:58:38Z</time></trkpt><trkpt lat="45.92185185113019" lon="11.129031800637039"><ele>413.0</ele><time>2026-05-02T13:58:39Z</time></trkpt><trkpt lat="45.92179764758274" lon="11.129157506177162"><ele>413.0</ele><time>2026-05-02T13:58:40Z</time></trkpt><trkpt lat="45.921790953971396" lon="11.12931123917806"><ele>418.0</ele><time>2026-05-02T13:58:42Z</time></trkpt><trkpt lat="45.92180953324379" lon="11.12941212476672"><ele>423.0</ele><time>2026-05-02T13:58:43Z</time></trkpt><trkpt lat="45.921893151833466" lon="11.129492013843914"><ele>427.99999999999994</ele><time>2026-05-02T13:58:44Z</time></trkpt><trkpt lat="45.9220144618013" lon="11.129525069588583"><ele>433.0</ele><time>2026-05-02T13:58:45Z</time></trkpt><trkpt lat="45.922152500834294" lon="11.129551986630448"><ele>438.0</ele><time>2026-05-02T13:58:46Z</time></trkpt><trkpt lat="45.922309731321526" lon="11.129599337768346"><ele>438.0</ele><time>2026-05-02T13:58:47Z</time></trkpt><trkpt lat="45.9224638633723" lon="11.129645755780432"><ele>438.0</ele><time>2026-05-02T13:58:48Z</time></trkpt><trkpt lat="45.922620505144344" lon="11.129693118305797"><ele>438.0</ele><time>2026-05-02T13:58:49Z</time></trkpt><trkpt lat="45.922784384836135" lon="11.129749565943126"><ele>438.5</ele><time>2026-05-02T13:58:50Z</time></trkpt><trkpt lat="45.92293116092766" lon="11.129811370036741"><ele>439.0</ele><time>2026-05-02T13:58:51Z</time></trkpt><trkpt lat="45.92307382262546" lon="11.129876294450538"><ele>439.5</ele><time>2026-05-02T13:58:52Z</time></trkpt><trkpt lat="45.923203118067974" lon="11.129937257754447"><ele>440.0</ele><time>2026-05-02T13:58:53Z</time></trkpt><trkpt lat="45.92333946016277" lon="11.130002754665464"><ele>438.0</ele><time>2026-05-02T13:58:54Z</time></trkpt><trkpt lat="45.92348701856745" lon="11.130073639729533"><ele>436.0</ele><time>2026-05-02T13:58:55Z</time></trkpt><trkpt lat="45.92362622207576" lon="11.130142979261318"><ele>434.0</ele><time>2026-05-02T13:58:56Z</time></trkpt><trkpt lat="45.923745750530124" lon="11.130198506301475"><ele>432.0</ele><time>2026-05-02T13:58:57Z</time></trkpt><trkpt lat="45.923877821902785" lon="11.130205641773554"><ele>432.0</ele><time>2026-05-02T13:58:58Z</time></trkpt><trkpt lat="45.924002530066566" lon="11.130155531392576"><ele>432.0</ele><time>2026-05-02T13:58:59Z</time></trkpt><trkpt lat="45.92412940867926" lon="11.130093314817225"><ele>432.0</ele><time>2026-05-02T13:59:00Z</time></trkpt><trkpt lat="45.92425737296216" lon="11.130035720687616"><ele>432.0</ele><time>2026-05-02T13:59:01Z</time></trkpt><trkpt lat="45.924368190399356" lon="11.13002864788605"><ele>432.8</ele><time>2026-05-02T13:59:02Z</time></trkpt><trkpt lat="45.924448619092566" lon="11.130074300641892"><ele>433.6</ele><time>2026-05-02T13:59:03Z</time></trkpt><trkpt lat="45.92451432116592" lon="11.130166187794686"><ele>434.40000000000003</ele><time>2026-05-02T13:59:04Z</time></trkpt><trkpt lat="45.92460738907944" lon="11.130240410585044"><ele>435.20000000000005</ele><time>2026-05-02T13:59:05Z</time></trkpt><trkpt lat="45.92470726005428" lon="11.130297655667077"><ele>436.0</ele><time>2026-05-02T13:59:06Z</time></trkpt><trkpt lat="45.92480965354292" lon="11.130288718514775"><ele>436.0</ele><time>2026-05-02T13:59:07Z</time></trkpt><trkpt lat="45.9249108047496" lon="11.130205519952586"><ele>436.0</ele><time>2026-05-02T13:59:08Z</time></trkpt><trkpt lat="45.92502399827116" lon="11.130098429131369"><ele>436.0</ele><time>2026-05-02T13:59:09Z</time></trkpt><trkpt lat="45.92509761010655" lon="11.129963280470694"><ele>436.0</ele><time>2026-05-02T13:59:10Z</time></trkpt><trkpt lat="45.925062283357825" lon="11.12987153136675"><ele>436.0</ele><time>2026-05-02T13:59:11Z</time></trkpt><trkpt lat="45.92500583050915" lon="11.129646124906003"><ele>444.5</ele><time>2026-05-02T13:59:12Z</time></trkpt><trkpt lat="45.924936411154356" lon="11.129469366241723"><ele>453.0</ele><time>2026-05-02T13:59:13Z</time></trkpt><trkpt lat="45.924870947360226" lon="11.129334715719184"><ele>461.5</ele><time>2026-05-02T13:59:14Z</time></trkpt><trkpt lat="45.92477023673764" lon="11.129198441383835"><ele>470.0</ele><time>2026-05-02T13:59:15Z</time></trkpt><trkpt lat="45.92463219105746" lon="11.129129014110516"><ele>470.75</ele><time>2026-05-02T13:59:16Z</time></trkpt><trkpt lat="45.92446667304252" lon="11.129055361514876"><ele>471.5</ele><time>2026-05-02T13:59:17Z</time></trkpt><trkpt lat="45.92436295737509" lon="11.12901502151276"><ele>472.25</ele><time>2026-05-02T13:59:18Z</time></trkpt><trkpt lat="45.9242164637079" lon="11.128983329893249"><ele>473.0</ele><time>2026-05-02T13:59:19Z</time></trkpt><trkpt lat="45.92407856687369" lon="11.12899117016421"><ele>473.0</ele><time>2026-05-02T13:59:20Z</time></trkpt><trkpt lat="45.92395208358413" lon="11.129004710631625"><ele>472.99999999999994</ele><time>2026-05-02T13:59:21Z</time></trkpt><trkpt lat="45.92385294249006" lon="11.129030896379273"><ele>472.99999999999994</ele><time>2026-05-02T13:59:22Z</time></trkpt><trkpt lat="45.92375435500186" lon="11.129018872146707"><ele>473.0</ele><time>2026-05-02T13:59:23Z</time></trkpt><trkpt lat="45.923670442307575" lon="11.129013802017962"><ele>473.0</ele><time>2026-05-02T13:59:24Z</time></trkpt><trkpt lat="45.92359141681697" lon="11.1290058484142"><ele>472.99999999999994</ele><time>2026-05-02T13:59:25Z</time></trkpt><trkpt lat="45.92354383087354" lon="11.128910378924006"><ele>473.0</ele><time>2026-05-02T13:59:26Z</time></trkpt><trkpt lat="45.92351089817925" lon="11.128810781215703"><ele>473.0</ele><time>2026-05-02T13:59:27Z</time></trkpt><trkpt lat="45.923516535201344" lon="11.128687487119052"><ele>473.0</ele><time>2026-05-02T13:59:28Z</time></trkpt><trkpt lat="45.923513520925816" lon="11.128548884301507"><ele>472.99999999999994</ele><time>2026-05-02T13:59:29Z</time></trkpt><trkpt lat="45.92350098141647" lon="11.128415089887897"><ele>473.0</ele><time>2026-05-02T13:59:30Z</time></trkpt><trkpt lat="45.92343084748672" lon="11.12828876993559"><ele>463.0</ele><time>2026-05-02T13:59:31Z</time></trkpt><trkpt lat="45.92334227138476" lon="11.128165636011774"><ele>452.99999999999994</ele><time>2026-05-02T13:59:32Z</time></trkpt><trkpt lat="45.923265555736" lon="11.128069130874419"><ele>443.0</ele><time>2026-05-02T13:59:33Z</time></trkpt><trkpt lat="45.92320442542338" lon="11.12799068616493"><ele>433.0</ele><time>2026-05-02T13:59:34Z</time></trkpt><trkpt lat="45.92314697945882" lon="11.127896365940195"><ele>423.0</ele><time>2026-05-02T13:59:35Z</time></trkpt><trkpt lat="45.923122820319215" lon="11.12778812182187"><ele>423.0</ele><time>2026-05-02T13:59:36Z</time></trkpt><trkpt lat="45.92311954483922" lon="11.127590823986024"><ele>423.0</ele><time>2026-05-02T13:59:37Z</time></trkpt><trkpt lat="45.92309347218933" lon="11.12734793360838"><ele>423.0</ele><time>2026-05-02T13:59:38Z</time></trkpt><trkpt lat="45.92311236985659" lon="11.127063808403012"><ele>424.0</ele><time>2026-05-02T13:59:39Z</time></trkpt><trkpt lat="45.92313578181929" lon="11.126819125690593"><ele>425.0</ele><time>2026-05-02T13:59:40Z</time></trkpt><trkpt lat="45.92317552002859" lon="11.126606892524608"><ele>426.0</ele><time>2026-05-02T13:59:41Z</time></trkpt><trkpt lat="45.92320481559455" lon="11.126445219254268"><ele>427.0</ele><time>2026-05-02T13:59:42Z</time></trkpt><trkpt lat="45.92319095795496" lon="11.126263979116958"><ele>427.6666666666667</ele><time>2026-05-02T13:59:43Z</time></trkpt><trkpt lat="45.923136605785714" lon="11.126078224200603"><ele>428.33333333333337</ele><time>2026-05-02T13:59:44Z</time></trkpt><trkpt lat="45.923053956580446" lon="11.125870112744698"><ele>429.0</ele><time>2026-05-02T13:59:45Z</time></trkpt><trkpt lat="45.923002002048584" lon="11.125664997441538"><ele>426.25</ele><time>2026-05-02T13:59:46Z</time></trkpt><trkpt lat="45.92295248795337" lon="11.125480617273206"><ele>423.5</ele><time>2026-05-02T13:59:47Z</time></trkpt><trkpt lat="45.922935138573955" lon="11.125310411639342"><ele>420.75</ele><time>2026-05-02T13:59:48Z</time></trkpt><trkpt lat="45.922955966590195" lon="11.125119853529819"><ele>418.0</ele><time>2026-05-02T13:59:49Z</time></trkpt><trkpt lat="45.92300262957426" lon="11.124908792293299"><ele>409.75</ele><time>2026-05-02T13:59:50Z</time></trkpt><trkpt lat="45.92305803694142" lon="11.12470966539656"><ele>401.5</ele><time>2026-05-02T13:59:51Z</time></trkpt><trkpt lat="45.9231186427251" lon="11.12452618741353"><ele>393.25</ele><time>2026-05-02T13:59:52Z</time></trkpt><trkpt lat="45.92321225534595" lon="11.124381277176548"><ele>385.0</ele><time>2026-05-02T13:59:53Z</time></trkpt><trkpt lat="45.923334328216576" lon="11.12427263631933"><ele>390.25</ele><time>2026-05-02T13:59:54Z</time></trkpt><trkpt lat="45.923468967634356" lon="11.124180698244517"><ele>395.5</ele><time>2026-05-02T13:59:55Z</time></trkpt><trkpt lat="45.92357793947097" lon="11.124058025165063"><ele>400.75</ele><time>2026-05-02T13:59:56Z</time></trkpt><trkpt lat="45.92365215992068" lon="11.123885452154736"><ele>406.0</ele><time>2026-05-02T13:59:57Z</time></trkpt><trkpt lat="45.92371150099241" lon="11.123677319880052"><ele>406.0</ele><time>2026-05-02T13:59:58Z</time></trkpt><trkpt lat="45.92377148914607" lon="11.123420224734842"><ele>406.0</ele><time>2026-05-02T13:59:59Z</time></trkpt><trkpt lat="45.923832665166735" lon="11.12319924358262"><ele>406.0</ele><time>2026-05-02T14:00:00Z</time></trkpt><trkpt lat="45.92391398283403" lon="11.123004758793066"><ele>401.4</ele><time>2026-05-02T14:00:01Z</time></trkpt><trkpt lat="45.92399821582899" lon="11.122865347674708"><ele>396.8</ele><time>2026-05-02T14:00:02Z</time></trkpt><trkpt lat="45.924054808892485" lon="11.122735193018501"><ele>392.2</ele><time>2026-05-02T14:00:03Z</time></trkpt><trkpt lat="45.92407151151476" lon="11.122595675272477"><ele>387.59999999999997</ele><time>2026-05-02T14:00:04Z</time></trkpt><trkpt lat="45.924044545109915" lon="11.122438962065273"><ele>383.0</ele><time>2026-05-02T14:00:05Z</time></trkpt><trkpt lat="45.92398878457306" lon="11.12227321339007"><ele>376.5</ele><time>2026-05-02T14:00:06Z</time></trkpt><trkpt lat="45.92395795535336" lon="11.122112547379146"><ele>370.0</ele><time>2026-05-02T14:00:07Z</time></trkpt><trkpt lat="45.9239657151628" lon="11.121951277436796"><ele>363.5</ele><time>2026-05-02T14:00:08Z</time></trkpt><trkpt lat="45.92400755671447" lon="11.121796178591762"><ele>357.0</ele><time>2026-05-02T14:00:09Z</time></trkpt><trkpt lat="45.92410219405768" lon="11.121611729805984"><ele>359.3333333333333</ele><time>2026-05-02T14:00:10Z</time></trkpt><trkpt lat="45.924225490559024" lon="11.121406701785228"><ele>361.66666666666663</ele><time>2026-05-02T14:00:11Z</time></trkpt><trkpt lat="45.924334096843154" lon="11.121209302585099"><ele>364.0</ele><time>2026-05-02T14:00:12Z</time></trkpt><trkpt lat="45.92444721916654" lon="11.121028969284612"><ele>364.0</ele><time>2026-05-02T14:00:13Z</time></trkpt><trkpt lat="45.92456736677399" lon="11.120910095188187"><ele>364.0</ele><time>2026-05-02T14:00:14Z</time></trkpt><trkpt lat="45.924702888472005" lon="11.12082920139035"><ele>364.0</ele><time>2026-05-02T14:00:15Z</time></trkpt><trkpt lat="45.924840113135865" lon="11.12075984472448"><ele>364.0</ele><time>2026-05-02T14:00:16Z</time></trkpt><trkpt lat="45.924973471528396" lon="11.120669858230432"><ele>365.0</ele><time>2026-05-02T14:00:17Z</time></trkpt><trkpt lat="45.92510117513294" lon="11.120554581543807"><ele>366.0</ele><time>2026-05-02T14:00:18Z</time></trkpt><trkpt lat="45.925222883592305" lon="11.120403219480307"><ele>367.0</ele><time>2026-05-02T14:00:19Z</time></trkpt><trkpt lat="45.9253289260625" lon="11.120250853423553"><ele>367.0</ele><time>2026-05-02T14:00:20Z</time></trkpt><trkpt lat="45.925435506121794" lon="11.120111474498998"><ele>367.0</ele><time>2026-05-02T14:00:21Z</time></trkpt><trkpt lat="45.92557139320983" lon="11.120020301119883"><ele>367.0</ele><time>2026-05-02T14:00:22Z</time></trkpt><trkpt lat="45.92569707109772" lon="11.11989013942078"><ele>367.0</ele><time>2026-05-02T14:00:23Z</time></trkpt><trkpt lat="45.925832985606164" lon="11.119784223436898"><ele>365.0</ele><time>2026-05-02T14:00:24Z</time></trkpt><trkpt lat="45.925979920887386" lon="11.119666349363195"><ele>363.0</ele><time>2026-05-02T14:00:25Z</time></trkpt><trkpt lat="45.92613322796817" lon="11.11955323897335"><ele>361.0</ele><time>2026-05-02T14:00:26Z</time></trkpt><trkpt lat="45.92628040242089" lon="11.11947441907303"><ele>361.0</ele><time>2026-05-02T14:00:27Z</time></trkpt><trkpt lat="45.92641201771029" lon="11.119410445341922"><ele>361.0</ele><time>2026-05-02T14:00:28Z</time></trkpt><trkpt lat="45.926527313401614" lon="11.119304573236793"><ele>361.0</ele><time>2026-05-02T14:00:29Z</time></trkpt><trkpt lat="45.92663495375556" lon="11.119162450039703"><ele>361.0</ele><time>2026-05-02T14:00:30Z</time></trkpt><trkpt lat="45.926740059633836" lon="11.119017084499278"><ele>360.25</ele><time>2026-05-02T14:00:31Z</time></trkpt><trkpt lat="45.9268382424869" lon="11.118883191324727"><ele>359.5</ele><time>2026-05-02T14:00:32Z</time></trkpt><trkpt lat="45.926943470502515" lon="11.118747503288565"><ele>358.75</ele><time>2026-05-02T14:00:33Z</time></trkpt><trkpt lat="45.927052787783595" lon="11.118600890016713"><ele>358.0</ele><time>2026-05-02T14:00:34Z</time></trkpt><trkpt lat="45.92716132049732" lon="11.118457991859296"><ele>358.0</ele><time>2026-05-02T14:00:35Z</time></trkpt><trkpt lat="45.92725167998907" lon="11.118339853733188"><ele>358.0</ele><time>2026-05-02T14:00:36Z</time></trkpt><trkpt lat="45.927333278518645" lon="11.118237034705631"><ele>358.0</ele><time>2026-05-02T14:00:37Z</time></trkpt><trkpt lat="45.927420057188534" lon="11.118165865839936"><ele>358.0</ele><time>2026-05-02T14:00:38Z</time></trkpt><trkpt lat="45.927508854200525" lon="11.118148579035582"><ele>358.0</ele><time>2026-05-02T14:00:39Z</time></trkpt><trkpt lat="45.92760551611582" lon="11.118174948321135"><ele>360.16666666666663</ele><time>2026-05-02T14:00:40Z</time></trkpt><trkpt lat="45.92768961629615" lon="11.118191070350628"><ele>362.3333333333333</ele><time>2026-05-02T14:00:41Z</time></trkpt><trkpt lat="45.92777288082679" lon="11.118172280596701"><ele>364.5</ele><time>2026-05-02T14:00:42Z</time></trkpt><trkpt lat="45.927840966223236" lon="11.118102801610327"><ele>366.6666666666667</ele><time>2026-05-02T14:00:43Z</time></trkpt><trkpt lat="45.92787825029497" lon="11.118000748947015"><ele>368.83333333333337</ele><time>2026-05-02T14:00:44Z</time></trkpt><trkpt lat="45.927882948212186" lon="11.117857881316077"><ele>371.0</ele><time>2026-05-02T14:00:45Z</time></trkpt><trkpt lat="45.927873697924255" lon="11.117681664873238"><ele>371.0</ele><time>2026-05-02T14:00:46Z</time></trkpt><trkpt lat="45.927868250927474" lon="11.117490097850622"><ele>371.0</ele><time>2026-05-02T14:00:47Z</time></trkpt><trkpt lat="45.92788175517346" lon="11.117296054569463"><ele>371.0</ele><time>2026-05-02T14:00:48Z</time></trkpt><trkpt lat="45.927901880142166" lon="11.117113144174269"><ele>371.0</ele><time>2026-05-02T14:00:49Z</time></trkpt><trkpt lat="45.92793370504244" lon="11.116940234070663"><ele>367.5</ele><time>2026-05-02T14:00:50Z</time></trkpt><trkpt lat="45.9279855290931" lon="11.116795232854678"><ele>364.0</ele><time>2026-05-02T14:00:51Z</time></trkpt><trkpt lat="45.92806356483725" lon="11.116673977521186"><ele>360.5</ele><time>2026-05-02T14:00:52Z</time></trkpt><trkpt lat="45.92815677739667" lon="11.116574545981432"><ele>357.0</ele><time>2026-05-02T14:00:53Z</time></trkpt><trkpt lat="45.92824173498008" lon="11.116452780904616"><ele>360.75</ele><time>2026-05-02T14:00:54Z</time></trkpt><trkpt lat="45.92830906409569" lon="11.116292767894537"><ele>364.5</ele><time>2026-05-02T14:00:55Z</time></trkpt><trkpt lat="45.92837407323935" lon="11.116100373666988"><ele>368.25</ele><time>2026-05-02T14:00:56Z</time></trkpt><trkpt lat="45.92843474501536" lon="11.115911264892954"><ele>372.0</ele><time>2026-05-02T14:00:57Z</time></trkpt><trkpt lat="45.928493036110524" lon="11.115735102634185"><ele>362.5</ele><time>2026-05-02T14:00:58Z</time></trkpt><trkpt lat="45.928569040782904" lon="11.115565712402908"><ele>353.0</ele><time>2026-05-02T14:00:59Z</time></trkpt><trkpt lat="45.92866160297965" lon="11.115419199273978"><ele>343.5</ele><time>2026-05-02T14:01:00Z</time></trkpt><trkpt lat="45.928770344801784" lon="11.115290802127147"><ele>334.0</ele><time>2026-05-02T14:01:01Z</time></trkpt><trkpt lat="45.928876664840544" lon="11.115178470898591"><ele>334.0</ele><time>2026-05-02T14:01:02Z</time></trkpt><trkpt lat="45.92897562904609" lon="11.115072258655218"><ele>334.0</ele><time>2026-05-02T14:01:03Z</time></trkpt><trkpt lat="45.929073285168634" lon="11.114991068747248"><ele>334.0</ele><time>2026-05-02T14:01:04Z</time></trkpt><trkpt lat="45.92918313178621" lon="11.11493461971211"><ele>334.0</ele><time>2026-05-02T14:01:05Z</time></trkpt><trkpt lat="45.92930563885875" lon="11.11490755806187"><ele>333.25</ele><time>2026-05-02T14:01:06Z</time></trkpt><trkpt lat="45.92942568997157" lon="11.114866141670321"><ele>332.5</ele><time>2026-05-02T14:01:07Z</time></trkpt><trkpt lat="45.92953504276426" lon="11.11476715089407"><ele>331.75</ele><time>2026-05-02T14:01:08Z</time></trkpt><trkpt lat="45.92963199495018" lon="11.114606971242035"><ele>331.0</ele><time>2026-05-02T14:01:09Z</time></trkpt><trkpt lat="45.92972355001219" lon="11.114423632539296"><ele>331.0</ele><time>2026-05-02T14:01:10Z</time></trkpt><trkpt lat="45.92982014147282" lon="11.114258867074893"><ele>331.0</ele><time>2026-05-02T14:01:11Z</time></trkpt><trkpt lat="45.929929106969816" lon="11.114125334086438"><ele>331.0</ele><time>2026-05-02T14:01:12Z</time></trkpt><trkpt lat="45.93002827513512" lon="11.114033555148128"><ele>331.0</ele><time>2026-05-02T14:01:13Z</time></trkpt><trkpt lat="45.930099142848576" lon="11.113919571036469"><ele>328.8</ele><time>2026-05-02T14:01:14Z</time></trkpt><trkpt lat="45.930136233841786" lon="11.113777685868433"><ele>326.6</ele><time>2026-05-02T14:01:15Z</time></trkpt><trkpt lat="45.9301399277837" lon="11.11362231978366"><ele>324.4</ele><time>2026-05-02T14:01:16Z</time></trkpt><trkpt lat="45.930105985919546" lon="11.113473442257376"><ele>322.2</ele><time>2026-05-02T14:01:17Z</time></trkpt><trkpt lat="45.93005044255651" lon="11.113330745320452"><ele>320.0</ele><time>2026-05-02T14:01:18Z</time></trkpt><trkpt lat="45.93000048636603" lon="11.113211568740969"><ele>318.0</ele><time>2026-05-02T14:01:19Z</time></trkpt><trkpt lat="45.92998166271804" lon="11.113094788506737"><ele>316.0</ele><time>2026-05-02T14:01:20Z</time></trkpt><trkpt lat="45.92999276068316" lon="11.112975870178982"><ele>314.0</ele><time>2026-05-02T14:01:21Z</time></trkpt><trkpt lat="45.93003832014753" lon="11.1128154983014"><ele>312.0</ele><time>2026-05-02T14:01:22Z</time></trkpt><trkpt lat="45.930120251082045" lon="11.112638518770236"><ele>310.0</ele><time>2026-05-02T14:01:23Z</time></trkpt><trkpt lat="45.93016154581384" lon="11.112449000944672"><ele>324.0</ele><time>2026-05-02T14:01:24Z</time></trkpt><trkpt lat="45.930184061000205" lon="11.112248421832259"><ele>338.0</ele><time>2026-05-02T14:01:25Z</time></trkpt><trkpt lat="45.93018097278889" lon="11.112059597283562"><ele>352.0</ele><time>2026-05-02T14:01:26Z</time></trkpt><trkpt lat="45.93017694812556" lon="11.111894717426164"><ele>366.0</ele><time>2026-05-02T14:01:27Z</time></trkpt><trkpt lat="45.93009608757735" lon="11.111774881622294"><ele>360.0</ele><time>2026-05-02T14:01:28Z</time></trkpt><trkpt lat="45.93000750894844" lon="11.111661896819275"><ele>354.0</ele><time>2026-05-02T14:01:29Z</time></trkpt><trkpt lat="45.929889084381436" lon="11.111650721019839"><ele>348.0</ele><time>2026-05-02T14:01:30Z</time></trkpt><trkpt lat="45.929819379566034" lon="11.111586044576562"><ele>342.0</ele><time>2026-05-02T14:01:31Z</time></trkpt><trkpt lat="45.92977285761005" lon="11.111499756099327"><ele>336.0</ele><time>2026-05-02T14:01:32Z</time></trkpt><trkpt lat="45.929740608249624" lon="11.111354112428117"><ele>336.0</ele><time>2026-05-02T14:01:33Z</time></trkpt><trkpt lat="45.929698683650535" lon="11.111189328461121"><ele>336.0</ele><time>2026-05-02T14:01:34Z</time></trkpt><trkpt lat="45.929663277966135" lon="11.111041373679027"><ele>336.0</ele><time>2026-05-02T14:01:35Z</time></trkpt><trkpt lat="45.92969547225807" lon="11.110892870116736"><ele>336.0</ele><time>2026-05-02T14:01:36Z</time></trkpt><trkpt lat="45.92973759985475" lon="11.110754918087956"><ele>336.0</ele><time>2026-05-02T14:01:37Z</time></trkpt><trkpt lat="45.929769805559104" lon="11.110625009244147"><ele>343.5</ele><time>2026-05-02T14:01:38Z</time></trkpt><trkpt lat="45.92977909138074" lon="11.11047976278534"><ele>351.0</ele><time>2026-05-02T14:01:39Z</time></trkpt><trkpt lat="45.929713190016244" lon="11.11030843607613"><ele>358.5</ele><time>2026-05-02T14:01:40Z</time></trkpt><trkpt lat="45.92961231018977" lon="11.110116211686051"><ele>366.0</ele><time>2026-05-02T14:01:41Z</time></trkpt><trkpt lat="45.92954170486451" lon="11.109904707623828"><ele>379.66666666666663</ele><time>2026-05-02T14:01:42Z</time></trkpt><trkpt lat="45.92944953080099" lon="11.109682727988588"><ele>393.3333333333333</ele><time>2026-05-02T14:01:43Z</time></trkpt><trkpt lat="45.92934963285482" lon="11.109488480457683"><ele>407.0</ele><time>2026-05-02T14:01:44Z</time></trkpt><trkpt lat="45.929262053365804" lon="11.109308584837231"><ele>385.3333333333333</ele><time>2026-05-02T14:01:45Z</time></trkpt><trkpt lat="45.92917721214451" lon="11.109140842729984"><ele>363.66666666666663</ele><time>2026-05-02T14:01:46Z</time></trkpt><trkpt lat="45.929074856681844" lon="11.108952105142457"><ele>342.0</ele><time>2026-05-02T14:01:47Z</time></trkpt><trkpt lat="45.928969860682486" lon="11.108751837676012"><ele>342.0</ele><time>2026-05-02T14:01:48Z</time></trkpt><trkpt lat="45.9288521385106" lon="11.108617395751974"><ele>342.0</ele><time>2026-05-02T14:01:49Z</time></trkpt><trkpt lat="45.92874812598594" lon="11.108471946403418"><ele>342.0</ele><time>2026-05-02T14:01:50Z</time></trkpt><trkpt lat="45.92865101368078" lon="11.108338263414911"><ele>342.0</ele><time>2026-05-02T14:01:51Z</time></trkpt><trkpt lat="45.9285684207062" lon="11.108215989754575"><ele>337.8</ele><time>2026-05-02T14:01:52Z</time></trkpt><trkpt lat="45.92850655803929" lon="11.108073943097045"><ele>333.6</ele><time>2026-05-02T14:01:53Z</time></trkpt><trkpt lat="45.9284815116306" lon="11.107917187343435"><ele>329.40000000000003</ele><time>2026-05-02T14:01:54Z</time></trkpt><trkpt lat="45.92849663306985" lon="11.107759852891068"><ele>325.20000000000005</ele><time>2026-05-02T14:01:55Z</time></trkpt><trkpt lat="45.928534985429636" lon="11.107616611818447"><ele>321.0</ele><time>2026-05-02T14:01:56Z</time></trkpt><trkpt lat="45.92861184506696" lon="11.107461644685403"><ele>308.3333333333333</ele><time>2026-05-02T14:01:57Z</time></trkpt><trkpt lat="45.92872191419764" lon="11.107299871046077"><ele>295.66666666666663</ele><time>2026-05-02T14:01:58Z</time></trkpt><trkpt lat="45.92880984339527" lon="11.10711707470619"><ele>283.0</ele><time>2026-05-02T14:01:59Z</time></trkpt><trkpt lat="45.928886914229366" lon="11.106908741629166"><ele>283.0</ele><time>2026-05-02T14:02:00Z</time></trkpt><trkpt lat="45.92897419436045" lon="11.106715695040123"><ele>283.0</ele><time>2026-05-02T14:02:01Z</time></trkpt><trkpt lat="45.92905837405259" lon="11.106531926091554"><ele>283.0</ele><time>2026-05-02T14:02:02Z</time></trkpt><trkpt lat="45.929135501933274" lon="11.106352938126895"><ele>281.75</ele><time>2026-05-02T14:02:03Z</time></trkpt><trkpt lat="45.929221447262115" lon="11.10620254439372"><ele>280.5</ele><time>2026-05-02T14:02:04Z</time></trkpt><trkpt lat="45.92930488636316" lon="11.10607555862581"><ele>279.25</ele><time>2026-05-02T14:02:05Z</time></trkpt><trkpt lat="45.92937151178108" lon="11.105911076244084"><ele>278.0</ele><time>2026-05-02T14:02:06Z</time></trkpt><trkpt lat="45.92942247389901" lon="11.105719902137926"><ele>278.0</ele><time>2026-05-02T14:02:07Z</time></trkpt><trkpt lat="45.9294394512028" lon="11.105515958802123"><ele>278.0</ele><time>2026-05-02T14:02:08Z</time></trkpt><trkpt lat="45.929450515249485" lon="11.105316663947923"><ele>278.0</ele><time>2026-05-02T14:02:09Z</time></trkpt><trkpt lat="45.92944145563083" lon="11.10511197500838"><ele>278.0</ele><time>2026-05-02T14:02:10Z</time></trkpt><trkpt lat="45.9293899250857" lon="11.104920401843053"><ele>271.25</ele><time>2026-05-02T14:02:11Z</time></trkpt><trkpt lat="45.929321064517204" lon="11.10474299999041"><ele>264.5</ele><time>2026-05-02T14:02:12Z</time></trkpt><trkpt lat="45.929271412464395" lon="11.104546153333507"><ele>257.75</ele><time>2026-05-02T14:02:13Z</time></trkpt><trkpt lat="45.92926302828475" lon="11.104343910326959"><ele>251.0</ele><time>2026-05-02T14:02:14Z</time></trkpt><trkpt lat="45.92925983843329" lon="11.104190278102088"><ele>247.0</ele><time>2026-05-02T14:02:15Z</time></trkpt><trkpt lat="45.929270987652465" lon="11.104055479913136"><ele>243.00000000000003</ele><time>2026-05-02T14:02:16Z</time></trkpt><trkpt lat="45.929331693094" lon="11.103946725666894"><ele>239.00000000000003</ele><time>2026-05-02T14:02:17Z</time></trkpt><trkpt lat="45.92942301386958" lon="11.103890960008066"><ele>235.0</ele><time>2026-05-02T14:02:18Z</time></trkpt><trkpt lat="45.92952743332043" lon="11.10389833445617"><ele>231.0</ele><time>2026-05-02T14:02:19Z</time></trkpt><trkpt lat="45.929637472073864" lon="11.103950704390545"><ele>231.0</ele><time>2026-05-02T14:02:20Z</time></trkpt><trkpt lat="45.92973376840368" lon="11.104000817906986"><ele>231.0</ele><time>2026-05-02T14:02:21Z</time></trkpt><trkpt lat="45.9298273452919" lon="11.104032278372502"><ele>231.0</ele><time>2026-05-02T14:02:21.999Z</time></trkpt><trkpt lat="45.92991362027119" lon="11.10404707306323"><ele>231.0</ele><time>2026-05-02T14:02:22.999Z</time></trkpt><trkpt lat="45.92999214318976" lon="11.104028456651081"><ele>231.0</ele><time>2026-05-02T14:02:23.999Z</time></trkpt><trkpt lat="45.93005028355515" lon="11.103975112482715"><ele>231.0</ele><time>2026-05-02T14:02:24.999Z</time></trkpt><trkpt lat="45.9300758016553" lon="11.103866667751443"><ele>231.0</ele><time>2026-05-02T14:02:25.999Z</time></trkpt><trkpt lat="45.930054476462765" lon="11.103743895278988"><ele>231.00000000000003</ele><time>2026-05-02T14:02:26.999Z</time></trkpt><trkpt lat="45.929986674011005" lon="11.103647179246078"><ele>231.00000000000003</ele><time>2026-05-02T14:02:27.999Z</time></trkpt><trkpt lat="45.9298894248536" lon="11.103566865564792"><ele>231.0</ele><time>2026-05-02T14:02:28.999Z</time></trkpt><trkpt lat="45.92978955911561" lon="11.103494287576469"><ele>231.0</ele><time>2026-05-02T14:02:29.999Z</time></trkpt><trkpt lat="45.929710889031995" lon="11.103391003262947"><ele>230.0</ele><time>2026-05-02T14:02:30.999Z</time></trkpt><trkpt lat="45.929667017383835" lon="11.10323590089337"><ele>229.0</ele><time>2026-05-02T14:02:31.999Z</time></trkpt><trkpt lat="45.92964606424223" lon="11.103065629106545"><ele>228.0</ele><time>2026-05-02T14:02:32.999Z</time></trkpt><trkpt lat="45.92963400032626" lon="11.10290091616696"><ele>227.0</ele><time>2026-05-02T14:02:33.999Z</time></trkpt><trkpt lat="45.92964386467657" lon="11.102743786805474"><ele>227.0</ele><time>2026-05-02T14:02:34.999Z</time></trkpt><trkpt lat="45.92966954718923" lon="11.102590199328377"><ele>227.0</ele><time>2026-05-02T14:02:35.999Z</time></trkpt><trkpt lat="45.9297083539597" lon="11.10243947018873"><ele>227.0</ele><time>2026-05-02T14:02:36.999Z</time></trkpt><trkpt lat="45.92975585623307" lon="11.102298003214988"><ele>227.0</ele><time>2026-05-02T14:02:37.999Z</time></trkpt><trkpt lat="45.92981560555166" lon="11.102176356569162"><ele>227.0</ele><time>2026-05-02T14:02:38.999Z</time></trkpt><trkpt lat="45.92988793946361" lon="11.10206434032415"><ele>226.25</ele><time>2026-05-02T14:02:39.999Z</time></trkpt><trkpt lat="45.92998353561345" lon="11.101964048754649"><ele>225.5</ele><time>2026-05-02T14:02:40.999Z</time></trkpt><trkpt lat="45.93010250094559" lon="11.101880292255306"><ele>224.75</ele><time>2026-05-02T14:02:41.999Z</time></trkpt><trkpt lat="45.93023844989625" lon="11.101782298702508"><ele>224.0</ele><time>2026-05-02T14:02:42.999Z</time></trkpt><trkpt lat="45.93038052750875" lon="11.101666058366938"><ele>221.0</ele><time>2026-05-02T14:02:43.999Z</time></trkpt><trkpt lat="45.93052305737725" lon="11.101553605630631"><ele>218.0</ele><time>2026-05-02T14:02:44.999Z</time></trkpt><trkpt lat="45.930658009314854" lon="11.101450337848929"><ele>215.0</ele><time>2026-05-02T14:02:45.999Z</time></trkpt><trkpt lat="45.93077905743534" lon="11.101322636901257"><ele>215.0</ele><time>2026-05-02T14:02:46.999Z</time></trkpt><trkpt lat="45.93088599998855" lon="11.101180728219658"><ele>215.0</ele><time>2026-05-02T14:02:47.999Z</time></trkpt><trkpt lat="45.93097316143631" lon="11.101041494305086"><ele>215.0</ele><time>2026-05-02T14:02:48.999Z</time></trkpt><trkpt lat="45.931040494185496" lon="11.100905634859249"><ele>215.0</ele><time>2026-05-02T14:02:49.999Z</time></trkpt><trkpt lat="45.9311007211094" lon="11.100760064255216"><ele>213.75</ele><time>2026-05-02T14:02:50.999Z</time></trkpt><trkpt lat="45.931156372775" lon="11.100607474586164"><ele>212.5</ele><time>2026-05-02T14:02:51.999Z</time></trkpt><trkpt lat="45.93121538465355" lon="11.100462095406975"><ele>211.25</ele><time>2026-05-02T14:02:52.999Z</time></trkpt><trkpt lat="45.931276504527325" lon="11.100318469517811"><ele>210.0</ele><time>2026-05-02T14:02:53.999Z</time></trkpt><trkpt lat="45.93133447216507" lon="11.100173914983328"><ele>210.0</ele><time>2026-05-02T14:02:54.999Z</time></trkpt><trkpt lat="45.93139743413215" lon="11.100034947515583"><ele>210.0</ele><time>2026-05-02T14:02:55.999Z</time></trkpt><trkpt lat="45.93145823446099" lon="11.099895636653189"><ele>210.0</ele><time>2026-05-02T14:02:56.999Z</time></trkpt><trkpt lat="45.931514379784836" lon="11.099753334000342"><ele>210.0</ele><time>2026-05-02T14:02:57.999Z</time></trkpt><trkpt lat="45.93157713605156" lon="11.09961201721579"><ele>208.75</ele><time>2026-05-02T14:02:58.999Z</time></trkpt><trkpt lat="45.93164538413955" lon="11.0994488470791"><ele>207.5</ele><time>2026-05-02T14:02:59.999Z</time></trkpt><trkpt lat="45.93172348665512" lon="11.0992680574091"><ele>206.25</ele><time>2026-05-02T14:03:00.999Z</time></trkpt><trkpt lat="45.93180482512451" lon="11.09908077168942"><ele>205.0</ele><time>2026-05-02T14:03:01.999Z</time></trkpt><trkpt lat="45.93188803643093" lon="11.098884402218733"><ele>204.0</ele><time>2026-05-02T14:03:02.999Z</time></trkpt><trkpt lat="45.931968564320165" lon="11.098687714765926"><ele>203.0</ele><time>2026-05-02T14:03:03.999Z</time></trkpt><trkpt lat="45.93204790175961" lon="11.098507949129116"><ele>202.0</ele><time>2026-05-02T14:03:04.999Z</time></trkpt><trkpt lat="45.932121110416205" lon="11.098353129207267"><ele>201.0</ele><time>2026-05-02T14:03:05.999Z</time></trkpt><trkpt lat="45.932192773410016" lon="11.098211131932743"><ele>199.75</ele><time>2026-05-02T14:03:06.999Z</time></trkpt><trkpt lat="45.93227169819408" lon="11.098073393479037"><ele>198.5</ele><time>2026-05-02T14:03:07.999Z</time></trkpt><trkpt lat="45.93234877244819" lon="11.097938243951038"><ele>197.25</ele><time>2026-05-02T14:03:08.999Z</time></trkpt><trkpt lat="45.932424183144896" lon="11.097809032131787"><ele>196.0</ele><time>2026-05-02T14:03:09.999Z</time></trkpt><trkpt lat="45.932496448689626" lon="11.097685035263614"><ele>195.8</ele><time>2026-05-02T14:03:10.999Z</time></trkpt><trkpt lat="45.93256418954013" lon="11.09756300289909"><ele>195.60000000000002</ele><time>2026-05-02T14:03:11.999Z</time></trkpt><trkpt lat="45.93263336414947" lon="11.097442414418147"><ele>195.4</ele><time>2026-05-02T14:03:12.999Z</time></trkpt><trkpt lat="45.93270827122683" lon="11.097318441439507"><ele>195.2</ele><time>2026-05-02T14:03:13.999Z</time></trkpt><trkpt lat="45.93278248011589" lon="11.09719805985104"><ele>195.0</ele><time>2026-05-02T14:03:14.999Z</time></trkpt><trkpt lat="45.93285159828023" lon="11.09708345937215"><ele>195.0</ele><time>2026-05-02T14:03:15.999Z</time></trkpt><trkpt lat="45.932913720143176" lon="11.096973413701111"><ele>195.0</ele><time>2026-05-02T14:03:16.999Z</time></trkpt><trkpt lat="45.93297214491585" lon="11.096876198360405"><ele>195.0</ele><time>2026-05-02T14:03:17.999Z</time></trkpt><trkpt lat="45.93301693888257" lon="11.096800569473537"><ele>195.0</ele><time>2026-05-02T14:03:18.999Z</time></trkpt><trkpt lat="45.93306298477825" lon="11.096725962803502"><ele>195.0</ele><time>2026-05-02T14:03:19.999Z</time></trkpt><trkpt lat="45.93310753649632" lon="11.096654388812095"><ele>195.0</ele><time>2026-05-02T14:03:20.999Z</time></trkpt><trkpt lat="45.93319008116009" lon="11.096522534687287"><ele>194.4</ele><time>2026-05-02T14:03:22.999Z</time></trkpt><trkpt lat="45.93323499540635" lon="11.096455549384087"><ele>193.8</ele><time>2026-05-02T14:03:23.999Z</time></trkpt><trkpt lat="45.933319774975104" lon="11.096317613782409"><ele>193.2</ele><time>2026-05-02T14:03:25.999Z</time></trkpt><trkpt lat="45.93339311466204" lon="11.096187875345446"><ele>192.6</ele><time>2026-05-02T14:03:27.999Z</time></trkpt><trkpt lat="45.93346410445593" lon="11.096079522380714"><ele>192.0</ele><time>2026-05-02T14:03:29.999Z</time></trkpt><trkpt lat="45.93353080472192" lon="11.095994735927762"><ele>192.0</ele><time>2026-05-02T14:03:31.999Z</time></trkpt><trkpt lat="45.933574817251674" lon="11.095925811164866"><ele>192.0</ele><time>2026-05-02T14:03:33.999Z</time></trkpt><trkpt lat="45.93357570692947" lon="11.095812914698643"><ele>192.0</ele><time>2026-05-02T14:03:40.999Z</time></trkpt><trkpt lat="45.9334565180967" lon="11.095663536071333"><ele>192.0</ele><time>2026-05-02T14:03:43.999Z</time></trkpt><trkpt lat="45.93334746604044" lon="11.095606906137029"><ele>192.0</ele><time>2026-05-02T14:03:45.999Z</time></trkpt><trkpt lat="45.933284871568276" lon="11.095567701198762"><ele>191.8</ele><time>2026-05-02T14:03:46.999Z</time></trkpt><trkpt lat="45.93320451890738" lon="11.09553861041569"><ele>191.6</ele><time>2026-05-02T14:03:47.999Z</time></trkpt><trkpt lat="45.93311363352283" lon="11.095464932731154"><ele>191.4</ele><time>2026-05-02T14:03:48.999Z</time></trkpt><trkpt lat="45.93303341769453" lon="11.095394241835429"><ele>191.20000000000002</ele><time>2026-05-02T14:03:49.999Z</time></trkpt><trkpt lat="45.932953772248716" lon="11.095332320182415"><ele>191.0</ele><time>2026-05-02T14:03:50.999Z</time></trkpt><trkpt lat="45.93287445181727" lon="11.095271358781854"><ele>191.0</ele><time>2026-05-02T14:03:51.999Z</time></trkpt><trkpt lat="45.932797173143015" lon="11.095214432081258"><ele>191.0</ele><time>2026-05-02T14:03:52.999Z</time></trkpt><trkpt lat="45.932718800868905" lon="11.095160238281512"><ele>191.0</ele><time>2026-05-02T14:03:53.999Z</time></trkpt><trkpt lat="45.93264358217447" lon="11.095096529242413"><ele>191.0</ele><time>2026-05-02T14:03:54.999Z</time></trkpt><trkpt lat="45.93255575291119" lon="11.09502675874884"><ele>191.0</ele><time>2026-05-02T14:03:55.999Z</time></trkpt><trkpt lat="45.93245111050018" lon="11.094955239675242"><ele>190.8</ele><time>2026-05-02T14:03:56.999Z</time></trkpt><trkpt lat="45.93234991011731" lon="11.09487411401345"><ele>190.60000000000002</ele><time>2026-05-02T14:03:57.999Z</time></trkpt><trkpt lat="45.93225240663346" lon="11.094802022337849"><ele>190.4</ele><time>2026-05-02T14:03:58.999Z</time></trkpt><trkpt lat="45.93215980777086" lon="11.094735531687084"><ele>190.2</ele><time>2026-05-02T14:03:59.999Z</time></trkpt><trkpt lat="45.932061990566424" lon="11.094663986261532"><ele>190.0</ele><time>2026-05-02T14:04:00.999Z</time></trkpt><trkpt lat="45.93196202158915" lon="11.094588354171139"><ele>190.0</ele><time>2026-05-02T14:04:01.999Z</time></trkpt><trkpt lat="45.93186249685284" lon="11.09451372849263"><ele>190.0</ele><time>2026-05-02T14:04:02.999Z</time></trkpt><trkpt lat="45.93176164723843" lon="11.094439365678369"><ele>190.0</ele><time>2026-05-02T14:04:03.999Z</time></trkpt><trkpt lat="45.93166441710956" lon="11.094363136438178"><ele>190.0</ele><time>2026-05-02T14:04:04.999Z</time></trkpt><trkpt lat="45.93156765425604" lon="11.094289050471945"><ele>190.0</ele><time>2026-05-02T14:04:05.999Z</time></trkpt><trkpt lat="45.931470333710195" lon="11.094215017747977"><ele>190.25</ele><time>2026-05-02T14:04:06.999Z</time></trkpt><trkpt lat="45.931371495168" lon="11.094143835192583"><ele>190.5</ele><time>2026-05-02T14:04:07.999Z</time></trkpt><trkpt lat="45.93127107292695" lon="11.09406871962919"><ele>190.75</ele><time>2026-05-02T14:04:08.999Z</time></trkpt><trkpt lat="45.93117066468958" lon="11.093991946481495"><ele>191.0</ele><time>2026-05-02T14:04:09.999Z</time></trkpt><trkpt lat="45.93107232845628" lon="11.093913057765565"><ele>191.4</ele><time>2026-05-02T14:04:10.999Z</time></trkpt><trkpt lat="45.93097499629026" lon="11.093835881563834"><ele>191.8</ele><time>2026-05-02T14:04:11.999Z</time></trkpt><trkpt lat="45.93087959068439" lon="11.093762567391998"><ele>192.20000000000002</ele><time>2026-05-02T14:04:12.999Z</time></trkpt><trkpt lat="45.93079168883615" lon="11.093689713767281"><ele>192.60000000000002</ele><time>2026-05-02T14:04:13.999Z</time></trkpt><trkpt lat="45.93070187073925" lon="11.093619844824893"><ele>193.0</ele><time>2026-05-02T14:04:14.999Z</time></trkpt><trkpt lat="45.930605511190805" lon="11.093548684284295"><ele>194.0</ele><time>2026-05-02T14:04:15.999Z</time></trkpt><trkpt lat="45.9305046246336" lon="11.09347348309903"><ele>195.0</ele><time>2026-05-02T14:04:16.999Z</time></trkpt><trkpt lat="45.93039798480441" lon="11.093392732655818"><ele>196.0</ele><time>2026-05-02T14:04:17.999Z</time></trkpt><trkpt lat="45.93028882604798" lon="11.093321481384551"><ele>197.0</ele><time>2026-05-02T14:04:18.999Z</time></trkpt><trkpt lat="45.93019107403855" lon="11.093264477322808"><ele>196.8</ele><time>2026-05-02T14:04:19.999Z</time></trkpt><trkpt lat="45.93009727496731" lon="11.093211015120685"><ele>196.6</ele><time>2026-05-02T14:04:20.999Z</time></trkpt><trkpt lat="45.93000163894424" lon="11.093162637292371"><ele>196.4</ele><time>2026-05-02T14:04:21.999Z</time></trkpt><trkpt lat="45.929895873991015" lon="11.09312609551284"><ele>196.20000000000002</ele><time>2026-05-02T14:04:22.999Z</time></trkpt><trkpt lat="45.929779778821604" lon="11.093099001866078"><ele>196.0</ele><time>2026-05-02T14:04:23.999Z</time></trkpt><trkpt lat="45.92965520517737" lon="11.093082100686773"><ele>196.0</ele><time>2026-05-02T14:04:24.999Z</time></trkpt><trkpt lat="45.92952532613645" lon="11.093078006813416"><ele>196.0</ele><time>2026-05-02T14:04:25.999Z</time></trkpt><trkpt lat="45.92939550538116" lon="11.093078782263468"><ele>196.0</ele><time>2026-05-02T14:04:26.999Z</time></trkpt><trkpt lat="45.92926860580486" lon="11.093081990040542"><ele>196.0</ele><time>2026-05-02T14:04:27.999Z</time></trkpt><trkpt lat="45.92914442076568" lon="11.093083899303991"><ele>195.25</ele><time>2026-05-02T14:04:28.999Z</time></trkpt><trkpt lat="45.92902250872598" lon="11.093087887257168"><ele>194.5</ele><time>2026-05-02T14:04:29.999Z</time></trkpt><trkpt lat="45.92889410169869" lon="11.093090799694572"><ele>193.75</ele><time>2026-05-02T14:04:30.999Z</time></trkpt><trkpt lat="45.92876068903076" lon="11.093098429148986"><ele>193.0</ele><time>2026-05-02T14:04:31.999Z</time></trkpt><trkpt lat="45.928603925704394" lon="11.093105616725355"><ele>193.0</ele><time>2026-05-02T14:04:32.999Z</time></trkpt><trkpt lat="45.928428626540246" lon="11.09311104229415"><ele>193.0</ele><time>2026-05-02T14:04:33.999Z</time></trkpt><trkpt lat="45.92823631009293" lon="11.09312839164967"><ele>193.0</ele><time>2026-05-02T14:04:34.999Z</time></trkpt><trkpt lat="45.928017626777596" lon="11.09315161373132"><ele>191.0</ele><time>2026-05-02T14:04:35.999Z</time></trkpt><trkpt lat="45.92780518927918" lon="11.093154748561128"><ele>189.0</ele><time>2026-05-02T14:04:36.999Z</time></trkpt><trkpt lat="45.927606624491446" lon="11.093117321960003"><ele>187.0</ele><time>2026-05-02T14:04:37.999Z</time></trkpt><trkpt lat="45.92742849886083" lon="11.093123309126234"><ele>185.33333333333334</ele><time>2026-05-02T14:04:38.999Z</time></trkpt><trkpt lat="45.92726200115146" lon="11.093128905454794"><ele>183.66666666666666</ele><time>2026-05-02T14:04:39.999Z</time></trkpt><trkpt lat="45.92710943731722" lon="11.093133461861369"><ele>182.0</ele><time>2026-05-02T14:04:40.999Z</time></trkpt><trkpt lat="45.92695499558398" lon="11.093159609371543"><ele>182.0</ele><time>2026-05-02T14:04:41.999Z</time></trkpt><trkpt lat="45.92680042742531" lon="11.093165626048524"><ele>182.0</ele><time>2026-05-02T14:04:42.999Z</time></trkpt><trkpt lat="45.92664452726288" lon="11.093146251417224"><ele>182.0</ele><time>2026-05-02T14:04:43.999Z</time></trkpt><trkpt lat="45.926489089017814" lon="11.09315056595828"><ele>181.33333333333331</ele><time>2026-05-02T14:04:44.999Z</time></trkpt><trkpt lat="45.92633214033517" lon="11.093154922424667"><ele>180.66666666666666</ele><time>2026-05-02T14:04:45.999Z</time></trkpt><trkpt lat="45.92617564250003" lon="11.093159266377175"><ele>180.0</ele><time>2026-05-02T14:04:46.999Z</time></trkpt><trkpt lat="45.926013890780595" lon="11.093182671499882"><ele>179.33333333333334</ele><time>2026-05-02T14:04:47.999Z</time></trkpt><trkpt lat="45.92583893434685" lon="11.093175252496211"><ele>178.66666666666669</ele><time>2026-05-02T14:04:48.999Z</time></trkpt><trkpt lat="45.92565317504198" lon="11.093132090245632"><ele>178.0</ele><time>2026-05-02T14:04:49.999Z</time></trkpt><trkpt lat="45.925448993659664" lon="11.093103302683463"><ele>178.0</ele><time>2026-05-02T14:04:50.999Z</time></trkpt><trkpt lat="45.92523504952117" lon="11.093058750360033"><ele>178.0</ele><time>2026-05-02T14:04:51.999Z</time></trkpt><trkpt lat="45.92502879200999" lon="11.093006395981421"><ele>178.0</ele><time>2026-05-02T14:04:52.999Z</time></trkpt><trkpt lat="45.924828705274074" lon="11.09295217775552"><ele>178.66666666666669</ele><time>2026-05-02T14:04:53.999Z</time></trkpt><trkpt lat="45.92463521982467" lon="11.09289974830332"><ele>179.33333333333334</ele><time>2026-05-02T14:04:54.999Z</time></trkpt><trkpt lat="45.924446058798765" lon="11.092847478475893"><ele>180.0</ele><time>2026-05-02T14:04:55.999Z</time></trkpt><trkpt lat="45.92426767961206" lon="11.09279739092536"><ele>181.33333333333334</ele><time>2026-05-02T14:04:56.999Z</time></trkpt><trkpt lat="45.92409695894388" lon="11.092749425003149"><ele>182.66666666666669</ele><time>2026-05-02T14:04:57.999Z</time></trkpt><trkpt lat="45.923929437188725" lon="11.092725875575404"><ele>184.0</ele><time>2026-05-02T14:04:58.999Z</time></trkpt><trkpt lat="45.9237618221063" lon="11.092655467166434"><ele>184.0</ele><time>2026-05-02T14:04:59.999Z</time></trkpt><trkpt lat="45.923587634550756" lon="11.092627009100877"><ele>184.0</ele><time>2026-05-02T14:05:00.999Z</time></trkpt><trkpt lat="45.92342096903726" lon="11.092567126047841"><ele>184.0</ele><time>2026-05-02T14:05:01.999Z</time></trkpt><trkpt lat="45.923263631078456" lon="11.092501416901557"><ele>185.66666666666669</ele><time>2026-05-02T14:05:02.999Z</time></trkpt><trkpt lat="45.92310797846642" lon="11.092428270345783"><ele>187.33333333333334</ele><time>2026-05-02T14:05:03.999Z</time></trkpt><trkpt lat="45.922949080541905" lon="11.092346552965928"><ele>189.0</ele><time>2026-05-02T14:05:04.999Z</time></trkpt><trkpt lat="45.92278713732724" lon="11.092252217718158"><ele>187.66666666666666</ele><time>2026-05-02T14:05:05.999Z</time></trkpt><trkpt lat="45.92263007221034" lon="11.092146806579644"><ele>186.33333333333331</ele><time>2026-05-02T14:05:06.999Z</time></trkpt><trkpt lat="45.92247718141995" lon="11.092028379749634"><ele>185.0</ele><time>2026-05-02T14:05:07.999Z</time></trkpt><trkpt lat="45.92231705260904" lon="11.091900372179209"><ele>185.0</ele><time>2026-05-02T14:05:08.999Z</time></trkpt><trkpt lat="45.92214745727481" lon="11.0917111456033"><ele>185.0</ele><time>2026-05-02T14:05:09.999Z</time></trkpt><trkpt lat="45.921982461421216" lon="11.091539013740835"><ele>185.0</ele><time>2026-05-02T14:05:10.999Z</time></trkpt><trkpt lat="45.921813826369686" lon="11.091370954305969"><ele>183.66666666666666</ele><time>2026-05-02T14:05:11.999Z</time></trkpt><trkpt lat="45.92165848977323" lon="11.09117083130515"><ele>182.33333333333334</ele><time>2026-05-02T14:05:12.999Z</time></trkpt><trkpt lat="45.92152292823077" lon="11.090984193359514"><ele>181.0</ele><time>2026-05-02T14:05:13.999Z</time></trkpt><trkpt lat="45.92139687546863" lon="11.090806645388662"><ele>179.0</ele><time>2026-05-02T14:05:14.999Z</time></trkpt><trkpt lat="45.921269551222274" lon="11.090623868630827"><ele>177.0</ele><time>2026-05-02T14:05:15.999Z</time></trkpt><trkpt lat="45.92112273356801" lon="11.090407182126567"><ele>175.0</ele><time>2026-05-02T14:05:16.999Z</time></trkpt><trkpt lat="45.920990673111184" lon="11.090141988000006"><ele>176.0</ele><time>2026-05-02T14:05:17.999Z</time></trkpt><trkpt lat="45.92084356735985" lon="11.089847824497712"><ele>177.0</ele><time>2026-05-02T14:05:18.999Z</time></trkpt><trkpt lat="45.92067583775583" lon="11.089505980104434"><ele>177.0</ele><time>2026-05-02T14:05:19.999Z</time></trkpt><trkpt lat="45.92051227083746" lon="11.08917385306937"><ele>177.0</ele><time>2026-05-02T14:05:20.999Z</time></trkpt><trkpt lat="45.92036370590083" lon="11.088861585959997"><ele>176.0</ele><time>2026-05-02T14:05:21.999Z</time></trkpt><trkpt lat="45.92023288935524" lon="11.088547915491356"><ele>175.0</ele><time>2026-05-02T14:05:22.999Z</time></trkpt><trkpt lat="45.9201148794699" lon="11.088202920069994"><ele>176.0</ele><time>2026-05-02T14:05:23.999Z</time></trkpt><trkpt lat="45.91999106552702" lon="11.087843648587587"><ele>177.0</ele><time>2026-05-02T14:05:24.999Z</time></trkpt><trkpt lat="45.91988247065514" lon="11.087528970123286"><ele>176.33333333333334</ele><time>2026-05-02T14:05:25.999Z</time></trkpt><trkpt lat="45.91979434303368" lon="11.087260203127716"><ele>175.66666666666669</ele><time>2026-05-02T14:05:26.999Z</time></trkpt><trkpt lat="45.919712686534645" lon="11.086991235909887"><ele>175.0</ele><time>2026-05-02T14:05:27.999Z</time></trkpt><trkpt lat="45.9196527631088" lon="11.086684361609011"><ele>175.0</ele><time>2026-05-02T14:05:28.999Z</time></trkpt><trkpt lat="45.919591385541274" lon="11.08636680196648"><ele>175.0</ele><time>2026-05-02T14:05:29.999Z</time></trkpt><trkpt lat="45.91954207678604" lon="11.086061546367494"><ele>175.0</ele><time>2026-05-02T14:05:30.999Z</time></trkpt><trkpt lat="45.91950202844926" lon="11.085760185941236"><ele>175.33333333333334</ele><time>2026-05-02T14:05:31.999Z</time></trkpt><trkpt lat="45.919465789465235" lon="11.085466897957927"><ele>175.66666666666666</ele><time>2026-05-02T14:05:32.999Z</time></trkpt><trkpt lat="45.919429926309924" lon="11.085193853291765"><ele>176.0</ele><time>2026-05-02T14:05:33.999Z</time></trkpt><trkpt lat="45.91939441606851" lon="11.08493649395317"><ele>176.0</ele><time>2026-05-02T14:05:34.999Z</time></trkpt><trkpt lat="45.91935936998622" lon="11.084694877113698"><ele>176.0</ele><time>2026-05-02T14:05:35.999Z</time></trkpt><trkpt lat="45.91932734061834" lon="11.08446735957548"><ele>176.0</ele><time>2026-05-02T14:05:36.999Z</time></trkpt><trkpt lat="45.91929603172528" lon="11.084232881015692"><ele>176.0</ele><time>2026-05-02T14:05:37.999Z</time></trkpt><trkpt lat="45.91926446343275" lon="11.084004704966045"><ele>176.0</ele><time>2026-05-02T14:05:38.999Z</time></trkpt><trkpt lat="45.91922954085284" lon="11.083775395647107"><ele>176.0</ele><time>2026-05-02T14:05:39.999Z</time></trkpt><trkpt lat="45.91919696900398" lon="11.083525762097356"><ele>175.66666666666666</ele><time>2026-05-02T14:05:40.999Z</time></trkpt><trkpt lat="45.9191302180552" lon="11.083234498056388"><ele>175.33333333333334</ele><time>2026-05-02T14:05:41.999Z</time></trkpt><trkpt lat="45.91904078697917" lon="11.082936755774224"><ele>175.0</ele><time>2026-05-02T14:05:42.999Z</time></trkpt><trkpt lat="45.918959265509685" lon="11.082674182450035"><ele>175.0</ele><time>2026-05-02T14:05:43.999Z</time></trkpt><trkpt lat="45.918887749346375" lon="11.08244383533081"><ele>175.0</ele><time>2026-05-02T14:05:44.999Z</time></trkpt><trkpt lat="45.91881086084583" lon="11.082228628438013"><ele>175.0</ele><time>2026-05-02T14:05:45.999Z</time></trkpt><trkpt lat="45.91874957916117" lon="11.082017323924799"><ele>175.0</ele><time>2026-05-02T14:05:46.999Z</time></trkpt><trkpt lat="45.91868506178956" lon="11.081803473857711"><ele>175.0</ele><time>2026-05-02T14:05:47.999Z</time></trkpt><trkpt lat="45.918619022463986" lon="11.081588452769191"><ele>175.0</ele><time>2026-05-02T14:05:48.999Z</time></trkpt><trkpt lat="45.91855109711655" lon="11.08136987746331"><ele>175.66666666666669</ele><time>2026-05-02T14:05:49.999Z</time></trkpt><trkpt lat="45.918482276838546" lon="11.08114824979715"><ele>176.33333333333334</ele><time>2026-05-02T14:05:50.999Z</time></trkpt><trkpt lat="45.91841764128328" lon="11.080936604769272"><ele>177.0</ele><time>2026-05-02T14:05:51.999Z</time></trkpt><trkpt lat="45.91834899736114" lon="11.080718848427622"><ele>177.33333333333334</ele><time>2026-05-02T14:05:52.999Z</time></trkpt><trkpt lat="45.91827495361701" lon="11.080491582139743"><ele>177.66666666666669</ele><time>2026-05-02T14:05:53.999Z</time></trkpt><trkpt lat="45.91819138446209" lon="11.080245290896704"><ele>178.0</ele><time>2026-05-02T14:05:54.999Z</time></trkpt><trkpt lat="45.91811640794179" lon="11.079988665598997"><ele>178.0</ele><time>2026-05-02T14:05:55.999Z</time></trkpt><trkpt lat="45.91806013085171" lon="11.079723474538607"><ele>178.0</ele><time>2026-05-02T14:05:56.999Z</time></trkpt><trkpt lat="45.91801923749682" lon="11.07945311458263"><ele>178.0</ele><time>2026-05-02T14:05:57.999Z</time></trkpt><trkpt lat="45.91799670759073" lon="11.079183456987153"><ele>177.33333333333334</ele><time>2026-05-02T14:05:58.999Z</time></trkpt><trkpt lat="45.91798458024877" lon="11.078913725096557"><ele>176.66666666666666</ele><time>2026-05-02T14:05:59.999Z</time></trkpt><trkpt lat="45.91798449069484" lon="11.07865249391543"><ele>176.0</ele><time>2026-05-02T14:06:00.999Z</time></trkpt><trkpt lat="45.91799234031708" lon="11.078393747532436"><ele>175.66666666666666</ele><time>2026-05-02T14:06:01.999Z</time></trkpt><trkpt lat="45.918001834305464" lon="11.078134457189758"><ele>175.33333333333334</ele><time>2026-05-02T14:06:02.999Z</time></trkpt><trkpt lat="45.91801000008471" lon="11.077874590013188"><ele>175.0</ele><time>2026-05-02T14:06:03.999Z</time></trkpt><trkpt lat="45.918018231041096" lon="11.077612318602984"><ele>175.33333333333334</ele><time>2026-05-02T14:06:04.999Z</time></trkpt><trkpt lat="45.91802451034327" lon="11.077367189509843"><ele>175.66666666666666</ele><time>2026-05-02T14:06:05.999Z</time></trkpt><trkpt lat="45.918029125535426" lon="11.077135815393333"><ele>176.0</ele><time>2026-05-02T14:06:06.999Z</time></trkpt><trkpt lat="45.91803215255864" lon="11.07689614026462"><ele>176.0</ele><time>2026-05-02T14:06:07.999Z</time></trkpt><trkpt lat="45.91803534103703" lon="11.076656917983295"><ele>176.0</ele><time>2026-05-02T14:06:08.999Z</time></trkpt><trkpt lat="45.91803759486301" lon="11.076428327360933"><ele>176.0</ele><time>2026-05-02T14:06:09.999Z</time></trkpt><trkpt lat="45.918035217360575" lon="11.076218836649485"><ele>175.75</ele><time>2026-05-02T14:06:10.999Z</time></trkpt><trkpt lat="45.91803122158414" lon="11.076010913897782"><ele>175.5</ele><time>2026-05-02T14:06:11.999Z</time></trkpt><trkpt lat="45.918022462997754" lon="11.075798364481416"><ele>175.25</ele><time>2026-05-02T14:06:12.999Z</time></trkpt><trkpt lat="45.91800369346411" lon="11.075586219607919"><ele>175.0</ele><time>2026-05-02T14:06:13.999Z</time></trkpt><trkpt lat="45.91797644653225" lon="11.075376092049998"><ele>175.0</ele><time>2026-05-02T14:06:14.999Z</time></trkpt><trkpt lat="45.91793891489242" lon="11.07515781199376"><ele>175.0</ele><time>2026-05-02T14:06:15.999Z</time></trkpt><trkpt lat="45.91788797277286" lon="11.074939008540117"><ele>175.0</ele><time>2026-05-02T14:06:16.999Z</time></trkpt><trkpt lat="45.91783096422187" lon="11.074737064805854"><ele>175.0</ele><time>2026-05-02T14:06:17.999Z</time></trkpt><trkpt lat="45.91776219749603" lon="11.074560626022272"><ele>175.0</ele><time>2026-05-02T14:06:18.999Z</time></trkpt><trkpt lat="45.91768659905547" lon="11.074391911102456"><ele>175.0</ele><time>2026-05-02T14:06:19.999Z</time></trkpt><trkpt lat="45.91761318598189" lon="11.074234917221908"><ele>175.0</ele><time>2026-05-02T14:06:20.999Z</time></trkpt><trkpt lat="45.91753830523489" lon="11.074091732973821"><ele>175.0</ele><time>2026-05-02T14:06:21.999Z</time></trkpt><trkpt lat="45.91746922837677" lon="11.073961146484582"><ele>175.0</ele><time>2026-05-02T14:06:22.999Z</time></trkpt><trkpt lat="45.917397640077624" lon="11.073810848313137"><ele>175.0</ele><time>2026-05-02T14:06:23.999Z</time></trkpt><trkpt lat="45.91732922475975" lon="11.073644735789063"><ele>175.0</ele><time>2026-05-02T14:06:24.999Z</time></trkpt><trkpt lat="45.91727196420184" lon="11.07346236471148"><ele>175.0</ele><time>2026-05-02T14:06:25.999Z</time></trkpt><trkpt lat="45.91722489088531" lon="11.073280057794523"><ele>175.0</ele><time>2026-05-02T14:06:26.999Z</time></trkpt><trkpt lat="45.91719218411193" lon="11.073101703891899"><ele>175.0</ele><time>2026-05-02T14:06:27.999Z</time></trkpt><trkpt lat="45.91717222371886" lon="11.072915097087611"><ele>175.0</ele><time>2026-05-02T14:06:28.999Z</time></trkpt><trkpt lat="45.917164925984245" lon="11.072723361292761"><ele>174.75</ele><time>2026-05-02T14:06:29.999Z</time></trkpt><trkpt lat="45.91716606732654" lon="11.072528697975974"><ele>174.5</ele><time>2026-05-02T14:06:30.999Z</time></trkpt><trkpt lat="45.91716814322054" lon="11.07232310935654"><ele>174.25</ele><time>2026-05-02T14:06:31.999Z</time></trkpt><trkpt lat="45.917170106427065" lon="11.072110628053478"><ele>174.0</ele><time>2026-05-02T14:06:32.999Z</time></trkpt><trkpt lat="45.9171732692139" lon="11.071891980349264"><ele>174.0</ele><time>2026-05-02T14:06:33.999Z</time></trkpt><trkpt lat="45.91717752147659" lon="11.071677603666135"><ele>174.0</ele><time>2026-05-02T14:06:34.999Z</time></trkpt><trkpt lat="45.91718698117324" lon="11.071474011384705"><ele>174.0</ele><time>2026-05-02T14:06:35.999Z</time></trkpt><trkpt lat="45.91720976253017" lon="11.07127587017341"><ele>174.0</ele><time>2026-05-02T14:06:36.999Z</time></trkpt><trkpt lat="45.91723986204078" lon="11.07107993260625"><ele>174.0</ele><time>2026-05-02T14:06:37.999Z</time></trkpt><trkpt lat="45.91727350903489" lon="11.070884287528433"><ele>174.0</ele><time>2026-05-02T14:06:38.999Z</time></trkpt><trkpt lat="45.91731154677929" lon="11.070690765139744"><ele>174.0</ele><time>2026-05-02T14:06:39.999Z</time></trkpt><trkpt lat="45.917350387070094" lon="11.070492698120706"><ele>174.0</ele><time>2026-05-02T14:06:40.999Z</time></trkpt><trkpt lat="45.91738710682664" lon="11.07029380249423"><ele>174.0</ele><time>2026-05-02T14:06:41.999Z</time></trkpt><trkpt lat="45.91742555358375" lon="11.070093516740625"><ele>174.0</ele><time>2026-05-02T14:06:42.999Z</time></trkpt><trkpt lat="45.917466231149945" lon="11.06989583349722"><ele>174.0</ele><time>2026-05-02T14:06:43.999Z</time></trkpt><trkpt lat="45.91750440038394" lon="11.06970064271281"><ele>174.0</ele><time>2026-05-02T14:06:44.999Z</time></trkpt><trkpt lat="45.91754270628449" lon="11.069509882476016"><ele>174.25</ele><time>2026-05-02T14:06:45.999Z</time></trkpt><trkpt lat="45.91757857005432" lon="11.069323052547208"><ele>174.5</ele><time>2026-05-02T14:06:46.999Z</time></trkpt><trkpt lat="45.91761297411302" lon="11.069142699542326"><ele>174.75</ele><time>2026-05-02T14:06:47.999Z</time></trkpt><trkpt lat="45.917644687973" lon="11.068975422334022"><ele>175.0</ele><time>2026-05-02T14:06:48.999Z</time></trkpt><trkpt lat="45.917676293109" lon="11.068820384385566"><ele>175.2</ele><time>2026-05-02T14:06:49.999Z</time></trkpt><trkpt lat="45.917705663012555" lon="11.068671258891005"><ele>175.4</ele><time>2026-05-02T14:06:50.999Z</time></trkpt><trkpt lat="45.917734838916274" lon="11.068523133169956"><ele>175.60000000000002</ele><time>2026-05-02T14:06:51.999Z</time></trkpt><trkpt lat="45.917765413320545" lon="11.068368865887656"><ele>175.8</ele><time>2026-05-02T14:06:52.999Z</time></trkpt><trkpt lat="45.91779660746786" lon="11.068201932776464"><ele>176.0</ele><time>2026-05-02T14:06:53.999Z</time></trkpt><trkpt lat="45.917829621423536" lon="11.06802418101101"><ele>176.5</ele><time>2026-05-02T14:06:54.999Z</time></trkpt><trkpt lat="45.91785770591859" lon="11.067847358645983"><ele>177.0</ele><time>2026-05-02T14:06:55.999Z</time></trkpt><trkpt lat="45.91788508803415" lon="11.06767413157626"><ele>177.5</ele><time>2026-05-02T14:06:56.999Z</time></trkpt><trkpt lat="45.91791235730973" lon="11.067502570295138"><ele>178.0</ele><time>2026-05-02T14:06:57.999Z</time></trkpt><trkpt lat="45.91794368840788" lon="11.06733123045726"><ele>178.25</ele><time>2026-05-02T14:06:58.999Z</time></trkpt><trkpt lat="45.91797493690049" lon="11.067159543506033"><ele>178.5</ele><time>2026-05-02T14:06:59.999Z</time></trkpt><trkpt lat="45.91800652379196" lon="11.06698771356965"><ele>178.75</ele><time>2026-05-02T14:07:00.999Z</time></trkpt><trkpt lat="45.918037085111536" lon="11.066812372179873"><ele>179.0</ele><time>2026-05-02T14:07:01.999Z</time></trkpt><trkpt lat="45.91805262337095" lon="11.0666331103837"><ele>180.0</ele><time>2026-05-02T14:07:02.999Z</time></trkpt><trkpt lat="45.91806103632153" lon="11.066451853312133"><ele>181.0</ele><time>2026-05-02T14:07:03.999Z</time></trkpt><trkpt lat="45.91805617500905" lon="11.066267122541385"><ele>182.0</ele><time>2026-05-02T14:07:04.999Z</time></trkpt><trkpt lat="45.91805078401807" lon="11.066077015568608"><ele>183.0</ele><time>2026-05-02T14:07:05.999Z</time></trkpt><trkpt lat="45.918036964807285" lon="11.065884177350146"><ele>183.25</ele><time>2026-05-02T14:07:06.999Z</time></trkpt><trkpt lat="45.9180220238325" lon="11.06570635284929"><ele>183.5</ele><time>2026-05-02T14:07:07.999Z</time></trkpt><trkpt lat="45.91800991078181" lon="11.065536039171754"><ele>183.75</ele><time>2026-05-02T14:07:08.999Z</time></trkpt><trkpt lat="45.91799492774733" lon="11.065376823415653"><ele>184.0</ele><time>2026-05-02T14:07:09.999Z</time></trkpt><trkpt lat="45.91798051581198" lon="11.065214264704027"><ele>184.0</ele><time>2026-05-02T14:07:10.999Z</time></trkpt><trkpt lat="45.9179658804961" lon="11.065046721495357"><ele>184.0</ele><time>2026-05-02T14:07:11.999Z</time></trkpt><trkpt lat="45.917950612288365" lon="11.064874722461099"><ele>184.0</ele><time>2026-05-02T14:07:12.999Z</time></trkpt><trkpt lat="45.91793524525168" lon="11.064695582244473"><ele>184.0</ele><time>2026-05-02T14:07:13.999Z</time></trkpt><trkpt lat="45.917922550882786" lon="11.064511046833358"><ele>184.0</ele><time>2026-05-02T14:07:14.999Z</time></trkpt><trkpt lat="45.917911358984234" lon="11.064325387857041"><ele>184.0</ele><time>2026-05-02T14:07:15.999Z</time></trkpt><trkpt lat="45.91789948334184" lon="11.06414103595144"><ele>184.0</ele><time>2026-05-02T14:07:16.999Z</time></trkpt><trkpt lat="45.91788537196145" lon="11.063959593954701"><ele>184.0</ele><time>2026-05-02T14:07:17.999Z</time></trkpt><trkpt lat="45.917867250983775" lon="11.063780158944837"><ele>184.0</ele><time>2026-05-02T14:07:18.999Z</time></trkpt><trkpt lat="45.91784519444521" lon="11.063598769551502"><ele>184.0</ele><time>2026-05-02T14:07:19.999Z</time></trkpt><trkpt lat="45.9178192179904" lon="11.063418010986695"><ele>184.0</ele><time>2026-05-02T14:07:20.999Z</time></trkpt><trkpt lat="45.91778854753505" lon="11.06323767662961"><ele>184.0</ele><time>2026-05-02T14:07:21.999Z</time></trkpt><trkpt lat="45.91775152547602" lon="11.06305850223019"><ele>184.0</ele><time>2026-05-02T14:07:22.999Z</time></trkpt><trkpt lat="45.917713551820405" lon="11.062878994872236"><ele>184.0</ele><time>2026-05-02T14:07:23.999Z</time></trkpt><trkpt lat="45.91766808961687" lon="11.062700242624246"><ele>184.0</ele><time>2026-05-02T14:07:24.999Z</time></trkpt><trkpt lat="45.917619419183694" lon="11.062521683776149"><ele>184.0</ele><time>2026-05-02T14:07:25.999Z</time></trkpt><trkpt lat="45.91757521301692" lon="11.06234216405062"><ele>184.5</ele><time>2026-05-02T14:07:26.999Z</time></trkpt><trkpt lat="45.91753353519295" lon="11.062160880664997"><ele>185.0</ele><time>2026-05-02T14:07:27.999Z</time></trkpt><trkpt lat="45.917496336218285" lon="11.06197733333473"><ele>185.5</ele><time>2026-05-02T14:07:28.999Z</time></trkpt><trkpt lat="45.91746132548453" lon="11.061799700247201"><ele>186.0</ele><time>2026-05-02T14:07:29.999Z</time></trkpt><trkpt lat="45.91743062548831" lon="11.06163148906393"><ele>185.8</ele><time>2026-05-02T14:07:30.999Z</time></trkpt><trkpt lat="45.91740187205743" lon="11.061476591456596"><ele>185.60000000000002</ele><time>2026-05-02T14:07:31.999Z</time></trkpt><trkpt lat="45.9173795850769" lon="11.0613218963115"><ele>185.4</ele><time>2026-05-02T14:07:32.999Z</time></trkpt><trkpt lat="45.91735642932095" lon="11.06116934311132"><ele>185.2</ele><time>2026-05-02T14:07:33.999Z</time></trkpt><trkpt lat="45.9173453537946" lon="11.061004569402607"><ele>185.0</ele><time>2026-05-02T14:07:34.999Z</time></trkpt><trkpt lat="45.91733146530105" lon="11.060836789561211"><ele>185.25</ele><time>2026-05-02T14:07:35.999Z</time></trkpt><trkpt lat="45.917319813694476" lon="11.060663482193782"><ele>185.5</ele><time>2026-05-02T14:07:36.999Z</time></trkpt><trkpt lat="45.917307553387374" lon="11.060486478556172"><ele>185.75</ele><time>2026-05-02T14:07:37.999Z</time></trkpt><trkpt lat="45.91730294120655" lon="11.0603029631448"><ele>186.0</ele><time>2026-05-02T14:07:38.999Z</time></trkpt><trkpt lat="45.91729887054016" lon="11.06011472943528"><ele>186.25</ele><time>2026-05-02T14:07:39.999Z</time></trkpt><trkpt lat="45.91729783614681" lon="11.059922160290663"><ele>186.5</ele><time>2026-05-02T14:07:40.999Z</time></trkpt><trkpt lat="45.91729787681035" lon="11.059724000058557"><ele>186.75</ele><time>2026-05-02T14:07:41.999Z</time></trkpt><trkpt lat="45.91729753451007" lon="11.059527134269405"><ele>187.0</ele><time>2026-05-02T14:07:42.999Z</time></trkpt><trkpt lat="45.91729693593178" lon="11.059328853202729"><ele>187.0</ele><time>2026-05-02T14:07:43.999Z</time></trkpt><trkpt lat="45.917296183270246" lon="11.05913171295605"><ele>187.0</ele><time>2026-05-02T14:07:44.999Z</time></trkpt><trkpt lat="45.917294102272024" lon="11.058932558853291"><ele>187.0</ele><time>2026-05-02T14:07:45.999Z</time></trkpt><trkpt lat="45.917291538863324" lon="11.05873089732816"><ele>187.0</ele><time>2026-05-02T14:07:46.999Z</time></trkpt><trkpt lat="45.91728950415614" lon="11.058528695540273"><ele>187.0</ele><time>2026-05-02T14:07:47.999Z</time></trkpt><trkpt lat="45.917286809657945" lon="11.058323990991301"><ele>187.0</ele><time>2026-05-02T14:07:48.999Z</time></trkpt><trkpt lat="45.91728567251486" lon="11.058109236967963"><ele>187.0</ele><time>2026-05-02T14:07:49.999Z</time></trkpt><trkpt lat="45.91728403782045" lon="11.057883274603412"><ele>187.0</ele><time>2026-05-02T14:07:50.999Z</time></trkpt><trkpt lat="45.917286527941215" lon="11.057646586024834"><ele>186.33333333333334</ele><time>2026-05-02T14:07:51.999Z</time></trkpt><trkpt lat="45.91728513464753" lon="11.05740288820087"><ele>185.66666666666666</ele><time>2026-05-02T14:07:52.999Z</time></trkpt><trkpt lat="45.91728578214816" lon="11.057160147199214"><ele>185.0</ele><time>2026-05-02T14:07:53.999Z</time></trkpt><trkpt lat="45.91728538560784" lon="11.056915419001987"><ele>185.0</ele><time>2026-05-02T14:07:54.999Z</time></trkpt><trkpt lat="45.917278916786664" lon="11.056674351388436"><ele>185.0</ele><time>2026-05-02T14:07:55.999Z</time></trkpt><trkpt lat="45.91726672138938" lon="11.056435987513595"><ele>185.0</ele><time>2026-05-02T14:07:56.999Z</time></trkpt><trkpt lat="45.9172501682125" lon="11.056196562119334"><ele>185.0</ele><time>2026-05-02T14:07:57.999Z</time></trkpt><trkpt lat="45.91723326158286" lon="11.055955362169149"><ele>185.0</ele><time>2026-05-02T14:07:58.999Z</time></trkpt><trkpt lat="45.91721728934481" lon="11.055711493248937"><ele>185.0</ele><time>2026-05-02T14:07:59.999Z</time></trkpt><trkpt lat="45.91720254049016" lon="11.055466949744899"><ele>185.0</ele><time>2026-05-02T14:08:00.999Z</time></trkpt><trkpt lat="45.917189126890186" lon="11.055224084366913"><ele>185.0</ele><time>2026-05-02T14:08:01.999Z</time></trkpt><trkpt lat="45.91717317100149" lon="11.054991482883322"><ele>185.0</ele><time>2026-05-02T14:08:02.999Z</time></trkpt><trkpt lat="45.917157288414295" lon="11.054775264897982"><ele>185.0</ele><time>2026-05-02T14:08:03.999Z</time></trkpt><trkpt lat="45.91714226104745" lon="11.054574512648138"><ele>185.0</ele><time>2026-05-02T14:08:04.999Z</time></trkpt><trkpt lat="45.91712871662694" lon="11.054388139898109"><ele>185.0</ele><time>2026-05-02T14:08:05.999Z</time></trkpt><trkpt lat="45.917116844136295" lon="11.054203765791348"><ele>185.0</ele><time>2026-05-02T14:08:06.999Z</time></trkpt><trkpt lat="45.91710784371775" lon="11.054021662605916"><ele>185.25</ele><time>2026-05-02T14:08:07.999Z</time></trkpt><trkpt lat="45.91709716977735" lon="11.053840513200521"><ele>185.5</ele><time>2026-05-02T14:08:08.999Z</time></trkpt><trkpt lat="45.91708537433723" lon="11.053654658506535"><ele>185.75</ele><time>2026-05-02T14:08:09.999Z</time></trkpt><trkpt lat="45.917071334223394" lon="11.053470026332437"><ele>186.0</ele><time>2026-05-02T14:08:10.999Z</time></trkpt><trkpt lat="45.91705513638985" lon="11.053282223484537"><ele>185.5</ele><time>2026-05-02T14:08:11.999Z</time></trkpt><trkpt lat="45.91703500305193" lon="11.053088446589022"><ele>185.0</ele><time>2026-05-02T14:08:12.999Z</time></trkpt><trkpt lat="45.917010563836996" lon="11.052887086213008"><ele>184.5</ele><time>2026-05-02T14:08:13.999Z</time></trkpt><trkpt lat="45.916995711876105" lon="11.052671227211707"><ele>184.0</ele><time>2026-05-02T14:08:14.999Z</time></trkpt><trkpt lat="45.916943953784944" lon="11.052471811200089"><ele>183.0</ele><time>2026-05-02T14:08:15.999Z</time></trkpt><trkpt lat="45.916902623751355" lon="11.052277375260793"><ele>182.0</ele><time>2026-05-02T14:08:16.999Z</time></trkpt><trkpt lat="45.916857688450385" lon="11.052089936647532"><ele>181.0</ele><time>2026-05-02T14:08:17.999Z</time></trkpt><trkpt lat="45.91680956512365" lon="11.051901751265396"><ele>180.0</ele><time>2026-05-02T14:08:18.999Z</time></trkpt><trkpt lat="45.91675953418463" lon="11.051715767887845"><ele>182.5</ele><time>2026-05-02T14:08:19.999Z</time></trkpt><trkpt lat="45.916708361210425" lon="11.051526916470664"><ele>185.0</ele><time>2026-05-02T14:08:20.999Z</time></trkpt><trkpt lat="45.9166565002697" lon="11.051336713153017"><ele>187.5</ele><time>2026-05-02T14:08:21.999Z</time></trkpt><trkpt lat="45.916612940749516" lon="11.051142444178051"><ele>190.0</ele><time>2026-05-02T14:08:22.999Z</time></trkpt><trkpt lat="45.91658065069882" lon="11.05094417730056"><ele>189.75</ele><time>2026-05-02T14:08:23.999Z</time></trkpt><trkpt lat="45.91654650145959" lon="11.050744969025963"><ele>189.5</ele><time>2026-05-02T14:08:24.999Z</time></trkpt><trkpt lat="45.9165195005019" lon="11.05054530947344"><ele>189.25</ele><time>2026-05-02T14:08:25.999Z</time></trkpt><trkpt lat="45.91649853825847" lon="11.050346969741524"><ele>189.0</ele><time>2026-05-02T14:08:26.999Z</time></trkpt><trkpt lat="45.916475473359185" lon="11.050152764592676"><ele>189.0</ele><time>2026-05-02T14:08:27.999Z</time></trkpt><trkpt lat="45.91643979863402" lon="11.049961756692394"><ele>189.0</ele><time>2026-05-02T14:08:28.999Z</time></trkpt><trkpt lat="45.91639474797373" lon="11.049770005565126"><ele>189.0</ele><time>2026-05-02T14:08:29.999Z</time></trkpt><trkpt lat="45.916337422337286" lon="11.049580117021977"><ele>189.0</ele><time>2026-05-02T14:08:30.999Z</time></trkpt><trkpt lat="45.916268680148065" lon="11.049396966638211"><ele>188.5</ele><time>2026-05-02T14:08:31.999Z</time></trkpt><trkpt lat="45.916188917637015" lon="11.049216190475086"><ele>188.0</ele><time>2026-05-02T14:08:32.999Z</time></trkpt><trkpt lat="45.916100630728124" lon="11.049040395945575"><ele>187.5</ele><time>2026-05-02T14:08:33.999Z</time></trkpt><trkpt lat="45.915998968055526" lon="11.048882707142393"><ele>187.0</ele><time>2026-05-02T14:08:34.999Z</time></trkpt><trkpt lat="45.915889724293955" lon="11.048737650969688"><ele>189.66666666666669</ele><time>2026-05-02T14:08:35.999Z</time></trkpt><trkpt lat="45.91577466800292" lon="11.048600339134188"><ele>192.33333333333334</ele><time>2026-05-02T14:08:36.999Z</time></trkpt><trkpt lat="45.915659287582756" lon="11.048465937560037"><ele>195.0</ele><time>2026-05-02T14:08:37.999Z</time></trkpt><trkpt lat="45.915551659811044" lon="11.048309612938185"><ele>192.33333333333334</ele><time>2026-05-02T14:08:38.999Z</time></trkpt><trkpt lat="45.91542480767829" lon="11.048189020595654"><ele>189.66666666666669</ele><time>2026-05-02T14:08:39.999Z</time></trkpt><trkpt lat="45.91531075405961" lon="11.048045206920024"><ele>187.0</ele><time>2026-05-02T14:08:40.999Z</time></trkpt><trkpt lat="45.91520487764533" lon="11.047894435159932"><ele>187.0</ele><time>2026-05-02T14:08:41.999Z</time></trkpt><trkpt lat="45.9151102021875" lon="11.047743245624403"><ele>187.0</ele><time>2026-05-02T14:08:42.999Z</time></trkpt><trkpt lat="45.9150252749277" lon="11.04759564944302"><ele>187.0</ele><time>2026-05-02T14:08:43.999Z</time></trkpt><trkpt lat="45.91495203183344" lon="11.047456166488152"><ele>187.0</ele><time>2026-05-02T14:08:44.999Z</time></trkpt><trkpt lat="45.91488598219392" lon="11.04732022155022"><ele>188.75</ele><time>2026-05-02T14:08:45.999Z</time></trkpt><trkpt lat="45.91482776136895" lon="11.047174994416274"><ele>190.5</ele><time>2026-05-02T14:08:46.999Z</time></trkpt><trkpt lat="45.91476604220021" lon="11.04701964539978"><ele>192.25</ele><time>2026-05-02T14:08:47.999Z</time></trkpt><trkpt lat="45.9147079192143" lon="11.046851218942786"><ele>194.0</ele><time>2026-05-02T14:08:48.999Z</time></trkpt><trkpt lat="45.914648717057005" lon="11.046677787839812"><ele>194.0</ele><time>2026-05-02T14:08:49.999Z</time></trkpt><trkpt lat="45.914584785722646" lon="11.046505398991403"><ele>194.0</ele><time>2026-05-02T14:08:50.999Z</time></trkpt><trkpt lat="45.91451256029265" lon="11.04633920237871"><ele>194.0</ele><time>2026-05-02T14:08:51.999Z</time></trkpt><trkpt lat="45.91442632402742" lon="11.046185215375766"><ele>194.0</ele><time>2026-05-02T14:08:52.999Z</time></trkpt><trkpt lat="45.91432850368687" lon="11.046039146460082"><ele>195.5</ele><time>2026-05-02T14:08:53.999Z</time></trkpt><trkpt lat="45.914223093821924" lon="11.045895148382217"><ele>197.0</ele><time>2026-05-02T14:08:54.999Z</time></trkpt><trkpt lat="45.914112236313" lon="11.04576713782108"><ele>198.5</ele><time>2026-05-02T14:08:55.999Z</time></trkpt><trkpt lat="45.91399615910095" lon="11.045642578843236"><ele>200.0</ele><time>2026-05-02T14:08:56.999Z</time></trkpt><trkpt lat="45.91388390892317" lon="11.045516656552008"><ele>200.0</ele><time>2026-05-02T14:08:57.999Z</time></trkpt><trkpt lat="45.913774052336514" lon="11.04539040620457"><ele>200.0</ele><time>2026-05-02T14:08:59Z</time></trkpt><trkpt lat="45.91366517386346" lon="11.045261078806284"><ele>200.0</ele><time>2026-05-02T14:09:00Z</time></trkpt><trkpt lat="45.913560027182925" lon="11.045131761596519"><ele>200.0</ele><time>2026-05-02T14:09:01Z</time></trkpt><trkpt lat="45.91346115035731" lon="11.045007186608252"><ele>200.25</ele><time>2026-05-02T14:09:02Z</time></trkpt><trkpt lat="45.913364781586" lon="11.044885404202864"><ele>200.5</ele><time>2026-05-02T14:09:03Z</time></trkpt><trkpt lat="45.9132691252615" lon="11.044765958922914"><ele>200.75</ele><time>2026-05-02T14:09:04Z</time></trkpt><trkpt lat="45.91317500158497" lon="11.044645377177096"><ele>201.0</ele><time>2026-05-02T14:09:05Z</time></trkpt><trkpt lat="45.91308477677636" lon="11.044518521547921"><ele>201.0</ele><time>2026-05-02T14:09:06Z</time></trkpt><trkpt lat="45.91299411615852" lon="11.044387239664418"><ele>201.0</ele><time>2026-05-02T14:09:07Z</time></trkpt><trkpt lat="45.91291031600484" lon="11.044250939318935"><ele>201.0</ele><time>2026-05-02T14:09:08Z</time></trkpt><trkpt lat="45.91281376709592" lon="11.044130025681412"><ele>201.0</ele><time>2026-05-02T14:09:09Z</time></trkpt><trkpt lat="45.912703411773364" lon="11.044021831873636"><ele>201.0</ele><time>2026-05-02T14:09:10Z</time></trkpt><trkpt lat="45.9125811838616" lon="11.043923609843215"><ele>201.0</ele><time>2026-05-02T14:09:11Z</time></trkpt><trkpt lat="45.9124624591232" lon="11.043801688036178"><ele>201.0</ele><time>2026-05-02T14:09:12Z</time></trkpt><trkpt lat="45.91232867077887" lon="11.043713008685158"><ele>201.0</ele><time>2026-05-02T14:09:13Z</time></trkpt><trkpt lat="45.91221358343697" lon="11.043587776144816"><ele>201.0</ele><time>2026-05-02T14:09:14Z</time></trkpt><trkpt lat="45.91210855041042" lon="11.043450659089478"><ele>201.0</ele><time>2026-05-02T14:09:15Z</time></trkpt><trkpt lat="45.912015219890314" lon="11.04331593951629"><ele>201.0</ele><time>2026-05-02T14:09:16Z</time></trkpt><trkpt lat="45.91192283480955" lon="11.043178091238554"><ele>201.0</ele><time>2026-05-02T14:09:17Z</time></trkpt><trkpt lat="45.911845575840594" lon="11.0430205510649"><ele>200.0</ele><time>2026-05-02T14:09:18Z</time></trkpt><trkpt lat="45.911754396555985" lon="11.042877654554326"><ele>199.0</ele><time>2026-05-02T14:09:19Z</time></trkpt><trkpt lat="45.9116497326471" lon="11.042752826111101"><ele>198.0</ele><time>2026-05-02T14:09:20Z</time></trkpt><trkpt lat="45.91155315945642" lon="11.042618796808734"><ele>197.0</ele><time>2026-05-02T14:09:21Z</time></trkpt><trkpt lat="45.91145633492693" lon="11.04250080885383"><ele>198.25</ele><time>2026-05-02T14:09:22Z</time></trkpt><trkpt lat="45.911356839014914" lon="11.042400735433677"><ele>199.5</ele><time>2026-05-02T14:09:23Z</time></trkpt><trkpt lat="45.911247939553306" lon="11.04230677877216"><ele>200.75</ele><time>2026-05-02T14:09:24Z</time></trkpt><trkpt lat="45.91113799943541" lon="11.042218635531016"><ele>202.0</ele><time>2026-05-02T14:09:25Z</time></trkpt><trkpt lat="45.911036081446156" lon="11.042138041982472"><ele>201.99999999999997</ele><time>2026-05-02T14:09:26Z</time></trkpt><trkpt lat="45.91094730656236" lon="11.04207183500127"><ele>202.0</ele><time>2026-05-02T14:09:27Z</time></trkpt><trkpt lat="45.91086951839201" lon="11.042013199105881"><ele>202.0</ele><time>2026-05-02T14:09:28Z</time></trkpt><trkpt lat="45.91079136549548" lon="11.041957806011698"><ele>202.0</ele><time>2026-05-02T14:09:29Z</time></trkpt><trkpt lat="45.91071276337288" lon="11.041903485547275"><ele>201.99999999999997</ele><time>2026-05-02T14:09:30Z</time></trkpt><trkpt lat="45.910632441303974" lon="11.041855523228179"><ele>202.0</ele><time>2026-05-02T14:09:31Z</time></trkpt><trkpt lat="45.9105448572507" lon="11.041813784552163"><ele>202.39999999999998</ele><time>2026-05-02T14:09:32Z</time></trkpt><trkpt lat="45.910450684395194" lon="11.04177462516182"><ele>202.79999999999998</ele><time>2026-05-02T14:09:33Z</time></trkpt><trkpt lat="45.91035145264651" lon="11.041736494514065"><ele>203.2</ele><time>2026-05-02T14:09:34Z</time></trkpt><trkpt lat="45.91024610759377" lon="11.041698646108857"><ele>203.6</ele><time>2026-05-02T14:09:35Z</time></trkpt><trkpt lat="45.910136772209974" lon="11.041655307828563"><ele>204.0</ele><time>2026-05-02T14:09:36Z</time></trkpt><trkpt lat="45.91002259162871" lon="11.041602893728959"><ele>204.0</ele><time>2026-05-02T14:09:37Z</time></trkpt><trkpt lat="45.90990711419011" lon="11.041536455249274"><ele>204.0</ele><time>2026-05-02T14:09:38Z</time></trkpt><trkpt lat="45.9097947025063" lon="11.04146462280698"><ele>204.0</ele><time>2026-05-02T14:09:39Z</time></trkpt><trkpt lat="45.90968518852093" lon="11.041392170727756"><ele>204.0</ele><time>2026-05-02T14:09:40Z</time></trkpt><trkpt lat="45.909580306871305" lon="11.041322654793351"><ele>204.0</ele><time>2026-05-02T14:09:41Z</time></trkpt><trkpt lat="45.90948132067558" lon="11.041264581792559"><ele>204.0</ele><time>2026-05-02T14:09:42Z</time></trkpt><trkpt lat="45.909384432384755" lon="11.04121006190428"><ele>204.0</ele><time>2026-05-02T14:09:43Z</time></trkpt><trkpt lat="45.90929893126181" lon="11.04116378138375"><ele>204.0</ele><time>2026-05-02T14:09:44Z</time></trkpt><trkpt lat="45.90922325390516" lon="11.041127036776796"><ele>204.0</ele><time>2026-05-02T14:09:45Z</time></trkpt><trkpt lat="45.909156765531485" lon="11.041095210708153"><ele>204.0</ele><time>2026-05-02T14:09:46Z</time></trkpt><trkpt lat="45.90909487079107" lon="11.041065732340936"><ele>204.0</ele><time>2026-05-02T14:09:47Z</time></trkpt><trkpt lat="45.908993927036114" lon="11.04101101941433"><ele>204.0</ele><time>2026-05-02T14:09:49Z</time></trkpt><trkpt lat="45.90891247349672" lon="11.040956369620204"><ele>204.0</ele><time>2026-05-02T14:09:51Z</time></trkpt><trkpt lat="45.90884314239381" lon="11.040872291343016"><ele>204.0</ele><time>2026-05-02T14:09:53Z</time></trkpt><trkpt lat="45.908799823203935" lon="11.04077918919624"><ele>204.0</ele><time>2026-05-02T14:09:54.999Z</time></trkpt><trkpt lat="45.90871397589458" lon="11.040712131434546"><ele>203.0</ele><time>2026-05-02T14:09:56.999Z</time></trkpt><trkpt lat="45.90864347366363" lon="11.040702662339339"><ele>202.0</ele><time>2026-05-02T14:09:57.999Z</time></trkpt><trkpt lat="45.90856420268306" lon="11.040696623721608"><ele>201.0</ele><time>2026-05-02T14:09:58.999Z</time></trkpt><trkpt lat="45.90848195594151" lon="11.040680864805628"><ele>200.0</ele><time>2026-05-02T14:09:59.999Z</time></trkpt><trkpt lat="45.908403267143896" lon="11.04066138708354"><ele>199.0</ele><time>2026-05-02T14:10:00.999Z</time></trkpt><trkpt lat="45.90833439058604" lon="11.040642493041387"><ele>198.0</ele><time>2026-05-02T14:10:01.999Z</time></trkpt><trkpt lat="45.90827309633734" lon="11.040619427049338"><ele>197.0</ele><time>2026-05-02T14:10:02.999Z</time></trkpt><trkpt lat="45.90820894958684" lon="11.040595643702892"><ele>197.00000000000003</ele><time>2026-05-02T14:10:03.999Z</time></trkpt><trkpt lat="45.90814327028421" lon="11.040567074593396"><ele>197.0</ele><time>2026-05-02T14:10:04.999Z</time></trkpt><trkpt lat="45.908071136724665" lon="11.040526175770319"><ele>197.0</ele><time>2026-05-02T14:10:05.999Z</time></trkpt><trkpt lat="45.90799093272727" lon="11.040480039292666"><ele>197.0</ele><time>2026-05-02T14:10:06.999Z</time></trkpt><trkpt lat="45.90790640079239" lon="11.04043469555155"><ele>197.00000000000003</ele><time>2026-05-02T14:10:07.999Z</time></trkpt><trkpt lat="45.9078196610902" lon="11.040382988895054"><ele>197.0</ele><time>2026-05-02T14:10:08.999Z</time></trkpt><trkpt lat="45.90773533721147" lon="11.040336209429686"><ele>197.00000000000003</ele><time>2026-05-02T14:10:09.999Z</time></trkpt><trkpt lat="45.907655309906836" lon="11.040289949027235"><ele>197.0</ele><time>2026-05-02T14:10:10.999Z</time></trkpt><trkpt lat="45.90757797043743" lon="11.040244352153026"><ele>197.0</ele><time>2026-05-02T14:10:11.999Z</time></trkpt><trkpt lat="45.90750407964373" lon="11.040199360477697"><ele>197.0</ele><time>2026-05-02T14:10:12.999Z</time></trkpt><trkpt lat="45.907424368614045" lon="11.040151453155946"><ele>197.00000000000003</ele><time>2026-05-02T14:10:13.999Z</time></trkpt><trkpt lat="45.907335046329464" lon="11.040093919975485"><ele>197.0</ele><time>2026-05-02T14:10:14.999Z</time></trkpt><trkpt lat="45.9072446725635" lon="11.040028665148954"><ele>194.0</ele><time>2026-05-02T14:10:15.999Z</time></trkpt><trkpt lat="45.907154255999245" lon="11.039956577572537"><ele>191.0</ele><time>2026-05-02T14:10:16.999Z</time></trkpt><trkpt lat="45.90705603787741" lon="11.03987702780846"><ele>188.0</ele><time>2026-05-02T14:10:17.999Z</time></trkpt><trkpt lat="45.90695826294452" lon="11.03978806410587"><ele>185.0</ele><time>2026-05-02T14:10:18.999Z</time></trkpt><trkpt lat="45.90686170052288" lon="11.039696173796493"><ele>182.0</ele><time>2026-05-02T14:10:19.999Z</time></trkpt><trkpt lat="45.90676827537852" lon="11.039597441131752"><ele>184.75</ele><time>2026-05-02T14:10:20.999Z</time></trkpt><trkpt lat="45.9066708350914" lon="11.039490959678211"><ele>187.5</ele><time>2026-05-02T14:10:21.999Z</time></trkpt><trkpt lat="45.90657476497968" lon="11.03938077400198"><ele>190.25</ele><time>2026-05-02T14:10:22.999Z</time></trkpt><trkpt lat="45.90648223539915" lon="11.039268184946312"><ele>193.0</ele><time>2026-05-02T14:10:23.999Z</time></trkpt><trkpt lat="45.906388787450766" lon="11.039157801449926"><ele>189.5</ele><time>2026-05-02T14:10:24.999Z</time></trkpt><trkpt lat="45.906294751984575" lon="11.039047703230962"><ele>186.0</ele><time>2026-05-02T14:10:25.999Z</time></trkpt><trkpt lat="45.90620256985358" lon="11.03893587432036"><ele>182.5</ele><time>2026-05-02T14:10:26.999Z</time></trkpt><trkpt lat="45.90610803978875" lon="11.038823520388302"><ele>179.0</ele><time>2026-05-02T14:10:27.999Z</time></trkpt><trkpt lat="45.90601042436622" lon="11.03871156010321"><ele>179.0</ele><time>2026-05-02T14:10:28.999Z</time></trkpt><trkpt lat="45.905911504439764" lon="11.038594465424705"><ele>179.0</ele><time>2026-05-02T14:10:29.999Z</time></trkpt><trkpt lat="45.90580918534047" lon="11.038473629477494"><ele>179.0</ele><time>2026-05-02T14:10:30.999Z</time></trkpt><trkpt lat="45.905704006863495" lon="11.038351853141046"><ele>179.0</ele><time>2026-05-02T14:10:31.999Z</time></trkpt><trkpt lat="45.905595986844396" lon="11.038227915520428"><ele>179.0</ele><time>2026-05-02T14:10:32.999Z</time></trkpt><trkpt lat="45.9054874266335" lon="11.038097202897957"><ele>179.0</ele><time>2026-05-02T14:10:33.999Z</time></trkpt><trkpt lat="45.90537649870543" lon="11.037966616487633"><ele>179.0</ele><time>2026-05-02T14:10:34.999Z</time></trkpt><trkpt lat="45.90526859311856" lon="11.03782889888809"><ele>179.0</ele><time>2026-05-02T14:10:35.999Z</time></trkpt><trkpt lat="45.9051583256068" lon="11.03769319229056"><ele>180.25</ele><time>2026-05-02T14:10:36.999Z</time></trkpt><trkpt lat="45.90504921420062" lon="11.037556064850436"><ele>181.5</ele><time>2026-05-02T14:10:37.999Z</time></trkpt><trkpt lat="45.90494266836354" lon="11.037430488350486"><ele>182.75</ele><time>2026-05-02T14:10:38.999Z</time></trkpt><trkpt lat="45.90483252750689" lon="11.037307463929052"><ele>184.0</ele><time>2026-05-02T14:10:39.999Z</time></trkpt><trkpt lat="45.904723945197226" lon="11.037182105445288"><ele>184.0</ele><time>2026-05-02T14:10:40.999Z</time></trkpt><trkpt lat="45.90461607931507" lon="11.0370570325194"><ele>184.0</ele><time>2026-05-02T14:10:41.999Z</time></trkpt><trkpt lat="45.904511155678584" lon="11.036933499877705"><ele>184.0</ele><time>2026-05-02T14:10:43Z</time></trkpt><trkpt lat="45.904406203423555" lon="11.0368121353796"><ele>184.0</ele><time>2026-05-02T14:10:44Z</time></trkpt><trkpt lat="45.90429438383056" lon="11.036700913929453"><ele>182.75</ele><time>2026-05-02T14:10:45Z</time></trkpt><trkpt lat="45.904175413661456" lon="11.03659077947309"><ele>181.5</ele><time>2026-05-02T14:10:46Z</time></trkpt><trkpt lat="45.904044111271894" lon="11.036487675644166"><ele>180.25</ele><time>2026-05-02T14:10:47Z</time></trkpt><trkpt lat="45.903902458858205" lon="11.036402347098523"><ele>179.0</ele><time>2026-05-02T14:10:48Z</time></trkpt><trkpt lat="45.90375132835282" lon="11.036332296049595"><ele>179.0</ele><time>2026-05-02T14:10:49Z</time></trkpt><trkpt lat="45.90359335810956" lon="11.036277310176416"><ele>179.0</ele><time>2026-05-02T14:10:50Z</time></trkpt><trkpt lat="45.90342182277994" lon="11.036245611687628"><ele>179.0</ele><time>2026-05-02T14:10:51Z</time></trkpt><trkpt lat="45.90324610964983" lon="11.036207842304066"><ele>179.0</ele><time>2026-05-02T14:10:52Z</time></trkpt><trkpt lat="45.90306926095835" lon="11.036165358920071"><ele>179.0</ele><time>2026-05-02T14:10:53Z</time></trkpt><trkpt lat="45.90288926288346" lon="11.036125476878391"><ele>179.0</ele><time>2026-05-02T14:10:54Z</time></trkpt><trkpt lat="45.902706323658805" lon="11.036088314601107"><ele>178.33333333333331</ele><time>2026-05-02T14:10:55Z</time></trkpt><trkpt lat="45.90252828968747" lon="11.0360481249561"><ele>177.66666666666666</ele><time>2026-05-02T14:10:56Z</time></trkpt><trkpt lat="45.90234759881453" lon="11.036008122056943"><ele>177.0</ele><time>2026-05-02T14:10:57Z</time></trkpt><trkpt lat="45.90215910815568" lon="11.035967649537655"><ele>177.0</ele><time>2026-05-02T14:10:58Z</time></trkpt><trkpt lat="45.90196846298162" lon="11.035929956427918"><ele>177.0</ele><time>2026-05-02T14:10:59Z</time></trkpt><trkpt lat="45.9017841880974" lon="11.035892181351585"><ele>177.0</ele><time>2026-05-02T14:11:00Z</time></trkpt><trkpt lat="45.90161784121652" lon="11.035855142583342"><ele>177.0</ele><time>2026-05-02T14:11:01Z</time></trkpt><trkpt lat="45.90147212549028" lon="11.035820963445063"><ele>177.0</ele><time>2026-05-02T14:11:02Z</time></trkpt><trkpt lat="45.90132912701541" lon="11.03578846023448"><ele>177.0</ele><time>2026-05-02T14:11:03Z</time></trkpt><trkpt lat="45.90119141950932" lon="11.035761734502955"><ele>177.0</ele><time>2026-05-02T14:11:04Z</time></trkpt><trkpt lat="45.901049606798686" lon="11.035732605639271"><ele>176.0</ele><time>2026-05-02T14:11:05Z</time></trkpt><trkpt lat="45.900905863646344" lon="11.035701668248496"><ele>175.0</ele><time>2026-05-02T14:11:06Z</time></trkpt><trkpt lat="45.900758935615656" lon="11.03567111651692"><ele>174.0</ele><time>2026-05-02T14:11:07Z</time></trkpt><trkpt lat="45.90060844593303" lon="11.035639995392874"><ele>173.0</ele><time>2026-05-02T14:11:08Z</time></trkpt><trkpt lat="45.900456315453205" lon="11.035609116793763"><ele>173.0</ele><time>2026-05-02T14:11:09Z</time></trkpt><trkpt lat="45.9003020442139" lon="11.035575016300857"><ele>173.0</ele><time>2026-05-02T14:11:10Z</time></trkpt><trkpt lat="45.90014467928383" lon="11.035540993844347"><ele>173.0</ele><time>2026-05-02T14:11:11Z</time></trkpt><trkpt lat="45.89998433939524" lon="11.035509013905813"><ele>174.33333333333331</ele><time>2026-05-02T14:11:12Z</time></trkpt><trkpt lat="45.899821969610045" lon="11.035475824377807"><ele>175.66666666666666</ele><time>2026-05-02T14:11:13Z</time></trkpt><trkpt lat="45.89965720525165" lon="11.035443150405664"><ele>177.0</ele><time>2026-05-02T14:11:14Z</time></trkpt><trkpt lat="45.89949140277497" lon="11.03540666102288"><ele>177.0</ele><time>2026-05-02T14:11:15Z</time></trkpt><trkpt lat="45.89932371356047" lon="11.035371381965376"><ele>177.0</ele><time>2026-05-02T14:11:16Z</time></trkpt><trkpt lat="45.899154546089555" lon="11.035336774270977"><ele>177.0</ele><time>2026-05-02T14:11:17Z</time></trkpt><trkpt lat="45.89898282214015" lon="11.035298267086432"><ele>178.0</ele><time>2026-05-02T14:11:18Z</time></trkpt><trkpt lat="45.89881268794013" lon="11.03525600793516"><ele>179.0</ele><time>2026-05-02T14:11:19Z</time></trkpt><trkpt lat="45.89864737710244" lon="11.035217528882244"><ele>180.0</ele><time>2026-05-02T14:11:20Z</time></trkpt><trkpt lat="45.89849028498137" lon="11.035182898075169"><ele>181.0</ele><time>2026-05-02T14:11:21Z</time></trkpt><trkpt lat="45.89833253315443" lon="11.035144606059673"><ele>182.0</ele><time>2026-05-02T14:11:22Z</time></trkpt><trkpt lat="45.8981774592572" lon="11.035111061585148"><ele>183.0</ele><time>2026-05-02T14:11:23Z</time></trkpt><trkpt lat="45.89802819773955" lon="11.035079651451916"><ele>183.0</ele><time>2026-05-02T14:11:24Z</time></trkpt><trkpt lat="45.8978810668975" lon="11.035049508501574"><ele>183.0</ele><time>2026-05-02T14:11:25Z</time></trkpt><trkpt lat="45.897737303175546" lon="11.03501947272709"><ele>183.0</ele><time>2026-05-02T14:11:26Z</time></trkpt><trkpt lat="45.89759452386275" lon="11.03498839172812"><ele>183.0</ele><time>2026-05-02T14:11:27Z</time></trkpt><trkpt lat="45.89744888181065" lon="11.03495826078607"><ele>183.0</ele><time>2026-05-02T14:11:28Z</time></trkpt><trkpt lat="45.89729943377943" lon="11.034929493009905"><ele>183.0</ele><time>2026-05-02T14:11:29Z</time></trkpt><trkpt lat="45.89714753478204" lon="11.034896774052617"><ele>183.0</ele><time>2026-05-02T14:11:30Z</time></trkpt><trkpt lat="45.896993594767935" lon="11.034863698085621"><ele>183.0</ele><time>2026-05-02T14:11:31Z</time></trkpt><trkpt lat="45.89683776408267" lon="11.034832627368118"><ele>183.0</ele><time>2026-05-02T14:11:32Z</time></trkpt><trkpt lat="45.89668165929406" lon="11.034797233523976"><ele>183.0</ele><time>2026-05-02T14:11:33Z</time></trkpt><trkpt lat="45.89652288021229" lon="11.034762288339598"><ele>183.33333333333334</ele><time>2026-05-02T14:11:34Z</time></trkpt><trkpt lat="45.8963633841476" lon="11.034727453480233"><ele>183.66666666666669</ele><time>2026-05-02T14:11:35Z</time></trkpt><trkpt lat="45.896202311630745" lon="11.034691798642354"><ele>184.0</ele><time>2026-05-02T14:11:36Z</time></trkpt><trkpt lat="45.89603913348936" lon="11.034653965091813"><ele>184.0</ele><time>2026-05-02T14:11:37Z</time></trkpt><trkpt lat="45.89587560759374" lon="11.034617765317615"><ele>184.0</ele><time>2026-05-02T14:11:38Z</time></trkpt><trkpt lat="45.89571311353444" lon="11.034583191137848"><ele>184.0</ele><time>2026-05-02T14:11:39Z</time></trkpt><trkpt lat="45.89554854434873" lon="11.034550495557864"><ele>184.0</ele><time>2026-05-02T14:11:40Z</time></trkpt><trkpt lat="45.89538578656231" lon="11.03451980711129"><ele>184.0</ele><time>2026-05-02T14:11:41Z</time></trkpt><trkpt lat="45.895223160174595" lon="11.034487406037595"><ele>184.0</ele><time>2026-05-02T14:11:42Z</time></trkpt><trkpt lat="45.895062166763466" lon="11.034454235391216"><ele>185.0</ele><time>2026-05-02T14:11:43Z</time></trkpt><trkpt lat="45.89490328808102" lon="11.034419309483894"><ele>186.0</ele><time>2026-05-02T14:11:44Z</time></trkpt><trkpt lat="45.89474737696773" lon="11.034386252316677"><ele>187.0</ele><time>2026-05-02T14:11:45Z</time></trkpt><trkpt lat="45.89459443635508" lon="11.034353651475636"><ele>187.0</ele><time>2026-05-02T14:11:46Z</time></trkpt><trkpt lat="45.894443885450606" lon="11.034320455957179"><ele>187.0</ele><time>2026-05-02T14:11:47Z</time></trkpt><trkpt lat="45.89429289119925" lon="11.034290027235864"><ele>187.0</ele><time>2026-05-02T14:11:48Z</time></trkpt><trkpt lat="45.894140158425536" lon="11.034258978870009"><ele>187.0</ele><time>2026-05-02T14:11:49Z</time></trkpt><trkpt lat="45.89398598347048" lon="11.034239385175644"><ele>187.0</ele><time>2026-05-02T14:11:50Z</time></trkpt><trkpt lat="45.893829208433644" lon="11.034237920148888"><ele>187.0</ele><time>2026-05-02T14:11:51Z</time></trkpt><trkpt lat="45.893681386017725" lon="11.034239292503155"><ele>187.0</ele><time>2026-05-02T14:11:52Z</time></trkpt><trkpt lat="45.8935433080244" lon="11.034244228651021"><ele>187.0</ele><time>2026-05-02T14:11:53Z</time></trkpt><trkpt lat="45.89341409641165" lon="11.03424866972108"><ele>187.0</ele><time>2026-05-02T14:11:54Z</time></trkpt><trkpt lat="45.89328920813173" lon="11.034250731647607"><ele>187.0</ele><time>2026-05-02T14:11:55Z</time></trkpt><trkpt lat="45.89316990384062" lon="11.034258498515381"><ele>187.25</ele><time>2026-05-02T14:11:56Z</time></trkpt><trkpt lat="45.89305629435084" lon="11.03426600572435"><ele>187.5</ele><time>2026-05-02T14:11:57Z</time></trkpt><trkpt lat="45.892947671595856" lon="11.034267814967606"><ele>187.75</ele><time>2026-05-02T14:11:58Z</time></trkpt><trkpt lat="45.89283381785281" lon="11.03427147217088"><ele>188.0</ele><time>2026-05-02T14:11:59Z</time></trkpt><trkpt lat="45.892713950050364" lon="11.034277217716385"><ele>188.0</ele><time>2026-05-02T14:12:00Z</time></trkpt><trkpt lat="45.89258641672251" lon="11.034279496268413"><ele>188.0</ele><time>2026-05-02T14:12:01Z</time></trkpt><trkpt lat="45.892454356326205" lon="11.034282653788123"><ele>188.0</ele><time>2026-05-02T14:12:02Z</time></trkpt><trkpt lat="45.89232568885263" lon="11.034283196774348"><ele>188.0</ele><time>2026-05-02T14:12:03Z</time></trkpt><trkpt lat="45.892203819139226" lon="11.03428145232651"><ele>188.0</ele><time>2026-05-02T14:12:04Z</time></trkpt><trkpt lat="45.89208989083851" lon="11.03427734092372"><ele>188.0</ele><time>2026-05-02T14:12:05Z</time></trkpt><trkpt lat="45.89198453392274" lon="11.034270310619872"><ele>188.0</ele><time>2026-05-02T14:12:06Z</time></trkpt><trkpt lat="45.89189555456095" lon="11.034259034525963"><ele>188.0</ele><time>2026-05-02T14:12:07Z</time></trkpt><trkpt lat="45.89181230275055" lon="11.034248174380343"><ele>188.0</ele><time>2026-05-02T14:12:08Z</time></trkpt><trkpt lat="45.891724236709024" lon="11.034244088300076"><ele>188.33333333333331</ele><time>2026-05-02T14:12:09Z</time></trkpt><trkpt lat="45.89163543362953" lon="11.034245717996765"><ele>188.66666666666666</ele><time>2026-05-02T14:12:10Z</time></trkpt><trkpt lat="45.89155164305968" lon="11.034250346883187"><ele>189.0</ele><time>2026-05-02T14:12:11Z</time></trkpt><trkpt lat="45.89146993068833" lon="11.03426264289041"><ele>189.33333333333334</ele><time>2026-05-02T14:12:12Z</time></trkpt><trkpt lat="45.891393051540994" lon="11.03428700241665"><ele>189.66666666666669</ele><time>2026-05-02T14:12:13Z</time></trkpt><trkpt lat="45.89132247985198" lon="11.034319501604278"><ele>190.0</ele><time>2026-05-02T14:12:14Z</time></trkpt><trkpt lat="45.891249711356274" lon="11.034354886130926"><ele>190.0</ele><time>2026-05-02T14:12:15Z</time></trkpt><trkpt lat="45.89117812278523" lon="11.034393147407663"><ele>190.0</ele><time>2026-05-02T14:12:16Z</time></trkpt><trkpt lat="45.891105225971614" lon="11.034429434309407"><ele>190.0</ele><time>2026-05-02T14:12:17Z</time></trkpt><trkpt lat="45.89102548713689" lon="11.034441012172648"><ele>190.0</ele><time>2026-05-02T14:12:18Z</time></trkpt><trkpt lat="45.89094181521488" lon="11.034428501403672"><ele>190.0</ele><time>2026-05-02T14:12:19Z</time></trkpt><trkpt lat="45.89085882491614" lon="11.034400863150346"><ele>190.0</ele><time>2026-05-02T14:12:20Z</time></trkpt><trkpt lat="45.89077892844355" lon="11.03435962234853"><ele>190.0</ele><time>2026-05-02T14:12:21Z</time></trkpt><trkpt lat="45.89070801771214" lon="11.03430983052932"><ele>190.0</ele><time>2026-05-02T14:12:22Z</time></trkpt><trkpt lat="45.89064618220128" lon="11.03425662427611"><ele>190.0</ele><time>2026-05-02T14:12:23Z</time></trkpt><trkpt lat="45.890587708530866" lon="11.034205923933046"><ele>190.0</ele><time>2026-05-02T14:12:24Z</time></trkpt><trkpt lat="45.890528418130586" lon="11.034154186830975"><ele>190.0</ele><time>2026-05-02T14:12:25Z</time></trkpt><trkpt lat="45.8904585568103" lon="11.034091351702799"><ele>190.0</ele><time>2026-05-02T14:12:26Z</time></trkpt><trkpt lat="45.89037401887863" lon="11.034031301660686"><ele>190.0</ele><time>2026-05-02T14:12:27Z</time></trkpt><trkpt lat="45.890267583636934" lon="11.03399284825925"><ele>190.0</ele><time>2026-05-02T14:12:28Z</time></trkpt><trkpt lat="45.890155836309084" lon="11.033956082236529"><ele>190.0</ele><time>2026-05-02T14:12:29Z</time></trkpt><trkpt lat="45.89004531238975" lon="11.033925865639333"><ele>190.0</ele><time>2026-05-02T14:12:30Z</time></trkpt><trkpt lat="45.889935938643895" lon="11.033905507574241"><ele>190.0</ele><time>2026-05-02T14:12:31Z</time></trkpt><trkpt lat="45.889834865399315" lon="11.033886252336508"><ele>190.0</ele><time>2026-05-02T14:12:32Z</time></trkpt><trkpt lat="45.88974129601475" lon="11.033795685614379"><ele>190.0</ele><time>2026-05-02T14:12:33Z</time></trkpt><trkpt lat="45.88964168475142" lon="11.033777264518674"><ele>190.0</ele><time>2026-05-02T14:12:34Z</time></trkpt><trkpt lat="45.88953800917819" lon="11.033758091905854"><ele>190.0</ele><time>2026-05-02T14:12:35Z</time></trkpt><trkpt lat="45.88942232541454" lon="11.033814086345748"><ele>190.0</ele><time>2026-05-02T14:12:36Z</time></trkpt><trkpt lat="45.88931133852851" lon="11.033794949109708"><ele>190.0</ele><time>2026-05-02T14:12:37Z</time></trkpt><trkpt lat="45.8892020960091" lon="11.033776204061237"><ele>190.0</ele><time>2026-05-02T14:12:38Z</time></trkpt><trkpt lat="45.889098923324596" lon="11.033759357832583"><ele>190.0</ele><time>2026-05-02T14:12:39Z</time></trkpt><trkpt lat="45.88899017476461" lon="11.033739886806154"><ele>190.0</ele><time>2026-05-02T14:12:40Z</time></trkpt><trkpt lat="45.888874649269326" lon="11.033717452092827"><ele>190.0</ele><time>2026-05-02T14:12:41Z</time></trkpt><trkpt lat="45.888757978747236" lon="11.033691895234943"><ele>190.0</ele><time>2026-05-02T14:12:42Z</time></trkpt><trkpt lat="45.888647405658475" lon="11.033661593397557"><ele>190.0</ele><time>2026-05-02T14:12:43Z</time></trkpt><trkpt lat="45.88853929965859" lon="11.033624938221035"><ele>190.0</ele><time>2026-05-02T14:12:44Z</time></trkpt><trkpt lat="45.888429760340586" lon="11.033582953281527"><ele>190.0</ele><time>2026-05-02T14:12:45Z</time></trkpt><trkpt lat="45.88831390493607" lon="11.033536221429646"><ele>190.0</ele><time>2026-05-02T14:12:46Z</time></trkpt><trkpt lat="45.88819731944776" lon="11.033487187702196"><ele>190.0</ele><time>2026-05-02T14:12:47Z</time></trkpt><trkpt lat="45.88807851849077" lon="11.033436144495372"><ele>190.0</ele><time>2026-05-02T14:12:48Z</time></trkpt><trkpt lat="45.887958910711966" lon="11.03338282696634"><ele>190.0</ele><time>2026-05-02T14:12:49Z</time></trkpt><trkpt lat="45.88784100935511" lon="11.033311730850722"><ele>190.25</ele><time>2026-05-02T14:12:50Z</time></trkpt><trkpt lat="45.887717950841" lon="11.033271325539435"><ele>190.5</ele><time>2026-05-02T14:12:51Z</time></trkpt><trkpt lat="45.88759654639856" lon="11.033261357205165"><ele>190.75</ele><time>2026-05-02T14:12:52Z</time></trkpt><trkpt lat="45.887488419591165" lon="11.033235029822128"><ele>191.0</ele><time>2026-05-02T14:12:53Z</time></trkpt><trkpt lat="45.88739067450203" lon="11.03321215274207"><ele>191.0</ele><time>2026-05-02T14:12:54Z</time></trkpt><trkpt lat="45.88730066788987" lon="11.033190477410512"><ele>191.0</ele><time>2026-05-02T14:12:55Z</time></trkpt><trkpt lat="45.88721371087193" lon="11.033167475001674"><ele>191.0</ele><time>2026-05-02T14:12:56Z</time></trkpt><trkpt lat="45.88712350554108" lon="11.03314271172413"><ele>191.0</ele><time>2026-05-02T14:12:57Z</time></trkpt><trkpt lat="45.88703677928269" lon="11.033122024862429"><ele>191.0</ele><time>2026-05-02T14:12:58Z</time></trkpt><trkpt lat="45.88696037755574" lon="11.033107399989133"><ele>191.0</ele><time>2026-05-02T14:12:59Z</time></trkpt><trkpt lat="45.88689611444075" lon="11.033096926516752"><ele>191.0</ele><time>2026-05-02T14:13:00Z</time></trkpt><trkpt lat="45.88679040693637" lon="11.033079225247569"><ele>191.0</ele><time>2026-05-02T14:13:02Z</time></trkpt><trkpt lat="45.886697666381025" lon="11.033060176938516"><ele>191.0</ele><time>2026-05-02T14:13:04Z</time></trkpt><trkpt lat="45.8865611371763" lon="11.033028473029766"><ele>191.0</ele><time>2026-05-02T14:13:06Z</time></trkpt><trkpt lat="45.886462106942744" lon="11.033008814614881"><ele>191.0</ele><time>2026-05-02T14:13:07Z</time></trkpt><trkpt lat="45.88636358828065" lon="11.03299756365241"><ele>190.4</ele><time>2026-05-02T14:13:08Z</time></trkpt><trkpt lat="45.88626699072439" lon="11.03297854172874"><ele>189.8</ele><time>2026-05-02T14:13:09Z</time></trkpt><trkpt lat="45.88616546604706" lon="11.03296403903854"><ele>189.20000000000002</ele><time>2026-05-02T14:13:10Z</time></trkpt><trkpt lat="45.88605596278714" lon="11.032948976095053"><ele>188.60000000000002</ele><time>2026-05-02T14:13:11Z</time></trkpt><trkpt lat="45.885942215371394" lon="11.032932783179541"><ele>188.0</ele><time>2026-05-02T14:13:12Z</time></trkpt><trkpt lat="45.885830941290074" lon="11.032913752678878"><ele>187.60000000000002</ele><time>2026-05-02T14:13:13Z</time></trkpt><trkpt lat="45.88572548844038" lon="11.032894717551736"><ele>187.20000000000002</ele><time>2026-05-02T14:13:14Z</time></trkpt><trkpt lat="45.885625921583156" lon="11.032874745216146"><ele>186.8</ele><time>2026-05-02T14:13:15Z</time></trkpt><trkpt lat="45.88553195012452" lon="11.032856463251962"><ele>186.4</ele><time>2026-05-02T14:13:16Z</time></trkpt><trkpt lat="45.8854430114864" lon="11.032839406604603"><ele>186.0</ele><time>2026-05-02T14:13:17Z</time></trkpt><trkpt lat="45.88535829744131" lon="11.032824455700547"><ele>186.0</ele><time>2026-05-02T14:13:18Z</time></trkpt><trkpt lat="45.885273931624795" lon="11.03280898906142"><ele>186.0</ele><time>2026-05-02T14:13:19Z</time></trkpt><trkpt lat="45.885184248527494" lon="11.032798285293435"><ele>186.0</ele><time>2026-05-02T14:13:20Z</time></trkpt><trkpt lat="45.88509112009562" lon="11.032789322553958"><ele>186.0</ele><time>2026-05-02T14:13:21Z</time></trkpt><trkpt lat="45.88499802838948" lon="11.03277836791475"><ele>186.0</ele><time>2026-05-02T14:13:22Z</time></trkpt><trkpt lat="45.8849060069157" lon="11.032763445241649"><ele>186.0</ele><time>2026-05-02T14:13:23Z</time></trkpt><trkpt lat="45.88481629469729" lon="11.032751269978421"><ele>186.0</ele><time>2026-05-02T14:13:24Z</time></trkpt><trkpt lat="45.8847247952356" lon="11.032740551236374"><ele>186.0</ele><time>2026-05-02T14:13:25Z</time></trkpt><trkpt lat="45.88463397847296" lon="11.032730948201237"><ele>186.0</ele><time>2026-05-02T14:13:26Z</time></trkpt><trkpt lat="45.88453525384732" lon="11.032717583915995"><ele>186.0</ele><time>2026-05-02T14:13:27Z</time></trkpt><trkpt lat="45.88443583343211" lon="11.032699838589421"><ele>186.0</ele><time>2026-05-02T14:13:28Z</time></trkpt><trkpt lat="45.884333819441984" lon="11.032678319491676"><ele>186.0</ele><time>2026-05-02T14:13:29Z</time></trkpt><trkpt lat="45.8842285237511" lon="11.032657111524408"><ele>186.0</ele><time>2026-05-02T14:13:30Z</time></trkpt><trkpt lat="45.88412000322689" lon="11.032637084350778"><ele>186.0</ele><time>2026-05-02T14:13:31Z</time></trkpt><trkpt lat="45.88400953525631" lon="11.03262093002407"><ele>186.0</ele><time>2026-05-02T14:13:32Z</time></trkpt><trkpt lat="45.88389937909717" lon="11.032603560889203"><ele>185.8</ele><time>2026-05-02T14:13:33Z</time></trkpt><trkpt lat="45.88378993383626" lon="11.032587864572449"><ele>185.60000000000002</ele><time>2026-05-02T14:13:34Z</time></trkpt><trkpt lat="45.88368303330542" lon="11.032570489078083"><ele>185.4</ele><time>2026-05-02T14:13:35Z</time></trkpt><trkpt lat="45.883577627513745" lon="11.032556676994377"><ele>185.2</ele><time>2026-05-02T14:13:36Z</time></trkpt><trkpt lat="45.883473038788935" lon="11.032537617423097"><ele>185.0</ele><time>2026-05-02T14:13:37Z</time></trkpt><trkpt lat="45.88337027184129" lon="11.032515140088467"><ele>184.5</ele><time>2026-05-02T14:13:38Z</time></trkpt><trkpt lat="45.8832615715228" lon="11.032493891434964"><ele>184.0</ele><time>2026-05-02T14:13:39Z</time></trkpt><trkpt lat="45.8831498867481" lon="11.032470573707121"><ele>183.5</ele><time>2026-05-02T14:13:40Z</time></trkpt><trkpt lat="45.88303650867791" lon="11.032450757020237"><ele>183.0</ele><time>2026-05-02T14:13:41Z</time></trkpt><trkpt lat="45.88292448120982" lon="11.032430876677944"><ele>182.8</ele><time>2026-05-02T14:13:42Z</time></trkpt><trkpt lat="45.88281666085697" lon="11.032409928682574"><ele>182.60000000000002</ele><time>2026-05-02T14:13:43Z</time></trkpt><trkpt lat="45.8827128972246" lon="11.032386648442714"><ele>182.39999999999998</ele><time>2026-05-02T14:13:44Z</time></trkpt><trkpt lat="45.88261051407746" lon="11.032356828626714"><ele>182.2</ele><time>2026-05-02T14:13:45Z</time></trkpt><trkpt lat="45.88250897630779" lon="11.03232462648967"><ele>182.0</ele><time>2026-05-02T14:13:46Z</time></trkpt><trkpt lat="45.88240691827069" lon="11.032288322278086"><ele>182.0</ele><time>2026-05-02T14:13:47Z</time></trkpt><trkpt lat="45.88230327890707" lon="11.032251170588333"><ele>182.0</ele><time>2026-05-02T14:13:48Z</time></trkpt><trkpt lat="45.882197999005825" lon="11.032213965146596"><ele>182.0</ele><time>2026-05-02T14:13:49Z</time></trkpt><trkpt lat="45.88209297189884" lon="11.032174629532204"><ele>182.0</ele><time>2026-05-02T14:13:50Z</time></trkpt><trkpt lat="45.88198555063982" lon="11.032135355090814"><ele>182.0</ele><time>2026-05-02T14:13:51Z</time></trkpt><trkpt lat="45.881876978230316" lon="11.032095717879393"><ele>182.0</ele><time>2026-05-02T14:13:52Z</time></trkpt><trkpt lat="45.88176837232021" lon="11.032054740865865"><ele>182.0</ele><time>2026-05-02T14:13:53Z</time></trkpt><trkpt lat="45.88166724608431" lon="11.032018176089954"><ele>182.0</ele><time>2026-05-02T14:13:54Z</time></trkpt><trkpt lat="45.88157666501635" lon="11.031979335566279"><ele>182.0</ele><time>2026-05-02T14:13:55Z</time></trkpt><trkpt lat="45.8814893803463" lon="11.031942038945303"><ele>182.0</ele><time>2026-05-02T14:13:56Z</time></trkpt><trkpt lat="45.88139937055112" lon="11.031910745740475"><ele>182.33333333333331</ele><time>2026-05-02T14:13:57Z</time></trkpt><trkpt lat="45.88131125946358" lon="11.03188089200587"><ele>182.66666666666666</ele><time>2026-05-02T14:13:58Z</time></trkpt><trkpt lat="45.88123277862416" lon="11.031855188686842"><ele>183.0</ele><time>2026-05-02T14:13:59Z</time></trkpt><trkpt lat="45.881149721585466" lon="11.031829762037312"><ele>183.33333333333334</ele><time>2026-05-02T14:14:00Z</time></trkpt><trkpt lat="45.88107341779693" lon="11.031803633503477"><ele>183.66666666666669</ele><time>2026-05-02T14:14:01Z</time></trkpt><trkpt lat="45.88100619949413" lon="11.03177500885584"><ele>184.0</ele><time>2026-05-02T14:14:02Z</time></trkpt><trkpt lat="45.8808953320508" lon="11.031722072251712"><ele>184.0</ele><time>2026-05-02T14:14:04Z</time></trkpt><trkpt lat="45.88079582894069" lon="11.031657577676675"><ele>184.0</ele><time>2026-05-02T14:14:06Z</time></trkpt><trkpt lat="45.88074815255553" lon="11.031592069718615"><ele>184.0</ele><time>2026-05-02T14:14:07Z</time></trkpt><trkpt lat="45.88070021177612" lon="11.03151343541556"><ele>184.0</ele><time>2026-05-02T14:14:08Z</time></trkpt><trkpt lat="45.88064446254757" lon="11.031434832818015"><ele>184.0</ele><time>2026-05-02T14:14:09Z</time></trkpt><trkpt lat="45.88058037155556" lon="11.03136625239963"><ele>184.0</ele><time>2026-05-02T14:14:10Z</time></trkpt><trkpt lat="45.88050477289937" lon="11.031320890566494"><ele>183.79999999999998</ele><time>2026-05-02T14:14:11Z</time></trkpt><trkpt lat="45.88042250935483" lon="11.031282323701916"><ele>183.6</ele><time>2026-05-02T14:14:12Z</time></trkpt><trkpt lat="45.88034387390049" lon="11.031285885272212"><ele>183.4</ele><time>2026-05-02T14:14:13Z</time></trkpt><trkpt lat="45.88026014335925" lon="11.031115051960926"><ele>183.2</ele><time>2026-05-02T14:14:14Z</time></trkpt><trkpt lat="45.880177914041425" lon="11.031000012462574"><ele>183.0</ele><time>2026-05-02T14:14:15Z</time></trkpt><trkpt lat="45.880089941752324" lon="11.03088802285769"><ele>183.0</ele><time>2026-05-02T14:14:16Z</time></trkpt><trkpt lat="45.87999952026921" lon="11.030786810084544"><ele>183.0</ele><time>2026-05-02T14:14:17Z</time></trkpt><trkpt lat="45.87990898977826" lon="11.030687796532789"><ele>183.0</ele><time>2026-05-02T14:14:18Z</time></trkpt><trkpt lat="45.8798191851204" lon="11.03058955743936"><ele>183.0</ele><time>2026-05-02T14:14:19Z</time></trkpt><trkpt lat="45.879724049942006" lon="11.030488109807209"><ele>183.0</ele><time>2026-05-02T14:14:20Z</time></trkpt><trkpt lat="45.87963042064017" lon="11.030378435346782"><ele>183.0</ele><time>2026-05-02T14:14:21Z</time></trkpt><trkpt lat="45.879537464501965" lon="11.030270386631578"><ele>183.0</ele><time>2026-05-02T14:14:22Z</time></trkpt><trkpt lat="45.879449025982545" lon="11.030159980006072"><ele>183.0</ele><time>2026-05-02T14:14:23Z</time></trkpt><trkpt lat="45.87935833279021" lon="11.030046729051625"><ele>183.0</ele><time>2026-05-02T14:14:24Z</time></trkpt><trkpt lat="45.87926045361854" lon="11.029927756935328"><ele>183.0</ele><time>2026-05-02T14:14:25Z</time></trkpt><trkpt lat="45.87916202604612" lon="11.029800447660156"><ele>183.0</ele><time>2026-05-02T14:14:26Z</time></trkpt><trkpt lat="45.87906520695907" lon="11.029669967102425"><ele>183.0</ele><time>2026-05-02T14:14:27Z</time></trkpt><trkpt lat="45.87896694953155" lon="11.029534561646553"><ele>183.0</ele><time>2026-05-02T14:14:28Z</time></trkpt><trkpt lat="45.87886247988624" lon="11.029394490891363"><ele>183.0</ele><time>2026-05-02T14:14:29Z</time></trkpt><trkpt lat="45.87875476588665" lon="11.029251670156254"><ele>183.0</ele><time>2026-05-02T14:14:30Z</time></trkpt><trkpt lat="45.87864804542757" lon="11.029107178069559"><ele>183.0</ele><time>2026-05-02T14:14:31Z</time></trkpt><trkpt lat="45.87854369777606" lon="11.028965497080794"><ele>183.0</ele><time>2026-05-02T14:14:32Z</time></trkpt><trkpt lat="45.87844409380525" lon="11.028829336194462"><ele>183.0</ele><time>2026-05-02T14:14:33Z</time></trkpt><trkpt lat="45.87833875389994" lon="11.028688495613931"><ele>183.0</ele><time>2026-05-02T14:14:34Z</time></trkpt><trkpt lat="45.87823175170631" lon="11.028545084179196"><ele>183.0</ele><time>2026-05-02T14:14:35Z</time></trkpt><trkpt lat="45.87812302014003" lon="11.02840012272549"><ele>182.0</ele><time>2026-05-02T14:14:36Z</time></trkpt><trkpt lat="45.878014361970976" lon="11.028250190550388"><ele>181.0</ele><time>2026-05-02T14:14:37Z</time></trkpt><trkpt lat="45.87789947256758" lon="11.028090428340931"><ele>180.0</ele><time>2026-05-02T14:14:38Z</time></trkpt><trkpt lat="45.87777535443997" lon="11.027926484911124"><ele>180.0</ele><time>2026-05-02T14:14:39Z</time></trkpt><trkpt lat="45.87764329666591" lon="11.027750796915296"><ele>180.0</ele><time>2026-05-02T14:14:40Z</time></trkpt><trkpt lat="45.877509589584285" lon="11.027564658522714"><ele>180.0</ele><time>2026-05-02T14:14:41Z</time></trkpt><trkpt lat="45.877372096544924" lon="11.027376980844688"><ele>179.33333333333334</ele><time>2026-05-02T14:14:42Z</time></trkpt><trkpt lat="45.87723222050542" lon="11.027184970786529"><ele>178.66666666666669</ele><time>2026-05-02T14:14:43Z</time></trkpt><trkpt lat="45.877089898245295" lon="11.02698846064442"><ele>178.0</ele><time>2026-05-02T14:14:44Z</time></trkpt><trkpt lat="45.876946944445116" lon="11.026791708536953"><ele>178.0</ele><time>2026-05-02T14:14:45Z</time></trkpt><trkpt lat="45.876806654880966" lon="11.026602865043929"><ele>178.0</ele><time>2026-05-02T14:14:46Z</time></trkpt><trkpt lat="45.87667296415621" lon="11.026418454105182"><ele>178.0</ele><time>2026-05-02T14:14:47Z</time></trkpt><trkpt lat="45.876544182143284" lon="11.026235425514969"><ele>178.0</ele><time>2026-05-02T14:14:48Z</time></trkpt><trkpt lat="45.87641621478384" lon="11.026054095427755"><ele>178.0</ele><time>2026-05-02T14:14:49Z</time></trkpt><trkpt lat="45.876291930911165" lon="11.02586901319632"><ele>178.0</ele><time>2026-05-02T14:14:50Z</time></trkpt><trkpt lat="45.87616423997852" lon="11.02567793051071"><ele>177.66666666666669</ele><time>2026-05-02T14:14:51Z</time></trkpt><trkpt lat="45.87603429371116" lon="11.025478866980825"><ele>177.33333333333334</ele><time>2026-05-02T14:14:52Z</time></trkpt><trkpt lat="45.87590009052946" lon="11.02527239999601"><ele>177.0</ele><time>2026-05-02T14:14:53Z</time></trkpt><trkpt lat="45.87575981686409" lon="11.025058230229112"><ele>176.33333333333334</ele><time>2026-05-02T14:14:54Z</time></trkpt><trkpt lat="45.87562219201391" lon="11.024844984432606"><ele>175.66666666666669</ele><time>2026-05-02T14:14:55Z</time></trkpt><trkpt lat="45.87548998719665" lon="11.024640618292967"><ele>175.0</ele><time>2026-05-02T14:14:56Z</time></trkpt><trkpt lat="45.87536511686945" lon="11.02444937306396"><ele>175.0</ele><time>2026-05-02T14:14:57Z</time></trkpt><trkpt lat="45.875247511246805" lon="11.024268374571998"><ele>175.0</ele><time>2026-05-02T14:14:58Z</time></trkpt><trkpt lat="45.87513337159495" lon="11.024089810078996"><ele>175.0</ele><time>2026-05-02T14:14:59Z</time></trkpt><trkpt lat="45.87501635578227" lon="11.023907975145411"><ele>175.33333333333334</ele><time>2026-05-02T14:15:00Z</time></trkpt><trkpt lat="45.87490612971751" lon="11.023699825308668"><ele>175.66666666666666</ele><time>2026-05-02T14:15:01Z</time></trkpt><trkpt lat="45.874774886721795" lon="11.023490579483262"><ele>176.0</ele><time>2026-05-02T14:15:02Z</time></trkpt><trkpt lat="45.87463376170195" lon="11.023268596161254"><ele>174.5</ele><time>2026-05-02T14:15:03Z</time></trkpt><trkpt lat="45.87447551642551" lon="11.023020666672608"><ele>173.0</ele><time>2026-05-02T14:15:04Z</time></trkpt><trkpt lat="45.87431194106555" lon="11.022763392350475"><ele>173.0</ele><time>2026-05-02T14:15:05Z</time></trkpt><trkpt lat="45.87413256125588" lon="11.022507178333331"><ele>173.0</ele><time>2026-05-02T14:15:06Z</time></trkpt><trkpt lat="45.87396659677466" lon="11.022239530781807"><ele>173.5</ele><time>2026-05-02T14:15:07Z</time></trkpt><trkpt lat="45.87380556226233" lon="11.021980498528137"><ele>174.0</ele><time>2026-05-02T14:15:08Z</time></trkpt><trkpt lat="45.87364936145323" lon="11.021733462767733"><ele>173.66666666666666</ele><time>2026-05-02T14:15:09Z</time></trkpt><trkpt lat="45.87350506792905" lon="11.021500827259645"><ele>173.33333333333331</ele><time>2026-05-02T14:15:10Z</time></trkpt><trkpt lat="45.87336943354223" lon="11.021281078139582"><ele>173.0</ele><time>2026-05-02T14:15:11Z</time></trkpt><trkpt lat="45.87325101810158" lon="11.021100596255193"><ele>173.0</ele><time>2026-05-02T14:15:12Z</time></trkpt><trkpt lat="45.87314095804706" lon="11.0209586361995"><ele>173.0</ele><time>2026-05-02T14:15:13Z</time></trkpt><trkpt lat="45.87303415378944" lon="11.02086218833768"><ele>173.0</ele><time>2026-05-02T14:15:14Z</time></trkpt><trkpt lat="45.8729304012697" lon="11.020796812523795"><ele>173.0</ele><time>2026-05-02T14:15:15Z</time></trkpt><trkpt lat="45.87283830368576" lon="11.02075080365142"><ele>173.0</ele><time>2026-05-02T14:15:16Z</time></trkpt><trkpt lat="45.87275553549328" lon="11.02070744637056"><ele>173.0</ele><time>2026-05-02T14:15:17Z</time></trkpt><trkpt lat="45.87265807363938" lon="11.020635941897474"><ele>173.0</ele><time>2026-05-02T14:15:19Z</time></trkpt><trkpt lat="45.87262362789459" lon="11.020543417845213"><ele>173.0</ele><time>2026-05-02T14:15:20Z</time></trkpt><trkpt lat="45.87253696499875" lon="11.02043437948548"><ele>173.0</ele><time>2026-05-02T14:15:22Z</time></trkpt><trkpt lat="45.87246339551327" lon="11.02039212710441"><ele>173.0</ele><time>2026-05-02T14:15:23Z</time></trkpt><trkpt lat="45.872375724062934" lon="11.0203885004249"><ele>173.0</ele><time>2026-05-02T14:15:24Z</time></trkpt><trkpt lat="45.87229355412808" lon="11.020442032729948"><ele>173.0</ele><time>2026-05-02T14:15:25Z</time></trkpt><trkpt lat="45.87222297416136" lon="11.02053803073841"><ele>173.0</ele><time>2026-05-02T14:15:26Z</time></trkpt><trkpt lat="45.87215459427042" lon="11.020643703620683"><ele>173.0</ele><time>2026-05-02T14:15:27Z</time></trkpt><trkpt lat="45.87206136443143" lon="11.020722409810105"><ele>173.0</ele><time>2026-05-02T14:15:28Z</time></trkpt><trkpt lat="45.87194297397606" lon="11.020752704903039"><ele>173.0</ele><time>2026-05-02T14:15:29Z</time></trkpt><trkpt lat="45.87181067762806" lon="11.020770880496418"><ele>173.0</ele><time>2026-05-02T14:15:30Z</time></trkpt><trkpt lat="45.87166513310852" lon="11.020789547861764"><ele>173.0</ele><time>2026-05-02T14:15:31Z</time></trkpt><trkpt lat="45.87151460025037" lon="11.020806887551815"><ele>173.33333333333331</ele><time>2026-05-02T14:15:32Z</time></trkpt><trkpt lat="45.871352955151515" lon="11.020821050304447"><ele>173.66666666666666</ele><time>2026-05-02T14:15:33Z</time></trkpt><trkpt lat="45.8711855400953" lon="11.02082673690209"><ele>174.0</ele><time>2026-05-02T14:15:34Z</time></trkpt><trkpt lat="45.8710217722067" lon="11.020831817673765"><ele>174.75</ele><time>2026-05-02T14:15:35Z</time></trkpt><trkpt lat="45.870870961337275" lon="11.02084065423406"><ele>175.5</ele><time>2026-05-02T14:15:36Z</time></trkpt><trkpt lat="45.8707258678872" lon="11.020850034078585"><ele>176.25</ele><time>2026-05-02T14:15:37Z</time></trkpt><trkpt lat="45.87058811019157" lon="11.020858469731765"><ele>177.0</ele><time>2026-05-02T14:15:38Z</time></trkpt><trkpt lat="45.87045817942597" lon="11.020869569870825"><ele>177.0</ele><time>2026-05-02T14:15:39Z</time></trkpt><trkpt lat="45.87033493322769" lon="11.02087891548932"><ele>177.0</ele><time>2026-05-02T14:15:40Z</time></trkpt><trkpt lat="45.87021479906104" lon="11.020884603144271"><ele>177.0</ele><time>2026-05-02T14:15:41Z</time></trkpt><trkpt lat="45.87010298109519" lon="11.020888924894866"><ele>177.0</ele><time>2026-05-02T14:15:42Z</time></trkpt><trkpt lat="45.869997447150965" lon="11.02089695988923"><ele>176.39999999999998</ele><time>2026-05-02T14:15:43Z</time></trkpt><trkpt lat="45.86989109239167" lon="11.020901827154796"><ele>175.79999999999998</ele><time>2026-05-02T14:15:44Z</time></trkpt><trkpt lat="45.869782711481186" lon="11.020908625607237"><ele>175.2</ele><time>2026-05-02T14:15:45Z</time></trkpt><trkpt lat="45.869675244785036" lon="11.020915345196075"><ele>174.6</ele><time>2026-05-02T14:15:46Z</time></trkpt><trkpt lat="45.86956470531283" lon="11.020917273766976"><ele>174.0</ele><time>2026-05-02T14:15:47Z</time></trkpt><trkpt lat="45.869452869732214" lon="11.020921233318166"><ele>174.0</ele><time>2026-05-02T14:15:48Z</time></trkpt><trkpt lat="45.86933645157332" lon="11.020922447096194"><ele>174.0</ele><time>2026-05-02T14:15:49Z</time></trkpt><trkpt lat="45.86921425123384" lon="11.02092767281857"><ele>174.0</ele><time>2026-05-02T14:15:50Z</time></trkpt><trkpt lat="45.8690902384529" lon="11.020932482234763"><ele>174.0</ele><time>2026-05-02T14:15:51Z</time></trkpt><trkpt lat="45.86897798062791" lon="11.020938533554071"><ele>173.6</ele><time>2026-05-02T14:15:52Z</time></trkpt><trkpt lat="45.86886996189545" lon="11.020948293178238"><ele>173.2</ele><time>2026-05-02T14:15:53Z</time></trkpt><trkpt lat="45.86876927856572" lon="11.02095408668621"><ele>172.79999999999998</ele><time>2026-05-02T14:15:54Z</time></trkpt><trkpt lat="45.86867587044338" lon="11.020956644613605"><ele>172.39999999999998</ele><time>2026-05-02T14:15:55Z</time></trkpt><trkpt lat="45.868588806665606" lon="11.020954251235572"><ele>172.0</ele><time>2026-05-02T14:15:56Z</time></trkpt><trkpt lat="45.86851019990175" lon="11.020933299423051"><ele>172.0</ele><time>2026-05-02T14:15:57Z</time></trkpt><trkpt lat="45.86844031194526" lon="11.020898584969343"><ele>172.0</ele><time>2026-05-02T14:15:58Z</time></trkpt><trkpt lat="45.8683765578057" lon="11.020823953256032"><ele>172.0</ele><time>2026-05-02T14:15:59Z</time></trkpt><trkpt lat="45.86829198075594" lon="11.02081923971839"><ele>172.0</ele><time>2026-05-02T14:16:00Z</time></trkpt><trkpt lat="45.86820631428012" lon="11.020862139455314"><ele>172.0</ele><time>2026-05-02T14:16:01Z</time></trkpt><trkpt lat="45.86811492349679" lon="11.020835663204522"><ele>172.0</ele><time>2026-05-02T14:16:02Z</time></trkpt><trkpt lat="45.86801772302694" lon="11.02078549292593"><ele>172.0</ele><time>2026-05-02T14:16:03Z</time></trkpt><trkpt lat="45.8679106266365" lon="11.020736267583393"><ele>172.0</ele><time>2026-05-02T14:16:04Z</time></trkpt><trkpt lat="45.86779475812756" lon="11.020676419512535"><ele>172.0</ele><time>2026-05-02T14:16:05Z</time></trkpt><trkpt lat="45.86766843527937" lon="11.020604870753834"><ele>172.0</ele><time>2026-05-02T14:16:06Z</time></trkpt><trkpt lat="45.86753581620983" lon="11.020525975570832"><ele>171.66666666666669</ele><time>2026-05-02T14:16:07Z</time></trkpt><trkpt lat="45.86739751874112" lon="11.020422822132181"><ele>171.33333333333334</ele><time>2026-05-02T14:16:08Z</time></trkpt><trkpt lat="45.867256809161454" lon="11.020309787260183"><ele>171.0</ele><time>2026-05-02T14:16:09Z</time></trkpt><trkpt lat="45.86711205661863" lon="11.020177660708786"><ele>171.0</ele><time>2026-05-02T14:16:10Z</time></trkpt><trkpt lat="45.86698596128746" lon="11.020041666514482"><ele>171.0</ele><time>2026-05-02T14:16:11Z</time></trkpt><trkpt lat="45.86687139635452" lon="11.019916121375806"><ele>171.0</ele><time>2026-05-02T14:16:12Z</time></trkpt><trkpt lat="45.86675793894252" lon="11.019803360964051"><ele>171.0</ele><time>2026-05-02T14:16:13Z</time></trkpt><trkpt lat="45.86664898071206" lon="11.01969289402871"><ele>171.0</ele><time>2026-05-02T14:16:14Z</time></trkpt><trkpt lat="45.86654221066599" lon="11.01958697422268"><ele>171.0</ele><time>2026-05-02T14:16:15Z</time></trkpt><trkpt lat="45.86643729529692" lon="11.019480061353505"><ele>171.0</ele><time>2026-05-02T14:16:16Z</time></trkpt><trkpt lat="45.866339395240495" lon="11.019376449330732"><ele>171.0</ele><time>2026-05-02T14:16:17Z</time></trkpt><trkpt lat="45.86624353993466" lon="11.019281489853743"><ele>171.0</ele><time>2026-05-02T14:16:18Z</time></trkpt><trkpt lat="45.86614164209557" lon="11.019182615103945"><ele>171.0</ele><time>2026-05-02T14:16:19Z</time></trkpt><trkpt lat="45.86603981990381" lon="11.019076828640918"><ele>171.0</ele><time>2026-05-02T14:16:20Z</time></trkpt><trkpt lat="45.86593495312972" lon="11.018972221217577"><ele>171.0</ele><time>2026-05-02T14:16:21Z</time></trkpt><trkpt lat="45.865827932205114" lon="11.018865538219258"><ele>171.0</ele><time>2026-05-02T14:16:22Z</time></trkpt><trkpt lat="45.86572373573916" lon="11.018754729511246"><ele>171.0</ele><time>2026-05-02T14:16:23Z</time></trkpt><trkpt lat="45.865618392526045" lon="11.018647290420274"><ele>171.0</ele><time>2026-05-02T14:16:24Z</time></trkpt><trkpt lat="45.86550794946694" lon="11.018538095943866"><ele>171.0</ele><time>2026-05-02T14:16:25Z</time></trkpt><trkpt lat="45.86539751782582" lon="11.018426058060346"><ele>171.25</ele><time>2026-05-02T14:16:26Z</time></trkpt><trkpt lat="45.86528592433286" lon="11.018312958182022"><ele>171.5</ele><time>2026-05-02T14:16:27Z</time></trkpt><trkpt lat="45.86517315498617" lon="11.018191940879529"><ele>171.75</ele><time>2026-05-02T14:16:28Z</time></trkpt><trkpt lat="45.865053917110814" lon="11.01807143761774"><ele>172.0</ele><time>2026-05-02T14:16:29Z</time></trkpt><trkpt lat="45.86493076925188" lon="11.017949303827367"><ele>172.0</ele><time>2026-05-02T14:16:30Z</time></trkpt><trkpt lat="45.86480812171913" lon="11.017825105012458"><ele>172.0</ele><time>2026-05-02T14:16:31Z</time></trkpt><trkpt lat="45.86469261786258" lon="11.01770468156651"><ele>172.0</ele><time>2026-05-02T14:16:32Z</time></trkpt><trkpt lat="45.864586611885834" lon="11.01759122332738"><ele>172.0</ele><time>2026-05-02T14:16:33Z</time></trkpt><trkpt lat="45.8644791242303" lon="11.017477904298266"><ele>172.0</ele><time>2026-05-02T14:16:34Z</time></trkpt><trkpt lat="45.86437851174062" lon="11.017358015245167"><ele>172.0</ele><time>2026-05-02T14:16:35Z</time></trkpt><trkpt lat="45.86429369159012" lon="11.017217578434918"><ele>172.0</ele><time>2026-05-02T14:16:36Z</time></trkpt><trkpt lat="45.86422032880843" lon="11.017059394736947"><ele>172.0</ele><time>2026-05-02T14:16:37Z</time></trkpt><trkpt lat="45.864167948851815" lon="11.01687090915954"><ele>172.25</ele><time>2026-05-02T14:16:38Z</time></trkpt><trkpt lat="45.86413507871072" lon="11.01666861520921"><ele>172.5</ele><time>2026-05-02T14:16:39Z</time></trkpt><trkpt lat="45.864123555870336" lon="11.016458229248789"><ele>172.75</ele><time>2026-05-02T14:16:40Z</time></trkpt><trkpt lat="45.8641293365834" lon="11.016242844203672"><ele>173.0</ele><time>2026-05-02T14:16:41Z</time></trkpt><trkpt lat="45.864161869994696" lon="11.016030695240556"><ele>173.0</ele><time>2026-05-02T14:16:42Z</time></trkpt><trkpt lat="45.864208094312026" lon="11.015826810136156"><ele>173.0</ele><time>2026-05-02T14:16:43Z</time></trkpt><trkpt lat="45.86426344060124" lon="11.015622922274819"><ele>173.0</ele><time>2026-05-02T14:16:44Z</time></trkpt><trkpt lat="45.86432364533063" lon="11.01541891589243"><ele>173.0</ele><time>2026-05-02T14:16:45Z</time></trkpt><trkpt lat="45.86438457548464" lon="11.015207163365318"><ele>173.0</ele><time>2026-05-02T14:16:46Z</time></trkpt><trkpt lat="45.864446991317934" lon="11.0149892678346"><ele>173.0</ele><time>2026-05-02T14:16:47Z</time></trkpt><trkpt lat="45.864512538534754" lon="11.01476979427922"><ele>173.33333333333331</ele><time>2026-05-02T14:16:48Z</time></trkpt><trkpt lat="45.86457867600907" lon="11.014546607807734"><ele>173.66666666666666</ele><time>2026-05-02T14:16:49Z</time></trkpt><trkpt lat="45.864644173659556" lon="11.01431325315979"><ele>174.0</ele><time>2026-05-02T14:16:50Z</time></trkpt><trkpt lat="45.86471373943878" lon="11.01408280681351"><ele>175.66666666666666</ele><time>2026-05-02T14:16:51Z</time></trkpt><trkpt lat="45.86478404577208" lon="11.013846696008159"><ele>177.33333333333331</ele><time>2026-05-02T14:16:52Z</time></trkpt><trkpt lat="45.864854045569814" lon="11.013602632902968"><ele>179.0</ele><time>2026-05-02T14:16:53Z</time></trkpt><trkpt lat="45.864927441438454" lon="11.01335609877451"><ele>177.66666666666666</ele><time>2026-05-02T14:16:54Z</time></trkpt><trkpt lat="45.86499997424141" lon="11.013109316137216"><ele>176.33333333333334</ele><time>2026-05-02T14:16:55Z</time></trkpt><trkpt lat="45.86507001505084" lon="11.012870573006175"><ele>175.0</ele><time>2026-05-02T14:16:56Z</time></trkpt><trkpt lat="45.86514136375737" lon="11.012636897072943"><ele>173.0</ele><time>2026-05-02T14:16:57Z</time></trkpt><trkpt lat="45.86520192360861" lon="11.012394891969192"><ele>171.0</ele><time>2026-05-02T14:16:58Z</time></trkpt><trkpt lat="45.86525360556326" lon="11.012140748523"><ele>169.0</ele><time>2026-05-02T14:16:59Z</time></trkpt><trkpt lat="45.86529983260292" lon="11.0118757173032"><ele>169.0</ele><time>2026-05-02T14:17:00Z</time></trkpt><trkpt lat="45.865337877100046" lon="11.011611911755427"><ele>169.0</ele><time>2026-05-02T14:17:01Z</time></trkpt><trkpt lat="45.86536296527916" lon="11.01135530834857"><ele>169.0</ele><time>2026-05-02T14:17:02Z</time></trkpt><trkpt lat="45.865380749423935" lon="11.01110744492042"><ele>169.0</ele><time>2026-05-02T14:17:03Z</time></trkpt><trkpt lat="45.86539392509781" lon="11.010866290647874"><ele>169.0</ele><time>2026-05-02T14:17:04Z</time></trkpt><trkpt lat="45.865403095424035" lon="11.010624600963034"><ele>169.0</ele><time>2026-05-02T14:17:05Z</time></trkpt><trkpt lat="45.86541090384681" lon="11.010375025235584"><ele>169.0</ele><time>2026-05-02T14:17:06Z</time></trkpt><trkpt lat="45.86542287007119" lon="11.010120080855515"><ele>169.0</ele><time>2026-05-02T14:17:07Z</time></trkpt><trkpt lat="45.86543483635783" lon="11.009881440365733"><ele>169.0</ele><time>2026-05-02T14:17:08Z</time></trkpt><trkpt lat="45.86544418990475" lon="11.009658243221793"><ele>169.0</ele><time>2026-05-02T14:17:09Z</time></trkpt><trkpt lat="45.86545436891584" lon="11.009448238951666"><ele>169.0</ele><time>2026-05-02T14:17:10Z</time></trkpt><trkpt lat="45.86546832642475" lon="11.009268410644484"><ele>169.0</ele><time>2026-05-02T14:17:11Z</time></trkpt><trkpt lat="45.8654932691069" lon="11.009106361538606"><ele>169.0</ele><time>2026-05-02T14:17:12Z</time></trkpt><trkpt lat="45.86554023273901" lon="11.008960962102286"><ele>169.0</ele><time>2026-05-02T14:17:13Z</time></trkpt><trkpt lat="45.86559629472143" lon="11.00882291008957"><ele>169.0</ele><time>2026-05-02T14:17:14Z</time></trkpt><trkpt lat="45.86565998794287" lon="11.008691134395791"><ele>169.0</ele><time>2026-05-02T14:17:15Z</time></trkpt><trkpt lat="45.86571301939725" lon="11.008585107848772"><ele>169.0</ele><time>2026-05-02T14:17:16Z</time></trkpt><trkpt lat="45.86575730543459" lon="11.008510717926086"><ele>169.0</ele><time>2026-05-02T14:17:17Z</time></trkpt><trkpt lat="45.865825023295585" lon="11.008410225205917"><ele>169.0</ele><time>2026-05-02T14:17:19Z</time></trkpt><trkpt lat="45.865880604775356" lon="11.008335505431724"><ele>169.0</ele><time>2026-05-02T14:17:22Z</time></trkpt><trkpt lat="45.86595553992603" lon="11.008270488667048"><ele>169.0</ele><time>2026-05-02T14:17:25Z</time></trkpt><trkpt lat="45.8660891188195" lon="11.008266609532855"><ele>169.0</ele><time>2026-05-02T14:17:27Z</time></trkpt><trkpt lat="45.86616979683002" lon="11.008272205866291"><ele>169.0</ele><time>2026-05-02T14:17:28Z</time></trkpt><trkpt lat="45.86625378443851" lon="11.0082550815745"><ele>168.83333333333334</ele><time>2026-05-02T14:17:29Z</time></trkpt><trkpt lat="45.86633215073137" lon="11.008203675550847"><ele>168.66666666666669</ele><time>2026-05-02T14:17:30Z</time></trkpt><trkpt lat="45.86640049235937" lon="11.008119747884596"><ele>168.5</ele><time>2026-05-02T14:17:31Z</time></trkpt><trkpt lat="45.86645004698131" lon="11.00802030758219"><ele>168.33333333333334</ele><time>2026-05-02T14:17:32Z</time></trkpt><trkpt lat="45.86647771455902" lon="11.007909513668979"><ele>168.16666666666666</ele><time>2026-05-02T14:17:33Z</time></trkpt><trkpt lat="45.866469120452386" lon="11.007777399367107"><ele>168.0</ele><time>2026-05-02T14:17:34Z</time></trkpt><trkpt lat="45.86643291014948" lon="11.007631685827347"><ele>167.75</ele><time>2026-05-02T14:17:35Z</time></trkpt><trkpt lat="45.86636205383388" lon="11.00748738233837"><ele>167.5</ele><time>2026-05-02T14:17:36Z</time></trkpt><trkpt lat="45.86625745555827" lon="11.007303422347182"><ele>167.25</ele><time>2026-05-02T14:17:37Z</time></trkpt><trkpt lat="45.86615641120448" lon="11.007126094583775"><ele>167.0</ele><time>2026-05-02T14:17:38Z</time></trkpt><trkpt lat="45.866054563258416" lon="11.006953488003143"><ele>167.66666666666666</ele><time>2026-05-02T14:17:39Z</time></trkpt><trkpt lat="45.86594345601108" lon="11.006788156200106"><ele>168.33333333333334</ele><time>2026-05-02T14:17:40Z</time></trkpt><trkpt lat="45.86582170852918" lon="11.006624225523302"><ele>169.0</ele><time>2026-05-02T14:17:41Z</time></trkpt><trkpt lat="45.8657013692067" lon="11.006454036049792"><ele>169.33333333333334</ele><time>2026-05-02T14:17:42Z</time></trkpt><trkpt lat="45.86558886642863" lon="11.00626926038319"><ele>169.66666666666666</ele><time>2026-05-02T14:17:43Z</time></trkpt><trkpt lat="45.865482664790896" lon="11.00607563894381"><ele>170.0</ele><time>2026-05-02T14:17:44Z</time></trkpt><trkpt lat="45.865376688632814" lon="11.005880851228852"><ele>170.0</ele><time>2026-05-02T14:17:45Z</time></trkpt><trkpt lat="45.86527165800373" lon="11.005684675415992"><ele>170.0</ele><time>2026-05-02T14:17:46Z</time></trkpt><trkpt lat="45.86516599028656" lon="11.005490563613153"><ele>170.0</ele><time>2026-05-02T14:17:47Z</time></trkpt><trkpt lat="45.865071056607434" lon="11.005311842055644"><ele>170.25</ele><time>2026-05-02T14:17:48Z</time></trkpt><trkpt lat="45.86498015222142" lon="11.005140979075149"><ele>170.5</ele><time>2026-05-02T14:17:49Z</time></trkpt><trkpt lat="45.86488794038155" lon="11.00497358150182"><ele>170.75</ele><time>2026-05-02T14:17:50Z</time></trkpt><trkpt lat="45.86479669183036" lon="11.004802212175717"><ele>171.0</ele><time>2026-05-02T14:17:51Z</time></trkpt><trkpt lat="45.86470250066743" lon="11.004631098244413"><ele>171.0</ele><time>2026-05-02T14:17:52Z</time></trkpt><trkpt lat="45.86460334226163" lon="11.00446172682079"><ele>171.0</ele><time>2026-05-02T14:17:53Z</time></trkpt><trkpt lat="45.86450218274466" lon="11.004301806972832"><ele>171.0</ele><time>2026-05-02T14:17:54Z</time></trkpt><trkpt lat="45.86440609717734" lon="11.00416628087444"><ele>171.0</ele><time>2026-05-02T14:17:55Z</time></trkpt><trkpt lat="45.864312161066714" lon="11.00403649259124"><ele>170.75</ele><time>2026-05-02T14:17:56Z</time></trkpt><trkpt lat="45.86421960839499" lon="11.003909057840186"><ele>170.5</ele><time>2026-05-02T14:17:57Z</time></trkpt><trkpt lat="45.8641290699848" lon="11.003783200210759"><ele>170.25</ele><time>2026-05-02T14:17:58Z</time></trkpt><trkpt lat="45.86403794281608" lon="11.003657766505246"><ele>170.0</ele><time>2026-05-02T14:17:59Z</time></trkpt><trkpt lat="45.8639444141158" lon="11.00353164849941"><ele>170.0</ele><time>2026-05-02T14:18:00Z</time></trkpt><trkpt lat="45.86384720995559" lon="11.003412831232453"><ele>170.0</ele><time>2026-05-02T14:18:01Z</time></trkpt><trkpt lat="45.86374772480321" lon="11.003305063772059"><ele>170.0</ele><time>2026-05-02T14:18:02Z</time></trkpt><trkpt lat="45.86365102351245" lon="11.003213051844675"><ele>170.0</ele><time>2026-05-02T14:18:03Z</time></trkpt><trkpt lat="45.86354582016459" lon="11.003134842855564"><ele>169.5</ele><time>2026-05-02T14:18:04Z</time></trkpt><trkpt lat="45.86343178514227" lon="11.003070443100661"><ele>169.0</ele><time>2026-05-02T14:18:05Z</time></trkpt><trkpt lat="45.86331324793749" lon="11.00300586070373"><ele>168.5</ele><time>2026-05-02T14:18:06Z</time></trkpt><trkpt lat="45.86318967317307" lon="11.0029413333236"><ele>168.0</ele><time>2026-05-02T14:18:07Z</time></trkpt><trkpt lat="45.863064337221616" lon="11.00287130364489"><ele>168.0</ele><time>2026-05-02T14:18:08Z</time></trkpt><trkpt lat="45.86294063608577" lon="11.00279882423391"><ele>168.0</ele><time>2026-05-02T14:18:09Z</time></trkpt><trkpt lat="45.86281672371754" lon="11.002731671722252"><ele>168.0</ele><time>2026-05-02T14:18:10Z</time></trkpt><trkpt lat="45.86269889633038" lon="11.002669329982357"><ele>168.0</ele><time>2026-05-02T14:18:11Z</time></trkpt><trkpt lat="45.862592117050795" lon="11.00261693838648"><ele>168.0</ele><time>2026-05-02T14:18:12Z</time></trkpt><trkpt lat="45.862498289451" lon="11.002569584021305"><ele>168.0</ele><time>2026-05-02T14:18:13Z</time></trkpt><trkpt lat="45.86241821118746" lon="11.002528324231733"><ele>168.0</ele><time>2026-05-02T14:18:14Z</time></trkpt><trkpt lat="45.86234028654797" lon="11.002486120506498"><ele>168.0</ele><time>2026-05-02T14:18:15Z</time></trkpt><trkpt lat="45.86225799300542" lon="11.002443129391613"><ele>168.0</ele><time>2026-05-02T14:18:16Z</time></trkpt><trkpt lat="45.86217681993254" lon="11.002401050070475"><ele>168.0</ele><time>2026-05-02T14:18:17Z</time></trkpt><trkpt lat="45.86210696746819" lon="11.002361826525068"><ele>168.0</ele><time>2026-05-02T14:18:18Z</time></trkpt><trkpt lat="45.86199896988403" lon="11.002291452699271"><ele>168.0</ele><time>2026-05-02T14:18:20Z</time></trkpt><trkpt lat="45.861919769783924" lon="11.002199358664043"><ele>168.0</ele><time>2026-05-02T14:18:22Z</time></trkpt><trkpt lat="45.861870584243775" lon="11.002046274845277"><ele>168.0</ele><time>2026-05-02T14:18:24Z</time></trkpt><trkpt lat="45.86182322977694" lon="11.00191110164067"><ele>168.0</ele><time>2026-05-02T14:18:26Z</time></trkpt><trkpt lat="45.861728525889355" lon="11.001816115179992"><ele>168.16666666666666</ele><time>2026-05-02T14:18:28Z</time></trkpt><trkpt lat="45.86166117594233" lon="11.001803728036748"><ele>168.33333333333334</ele><time>2026-05-02T14:18:29Z</time></trkpt><trkpt lat="45.86155984121009" lon="11.001844298792987"><ele>168.5</ele><time>2026-05-02T14:18:31Z</time></trkpt><trkpt lat="45.86150732766498" lon="11.00189590852585"><ele>168.66666666666669</ele><time>2026-05-02T14:18:32Z</time></trkpt><trkpt lat="45.861437928667996" lon="11.001942769893144"><ele>168.83333333333334</ele><time>2026-05-02T14:18:33Z</time></trkpt><trkpt lat="45.86135128634286" lon="11.001957088110117"><ele>169.0</ele><time>2026-05-02T14:18:34Z</time></trkpt><trkpt lat="45.86125512799006" lon="11.001935751851564"><ele>169.0</ele><time>2026-05-02T14:18:35Z</time></trkpt><trkpt lat="45.86115078299046" lon="11.001868790870432"><ele>169.0</ele><time>2026-05-02T14:18:36Z</time></trkpt><trkpt lat="45.86103678945101" lon="11.001791998155547"><ele>169.0</ele><time>2026-05-02T14:18:37Z</time></trkpt><trkpt lat="45.86090657120663" lon="11.001698156273788"><ele>169.0</ele><time>2026-05-02T14:18:38Z</time></trkpt><trkpt lat="45.86076804265563" lon="11.001602195023082"><ele>168.66666666666669</ele><time>2026-05-02T14:18:39Z</time></trkpt><trkpt lat="45.86063201133895" lon="11.00149530737266"><ele>168.33333333333334</ele><time>2026-05-02T14:18:40Z</time></trkpt><trkpt lat="45.86049626877845" lon="11.001387979295666"><ele>168.0</ele><time>2026-05-02T14:18:41Z</time></trkpt><trkpt lat="45.86035999640074" lon="11.0012837575296"><ele>168.0</ele><time>2026-05-02T14:18:42Z</time></trkpt><trkpt lat="45.8602213982704" lon="11.001187209389794"><ele>168.0</ele><time>2026-05-02T14:18:43Z</time></trkpt><trkpt lat="45.86007949690916" lon="11.001099579856328"><ele>168.0</ele><time>2026-05-02T14:18:44Z</time></trkpt><trkpt lat="45.859931266250214" lon="11.001027003937926"><ele>168.33333333333334</ele><time>2026-05-02T14:18:45Z</time></trkpt><trkpt lat="45.85977593684876" lon="11.0009646287583"><ele>168.66666666666669</ele><time>2026-05-02T14:18:46Z</time></trkpt><trkpt lat="45.859615889745356" lon="11.000909631357118"><ele>169.0</ele><time>2026-05-02T14:18:47Z</time></trkpt><trkpt lat="45.859448300126736" lon="11.00087316092033"><ele>168.66666666666669</ele><time>2026-05-02T14:18:48Z</time></trkpt><trkpt lat="45.85927493499836" lon="11.0008480626128"><ele>168.33333333333334</ele><time>2026-05-02T14:18:49Z</time></trkpt><trkpt lat="45.85910025535283" lon="11.000836292901084"><ele>168.0</ele><time>2026-05-02T14:18:50Z</time></trkpt><trkpt lat="45.85892596244934" lon="11.000828922832477"><ele>167.33333333333334</ele><time>2026-05-02T14:18:51Z</time></trkpt><trkpt lat="45.85875075701258" lon="11.000826081671464"><ele>166.66666666666669</ele><time>2026-05-02T14:18:52Z</time></trkpt><trkpt lat="45.85857444917498" lon="11.000823703457897"><ele>166.0</ele><time>2026-05-02T14:18:53Z</time></trkpt><trkpt lat="45.858398691158236" lon="11.000820252314075"><ele>165.33333333333334</ele><time>2026-05-02T14:18:54Z</time></trkpt><trkpt lat="45.85822973688308" lon="11.000819770075445"><ele>164.66666666666666</ele><time>2026-05-02T14:18:55Z</time></trkpt><trkpt lat="45.85805034457238" lon="11.000826331430932"><ele>164.0</ele><time>2026-05-02T14:18:56Z</time></trkpt><trkpt lat="45.8578650444363" lon="11.000856762790509"><ele>165.66666666666666</ele><time>2026-05-02T14:18:57Z</time></trkpt><trkpt lat="45.8576768581183" lon="11.000928496667594"><ele>167.33333333333334</ele><time>2026-05-02T14:18:58Z</time></trkpt><trkpt lat="45.85748009411864" lon="11.001029172079887"><ele>169.0</ele><time>2026-05-02T14:18:59Z</time></trkpt><trkpt lat="45.857287388478795" lon="11.001140532869345"><ele>169.0</ele><time>2026-05-02T14:19:00Z</time></trkpt><trkpt lat="45.85709250044059" lon="11.001249897615875"><ele>169.0</ele><time>2026-05-02T14:19:01Z</time></trkpt><trkpt lat="45.856898342917155" lon="11.001365720464287"><ele>169.0</ele><time>2026-05-02T14:19:02Z</time></trkpt><trkpt lat="45.856710033646266" lon="11.001477421498377"><ele>170.0</ele><time>2026-05-02T14:19:03Z</time></trkpt><trkpt lat="45.85652559830768" lon="11.001579364463476"><ele>171.0</ele><time>2026-05-02T14:19:04Z</time></trkpt><trkpt lat="45.85634638916826" lon="11.001670871630196"><ele>172.0</ele><time>2026-05-02T14:19:05Z</time></trkpt><trkpt lat="45.85617379030534" lon="11.001743250728616"><ele>172.0</ele><time>2026-05-02T14:19:06Z</time></trkpt><trkpt lat="45.85599637552687" lon="11.001805670465416"><ele>172.0</ele><time>2026-05-02T14:19:07Z</time></trkpt><trkpt lat="45.8558100082256" lon="11.001859576058818"><ele>172.0</ele><time>2026-05-02T14:19:08Z</time></trkpt><trkpt lat="45.855623993743556" lon="11.00188057006922"><ele>171.0</ele><time>2026-05-02T14:19:09Z</time></trkpt><trkpt lat="45.85544045651894" lon="11.0018947925378"><ele>170.0</ele><time>2026-05-02T14:19:10Z</time></trkpt><trkpt lat="45.85523567407208" lon="11.001957758927993"><ele>169.0</ele><time>2026-05-02T14:19:11Z</time></trkpt><trkpt lat="45.85504429042098" lon="11.001953122522425"><ele>168.33333333333334</ele><time>2026-05-02T14:19:12Z</time></trkpt><trkpt lat="45.85484325903285" lon="11.00191238798645"><ele>167.66666666666666</ele><time>2026-05-02T14:19:13Z</time></trkpt><trkpt lat="45.854624762788745" lon="11.001869007841927"><ele>167.0</ele><time>2026-05-02T14:19:14Z</time></trkpt><trkpt lat="45.85440258824091" lon="11.001818235728337"><ele>166.0</ele><time>2026-05-02T14:19:15Z</time></trkpt><trkpt lat="45.85419278841319" lon="11.001766147873422"><ele>165.0</ele><time>2026-05-02T14:19:16Z</time></trkpt><trkpt lat="45.85398333946811" lon="11.001737800205438"><ele>164.0</ele><time>2026-05-02T14:19:17Z</time></trkpt><trkpt lat="45.85377309244891" lon="11.001687988516899"><ele>161.0</ele><time>2026-05-02T14:19:18Z</time></trkpt><trkpt lat="45.853539929048324" lon="11.001662165255773"><ele>158.0</ele><time>2026-05-02T14:19:19Z</time></trkpt><trkpt lat="45.85331972155828" lon="11.001651689809425"><ele>158.0</ele><time>2026-05-02T14:19:20Z</time></trkpt><trkpt lat="45.85311162596055" lon="11.001649620544262"><ele>158.0</ele><time>2026-05-02T14:19:21Z</time></trkpt><trkpt lat="45.85291803820206" lon="11.001639900205115"><ele>158.0</ele><time>2026-05-02T14:19:22Z</time></trkpt><trkpt lat="45.8527426212539" lon="11.00162438880412"><ele>157.66666666666666</ele><time>2026-05-02T14:19:23Z</time></trkpt><trkpt lat="45.85257324499088" lon="11.001607917691876"><ele>157.33333333333334</ele><time>2026-05-02T14:19:24Z</time></trkpt><trkpt lat="45.852405713234305" lon="11.001596389310333"><ele>157.0</ele><time>2026-05-02T14:19:25Z</time></trkpt><trkpt lat="45.852244485114014" lon="11.00159377128275"><ele>157.0</ele><time>2026-05-02T14:19:26Z</time></trkpt><trkpt lat="45.85209587793479" lon="11.001599066865415"><ele>157.0</ele><time>2026-05-02T14:19:27Z</time></trkpt><trkpt lat="45.851955793017744" lon="11.00162165198223"><ele>157.0</ele><time>2026-05-02T14:19:28Z</time></trkpt><trkpt lat="45.8518265843646" lon="11.001649214879253"><ele>157.0</ele><time>2026-05-02T14:19:29Z</time></trkpt><trkpt lat="45.85168619018144" lon="11.001686088034731"><ele>157.75</ele><time>2026-05-02T14:19:30Z</time></trkpt><trkpt lat="45.85154400082485" lon="11.00171810580193"><ele>158.5</ele><time>2026-05-02T14:19:31Z</time></trkpt><trkpt lat="45.851413571040396" lon="11.001743897962042"><ele>159.25</ele><time>2026-05-02T14:19:32Z</time></trkpt><trkpt lat="45.851298208751636" lon="11.001746555246266"><ele>160.0</ele><time>2026-05-02T14:19:33Z</time></trkpt><trkpt lat="45.8511844858231" lon="11.00173889146079"><ele>160.0</ele><time>2026-05-02T14:19:34Z</time></trkpt><trkpt lat="45.851080765661415" lon="11.001693512734274"><ele>160.0</ele><time>2026-05-02T14:19:35Z</time></trkpt><trkpt lat="45.85099985386961" lon="11.00160964878145"><ele>160.0</ele><time>2026-05-02T14:19:36Z</time></trkpt><trkpt lat="45.85094004169141" lon="11.00152391875079"><ele>160.0</ele><time>2026-05-02T14:19:37Z</time></trkpt><trkpt lat="45.850895517606716" lon="11.00143445038678"><ele>160.0</ele><time>2026-05-02T14:19:38Z</time></trkpt><trkpt lat="45.85084368230243" lon="11.001323418526637"><ele>159.8</ele><time>2026-05-02T14:19:39Z</time></trkpt><trkpt lat="45.85077760540363" lon="11.001208489697614"><ele>159.6</ele><time>2026-05-02T14:19:40Z</time></trkpt><trkpt lat="45.85068763268276" lon="11.00110808445197"><ele>159.4</ele><time>2026-05-02T14:19:41Z</time></trkpt><trkpt lat="45.85058236320184" lon="11.001044945180533"><ele>159.2</ele><time>2026-05-02T14:19:42Z</time></trkpt><trkpt lat="45.85047070047572" lon="11.001017823781597"><ele>159.0</ele><time>2026-05-02T14:19:43Z</time></trkpt><trkpt lat="45.85035512793396" lon="11.001045920424696"><ele>159.0</ele><time>2026-05-02T14:19:44Z</time></trkpt><trkpt lat="45.850244496813936" lon="11.001109907202725"><ele>159.0</ele><time>2026-05-02T14:19:45Z</time></trkpt><trkpt lat="45.85014502222396" lon="11.001205816045214"><ele>159.0</ele><time>2026-05-02T14:19:46Z</time></trkpt><trkpt lat="45.85006325152265" lon="11.001333331964648"><ele>159.0</ele><time>2026-05-02T14:19:47Z</time></trkpt><trkpt lat="45.85001157636409" lon="11.0014881232886"><ele>159.0</ele><time>2026-05-02T14:19:48Z</time></trkpt><trkpt lat="45.84998769527014" lon="11.001663651891961"><ele>159.0</ele><time>2026-05-02T14:19:49Z</time></trkpt><trkpt lat="45.849996556134485" lon="11.00185025138031"><ele>159.0</ele><time>2026-05-02T14:19:50Z</time></trkpt><trkpt lat="45.85003783141703" lon="11.002026699494989"><ele>159.0</ele><time>2026-05-02T14:19:51Z</time></trkpt><trkpt lat="45.850080259406084" lon="11.002176486563293"><ele>159.0</ele><time>2026-05-02T14:19:52Z</time></trkpt><trkpt lat="45.85013054143778" lon="11.00224665247729"><ele>159.0</ele><time>2026-05-02T14:19:53Z</time></trkpt><trkpt lat="45.850037612833646" lon="11.002399458855056"><ele>159.0</ele><time>2026-05-02T14:19:54Z</time></trkpt><trkpt lat="45.849952274736985" lon="11.002424952612792"><ele>159.0</ele><time>2026-05-02T14:19:55Z</time></trkpt><trkpt lat="45.84987119579044" lon="11.002407221256478"><ele>159.0</ele><time>2026-05-02T14:19:56Z</time></trkpt><trkpt lat="45.84976252589721" lon="11.002417366125803"><ele>159.0</ele><time>2026-05-02T14:19:57Z</time></trkpt><trkpt lat="45.84963670676133" lon="11.002425310900396"><ele>159.0</ele><time>2026-05-02T14:19:58Z</time></trkpt><trkpt lat="45.8495035811952" lon="11.002432049132224"><ele>159.0</ele><time>2026-05-02T14:19:59Z</time></trkpt><trkpt lat="45.849384786479135" lon="11.002436915272614"><ele>159.0</ele><time>2026-05-02T14:20:00Z</time></trkpt><trkpt lat="45.8492785726263" lon="11.002437463227109"><ele>159.0</ele><time>2026-05-02T14:20:01Z</time></trkpt><trkpt lat="45.84917408386141" lon="11.002411543133467"><ele>159.0</ele><time>2026-05-02T14:20:02Z</time></trkpt><trkpt lat="45.84906947529668" lon="11.002354002473119"><ele>159.0</ele><time>2026-05-02T14:20:03Z</time></trkpt><trkpt lat="45.84896271440706" lon="11.002302993266134"><ele>159.0</ele><time>2026-05-02T14:20:04Z</time></trkpt><trkpt lat="45.8488691340891" lon="11.002243318145494"><ele>159.0</ele><time>2026-05-02T14:20:05Z</time></trkpt><trkpt lat="45.848777224881154" lon="11.00222545934864"><ele>159.0</ele><time>2026-05-02T14:20:06Z</time></trkpt><trkpt lat="45.84868512005128" lon="11.002267801154028"><ele>159.0</ele><time>2026-05-02T14:20:07Z</time></trkpt><trkpt lat="45.848610081731046" lon="11.002372432993297"><ele>159.0</ele><time>2026-05-02T14:20:08Z</time></trkpt><trkpt lat="45.848567055743295" lon="11.002514302395603"><ele>159.0</ele><time>2026-05-02T14:20:09Z</time></trkpt><trkpt lat="45.848566141083616" lon="11.002672596243599"><ele>159.0</ele><time>2026-05-02T14:20:10Z</time></trkpt><trkpt lat="45.8485860490805" lon="11.002830969319586"><ele>159.0</ele><time>2026-05-02T14:20:11Z</time></trkpt><trkpt lat="45.84856768749903" lon="11.00300433101708"><ele>159.0</ele><time>2026-05-02T14:20:12Z</time></trkpt><trkpt lat="45.84855987612619" lon="11.003172827742345"><ele>159.0</ele><time>2026-05-02T14:20:13Z</time></trkpt><trkpt lat="45.84849786253185" lon="11.003295016432498"><ele>159.0</ele><time>2026-05-02T14:20:14Z</time></trkpt><trkpt lat="45.8484152752732" lon="11.003387678022598"><ele>159.5</ele><time>2026-05-02T14:20:15Z</time></trkpt><trkpt lat="45.84830869832916" lon="11.003418870345634"><ele>160.0</ele><time>2026-05-02T14:20:16Z</time></trkpt><trkpt lat="45.84815884679655" lon="11.003426852481274"><ele>160.5</ele><time>2026-05-02T14:20:17Z</time></trkpt><trkpt lat="45.84798970527396" lon="11.003450360512215"><ele>161.0</ele><time>2026-05-02T14:20:18Z</time></trkpt><trkpt lat="45.84781715963" lon="11.003472580448502"><ele>161.0</ele><time>2026-05-02T14:20:19Z</time></trkpt><trkpt lat="45.84765124738462" lon="11.00351927705528"><ele>161.0</ele><time>2026-05-02T14:20:20Z</time></trkpt><trkpt lat="45.84749901085659" lon="11.003540245676804"><ele>161.0</ele><time>2026-05-02T14:20:21Z</time></trkpt><trkpt lat="45.8473563345903" lon="11.00353905234233"><ele>160.75</ele><time>2026-05-02T14:20:22Z</time></trkpt><trkpt lat="45.847214057142516" lon="11.003595176909363"><ele>160.5</ele><time>2026-05-02T14:20:23Z</time></trkpt><trkpt lat="45.8470714356594" lon="11.003650486901392"><ele>160.25</ele><time>2026-05-02T14:20:24Z</time></trkpt><trkpt lat="45.846939650628435" lon="11.003714970500747"><ele>160.0</ele><time>2026-05-02T14:20:25Z</time></trkpt><trkpt lat="45.84681515744644" lon="11.00375178491299"><ele>159.5</ele><time>2026-05-02T14:20:26Z</time></trkpt><trkpt lat="45.84669174069336" lon="11.003830245548443"><ele>159.0</ele><time>2026-05-02T14:20:27Z</time></trkpt><trkpt lat="45.84657323153064" lon="11.003917867226857"><ele>158.5</ele><time>2026-05-02T14:20:28Z</time></trkpt><trkpt lat="45.84646226823279" lon="11.004005450856154"><ele>158.0</ele><time>2026-05-02T14:20:29Z</time></trkpt><trkpt lat="45.84636156057618" lon="11.004086860780681"><ele>158.0</ele><time>2026-05-02T14:20:30Z</time></trkpt><trkpt lat="45.84626742587947" lon="11.004162957337256"><ele>158.0</ele><time>2026-05-02T14:20:31Z</time></trkpt><trkpt lat="45.846170308346586" lon="11.004241464891384"><ele>158.0</ele><time>2026-05-02T14:20:32Z</time></trkpt><trkpt lat="45.84606700811817" lon="11.00432497310832"><ele>158.0</ele><time>2026-05-02T14:20:33Z</time></trkpt><trkpt lat="45.84595390432673" lon="11.00441837717362"><ele>158.0</ele><time>2026-05-02T14:20:34Z</time></trkpt><trkpt lat="45.845830388648125" lon="11.004519834077982"><ele>158.0</ele><time>2026-05-02T14:20:35Z</time></trkpt><trkpt lat="45.845701640449064" lon="11.004625588457403"><ele>158.0</ele><time>2026-05-02T14:20:36Z</time></trkpt><trkpt lat="45.84557521170286" lon="11.004729437814866"><ele>158.0</ele><time>2026-05-02T14:20:37Z</time></trkpt><trkpt lat="45.845445252564495" lon="11.004836187225132"><ele>158.0</ele><time>2026-05-02T14:20:38Z</time></trkpt><trkpt lat="45.845318132119786" lon="11.004940604688766"><ele>158.0</ele><time>2026-05-02T14:20:39Z</time></trkpt><trkpt lat="45.845201545349035" lon="11.005036369723907"><ele>158.0</ele><time>2026-05-02T14:20:40Z</time></trkpt><trkpt lat="45.8450902114926" lon="11.005127822484477"><ele>158.0</ele><time>2026-05-02T14:20:41Z</time></trkpt><trkpt lat="45.84498675831534" lon="11.005212739619632"><ele>158.20000000000002</ele><time>2026-05-02T14:20:42Z</time></trkpt><trkpt lat="45.84488916002109" lon="11.005294418711484"><ele>158.4</ele><time>2026-05-02T14:20:43Z</time></trkpt><trkpt lat="45.844799080694905" lon="11.00536993305225"><ele>158.60000000000002</ele><time>2026-05-02T14:20:44Z</time></trkpt><trkpt lat="45.84471192338409" lon="11.005442997912452"><ele>158.8</ele><time>2026-05-02T14:20:45Z</time></trkpt><trkpt lat="45.84462965641765" lon="11.00553800461423"><ele>159.0</ele><time>2026-05-02T14:20:46Z</time></trkpt><trkpt lat="45.84452852889445" lon="11.005594102002933"><ele>159.0</ele><time>2026-05-02T14:20:47Z</time></trkpt><trkpt lat="45.84444692811805" lon="11.005679436592652"><ele>159.0</ele><time>2026-05-02T14:20:48Z</time></trkpt><trkpt lat="45.844361893128145" lon="11.005726162773101"><ele>159.0</ele><time>2026-05-02T14:20:49Z</time></trkpt><trkpt lat="45.844280381915326" lon="11.005790809613824"><ele>159.0</ele><time>2026-05-02T14:20:50Z</time></trkpt><trkpt lat="45.844204570032716" lon="11.005855339078119"><ele>159.0</ele><time>2026-05-02T14:20:51Z</time></trkpt><trkpt lat="45.844119918849785" lon="11.0059339688613"><ele>159.25</ele><time>2026-05-02T14:20:52Z</time></trkpt><trkpt lat="45.8440239651978" lon="11.006043671013632"><ele>159.5</ele><time>2026-05-02T14:20:53Z</time></trkpt><trkpt lat="45.84393494596737" lon="11.00621175788845"><ele>159.75</ele><time>2026-05-02T14:20:54Z</time></trkpt><trkpt lat="45.84385304716538" lon="11.006394491836165"><ele>160.0</ele><time>2026-05-02T14:20:55Z</time></trkpt><trkpt lat="45.843770943535674" lon="11.006576901094988"><ele>159.66666666666669</ele><time>2026-05-02T14:20:56Z</time></trkpt><trkpt lat="45.8437216007483" lon="11.006784981586307"><ele>159.33333333333334</ele><time>2026-05-02T14:20:57Z</time></trkpt><trkpt lat="45.84369050892525" lon="11.007029472299857"><ele>159.0</ele><time>2026-05-02T14:20:58Z</time></trkpt><trkpt lat="45.843658875364504" lon="11.007250180301163"><ele>159.0</ele><time>2026-05-02T14:20:59Z</time></trkpt><trkpt lat="45.84360954878298" lon="11.007457468639148"><ele>159.0</ele><time>2026-05-02T14:21:00Z</time></trkpt><trkpt lat="45.84357329389253" lon="11.007655671391468"><ele>159.0</ele><time>2026-05-02T14:21:01Z</time></trkpt><trkpt lat="45.84354186368073" lon="11.007830044403004"><ele>159.0</ele><time>2026-05-02T14:21:02Z</time></trkpt><trkpt lat="45.84351885851719" lon="11.007952607197064"><ele>159.0</ele><time>2026-05-02T14:21:03Z</time></trkpt><trkpt lat="45.84348800500789" lon="11.008091023855433"><ele>159.0</ele><time>2026-05-02T14:21:05Z</time></trkpt><trkpt lat="45.843416364210306" lon="11.00812401758664"><ele>159.0</ele><time>2026-05-02T14:21:08Z</time></trkpt><trkpt lat="45.843347472832576" lon="11.00806023224359"><ele>159.0</ele><time>2026-05-02T14:21:09Z</time></trkpt><trkpt lat="45.84326802822644" lon="11.007979989140573"><ele>159.0</ele><time>2026-05-02T14:21:10Z</time></trkpt><trkpt lat="45.843167983334176" lon="11.007899584150518"><ele>159.4</ele><time>2026-05-02T14:21:11Z</time></trkpt><trkpt lat="45.84306989667432" lon="11.007822645001745"><ele>159.8</ele><time>2026-05-02T14:21:12Z</time></trkpt><trkpt lat="45.84297013436636" lon="11.007756006570174"><ele>160.20000000000002</ele><time>2026-05-02T14:21:13Z</time></trkpt><trkpt lat="45.84288156104938" lon="11.007713172708659"><ele>160.60000000000002</ele><time>2026-05-02T14:21:14Z</time></trkpt><trkpt lat="45.84280063506064" lon="11.007696387550148"><ele>161.0</ele><time>2026-05-02T14:21:15Z</time></trkpt><trkpt lat="45.84273751705952" lon="11.0076853186042"><ele>161.0</ele><time>2026-05-02T14:21:16Z</time></trkpt><trkpt lat="45.84267245640729" lon="11.007683828754125"><ele>161.0</ele><time>2026-05-02T14:21:19Z</time></trkpt><trkpt lat="45.84260327592297" lon="11.007693200178442"><ele>161.0</ele><time>2026-05-02T14:21:22Z</time></trkpt><trkpt lat="45.842510918327434" lon="11.007718897344777"><ele>161.0</ele><time>2026-05-02T14:21:24Z</time></trkpt><trkpt lat="45.842447892875924" lon="11.007718634563217"><ele>161.0</ele><time>2026-05-02T14:21:25Z</time></trkpt><trkpt lat="45.842382734458546" lon="11.00771915430561"><ele>161.0</ele><time>2026-05-02T14:21:26Z</time></trkpt><trkpt lat="45.84231736895289" lon="11.00772221487003"><ele>161.0</ele><time>2026-05-02T14:21:27Z</time></trkpt><trkpt lat="45.84220715906076" lon="11.00774118319395"><ele>160.60000000000002</ele><time>2026-05-02T14:21:29Z</time></trkpt><trkpt lat="45.84207333388234" lon="11.007779778162382"><ele>160.20000000000002</ele><time>2026-05-02T14:21:31Z</time></trkpt><trkpt lat="45.84195879400606" lon="11.007820005542436"><ele>159.8</ele><time>2026-05-02T14:21:33Z</time></trkpt><trkpt lat="45.84189046181726" lon="11.007852820516575"><ele>159.4</ele><time>2026-05-02T14:21:34Z</time></trkpt><trkpt lat="45.841822821649686" lon="11.007898274417823"><ele>159.0</ele><time>2026-05-02T14:21:35Z</time></trkpt><trkpt lat="45.84175878061149" lon="11.007944348907838"><ele>159.0</ele><time>2026-05-02T14:21:36Z</time></trkpt><trkpt lat="45.84170001174793" lon="11.007992000032068"><ele>159.0</ele><time>2026-05-02T14:21:37Z</time></trkpt><trkpt lat="45.84164331938262" lon="11.008046784049968"><ele>159.0</ele><time>2026-05-02T14:21:38Z</time></trkpt><trkpt lat="45.84158772823952" lon="11.008109318565168"><ele>159.0</ele><time>2026-05-02T14:21:39Z</time></trkpt><trkpt lat="45.84153890821908" lon="11.008173714495037"><ele>159.0</ele><time>2026-05-02T14:21:40Z</time></trkpt><trkpt lat="45.84146541791423" lon="11.008286788744291"><ele>159.0</ele><time>2026-05-02T14:21:42Z</time></trkpt><trkpt lat="45.84141162193191" lon="11.00836332203639"><ele>159.8</ele><time>2026-05-02T14:21:44Z</time></trkpt><trkpt lat="45.84137122782222" lon="11.008442438737038"><ele>160.60000000000002</ele><time>2026-05-02T14:21:46Z</time></trkpt><trkpt lat="45.84130957804184" lon="11.008537268146775"><ele>161.4</ele><time>2026-05-02T14:21:48Z</time></trkpt><trkpt lat="45.84122005268082" lon="11.008660977962663"><ele>162.20000000000002</ele><time>2026-05-02T14:21:50Z</time></trkpt><trkpt lat="45.84115773520502" lon="11.008745235801731"><ele>163.0</ele><time>2026-05-02T14:21:51Z</time></trkpt><trkpt lat="45.841082864019874" lon="11.008832911712258"><ele>163.0</ele><time>2026-05-02T14:21:52Z</time></trkpt><trkpt lat="45.84101396980973" lon="11.008916614041208"><ele>163.0</ele><time>2026-05-02T14:21:53Z</time></trkpt><trkpt lat="45.84093900215278" lon="11.008999023550192"><ele>163.0</ele><time>2026-05-02T14:21:54Z</time></trkpt><trkpt lat="45.84086198011913" lon="11.00907343415337"><ele>163.0</ele><time>2026-05-02T14:21:55Z</time></trkpt><trkpt lat="45.840781588016824" lon="11.009144453624412"><ele>163.0</ele><time>2026-05-02T14:21:56Z</time></trkpt><trkpt lat="45.840698317495175" lon="11.009211722879854"><ele>163.2</ele><time>2026-05-02T14:21:57Z</time></trkpt><trkpt lat="45.84061259084918" lon="11.009281881607661"><ele>163.4</ele><time>2026-05-02T14:21:58Z</time></trkpt><trkpt lat="45.84052212337412" lon="11.009337803077667"><ele>163.6</ele><time>2026-05-02T14:21:59Z</time></trkpt><trkpt lat="45.84043240505602" lon="11.009389060718945"><ele>163.79999999999998</ele><time>2026-05-02T14:22:00Z</time></trkpt><trkpt lat="45.840341753708906" lon="11.009436833805331"><ele>164.0</ele><time>2026-05-02T14:22:01Z</time></trkpt><trkpt lat="45.840250417096215" lon="11.009485621573315"><ele>164.0</ele><time>2026-05-02T14:22:02Z</time></trkpt><trkpt lat="45.84015651828127" lon="11.00953428968563"><ele>164.0</ele><time>2026-05-02T14:22:03Z</time></trkpt><trkpt lat="45.84006375015721" lon="11.009582729885132"><ele>164.0</ele><time>2026-05-02T14:22:04Z</time></trkpt><trkpt lat="45.83997486278376" lon="11.00963013166139"><ele>164.0</ele><time>2026-05-02T14:22:05Z</time></trkpt><trkpt lat="45.83989019362219" lon="11.009675141360937"><ele>164.0</ele><time>2026-05-02T14:22:06Z</time></trkpt><trkpt lat="45.839812775120656" lon="11.009717144634118"><ele>162.6</ele><time>2026-05-02T14:22:07Z</time></trkpt><trkpt lat="45.83972788026999" lon="11.009724676175416"><ele>161.2</ele><time>2026-05-02T14:22:08Z</time></trkpt><trkpt lat="45.839648755867714" lon="11.009764708326864"><ele>159.79999999999998</ele><time>2026-05-02T14:22:09Z</time></trkpt><trkpt lat="45.83955868279565" lon="11.009809597975988"><ele>158.39999999999998</ele><time>2026-05-02T14:22:10Z</time></trkpt><trkpt lat="45.839460811312094" lon="11.009858243428717"><ele>157.0</ele><time>2026-05-02T14:22:11Z</time></trkpt><trkpt lat="45.839357708574916" lon="11.009909489013147"><ele>156.5</ele><time>2026-05-02T14:22:12Z</time></trkpt><trkpt lat="45.83924170157714" lon="11.00996714845079"><ele>156.0</ele><time>2026-05-02T14:22:13Z</time></trkpt><trkpt lat="45.83911243674383" lon="11.010027229095613"><ele>155.5</ele><time>2026-05-02T14:22:14Z</time></trkpt><trkpt lat="45.83898886069938" lon="11.010065138660256"><ele>155.0</ele><time>2026-05-02T14:22:15Z</time></trkpt><trkpt lat="45.83886915817765" lon="11.010092244872547"><ele>155.8</ele><time>2026-05-02T14:22:16Z</time></trkpt><trkpt lat="45.83875671367202" lon="11.010115012762219"><ele>156.6</ele><time>2026-05-02T14:22:17Z</time></trkpt><trkpt lat="45.838642677642405" lon="11.010136971321918"><ele>157.4</ele><time>2026-05-02T14:22:18Z</time></trkpt><trkpt lat="45.838529555888755" lon="11.010163000502791"><ele>158.2</ele><time>2026-05-02T14:22:19Z</time></trkpt><trkpt lat="45.83842908393462" lon="11.010195250751059"><ele>159.0</ele><time>2026-05-02T14:22:20Z</time></trkpt><trkpt lat="45.83832963681497" lon="11.010234386222214"><ele>159.0</ele><time>2026-05-02T14:22:21Z</time></trkpt><trkpt lat="45.838234050634895" lon="11.010293736906544"><ele>159.0</ele><time>2026-05-02T14:22:22Z</time></trkpt><trkpt lat="45.83813336211514" lon="11.010329855213985"><ele>159.0</ele><time>2026-05-02T14:22:23Z</time></trkpt><trkpt lat="45.83802666892619" lon="11.010368450028242"><ele>159.0</ele><time>2026-05-02T14:22:24Z</time></trkpt><trkpt lat="45.8379168003538" lon="11.01040441653835"><ele>159.0</ele><time>2026-05-02T14:22:25Z</time></trkpt><trkpt lat="45.837810922829476" lon="11.010440380794698"><ele>159.0</ele><time>2026-05-02T14:22:26Z</time></trkpt><trkpt lat="45.83770818790889" lon="11.01046625288241"><ele>159.0</ele><time>2026-05-02T14:22:27Z</time></trkpt><trkpt lat="45.837586989609036" lon="11.0105000347989"><ele>159.0</ele><time>2026-05-02T14:22:28Z</time></trkpt><trkpt lat="45.837474802009424" lon="11.010536169925052"><ele>159.0</ele><time>2026-05-02T14:22:29Z</time></trkpt><trkpt lat="45.837374974772224" lon="11.010564387217222"><ele>159.0</ele><time>2026-05-02T14:22:30Z</time></trkpt><trkpt lat="45.83727028088488" lon="11.010594321184245"><ele>158.8</ele><time>2026-05-02T14:22:31Z</time></trkpt><trkpt lat="45.8371615061818" lon="11.010619261819794"><ele>158.60000000000002</ele><time>2026-05-02T14:22:32Z</time></trkpt><trkpt lat="45.83705446348454" lon="11.010637290940855"><ele>158.4</ele><time>2026-05-02T14:22:33Z</time></trkpt><trkpt lat="45.83695691688202" lon="11.010653845470804"><ele>158.20000000000002</ele><time>2026-05-02T14:22:34Z</time></trkpt><trkpt lat="45.836872857183046" lon="11.01066474105174"><ele>158.0</ele><time>2026-05-02T14:22:35Z</time></trkpt><trkpt lat="45.8367946735433" lon="11.01067122880479"><ele>158.5</ele><time>2026-05-02T14:22:36Z</time></trkpt><trkpt lat="45.8367163405616" lon="11.010676604882812"><ele>159.0</ele><time>2026-05-02T14:22:37Z</time></trkpt><trkpt lat="45.836643061256446" lon="11.0106570569244"><ele>159.5</ele><time>2026-05-02T14:22:38Z</time></trkpt><trkpt lat="45.83656655163028" lon="11.010692538506008"><ele>160.0</ele><time>2026-05-02T14:22:40Z</time></trkpt><trkpt lat="45.83646703313423" lon="11.010698664656752"><ele>160.5</ele><time>2026-05-02T14:22:44Z</time></trkpt><trkpt lat="45.83640576868739" lon="11.010721724355315"><ele>161.0</ele><time>2026-05-02T14:22:45Z</time></trkpt><trkpt lat="45.83630054266423" lon="11.010724124521424"><ele>161.0</ele><time>2026-05-02T14:22:46Z</time></trkpt><trkpt lat="45.836147765461426" lon="11.010676184804703"><ele>161.0</ele><time>2026-05-02T14:22:47Z</time></trkpt><trkpt lat="45.835940451360244" lon="11.010660548509822"><ele>161.0</ele><time>2026-05-02T14:22:48Z</time></trkpt><trkpt lat="45.83570095149909" lon="11.010619225885854"><ele>162.0</ele><time>2026-05-02T14:22:49Z</time></trkpt><trkpt lat="45.83544774031455" lon="11.01058597818298"><ele>163.0</ele><time>2026-05-02T14:22:50Z</time></trkpt><trkpt lat="45.83517539651498" lon="11.01055074778058"><ele>163.0</ele><time>2026-05-02T14:22:51Z</time></trkpt><trkpt lat="45.83489531462864" lon="11.01050216490922"><ele>163.0</ele><time>2026-05-02T14:22:52Z</time></trkpt><trkpt lat="45.83462533496322" lon="11.010414597572726"><ele>163.0</ele><time>2026-05-02T14:22:53Z</time></trkpt><trkpt lat="45.83436396991462" lon="11.010389478701605"><ele>163.0</ele><time>2026-05-02T14:22:54Z</time></trkpt><trkpt lat="45.83411418872088" lon="11.010344215070251"><ele>163.5</ele><time>2026-05-02T14:22:55Z</time></trkpt><trkpt lat="45.833847889430295" lon="11.010313022992555"><ele>164.0</ele><time>2026-05-02T14:22:56Z</time></trkpt><trkpt lat="45.83357095308626" lon="11.010301593020998"><ele>163.5</ele><time>2026-05-02T14:22:57Z</time></trkpt><trkpt lat="45.83327735065804" lon="11.010311798388884"><ele>163.0</ele><time>2026-05-02T14:22:58Z</time></trkpt><trkpt lat="45.832993945677714" lon="11.010334070372636"><ele>163.0</ele><time>2026-05-02T14:22:59Z</time></trkpt><trkpt lat="45.83272777227521" lon="11.010351067537348"><ele>163.0</ele><time>2026-05-02T14:23:00Z</time></trkpt><trkpt lat="45.832467289877854" lon="11.010359630341398"><ele>162.5</ele><time>2026-05-02T14:23:01Z</time></trkpt><trkpt lat="45.832207992859416" lon="11.010389187204417"><ele>162.0</ele><time>2026-05-02T14:23:02Z</time></trkpt><trkpt lat="45.83194643227218" lon="11.010447022424062"><ele>165.5</ele><time>2026-05-02T14:23:03Z</time></trkpt><trkpt lat="45.831687304830574" lon="11.010543675905835"><ele>169.0</ele><time>2026-05-02T14:23:04Z</time></trkpt><trkpt lat="45.831427965578186" lon="11.010672226191664"><ele>169.0</ele><time>2026-05-02T14:23:05Z</time></trkpt><trkpt lat="45.831167626250405" lon="11.010806794290373"><ele>169.0</ele><time>2026-05-02T14:23:06Z</time></trkpt><trkpt lat="45.83091719228555" lon="11.010934977363718"><ele>169.5</ele><time>2026-05-02T14:23:07Z</time></trkpt><trkpt lat="45.83068369740179" lon="11.011052735129216"><ele>170.0</ele><time>2026-05-02T14:23:08Z</time></trkpt><trkpt lat="45.830463199870955" lon="11.011157664891583"><ele>170.0</ele><time>2026-05-02T14:23:09Z</time></trkpt><trkpt lat="45.83025500014803" lon="11.011256376299057"><ele>170.0</ele><time>2026-05-02T14:23:10Z</time></trkpt><trkpt lat="45.83005061326405" lon="11.01133851451998"><ele>170.0</ele><time>2026-05-02T14:23:11Z</time></trkpt><trkpt lat="45.8298399635598" lon="11.011386002432229"><ele>170.0</ele><time>2026-05-02T14:23:12Z</time></trkpt><trkpt lat="45.82961595978098" lon="11.011406608699962"><ele>170.0</ele><time>2026-05-02T14:23:13Z</time></trkpt><trkpt lat="45.82939575326531" lon="11.011405511173447"><ele>170.0</ele><time>2026-05-02T14:23:14Z</time></trkpt><trkpt lat="45.829162760026676" lon="11.011379381680676"><ele>168.5</ele><time>2026-05-02T14:23:15Z</time></trkpt><trkpt lat="45.828918795662624" lon="11.011346419062953"><ele>167.0</ele><time>2026-05-02T14:23:16Z</time></trkpt><trkpt lat="45.82865963530847" lon="11.01133301988455"><ele>166.0</ele><time>2026-05-02T14:23:17Z</time></trkpt><trkpt lat="45.82840322911971" lon="11.011292499039307"><ele>165.0</ele><time>2026-05-02T14:23:18Z</time></trkpt><trkpt lat="45.82815917504466" lon="11.01125338904125"><ele>165.0</ele><time>2026-05-02T14:23:19Z</time></trkpt><trkpt lat="45.827914476005525" lon="11.011215483192325"><ele>165.0</ele><time>2026-05-02T14:23:20Z</time></trkpt><trkpt lat="45.827673071180925" lon="11.011182525069785"><ele>163.0</ele><time>2026-05-02T14:23:21Z</time></trkpt><trkpt lat="45.82742806791935" lon="11.01115162389659"><ele>161.0</ele><time>2026-05-02T14:23:22Z</time></trkpt><trkpt lat="45.82718397741094" lon="11.011122434219212"><ele>161.0</ele><time>2026-05-02T14:23:23Z</time></trkpt><trkpt lat="45.82693835869247" lon="11.011093196551569"><ele>161.0</ele><time>2026-05-02T14:23:24Z</time></trkpt><trkpt lat="45.82669411332443" lon="11.011056243054549"><ele>161.5</ele><time>2026-05-02T14:23:25Z</time></trkpt><trkpt lat="45.826442812651614" lon="11.011013052890519"><ele>162.0</ele><time>2026-05-02T14:23:26Z</time></trkpt><trkpt lat="45.82618225709731" lon="11.010971358811481"><ele>162.5</ele><time>2026-05-02T14:23:27Z</time></trkpt><trkpt lat="45.82590657372377" lon="11.010933780866857"><ele>163.0</ele><time>2026-05-02T14:23:28Z</time></trkpt><trkpt lat="45.82561705462876" lon="11.010891603876606"><ele>163.0</ele><time>2026-05-02T14:23:29Z</time></trkpt><trkpt lat="45.825316791206326" lon="11.010853012175613"><ele>163.0</ele><time>2026-05-02T14:23:30Z</time></trkpt><trkpt lat="45.82502370526789" lon="11.010819328887381"><ele>160.0</ele><time>2026-05-02T14:23:31Z</time></trkpt><trkpt lat="45.82473212168807" lon="11.010777508312932"><ele>157.0</ele><time>2026-05-02T14:23:32Z</time></trkpt><trkpt lat="45.82444673776935" lon="11.010734002419216"><ele>157.0</ele><time>2026-05-02T14:23:33Z</time></trkpt><trkpt lat="45.824175037742684" lon="11.0107005609422"><ele>157.0</ele><time>2026-05-02T14:23:34Z</time></trkpt><trkpt lat="45.82390377330196" lon="11.010665127164005"><ele>157.0</ele><time>2026-05-02T14:23:35Z</time></trkpt><trkpt lat="45.823629398694386" lon="11.010636758706358"><ele>157.0</ele><time>2026-05-02T14:23:36Z</time></trkpt><trkpt lat="45.82335591046502" lon="11.01059606164198"><ele>157.0</ele><time>2026-05-02T14:23:37Z</time></trkpt><trkpt lat="45.82308510974123" lon="11.010567411208466"><ele>157.0</ele><time>2026-05-02T14:23:38Z</time></trkpt><trkpt lat="45.8228200337952" lon="11.01055442420096"><ele>155.0</ele><time>2026-05-02T14:23:39Z</time></trkpt><trkpt lat="45.82256000862714" lon="11.010506966129297"><ele>153.0</ele><time>2026-05-02T14:23:40Z</time></trkpt><trkpt lat="45.822300973071094" lon="11.010483572697925"><ele>153.0</ele><time>2026-05-02T14:23:41Z</time></trkpt><trkpt lat="45.82203611629189" lon="11.010616353350944"><ele>153.0</ele><time>2026-05-02T14:23:42Z</time></trkpt><trkpt lat="45.82177446482712" lon="11.010644769469978"><ele>152.5</ele><time>2026-05-02T14:23:43Z</time></trkpt><trkpt lat="45.821507552524736" lon="11.01066981428707"><ele>152.0</ele><time>2026-05-02T14:23:44Z</time></trkpt><trkpt lat="45.82124080321393" lon="11.010691180819828"><ele>152.0</ele><time>2026-05-02T14:23:45Z</time></trkpt><trkpt lat="45.820973441001996" lon="11.01071196348101"><ele>152.0</ele><time>2026-05-02T14:23:46Z</time></trkpt><trkpt lat="45.82071278180317" lon="11.010738498662713"><ele>152.0</ele><time>2026-05-02T14:23:47Z</time></trkpt><trkpt lat="45.82047160791571" lon="11.01076476472469"><ele>152.0</ele><time>2026-05-02T14:23:48Z</time></trkpt><trkpt lat="45.82023131359253" lon="11.010796552582946"><ele>155.0</ele><time>2026-05-02T14:23:49Z</time></trkpt><trkpt lat="45.819992849341105" lon="11.01083704772482"><ele>158.0</ele><time>2026-05-02T14:23:50Z</time></trkpt><trkpt lat="45.81975509602947" lon="11.010885203097473"><ele>158.0</ele><time>2026-05-02T14:23:51Z</time></trkpt><trkpt lat="45.81951519506265" lon="11.010936942906222"><ele>158.0</ele><time>2026-05-02T14:23:52Z</time></trkpt><trkpt lat="45.81927539045512" lon="11.010986186967541"><ele>156.0</ele><time>2026-05-02T14:23:53Z</time></trkpt><trkpt lat="45.81904189206447" lon="11.011029251163537"><ele>154.0</ele><time>2026-05-02T14:23:54Z</time></trkpt><trkpt lat="45.818813487913864" lon="11.011069947467607"><ele>154.0</ele><time>2026-05-02T14:23:55Z</time></trkpt><trkpt lat="45.81858403816493" lon="11.011119470208863"><ele>154.0</ele><time>2026-05-02T14:23:56Z</time></trkpt><trkpt lat="45.81835605829805" lon="11.011175099940344"><ele>154.0</ele><time>2026-05-02T14:23:57Z</time></trkpt><trkpt lat="45.81813499627239" lon="11.01123855427265"><ele>154.0</ele><time>2026-05-02T14:23:58Z</time></trkpt><trkpt lat="45.8179131109905" lon="11.011315412714772"><ele>154.0</ele><time>2026-05-02T14:23:59Z</time></trkpt><trkpt lat="45.817681554422016" lon="11.011403356566449"><ele>154.0</ele><time>2026-05-02T14:24:00Z</time></trkpt><trkpt lat="45.81744234543201" lon="11.011494809615598"><ele>153.0</ele><time>2026-05-02T14:24:01Z</time></trkpt><trkpt lat="45.81719869568569" lon="11.011581033795007"><ele>152.0</ele><time>2026-05-02T14:24:02Z</time></trkpt><trkpt lat="45.81695191065161" lon="11.01166288927822"><ele>153.5</ele><time>2026-05-02T14:24:03Z</time></trkpt><trkpt lat="45.81670694570077" lon="11.011741308784053"><ele>155.0</ele><time>2026-05-02T14:24:04Z</time></trkpt><trkpt lat="45.816461741743694" lon="11.011814346847997"><ele>155.0</ele><time>2026-05-02T14:24:05Z</time></trkpt><trkpt lat="45.81621704410024" lon="11.01188703950559"><ele>155.0</ele><time>2026-05-02T14:24:06Z</time></trkpt><trkpt lat="45.81597823999301" lon="11.011958145840797"><ele>153.0</ele><time>2026-05-02T14:24:07Z</time></trkpt><trkpt lat="45.81574393137119" lon="11.012026464875728"><ele>151.0</ele><time>2026-05-02T14:24:08Z</time></trkpt><trkpt lat="45.81551378531155" lon="11.012097511635261"><ele>151.0</ele><time>2026-05-02T14:24:09Z</time></trkpt><trkpt lat="45.81528282743793" lon="11.012169150033467"><ele>151.0</ele><time>2026-05-02T14:24:10Z</time></trkpt><trkpt lat="45.81504559358619" lon="11.012242257970026"><ele>151.0</ele><time>2026-05-02T14:24:11Z</time></trkpt><trkpt lat="45.81480202175959" lon="11.012310270038364"><ele>151.0</ele><time>2026-05-02T14:24:12Z</time></trkpt><trkpt lat="45.81455461431279" lon="11.012380774198446"><ele>150.0</ele><time>2026-05-02T14:24:13Z</time></trkpt><trkpt lat="45.81430819109946" lon="11.012458247379248"><ele>149.0</ele><time>2026-05-02T14:24:14Z</time></trkpt><trkpt lat="45.8140619571929" lon="11.012540048964096"><ele>155.0</ele><time>2026-05-02T14:24:15Z</time></trkpt><trkpt lat="45.81382077546865" lon="11.012628846739023"><ele>161.0</ele><time>2026-05-02T14:24:16Z</time></trkpt><trkpt lat="45.81359328766745" lon="11.012709595576059"><ele>158.5</ele><time>2026-05-02T14:24:17Z</time></trkpt><trkpt lat="45.813373374173494" lon="11.012792819320797"><ele>156.0</ele><time>2026-05-02T14:24:18Z</time></trkpt><trkpt lat="45.813149918191485" lon="11.012868082381258"><ele>156.0</ele><time>2026-05-02T14:24:19Z</time></trkpt><trkpt lat="45.81292924736344" lon="11.012946466350504"><ele>156.0</ele><time>2026-05-02T14:24:20Z</time></trkpt><trkpt lat="45.812704029705564" lon="11.01302503503287"><ele>154.5</ele><time>2026-05-02T14:24:21Z</time></trkpt><trkpt lat="45.812479133885816" lon="11.013107078626128"><ele>153.0</ele><time>2026-05-02T14:24:22Z</time></trkpt><trkpt lat="45.81225514704161" lon="11.013186655173236"><ele>153.0</ele><time>2026-05-02T14:24:23Z</time></trkpt><trkpt lat="45.81204002450586" lon="11.013270025952941"><ele>153.0</ele><time>2026-05-02T14:24:24Z</time></trkpt><trkpt lat="45.811825113031055" lon="11.013356904172849"><ele>153.0</ele><time>2026-05-02T14:24:25Z</time></trkpt><trkpt lat="45.81161126576103" lon="11.013452066281657"><ele>152.66666666666666</ele><time>2026-05-02T14:24:26Z</time></trkpt><trkpt lat="45.81141221722207" lon="11.01353770014663"><ele>152.33333333333331</ele><time>2026-05-02T14:24:27Z</time></trkpt><trkpt lat="45.811239673886476" lon="11.013620586604496"><ele>152.0</ele><time>2026-05-02T14:24:28Z</time></trkpt><trkpt lat="45.81107820020593" lon="11.013696637945426"><ele>151.25</ele><time>2026-05-02T14:24:29Z</time></trkpt><trkpt lat="45.810922201858" lon="11.013760255635688"><ele>150.5</ele><time>2026-05-02T14:24:30Z</time></trkpt><trkpt lat="45.81078001009006" lon="11.013825234885523"><ele>149.75</ele><time>2026-05-02T14:24:31Z</time></trkpt><trkpt lat="45.81065461260997" lon="11.013885671055188"><ele>149.0</ele><time>2026-05-02T14:24:32Z</time></trkpt><trkpt lat="45.810543810434254" lon="11.01393563428822"><ele>149.0</ele><time>2026-05-02T14:24:33Z</time></trkpt><trkpt lat="45.81043134238875" lon="11.013991535666602"><ele>149.0</ele><time>2026-05-02T14:24:34Z</time></trkpt><trkpt lat="45.81031059891589" lon="11.014062278124195"><ele>149.0</ele><time>2026-05-02T14:24:35Z</time></trkpt><trkpt lat="45.810183026995055" lon="11.014144631155501"><ele>149.0</ele><time>2026-05-02T14:24:36Z</time></trkpt><trkpt lat="45.810049506927065" lon="11.014240832916126"><ele>149.66666666666666</ele><time>2026-05-02T14:24:37Z</time></trkpt><trkpt lat="45.80991487070845" lon="11.014345249731758"><ele>150.33333333333334</ele><time>2026-05-02T14:24:38Z</time></trkpt><trkpt lat="45.809783230717926" lon="11.014456545173054"><ele>151.0</ele><time>2026-05-02T14:24:39Z</time></trkpt><trkpt lat="45.80965083900688" lon="11.014565869659814"><ele>151.0</ele><time>2026-05-02T14:24:40Z</time></trkpt><trkpt lat="45.80951541306638" lon="11.014683522979114"><ele>151.0</ele><time>2026-05-02T14:24:41Z</time></trkpt><trkpt lat="45.80937902863475" lon="11.014805561326536"><ele>151.0</ele><time>2026-05-02T14:24:42Z</time></trkpt><trkpt lat="45.80924344565843" lon="11.01492716604453"><ele>150.66666666666669</ele><time>2026-05-02T14:24:43Z</time></trkpt><trkpt lat="45.80910700118634" lon="11.015058859515484"><ele>150.33333333333334</ele><time>2026-05-02T14:24:44Z</time></trkpt><trkpt lat="45.80897191315506" lon="11.015188004659672"><ele>150.0</ele><time>2026-05-02T14:24:45Z</time></trkpt><trkpt lat="45.80883891093117" lon="11.015330213690875"><ele>150.0</ele><time>2026-05-02T14:24:46Z</time></trkpt><trkpt lat="45.808702566334404" lon="11.015474489084934"><ele>150.0</ele><time>2026-05-02T14:24:47Z</time></trkpt><trkpt lat="45.80856406540133" lon="11.015622720464487"><ele>150.0</ele><time>2026-05-02T14:24:48Z</time></trkpt><trkpt lat="45.80841741259562" lon="11.015766489753553"><ele>150.0</ele><time>2026-05-02T14:24:49Z</time></trkpt><trkpt lat="45.808265379187176" lon="11.015908769704646"><ele>150.0</ele><time>2026-05-02T14:24:50Z</time></trkpt><trkpt lat="45.80811097265582" lon="11.016051962190376"><ele>150.0</ele><time>2026-05-02T14:24:51Z</time></trkpt><trkpt lat="45.807954124769864" lon="11.01619550577134"><ele>150.0</ele><time>2026-05-02T14:24:52Z</time></trkpt><trkpt lat="45.80780167808772" lon="11.016332342393401"><ele>150.0</ele><time>2026-05-02T14:24:53Z</time></trkpt><trkpt lat="45.80765422949194" lon="11.016468402188313"><ele>150.0</ele><time>2026-05-02T14:24:54Z</time></trkpt><trkpt lat="45.80750339580742" lon="11.016604841487194"><ele>149.66666666666666</ele><time>2026-05-02T14:24:55Z</time></trkpt><trkpt lat="45.807349423027546" lon="11.016742328823861"><ele>149.33333333333331</ele><time>2026-05-02T14:24:56Z</time></trkpt><trkpt lat="45.80719186643426" lon="11.016884794103863"><ele>149.0</ele><time>2026-05-02T14:24:57Z</time></trkpt><trkpt lat="45.807031360765166" lon="11.017033382414116"><ele>149.0</ele><time>2026-05-02T14:24:58Z</time></trkpt><trkpt lat="45.806867434363554" lon="11.017182326281853"><ele>149.0</ele><time>2026-05-02T14:24:59Z</time></trkpt><trkpt lat="45.80670574706832" lon="11.01732899636999"><ele>149.0</ele><time>2026-05-02T14:25:00Z</time></trkpt><trkpt lat="45.80655137659323" lon="11.017469183398806"><ele>149.33333333333331</ele><time>2026-05-02T14:25:01Z</time></trkpt><trkpt lat="45.806406733815905" lon="11.017598093958396"><ele>149.66666666666666</ele><time>2026-05-02T14:25:02Z</time></trkpt><trkpt lat="45.806269044834885" lon="11.017722969399708"><ele>150.0</ele><time>2026-05-02T14:25:03Z</time></trkpt><trkpt lat="45.806128443112996" lon="11.017832326250705"><ele>149.75</ele><time>2026-05-02T14:25:04Z</time></trkpt><trkpt lat="45.8059855611767" lon="11.017931079084414"><ele>149.5</ele><time>2026-05-02T14:25:05Z</time></trkpt><trkpt lat="45.805849858957416" lon="11.018013321282178"><ele>149.25</ele><time>2026-05-02T14:25:06Z</time></trkpt><trkpt lat="45.80571621637852" lon="11.018078355234811"><ele>149.0</ele><time>2026-05-02T14:25:07Z</time></trkpt><trkpt lat="45.80558192959266" lon="11.018124518481242"><ele>149.0</ele><time>2026-05-02T14:25:08Z</time></trkpt><trkpt lat="45.80544136275826" lon="11.018167198168241"><ele>149.0</ele><time>2026-05-02T14:25:09Z</time></trkpt><trkpt lat="45.80528847187469" lon="11.018216052130546"><ele>149.0</ele><time>2026-05-02T14:25:10Z</time></trkpt><trkpt lat="45.80512425353194" lon="11.018271769299352"><ele>148.66666666666666</ele><time>2026-05-02T14:25:11Z</time></trkpt><trkpt lat="45.804950542028166" lon="11.018327099235709"><ele>148.33333333333334</ele><time>2026-05-02T14:25:12Z</time></trkpt><trkpt lat="45.80476752926088" lon="11.018385120385584"><ele>148.0</ele><time>2026-05-02T14:25:13Z</time></trkpt><trkpt lat="45.80457158208204" lon="11.018444119814099"><ele>148.0</ele><time>2026-05-02T14:25:14Z</time></trkpt><trkpt lat="45.80436467487323" lon="11.018503329507427"><ele>148.0</ele><time>2026-05-02T14:25:15Z</time></trkpt><trkpt lat="45.80415342138092" lon="11.018564143612846"><ele>148.0</ele><time>2026-05-02T14:25:16Z</time></trkpt><trkpt lat="45.803941512939886" lon="11.018622905290446"><ele>148.0</ele><time>2026-05-02T14:25:17Z</time></trkpt><trkpt lat="45.80372805190707" lon="11.018684485294969"><ele>148.0</ele><time>2026-05-02T14:25:18Z</time></trkpt><trkpt lat="45.803516343314946" lon="11.01875253722946"><ele>148.0</ele><time>2026-05-02T14:25:19Z</time></trkpt><trkpt lat="45.803307977633374" lon="11.018813631732394"><ele>148.0</ele><time>2026-05-02T14:25:20Z</time></trkpt><trkpt lat="45.8031130339936" lon="11.018869146253438"><ele>148.0</ele><time>2026-05-02T14:25:21Z</time></trkpt><trkpt lat="45.80292672378484" lon="11.018926661650312"><ele>148.0</ele><time>2026-05-02T14:25:22Z</time></trkpt><trkpt lat="45.802740270060575" lon="11.018984223200873"><ele>148.66666666666669</ele><time>2026-05-02T14:25:23Z</time></trkpt><trkpt lat="45.80255273970397" lon="11.01904289083276"><ele>149.33333333333334</ele><time>2026-05-02T14:25:24Z</time></trkpt><trkpt lat="45.80236035597757" lon="11.019095238927264"><ele>150.0</ele><time>2026-05-02T14:25:25Z</time></trkpt><trkpt lat="45.80216965478936" lon="11.019147452120466"><ele>149.33333333333334</ele><time>2026-05-02T14:25:26Z</time></trkpt><trkpt lat="45.80198745545416" lon="11.019195926893895"><ele>148.66666666666669</ele><time>2026-05-02T14:25:27Z</time></trkpt><trkpt lat="45.80180452303701" lon="11.019248661220796"><ele>148.0</ele><time>2026-05-02T14:25:28Z</time></trkpt><trkpt lat="45.80161964231743" lon="11.019319634762601"><ele>147.66666666666669</ele><time>2026-05-02T14:25:29Z</time></trkpt><trkpt lat="45.80143392942242" lon="11.019393160513316"><ele>147.33333333333334</ele><time>2026-05-02T14:25:30Z</time></trkpt><trkpt lat="45.80125229311248" lon="11.019491324605392"><ele>147.0</ele><time>2026-05-02T14:25:31Z</time></trkpt><trkpt lat="45.80107533307827" lon="11.019592741651422"><ele>147.0</ele><time>2026-05-02T14:25:32Z</time></trkpt><trkpt lat="45.800908483642466" lon="11.019689142936613"><ele>147.0</ele><time>2026-05-02T14:25:33Z</time></trkpt><trkpt lat="45.80075224485941" lon="11.019786076294137"><ele>147.0</ele><time>2026-05-02T14:25:34Z</time></trkpt><trkpt lat="45.800596237384255" lon="11.019878153921006"><ele>147.0</ele><time>2026-05-02T14:25:35Z</time></trkpt><trkpt lat="45.80043113406542" lon="11.019976138364585"><ele>147.0</ele><time>2026-05-02T14:25:36Z</time></trkpt><trkpt lat="45.8002609945317" lon="11.020076244639693"><ele>147.0</ele><time>2026-05-02T14:25:37Z</time></trkpt><trkpt lat="45.80007637319005" lon="11.020162161738545"><ele>147.66666666666666</ele><time>2026-05-02T14:25:38Z</time></trkpt><trkpt lat="45.79989522638372" lon="11.020268719895308"><ele>148.33333333333331</ele><time>2026-05-02T14:25:39Z</time></trkpt><trkpt lat="45.79970863288647" lon="11.020378484066972"><ele>149.0</ele><time>2026-05-02T14:25:40Z</time></trkpt><trkpt lat="45.79951262035984" lon="11.020494733726649"><ele>148.66666666666666</ele><time>2026-05-02T14:25:41Z</time></trkpt><trkpt lat="45.799312543516756" lon="11.020614026535132"><ele>148.33333333333334</ele><time>2026-05-02T14:25:42Z</time></trkpt><trkpt lat="45.79911344625889" lon="11.02073014847162"><ele>148.0</ele><time>2026-05-02T14:25:43Z</time></trkpt><trkpt lat="45.79892116519894" lon="11.020842788332526"><ele>147.66666666666669</ele><time>2026-05-02T14:25:44Z</time></trkpt><trkpt lat="45.79874302547679" lon="11.020947398761715"><ele>147.33333333333334</ele><time>2026-05-02T14:25:45Z</time></trkpt><trkpt lat="45.7985644120291" lon="11.0210485857742"><ele>147.0</ele><time>2026-05-02T14:25:46Z</time></trkpt><trkpt lat="45.79838055705794" lon="11.021140436020287"><ele>147.66666666666666</ele><time>2026-05-02T14:25:47Z</time></trkpt><trkpt lat="45.79819300297096" lon="11.021229413125397"><ele>148.33333333333331</ele><time>2026-05-02T14:25:48Z</time></trkpt><trkpt lat="45.797998863010015" lon="11.021312429921165"><ele>149.0</ele><time>2026-05-02T14:25:49Z</time></trkpt><trkpt lat="45.797799475212194" lon="11.021391326396353"><ele>149.0</ele><time>2026-05-02T14:25:50Z</time></trkpt><trkpt lat="45.79759931597195" lon="11.021492161803732"><ele>149.0</ele><time>2026-05-02T14:25:51Z</time></trkpt><trkpt lat="45.797389703115876" lon="11.021573507376822"><ele>149.0</ele><time>2026-05-02T14:25:52Z</time></trkpt><trkpt lat="45.79717356643814" lon="11.021657054862155"><ele>149.0</ele><time>2026-05-02T14:25:53Z</time></trkpt><trkpt lat="45.79694832614449" lon="11.021740832202708"><ele>149.0</ele><time>2026-05-02T14:25:54Z</time></trkpt><trkpt lat="45.79670976067525" lon="11.021813586018808"><ele>149.5</ele><time>2026-05-02T14:25:55Z</time></trkpt><trkpt lat="45.796462717621736" lon="11.021859129942026"><ele>150.0</ele><time>2026-05-02T14:25:56Z</time></trkpt><trkpt lat="45.79620884998791" lon="11.021878229654785"><ele>149.0</ele><time>2026-05-02T14:25:56.999Z</time></trkpt><trkpt lat="45.795957899191016" lon="11.02187186120973"><ele>148.0</ele><time>2026-05-02T14:25:57.999Z</time></trkpt><trkpt lat="45.795680098271845" lon="11.021873404844428"><ele>148.0</ele><time>2026-05-02T14:25:58.999Z</time></trkpt><trkpt lat="45.79542753347461" lon="11.021873404844943"><ele>148.0</ele><time>2026-05-02T14:25:59.999Z</time></trkpt><trkpt lat="45.79519592015001" lon="11.021873404845763"><ele>148.66666666666669</ele><time>2026-05-02T14:26:00.999Z</time></trkpt><trkpt lat="45.7949798535997" lon="11.021871667013418"><ele>149.33333333333334</ele><time>2026-05-02T14:26:01.999Z</time></trkpt><trkpt lat="45.79477268178192" lon="11.021864071938777"><ele>150.0</ele><time>2026-05-02T14:26:02.999Z</time></trkpt><trkpt lat="45.79455142517076" lon="11.021832796972982"><ele>149.5</ele><time>2026-05-02T14:26:03.999Z</time></trkpt><trkpt lat="45.794303288713046" lon="11.02178071276672"><ele>149.0</ele><time>2026-05-02T14:26:04.999Z</time></trkpt><trkpt lat="45.79403682061791" lon="11.021720418982703"><ele>149.0</ele><time>2026-05-02T14:26:05.999Z</time></trkpt><trkpt lat="45.79374778375295" lon="11.02165448621602"><ele>149.0</ele><time>2026-05-02T14:26:06.999Z</time></trkpt><trkpt lat="45.793429232774585" lon="11.02158182090405"><ele>148.0</ele><time>2026-05-02T14:26:07.999Z</time></trkpt><trkpt lat="45.79308721505995" lon="11.021526892702978"><ele>147.0</ele><time>2026-05-02T14:26:08.999Z</time></trkpt><trkpt lat="45.79273188502264" lon="11.021441769222838"><ele>148.5</ele><time>2026-05-02T14:26:09.999Z</time></trkpt><trkpt lat="45.7923732057383" lon="11.021356989924985"><ele>150.0</ele><time>2026-05-02T14:26:10.999Z</time></trkpt><trkpt lat="45.792022914294826" lon="11.02126871830543"><ele>151.0</ele><time>2026-05-02T14:26:11.999Z</time></trkpt><trkpt lat="45.79171211707202" lon="11.02119466547723"><ele>152.0</ele><time>2026-05-02T14:26:12.999Z</time></trkpt><trkpt lat="45.79142148622193" lon="11.021125589683335"><ele>152.0</ele><time>2026-05-02T14:26:13.999Z</time></trkpt><trkpt lat="45.79114356960591" lon="11.021062873565915"><ele>152.0</ele><time>2026-05-02T14:26:14.999Z</time></trkpt><trkpt lat="45.790861453978806" lon="11.021005768936774"><ele>153.0</ele><time>2026-05-02T14:26:15.999Z</time></trkpt><trkpt lat="45.79063436386737" lon="11.020957438453149"><ele>154.0</ele><time>2026-05-02T14:26:16.999Z</time></trkpt><trkpt lat="45.7903984119809" lon="11.020937554938095"><ele>153.0</ele><time>2026-05-02T14:26:17.999Z</time></trkpt><trkpt lat="45.7901474879122" lon="11.020959838922272"><ele>152.0</ele><time>2026-05-02T14:26:18.999Z</time></trkpt><trkpt lat="45.789880794729044" lon="11.021016349423952"><ele>152.0</ele><time>2026-05-02T14:26:19.999Z</time></trkpt><trkpt lat="45.78960458405916" lon="11.021101237780318"><ele>152.0</ele><time>2026-05-02T14:26:20.999Z</time></trkpt><trkpt lat="45.78933603591242" lon="11.021177359728561"><ele>151.5</ele><time>2026-05-02T14:26:21.999Z</time></trkpt><trkpt lat="45.78908958027513" lon="11.02123809348337"><ele>151.0</ele><time>2026-05-02T14:26:22.999Z</time></trkpt><trkpt lat="45.788843486566904" lon="11.021295592091267"><ele>151.0</ele><time>2026-05-02T14:26:23.999Z</time></trkpt><trkpt lat="45.78860473723618" lon="11.0213263077394"><ele>151.0</ele><time>2026-05-02T14:26:24.999Z</time></trkpt><trkpt lat="45.788366561839034" lon="11.021316953572756"><ele>151.5</ele><time>2026-05-02T14:26:25.999Z</time></trkpt><trkpt lat="45.78813534589544" lon="11.021255858619918"><ele>152.0</ele><time>2026-05-02T14:26:26.999Z</time></trkpt><trkpt lat="45.78790309954077" lon="11.021161431481369"><ele>152.0</ele><time>2026-05-02T14:26:27.999Z</time></trkpt><trkpt lat="45.78768860209924" lon="11.021027976777281"><ele>152.0</ele><time>2026-05-02T14:26:28.999Z</time></trkpt><trkpt lat="45.78746876601429" lon="11.0208079584133"><ele>152.0</ele><time>2026-05-02T14:26:29.999Z</time></trkpt><trkpt lat="45.787262542176315" lon="11.020516388934798"><ele>152.0</ele><time>2026-05-02T14:26:30.999Z</time></trkpt><trkpt lat="45.78703871035031" lon="11.020276343243559"><ele>151.5</ele><time>2026-05-02T14:26:31.999Z</time></trkpt><trkpt lat="45.78680505277239" lon="11.020032888377044"><ele>151.0</ele><time>2026-05-02T14:26:32.999Z</time></trkpt><trkpt lat="45.7865740993317" lon="11.019800094655826"><ele>151.0</ele><time>2026-05-02T14:26:33.999Z</time></trkpt><trkpt lat="45.78634622427397" lon="11.019574286793983"><ele>151.0</ele><time>2026-05-02T14:26:34.999Z</time></trkpt><trkpt lat="45.786113897272635" lon="11.019336156894418"><ele>151.0</ele><time>2026-05-02T14:26:35.999Z</time></trkpt><trkpt lat="45.78588048388961" lon="11.019097610029412"><ele>151.0</ele><time>2026-05-02T14:26:36.999Z</time></trkpt><trkpt lat="45.78563978106484" lon="11.01887261354931"><ele>151.0</ele><time>2026-05-02T14:26:37.999Z</time></trkpt><trkpt lat="45.78538511827779" lon="11.018685142788605"><ele>151.0</ele><time>2026-05-02T14:26:38.999Z</time></trkpt><trkpt lat="45.7851146796095" lon="11.018533258797714"><ele>151.5</ele><time>2026-05-02T14:26:39.999Z</time></trkpt><trkpt lat="45.7848494980105" lon="11.018397715944808"><ele>152.0</ele><time>2026-05-02T14:26:40.999Z</time></trkpt><trkpt lat="45.78459360768127" lon="11.018256549615765"><ele>151.0</ele><time>2026-05-02T14:26:41.999Z</time></trkpt><trkpt lat="45.784337959339084" lon="11.018086493147077"><ele>150.0</ele><time>2026-05-02T14:26:42.999Z</time></trkpt><trkpt lat="45.78408173150956" lon="11.01786390652402"><ele>150.0</ele><time>2026-05-02T14:26:43.999Z</time></trkpt><trkpt lat="45.78383158781595" lon="11.017612432698408"><ele>150.0</ele><time>2026-05-02T14:26:44.999Z</time></trkpt><trkpt lat="45.783591757472664" lon="11.017384545561326"><ele>150.5</ele><time>2026-05-02T14:26:45.999Z</time></trkpt><trkpt lat="45.78335487075747" lon="11.017185098052922"><ele>151.0</ele><time>2026-05-02T14:26:46.999Z</time></trkpt><trkpt lat="45.783124558685955" lon="11.017018106311182"><ele>151.0</ele><time>2026-05-02T14:26:47.999Z</time></trkpt><trkpt lat="45.782891520965784" lon="11.01686130109376"><ele>151.0</ele><time>2026-05-02T14:26:48.999Z</time></trkpt><trkpt lat="45.782673793726794" lon="11.016717745180477"><ele>149.5</ele><time>2026-05-02T14:26:49.999Z</time></trkpt><trkpt lat="45.78246646166717" lon="11.016581123967999"><ele>148.0</ele><time>2026-05-02T14:26:50.999Z</time></trkpt><trkpt lat="45.78225402604751" lon="11.01645065056468"><ele>148.0</ele><time>2026-05-02T14:26:51.999Z</time></trkpt><trkpt lat="45.78203187143255" lon="11.016343930914315"><ele>148.0</ele><time>2026-05-02T14:26:52.999Z</time></trkpt><trkpt lat="45.78179935340301" lon="11.016247992944125"><ele>148.0</ele><time>2026-05-02T14:26:53.999Z</time></trkpt><trkpt lat="45.78158861311036" lon="11.016156048197224"><ele>148.0</ele><time>2026-05-02T14:26:54.999Z</time></trkpt><trkpt lat="45.78141548059667" lon="11.01607187230779"><ele>148.0</ele><time>2026-05-02T14:26:55.999Z</time></trkpt><trkpt lat="45.781255528310425" lon="11.015987178295502"><ele>148.0</ele><time>2026-05-02T14:26:56.999Z</time></trkpt><trkpt lat="45.7810984499831" lon="11.015908655677011"><ele>148.0</ele><time>2026-05-02T14:26:57.999Z</time></trkpt><trkpt lat="45.78093974867872" lon="11.01583138505036"><ele>148.0</ele><time>2026-05-02T14:26:58.999Z</time></trkpt><trkpt lat="45.78076987540104" lon="11.015748402525675"><ele>147.33333333333334</ele><time>2026-05-02T14:26:59.999Z</time></trkpt><trkpt lat="45.78059217433964" lon="11.015663366350095"><ele>146.66666666666666</ele><time>2026-05-02T14:27:00.999Z</time></trkpt><trkpt lat="45.780401617967605" lon="11.015577393783838"><ele>146.0</ele><time>2026-05-02T14:27:01.999Z</time></trkpt><trkpt lat="45.780202853965406" lon="11.015483625061382"><ele>146.66666666666666</ele><time>2026-05-02T14:27:02.999Z</time></trkpt><trkpt lat="45.77999737438822" lon="11.01538456519398"><ele>147.33333333333334</ele><time>2026-05-02T14:27:03.999Z</time></trkpt><trkpt lat="45.77979301869668" lon="11.015287044942584"><ele>148.0</ele><time>2026-05-02T14:27:04.999Z</time></trkpt><trkpt lat="45.77958659744138" lon="11.015191331081297"><ele>148.0</ele><time>2026-05-02T14:27:05.999Z</time></trkpt><trkpt lat="45.77936841176987" lon="11.015091965376687"><ele>148.0</ele><time>2026-05-02T14:27:06.999Z</time></trkpt><trkpt lat="45.77915263895419" lon="11.014987487618512"><ele>147.0</ele><time>2026-05-02T14:27:07.999Z</time></trkpt><trkpt lat="45.77895130573985" lon="11.014884533493813"><ele>146.0</ele><time>2026-05-02T14:27:08.999Z</time></trkpt><trkpt lat="45.77879919455949" lon="11.014805042505445"><ele>145.0</ele><time>2026-05-02T14:27:09.999Z</time></trkpt><trkpt lat="45.7786653668854" lon="11.014731480997362"><ele>146.33333333333334</ele><time>2026-05-02T14:27:10.999Z</time></trkpt><trkpt lat="45.77851067348768" lon="11.014647406230152"><ele>147.66666666666666</ele><time>2026-05-02T14:27:11.999Z</time></trkpt><trkpt lat="45.778343520929184" lon="11.014563443087418"><ele>149.0</ele><time>2026-05-02T14:27:12.999Z</time></trkpt><trkpt lat="45.77816227951258" lon="11.01448044846101"><ele>149.0</ele><time>2026-05-02T14:27:13.999Z</time></trkpt><trkpt lat="45.777970917637944" lon="11.01440333191565"><ele>149.0</ele><time>2026-05-02T14:27:14.999Z</time></trkpt><trkpt lat="45.777768547144184" lon="11.014330197832898"><ele>149.0</ele><time>2026-05-02T14:27:15.999Z</time></trkpt><trkpt lat="45.77753083712855" lon="11.014249091328887"><ele>146.5</ele><time>2026-05-02T14:27:16.999Z</time></trkpt><trkpt lat="45.77724654817716" lon="11.014143749254288"><ele>144.0</ele><time>2026-05-02T14:27:17.999Z</time></trkpt><trkpt lat="45.776928401877285" lon="11.014010542944565"><ele>144.5</ele><time>2026-05-02T14:27:18.999Z</time></trkpt><trkpt lat="45.776570754696216" lon="11.013860679061722"><ele>145.0</ele><time>2026-05-02T14:27:19.999Z</time></trkpt><trkpt lat="45.776194084197556" lon="11.013712947484436"><ele>145.5</ele><time>2026-05-02T14:27:20.999Z</time></trkpt><trkpt lat="45.77580708748947" lon="11.013560045960851"><ele>146.0</ele><time>2026-05-02T14:27:21.999Z</time></trkpt><trkpt lat="45.7754322631707" lon="11.013410214993677"><ele>145.5</ele><time>2026-05-02T14:27:22.999Z</time></trkpt><trkpt lat="45.77507369995073" lon="11.013268078458934"><ele>145.0</ele><time>2026-05-02T14:27:23.999Z</time></trkpt><trkpt lat="45.774744134118" lon="11.013134599028033"><ele>145.0</ele><time>2026-05-02T14:27:24.999Z</time></trkpt><trkpt lat="45.774440330369366" lon="11.013011815615872"><ele>145.0</ele><time>2026-05-02T14:27:25.999Z</time></trkpt><trkpt lat="45.774154186285855" lon="11.012894377769463"><ele>146.0</ele><time>2026-05-02T14:27:26.999Z</time></trkpt><trkpt lat="45.77386478771967" lon="11.01278049223016"><ele>147.0</ele><time>2026-05-02T14:27:27.999Z</time></trkpt><trkpt lat="45.77357366297976" lon="11.012663733592552"><ele>147.0</ele><time>2026-05-02T14:27:28.999Z</time></trkpt><trkpt lat="45.77329382002118" lon="11.012549522993082"><ele>147.0</ele><time>2026-05-02T14:27:29.999Z</time></trkpt><trkpt lat="45.77302904631485" lon="11.012443692157191"><ele>145.0</ele><time>2026-05-02T14:27:30.999Z</time></trkpt><trkpt lat="45.77276465549738" lon="11.012337599863793"><ele>143.0</ele><time>2026-05-02T14:27:31.999Z</time></trkpt><trkpt lat="45.772506441626284" lon="11.012218181063112"><ele>143.0</ele><time>2026-05-02T14:27:32.999Z</time></trkpt><trkpt lat="45.77226393585035" lon="11.012086877370479"><ele>143.0</ele><time>2026-05-02T14:27:33.999Z</time></trkpt><trkpt lat="45.772011681660615" lon="11.011930427769943"><ele>142.5</ele><time>2026-05-02T14:27:34.999Z</time></trkpt><trkpt lat="45.77176197318632" lon="11.01175528368842"><ele>142.0</ele><time>2026-05-02T14:27:35.999Z</time></trkpt><trkpt lat="45.77152494924632" lon="11.011572160864365"><ele>142.0</ele><time>2026-05-02T14:27:36.999Z</time></trkpt><trkpt lat="45.771305124124446" lon="11.011397405645997"><ele>142.0</ele><time>2026-05-02T14:27:37.999Z</time></trkpt><trkpt lat="45.77109158839094" lon="11.0112371617539"><ele>144.0</ele><time>2026-05-02T14:27:38.999Z</time></trkpt><trkpt lat="45.77087728018343" lon="11.01107726856066"><ele>146.0</ele><time>2026-05-02T14:27:39.999Z</time></trkpt><trkpt lat="45.77066343936201" lon="11.01092125716856"><ele>142.5</ele><time>2026-05-02T14:27:40.999Z</time></trkpt><trkpt lat="45.77044951818942" lon="11.010763804628844"><ele>139.0</ele><time>2026-05-02T14:27:41.999Z</time></trkpt><trkpt lat="45.77024008249" lon="11.010609912881948"><ele>142.0</ele><time>2026-05-02T14:27:42.999Z</time></trkpt><trkpt lat="45.770034376287335" lon="11.010454020954581"><ele>145.0</ele><time>2026-05-02T14:27:43.999Z</time></trkpt><trkpt lat="45.76982994226718" lon="11.01029360871407"><ele>145.0</ele><time>2026-05-02T14:27:44.999Z</time></trkpt><trkpt lat="45.76962471161847" lon="11.010120164994508"><ele>145.0</ele><time>2026-05-02T14:27:45.999Z</time></trkpt><trkpt lat="45.769433309911854" lon="11.009950890740965"><ele>145.66666666666669</ele><time>2026-05-02T14:27:46.999Z</time></trkpt><trkpt lat="45.76925719325277" lon="11.009790028437303"><ele>146.33333333333334</ele><time>2026-05-02T14:27:47.999Z</time></trkpt><trkpt lat="45.76910258667119" lon="11.009647252257855"><ele>147.0</ele><time>2026-05-02T14:27:48.999Z</time></trkpt><trkpt lat="45.76897002588261" lon="11.009521562953937"><ele>147.0</ele><time>2026-05-02T14:27:49.999Z</time></trkpt><trkpt lat="45.7688594228809" lon="11.00941500664497"><ele>147.0</ele><time>2026-05-02T14:27:50.999Z</time></trkpt><trkpt lat="45.768767978107455" lon="11.009320356039453"><ele>147.0</ele><time>2026-05-02T14:27:51.999Z</time></trkpt><trkpt lat="45.76870274058375" lon="11.009229739230983"><ele>147.0</ele><time>2026-05-02T14:27:52.999Z</time></trkpt><trkpt lat="45.76866320870402" lon="11.009134826655407"><ele>147.0</ele><time>2026-05-02T14:27:53.999Z</time></trkpt><trkpt lat="45.76860801179515" lon="11.008985466906196"><ele>146.5</ele><time>2026-05-02T14:27:55.999Z</time></trkpt><trkpt lat="45.768533871418356" lon="11.008932444660124"><ele>146.0</ele><time>2026-05-02T14:27:56.999Z</time></trkpt><trkpt lat="45.76841676022407" lon="11.008895376649573"><ele>145.5</ele><time>2026-05-02T14:27:57.999Z</time></trkpt><trkpt lat="45.76828268329498" lon="11.008802760463064"><ele>145.0</ele><time>2026-05-02T14:27:58.999Z</time></trkpt><trkpt lat="45.76813420182903" lon="11.008651652109933"><ele>144.5</ele><time>2026-05-02T14:27:59.999Z</time></trkpt><trkpt lat="45.767950172423134" lon="11.008464328603171"><ele>144.0</ele><time>2026-05-02T14:28:00.999Z</time></trkpt><trkpt lat="45.76773922591972" lon="11.008277897086723"><ele>145.33333333333334</ele><time>2026-05-02T14:28:01.999Z</time></trkpt><trkpt lat="45.76755281121366" lon="11.008080480646097"><ele>146.66666666666669</ele><time>2026-05-02T14:28:02.999Z</time></trkpt><trkpt lat="45.76738118828899" lon="11.00790536789677"><ele>148.0</ele><time>2026-05-02T14:28:03.999Z</time></trkpt><trkpt lat="45.76721708768474" lon="11.007747630112094"><ele>148.0</ele><time>2026-05-02T14:28:04.999Z</time></trkpt><trkpt lat="45.76703610673575" lon="11.007621173765829"><ele>148.0</ele><time>2026-05-02T14:28:05.999Z</time></trkpt><trkpt lat="45.76681843690022" lon="11.007522413865876"><ele>148.0</ele><time>2026-05-02T14:28:06.999Z</time></trkpt><trkpt lat="45.76657351649591" lon="11.007445316321446"><ele>149.5</ele><time>2026-05-02T14:28:07.999Z</time></trkpt><trkpt lat="45.76630739287387" lon="11.00737986786554"><ele>151.0</ele><time>2026-05-02T14:28:08.999Z</time></trkpt><trkpt lat="45.76604197627183" lon="11.007327985432926"><ele>153.5</ele><time>2026-05-02T14:28:09.999Z</time></trkpt><trkpt lat="45.76578780642929" lon="11.007242347414875"><ele>156.0</ele><time>2026-05-02T14:28:10.999Z</time></trkpt><trkpt lat="45.76555087990007" lon="11.007183518810887"><ele>156.0</ele><time>2026-05-02T14:28:11.999Z</time></trkpt><trkpt lat="45.76531410643001" lon="11.007146779911855"><ele>156.0</ele><time>2026-05-02T14:28:12.999Z</time></trkpt><trkpt lat="45.765098315780556" lon="11.007063498842955"><ele>158.66666666666666</ele><time>2026-05-02T14:28:13.999Z</time></trkpt><trkpt lat="45.76490119093783" lon="11.006999731958196"><ele>161.33333333333331</ele><time>2026-05-02T14:28:14.999Z</time></trkpt><trkpt lat="45.76469711619099" lon="11.006953550854288"><ele>164.0</ele><time>2026-05-02T14:28:15.999Z</time></trkpt><trkpt lat="45.76449097094685" lon="11.006857828418452"><ele>164.66666666666666</ele><time>2026-05-02T14:28:16.999Z</time></trkpt><trkpt lat="45.76428886407941" lon="11.006735033222904"><ele>165.33333333333334</ele><time>2026-05-02T14:28:17.999Z</time></trkpt><trkpt lat="45.764097519511495" lon="11.006584712793567"><ele>166.0</ele><time>2026-05-02T14:28:18.999Z</time></trkpt><trkpt lat="45.7639147298975" lon="11.006414190505803"><ele>166.0</ele><time>2026-05-02T14:28:19.999Z</time></trkpt><trkpt lat="45.76373496695546" lon="11.006237246827332"><ele>166.0</ele><time>2026-05-02T14:28:20.999Z</time></trkpt><trkpt lat="45.76356827157446" lon="11.006074145882607"><ele>166.0</ele><time>2026-05-02T14:28:21.999Z</time></trkpt><trkpt lat="45.763416949556635" lon="11.005936939408711"><ele>166.75</ele><time>2026-05-02T14:28:22.999Z</time></trkpt><trkpt lat="45.76327853526606" lon="11.005805134700436"><ele>167.5</ele><time>2026-05-02T14:28:23.999Z</time></trkpt><trkpt lat="45.763166035538944" lon="11.005695103749481"><ele>168.25</ele><time>2026-05-02T14:28:24.999Z</time></trkpt><trkpt lat="45.763070848351624" lon="11.005601932211787"><ele>169.0</ele><time>2026-05-02T14:28:25.999Z</time></trkpt><trkpt lat="45.76298756938715" lon="11.005522681291458"><ele>169.0</ele><time>2026-05-02T14:28:26.999Z</time></trkpt><trkpt lat="45.762907672445046" lon="11.00544341076043"><ele>169.0</ele><time>2026-05-02T14:28:27.999Z</time></trkpt><trkpt lat="45.762845350620715" lon="11.005368138487713"><ele>169.0</ele><time>2026-05-02T14:28:28.999Z</time></trkpt><trkpt lat="45.762798345245535" lon="11.005292860807732"><ele>169.0</ele><time>2026-05-02T14:28:29.999Z</time></trkpt><trkpt lat="45.76277659716471" lon="11.005207748470106"><ele>169.0</ele><time>2026-05-02T14:28:30.999Z</time></trkpt><trkpt lat="45.7627849731" lon="11.005111645293512"><ele>169.0</ele><time>2026-05-02T14:28:31.999Z</time></trkpt><trkpt lat="45.76282255949476" lon="11.005011585655646"><ele>168.25</ele><time>2026-05-02T14:28:32.999Z</time></trkpt><trkpt lat="45.76288690591614" lon="11.004922233875426"><ele>167.5</ele><time>2026-05-02T14:28:33.999Z</time></trkpt><trkpt lat="45.762985336364174" lon="11.004831671808434"><ele>166.75</ele><time>2026-05-02T14:28:34.999Z</time></trkpt><trkpt lat="45.76310656717232" lon="11.004724102750552"><ele>166.0</ele><time>2026-05-02T14:28:35.999Z</time></trkpt><trkpt lat="45.76323688111503" lon="11.00460464877424"><ele>166.0</ele><time>2026-05-02T14:28:36.999Z</time></trkpt><trkpt lat="45.76335326554749" lon="11.004487500644945"><ele>166.0</ele><time>2026-05-02T14:28:37.999Z</time></trkpt><trkpt lat="45.76346817166605" lon="11.004357912695902"><ele>166.0</ele><time>2026-05-02T14:28:38.999Z</time></trkpt><trkpt lat="45.76358672044008" lon="11.00419367224702"><ele>163.66666666666669</ele><time>2026-05-02T14:28:39.999Z</time></trkpt><trkpt lat="45.76371875305661" lon="11.004010319847762"><ele>161.33333333333334</ele><time>2026-05-02T14:28:40.999Z</time></trkpt><trkpt lat="45.76383959388271" lon="11.003843714344624"><ele>159.0</ele><time>2026-05-02T14:28:41.999Z</time></trkpt><trkpt lat="45.76396727213607" lon="11.003697373275156"><ele>159.0</ele><time>2026-05-02T14:28:42.999Z</time></trkpt><trkpt lat="45.76409912584233" lon="11.003547957858867"><ele>159.0</ele><time>2026-05-02T14:28:43.999Z</time></trkpt><trkpt lat="45.76423376451337" lon="11.003395254098663"><ele>159.0</ele><time>2026-05-02T14:28:44.999Z</time></trkpt><trkpt lat="45.764371523845405" lon="11.003240236187585"><ele>157.33333333333334</ele><time>2026-05-02T14:28:45.999Z</time></trkpt><trkpt lat="45.764507417101235" lon="11.003061279311373"><ele>155.66666666666669</ele><time>2026-05-02T14:28:46.999Z</time></trkpt><trkpt lat="45.76464134424238" lon="11.002854654831452"><ele>154.0</ele><time>2026-05-02T14:28:47.999Z</time></trkpt><trkpt lat="45.76476997914208" lon="11.002639833255092"><ele>153.0</ele><time>2026-05-02T14:28:48.999Z</time></trkpt><trkpt lat="45.76489200763595" lon="11.002446124884196"><ele>152.0</ele><time>2026-05-02T14:28:49.999Z</time></trkpt><trkpt lat="45.76500172617888" lon="11.002264748033694"><ele>151.0</ele><time>2026-05-02T14:28:50.999Z</time></trkpt><trkpt lat="45.76510315922414" lon="11.002110828470219"><ele>148.33333333333334</ele><time>2026-05-02T14:28:51.999Z</time></trkpt><trkpt lat="45.76521315877705" lon="11.001964894275774"><ele>145.66666666666666</ele><time>2026-05-02T14:28:52.999Z</time></trkpt><trkpt lat="45.765334026793056" lon="11.00182690207249"><ele>143.0</ele><time>2026-05-02T14:28:53.999Z</time></trkpt><trkpt lat="45.765461577311115" lon="11.001689585506412"><ele>142.33333333333331</ele><time>2026-05-02T14:28:54.999Z</time></trkpt><trkpt lat="45.76559363018954" lon="11.0015507427758"><ele>141.66666666666666</ele><time>2026-05-02T14:28:55.999Z</time></trkpt><trkpt lat="45.76572898483398" lon="11.001409924389852"><ele>141.0</ele><time>2026-05-02T14:28:56.999Z</time></trkpt><trkpt lat="45.76587272710224" lon="11.001275664551272"><ele>141.0</ele><time>2026-05-02T14:28:57.999Z</time></trkpt><trkpt lat="45.76602692611999" lon="11.001136125360269"><ele>141.0</ele><time>2026-05-02T14:28:58.999Z</time></trkpt><trkpt lat="45.76615528605115" lon="11.000939604499964"><ele>141.0</ele><time>2026-05-02T14:28:59.999Z</time></trkpt><trkpt lat="45.76629409755621" lon="11.00078892006091"><ele>142.33333333333334</ele><time>2026-05-02T14:29:00.999Z</time></trkpt><trkpt lat="45.766423344740545" lon="11.000645587343488"><ele>143.66666666666669</ele><time>2026-05-02T14:29:01.999Z</time></trkpt><trkpt lat="45.766546102757324" lon="11.000513027083874"><ele>145.0</ele><time>2026-05-02T14:29:02.999Z</time></trkpt><trkpt lat="45.766659937575035" lon="11.000388555494439"><ele>145.0</ele><time>2026-05-02T14:29:03.999Z</time></trkpt><trkpt lat="45.76675592131354" lon="11.000279939453417"><ele>145.0</ele><time>2026-05-02T14:29:04.999Z</time></trkpt><trkpt lat="45.76685401138409" lon="11.000204413821159"><ele>145.0</ele><time>2026-05-02T14:29:05.999Z</time></trkpt><trkpt lat="45.76692388453081" lon="11.000136497837966"><ele>145.0</ele><time>2026-05-02T14:29:06.999Z</time></trkpt><trkpt lat="45.76701080643915" lon="11.00009065912634"><ele>145.0</ele><time>2026-05-02T14:29:08.999Z</time></trkpt><trkpt lat="45.76706117986173" lon="10.999903799738277"><ele>148.0</ele><time>2026-05-02T14:29:11.999Z</time></trkpt><trkpt lat="45.76705693434345" lon="10.999770695529426"><ele>151.0</ele><time>2026-05-02T14:29:12.999Z</time></trkpt><trkpt lat="45.767027188455394" lon="10.999569716217607"><ele>154.0</ele><time>2026-05-02T14:29:13.999Z</time></trkpt><trkpt lat="45.76696476994695" lon="10.999331651713977"><ele>157.0</ele><time>2026-05-02T14:29:14.999Z</time></trkpt><trkpt lat="45.76688911341911" lon="10.999092501952992"><ele>153.0</ele><time>2026-05-02T14:29:15.999Z</time></trkpt><trkpt lat="45.76678057183419" lon="10.998874975236264"><ele>149.0</ele><time>2026-05-02T14:29:16.999Z</time></trkpt><trkpt lat="45.7666350530731" lon="10.99869124990718"><ele>145.0</ele><time>2026-05-02T14:29:17.999Z</time></trkpt><trkpt lat="45.76645155668022" lon="10.998529288348312"><ele>145.0</ele><time>2026-05-02T14:29:18.999Z</time></trkpt><trkpt lat="45.766243781027164" lon="10.998406978928406"><ele>145.0</ele><time>2026-05-02T14:29:19.999Z</time></trkpt><trkpt lat="45.76600336325185" lon="10.998291074555386"><ele>146.5</ele><time>2026-05-02T14:29:20.999Z</time></trkpt><trkpt lat="45.765714541707986" lon="10.998136286506918"><ele>148.0</ele><time>2026-05-02T14:29:21.999Z</time></trkpt><trkpt lat="45.76542520113268" lon="10.997978016487679"><ele>145.0</ele><time>2026-05-02T14:29:22.999Z</time></trkpt><trkpt lat="45.76515830529371" lon="10.997823432873073"><ele>142.0</ele><time>2026-05-02T14:29:23.999Z</time></trkpt><trkpt lat="45.76489978376269" lon="10.997677136001046"><ele>142.0</ele><time>2026-05-02T14:29:24.999Z</time></trkpt><trkpt lat="45.76465430784523" lon="10.997530878693183"><ele>142.0</ele><time>2026-05-02T14:29:25.999Z</time></trkpt><trkpt lat="45.76441066577447" lon="10.997391671824541"><ele>144.5</ele><time>2026-05-02T14:29:26.999Z</time></trkpt><trkpt lat="45.7641608027661" lon="10.997246727355233"><ele>147.0</ele><time>2026-05-02T14:29:27.999Z</time></trkpt><trkpt lat="45.76391900632268" lon="10.997037292824636"><ele>147.0</ele><time>2026-05-02T14:29:28.999Z</time></trkpt><trkpt lat="45.76364933830976" lon="10.996812985642718"><ele>147.0</ele><time>2026-05-02T14:29:29.999Z</time></trkpt><trkpt lat="45.76335008008445" lon="10.996562054647542"><ele>148.5</ele><time>2026-05-02T14:29:30.999Z</time></trkpt><trkpt lat="45.76304218067555" lon="10.996303995167153"><ele>150.0</ele><time>2026-05-02T14:29:31.999Z</time></trkpt><trkpt lat="45.76273686904683" lon="10.996071915302752"><ele>154.5</ele><time>2026-05-02T14:29:32.999Z</time></trkpt><trkpt lat="45.762447824722855" lon="10.995806896741241"><ele>159.0</ele><time>2026-05-02T14:29:33.999Z</time></trkpt><trkpt lat="45.76213992998673" lon="10.995571839775456"><ele>150.0</ele><time>2026-05-02T14:29:34.999Z</time></trkpt><trkpt lat="45.76185286840991" lon="10.9953280110718"><ele>141.0</ele><time>2026-05-02T14:29:35.999Z</time></trkpt><trkpt lat="45.761579719120675" lon="10.99509028445894"><ele>151.5</ele><time>2026-05-02T14:29:36.999Z</time></trkpt><trkpt lat="45.76132367514776" lon="10.994861051851327"><ele>162.0</ele><time>2026-05-02T14:29:37.999Z</time></trkpt><trkpt lat="45.76107708951822" lon="10.994624332726662"><ele>161.0</ele><time>2026-05-02T14:29:38.999Z</time></trkpt><trkpt lat="45.76082336247599" lon="10.994374662459514"><ele>160.0</ele><time>2026-05-02T14:29:39.999Z</time></trkpt><trkpt lat="45.76056355557673" lon="10.994121477285981"><ele>160.0</ele><time>2026-05-02T14:29:40.999Z</time></trkpt><trkpt lat="45.760304106432976" lon="10.99387604102773"><ele>160.0</ele><time>2026-05-02T14:29:41.999Z</time></trkpt><trkpt lat="45.76004168407083" lon="10.993636952634478"><ele>157.5</ele><time>2026-05-02T14:29:42.999Z</time></trkpt><trkpt lat="45.75977962051675" lon="10.99343050831141"><ele>155.0</ele><time>2026-05-02T14:29:43.999Z</time></trkpt><trkpt lat="45.75950063945406" lon="10.993245008289612"><ele>148.5</ele><time>2026-05-02T14:29:44.999Z</time></trkpt><trkpt lat="45.75922979118836" lon="10.993086404497344"><ele>142.0</ele><time>2026-05-02T14:29:45.999Z</time></trkpt><trkpt lat="45.75899651433365" lon="10.99294667299847"><ele>142.0</ele><time>2026-05-02T14:29:46.999Z</time></trkpt><trkpt lat="45.75880766613435" lon="10.992827100168133"><ele>142.0</ele><time>2026-05-02T14:29:47.999Z</time></trkpt><trkpt lat="45.75863182432965" lon="10.992713371137645"><ele>142.0</ele><time>2026-05-02T14:29:48.999Z</time></trkpt><trkpt lat="45.75846791742845" lon="10.992601167220762"><ele>143.33333333333334</ele><time>2026-05-02T14:29:49.999Z</time></trkpt><trkpt lat="45.75831572140223" lon="10.992456104219151"><ele>144.66666666666666</ele><time>2026-05-02T14:29:50.999Z</time></trkpt><trkpt lat="45.75815107943188" lon="10.992302874640147"><ele>146.0</ele><time>2026-05-02T14:29:51.999Z</time></trkpt><trkpt lat="45.75798633935583" lon="10.992140766141342"><ele>146.0</ele><time>2026-05-02T14:29:52.999Z</time></trkpt><trkpt lat="45.75781124229752" lon="10.99196774449017"><ele>146.0</ele><time>2026-05-02T14:29:53.999Z</time></trkpt><trkpt lat="45.757607074465106" lon="10.991776959682618"><ele>146.5</ele><time>2026-05-02T14:29:54.999Z</time></trkpt><trkpt lat="45.75738024645217" lon="10.991551617602603"><ele>147.0</ele><time>2026-05-02T14:29:55.999Z</time></trkpt><trkpt lat="45.75711813759336" lon="10.991305929729963"><ele>144.5</ele><time>2026-05-02T14:29:56.999Z</time></trkpt><trkpt lat="45.756818048155615" lon="10.991048975286411"><ele>142.0</ele><time>2026-05-02T14:29:57.999Z</time></trkpt><trkpt lat="45.756493679846216" lon="10.99077643467111"><ele>142.0</ele><time>2026-05-02T14:29:58.999Z</time></trkpt><trkpt lat="45.756179009326345" lon="10.990509985857798"><ele>142.0</ele><time>2026-05-02T14:29:59.999Z</time></trkpt><trkpt lat="45.755897983577256" lon="10.990267185113836"><ele>142.0</ele><time>2026-05-02T14:30:00.999Z</time></trkpt><trkpt lat="45.75566091169414" lon="10.990051532742232"><ele>142.0</ele><time>2026-05-02T14:30:01.999Z</time></trkpt><trkpt lat="45.755475149682596" lon="10.989864139485233"><ele>142.33333333333334</ele><time>2026-05-02T14:30:02.999Z</time></trkpt><trkpt lat="45.755313846487205" lon="10.989662107412803"><ele>142.66666666666666</ele><time>2026-05-02T14:30:03.999Z</time></trkpt><trkpt lat="45.755180252590435" lon="10.989430584753121"><ele>143.0</ele><time>2026-05-02T14:30:04.999Z</time></trkpt><trkpt lat="45.755070222252094" lon="10.989201229119839"><ele>141.33333333333331</ele><time>2026-05-02T14:30:05.999Z</time></trkpt><trkpt lat="45.754981089914736" lon="10.988968583568548"><ele>139.66666666666666</ele><time>2026-05-02T14:30:06.999Z</time></trkpt><trkpt lat="45.754902794721104" lon="10.988716787918412"><ele>138.0</ele><time>2026-05-02T14:30:07.999Z</time></trkpt><trkpt lat="45.754832869062206" lon="10.988446184353194"><ele>139.0</ele><time>2026-05-02T14:30:08.999Z</time></trkpt><trkpt lat="45.75475899528877" lon="10.988154327555849"><ele>140.0</ele><time>2026-05-02T14:30:09.999Z</time></trkpt><trkpt lat="45.75467963777906" lon="10.987867757233818"><ele>141.0</ele><time>2026-05-02T14:30:10.999Z</time></trkpt><trkpt lat="45.75458991745767" lon="10.987609550182908"><ele>143.33333333333334</ele><time>2026-05-02T14:30:11.999Z</time></trkpt><trkpt lat="45.75447897956184" lon="10.987377630216235"><ele>145.66666666666669</ele><time>2026-05-02T14:30:12.999Z</time></trkpt><trkpt lat="45.75433449426658" lon="10.98718525680204"><ele>148.0</ele><time>2026-05-02T14:30:13.999Z</time></trkpt><trkpt lat="45.75417584365107" lon="10.987019267459106"><ele>148.0</ele><time>2026-05-02T14:30:14.999Z</time></trkpt><trkpt lat="45.75401007111946" lon="10.986879925880082"><ele>148.0</ele><time>2026-05-02T14:30:15.999Z</time></trkpt><trkpt lat="45.75382787835678" lon="10.986766657313138"><ele>148.0</ele><time>2026-05-02T14:30:16.999Z</time></trkpt><trkpt lat="45.7536377551367" lon="10.986641326277123"><ele>147.33333333333334</ele><time>2026-05-02T14:30:17.999Z</time></trkpt><trkpt lat="45.75345909074827" lon="10.986459229096212"><ele>146.66666666666666</ele><time>2026-05-02T14:30:18.999Z</time></trkpt><trkpt lat="45.75328918491038" lon="10.98624643235911"><ele>146.0</ele><time>2026-05-02T14:30:19.999Z</time></trkpt><trkpt lat="45.75313071490858" lon="10.986003047885735"><ele>149.5</ele><time>2026-05-02T14:30:20.999Z</time></trkpt><trkpt lat="45.752983246906844" lon="10.985731273043157"><ele>153.0</ele><time>2026-05-02T14:30:21.999Z</time></trkpt><trkpt lat="45.75284759139428" lon="10.985427276177997"><ele>153.0</ele><time>2026-05-02T14:30:23Z</time></trkpt><trkpt lat="45.752737426086554" lon="10.985076102327747"><ele>153.0</ele><time>2026-05-02T14:30:24Z</time></trkpt><trkpt lat="45.75263620954695" lon="10.984719906509433"><ele>149.0</ele><time>2026-05-02T14:30:25Z</time></trkpt><trkpt lat="45.752537652553826" lon="10.984361302243231"><ele>145.0</ele><time>2026-05-02T14:30:26Z</time></trkpt><trkpt lat="45.7524431450455" lon="10.98403388913935"><ele>145.0</ele><time>2026-05-02T14:30:27Z</time></trkpt><trkpt lat="45.75233969925469" lon="10.983733856596558"><ele>145.0</ele><time>2026-05-02T14:30:28Z</time></trkpt><trkpt lat="45.75221448888687" lon="10.983482760670755"><ele>145.0</ele><time>2026-05-02T14:30:29Z</time></trkpt><trkpt lat="45.75206199929395" lon="10.98327315151627"><ele>144.0</ele><time>2026-05-02T14:30:30Z</time></trkpt><trkpt lat="45.75187518838945" lon="10.983076156112263"><ele>143.0</ele><time>2026-05-02T14:30:31Z</time></trkpt><trkpt lat="45.751671813732536" lon="10.982854015733901"><ele>143.0</ele><time>2026-05-02T14:30:32Z</time></trkpt><trkpt lat="45.75145778856145" lon="10.982588414395122"><ele>143.0</ele><time>2026-05-02T14:30:33Z</time></trkpt><trkpt lat="45.751239457512085" lon="10.982258477384436"><ele>144.0</ele><time>2026-05-02T14:30:34Z</time></trkpt><trkpt lat="45.7510326669987" lon="10.981937615585798"><ele>145.0</ele><time>2026-05-02T14:30:35Z</time></trkpt><trkpt lat="45.750848184020086" lon="10.981650901796483"><ele>145.0</ele><time>2026-05-02T14:30:36Z</time></trkpt><trkpt lat="45.75067412673039" lon="10.981390022575821"><ele>145.0</ele><time>2026-05-02T14:30:37Z</time></trkpt><trkpt lat="45.75050243133227" lon="10.981149580797982"><ele>145.0</ele><time>2026-05-02T14:30:38Z</time></trkpt><trkpt lat="45.75032655957007" lon="10.980937932919858"><ele>145.0</ele><time>2026-05-02T14:30:39Z</time></trkpt><trkpt lat="45.75013190268501" lon="10.980757669655432"><ele>145.0</ele><time>2026-05-02T14:30:40Z</time></trkpt><trkpt lat="45.74990238700247" lon="10.980597627097081"><ele>145.0</ele><time>2026-05-02T14:30:41Z</time></trkpt><trkpt lat="45.7496475983735" lon="10.980440180161057"><ele>145.0</ele><time>2026-05-02T14:30:42Z</time></trkpt><trkpt lat="45.74939162949733" lon="10.980270270075254"><ele>145.0</ele><time>2026-05-02T14:30:43Z</time></trkpt><trkpt lat="45.74914156354866" lon="10.980099401220597"><ele>147.0</ele><time>2026-05-02T14:30:44Z</time></trkpt><trkpt lat="45.74889964456396" lon="10.979927209527471"><ele>149.0</ele><time>2026-05-02T14:30:45Z</time></trkpt><trkpt lat="45.74867007789117" lon="10.97976029287626"><ele>147.0</ele><time>2026-05-02T14:30:46Z</time></trkpt><trkpt lat="45.74846295185023" lon="10.979606002182418"><ele>145.0</ele><time>2026-05-02T14:30:47Z</time></trkpt><trkpt lat="45.748289275508874" lon="10.979466133233643"><ele>143.0</ele><time>2026-05-02T14:30:48Z</time></trkpt><trkpt lat="45.74814538241581" lon="10.979305019628177"><ele>146.0</ele><time>2026-05-02T14:30:49Z</time></trkpt><trkpt lat="45.74802783141306" lon="10.979097935361931"><ele>149.0</ele><time>2026-05-02T14:30:50Z</time></trkpt><trkpt lat="45.74793077722911" lon="10.978833139482967"><ele>152.0</ele><time>2026-05-02T14:30:51Z</time></trkpt><trkpt lat="45.74784356581169" lon="10.978531203749533"><ele>153.0</ele><time>2026-05-02T14:30:52Z</time></trkpt><trkpt lat="45.74774877855293" lon="10.978208734219487"><ele>154.0</ele><time>2026-05-02T14:30:53Z</time></trkpt><trkpt lat="45.74764388537953" lon="10.977912943264617"><ele>152.0</ele><time>2026-05-02T14:30:54Z</time></trkpt><trkpt lat="45.74751670696076" lon="10.9776429464398"><ele>150.0</ele><time>2026-05-02T14:30:55Z</time></trkpt><trkpt lat="45.74735682755807" lon="10.977381288151856"><ele>150.0</ele><time>2026-05-02T14:30:56Z</time></trkpt><trkpt lat="45.74715666859485" lon="10.97709368819412"><ele>150.0</ele><time>2026-05-02T14:30:57Z</time></trkpt><trkpt lat="45.74697733238558" lon="10.976805391659004"><ele>145.5</ele><time>2026-05-02T14:30:58Z</time></trkpt><trkpt lat="45.7468176351685" lon="10.976544642327305"><ele>141.0</ele><time>2026-05-02T14:30:59Z</time></trkpt><trkpt lat="45.74666623791519" lon="10.976334115238853"><ele>141.0</ele><time>2026-05-02T14:31:00Z</time></trkpt><trkpt lat="45.74649547341891" lon="10.976155693650208"><ele>141.0</ele><time>2026-05-02T14:31:01Z</time></trkpt><trkpt lat="45.74629346128248" lon="10.97598405857447"><ele>141.0</ele><time>2026-05-02T14:31:02Z</time></trkpt><trkpt lat="45.746084134175156" lon="10.975813339641237"><ele>141.66666666666666</ele><time>2026-05-02T14:31:03Z</time></trkpt><trkpt lat="45.74589234133446" lon="10.975648935425001"><ele>142.33333333333331</ele><time>2026-05-02T14:31:04Z</time></trkpt><trkpt lat="45.745712537112965" lon="10.975486295819824"><ele>143.0</ele><time>2026-05-02T14:31:05Z</time></trkpt><trkpt lat="45.74554948748942" lon="10.975329053535738"><ele>143.0</ele><time>2026-05-02T14:31:06Z</time></trkpt><trkpt lat="45.745410320182096" lon="10.975175901006798"><ele>143.0</ele><time>2026-05-02T14:31:07Z</time></trkpt><trkpt lat="45.745288432925236" lon="10.975014090546747"><ele>143.0</ele><time>2026-05-02T14:31:08Z</time></trkpt><trkpt lat="45.74516667143842" lon="10.974813716373042"><ele>143.5</ele><time>2026-05-02T14:31:09Z</time></trkpt><trkpt lat="45.745019862398706" lon="10.974561076762306"><ele>144.0</ele><time>2026-05-02T14:31:10Z</time></trkpt><trkpt lat="45.74484127138537" lon="10.974262203919084"><ele>150.0</ele><time>2026-05-02T14:31:11Z</time></trkpt><trkpt lat="45.74463599855012" lon="10.973929196732449"><ele>156.0</ele><time>2026-05-02T14:31:12Z</time></trkpt><trkpt lat="45.74443521371441" lon="10.973591454353585"><ele>149.0</ele><time>2026-05-02T14:31:13Z</time></trkpt><trkpt lat="45.744264091855804" lon="10.973273182666542"><ele>142.0</ele><time>2026-05-02T14:31:14Z</time></trkpt><trkpt lat="45.744094538876766" lon="10.97295552054138"><ele>142.0</ele><time>2026-05-02T14:31:15Z</time></trkpt><trkpt lat="45.74391625563057" lon="10.972647717781834"><ele>142.0</ele><time>2026-05-02T14:31:16Z</time></trkpt><trkpt lat="45.74374252710113" lon="10.972353919511997"><ele>144.0</ele><time>2026-05-02T14:31:17Z</time></trkpt><trkpt lat="45.743575307282576" lon="10.972069659776192"><ele>146.0</ele><time>2026-05-02T14:31:18Z</time></trkpt><trkpt lat="45.74342446101603" lon="10.971795684837954"><ele>143.5</ele><time>2026-05-02T14:31:19Z</time></trkpt><trkpt lat="45.74329093069664" lon="10.97151705928181"><ele>141.0</ele><time>2026-05-02T14:31:20Z</time></trkpt><trkpt lat="45.743168931489045" lon="10.971217718812312"><ele>141.0</ele><time>2026-05-02T14:31:21Z</time></trkpt><trkpt lat="45.74306116945871" lon="10.970902058076733"><ele>141.0</ele><time>2026-05-02T14:31:22Z</time></trkpt><trkpt lat="45.742972654132195" lon="10.97057291469109"><ele>145.5</ele><time>2026-05-02T14:31:23Z</time></trkpt><trkpt lat="45.742906321873136" lon="10.970225525435566"><ele>150.0</ele><time>2026-05-02T14:31:24Z</time></trkpt><trkpt lat="45.74284254593243" lon="10.969873437840915"><ele>151.0</ele><time>2026-05-02T14:31:25Z</time></trkpt><trkpt lat="45.742785567935506" lon="10.969540139399482"><ele>152.0</ele><time>2026-05-02T14:31:26Z</time></trkpt><trkpt lat="45.74272670458471" lon="10.969188886725721"><ele>149.5</ele><time>2026-05-02T14:31:27Z</time></trkpt><trkpt lat="45.74266261464841" lon="10.968822083505614"><ele>147.0</ele><time>2026-05-02T14:31:28Z</time></trkpt><trkpt lat="45.74259757026648" lon="10.968464023885604"><ele>148.5</ele><time>2026-05-02T14:31:29Z</time></trkpt><trkpt lat="45.742528601568786" lon="10.968102267293808"><ele>150.0</ele><time>2026-05-02T14:31:30Z</time></trkpt><trkpt lat="45.742453292273744" lon="10.967740768427932"><ele>151.0</ele><time>2026-05-02T14:31:31Z</time></trkpt><trkpt lat="45.74236803875613" lon="10.967372299825886"><ele>152.0</ele><time>2026-05-02T14:31:32Z</time></trkpt><trkpt lat="45.74227931803585" lon="10.967006687057744"><ele>151.5</ele><time>2026-05-02T14:31:33Z</time></trkpt><trkpt lat="45.74218828472761" lon="10.96663773954858"><ele>151.0</ele><time>2026-05-02T14:31:34Z</time></trkpt><trkpt lat="45.74209912566688" lon="10.966264986785944"><ele>151.0</ele><time>2026-05-02T14:31:35Z</time></trkpt><trkpt lat="45.74201294005916" lon="10.96590433275955"><ele>151.0</ele><time>2026-05-02T14:31:36Z</time></trkpt><trkpt lat="45.74192999723063" lon="10.965552033055054"><ele>148.0</ele><time>2026-05-02T14:31:37Z</time></trkpt><trkpt lat="45.741855630098264" lon="10.965217222836669"><ele>145.0</ele><time>2026-05-02T14:31:38Z</time></trkpt><trkpt lat="45.74179365736375" lon="10.96490068777961"><ele>144.66666666666669</ele><time>2026-05-02T14:31:39Z</time></trkpt><trkpt lat="45.741739515882436" lon="10.96460002335588"><ele>144.33333333333334</ele><time>2026-05-02T14:31:40Z</time></trkpt><trkpt lat="45.74168483246846" lon="10.964308922651504"><ele>144.0</ele><time>2026-05-02T14:31:41Z</time></trkpt><trkpt lat="45.74162820763197" lon="10.964011451146451"><ele>144.0</ele><time>2026-05-02T14:31:41.999Z</time></trkpt><trkpt lat="45.7415652929216" lon="10.963709695132202"><ele>144.0</ele><time>2026-05-02T14:31:42.999Z</time></trkpt><trkpt lat="45.741508899967826" lon="10.963377146656619"><ele>144.0</ele><time>2026-05-02T14:31:43.999Z</time></trkpt><trkpt lat="45.7414403544824" lon="10.96304640478239"><ele>144.0</ele><time>2026-05-02T14:31:44.999Z</time></trkpt><trkpt lat="45.74136119260295" lon="10.962751309292665"><ele>143.0</ele><time>2026-05-02T14:31:45.999Z</time></trkpt><trkpt lat="45.74130688327381" lon="10.962462770631296"><ele>142.0</ele><time>2026-05-02T14:31:47Z</time></trkpt><trkpt lat="45.74125526661503" lon="10.962192651223948"><ele>141.0</ele><time>2026-05-02T14:31:48Z</time></trkpt><trkpt lat="45.74120118095152" lon="10.961926990243967"><ele>141.33333333333334</ele><time>2026-05-02T14:31:49Z</time></trkpt><trkpt lat="45.7411417966965" lon="10.961676107282763"><ele>141.66666666666669</ele><time>2026-05-02T14:31:50Z</time></trkpt><trkpt lat="45.741085731620664" lon="10.961439339556788"><ele>142.0</ele><time>2026-05-02T14:31:51Z</time></trkpt><trkpt lat="45.741037698458214" lon="10.961220503745496"><ele>142.25</ele><time>2026-05-02T14:31:52Z</time></trkpt><trkpt lat="45.7409942727217" lon="10.961016364716096"><ele>142.5</ele><time>2026-05-02T14:31:53Z</time></trkpt><trkpt lat="45.74095247519887" lon="10.96082359720927"><ele>142.75</ele><time>2026-05-02T14:31:54Z</time></trkpt><trkpt lat="45.74091431258147" lon="10.960647612252801"><ele>143.0</ele><time>2026-05-02T14:31:55Z</time></trkpt><trkpt lat="45.740874367482725" lon="10.96047131775078"><ele>143.75</ele><time>2026-05-02T14:31:56Z</time></trkpt><trkpt lat="45.74083303243055" lon="10.960294965580262"><ele>144.5</ele><time>2026-05-02T14:31:57Z</time></trkpt><trkpt lat="45.740794484360656" lon="10.960121087911565"><ele>145.25</ele><time>2026-05-02T14:31:58Z</time></trkpt><trkpt lat="45.740759976312354" lon="10.959963776039059"><ele>146.0</ele><time>2026-05-02T14:31:59Z</time></trkpt><trkpt lat="45.74072397939001" lon="10.959813960664741"><ele>146.0</ele><time>2026-05-02T14:32:00Z</time></trkpt><trkpt lat="45.740687752395296" lon="10.959659998423207"><ele>146.0</ele><time>2026-05-02T14:32:01Z</time></trkpt><trkpt lat="45.74065275212044" lon="10.959505857681089"><ele>146.0</ele><time>2026-05-02T14:32:02Z</time></trkpt><trkpt lat="45.74061588077825" lon="10.959352488061596"><ele>146.0</ele><time>2026-05-02T14:32:03Z</time></trkpt><trkpt lat="45.740573766151215" lon="10.959200254865378"><ele>146.0</ele><time>2026-05-02T14:32:04Z</time></trkpt><trkpt lat="45.74052408554934" lon="10.959049679828258"><ele>146.0</ele><time>2026-05-02T14:32:05Z</time></trkpt><trkpt lat="45.74046994900416" lon="10.958900600027848"><ele>146.0</ele><time>2026-05-02T14:32:06Z</time></trkpt><trkpt lat="45.74041031937148" lon="10.958742536483536"><ele>146.0</ele><time>2026-05-02T14:32:07Z</time></trkpt><trkpt lat="45.74035420749853" lon="10.958578901423722"><ele>146.0</ele><time>2026-05-02T14:32:08Z</time></trkpt><trkpt lat="45.74029996203672" lon="10.958410707604909"><ele>146.0</ele><time>2026-05-02T14:32:09Z</time></trkpt><trkpt lat="45.74023872245261" lon="10.95824127207138"><ele>146.0</ele><time>2026-05-02T14:32:10Z</time></trkpt><trkpt lat="45.74017588524732" lon="10.958064250212166"><ele>146.0</ele><time>2026-05-02T14:32:11Z</time></trkpt><trkpt lat="45.74010787384501" lon="10.957879408279554"><ele>146.0</ele><time>2026-05-02T14:32:12Z</time></trkpt><trkpt lat="45.74004191156347" lon="10.95769788496945"><ele>146.0</ele><time>2026-05-02T14:32:13Z</time></trkpt><trkpt lat="45.73998210475704" lon="10.957530391448996"><ele>146.0</ele><time>2026-05-02T14:32:14Z</time></trkpt><trkpt lat="45.73992247796507" lon="10.957369435666259"><ele>146.0</ele><time>2026-05-02T14:32:15Z</time></trkpt><trkpt lat="45.73986342153744" lon="10.95720726177236"><ele>146.0</ele><time>2026-05-02T14:32:16Z</time></trkpt><trkpt lat="45.73980618879707" lon="10.957040773771615"><ele>146.0</ele><time>2026-05-02T14:32:17Z</time></trkpt><trkpt lat="45.73975074311995" lon="10.956867256258874"><ele>146.0</ele><time>2026-05-02T14:32:18Z</time></trkpt><trkpt lat="45.73969481545161" lon="10.956685177320786"><ele>146.0</ele><time>2026-05-02T14:32:19Z</time></trkpt><trkpt lat="45.73964234281995" lon="10.956492973146638"><ele>147.0</ele><time>2026-05-02T14:32:20Z</time></trkpt><trkpt lat="45.73959653045591" lon="10.95628945407638"><ele>148.0</ele><time>2026-05-02T14:32:21Z</time></trkpt><trkpt lat="45.739555386275846" lon="10.956075384345443"><ele>149.0</ele><time>2026-05-02T14:32:22Z</time></trkpt><trkpt lat="45.73951647060141" lon="10.955847838015996"><ele>149.0</ele><time>2026-05-02T14:32:23Z</time></trkpt><trkpt lat="45.73947672667107" lon="10.95560845185584"><ele>149.0</ele><time>2026-05-02T14:32:24Z</time></trkpt><trkpt lat="45.739433399725435" lon="10.955359813429116"><ele>149.0</ele><time>2026-05-02T14:32:25Z</time></trkpt><trkpt lat="45.73938807795562" lon="10.95511094385256"><ele>146.33333333333331</ele><time>2026-05-02T14:32:26Z</time></trkpt><trkpt lat="45.7393423170578" lon="10.95485616216372"><ele>143.66666666666666</ele><time>2026-05-02T14:32:27Z</time></trkpt><trkpt lat="45.739293157395466" lon="10.95459764667736"><ele>141.0</ele><time>2026-05-02T14:32:28Z</time></trkpt><trkpt lat="45.739237836717095" lon="10.954308622588721"><ele>142.0</ele><time>2026-05-02T14:32:29Z</time></trkpt><trkpt lat="45.73919596145666" lon="10.953975651471605"><ele>143.0</ele><time>2026-05-02T14:32:30Z</time></trkpt><trkpt lat="45.73912329781281" lon="10.95370711833381"><ele>144.0</ele><time>2026-05-02T14:32:31Z</time></trkpt><trkpt lat="45.739064104774776" lon="10.953480692247467"><ele>144.2</ele><time>2026-05-02T14:32:32Z</time></trkpt><trkpt lat="45.73900876782967" lon="10.953301309274329"><ele>144.4</ele><time>2026-05-02T14:32:33Z</time></trkpt><trkpt lat="45.738963514566805" lon="10.9531666908828"><ele>144.6</ele><time>2026-05-02T14:32:34Z</time></trkpt><trkpt lat="45.738930728195086" lon="10.953028883422347"><ele>144.8</ele><time>2026-05-02T14:32:35Z</time></trkpt><trkpt lat="45.73891227891336" lon="10.952901182125894"><ele>145.0</ele><time>2026-05-02T14:32:36Z</time></trkpt><trkpt lat="45.73888678273583" lon="10.952769790969752"><ele>145.0</ele><time>2026-05-02T14:32:37Z</time></trkpt><trkpt lat="45.73881797728882" lon="10.952641712711355"><ele>145.0</ele><time>2026-05-02T14:32:38Z</time></trkpt><trkpt lat="45.73871234482041" lon="10.952493229729717"><ele>145.0</ele><time>2026-05-02T14:32:39Z</time></trkpt><trkpt lat="45.73859592072708" lon="10.952280414182628"><ele>145.0</ele><time>2026-05-02T14:32:40Z</time></trkpt><trkpt lat="45.738464442728876" lon="10.952004145463807"><ele>142.33333333333334</ele><time>2026-05-02T14:32:41Z</time></trkpt><trkpt lat="45.7383411004761" lon="10.951736370549037"><ele>139.66666666666666</ele><time>2026-05-02T14:32:42Z</time></trkpt><trkpt lat="45.73822621865955" lon="10.951482816424411"><ele>137.0</ele><time>2026-05-02T14:32:43Z</time></trkpt><trkpt lat="45.73810525681898" lon="10.951225580813546"><ele>137.0</ele><time>2026-05-02T14:32:44Z</time></trkpt><trkpt lat="45.73798767937717" lon="10.950963262470395"><ele>137.0</ele><time>2026-05-02T14:32:45Z</time></trkpt><trkpt lat="45.7378724953042" lon="10.950695938138978"><ele>137.0</ele><time>2026-05-02T14:32:46Z</time></trkpt><trkpt lat="45.7377583605006" lon="10.950429849656722"><ele>135.66666666666666</ele><time>2026-05-02T14:32:47Z</time></trkpt><trkpt lat="45.73764562147114" lon="10.950172708983214"><ele>134.33333333333334</ele><time>2026-05-02T14:32:48Z</time></trkpt><trkpt lat="45.73753919803095" lon="10.949931439041174"><ele>133.0</ele><time>2026-05-02T14:32:49Z</time></trkpt><trkpt lat="45.73743967980264" lon="10.949703082952244"><ele>133.0</ele><time>2026-05-02T14:32:50Z</time></trkpt><trkpt lat="45.73734689336015" lon="10.94948275342405"><ele>133.0</ele><time>2026-05-02T14:32:51Z</time></trkpt><trkpt lat="45.737274247985994" lon="10.949267848212447"><ele>133.0</ele><time>2026-05-02T14:32:52Z</time></trkpt><trkpt lat="45.737219279089224" lon="10.949050044032589"><ele>132.33333333333334</ele><time>2026-05-02T14:32:53Z</time></trkpt><trkpt lat="45.73718130119921" lon="10.948822676260539"><ele>131.66666666666666</ele><time>2026-05-02T14:32:54Z</time></trkpt><trkpt lat="45.73715892235083" lon="10.948603472544097"><ele>131.0</ele><time>2026-05-02T14:32:55Z</time></trkpt><trkpt lat="45.73714365557593" lon="10.9483999779137"><ele>131.0</ele><time>2026-05-02T14:32:56Z</time></trkpt><trkpt lat="45.737129320172976" lon="10.94821357962936"><ele>131.0</ele><time>2026-05-02T14:32:57Z</time></trkpt><trkpt lat="45.737118333677806" lon="10.948047774345731"><ele>131.0</ele><time>2026-05-02T14:32:58Z</time></trkpt><trkpt lat="45.73710777537619" lon="10.947886663524844"><ele>131.0</ele><time>2026-05-02T14:32:59Z</time></trkpt><trkpt lat="45.73709553965347" lon="10.947734189525985"><ele>131.0</ele><time>2026-05-02T14:33:00Z</time></trkpt><trkpt lat="45.737088511053855" lon="10.947589392097006"><ele>131.0</ele><time>2026-05-02T14:33:01Z</time></trkpt><trkpt lat="45.7370755535707" lon="10.947453602945513"><ele>131.0</ele><time>2026-05-02T14:33:02Z</time></trkpt><trkpt lat="45.73706475261905" lon="10.947329263445093"><ele>131.0</ele><time>2026-05-02T14:33:03Z</time></trkpt><trkpt lat="45.73705402689728" lon="10.947212674989657"><ele>131.0</ele><time>2026-05-02T14:33:04Z</time></trkpt><trkpt lat="45.737043462152755" lon="10.947072142348395"><ele>131.0</ele><time>2026-05-02T14:33:05Z</time></trkpt><trkpt lat="45.73703596453179" lon="10.946937820519784"><ele>131.0</ele><time>2026-05-02T14:33:06Z</time></trkpt><trkpt lat="45.73702732751354" lon="10.946815337359897"><ele>131.0</ele><time>2026-05-02T14:33:07Z</time></trkpt><trkpt lat="45.73701751102295" lon="10.94670050030346"><ele>131.0</ele><time>2026-05-02T14:33:08Z</time></trkpt><trkpt lat="45.737007855896735" lon="10.946575401446935"><ele>131.0</ele><time>2026-05-02T14:33:09Z</time></trkpt><trkpt lat="45.73699893717109" lon="10.946441970692007"><ele>131.0</ele><time>2026-05-02T14:33:10Z</time></trkpt><trkpt lat="45.73698502072286" lon="10.946301115360473"><ele>130.75</ele><time>2026-05-02T14:33:11Z</time></trkpt><trkpt lat="45.73696348206916" lon="10.946152560093813"><ele>130.5</ele><time>2026-05-02T14:33:12Z</time></trkpt><trkpt lat="45.736935959618435" lon="10.946004025587673"><ele>130.25</ele><time>2026-05-02T14:33:13Z</time></trkpt><trkpt lat="45.736898730746226" lon="10.945851547112104"><ele>130.0</ele><time>2026-05-02T14:33:14Z</time></trkpt><trkpt lat="45.736846060247466" lon="10.945691001749516"><ele>130.5</ele><time>2026-05-02T14:33:15Z</time></trkpt><trkpt lat="45.73678815160951" lon="10.945526718665844"><ele>131.0</ele><time>2026-05-02T14:33:16Z</time></trkpt><trkpt lat="45.736719924782804" lon="10.945363096843916"><ele>131.5</ele><time>2026-05-02T14:33:17Z</time></trkpt><trkpt lat="45.736645148387865" lon="10.945195677221061"><ele>132.0</ele><time>2026-05-02T14:33:18Z</time></trkpt><trkpt lat="45.73656262667474" lon="10.945019783256196"><ele>132.33333333333334</ele><time>2026-05-02T14:33:19Z</time></trkpt><trkpt lat="45.7364652708053" lon="10.944845902945909"><ele>132.66666666666669</ele><time>2026-05-02T14:33:20Z</time></trkpt><trkpt lat="45.73635983798746" lon="10.944677319534165"><ele>133.0</ele><time>2026-05-02T14:33:21Z</time></trkpt><trkpt lat="45.7362566104052" lon="10.944495080342499"><ele>133.0</ele><time>2026-05-02T14:33:22Z</time></trkpt><trkpt lat="45.7361501062618" lon="10.94430425611645"><ele>133.0</ele><time>2026-05-02T14:33:23Z</time></trkpt><trkpt lat="45.73604801205723" lon="10.944111299467314"><ele>133.0</ele><time>2026-05-02T14:33:24Z</time></trkpt><trkpt lat="45.73594979830733" lon="10.943919046490569"><ele>133.0</ele><time>2026-05-02T14:33:25Z</time></trkpt><trkpt lat="45.73585087778129" lon="10.943725799631324"><ele>133.0</ele><time>2026-05-02T14:33:26Z</time></trkpt><trkpt lat="45.73575287512081" lon="10.943529228827645"><ele>133.0</ele><time>2026-05-02T14:33:27Z</time></trkpt><trkpt lat="45.735652665902855" lon="10.94332860199392"><ele>133.0</ele><time>2026-05-02T14:33:28Z</time></trkpt><trkpt lat="45.735549383962145" lon="10.943125391936658"><ele>133.0</ele><time>2026-05-02T14:33:29Z</time></trkpt><trkpt lat="45.735448029887245" lon="10.942917365730043"><ele>133.0</ele><time>2026-05-02T14:33:30Z</time></trkpt><trkpt lat="45.73534686867319" lon="10.942708174198822"><ele>133.0</ele><time>2026-05-02T14:33:31Z</time></trkpt><trkpt lat="45.73524217351596" lon="10.942502740516032"><ele>133.0</ele><time>2026-05-02T14:33:32Z</time></trkpt><trkpt lat="45.73514286975482" lon="10.942301682073683"><ele>133.0</ele><time>2026-05-02T14:33:33Z</time></trkpt><trkpt lat="45.73504754875187" lon="10.94212051630888"><ele>133.0</ele><time>2026-05-02T14:33:34Z</time></trkpt><trkpt lat="45.734954277738616" lon="10.941949030695065"><ele>133.0</ele><time>2026-05-02T14:33:35Z</time></trkpt><trkpt lat="45.734858432972395" lon="10.94176957620367"><ele>133.0</ele><time>2026-05-02T14:33:36Z</time></trkpt><trkpt lat="45.73477359711131" lon="10.94160296126694"><ele>133.4</ele><time>2026-05-02T14:33:37Z</time></trkpt><trkpt lat="45.73469746052439" lon="10.941456752672572"><ele>133.8</ele><time>2026-05-02T14:33:38Z</time></trkpt><trkpt lat="45.73463053299338" lon="10.941332689582147"><ele>134.2</ele><time>2026-05-02T14:33:39Z</time></trkpt><trkpt lat="45.73457229261138" lon="10.941226777791218"><ele>134.6</ele><time>2026-05-02T14:33:40Z</time></trkpt><trkpt lat="45.734524417597655" lon="10.941136015525727"><ele>135.0</ele><time>2026-05-02T14:33:41Z</time></trkpt><trkpt lat="45.73440805385295" lon="10.941080348924737"><ele>134.75</ele><time>2026-05-02T14:33:43Z</time></trkpt><trkpt lat="45.734326560046775" lon="10.941107029555202"><ele>134.5</ele><time>2026-05-02T14:33:44Z</time></trkpt><trkpt lat="45.73421377020267" lon="10.941166222590764"><ele>134.25</ele><time>2026-05-02T14:33:45Z</time></trkpt><trkpt lat="45.73407098488017" lon="10.941211022633476"><ele>134.0</ele><time>2026-05-02T14:33:46Z</time></trkpt><trkpt lat="45.73391102628725" lon="10.941227539126205"><ele>134.0</ele><time>2026-05-02T14:33:47Z</time></trkpt><trkpt lat="45.73375098658954" lon="10.941218070976147"><ele>134.0</ele><time>2026-05-02T14:33:48Z</time></trkpt><trkpt lat="45.73359902908478" lon="10.94117756535515"><ele>134.0</ele><time>2026-05-02T14:33:49Z</time></trkpt><trkpt lat="45.733445000001026" lon="10.941086789466388"><ele>134.66666666666666</ele><time>2026-05-02T14:33:50Z</time></trkpt><trkpt lat="45.73330266748567" lon="10.94093577459935"><ele>135.33333333333334</ele><time>2026-05-02T14:33:51Z</time></trkpt><trkpt lat="45.73317896842444" lon="10.940754892760124"><ele>136.0</ele><time>2026-05-02T14:33:52Z</time></trkpt><trkpt lat="45.73308366001748" lon="10.940547738916335"><ele>136.5</ele><time>2026-05-02T14:33:53Z</time></trkpt><trkpt lat="45.733011693182675" lon="10.9403582869384"><ele>137.0</ele><time>2026-05-02T14:33:54Z</time></trkpt><trkpt lat="45.7329506813886" lon="10.940191345129515"><ele>137.5</ele><time>2026-05-02T14:33:55Z</time></trkpt><trkpt lat="45.732898571233015" lon="10.940048375984878"><ele>138.0</ele><time>2026-05-02T14:33:56Z</time></trkpt><trkpt lat="45.73283947672209" lon="10.939925196413558"><ele>138.0</ele><time>2026-05-02T14:33:57Z</time></trkpt><trkpt lat="45.732778597817976" lon="10.939803599732864"><ele>138.0</ele><time>2026-05-02T14:33:58Z</time></trkpt><trkpt lat="45.732720282161154" lon="10.939695642401208"><ele>138.0</ele><time>2026-05-02T14:33:59Z</time></trkpt><trkpt lat="45.73266108403858" lon="10.939627282209814"><ele>138.0</ele><time>2026-05-02T14:34:00Z</time></trkpt><trkpt lat="45.73259006169968" lon="10.939591007842003"><ele>138.0</ele><time>2026-05-02T14:34:01Z</time></trkpt><trkpt lat="45.73250789147269" lon="10.939596059306114"><ele>138.0</ele><time>2026-05-02T14:34:02Z</time></trkpt><trkpt lat="45.7324182366343" lon="10.939621533740311"><ele>138.0</ele><time>2026-05-02T14:34:03Z</time></trkpt><trkpt lat="45.7323457760496" lon="10.939686093124667"><ele>138.0</ele><time>2026-05-02T14:34:03.999Z</time></trkpt><trkpt lat="45.732288669076794" lon="10.939790632578722"><ele>138.0</ele><time>2026-05-02T14:34:04.999Z</time></trkpt><trkpt lat="45.73223067578947" lon="10.939896392505638"><ele>138.0</ele><time>2026-05-02T14:34:05.999Z</time></trkpt><trkpt lat="45.73214231623455" lon="10.939964633679105"><ele>138.0</ele><time>2026-05-02T14:34:06.999Z</time></trkpt><trkpt lat="45.73201332068056" lon="10.94000441562786"><ele>138.0</ele><time>2026-05-02T14:34:07.999Z</time></trkpt><trkpt lat="45.73186149233562" lon="10.940005439117646"><ele>138.0</ele><time>2026-05-02T14:34:08.999Z</time></trkpt><trkpt lat="45.73168914382162" lon="10.93996546658841"><ele>138.0</ele><time>2026-05-02T14:34:09.999Z</time></trkpt><trkpt lat="45.73150849407307" lon="10.939888823635448"><ele>138.0</ele><time>2026-05-02T14:34:10.999Z</time></trkpt><trkpt lat="45.73132106381883" lon="10.93980527939527"><ele>138.0</ele><time>2026-05-02T14:34:11.999Z</time></trkpt><trkpt lat="45.73114988682239" lon="10.939731084175358"><ele>138.0</ele><time>2026-05-02T14:34:12.999Z</time></trkpt><trkpt lat="45.730991287224825" lon="10.93966593187749"><ele>137.66666666666666</ele><time>2026-05-02T14:34:13.999Z</time></trkpt><trkpt lat="45.73083455414496" lon="10.939601991129242"><ele>137.33333333333331</ele><time>2026-05-02T14:34:14.999Z</time></trkpt><trkpt lat="45.73066435151135" lon="10.939534613365447"><ele>137.0</ele><time>2026-05-02T14:34:15.999Z</time></trkpt><trkpt lat="45.730483604647674" lon="10.939451549973121"><ele>137.0</ele><time>2026-05-02T14:34:16.999Z</time></trkpt><trkpt lat="45.730300022841924" lon="10.939372375475381"><ele>137.0</ele><time>2026-05-02T14:34:17.999Z</time></trkpt><trkpt lat="45.730115950507134" lon="10.939290789202557"><ele>137.0</ele><time>2026-05-02T14:34:18.999Z</time></trkpt><trkpt lat="45.72994341846073" lon="10.939201927002381"><ele>137.33333333333331</ele><time>2026-05-02T14:34:19.999Z</time></trkpt><trkpt lat="45.72978542214912" lon="10.939092766958026"><ele>137.66666666666666</ele><time>2026-05-02T14:34:20.999Z</time></trkpt><trkpt lat="45.72962967905826" lon="10.938959221526181"><ele>138.0</ele><time>2026-05-02T14:34:21.999Z</time></trkpt><trkpt lat="45.729480196442296" lon="10.938801097146845"><ele>137.66666666666666</ele><time>2026-05-02T14:34:22.999Z</time></trkpt><trkpt lat="45.72933815171676" lon="10.938614501725947"><ele>137.33333333333331</ele><time>2026-05-02T14:34:23.999Z</time></trkpt><trkpt lat="45.72920177143737" lon="10.938404734761846"><ele>137.0</ele><time>2026-05-02T14:34:24.999Z</time></trkpt><trkpt lat="45.72908994103124" lon="10.938145374205227"><ele>137.0</ele><time>2026-05-02T14:34:25.999Z</time></trkpt><trkpt lat="45.72894842061023" lon="10.937893783749692"><ele>137.0</ele><time>2026-05-02T14:34:26.999Z</time></trkpt><trkpt lat="45.728819548608335" lon="10.93761845609763"><ele>138.0</ele><time>2026-05-02T14:34:27.999Z</time></trkpt><trkpt lat="45.72868624535743" lon="10.93736221054826"><ele>139.0</ele><time>2026-05-02T14:34:28.999Z</time></trkpt><trkpt lat="45.728541213520145" lon="10.937127106294717"><ele>140.0</ele><time>2026-05-02T14:34:29.999Z</time></trkpt><trkpt lat="45.72839678159496" lon="10.936892458973901"><ele>140.33333333333331</ele><time>2026-05-02T14:34:30.999Z</time></trkpt><trkpt lat="45.72827892247791" lon="10.936646552017812"><ele>140.66666666666666</ele><time>2026-05-02T14:34:31.999Z</time></trkpt><trkpt lat="45.72819109299929" lon="10.936396539197728"><ele>141.0</ele><time>2026-05-02T14:34:32.999Z</time></trkpt><trkpt lat="45.728127015607306" lon="10.93615613819202"><ele>141.0</ele><time>2026-05-02T14:34:33.999Z</time></trkpt><trkpt lat="45.72805426730097" lon="10.935934009933606"><ele>141.0</ele><time>2026-05-02T14:34:34.999Z</time></trkpt><trkpt lat="45.72795690535612" lon="10.935732402911336"><ele>141.0</ele><time>2026-05-02T14:34:35.999Z</time></trkpt><trkpt lat="45.72783739815755" lon="10.93556226475725"><ele>139.66666666666666</ele><time>2026-05-02T14:34:36.999Z</time></trkpt><trkpt lat="45.72768859728051" lon="10.935404480355357"><ele>138.33333333333331</ele><time>2026-05-02T14:34:37.999Z</time></trkpt><trkpt lat="45.727503484660375" lon="10.93521177026557"><ele>137.0</ele><time>2026-05-02T14:34:38.999Z</time></trkpt><trkpt lat="45.72731428541017" lon="10.935002994386403"><ele>136.5</ele><time>2026-05-02T14:34:39.999Z</time></trkpt><trkpt lat="45.72713259971988" lon="10.934785851765406"><ele>136.0</ele><time>2026-05-02T14:34:40.999Z</time></trkpt><trkpt lat="45.726929580013966" lon="10.934616398664632"><ele>135.66666666666669</ele><time>2026-05-02T14:34:41.999Z</time></trkpt><trkpt lat="45.726741493517274" lon="10.934445237354751"><ele>135.33333333333334</ele><time>2026-05-02T14:34:42.999Z</time></trkpt><trkpt lat="45.7265707806155" lon="10.934269967532831"><ele>135.0</ele><time>2026-05-02T14:34:43.999Z</time></trkpt><trkpt lat="45.726432422642034" lon="10.934113360261273"><ele>135.0</ele><time>2026-05-02T14:34:44.999Z</time></trkpt><trkpt lat="45.726348174856426" lon="10.9339755207904"><ele>135.0</ele><time>2026-05-02T14:34:45.999Z</time></trkpt><trkpt lat="45.72626655491993" lon="10.933888436788944"><ele>135.0</ele><time>2026-05-02T14:34:46.999Z</time></trkpt><trkpt lat="45.726215251257365" lon="10.93380788646431"><ele>135.0</ele><time>2026-05-02T14:34:47.999Z</time></trkpt><trkpt lat="45.72615141541109" lon="10.933689929672314"><ele>135.0</ele><time>2026-05-02T14:34:49.998Z</time></trkpt><trkpt lat="45.726113370161976" lon="10.933593797463462"><ele>134.6</ele><time>2026-05-02T14:35:54.999Z</time></trkpt><trkpt lat="45.72601351484418" lon="10.933460140786911"><ele>134.2</ele><time>2026-05-02T14:35:56.999Z</time></trkpt><trkpt lat="45.725952607383114" lon="10.933353795014149"><ele>133.8</ele><time>2026-05-02T14:35:57.999Z</time></trkpt><trkpt lat="45.72588872841565" lon="10.933242113450346"><ele>133.4</ele><time>2026-05-02T14:35:58.999Z</time></trkpt><trkpt lat="45.72581783358666" lon="10.933125510942052"><ele>133.0</ele><time>2026-05-02T14:35:59.999Z</time></trkpt><trkpt lat="45.72574349008359" lon="10.933002341561659"><ele>132.75</ele><time>2026-05-02T14:36:00.999Z</time></trkpt><trkpt lat="45.72566694157523" lon="10.932870347057884"><ele>132.5</ele><time>2026-05-02T14:36:01.999Z</time></trkpt><trkpt lat="45.72559572477545" lon="10.932724498112902"><ele>132.25</ele><time>2026-05-02T14:36:02.999Z</time></trkpt><trkpt lat="45.72553280781159" lon="10.932569334696801"><ele>132.0</ele><time>2026-05-02T14:36:03.999Z</time></trkpt><trkpt lat="45.72547254787808" lon="10.93241644538217"><ele>132.4</ele><time>2026-05-02T14:36:04.999Z</time></trkpt><trkpt lat="45.72541625782661" lon="10.932273702245315"><ele>132.79999999999998</ele><time>2026-05-02T14:36:05.999Z</time></trkpt><trkpt lat="45.72534985855743" lon="10.932144725082102"><ele>133.2</ele><time>2026-05-02T14:36:06.999Z</time></trkpt><trkpt lat="45.72527645048846" lon="10.93202335144238"><ele>133.6</ele><time>2026-05-02T14:36:07.999Z</time></trkpt><trkpt lat="45.725198807015545" lon="10.931912529934253"><ele>134.0</ele><time>2026-05-02T14:36:08.999Z</time></trkpt><trkpt lat="45.72511916358933" lon="10.93181564320674"><ele>133.75</ele><time>2026-05-02T14:36:09.999Z</time></trkpt><trkpt lat="45.72503660990787" lon="10.931726223736462"><ele>133.5</ele><time>2026-05-02T14:36:10.999Z</time></trkpt><trkpt lat="45.724942423812024" lon="10.931635493873262"><ele>133.25</ele><time>2026-05-02T14:36:11.999Z</time></trkpt><trkpt lat="45.724841161707616" lon="10.931555194142467"><ele>133.0</ele><time>2026-05-02T14:36:12.999Z</time></trkpt><trkpt lat="45.72473928966086" lon="10.931470884467888"><ele>133.0</ele><time>2026-05-02T14:36:13.999Z</time></trkpt><trkpt lat="45.72462492240822" lon="10.931383090532364"><ele>133.0</ele><time>2026-05-02T14:36:14.999Z</time></trkpt><trkpt lat="45.72449552907674" lon="10.931279233513123"><ele>133.0</ele><time>2026-05-02T14:36:15.999Z</time></trkpt><trkpt lat="45.724354683920104" lon="10.931168585203238"><ele>133.0</ele><time>2026-05-02T14:36:16.999Z</time></trkpt><trkpt lat="45.72420989048554" lon="10.931056519821672"><ele>133.66666666666669</ele><time>2026-05-02T14:36:17.999Z</time></trkpt><trkpt lat="45.72406115481171" lon="10.93094514393168"><ele>134.33333333333334</ele><time>2026-05-02T14:36:18.999Z</time></trkpt><trkpt lat="45.72391323888239" lon="10.930835932039841"><ele>135.0</ele><time>2026-05-02T14:36:19.999Z</time></trkpt><trkpt lat="45.72375556440886" lon="10.930716653438258"><ele>135.0</ele><time>2026-05-02T14:36:20.999Z</time></trkpt><trkpt lat="45.72357558137898" lon="10.930585566276378"><ele>135.0</ele><time>2026-05-02T14:36:21.999Z</time></trkpt><trkpt lat="45.72338158827582" lon="10.930453932918619"><ele>135.0</ele><time>2026-05-02T14:36:22.999Z</time></trkpt><trkpt lat="45.72319600399065" lon="10.930324914998161"><ele>136.0</ele><time>2026-05-02T14:36:23.999Z</time></trkpt><trkpt lat="45.72302269911038" lon="10.930174201671957"><ele>137.0</ele><time>2026-05-02T14:36:24.999Z</time></trkpt><trkpt lat="45.722832539365434" lon="10.930030279845955"><ele>138.0</ele><time>2026-05-02T14:36:25.999Z</time></trkpt><trkpt lat="45.722632989919475" lon="10.929880418221742"><ele>135.0</ele><time>2026-05-02T14:36:26.999Z</time></trkpt><trkpt lat="45.722438140604645" lon="10.929736591076336"><ele>132.0</ele><time>2026-05-02T14:36:27.999Z</time></trkpt><trkpt lat="45.722242604791944" lon="10.92961333315016"><ele>129.0</ele><time>2026-05-02T14:36:28.999Z</time></trkpt><trkpt lat="45.72206443293223" lon="10.929474967673446"><ele>129.0</ele><time>2026-05-02T14:36:29.999Z</time></trkpt><trkpt lat="45.721901799164016" lon="10.929325392361868"><ele>129.0</ele><time>2026-05-02T14:36:30.999Z</time></trkpt><trkpt lat="45.72172219370917" lon="10.929233311719758"><ele>129.0</ele><time>2026-05-02T14:36:31.999Z</time></trkpt><trkpt lat="45.721520118413785" lon="10.929203743101805"><ele>129.0</ele><time>2026-05-02T14:36:32.999Z</time></trkpt><trkpt lat="45.72130552263202" lon="10.929182999015127"><ele>129.0</ele><time>2026-05-02T14:36:33.999Z</time></trkpt><trkpt lat="45.721087952648396" lon="10.92916428374824"><ele>129.0</ele><time>2026-05-02T14:36:34.999Z</time></trkpt><trkpt lat="45.72086379818641" lon="10.929094820313008"><ele>129.0</ele><time>2026-05-02T14:36:35.999Z</time></trkpt><trkpt lat="45.720638760329855" lon="10.92900573764876"><ele>129.0</ele><time>2026-05-02T14:36:36.999Z</time></trkpt><trkpt lat="45.720409209656054" lon="10.928904033337762"><ele>127.5</ele><time>2026-05-02T14:36:37.999Z</time></trkpt><trkpt lat="45.72018346757492" lon="10.928779678557126"><ele>126.0</ele><time>2026-05-02T14:36:38.999Z</time></trkpt><trkpt lat="45.719944771137" lon="10.928717564913363"><ele>126.0</ele><time>2026-05-02T14:36:39.999Z</time></trkpt><trkpt lat="45.719706702121314" lon="10.928650383208238"><ele>126.0</ele><time>2026-05-02T14:36:40.999Z</time></trkpt><trkpt lat="45.7194675923558" lon="10.928600468155325"><ele>126.0</ele><time>2026-05-02T14:36:41.999Z</time></trkpt><trkpt lat="45.71922795680205" lon="10.928566576622545"><ele>126.0</ele><time>2026-05-02T14:36:42.999Z</time></trkpt><trkpt lat="45.718987819150186" lon="10.92852571010213"><ele>126.0</ele><time>2026-05-02T14:36:43.999Z</time></trkpt><trkpt lat="45.718753197203846" lon="10.92855347431758"><ele>126.0</ele><time>2026-05-02T14:36:44.999Z</time></trkpt><trkpt lat="45.71852810671552" lon="10.928551756113924"><ele>126.0</ele><time>2026-05-02T14:36:45.999Z</time></trkpt><trkpt lat="45.718302142060764" lon="10.928537248691388"><ele>126.0</ele><time>2026-05-02T14:36:46.999Z</time></trkpt><trkpt lat="45.718068723749056" lon="10.928503972436387"><ele>126.0</ele><time>2026-05-02T14:36:47.999Z</time></trkpt><trkpt lat="45.71783687423009" lon="10.928452656293633"><ele>126.0</ele><time>2026-05-02T14:36:48.999Z</time></trkpt><trkpt lat="45.7176057259372" lon="10.928382760370148"><ele>127.0</ele><time>2026-05-02T14:36:49.999Z</time></trkpt><trkpt lat="45.71738549796157" lon="10.928299470340344"><ele>128.0</ele><time>2026-05-02T14:36:50.999Z</time></trkpt><trkpt lat="45.71720059995284" lon="10.928220954180116"><ele>129.0</ele><time>2026-05-02T14:36:51.999Z</time></trkpt><trkpt lat="45.717043112033316" lon="10.92815246067944"><ele>129.0</ele><time>2026-05-02T14:36:52.999Z</time></trkpt><trkpt lat="45.716908545569716" lon="10.928094976849026"><ele>129.0</ele><time>2026-05-02T14:36:53.999Z</time></trkpt><trkpt lat="45.71679932881538" lon="10.928050511700157"><ele>129.0</ele><time>2026-05-02T14:36:54.999Z</time></trkpt><trkpt lat="45.716717233776755" lon="10.928015004446072"><ele>129.0</ele><time>2026-05-02T14:36:55.999Z</time></trkpt><trkpt lat="45.71665019360223" lon="10.927982733190584"><ele>129.0</ele><time>2026-05-02T14:36:56.999Z</time></trkpt><trkpt lat="45.71654544120887" lon="10.927941511299958"><ele>128.8</ele><time>2026-05-02T14:36:58.999Z</time></trkpt><trkpt lat="45.71648302289306" lon="10.927918334410114"><ele>128.60000000000002</ele><time>2026-05-02T14:37:00.999Z</time></trkpt><trkpt lat="45.71637596718828" lon="10.927869936917281"><ele>128.4</ele><time>2026-05-02T14:38:03Z</time></trkpt><trkpt lat="45.71629130839239" lon="10.927839605971982"><ele>128.20000000000002</ele><time>2026-05-02T14:38:04Z</time></trkpt><trkpt lat="45.71619146921024" lon="10.92780312280026"><ele>128.0</ele><time>2026-05-02T14:38:05Z</time></trkpt><trkpt lat="45.716074564380264" lon="10.927766975491805"><ele>128.25</ele><time>2026-05-02T14:38:06Z</time></trkpt><trkpt lat="45.71594866930285" lon="10.927736593652607"><ele>128.5</ele><time>2026-05-02T14:38:07Z</time></trkpt><trkpt lat="45.715812789279" lon="10.92771150865096"><ele>128.75</ele><time>2026-05-02T14:38:08Z</time></trkpt><trkpt lat="45.715665320528345" lon="10.927695590868938"><ele>129.0</ele><time>2026-05-02T14:38:09Z</time></trkpt><trkpt lat="45.71550300010479" lon="10.927689269350667"><ele>129.0</ele><time>2026-05-02T14:38:10Z</time></trkpt><trkpt lat="45.715336453826396" lon="10.927687779344307"><ele>129.0</ele><time>2026-05-02T14:38:11Z</time></trkpt><trkpt lat="45.715177144033326" lon="10.927688132846376"><ele>129.0</ele><time>2026-05-02T14:38:12Z</time></trkpt><trkpt lat="45.7150179328953" lon="10.927691474290338"><ele>128.0</ele><time>2026-05-02T14:38:13Z</time></trkpt><trkpt lat="45.714855214717026" lon="10.927687729046541"><ele>127.0</ele><time>2026-05-02T14:38:14Z</time></trkpt><trkpt lat="45.714693597484086" lon="10.927678119744101"><ele>126.0</ele><time>2026-05-02T14:38:15Z</time></trkpt><trkpt lat="45.71453396444445" lon="10.927662518344926"><ele>126.0</ele><time>2026-05-02T14:38:16Z</time></trkpt><trkpt lat="45.714378757619215" lon="10.927647037868894"><ele>126.0</ele><time>2026-05-02T14:38:17Z</time></trkpt><trkpt lat="45.71422789234505" lon="10.927619386944528"><ele>126.0</ele><time>2026-05-02T14:38:18Z</time></trkpt><trkpt lat="45.71406853812702" lon="10.927581355221886"><ele>129.0</ele><time>2026-05-02T14:38:19Z</time></trkpt><trkpt lat="45.71390893637081" lon="10.927517039193082"><ele>132.0</ele><time>2026-05-02T14:38:20Z</time></trkpt><trkpt lat="45.71375356345401" lon="10.927438609455633"><ele>135.0</ele><time>2026-05-02T14:38:21Z</time></trkpt><trkpt lat="45.71358457319359" lon="10.927356136529955"><ele>132.33333333333334</ele><time>2026-05-02T14:38:22Z</time></trkpt><trkpt lat="45.713411047952825" lon="10.927260493452335"><ele>129.66666666666669</ele><time>2026-05-02T14:38:23Z</time></trkpt><trkpt lat="45.713236438446515" lon="10.927173973930818"><ele>127.0</ele><time>2026-05-02T14:38:24Z</time></trkpt><trkpt lat="45.71305367855454" lon="10.927100470751126"><ele>127.0</ele><time>2026-05-02T14:38:25Z</time></trkpt><trkpt lat="45.71286599052349" lon="10.92703531270692"><ele>127.0</ele><time>2026-05-02T14:38:26Z</time></trkpt><trkpt lat="45.712675164714675" lon="10.926981926868251"><ele>127.0</ele><time>2026-05-02T14:38:27Z</time></trkpt><trkpt lat="45.712479132757316" lon="10.926927875477702"><ele>126.66666666666667</ele><time>2026-05-02T14:38:28Z</time></trkpt><trkpt lat="45.71227955511851" lon="10.926862730104249"><ele>126.33333333333334</ele><time>2026-05-02T14:38:29Z</time></trkpt><trkpt lat="45.712064431172806" lon="10.926792320999049"><ele>126.0</ele><time>2026-05-02T14:38:30Z</time></trkpt><trkpt lat="45.71185184093994" lon="10.926719272920522"><ele>128.66666666666666</ele><time>2026-05-02T14:38:31Z</time></trkpt><trkpt lat="45.71163945125641" lon="10.926639992745054"><ele>131.33333333333331</ele><time>2026-05-02T14:38:32Z</time></trkpt><trkpt lat="45.71142782304785" lon="10.926556152351898"><ele>134.0</ele><time>2026-05-02T14:38:33Z</time></trkpt><trkpt lat="45.71121701112462" lon="10.9264604570237"><ele>132.0</ele><time>2026-05-02T14:38:34Z</time></trkpt><trkpt lat="45.71100880116056" lon="10.926350072452374"><ele>130.0</ele><time>2026-05-02T14:38:35Z</time></trkpt><trkpt lat="45.71080173361446" lon="10.926228199470366"><ele>128.0</ele><time>2026-05-02T14:38:36Z</time></trkpt><trkpt lat="45.7105963288994" lon="10.926094437367691"><ele>128.0</ele><time>2026-05-02T14:38:37Z</time></trkpt><trkpt lat="45.71038818601801" lon="10.925949225372626"><ele>128.0</ele><time>2026-05-02T14:38:38Z</time></trkpt><trkpt lat="45.71017900255459" lon="10.925796899758016"><ele>129.0</ele><time>2026-05-02T14:38:39Z</time></trkpt><trkpt lat="45.70996393153552" lon="10.925638154122998"><ele>130.0</ele><time>2026-05-02T14:38:40Z</time></trkpt><trkpt lat="45.709737565201635" lon="10.925474134419703"><ele>130.0</ele><time>2026-05-02T14:38:41Z</time></trkpt><trkpt lat="45.70950119153748" lon="10.925314024510595"><ele>130.0</ele><time>2026-05-02T14:38:42Z</time></trkpt><trkpt lat="45.70925418664782" lon="10.925157631864455"><ele>131.0</ele><time>2026-05-02T14:38:43Z</time></trkpt><trkpt lat="45.70899902871833" lon="10.925012916063068"><ele>132.0</ele><time>2026-05-02T14:38:44Z</time></trkpt><trkpt lat="45.708735596952" lon="10.92487516423254"><ele>129.5</ele><time>2026-05-02T14:38:45Z</time></trkpt><trkpt lat="45.708469502441105" lon="10.924735751062755"><ele>127.0</ele><time>2026-05-02T14:38:46Z</time></trkpt><trkpt lat="45.70821107760339" lon="10.924599075317017"><ele>127.0</ele><time>2026-05-02T14:38:47Z</time></trkpt><trkpt lat="45.70795705790381" lon="10.924463678436306"><ele>127.0</ele><time>2026-05-02T14:38:48Z</time></trkpt><trkpt lat="45.707707013312714" lon="10.924332155097048"><ele>129.5</ele><time>2026-05-02T14:38:49Z</time></trkpt><trkpt lat="45.7074623411084" lon="10.92420146891639"><ele>132.0</ele><time>2026-05-02T14:38:50Z</time></trkpt><trkpt lat="45.70722635899993" lon="10.924075556549985"><ele>132.0</ele><time>2026-05-02T14:38:51Z</time></trkpt><trkpt lat="45.70700401823932" lon="10.923948220366476"><ele>132.0</ele><time>2026-05-02T14:38:52Z</time></trkpt><trkpt lat="45.70678881337329" lon="10.923776363754007"><ele>129.5</ele><time>2026-05-02T14:38:53Z</time></trkpt><trkpt lat="45.70656924111698" lon="10.92359576452533"><ele>127.0</ele><time>2026-05-02T14:38:54Z</time></trkpt><trkpt lat="45.70634917679509" lon="10.923416743298363"><ele>128.0</ele><time>2026-05-02T14:38:55Z</time></trkpt><trkpt lat="45.706131043168995" lon="10.923229753667032"><ele>129.0</ele><time>2026-05-02T14:38:56Z</time></trkpt><trkpt lat="45.70592163624853" lon="10.923036306037872"><ele>129.0</ele><time>2026-05-02T14:38:57Z</time></trkpt><trkpt lat="45.705727027358634" lon="10.922844089695994"><ele>129.0</ele><time>2026-05-02T14:38:58Z</time></trkpt><trkpt lat="45.705542286674095" lon="10.92266416774116"><ele>129.0</ele><time>2026-05-02T14:38:59Z</time></trkpt><trkpt lat="45.70536800479482" lon="10.922488216837246"><ele>129.0</ele><time>2026-05-02T14:39:00Z</time></trkpt><trkpt lat="45.705207685459186" lon="10.922304045339363"><ele>129.0</ele><time>2026-05-02T14:39:01Z</time></trkpt><trkpt lat="45.70505050013297" lon="10.922103648624267"><ele>129.0</ele><time>2026-05-02T14:39:02Z</time></trkpt><trkpt lat="45.70488686216376" lon="10.921906926849301"><ele>129.0</ele><time>2026-05-02T14:39:03Z</time></trkpt><trkpt lat="45.704711422432986" lon="10.92172923099173"><ele>129.0</ele><time>2026-05-02T14:39:04Z</time></trkpt><trkpt lat="45.704521919598704" lon="10.921557384670214"><ele>129.0</ele><time>2026-05-02T14:39:05Z</time></trkpt><trkpt lat="45.704316268527506" lon="10.921402965110309"><ele>129.0</ele><time>2026-05-02T14:39:06Z</time></trkpt><trkpt lat="45.70410984146006" lon="10.921257955706583"><ele>129.0</ele><time>2026-05-02T14:39:07Z</time></trkpt><trkpt lat="45.7039005272261" lon="10.92111142843938"><ele>129.0</ele><time>2026-05-02T14:39:08Z</time></trkpt><trkpt lat="45.70369021273843" lon="10.920942198374776"><ele>129.0</ele><time>2026-05-02T14:39:09Z</time></trkpt><trkpt lat="45.703477299919236" lon="10.92076062999532"><ele>129.0</ele><time>2026-05-02T14:39:10Z</time></trkpt><trkpt lat="45.703262399815664" lon="10.920570830690814"><ele>129.0</ele><time>2026-05-02T14:39:11Z</time></trkpt><trkpt lat="45.70305485560688" lon="10.920387572804573"><ele>129.0</ele><time>2026-05-02T14:39:12Z</time></trkpt><trkpt lat="45.70284307628492" lon="10.920236400982718"><ele>128.5</ele><time>2026-05-02T14:39:13Z</time></trkpt><trkpt lat="45.70261708137137" lon="10.92010550832332"><ele>128.0</ele><time>2026-05-02T14:39:14Z</time></trkpt><trkpt lat="45.70239133168129" lon="10.919952409619393"><ele>128.0</ele><time>2026-05-02T14:39:15Z</time></trkpt><trkpt lat="45.70216384103405" lon="10.919798798480185"><ele>128.0</ele><time>2026-05-02T14:39:16Z</time></trkpt><trkpt lat="45.70194068624101" lon="10.919647508483436"><ele>126.0</ele><time>2026-05-02T14:39:17Z</time></trkpt><trkpt lat="45.701720428290756" lon="10.919499328140082"><ele>124.0</ele><time>2026-05-02T14:39:18Z</time></trkpt><trkpt lat="45.701500577509634" lon="10.919355803038929"><ele>129.0</ele><time>2026-05-02T14:39:19Z</time></trkpt><trkpt lat="45.70128535882316" lon="10.919209753646886"><ele>134.0</ele><time>2026-05-02T14:39:20Z</time></trkpt><trkpt lat="45.70108253683364" lon="10.919044804945873"><ele>130.5</ele><time>2026-05-02T14:39:21Z</time></trkpt><trkpt lat="45.70089427869673" lon="10.918875671199649"><ele>127.0</ele><time>2026-05-02T14:39:22Z</time></trkpt><trkpt lat="45.70069624007339" lon="10.918706029502573"><ele>127.0</ele><time>2026-05-02T14:39:23Z</time></trkpt><trkpt lat="45.700493871678816" lon="10.918537767069532"><ele>127.0</ele><time>2026-05-02T14:39:24Z</time></trkpt><trkpt lat="45.70027550350699" lon="10.918385358508525"><ele>126.0</ele><time>2026-05-02T14:39:25Z</time></trkpt><trkpt lat="45.70003756263748" lon="10.918251572414558"><ele>125.0</ele><time>2026-05-02T14:39:26Z</time></trkpt><trkpt lat="45.69979463775214" lon="10.918105723384192"><ele>125.0</ele><time>2026-05-02T14:39:27Z</time></trkpt><trkpt lat="45.69955337748039" lon="10.917956118397827"><ele>125.0</ele><time>2026-05-02T14:39:28Z</time></trkpt><trkpt lat="45.69931327150965" lon="10.917805206189744"><ele>125.5</ele><time>2026-05-02T14:39:29Z</time></trkpt><trkpt lat="45.69907086650532" lon="10.917660398222583"><ele>126.0</ele><time>2026-05-02T14:39:30Z</time></trkpt><trkpt lat="45.69883425675952" lon="10.91751669196536"><ele>126.0</ele><time>2026-05-02T14:39:31Z</time></trkpt><trkpt lat="45.698604136880846" lon="10.91737375148"><ele>126.0</ele><time>2026-05-02T14:39:32Z</time></trkpt><trkpt lat="45.698378247672025" lon="10.917227861716752"><ele>125.5</ele><time>2026-05-02T14:39:33Z</time></trkpt><trkpt lat="45.69815551006039" lon="10.917057640943497"><ele>125.0</ele><time>2026-05-02T14:39:34Z</time></trkpt><trkpt lat="45.69792820303723" lon="10.91686372225191"><ele>127.5</ele><time>2026-05-02T14:39:35Z</time></trkpt><trkpt lat="45.69769535339752" lon="10.916663816283357"><ele>130.0</ele><time>2026-05-02T14:39:36Z</time></trkpt><trkpt lat="45.69746717819836" lon="10.916464404275441"><ele>130.0</ele><time>2026-05-02T14:39:37Z</time></trkpt><trkpt lat="45.697253549566575" lon="10.916275778824051"><ele>130.0</ele><time>2026-05-02T14:39:38Z</time></trkpt><trkpt lat="45.697055028616" lon="10.916099802115747"><ele>129.33333333333334</ele><time>2026-05-02T14:39:39Z</time></trkpt><trkpt lat="45.69686959708677" lon="10.915918677777157"><ele>128.66666666666666</ele><time>2026-05-02T14:39:40Z</time></trkpt><trkpt lat="45.69671356958721" lon="10.915716636285909"><ele>128.0</ele><time>2026-05-02T14:39:41Z</time></trkpt><trkpt lat="45.69658341502865" lon="10.915486303017147"><ele>128.0</ele><time>2026-05-02T14:39:42Z</time></trkpt><trkpt lat="45.696482792216486" lon="10.915237883464831"><ele>128.0</ele><time>2026-05-02T14:39:43Z</time></trkpt><trkpt lat="45.69640645526229" lon="10.91495902682094"><ele>128.0</ele><time>2026-05-02T14:39:44Z</time></trkpt><trkpt lat="45.696332070654044" lon="10.914670274710716"><ele>129.0</ele><time>2026-05-02T14:39:45Z</time></trkpt><trkpt lat="45.69623454294876" lon="10.914389781253131"><ele>130.0</ele><time>2026-05-02T14:39:46Z</time></trkpt><trkpt lat="45.69610847712544" lon="10.914109966964086"><ele>127.5</ele><time>2026-05-02T14:39:47Z</time></trkpt><trkpt lat="45.69596206706524" lon="10.913820138947694"><ele>125.0</ele><time>2026-05-02T14:39:48Z</time></trkpt><trkpt lat="45.69580618348964" lon="10.913520365336282"><ele>128.5</ele><time>2026-05-02T14:39:49Z</time></trkpt><trkpt lat="45.695641758286854" lon="10.91320882183668"><ele>132.0</ele><time>2026-05-02T14:39:50Z</time></trkpt><trkpt lat="45.69547327493282" lon="10.91288666802022"><ele>130.5</ele><time>2026-05-02T14:39:51Z</time></trkpt><trkpt lat="45.69530442384895" lon="10.912560496008473"><ele>129.0</ele><time>2026-05-02T14:39:52Z</time></trkpt><trkpt lat="45.69513537040155" lon="10.912225024375239"><ele>129.0</ele><time>2026-05-02T14:39:53Z</time></trkpt><trkpt lat="45.694965022079906" lon="10.911889458737697"><ele>129.0</ele><time>2026-05-02T14:39:54Z</time></trkpt><trkpt lat="45.69479791350701" lon="10.911560271083205"><ele>132.0</ele><time>2026-05-02T14:39:55Z</time></trkpt><trkpt lat="45.69464548714213" lon="10.911231306865536"><ele>135.0</ele><time>2026-05-02T14:39:56Z</time></trkpt><trkpt lat="45.69450255738995" lon="10.91090500999239"><ele>132.0</ele><time>2026-05-02T14:39:57Z</time></trkpt><trkpt lat="45.69436659204726" lon="10.910581054604405"><ele>129.0</ele><time>2026-05-02T14:39:58Z</time></trkpt><trkpt lat="45.69423541809664" lon="10.910261765022643"><ele>131.5</ele><time>2026-05-02T14:39:59Z</time></trkpt><trkpt lat="45.69410507920379" lon="10.909943631580012"><ele>134.0</ele><time>2026-05-02T14:40:00Z</time></trkpt><trkpt lat="45.69381903237644" lon="10.909688138077337"><ele>134.0</ele><time>2026-05-02T14:40:01Z</time></trkpt><trkpt lat="45.69367294858548" lon="10.909400748990704"><ele>134.0</ele><time>2026-05-02T14:40:02Z</time></trkpt><trkpt lat="45.69353963170561" lon="10.90913323108896"><ele>133.33333333333331</ele><time>2026-05-02T14:40:03Z</time></trkpt><trkpt lat="45.69340949985802" lon="10.908884642354982"><ele>132.66666666666666</ele><time>2026-05-02T14:40:04Z</time></trkpt><trkpt lat="45.69326512975834" lon="10.90865565089415"><ele>132.0</ele><time>2026-05-02T14:40:05Z</time></trkpt><trkpt lat="45.693090392679956" lon="10.908439834689377"><ele>132.5</ele><time>2026-05-02T14:40:06.001Z</time></trkpt><trkpt lat="45.69289756373992" lon="10.90823048231286"><ele>133.0</ele><time>2026-05-02T14:40:07.001Z</time></trkpt><trkpt lat="45.69271096960942" lon="10.908002106190745"><ele>130.0</ele><time>2026-05-02T14:40:08.001Z</time></trkpt><trkpt lat="45.692555473790236" lon="10.90773154769045"><ele>127.0</ele><time>2026-05-02T14:40:09.001Z</time></trkpt><trkpt lat="45.69241554070404" lon="10.907423822420753"><ele>127.0</ele><time>2026-05-02T14:40:10.001Z</time></trkpt><trkpt lat="45.69230138050844" lon="10.90709699615713"><ele>127.0</ele><time>2026-05-02T14:40:11.001Z</time></trkpt><trkpt lat="45.69221745059297" lon="10.906754535411434"><ele>128.5</ele><time>2026-05-02T14:40:12.001Z</time></trkpt><trkpt lat="45.69212885924215" lon="10.906414204727362"><ele>130.0</ele><time>2026-05-02T14:40:13.001Z</time></trkpt><trkpt lat="45.692035049679376" lon="10.906086784592688"><ele>130.5</ele><time>2026-05-02T14:40:14Z</time></trkpt><trkpt lat="45.69189962904696" lon="10.90576775508608"><ele>131.0</ele><time>2026-05-02T14:40:15Z</time></trkpt><trkpt lat="45.69176416199034" lon="10.905483372274686"><ele>131.0</ele><time>2026-05-02T14:40:16Z</time></trkpt><trkpt lat="45.691633703720186" lon="10.905227753374684"><ele>131.0</ele><time>2026-05-02T14:40:17Z</time></trkpt><trkpt lat="45.691536563954294" lon="10.90495094772313"><ele>131.0</ele><time>2026-05-02T14:40:18Z</time></trkpt><trkpt lat="45.691472457192035" lon="10.904643744133555"><ele>133.5</ele><time>2026-05-02T14:40:19Z</time></trkpt><trkpt lat="45.69141404838627" lon="10.904324492492327"><ele>136.0</ele><time>2026-05-02T14:40:20Z</time></trkpt><trkpt lat="45.69138109418092" lon="10.904004681475383"><ele>137.0</ele><time>2026-05-02T14:40:21Z</time></trkpt><trkpt lat="45.6913289990364" lon="10.903692480337625"><ele>138.0</ele><time>2026-05-02T14:40:22Z</time></trkpt><trkpt lat="45.69124144456581" lon="10.90337702226093"><ele>140.5</ele><time>2026-05-02T14:40:23Z</time></trkpt><trkpt lat="45.69112883802414" lon="10.90305304191469"><ele>143.0</ele><time>2026-05-02T14:40:24Z</time></trkpt><trkpt lat="45.69101387596666" lon="10.902723438535084"><ele>138.5</ele><time>2026-05-02T14:40:25Z</time></trkpt><trkpt lat="45.69090347767248" lon="10.902396362368696"><ele>134.0</ele><time>2026-05-02T14:40:26Z</time></trkpt><trkpt lat="45.69079823449642" lon="10.902082698150881"><ele>134.0</ele><time>2026-05-02T14:40:27Z</time></trkpt><trkpt lat="45.69070618947125" lon="10.901800519670031"><ele>134.0</ele><time>2026-05-02T14:40:28Z</time></trkpt><trkpt lat="45.69061958643149" lon="10.901539690091353"><ele>134.0</ele><time>2026-05-02T14:40:29Z</time></trkpt><trkpt lat="45.690538444703265" lon="10.901296465591543"><ele>136.66666666666666</ele><time>2026-05-02T14:40:30Z</time></trkpt><trkpt lat="45.690443382672775" lon="10.901121859606619"><ele>139.33333333333334</ele><time>2026-05-02T14:40:31Z</time></trkpt><trkpt lat="45.69029153295685" lon="10.901027301758978"><ele>142.0</ele><time>2026-05-02T14:40:32Z</time></trkpt><trkpt lat="45.69012749973244" lon="10.90091740876311"><ele>140.66666666666669</ele><time>2026-05-02T14:40:33Z</time></trkpt><trkpt lat="45.68995013803803" lon="10.900850891454935"><ele>139.33333333333334</ele><time>2026-05-02T14:40:34Z</time></trkpt><trkpt lat="45.68976737935534" lon="10.900828786395621"><ele>138.0</ele><time>2026-05-02T14:40:35Z</time></trkpt><trkpt lat="45.68958204724802" lon="10.900859960842428"><ele>134.66666666666666</ele><time>2026-05-02T14:40:36Z</time></trkpt><trkpt lat="45.68940892561631" lon="10.90094008102537"><ele>131.33333333333331</ele><time>2026-05-02T14:40:37Z</time></trkpt><trkpt lat="45.6892570255914" lon="10.901057540085327"><ele>128.0</ele><time>2026-05-02T14:40:38Z</time></trkpt><trkpt lat="45.68911683138003" lon="10.901179729797953"><ele>128.0</ele><time>2026-05-02T14:40:39Z</time></trkpt><trkpt lat="45.68894517501034" lon="10.901217841491178"><ele>128.0</ele><time>2026-05-02T14:40:40Z</time></trkpt><trkpt lat="45.68877948820956" lon="10.901232693676306"><ele>128.0</ele><time>2026-05-02T14:40:41Z</time></trkpt><trkpt lat="45.68859634519469" lon="10.901210367719335"><ele>127.33333333333333</ele><time>2026-05-02T14:40:42Z</time></trkpt><trkpt lat="45.68840940148815" lon="10.901132971574876"><ele>126.66666666666666</ele><time>2026-05-02T14:40:43Z</time></trkpt><trkpt lat="45.68821282824892" lon="10.901045193388136"><ele>126.0</ele><time>2026-05-02T14:40:44Z</time></trkpt><trkpt lat="45.68803379188755" lon="10.900939676161766"><ele>125.0</ele><time>2026-05-02T14:40:45Z</time></trkpt><trkpt lat="45.68785739102979" lon="10.900892348258036"><ele>124.0</ele><time>2026-05-02T14:40:46Z</time></trkpt><trkpt lat="45.68764928001191" lon="10.900905323081062"><ele>123.0</ele><time>2026-05-02T14:40:47Z</time></trkpt><trkpt lat="45.68741513447233" lon="10.900950480170598"><ele>123.0</ele><time>2026-05-02T14:40:48Z</time></trkpt><trkpt lat="45.68716835929827" lon="10.900993543711998"><ele>123.0</ele><time>2026-05-02T14:40:49Z</time></trkpt><trkpt lat="45.68692923668704" lon="10.90100646872744"><ele>122.66666666666666</ele><time>2026-05-02T14:40:50Z</time></trkpt><trkpt lat="45.68671313899762" lon="10.900970090933635"><ele>122.33333333333333</ele><time>2026-05-02T14:40:51Z</time></trkpt><trkpt lat="45.68651396530917" lon="10.900910015524993"><ele>122.0</ele><time>2026-05-02T14:40:52Z</time></trkpt><trkpt lat="45.68631251066576" lon="10.900827682455972"><ele>125.33333333333333</ele><time>2026-05-02T14:40:53Z</time></trkpt><trkpt lat="45.68610592298749" lon="10.900754431306156"><ele>128.66666666666666</ele><time>2026-05-02T14:40:54Z</time></trkpt><trkpt lat="45.685913784471396" lon="10.90066139276765"><ele>132.0</ele><time>2026-05-02T14:40:55Z</time></trkpt><trkpt lat="45.685754482383096" lon="10.900525319734637"><ele>132.33333333333334</ele><time>2026-05-02T14:40:56Z</time></trkpt><trkpt lat="45.6855939688662" lon="10.900380519498464"><ele>132.66666666666669</ele><time>2026-05-02T14:40:57Z</time></trkpt><trkpt lat="45.685442444942325" lon="10.900200779542068"><ele>133.0</ele><time>2026-05-02T14:40:58Z</time></trkpt><trkpt lat="45.68528495985206" lon="10.899989848082177"><ele>133.5</ele><time>2026-05-02T14:40:59Z</time></trkpt><trkpt lat="45.685117190416285" lon="10.899762295195226"><ele>134.0</ele><time>2026-05-02T14:41:00Z</time></trkpt><trkpt lat="45.68494663135439" lon="10.899561039856366"><ele>134.0</ele><time>2026-05-02T14:41:01Z</time></trkpt><trkpt lat="45.68480374987884" lon="10.899329600766295"><ele>134.0</ele><time>2026-05-02T14:41:02Z</time></trkpt><trkpt lat="45.6846595422017" lon="10.899100860964163"><ele>134.0</ele><time>2026-05-02T14:41:03Z</time></trkpt><trkpt lat="45.684536258845135" lon="10.898862565281322"><ele>133.66666666666666</ele><time>2026-05-02T14:41:04Z</time></trkpt><trkpt lat="45.68441798501313" lon="10.898602217849705"><ele>133.33333333333334</ele><time>2026-05-02T14:41:05Z</time></trkpt><trkpt lat="45.68431188649141" lon="10.898331601901628"><ele>133.0</ele><time>2026-05-02T14:41:06Z</time></trkpt><trkpt lat="45.68419492462026" lon="10.898075156548302"><ele>133.0</ele><time>2026-05-02T14:41:07Z</time></trkpt><trkpt lat="45.68409958072612" lon="10.897802824462032"><ele>133.0</ele><time>2026-05-02T14:41:08Z</time></trkpt><trkpt lat="45.6840016081618" lon="10.897546750920124"><ele>133.0</ele><time>2026-05-02T14:41:09Z</time></trkpt><trkpt lat="45.683897652807744" lon="10.8972797483464"><ele>134.66666666666669</ele><time>2026-05-02T14:41:10Z</time></trkpt><trkpt lat="45.68378726938297" lon="10.897001432092784"><ele>136.33333333333334</ele><time>2026-05-02T14:41:11Z</time></trkpt><trkpt lat="45.68367617778676" lon="10.896741407231318"><ele>138.0</ele><time>2026-05-02T14:41:12Z</time></trkpt><trkpt lat="45.68356259336425" lon="10.896503677940013"><ele>138.33333333333334</ele><time>2026-05-02T14:41:13Z</time></trkpt><trkpt lat="45.6834365955425" lon="10.896276780072368"><ele>138.66666666666669</ele><time>2026-05-02T14:41:14Z</time></trkpt><trkpt lat="45.68329431202287" lon="10.89605243419666"><ele>139.0</ele><time>2026-05-02T14:41:15Z</time></trkpt><trkpt lat="45.68312626207344" lon="10.89583438182483"><ele>139.0</ele><time>2026-05-02T14:41:16Z</time></trkpt><trkpt lat="45.68295244474199" lon="10.895609160076496"><ele>139.0</ele><time>2026-05-02T14:41:17Z</time></trkpt><trkpt lat="45.6827682586367" lon="10.89539481286929"><ele>137.5</ele><time>2026-05-02T14:41:18Z</time></trkpt><trkpt lat="45.682576315193195" lon="10.895209209877356"><ele>136.0</ele><time>2026-05-02T14:41:19Z</time></trkpt><trkpt lat="45.682381491172976" lon="10.895034215918207"><ele>136.0</ele><time>2026-05-02T14:41:20Z</time></trkpt><trkpt lat="45.68219396728358" lon="10.894868768618355"><ele>136.0</ele><time>2026-05-02T14:41:21Z</time></trkpt><trkpt lat="45.682019999167146" lon="10.894706838709094"><ele>136.0</ele><time>2026-05-02T14:41:22Z</time></trkpt><trkpt lat="45.68184785456215" lon="10.89456394375752"><ele>133.66666666666669</ele><time>2026-05-02T14:41:23Z</time></trkpt><trkpt lat="45.68166629068542" lon="10.894473353610305"><ele>131.33333333333334</ele><time>2026-05-02T14:41:24Z</time></trkpt><trkpt lat="45.681463938597624" lon="10.894431524210269"><ele>129.0</ele><time>2026-05-02T14:41:25Z</time></trkpt><trkpt lat="45.68123922016174" lon="10.894414640482777"><ele>126.5</ele><time>2026-05-02T14:41:26Z</time></trkpt><trkpt lat="45.68099910124883" lon="10.894376497544767"><ele>124.0</ele><time>2026-05-02T14:41:27Z</time></trkpt><trkpt lat="45.6807498158515" lon="10.894368691238606"><ele>124.0</ele><time>2026-05-02T14:41:28Z</time></trkpt><trkpt lat="45.68050559626762" lon="10.894325945081382"><ele>124.0</ele><time>2026-05-02T14:41:29Z</time></trkpt><trkpt lat="45.68027795494638" lon="10.894292256515092"><ele>123.66666666666667</ele><time>2026-05-02T14:41:30Z</time></trkpt><trkpt lat="45.68007599235066" lon="10.894195655539578"><ele>123.33333333333334</ele><time>2026-05-02T14:41:31Z</time></trkpt><trkpt lat="45.67989601549664" lon="10.89406798877221"><ele>123.0</ele><time>2026-05-02T14:41:32Z</time></trkpt><trkpt lat="45.67972069767362" lon="10.893913220666331"><ele>123.0</ele><time>2026-05-02T14:41:33Z</time></trkpt><trkpt lat="45.67953574313337" lon="10.893741520843829"><ele>123.0</ele><time>2026-05-02T14:41:34Z</time></trkpt><trkpt lat="45.67933971511463" lon="10.893562783391681"><ele>124.33333333333334</ele><time>2026-05-02T14:41:35Z</time></trkpt><trkpt lat="45.67913873167922" lon="10.893403632171879"><ele>125.66666666666667</ele><time>2026-05-02T14:41:36Z</time></trkpt><trkpt lat="45.678962639906345" lon="10.893241464768618"><ele>127.0</ele><time>2026-05-02T14:41:37Z</time></trkpt><trkpt lat="45.67879751371489" lon="10.893089382759657"><ele>127.0</ele><time>2026-05-02T14:41:38Z</time></trkpt><trkpt lat="45.67863917486824" lon="10.892951851863947"><ele>127.0</ele><time>2026-05-02T14:41:39Z</time></trkpt><trkpt lat="45.67847920691968" lon="10.892806580578771"><ele>127.0</ele><time>2026-05-02T14:41:40Z</time></trkpt><trkpt lat="45.67832838471089" lon="10.89266506136112"><ele>127.33333333333334</ele><time>2026-05-02T14:41:41Z</time></trkpt><trkpt lat="45.678174297152665" lon="10.892547543629522"><ele>127.66666666666666</ele><time>2026-05-02T14:41:42Z</time></trkpt><trkpt lat="45.67799218994786" lon="10.892474877185112"><ele>128.0</ele><time>2026-05-02T14:41:43Z</time></trkpt><trkpt lat="45.677793934012215" lon="10.892443476963203"><ele>126.66666666666666</ele><time>2026-05-02T14:41:44Z</time></trkpt><trkpt lat="45.67757758582043" lon="10.892425613899592"><ele>125.33333333333334</ele><time>2026-05-02T14:41:45Z</time></trkpt><trkpt lat="45.67735253720442" lon="10.892401039756884"><ele>124.0</ele><time>2026-05-02T14:41:46Z</time></trkpt><trkpt lat="45.677132134705566" lon="10.892364760753875"><ele>125.66666666666667</ele><time>2026-05-02T14:41:47Z</time></trkpt><trkpt lat="45.676908386128474" lon="10.892325511330828"><ele>127.33333333333334</ele><time>2026-05-02T14:41:48Z</time></trkpt><trkpt lat="45.676687658559445" lon="10.892295341823118"><ele>129.0</ele><time>2026-05-02T14:41:49Z</time></trkpt><trkpt lat="45.676465699346906" lon="10.892273886730692"><ele>129.0</ele><time>2026-05-02T14:41:50Z</time></trkpt><trkpt lat="45.67623025313868" lon="10.892490308651189"><ele>129.0</ele><time>2026-05-02T14:41:51Z</time></trkpt><trkpt lat="45.676016384379075" lon="10.892504007742508"><ele>132.66666666666666</ele><time>2026-05-02T14:41:52Z</time></trkpt><trkpt lat="45.67580368786018" lon="10.892471243633956"><ele>136.33333333333331</ele><time>2026-05-02T14:41:53Z</time></trkpt><trkpt lat="45.67558767863754" lon="10.892454998286686"><ele>140.0</ele><time>2026-05-02T14:41:54Z</time></trkpt><trkpt lat="45.67537586618368" lon="10.89249267384703"><ele>142.33333333333331</ele><time>2026-05-02T14:41:55Z</time></trkpt><trkpt lat="45.675160403081925" lon="10.892571778014677"><ele>144.66666666666666</ele><time>2026-05-02T14:41:56Z</time></trkpt><trkpt lat="45.67494171591942" lon="10.892657880252848"><ele>147.0</ele><time>2026-05-02T14:41:57Z</time></trkpt><trkpt lat="45.674734588955495" lon="10.892733709379856"><ele>137.33333333333334</ele><time>2026-05-02T14:41:58Z</time></trkpt><trkpt lat="45.67453108469428" lon="10.892796486587494"><ele>127.66666666666667</ele><time>2026-05-02T14:41:59Z</time></trkpt><trkpt lat="45.67433019211563" lon="10.892829536130519"><ele>118.0</ele><time>2026-05-02T14:42:00Z</time></trkpt><trkpt lat="45.67413874810436" lon="10.89282654957899"><ele>118.0</ele><time>2026-05-02T14:42:01Z</time></trkpt><trkpt lat="45.67396264022601" lon="10.892771485931446"><ele>118.0</ele><time>2026-05-02T14:42:02Z</time></trkpt><trkpt lat="45.67376582617116" lon="10.892774793815956"><ele>118.0</ele><time>2026-05-02T14:42:03Z</time></trkpt><trkpt lat="45.67356488598504" lon="10.892840498178657"><ele>120.0</ele><time>2026-05-02T14:42:04Z</time></trkpt><trkpt lat="45.67335605546401" lon="10.89295333331315"><ele>122.0</ele><time>2026-05-02T14:42:05Z</time></trkpt><trkpt lat="45.673151762786624" lon="10.893081545832883"><ele>124.0</ele><time>2026-05-02T14:42:06Z</time></trkpt><trkpt lat="45.67295540356502" lon="10.893194832076063"><ele>122.66666666666667</ele><time>2026-05-02T14:42:07Z</time></trkpt><trkpt lat="45.672770480005134" lon="10.893296035500857"><ele>121.33333333333334</ele><time>2026-05-02T14:42:08Z</time></trkpt><trkpt lat="45.672595566225354" lon="10.893389725987264"><ele>120.0</ele><time>2026-05-02T14:42:09Z</time></trkpt><trkpt lat="45.67242482519265" lon="10.89346217360356"><ele>120.0</ele><time>2026-05-02T14:42:10Z</time></trkpt><trkpt lat="45.67224000528712" lon="10.893489845823968"><ele>120.0</ele><time>2026-05-02T14:42:11Z</time></trkpt><trkpt lat="45.672039940783264" lon="10.89347471601555"><ele>120.0</ele><time>2026-05-02T14:42:12Z</time></trkpt><trkpt lat="45.671828669529766" lon="10.893459990335126"><ele>120.33333333333334</ele><time>2026-05-02T14:42:13Z</time></trkpt><trkpt lat="45.67161750821629" lon="10.893458265818566"><ele>120.66666666666667</ele><time>2026-05-02T14:42:14Z</time></trkpt><trkpt lat="45.67141468344799" lon="10.893486912702796"><ele>121.0</ele><time>2026-05-02T14:42:15Z</time></trkpt><trkpt lat="45.671212242332125" lon="10.893571888189545"><ele>120.5</ele><time>2026-05-02T14:42:16Z</time></trkpt><trkpt lat="45.67100048955767" lon="10.893678163071781"><ele>120.0</ele><time>2026-05-02T14:42:17Z</time></trkpt><trkpt lat="45.67077622395501" lon="10.893789499118162"><ele>120.0</ele><time>2026-05-02T14:42:18Z</time></trkpt><trkpt lat="45.67055941583719" lon="10.893883326590231"><ele>120.0</ele><time>2026-05-02T14:42:19Z</time></trkpt><trkpt lat="45.67035601060594" lon="10.893973590955978"><ele>120.0</ele><time>2026-05-02T14:42:20Z</time></trkpt><trkpt lat="45.6701699877714" lon="10.894059126932065"><ele>119.33333333333334</ele><time>2026-05-02T14:42:21Z</time></trkpt><trkpt lat="45.669985289999566" lon="10.894143481862413"><ele>118.66666666666667</ele><time>2026-05-02T14:42:22Z</time></trkpt><trkpt lat="45.66979312823642" lon="10.89422945615094"><ele>118.0</ele><time>2026-05-02T14:42:23Z</time></trkpt><trkpt lat="45.669591521597816" lon="10.894320451317942"><ele>118.33333333333334</ele><time>2026-05-02T14:42:24Z</time></trkpt><trkpt lat="45.66938678063324" lon="10.894410027985751"><ele>118.66666666666666</ele><time>2026-05-02T14:42:25Z</time></trkpt><trkpt lat="45.669184081283845" lon="10.89449865171487"><ele>119.0</ele><time>2026-05-02T14:42:26Z</time></trkpt><trkpt lat="45.66898703106476" lon="10.894580082262372"><ele>119.0</ele><time>2026-05-02T14:42:27Z</time></trkpt><trkpt lat="45.668799940232134" lon="10.894644596152025"><ele>119.0</ele><time>2026-05-02T14:42:28Z</time></trkpt><trkpt lat="45.668620197465984" lon="10.89469297322914"><ele>119.0</ele><time>2026-05-02T14:42:29Z</time></trkpt><trkpt lat="45.66843993455896" lon="10.89475185377042"><ele>119.66666666666666</ele><time>2026-05-02T14:42:30Z</time></trkpt><trkpt lat="45.668252210478514" lon="10.894834806554448"><ele>120.33333333333334</ele><time>2026-05-02T14:42:31Z</time></trkpt><trkpt lat="45.66806841029727" lon="10.894933108778355"><ele>121.0</ele><time>2026-05-02T14:42:32Z</time></trkpt><trkpt lat="45.667897009532936" lon="10.89502540313388"><ele>120.33333333333334</ele><time>2026-05-02T14:42:33Z</time></trkpt><trkpt lat="45.667714715997086" lon="10.895105671666597"><ele>119.66666666666666</ele><time>2026-05-02T14:42:34Z</time></trkpt><trkpt lat="45.667515777449516" lon="10.895160266258184"><ele>119.0</ele><time>2026-05-02T14:42:35Z</time></trkpt><trkpt lat="45.66730066132953" lon="10.895183122334775"><ele>119.0</ele><time>2026-05-02T14:42:36Z</time></trkpt><trkpt lat="45.66708454526394" lon="10.895191834121322"><ele>119.0</ele><time>2026-05-02T14:42:37Z</time></trkpt><trkpt lat="45.66687625017948" lon="10.895207009558689"><ele>119.0</ele><time>2026-05-02T14:42:38Z</time></trkpt><trkpt lat="45.666672944956595" lon="10.895241163442641"><ele>119.33333333333333</ele><time>2026-05-02T14:42:39Z</time></trkpt><trkpt lat="45.666476928537634" lon="10.895292899514379"><ele>119.66666666666666</ele><time>2026-05-02T14:42:40Z</time></trkpt><trkpt lat="45.66628431090051" lon="10.895373686707511"><ele>120.0</ele><time>2026-05-02T14:42:41Z</time></trkpt><trkpt lat="45.666089067957984" lon="10.895492820926954"><ele>120.0</ele><time>2026-05-02T14:42:42Z</time></trkpt><trkpt lat="45.665888299115466" lon="10.89562923071398"><ele>120.0</ele><time>2026-05-02T14:42:43Z</time></trkpt><trkpt lat="45.66567883762558" lon="10.89575983821203"><ele>120.0</ele><time>2026-05-02T14:42:44Z</time></trkpt><trkpt lat="45.66546346463909" lon="10.895888131319776"><ele>120.0</ele><time>2026-05-02T14:42:45Z</time></trkpt><trkpt lat="45.665241941785254" lon="10.89601086121372"><ele>118.66666666666666</ele><time>2026-05-02T14:42:46Z</time></trkpt><trkpt lat="45.66502189516608" lon="10.896102912788834"><ele>117.33333333333333</ele><time>2026-05-02T14:42:47Z</time></trkpt><trkpt lat="45.664806417773434" lon="10.896121949592985"><ele>116.0</ele><time>2026-05-02T14:42:48Z</time></trkpt><trkpt lat="45.66458178285815" lon="10.896109688972723"><ele>115.5</ele><time>2026-05-02T14:42:49Z</time></trkpt><trkpt lat="45.664345140768845" lon="10.896071882359413"><ele>115.0</ele><time>2026-05-02T14:42:50Z</time></trkpt><trkpt lat="45.664094868500605" lon="10.896025567732032"><ele>115.0</ele><time>2026-05-02T14:42:51Z</time></trkpt><trkpt lat="45.66383969492591" lon="10.895978304507242"><ele>115.0</ele><time>2026-05-02T14:42:52Z</time></trkpt><trkpt lat="45.66358398482661" lon="10.895930721860575"><ele>118.0</ele><time>2026-05-02T14:42:53Z</time></trkpt><trkpt lat="45.663328581546004" lon="10.895879316425589"><ele>121.0</ele><time>2026-05-02T14:42:54Z</time></trkpt><trkpt lat="45.66306339990371" lon="10.895867912261984"><ele>121.0</ele><time>2026-05-02T14:42:55Z</time></trkpt><trkpt lat="45.66279625586624" lon="10.8958605861996"><ele>121.0</ele><time>2026-05-02T14:42:56Z</time></trkpt><trkpt lat="45.66253266587749" lon="10.895888904502907"><ele>119.5</ele><time>2026-05-02T14:42:57Z</time></trkpt><trkpt lat="45.662296779688006" lon="10.895949118562942"><ele>118.0</ele><time>2026-05-02T14:42:58Z</time></trkpt><trkpt lat="45.662074611814184" lon="10.895997479089083"><ele>117.33333333333334</ele><time>2026-05-02T14:42:59Z</time></trkpt><trkpt lat="45.66186020968444" lon="10.895969308697337"><ele>116.66666666666666</ele><time>2026-05-02T14:43:00Z</time></trkpt><trkpt lat="45.66165548725637" lon="10.895921027041393"><ele>116.0</ele><time>2026-05-02T14:43:01Z</time></trkpt><trkpt lat="45.6614552694166" lon="10.895846606470256"><ele>117.66666666666666</ele><time>2026-05-02T14:43:02Z</time></trkpt><trkpt lat="45.66126861289342" lon="10.895773913310911"><ele>119.33333333333334</ele><time>2026-05-02T14:43:03Z</time></trkpt><trkpt lat="45.66109585616831" lon="10.895705230060821"><ele>121.0</ele><time>2026-05-02T14:43:04Z</time></trkpt><trkpt lat="45.660952211178326" lon="10.895647038111557"><ele>121.0</ele><time>2026-05-02T14:43:05Z</time></trkpt><trkpt lat="45.660816510204064" lon="10.895592064359848"><ele>121.0</ele><time>2026-05-02T14:43:06Z</time></trkpt><trkpt lat="45.66068475288714" lon="10.895538688246118"><ele>121.0</ele><time>2026-05-02T14:43:07Z</time></trkpt><trkpt lat="45.6605644615884" lon="10.895489956960796"><ele>121.0</ele><time>2026-05-02T14:43:08Z</time></trkpt><trkpt lat="45.660450808988976" lon="10.89545988812737"><ele>121.0</ele><time>2026-05-02T14:43:09Z</time></trkpt><trkpt lat="45.66035128949109" lon="10.8954167903652"><ele>121.0</ele><time>2026-05-02T14:43:10Z</time></trkpt><trkpt lat="45.660260183643416" lon="10.895378768510707"><ele>121.0</ele><time>2026-05-02T14:43:11Z</time></trkpt><trkpt lat="45.66018936520386" lon="10.89534401589101"><ele>121.0</ele><time>2026-05-02T14:43:12Z</time></trkpt><trkpt lat="45.660092417416266" lon="10.895294304965487"><ele>121.0</ele><time>2026-05-02T14:43:14Z</time></trkpt><trkpt lat="45.66002197908398" lon="10.895265164799259"><ele>121.50000000000001</ele><time>2026-05-02T14:43:16Z</time></trkpt><trkpt lat="45.65995957895575" lon="10.895235889934147"><ele>122.0</ele><time>2026-05-02T14:43:18Z</time></trkpt><trkpt lat="45.65989886707193" lon="10.89521042597821"><ele>122.5</ele><time>2026-05-02T14:43:25Z</time></trkpt><trkpt lat="45.65983303349583" lon="10.895134593527214"><ele>123.0</ele><time>2026-05-02T15:20:06.999Z</time></trkpt><trkpt lat="45.65975586039907" lon="10.895127084614545"><ele>123.50000000000001</ele><time>2026-05-02T15:20:08.999Z</time></trkpt><trkpt lat="45.659670256177634" lon="10.895087174394275"><ele>124.0</ele><time>2026-05-02T15:20:10.999Z</time></trkpt><trkpt lat="45.65959361170633" lon="10.895060341223097"><ele>124.00000000000001</ele><time>2026-05-02T15:20:12.999Z</time></trkpt><trkpt lat="45.659504150389246" lon="10.895026758320313"><ele>124.0</ele><time>2026-05-02T15:20:34.998Z</time></trkpt><trkpt lat="45.659434529115195" lon="10.894997236996643"><ele>124.0</ele><time>2026-05-02T15:20:35.998Z</time></trkpt><trkpt lat="45.65936584090572" lon="10.894962505299214"><ele>124.0</ele><time>2026-05-02T15:20:36.998Z</time></trkpt><trkpt lat="45.65929584335634" lon="10.89491919042219"><ele>124.00000000000001</ele><time>2026-05-02T15:20:37.998Z</time></trkpt><trkpt lat="45.659228914085276" lon="10.894870420623224"><ele>124.0</ele><time>2026-05-02T15:20:38.998Z</time></trkpt><trkpt lat="45.659159562078074" lon="10.89481729123392"><ele>123.4</ele><time>2026-05-02T15:20:39.998Z</time></trkpt><trkpt lat="45.659088050344884" lon="10.894759440642828"><ele>122.80000000000001</ele><time>2026-05-02T15:20:40.998Z</time></trkpt><trkpt lat="45.659012997119184" lon="10.894696517526093"><ele>122.19999999999999</ele><time>2026-05-02T15:20:41.998Z</time></trkpt><trkpt lat="45.65893115855279" lon="10.894622856313148"><ele>121.6</ele><time>2026-05-02T15:20:42.998Z</time></trkpt><trkpt lat="45.65884128316968" lon="10.894540230895354"><ele>121.0</ele><time>2026-05-02T15:20:43.998Z</time></trkpt><trkpt lat="45.65874312325385" lon="10.8944624524813"><ele>120.33333333333334</ele><time>2026-05-02T15:20:44.998Z</time></trkpt><trkpt lat="45.658526556307606" lon="10.89434283603025"><ele>119.66666666666666</ele><time>2026-05-02T15:20:46.997Z</time></trkpt><trkpt lat="45.658407667887914" lon="10.894302355797317"><ele>119.0</ele><time>2026-05-02T15:20:47.997Z</time></trkpt><trkpt lat="45.65828753303487" lon="10.8942687657098"><ele>120.5</ele><time>2026-05-02T15:20:48.997Z</time></trkpt><trkpt lat="45.658163185523954" lon="10.894237135424037"><ele>122.0</ele><time>2026-05-02T15:20:49.997Z</time></trkpt><trkpt lat="45.65803803007652" lon="10.894205070984864"><ele>123.5</ele><time>2026-05-02T15:20:50.997Z</time></trkpt><trkpt lat="45.65791484471882" lon="10.894174878330274"><ele>125.0</ele><time>2026-05-02T15:20:51.997Z</time></trkpt><trkpt lat="45.657789729590704" lon="10.894148946717314"><ele>124.0</ele><time>2026-05-02T15:20:52.997Z</time></trkpt><trkpt lat="45.65765788942608" lon="10.894137004515578"><ele>123.0</ele><time>2026-05-02T15:20:53.997Z</time></trkpt><trkpt lat="45.65753120934482" lon="10.894135474453066"><ele>122.0</ele><time>2026-05-02T15:20:54.997Z</time></trkpt><trkpt lat="45.65740414922589" lon="10.894129333662793"><ele>121.0</ele><time>2026-05-02T15:20:55.997Z</time></trkpt><trkpt lat="45.65728691985406" lon="10.894123005912085"><ele>121.0</ele><time>2026-05-02T15:20:56.997Z</time></trkpt><trkpt lat="45.65716801613866" lon="10.894117726183161"><ele>121.0</ele><time>2026-05-02T15:20:57.997Z</time></trkpt><trkpt lat="45.65705466533349" lon="10.894110837334575"><ele>121.0</ele><time>2026-05-02T15:20:58.997Z</time></trkpt><trkpt lat="45.65693888011273" lon="10.894103976393687"><ele>121.0</ele><time>2026-05-02T15:20:59.997Z</time></trkpt><trkpt lat="45.65682399558215" lon="10.894087779871613"><ele>120.5</ele><time>2026-05-02T15:21:00.997Z</time></trkpt><trkpt lat="45.656697219204815" lon="10.894069856113983"><ele>120.0</ele><time>2026-05-02T15:21:01.997Z</time></trkpt><trkpt lat="45.65655262375253" lon="10.894035488494154"><ele>119.5</ele><time>2026-05-02T15:21:02.997Z</time></trkpt><trkpt lat="45.656397469844" lon="10.894000983965237"><ele>119.0</ele><time>2026-05-02T15:21:03.997Z</time></trkpt><trkpt lat="45.65623187294141" lon="10.893970171355834"><ele>119.66666666666666</ele><time>2026-05-02T15:21:04.997Z</time></trkpt><trkpt lat="45.6560566042569" lon="10.893920261058158"><ele>120.33333333333334</ele><time>2026-05-02T15:21:05.997Z</time></trkpt><trkpt lat="45.655883396311225" lon="10.893895823469908"><ele>121.0</ele><time>2026-05-02T15:21:06.997Z</time></trkpt><trkpt lat="45.65570125935336" lon="10.893844217482005"><ele>121.0</ele><time>2026-05-02T15:21:07.997Z</time></trkpt><trkpt lat="45.655558574876764" lon="10.89382724130465"><ele>121.0</ele><time>2026-05-02T15:21:08.997Z</time></trkpt><trkpt lat="45.655429188722714" lon="10.893826830937536"><ele>121.0</ele><time>2026-05-02T15:21:09.997Z</time></trkpt><trkpt lat="45.65530899119985" lon="10.893820852181502"><ele>121.0</ele><time>2026-05-02T15:21:10.997Z</time></trkpt><trkpt lat="45.65519611845175" lon="10.893797811786456"><ele>120.66666666666667</ele><time>2026-05-02T15:21:11.997Z</time></trkpt><trkpt lat="45.65509609772679" lon="10.893767866228929"><ele>120.33333333333334</ele><time>2026-05-02T15:21:12.997Z</time></trkpt><trkpt lat="45.65501348877901" lon="10.893742321526966"><ele>120.0</ele><time>2026-05-02T15:21:13.997Z</time></trkpt><trkpt lat="45.65493292699607" lon="10.893709414032658"><ele>119.66666666666666</ele><time>2026-05-02T15:21:14.997Z</time></trkpt><trkpt lat="45.65486192489704" lon="10.893670309686115"><ele>119.33333333333333</ele><time>2026-05-02T15:21:15.997Z</time></trkpt><trkpt lat="45.65479495376852" lon="10.893623464325897"><ele>119.0</ele><time>2026-05-02T15:21:16.997Z</time></trkpt><trkpt lat="45.65473909351607" lon="10.893550229044148"><ele>119.0</ele><time>2026-05-02T15:21:17.997Z</time></trkpt><trkpt lat="45.65467357887678" lon="10.89347511832019"><ele>119.0</ele><time>2026-05-02T15:21:18.997Z</time></trkpt><trkpt lat="45.65462425511537" lon="10.893375661381878"><ele>119.0</ele><time>2026-05-02T15:21:19.997Z</time></trkpt><trkpt lat="45.654556184707275" lon="10.89323762975502"><ele>119.0</ele><time>2026-05-02T15:21:20.997Z</time></trkpt><trkpt lat="45.6544778987932" lon="10.893069052731526"><ele>119.0</ele><time>2026-05-02T15:21:21.997Z</time></trkpt><trkpt lat="45.654429499064" lon="10.892849883436728"><ele>121.0</ele><time>2026-05-02T15:21:22.997Z</time></trkpt><trkpt lat="45.65436401287898" lon="10.892638183182516"><ele>123.0</ele><time>2026-05-02T15:21:23.997Z</time></trkpt><trkpt lat="45.65430706349792" lon="10.892422882904693"><ele>125.0</ele><time>2026-05-02T15:21:24.997Z</time></trkpt><trkpt lat="45.65424500069133" lon="10.89221302745418"><ele>125.25</ele><time>2026-05-02T15:21:25.997Z</time></trkpt><trkpt lat="45.65418390687635" lon="10.892016189156818"><ele>125.5</ele><time>2026-05-02T15:21:26.997Z</time></trkpt><trkpt lat="45.654102898136884" lon="10.891842402920885"><ele>125.75</ele><time>2026-05-02T15:21:27.997Z</time></trkpt><trkpt lat="45.654010305116245" lon="10.891677489561435"><ele>126.0</ele><time>2026-05-02T15:21:28.997Z</time></trkpt><trkpt lat="45.65391546576916" lon="10.891508365123684"><ele>126.0</ele><time>2026-05-02T15:21:29.997Z</time></trkpt><trkpt lat="45.653815371196465" lon="10.8913280727788"><ele>126.0</ele><time>2026-05-02T15:21:30.997Z</time></trkpt><trkpt lat="45.65371290954814" lon="10.891143485050307"><ele>126.0</ele><time>2026-05-02T15:21:31.997Z</time></trkpt><trkpt lat="45.65360217700502" lon="10.890956521952187"><ele>126.33333333333334</ele><time>2026-05-02T15:21:32.997Z</time></trkpt><trkpt lat="45.65349229709964" lon="10.890757960274373"><ele>126.66666666666667</ele><time>2026-05-02T15:21:33.997Z</time></trkpt><trkpt lat="45.6533993717919" lon="10.890542560057508"><ele>127.0</ele><time>2026-05-02T15:21:34.997Z</time></trkpt><trkpt lat="45.653331305837284" lon="10.89027457594305"><ele>128.0</ele><time>2026-05-02T15:21:35.997Z</time></trkpt><trkpt lat="45.653241041077145" lon="10.889977887323697"><ele>129.0</ele><time>2026-05-02T15:21:36.997Z</time></trkpt><trkpt lat="45.65317187179432" lon="10.889671318770429"><ele>129.0</ele><time>2026-05-02T15:21:37.997Z</time></trkpt><trkpt lat="45.653101008976336" lon="10.889386246840122"><ele>129.0</ele><time>2026-05-02T15:21:38.997Z</time></trkpt><trkpt lat="45.653027554050404" lon="10.88910572092027"><ele>129.0</ele><time>2026-05-02T15:21:39.997Z</time></trkpt><trkpt lat="45.65296095510994" lon="10.88884524972452"><ele>129.66666666666666</ele><time>2026-05-02T15:21:40.997Z</time></trkpt><trkpt lat="45.652895858669645" lon="10.888590336239693"><ele>130.33333333333331</ele><time>2026-05-02T15:21:41.997Z</time></trkpt><trkpt lat="45.652835751547684" lon="10.888359773076555"><ele>131.0</ele><time>2026-05-02T15:21:42.997Z</time></trkpt><trkpt lat="45.6527913430456" lon="10.888194742892622"><ele>131.25</ele><time>2026-05-02T15:21:43.997Z</time></trkpt><trkpt lat="45.65271326818895" lon="10.8880833847602"><ele>131.5</ele><time>2026-05-02T15:21:44.997Z</time></trkpt><trkpt lat="45.652603698598725" lon="10.887994419425896"><ele>131.75</ele><time>2026-05-02T15:21:45.997Z</time></trkpt><trkpt lat="45.652458903618275" lon="10.887878032088013"><ele>132.0</ele><time>2026-05-02T15:21:46.997Z</time></trkpt><trkpt lat="45.65229923771839" lon="10.887713515678966"><ele>132.5</ele><time>2026-05-02T15:21:47.997Z</time></trkpt><trkpt lat="45.6521262108987" lon="10.887514007657375"><ele>133.0</ele><time>2026-05-02T15:21:48.997Z</time></trkpt><trkpt lat="45.6519531022784" lon="10.887297954380042"><ele>130.5</ele><time>2026-05-02T15:21:49.997Z</time></trkpt><trkpt lat="45.65178754067126" lon="10.887064203229318"><ele>128.0</ele><time>2026-05-02T15:21:50.997Z</time></trkpt><trkpt lat="45.65161962124995" lon="10.886815355244533"><ele>130.5</ele><time>2026-05-02T15:21:51.997Z</time></trkpt><trkpt lat="45.65143415225057" lon="10.886545398094752"><ele>133.0</ele><time>2026-05-02T15:21:52.997Z</time></trkpt><trkpt lat="45.651240702666314" lon="10.88626285636841"><ele>131.0</ele><time>2026-05-02T15:21:53.997Z</time></trkpt><trkpt lat="45.651052003047" lon="10.885982917914486"><ele>129.0</ele><time>2026-05-02T15:21:54.997Z</time></trkpt><trkpt lat="45.65086684946358" lon="10.885706902927767"><ele>129.0</ele><time>2026-05-02T15:21:55.997Z</time></trkpt><trkpt lat="45.6506835495398" lon="10.885441873226396"><ele>129.0</ele><time>2026-05-02T15:21:56.997Z</time></trkpt><trkpt lat="45.65051104909836" lon="10.885189719452777"><ele>129.0</ele><time>2026-05-02T15:21:57.997Z</time></trkpt><trkpt lat="45.65033416600601" lon="10.88495937391932"><ele>129.0</ele><time>2026-05-02T15:21:58.997Z</time></trkpt><trkpt lat="45.65014051090394" lon="10.884749124376047"><ele>129.0</ele><time>2026-05-02T15:21:59.997Z</time></trkpt><trkpt lat="45.64991802230989" lon="10.884550631458316"><ele>129.0</ele><time>2026-05-02T15:22:00.997Z</time></trkpt><trkpt lat="45.649691008755454" lon="10.884347202169437"><ele>126.0</ele><time>2026-05-02T15:22:01.997Z</time></trkpt><trkpt lat="45.64947009294728" lon="10.884146365627375"><ele>123.0</ele><time>2026-05-02T15:22:02.997Z</time></trkpt><trkpt lat="45.6492566456185" lon="10.883949976992131"><ele>123.0</ele><time>2026-05-02T15:22:03.997Z</time></trkpt><trkpt lat="45.64905151403451" lon="10.883761513658875"><ele>123.0</ele><time>2026-05-02T15:22:04.997Z</time></trkpt><trkpt lat="45.64885836791288" lon="10.883583253913725"><ele>123.0</ele><time>2026-05-02T15:22:05.997Z</time></trkpt><trkpt lat="45.64867629113717" lon="10.883411150033895"><ele>123.0</ele><time>2026-05-02T15:22:06.997Z</time></trkpt><trkpt lat="45.64850409640999" lon="10.88323702571695"><ele>123.0</ele><time>2026-05-02T15:22:07.997Z</time></trkpt><trkpt lat="45.64834022934045" lon="10.883053751209502"><ele>123.0</ele><time>2026-05-02T15:22:08.997Z</time></trkpt><trkpt lat="45.64818408419388" lon="10.882847442909968"><ele>123.0</ele><time>2026-05-02T15:22:09.997Z</time></trkpt><trkpt lat="45.648027948485016" lon="10.882621240924106"><ele>123.0</ele><time>2026-05-02T15:22:10.997Z</time></trkpt><trkpt lat="45.647873014166684" lon="10.882368319152118"><ele>120.5</ele><time>2026-05-02T15:22:11.997Z</time></trkpt><trkpt lat="45.64773657910471" lon="10.882067774604419"><ele>118.0</ele><time>2026-05-02T15:22:12.998Z</time></trkpt><trkpt lat="45.647585675919565" lon="10.881754638047202"><ele>125.0</ele><time>2026-05-02T15:22:13.998Z</time></trkpt><trkpt lat="45.64742174688005" lon="10.881449595660042"><ele>132.0</ele><time>2026-05-02T15:22:14.998Z</time></trkpt><trkpt lat="45.64727868723654" lon="10.881152576081083"><ele>142.0</ele><time>2026-05-02T15:22:15.998Z</time></trkpt><trkpt lat="45.64714747264782" lon="10.880877416690549"><ele>152.0</ele><time>2026-05-02T15:22:16.998Z</time></trkpt><trkpt lat="45.64703291510047" lon="10.880594013292821"><ele>145.33333333333331</ele><time>2026-05-02T15:22:17.998Z</time></trkpt><trkpt lat="45.646894377479974" lon="10.880348243958036"><ele>138.66666666666666</ele><time>2026-05-02T15:22:18.998Z</time></trkpt><trkpt lat="45.64677978144467" lon="10.8801049707819"><ele>132.0</ele><time>2026-05-02T15:22:19.998Z</time></trkpt><trkpt lat="45.64666593496756" lon="10.879891506523004"><ele>132.0</ele><time>2026-05-02T15:22:20.998Z</time></trkpt><trkpt lat="45.646534234578105" lon="10.879712829174453"><ele>132.0</ele><time>2026-05-02T15:22:21.998Z</time></trkpt><trkpt lat="45.64637345070368" lon="10.87956530163374"><ele>132.0</ele><time>2026-05-02T15:22:22.998Z</time></trkpt><trkpt lat="45.646191147304066" lon="10.879453002792237"><ele>130.0</ele><time>2026-05-02T15:22:23.998Z</time></trkpt><trkpt lat="45.64597986645294" lon="10.879376024198278"><ele>128.0</ele><time>2026-05-02T15:22:24.998Z</time></trkpt><trkpt lat="45.64574020261616" lon="10.87926564877486"><ele>128.0</ele><time>2026-05-02T15:22:25.998Z</time></trkpt><trkpt lat="45.64549146672295" lon="10.879157051232479"><ele>128.0</ele><time>2026-05-02T15:22:26.998Z</time></trkpt><trkpt lat="45.6452559388741" lon="10.87905876216843"><ele>126.0</ele><time>2026-05-02T15:22:27.998Z</time></trkpt><trkpt lat="45.6450277960118" lon="10.87906614893705"><ele>124.0</ele><time>2026-05-02T15:22:28.998Z</time></trkpt><trkpt lat="45.64482829855287" lon="10.878990183071044"><ele>122.0</ele><time>2026-05-02T15:22:29.999Z</time></trkpt><trkpt lat="45.64463474284386" lon="10.878924044748938"><ele>120.0</ele><time>2026-05-02T15:22:30.999Z</time></trkpt><trkpt lat="45.644461526348834" lon="10.878862843650294"><ele>118.0</ele><time>2026-05-02T15:22:31.999Z</time></trkpt><trkpt lat="45.644296298227516" lon="10.878802647880864"><ele>116.0</ele><time>2026-05-02T15:22:32.999Z</time></trkpt><trkpt lat="45.64411448025547" lon="10.878740666494366"><ele>116.0</ele><time>2026-05-02T15:22:33.999Z</time></trkpt><trkpt lat="45.643905693048524" lon="10.878670274936542"><ele>116.0</ele><time>2026-05-02T15:22:34.999Z</time></trkpt><trkpt lat="45.64366454699204" lon="10.878586365562944"><ele>115.0</ele><time>2026-05-02T15:22:35.999Z</time></trkpt><trkpt lat="45.64341251808448" lon="10.878499337074055"><ele>114.0</ele><time>2026-05-02T15:22:36.999Z</time></trkpt><trkpt lat="45.6431665151095" lon="10.878414601850405"><ele>118.0</ele><time>2026-05-02T15:22:37.999Z</time></trkpt><trkpt lat="45.642923221057" lon="10.8783272371414"><ele>122.0</ele><time>2026-05-02T15:22:38.999Z</time></trkpt><trkpt lat="45.642681467315924" lon="10.878239877062757"><ele>122.0</ele><time>2026-05-02T15:22:39.999Z</time></trkpt><trkpt lat="45.6424494727809" lon="10.878157818997183"><ele>122.0</ele><time>2026-05-02T15:22:40.999Z</time></trkpt><trkpt lat="45.642217797239034" lon="10.878072731251395"><ele>122.0</ele><time>2026-05-02T15:22:41.999Z</time></trkpt><trkpt lat="45.64199202912503" lon="10.877989933372602"><ele>122.0</ele><time>2026-05-02T15:22:42.999Z</time></trkpt><trkpt lat="45.641778999965105" lon="10.877912499012929"><ele>123.0</ele><time>2026-05-02T15:22:43.999Z</time></trkpt><trkpt lat="45.64156381348824" lon="10.877837120146626"><ele>124.0</ele><time>2026-05-02T15:22:44.999Z</time></trkpt><trkpt lat="45.641349079881095" lon="10.877746268266558"><ele>125.0</ele><time>2026-05-02T15:22:45.999Z</time></trkpt><trkpt lat="45.64113996242316" lon="10.87763475512475"><ele>127.0</ele><time>2026-05-02T15:22:46.999Z</time></trkpt><trkpt lat="45.6409239442306" lon="10.877508553103077"><ele>129.0</ele><time>2026-05-02T15:22:47.999Z</time></trkpt><trkpt lat="45.64070110528239" lon="10.877361851941785"><ele>129.0</ele><time>2026-05-02T15:22:48.999Z</time></trkpt><trkpt lat="45.640468457997954" lon="10.87717621932145"><ele>129.0</ele><time>2026-05-02T15:22:49.999Z</time></trkpt><trkpt lat="45.64022166587337" lon="10.876951050131348"><ele>128.5</ele><time>2026-05-02T15:22:50.999Z</time></trkpt><trkpt lat="45.63998104558663" lon="10.87672277579421"><ele>128.0</ele><time>2026-05-02T15:22:51.999Z</time></trkpt><trkpt lat="45.63974951567508" lon="10.87652892165302"><ele>128.0</ele><time>2026-05-02T15:22:52.999Z</time></trkpt><trkpt lat="45.63953737513327" lon="10.876318706255383"><ele>128.0</ele><time>2026-05-02T15:22:53.999Z</time></trkpt><trkpt lat="45.63932284123068" lon="10.876108860831438"><ele>128.5</ele><time>2026-05-02T15:22:54.999Z</time></trkpt><trkpt lat="45.63911751601932" lon="10.875906437330753"><ele>129.0</ele><time>2026-05-02T15:22:55.999Z</time></trkpt><trkpt lat="45.63892070001924" lon="10.875688880787253"><ele>129.0</ele><time>2026-05-02T15:22:56.999Z</time></trkpt><trkpt lat="45.638727607746986" lon="10.875443096251146"><ele>129.0</ele><time>2026-05-02T15:22:57.999Z</time></trkpt><trkpt lat="45.63854732202284" lon="10.875197303818755"><ele>129.5</ele><time>2026-05-02T15:22:58.999Z</time></trkpt><trkpt lat="45.63838243148659" lon="10.874967543159569"><ele>130.0</ele><time>2026-05-02T15:22:59.999Z</time></trkpt><trkpt lat="45.63820705982739" lon="10.874746495254204"><ele>130.0</ele><time>2026-05-02T15:23:00.999Z</time></trkpt><trkpt lat="45.638009847622236" lon="10.874537334904353"><ele>130.0</ele><time>2026-05-02T15:23:01.999Z</time></trkpt><trkpt lat="45.637807350616775" lon="10.874327870768763"><ele>128.0</ele><time>2026-05-02T15:23:02.999Z</time></trkpt><trkpt lat="45.637613114259935" lon="10.874127463450048"><ele>126.0</ele><time>2026-05-02T15:23:03.999Z</time></trkpt><trkpt lat="45.63742866166843" lon="10.873939226815567"><ele>126.0</ele><time>2026-05-02T15:23:04.999Z</time></trkpt><trkpt lat="45.63723922898303" lon="10.87374083717316"><ele>126.0</ele><time>2026-05-02T15:23:05.999Z</time></trkpt><trkpt lat="45.63705066640059" lon="10.873543091596106"><ele>126.33333333333334</ele><time>2026-05-02T15:23:06.999Z</time></trkpt><trkpt lat="45.636875225740965" lon="10.87335895849421"><ele>126.66666666666667</ele><time>2026-05-02T15:23:07.999Z</time></trkpt><trkpt lat="45.636713024430605" lon="10.87318958714051"><ele>127.0</ele><time>2026-05-02T15:23:08.999Z</time></trkpt><trkpt lat="45.63654443857803" lon="10.873012502307828"><ele>127.0</ele><time>2026-05-02T15:23:09.999Z</time></trkpt><trkpt lat="45.63636688059365" lon="10.872823379158152"><ele>127.0</ele><time>2026-05-02T15:23:10.999Z</time></trkpt><trkpt lat="45.63619269858685" lon="10.87264300862708"><ele>127.0</ele><time>2026-05-02T15:23:11.999Z</time></trkpt><trkpt lat="45.63602144812801" lon="10.87246202239641"><ele>126.0</ele><time>2026-05-02T15:23:12.999Z</time></trkpt><trkpt lat="45.63585559578605" lon="10.872281359297391"><ele>125.0</ele><time>2026-05-02T15:23:13.999Z</time></trkpt><trkpt lat="45.63568179977248" lon="10.872100997479334"><ele>124.0</ele><time>2026-05-02T15:23:14.999Z</time></trkpt><trkpt lat="45.6355068204142" lon="10.871921216481368"><ele>125.5</ele><time>2026-05-02T15:23:15.999Z</time></trkpt><trkpt lat="45.63532186659028" lon="10.871731284984238"><ele>127.0</ele><time>2026-05-02T15:23:16.999Z</time></trkpt><trkpt lat="45.635129231377206" lon="10.871531216671098"><ele>127.0</ele><time>2026-05-02T15:23:17.999Z</time></trkpt><trkpt lat="45.634929870704454" lon="10.87132256563219"><ele>127.0</ele><time>2026-05-02T15:23:18.999Z</time></trkpt><trkpt lat="45.63471568974156" lon="10.871107857716321"><ele>126.5</ele><time>2026-05-02T15:23:19.999Z</time></trkpt><trkpt lat="45.63447709400947" lon="10.870888467160961"><ele>126.0</ele><time>2026-05-02T15:23:20.999Z</time></trkpt><trkpt lat="45.634238234337204" lon="10.870689803606714"><ele>126.0</ele><time>2026-05-02T15:23:21.999Z</time></trkpt><trkpt lat="45.63400256668919" lon="10.870490914883996"><ele>126.0</ele><time>2026-05-02T15:23:22.999Z</time></trkpt><trkpt lat="45.633767649629476" lon="10.870280884958127"><ele>126.0</ele><time>2026-05-02T15:23:23.999Z</time></trkpt><trkpt lat="45.63351561530101" lon="10.87004392327551"><ele>126.0</ele><time>2026-05-02T15:23:24.999Z</time></trkpt><trkpt lat="45.63324832950447" lon="10.869790644826908"><ele>126.0</ele><time>2026-05-02T15:23:25.999Z</time></trkpt><trkpt lat="45.63299026600663" lon="10.869546826477373"><ele>126.0</ele><time>2026-05-02T15:23:26.999Z</time></trkpt><trkpt lat="45.63276190404436" lon="10.869335153126666"><ele>126.5</ele><time>2026-05-02T15:23:27.999Z</time></trkpt><trkpt lat="45.63254496950628" lon="10.869144700490414"><ele>127.0</ele><time>2026-05-02T15:23:28.999Z</time></trkpt><trkpt lat="45.632314884421596" lon="10.868936761441486"><ele>127.0</ele><time>2026-05-02T15:23:29.999Z</time></trkpt><trkpt lat="45.632080958084934" lon="10.868691496966912"><ele>127.0</ele><time>2026-05-02T15:23:30.999Z</time></trkpt><trkpt lat="45.63184432958137" lon="10.86839682931747"><ele>127.0</ele><time>2026-05-02T15:23:31.999Z</time></trkpt><trkpt lat="45.63159283804076" lon="10.868083373702593"><ele>127.0</ele><time>2026-05-02T15:23:32.999Z</time></trkpt><trkpt lat="45.6313455212506" lon="10.867782082551301"><ele>127.0</ele><time>2026-05-02T15:23:33.999Z</time></trkpt><trkpt lat="45.63110329021901" lon="10.867488336298218"><ele>127.0</ele><time>2026-05-02T15:23:34.999Z</time></trkpt><trkpt lat="45.630859891035534" lon="10.867186744331095"><ele>127.0</ele><time>2026-05-02T15:23:35.999Z</time></trkpt><trkpt lat="45.63062223967488" lon="10.866893545735204"><ele>127.0</ele><time>2026-05-02T15:23:36.999Z</time></trkpt><trkpt lat="45.63040206311735" lon="10.866624303847031"><ele>127.0</ele><time>2026-05-02T15:23:37.999Z</time></trkpt><trkpt lat="45.630202268901805" lon="10.866366213991398"><ele>127.0</ele><time>2026-05-02T15:23:38.999Z</time></trkpt><trkpt lat="45.629979694153334" lon="10.866139648174988"><ele>127.5</ele><time>2026-05-02T15:23:39.999Z</time></trkpt><trkpt lat="45.62973562284386" lon="10.8659261900376"><ele>128.0</ele><time>2026-05-02T15:23:40.999Z</time></trkpt><trkpt lat="45.62947147334008" lon="10.865739666519332"><ele>128.0</ele><time>2026-05-02T15:23:41.998Z</time></trkpt><trkpt lat="45.629198505653655" lon="10.865582950638558"><ele>128.0</ele><time>2026-05-02T15:23:42.998Z</time></trkpt><trkpt lat="45.628921129848656" lon="10.865427364705118"><ele>128.0</ele><time>2026-05-02T15:23:43.998Z</time></trkpt><trkpt lat="45.62867192125142" lon="10.865205212330784"><ele>128.0</ele><time>2026-05-02T15:23:44.998Z</time></trkpt><trkpt lat="45.62840858066635" lon="10.864987314595922"><ele>128.5</ele><time>2026-05-02T15:23:45.998Z</time></trkpt><trkpt lat="45.628148696694865" lon="10.864753485873232"><ele>129.0</ele><time>2026-05-02T15:23:46.998Z</time></trkpt><trkpt lat="45.62788394118905" lon="10.864525369348872"><ele>128.5</ele><time>2026-05-02T15:23:47.998Z</time></trkpt><trkpt lat="45.62762564343474" lon="10.864284013154608"><ele>128.0</ele><time>2026-05-02T15:23:48.998Z</time></trkpt><trkpt lat="45.62736433973317" lon="10.864062179391885"><ele>128.0</ele><time>2026-05-02T15:23:49.998Z</time></trkpt><trkpt lat="45.6270934250617" lon="10.863885029212948"><ele>128.0</ele><time>2026-05-02T15:23:50.998Z</time></trkpt><trkpt lat="45.626810794609014" lon="10.863718371502708"><ele>128.5</ele><time>2026-05-02T15:23:51.998Z</time></trkpt><trkpt lat="45.62651816975036" lon="10.863554389511474"><ele>129.0</ele><time>2026-05-02T15:23:52.998Z</time></trkpt><trkpt lat="45.62622501933793" lon="10.863413857941763"><ele>129.0</ele><time>2026-05-02T15:23:53.998Z</time></trkpt><trkpt lat="45.62594776567636" lon="10.863314922585245"><ele>129.0</ele><time>2026-05-02T15:23:54.998Z</time></trkpt><trkpt lat="45.62569479688765" lon="10.863232191026395"><ele>129.0</ele><time>2026-05-02T15:23:55.998Z</time></trkpt><trkpt lat="45.625480529865314" lon="10.863137806498699"><ele>129.0</ele><time>2026-05-02T15:23:56.998Z</time></trkpt><trkpt lat="45.62528848795927" lon="10.863024240519035"><ele>129.0</ele><time>2026-05-02T15:23:57.998Z</time></trkpt><trkpt lat="45.6251379682966" lon="10.86285880711747"><ele>129.0</ele><time>2026-05-02T15:23:58.998Z</time></trkpt><trkpt lat="45.625021386707765" lon="10.862678521518724"><ele>129.0</ele><time>2026-05-02T15:23:59.998Z</time></trkpt><trkpt lat="45.624915953454526" lon="10.862471433081508"><ele>129.0</ele><time>2026-05-02T15:24:00.998Z</time></trkpt><trkpt lat="45.62480580701521" lon="10.862193402939507"><ele>129.0</ele><time>2026-05-02T15:24:01.998Z</time></trkpt><trkpt lat="45.624692889437" lon="10.861885026010524"><ele>129.0</ele><time>2026-05-02T15:24:02.998Z</time></trkpt><trkpt lat="45.624567148702866" lon="10.861577725656085"><ele>128.5</ele><time>2026-05-02T15:24:03.998Z</time></trkpt><trkpt lat="45.62445842306605" lon="10.861275642358219"><ele>128.0</ele><time>2026-05-02T15:24:04.998Z</time></trkpt><trkpt lat="45.624358586964135" lon="10.860998210768646"><ele>130.0</ele><time>2026-05-02T15:24:05.998Z</time></trkpt><trkpt lat="45.62428517961617" lon="10.860687304353535"><ele>132.0</ele><time>2026-05-02T15:24:06.998Z</time></trkpt><trkpt lat="45.62421145195935" lon="10.860348588127126"><ele>131.0</ele><time>2026-05-02T15:24:07.998Z</time></trkpt><trkpt lat="45.62414153015268" lon="10.860008825653821"><ele>130.0</ele><time>2026-05-02T15:24:08.998Z</time></trkpt><trkpt lat="45.62407175122192" lon="10.859676519320265"><ele>130.0</ele><time>2026-05-02T15:24:09.998Z</time></trkpt><trkpt lat="45.624006381678946" lon="10.859362067842195"><ele>130.0</ele><time>2026-05-02T15:24:10.998Z</time></trkpt><trkpt lat="45.62392549811716" lon="10.85905728077052"><ele>130.0</ele><time>2026-05-02T15:24:11.998Z</time></trkpt><trkpt lat="45.6238587400621" lon="10.8587583693406"><ele>130.0</ele><time>2026-05-02T15:24:12.998Z</time></trkpt><trkpt lat="45.623770255530076" lon="10.858481663332686"><ele>130.0</ele><time>2026-05-02T15:24:13.998Z</time></trkpt><trkpt lat="45.62365259383315" lon="10.858222795975887"><ele>125.0</ele><time>2026-05-02T15:24:14.998Z</time></trkpt><trkpt lat="45.623505030028014" lon="10.857954797794587"><ele>120.0</ele><time>2026-05-02T15:24:15.998Z</time></trkpt><trkpt lat="45.62336525995958" lon="10.85764351910246"><ele>120.0</ele><time>2026-05-02T15:24:16.998Z</time></trkpt><trkpt lat="45.62321245953452" lon="10.857375543435829"><ele>120.0</ele><time>2026-05-02T15:24:17.998Z</time></trkpt><trkpt lat="45.62308200107854" lon="10.85711400765783"><ele>120.0</ele><time>2026-05-02T15:24:18.998Z</time></trkpt><trkpt lat="45.622952389698085" lon="10.856853883520525"><ele>120.0</ele><time>2026-05-02T15:24:19.998Z</time></trkpt><trkpt lat="45.622819857913925" lon="10.856584829520928"><ele>116.5</ele><time>2026-05-02T15:24:20.998Z</time></trkpt><trkpt lat="45.622681195690085" lon="10.856313906505195"><ele>113.0</ele><time>2026-05-02T15:24:21.998Z</time></trkpt><trkpt lat="45.62254568273527" lon="10.856037941513758"><ele>116.5</ele><time>2026-05-02T15:24:22.998Z</time></trkpt><trkpt lat="45.62241147437687" lon="10.855764636951672"><ele>120.0</ele><time>2026-05-02T15:24:23.998Z</time></trkpt><trkpt lat="45.62228367471447" lon="10.8555052698507"><ele>120.0</ele><time>2026-05-02T15:24:24.998Z</time></trkpt><trkpt lat="45.62215943877905" lon="10.855254596122192"><ele>120.0</ele><time>2026-05-02T15:24:25.999Z</time></trkpt><trkpt lat="45.62201077113521" lon="10.85501442184538"><ele>120.0</ele><time>2026-05-02T15:24:26.999Z</time></trkpt><trkpt lat="45.62183157323652" lon="10.854797600398632"><ele>115.5</ele><time>2026-05-02T15:24:27.999Z</time></trkpt><trkpt lat="45.621629189317154" lon="10.854590204316267"><ele>111.0</ele><time>2026-05-02T15:24:28.999Z</time></trkpt><trkpt lat="45.62142632488399" lon="10.854393871466138"><ele>109.0</ele><time>2026-05-02T15:24:29.999Z</time></trkpt><trkpt lat="45.62124521762652" lon="10.85419635287749"><ele>107.0</ele><time>2026-05-02T15:24:30.999Z</time></trkpt><trkpt lat="45.62106395819982" lon="10.853999807747925"><ele>107.0</ele><time>2026-05-02T15:24:31.999Z</time></trkpt><trkpt lat="45.620867642367706" lon="10.853830358525956"><ele>107.0</ele><time>2026-05-02T15:24:32.999Z</time></trkpt><trkpt lat="45.62064748668592" lon="10.853687851186962"><ele>107.0</ele><time>2026-05-02T15:24:33.999Z</time></trkpt><trkpt lat="45.620409688097645" lon="10.853556026739227"><ele>107.0</ele><time>2026-05-02T15:24:34.999Z</time></trkpt><trkpt lat="45.620161281590406" lon="10.853417687047287"><ele>109.5</ele><time>2026-05-02T15:24:35.999Z</time></trkpt><trkpt lat="45.61990139366126" lon="10.853268621283908"><ele>112.0</ele><time>2026-05-02T15:24:36.999Z</time></trkpt><trkpt lat="45.61964143768469" lon="10.853117885815635"><ele>107.0</ele><time>2026-05-02T15:24:37.999Z</time></trkpt><trkpt lat="45.619400381616735" lon="10.852978682879604"><ele>102.0</ele><time>2026-05-02T15:24:38.999Z</time></trkpt><trkpt lat="45.61917298933799" lon="10.852839508926941"><ele>102.0</ele><time>2026-05-02T15:24:39.999Z</time></trkpt><trkpt lat="45.618947474773954" lon="10.852731081678767"><ele>102.0</ele><time>2026-05-02T15:24:40.999Z</time></trkpt><trkpt lat="45.61871282033572" lon="10.85265063001524"><ele>111.5</ele><time>2026-05-02T15:24:41.999Z</time></trkpt><trkpt lat="45.618464210580235" lon="10.852622270896259"><ele>121.0</ele><time>2026-05-02T15:24:42.999Z</time></trkpt><trkpt lat="45.61820671222389" lon="10.852590063260445"><ele>121.0</ele><time>2026-05-02T15:24:43.999Z</time></trkpt><trkpt lat="45.61794070905188" lon="10.85251319796311"><ele>121.0</ele><time>2026-05-02T15:24:44.999Z</time></trkpt><trkpt lat="45.61766689675979" lon="10.85243137318224"><ele>114.0</ele><time>2026-05-02T15:24:45.999Z</time></trkpt><trkpt lat="45.61736072306776" lon="10.852352436160906"><ele>107.0</ele><time>2026-05-02T15:24:46.999Z</time></trkpt><trkpt lat="45.61705910920118" lon="10.852279027766178"><ele>105.5</ele><time>2026-05-02T15:24:47.999Z</time></trkpt><trkpt lat="45.61676883384019" lon="10.852202848926009"><ele>104.0</ele><time>2026-05-02T15:24:48.999Z</time></trkpt><trkpt lat="45.6164998140979" lon="10.852164819011387"><ele>104.0</ele><time>2026-05-02T15:24:49.999Z</time></trkpt><trkpt lat="45.6162347109389" lon="10.852148869977825"><ele>104.0</ele><time>2026-05-02T15:24:50.999Z</time></trkpt><trkpt lat="45.61595712891547" lon="10.852129551547964"><ele>104.0</ele><time>2026-05-02T15:24:51.999Z</time></trkpt><trkpt lat="45.61568158656827" lon="10.852090573589553"><ele>104.0</ele><time>2026-05-02T15:24:52.999Z</time></trkpt><trkpt lat="45.61540111347936" lon="10.852032156595481"><ele>104.5</ele><time>2026-05-02T15:24:53.999Z</time></trkpt><trkpt lat="45.61512293905842" lon="10.85196061650237"><ele>105.0</ele><time>2026-05-02T15:24:54.999Z</time></trkpt><trkpt lat="45.614869648493624" lon="10.85188935075837"><ele>105.0</ele><time>2026-05-02T15:24:55.999Z</time></trkpt><trkpt lat="45.614634919287155" lon="10.851821466795265"><ele>105.0</ele><time>2026-05-02T15:24:56.999Z</time></trkpt><trkpt lat="45.61439471687624" lon="10.851791815754149"><ele>107.5</ele><time>2026-05-02T15:24:57.999Z</time></trkpt><trkpt lat="45.61415509355424" lon="10.85177015695495"><ele>110.0</ele><time>2026-05-02T15:24:58.999Z</time></trkpt><trkpt lat="45.613937170711424" lon="10.851756465138278"><ele>110.0</ele><time>2026-05-02T15:24:59.999Z</time></trkpt><trkpt lat="45.613734856310366" lon="10.851741775891345"><ele>110.0</ele><time>2026-05-02T15:25:00.999Z</time></trkpt><trkpt lat="45.6135385634946" lon="10.851771893201768"><ele>110.0</ele><time>2026-05-02T15:25:01.999Z</time></trkpt><trkpt lat="45.61333493252765" lon="10.851859749034016"><ele>106.0</ele><time>2026-05-02T15:25:02.999Z</time></trkpt><trkpt lat="45.61308325563644" lon="10.85199165603916"><ele>102.0</ele><time>2026-05-02T15:25:03.999Z</time></trkpt><trkpt lat="45.612824680959335" lon="10.85211356938185"><ele>104.0</ele><time>2026-05-02T15:25:04.999Z</time></trkpt><trkpt lat="45.61259224494729" lon="10.852210124204662"><ele>106.0</ele><time>2026-05-02T15:25:05.999Z</time></trkpt><trkpt lat="45.612376589344436" lon="10.852299034639309"><ele>106.0</ele><time>2026-05-02T15:25:06.999Z</time></trkpt><trkpt lat="45.612158625145845" lon="10.852404478474824"><ele>106.0</ele><time>2026-05-02T15:25:07.999Z</time></trkpt><trkpt lat="45.61194240349057" lon="10.852498162919312"><ele>106.66666666666667</ele><time>2026-05-02T15:25:08.999Z</time></trkpt><trkpt lat="45.61174451234822" lon="10.852603500670513"><ele>107.33333333333334</ele><time>2026-05-02T15:25:09.999Z</time></trkpt><trkpt lat="45.611543926090405" lon="10.852616089910658"><ele>108.0</ele><time>2026-05-02T15:25:10.999Z</time></trkpt><trkpt lat="45.611359869682374" lon="10.852569653376214"><ele>108.0</ele><time>2026-05-02T15:25:11.999Z</time></trkpt><trkpt lat="45.611186549847545" lon="10.852460547539971"><ele>108.0</ele><time>2026-05-02T15:25:12.999Z</time></trkpt><trkpt lat="45.6110089716734" lon="10.85231143668353"><ele>108.0</ele><time>2026-05-02T15:25:13.999Z</time></trkpt><trkpt lat="45.61082197925309" lon="10.852166977942069"><ele>109.0</ele><time>2026-05-02T15:25:14.999Z</time></trkpt><trkpt lat="45.61064357525844" lon="10.852019580792284"><ele>110.0</ele><time>2026-05-02T15:25:15.999Z</time></trkpt><trkpt lat="45.61041881176968" lon="10.851858732099208"><ele>111.0</ele><time>2026-05-02T15:25:16.999Z</time></trkpt><trkpt lat="45.61018240850471" lon="10.851678378687327"><ele>112.0</ele><time>2026-05-02T15:25:17.999Z</time></trkpt><trkpt lat="45.60995764625969" lon="10.851524254122705"><ele>112.0</ele><time>2026-05-02T15:25:18.999Z</time></trkpt><trkpt lat="45.609745765768245" lon="10.85136221608993"><ele>112.0</ele><time>2026-05-02T15:25:19.999Z</time></trkpt><trkpt lat="45.60951951305262" lon="10.851210378758946"><ele>112.5</ele><time>2026-05-02T15:25:20.999Z</time></trkpt><trkpt lat="45.60924869076333" lon="10.851068602205029"><ele>113.0</ele><time>2026-05-02T15:25:21.999Z</time></trkpt><trkpt lat="45.608956359446836" lon="10.850934787958737"><ele>112.5</ele><time>2026-05-02T15:25:22.999Z</time></trkpt><trkpt lat="45.608688978240366" lon="10.850809236159062"><ele>112.0</ele><time>2026-05-02T15:25:23.999Z</time></trkpt><trkpt lat="45.60843208000015" lon="10.850686671357453"><ele>112.0</ele><time>2026-05-02T15:25:24.999Z</time></trkpt><trkpt lat="45.60817637688265" lon="10.850564517272268"><ele>112.0</ele><time>2026-05-02T15:25:25.999Z</time></trkpt><trkpt lat="45.60791726066881" lon="10.85044778187721"><ele>112.0</ele><time>2026-05-02T15:25:26.999Z</time></trkpt><trkpt lat="45.60766318675867" lon="10.850333803226476"><ele>112.0</ele><time>2026-05-02T15:25:27.999Z</time></trkpt><trkpt lat="45.60741969314134" lon="10.850217541635708"><ele>113.0</ele><time>2026-05-02T15:25:28.999Z</time></trkpt><trkpt lat="45.60718307178487" lon="10.850094317406938"><ele>114.0</ele><time>2026-05-02T15:25:29.999Z</time></trkpt><trkpt lat="45.60693612171532" lon="10.849939442963883"><ele>114.0</ele><time>2026-05-02T15:25:30.999Z</time></trkpt><trkpt lat="45.60669279542723" lon="10.849737041769945"><ele>114.0</ele><time>2026-05-02T15:25:31.999Z</time></trkpt><trkpt lat="45.606455803729915" lon="10.849517225112994"><ele>114.0</ele><time>2026-05-02T15:25:32.999Z</time></trkpt><trkpt lat="45.60622382402184" lon="10.849303461065444"><ele>114.0</ele><time>2026-05-02T15:25:33.999Z</time></trkpt><trkpt lat="45.605991915926204" lon="10.849104273182846"><ele>114.0</ele><time>2026-05-02T15:25:34.999Z</time></trkpt><trkpt lat="45.60576708925706" lon="10.848911343906511"><ele>114.0</ele><time>2026-05-02T15:25:35.999Z</time></trkpt><trkpt lat="45.605542567784845" lon="10.84871747619239"><ele>115.0</ele><time>2026-05-02T15:25:36.999Z</time></trkpt><trkpt lat="45.60531828070889" lon="10.84852413659113"><ele>116.0</ele><time>2026-05-02T15:25:37.999Z</time></trkpt><trkpt lat="45.60509225650324" lon="10.848322639760438"><ele>116.0</ele><time>2026-05-02T15:25:38.999Z</time></trkpt><trkpt lat="45.60486179005436" lon="10.848115458473726"><ele>116.0</ele><time>2026-05-02T15:25:39.999Z</time></trkpt><trkpt lat="45.60462116328809" lon="10.847902310081839"><ele>116.5</ele><time>2026-05-02T15:25:40.999Z</time></trkpt><trkpt lat="45.6043687086354" lon="10.847679905376566"><ele>117.0</ele><time>2026-05-02T15:25:41.999Z</time></trkpt><trkpt lat="45.60411498278207" lon="10.847451265756717"><ele>117.0</ele><time>2026-05-02T15:25:42.999Z</time></trkpt><trkpt lat="45.603857063109665" lon="10.847219879271373"><ele>117.0</ele><time>2026-05-02T15:25:43.999Z</time></trkpt><trkpt lat="45.603595762465616" lon="10.846993450490757"><ele>116.5</ele><time>2026-05-02T15:25:44.999Z</time></trkpt><trkpt lat="45.60333378754172" lon="10.846766056819106"><ele>116.0</ele><time>2026-05-02T15:25:45.999Z</time></trkpt><trkpt lat="45.60306980072755" lon="10.846536894201298"><ele>117.0</ele><time>2026-05-02T15:25:46.999Z</time></trkpt><trkpt lat="45.60280736891789" lon="10.846306198049563"><ele>118.0</ele><time>2026-05-02T15:25:47.999Z</time></trkpt><trkpt lat="45.602538736844345" lon="10.846082817356521"><ele>118.5</ele><time>2026-05-02T15:25:48.999Z</time></trkpt><trkpt lat="45.60226745355071" lon="10.845864242670515"><ele>119.0</ele><time>2026-05-02T15:25:49.999Z</time></trkpt><trkpt lat="45.601990968839395" lon="10.845648975830764"><ele>119.0</ele><time>2026-05-02T15:25:50.999Z</time></trkpt><trkpt lat="45.601716491186586" lon="10.84543307990308"><ele>119.0</ele><time>2026-05-02T15:25:51.999Z</time></trkpt><trkpt lat="45.601441939259715" lon="10.845223716097907"><ele>118.5</ele><time>2026-05-02T15:25:52.999Z</time></trkpt><trkpt lat="45.601173690798774" lon="10.845008469372582"><ele>118.0</ele><time>2026-05-02T15:25:53.999Z</time></trkpt><trkpt lat="45.600916899602424" lon="10.844780321419787"><ele>118.0</ele><time>2026-05-02T15:25:54.999Z</time></trkpt><trkpt lat="45.600681344738426" lon="10.844547191928408"><ele>118.0</ele><time>2026-05-02T15:25:55.999Z</time></trkpt><trkpt lat="45.60045482167385" lon="10.844334358324538"><ele>120.0</ele><time>2026-05-02T15:25:56.999Z</time></trkpt><trkpt lat="45.600208377737204" lon="10.844147676213009"><ele>122.0</ele><time>2026-05-02T15:25:57.999Z</time></trkpt><trkpt lat="45.59994943268478" lon="10.843971003896797"><ele>122.0</ele><time>2026-05-02T15:25:58.999Z</time></trkpt><trkpt lat="45.59969958836733" lon="10.843810942891722"><ele>122.0</ele><time>2026-05-02T15:25:59.999Z</time></trkpt><trkpt lat="45.599427737335375" lon="10.843616899923845"><ele>123.0</ele><time>2026-05-02T15:26:00.999Z</time></trkpt><trkpt lat="45.59918113369004" lon="10.84343841671275"><ele>124.0</ele><time>2026-05-02T15:26:01.999Z</time></trkpt><trkpt lat="45.598952054418234" lon="10.843270852319742"><ele>124.0</ele><time>2026-05-02T15:26:02.999Z</time></trkpt><trkpt lat="45.59872794703422" lon="10.843103297422319"><ele>124.0</ele><time>2026-05-02T15:26:03.999Z</time></trkpt><trkpt lat="45.59852449366547" lon="10.842961648086092"><ele>122.5</ele><time>2026-05-02T15:26:04.998Z</time></trkpt><trkpt lat="45.59831917296063" lon="10.84281632060387"><ele>121.0</ele><time>2026-05-02T15:26:05.998Z</time></trkpt><trkpt lat="45.598111108818756" lon="10.842677347317156"><ele>122.5</ele><time>2026-05-02T15:26:06.998Z</time></trkpt><trkpt lat="45.59790279383729" lon="10.84251826556486"><ele>124.0</ele><time>2026-05-02T15:26:07.998Z</time></trkpt><trkpt lat="45.597701492716226" lon="10.842338240832527"><ele>124.0</ele><time>2026-05-02T15:26:08.998Z</time></trkpt><trkpt lat="45.59752234152567" lon="10.842130730896981"><ele>124.0</ele><time>2026-05-02T15:26:09.998Z</time></trkpt><trkpt lat="45.59736319782387" lon="10.841876366919992"><ele>125.5</ele><time>2026-05-02T15:26:10.998Z</time></trkpt><trkpt lat="45.59720950327593" lon="10.841604465581948"><ele>127.0</ele><time>2026-05-02T15:26:11.998Z</time></trkpt><trkpt lat="45.59706876309158" lon="10.841339055617809"><ele>127.0</ele><time>2026-05-02T15:26:12.998Z</time></trkpt><trkpt lat="45.5969411112882" lon="10.841100156955475"><ele>127.0</ele><time>2026-05-02T15:26:13.998Z</time></trkpt><trkpt lat="45.59680771943829" lon="10.840872925249412"><ele>127.0</ele><time>2026-05-02T15:26:14.998Z</time></trkpt><trkpt lat="45.5966554914011" lon="10.840645116037793"><ele>127.0</ele><time>2026-05-02T15:26:15.998Z</time></trkpt><trkpt lat="45.59646534734911" lon="10.84043611898547"><ele>127.0</ele><time>2026-05-02T15:26:16.998Z</time></trkpt><trkpt lat="45.59624851950373" lon="10.84025735045481"><ele>127.5</ele><time>2026-05-02T15:26:17.998Z</time></trkpt><trkpt lat="45.59602754411545" lon="10.840090492809425"><ele>128.0</ele><time>2026-05-02T15:26:18.998Z</time></trkpt><trkpt lat="45.595823759973946" lon="10.839917802083951"><ele>128.0</ele><time>2026-05-02T15:26:19.998Z</time></trkpt><trkpt lat="45.59561449317393" lon="10.839736025268122"><ele>128.0</ele><time>2026-05-02T15:26:20.998Z</time></trkpt><trkpt lat="45.59540083672353" lon="10.839574828642375"><ele>128.0</ele><time>2026-05-02T15:26:21.998Z</time></trkpt><trkpt lat="45.595197826328935" lon="10.839432277652703"><ele>128.0</ele><time>2026-05-02T15:26:22.998Z</time></trkpt><trkpt lat="45.5950028062393" lon="10.839307067636417"><ele>128.0</ele><time>2026-05-02T15:26:23.998Z</time></trkpt><trkpt lat="45.59480210151817" lon="10.839182312233744"><ele>127.5</ele><time>2026-05-02T15:26:24.998Z</time></trkpt><trkpt lat="45.594592793288264" lon="10.83904783963978"><ele>127.0</ele><time>2026-05-02T15:26:25.998Z</time></trkpt><trkpt lat="45.59438392365766" lon="10.838915453249854"><ele>128.0</ele><time>2026-05-02T15:26:26.998Z</time></trkpt><trkpt lat="45.59416441148478" lon="10.838787498330637"><ele>129.0</ele><time>2026-05-02T15:26:27.998Z</time></trkpt><trkpt lat="45.593952481751565" lon="10.83866525681737"><ele>129.0</ele><time>2026-05-02T15:26:28.998Z</time></trkpt><trkpt lat="45.59374874653217" lon="10.838539862329556"><ele>129.0</ele><time>2026-05-02T15:26:29.998Z</time></trkpt><trkpt lat="45.593547343036356" lon="10.838415483280748"><ele>129.0</ele><time>2026-05-02T15:26:30.999Z</time></trkpt><trkpt lat="45.59334628368125" lon="10.838294467621308"><ele>128.33333333333334</ele><time>2026-05-02T15:26:31.998Z</time></trkpt><trkpt lat="45.593152541084606" lon="10.838182610273572"><ele>127.66666666666667</ele><time>2026-05-02T15:26:32.998Z</time></trkpt><trkpt lat="45.59297243023835" lon="10.83806769573683"><ele>127.0</ele><time>2026-05-02T15:26:33.998Z</time></trkpt><trkpt lat="45.59280383626984" lon="10.837963468753292"><ele>127.0</ele><time>2026-05-02T15:26:34.998Z</time></trkpt><trkpt lat="45.59265735584318" lon="10.837878313808408"><ele>127.0</ele><time>2026-05-02T15:26:35.998Z</time></trkpt><trkpt lat="45.59250072919919" lon="10.837779326503107"><ele>127.0</ele><time>2026-05-02T15:26:36.998Z</time></trkpt><trkpt lat="45.59233326605103" lon="10.837673410104092"><ele>126.33333333333334</ele><time>2026-05-02T15:26:37.998Z</time></trkpt><trkpt lat="45.59215894424732" lon="10.837565730392262"><ele>125.66666666666666</ele><time>2026-05-02T15:26:38.998Z</time></trkpt><trkpt lat="45.591977894500175" lon="10.837461538372656"><ele>125.0</ele><time>2026-05-02T15:26:39.998Z</time></trkpt><trkpt lat="45.591789071866316" lon="10.837366663450194"><ele>122.66666666666666</ele><time>2026-05-02T15:26:40.998Z</time></trkpt><trkpt lat="45.59158909627348" lon="10.83728168411371"><ele>120.33333333333334</ele><time>2026-05-02T15:26:41.998Z</time></trkpt><trkpt lat="45.59136504522286" lon="10.837204727139417"><ele>118.0</ele><time>2026-05-02T15:26:42.998Z</time></trkpt><trkpt lat="45.59110847937702" lon="10.837112161562521"><ele>113.0</ele><time>2026-05-02T15:26:43.998Z</time></trkpt><trkpt lat="45.59080373202576" lon="10.837022972765073"><ele>108.0</ele><time>2026-05-02T15:26:44.998Z</time></trkpt><trkpt lat="45.590499949892" lon="10.836902247255589"><ele>106.0</ele><time>2026-05-02T15:26:45.998Z</time></trkpt><trkpt lat="45.59019047077788" lon="10.836789166233311"><ele>104.0</ele><time>2026-05-02T15:26:46.998Z</time></trkpt><trkpt lat="45.58989241402805" lon="10.836658032531801"><ele>104.0</ele><time>2026-05-02T15:26:47.998Z</time></trkpt><trkpt lat="45.5896148191739" lon="10.836462320337203"><ele>104.0</ele><time>2026-05-02T15:26:48.998Z</time></trkpt><trkpt lat="45.58933418347406" lon="10.836214334060815"><ele>103.5</ele><time>2026-05-02T15:26:49.997Z</time></trkpt><trkpt lat="45.58903308192569" lon="10.835943868208517"><ele>103.0</ele><time>2026-05-02T15:26:50.997Z</time></trkpt><trkpt lat="45.5887182367339" lon="10.835663117681538"><ele>102.5</ele><time>2026-05-02T15:26:51.997Z</time></trkpt><trkpt lat="45.58841387722238" lon="10.8354100291981"><ele>102.0</ele><time>2026-05-02T15:26:52.997Z</time></trkpt><trkpt lat="45.58813742879134" lon="10.835186057610475"><ele>102.0</ele><time>2026-05-02T15:26:53.997Z</time></trkpt><trkpt lat="45.5878720463984" lon="10.834970242605339"><ele>102.0</ele><time>2026-05-02T15:26:54.997Z</time></trkpt><trkpt lat="45.58759580811811" lon="10.834709049551979"><ele>102.0</ele><time>2026-05-02T15:26:55.997Z</time></trkpt><trkpt lat="45.587304023376674" lon="10.834393806373567"><ele>102.0</ele><time>2026-05-02T15:26:56.997Z</time></trkpt><trkpt lat="45.58699653568485" lon="10.83405493635056"><ele>102.5</ele><time>2026-05-02T15:26:57.997Z</time></trkpt><trkpt lat="45.58667809175332" lon="10.833714898272289"><ele>103.0</ele><time>2026-05-02T15:26:58.997Z</time></trkpt><trkpt lat="45.58636887142765" lon="10.833384582803111"><ele>101.5</ele><time>2026-05-02T15:26:59.997Z</time></trkpt><trkpt lat="45.58606735411942" lon="10.833064333787204"><ele>100.0</ele><time>2026-05-02T15:27:00.997Z</time></trkpt><trkpt lat="45.58577386115893" lon="10.832753058411518"><ele>100.5</ele><time>2026-05-02T15:27:01.997Z</time></trkpt><trkpt lat="45.58550093732793" lon="10.832464613318791"><ele>101.0</ele><time>2026-05-02T15:27:02.997Z</time></trkpt><trkpt lat="45.58524456336585" lon="10.832193243795224"><ele>101.0</ele><time>2026-05-02T15:27:03.997Z</time></trkpt><trkpt lat="45.58500627226673" lon="10.8319368248665"><ele>101.0</ele><time>2026-05-02T15:27:04.997Z</time></trkpt><trkpt lat="45.584794387225216" lon="10.831713261821719"><ele>101.33333333333333</ele><time>2026-05-02T15:27:05.997Z</time></trkpt><trkpt lat="45.584627435066515" lon="10.83152544053146"><ele>101.66666666666666</ele><time>2026-05-02T15:27:06.997Z</time></trkpt><trkpt lat="45.58448958549131" lon="10.83133618694861"><ele>102.0</ele><time>2026-05-02T15:27:07.997Z</time></trkpt><trkpt lat="45.584407189337405" lon="10.831126200144162"><ele>100.66666666666666</ele><time>2026-05-02T15:27:08.997Z</time></trkpt><trkpt lat="45.584394659299264" lon="10.830877270281043"><ele>99.33333333333333</ele><time>2026-05-02T15:27:09.997Z</time></trkpt><trkpt lat="45.58437357147791" lon="10.830616075950264"><ele>98.0</ele><time>2026-05-02T15:27:10.997Z</time></trkpt><trkpt lat="45.58439457543538" lon="10.830349525331687"><ele>98.33333333333333</ele><time>2026-05-02T15:27:11.997Z</time></trkpt><trkpt lat="45.58445261708532" lon="10.830096316563427"><ele>98.66666666666666</ele><time>2026-05-02T15:27:12.997Z</time></trkpt><trkpt lat="45.58454911885912" lon="10.829845813872844"><ele>99.0</ele><time>2026-05-02T15:27:13.997Z</time></trkpt><trkpt lat="45.58467117416248" lon="10.82953899936766"><ele>99.5</ele><time>2026-05-02T15:27:14.997Z</time></trkpt><trkpt lat="45.58480702486631" lon="10.829200206231034"><ele>100.0</ele><time>2026-05-02T15:27:15.997Z</time></trkpt><trkpt lat="45.584930138499516" lon="10.828852273117906"><ele>100.0</ele><time>2026-05-02T15:27:16.997Z</time></trkpt><trkpt lat="45.58505315150203" lon="10.82853626451564"><ele>100.0</ele><time>2026-05-02T15:27:17.997Z</time></trkpt><trkpt lat="45.585173280355015" lon="10.828243100621126"><ele>99.33333333333334</ele><time>2026-05-02T15:27:18.997Z</time></trkpt><trkpt lat="45.585285240318434" lon="10.82796634046969"><ele>98.66666666666666</ele><time>2026-05-02T15:27:19.997Z</time></trkpt><trkpt lat="45.58538250516788" lon="10.827708800210237"><ele>98.0</ele><time>2026-05-02T15:27:20.997Z</time></trkpt><trkpt lat="45.58546242231187" lon="10.827458639632656"><ele>104.66666666666666</ele><time>2026-05-02T15:27:21.997Z</time></trkpt><trkpt lat="45.58552955079355" lon="10.827190907691875"><ele>111.33333333333334</ele><time>2026-05-02T15:27:22.997Z</time></trkpt><trkpt lat="45.585537428020444" lon="10.82691758167519"><ele>118.0</ele><time>2026-05-02T15:27:23.997Z</time></trkpt><trkpt lat="45.58551339131199" lon="10.826637157415744"><ele>115.66666666666667</ele><time>2026-05-02T15:27:24.997Z</time></trkpt><trkpt lat="45.585449991887266" lon="10.826356341817855"><ele>113.33333333333334</ele><time>2026-05-02T15:27:25.997Z</time></trkpt><trkpt lat="45.58534489154589" lon="10.826059973437458"><ele>111.0</ele><time>2026-05-02T15:27:26.997Z</time></trkpt><trkpt lat="45.58521750644911" lon="10.825745601480891"><ele>111.0</ele><time>2026-05-02T15:27:27.997Z</time></trkpt><trkpt lat="45.58509073607783" lon="10.825403736350664"><ele>111.0</ele><time>2026-05-02T15:27:28.997Z</time></trkpt><trkpt lat="45.584965981274856" lon="10.825067253189715"><ele>124.5</ele><time>2026-05-02T15:27:29.997Z</time></trkpt><trkpt lat="45.58485390491917" lon="10.824752661807283"><ele>138.0</ele><time>2026-05-02T15:27:30.997Z</time></trkpt><trkpt lat="45.58475425152293" lon="10.82446002870315"><ele>143.33333333333334</ele><time>2026-05-02T15:27:31.997Z</time></trkpt><trkpt lat="45.58466551506127" lon="10.82419562595232"><ele>148.66666666666669</ele><time>2026-05-02T15:27:32.997Z</time></trkpt><trkpt lat="45.58457957774847" lon="10.823979049613676"><ele>154.0</ele><time>2026-05-02T15:27:33.997Z</time></trkpt><trkpt lat="45.58448659467933" lon="10.823831361747967"><ele>139.0</ele><time>2026-05-02T15:27:34.997Z</time></trkpt><trkpt lat="45.584371232581205" lon="10.823720666548244"><ele>124.0</ele><time>2026-05-02T15:27:35.997Z</time></trkpt><trkpt lat="45.58422385304652" lon="10.82368211546015"><ele>109.0</ele><time>2026-05-02T15:27:36.997Z</time></trkpt><trkpt lat="45.584039705691076" lon="10.823647416755957"><ele>109.0</ele><time>2026-05-02T15:27:37.997Z</time></trkpt><trkpt lat="45.583825263784895" lon="10.82360287691461"><ele>109.0</ele><time>2026-05-02T15:27:38.997Z</time></trkpt><trkpt lat="45.58363291705031" lon="10.823552809263376"><ele>109.0</ele><time>2026-05-02T15:27:39.997Z</time></trkpt><trkpt lat="45.583472095832" lon="10.823505560358784"><ele>111.75</ele><time>2026-05-02T15:27:40.997Z</time></trkpt><trkpt lat="45.583350652177096" lon="10.823438363371249"><ele>114.5</ele><time>2026-05-02T15:27:41.997Z</time></trkpt><trkpt lat="45.58326107493781" lon="10.823325685935234"><ele>117.25</ele><time>2026-05-02T15:27:42.997Z</time></trkpt><trkpt lat="45.583195875022845" lon="10.82315132278821"><ele>120.0</ele><time>2026-05-02T15:27:43.997Z</time></trkpt><trkpt lat="45.58318109068044" lon="10.822929143790052"><ele>120.0</ele><time>2026-05-02T15:27:44.997Z</time></trkpt><trkpt lat="45.5831401861101" lon="10.822681152327718"><ele>120.0</ele><time>2026-05-02T15:27:45.997Z</time></trkpt><trkpt lat="45.58308884011699" lon="10.822418247409402"><ele>120.0</ele><time>2026-05-02T15:27:46.997Z</time></trkpt><trkpt lat="45.583043252511615" lon="10.822156444152238"><ele>121.0</ele><time>2026-05-02T15:27:47.997Z</time></trkpt><trkpt lat="45.58300992859526" lon="10.82189042645494"><ele>122.0</ele><time>2026-05-02T15:27:48.997Z</time></trkpt><trkpt lat="45.582953734191776" lon="10.821620773351052"><ele>123.0</ele><time>2026-05-02T15:27:49.997Z</time></trkpt><trkpt lat="45.58291097611122" lon="10.821357206382558"><ele>125.0</ele><time>2026-05-02T15:27:50.997Z</time></trkpt><trkpt lat="45.582869466317305" lon="10.821109724022053"><ele>127.0</ele><time>2026-05-02T15:27:51.997Z</time></trkpt><trkpt lat="45.58286981757548" lon="10.820869729028416"><ele>129.0</ele><time>2026-05-02T15:27:52.997Z</time></trkpt><trkpt lat="45.58288034634528" lon="10.820629624970438"><ele>130.5</ele><time>2026-05-02T15:27:53.997Z</time></trkpt><trkpt lat="45.58291903947087" lon="10.8204070021565"><ele>132.0</ele><time>2026-05-02T15:27:54.997Z</time></trkpt><trkpt lat="45.58296200746907" lon="10.820236064912836"><ele>133.5</ele><time>2026-05-02T15:27:55.997Z</time></trkpt><trkpt lat="45.583031357105774" lon="10.8201081708896"><ele>135.0</ele><time>2026-05-02T15:27:56.997Z</time></trkpt><trkpt lat="45.583121666645226" lon="10.819995896842348"><ele>136.0</ele><time>2026-05-02T15:27:57.997Z</time></trkpt><trkpt lat="45.58320871220594" lon="10.819859645239342"><ele>137.0</ele><time>2026-05-02T15:27:58.997Z</time></trkpt><trkpt lat="45.58327137633721" lon="10.819700259022127"><ele>138.0</ele><time>2026-05-02T15:27:59.997Z</time></trkpt><trkpt lat="45.58332384216395" lon="10.819506304858754"><ele>139.0</ele><time>2026-05-02T15:28:00.997Z</time></trkpt><trkpt lat="45.58336661606363" lon="10.819308819818785"><ele>140.75</ele><time>2026-05-02T15:28:01.997Z</time></trkpt><trkpt lat="45.58337367143254" lon="10.8191157132295"><ele>142.5</ele><time>2026-05-02T15:28:02.997Z</time></trkpt><trkpt lat="45.58334169279691" lon="10.818951785409084"><ele>144.25</ele><time>2026-05-02T15:28:03.997Z</time></trkpt><trkpt lat="45.58333059132373" lon="10.818749801454544"><ele>146.0</ele><time>2026-05-02T15:28:04.997Z</time></trkpt><trkpt lat="45.583320441791244" lon="10.81858863739431"><ele>146.0</ele><time>2026-05-02T15:28:05.997Z</time></trkpt><trkpt lat="45.58336465884764" lon="10.81845869309966"><ele>146.0</ele><time>2026-05-02T15:28:06.997Z</time></trkpt><trkpt lat="45.58344660959" lon="10.818483801915342"><ele>146.0</ele><time>2026-05-02T15:28:07.997Z</time></trkpt><trkpt lat="45.5835597944509" lon="10.818601598429906"><ele>146.0</ele><time>2026-05-02T15:28:09.997Z</time></trkpt><trkpt lat="45.58358721199665" lon="10.81876957336734"><ele>146.0</ele><time>2026-05-02T15:28:10.997Z</time></trkpt><trkpt lat="45.58361504654849" lon="10.818945679859828"><ele>146.0</ele><time>2026-05-02T15:28:11.997Z</time></trkpt><trkpt lat="45.58364002243271" lon="10.819132413927923"><ele>146.0</ele><time>2026-05-02T15:28:12.997Z</time></trkpt><trkpt lat="45.583672591695624" lon="10.819310056657226"><ele>146.0</ele><time>2026-05-02T15:28:13.997Z</time></trkpt><trkpt lat="45.58368496857232" lon="10.819419107039618"><ele>146.0</ele><time>2026-05-02T15:28:14.997Z</time></trkpt><trkpt lat="45.58371203111945" lon="10.819550680917796"><ele>146.0</ele><time>2026-05-02T15:28:15.997Z</time></trkpt><trkpt lat="45.583749085603415" lon="10.81969683177889"><ele>146.6</ele><time>2026-05-02T15:28:16.997Z</time></trkpt><trkpt lat="45.58380697417285" lon="10.819831916405546"><ele>147.2</ele><time>2026-05-02T15:28:17.997Z</time></trkpt><trkpt lat="45.583870244150646" lon="10.819977905784482"><ele>147.8</ele><time>2026-05-02T15:28:18.997Z</time></trkpt><trkpt lat="45.58392952818033" lon="10.82009687960391"><ele>148.4</ele><time>2026-05-02T15:28:19.997Z</time></trkpt><trkpt lat="45.58397987890799" lon="10.820192996110077"><ele>149.0</ele><time>2026-05-02T15:28:20.997Z</time></trkpt><trkpt lat="45.58402496909987" lon="10.820290362183604"><ele>149.0</ele><time>2026-05-02T15:28:21.997Z</time></trkpt><trkpt lat="45.58408491091617" lon="10.820370340752374"><ele>149.0</ele><time>2026-05-02T15:28:22.996Z</time></trkpt><trkpt lat="45.584201672419866" lon="10.820429733008767"><ele>149.0</ele><time>2026-05-02T15:28:24.996Z</time></trkpt><trkpt lat="45.58430107396423" lon="10.820328707720305"><ele>149.0</ele><time>2026-05-02T15:28:26.997Z</time></trkpt><trkpt lat="45.584334317551665" lon="10.820236124215436"><ele>149.0</ele><time>2026-05-02T15:28:27.997Z</time></trkpt><trkpt lat="45.58434378811133" lon="10.820130774411696"><ele>151.4</ele><time>2026-05-02T15:28:28.997Z</time></trkpt><trkpt lat="45.584323379478626" lon="10.819973190798034"><ele>153.8</ele><time>2026-05-02T15:28:29.997Z</time></trkpt><trkpt lat="45.58429325122389" lon="10.819858799947571"><ele>156.20000000000002</ele><time>2026-05-02T15:28:30.997Z</time></trkpt><trkpt lat="45.58426095247597" lon="10.819738044077658"><ele>158.60000000000002</ele><time>2026-05-02T15:28:31.997Z</time></trkpt><trkpt lat="45.58423365316545" lon="10.819624877369494"><ele>161.0</ele><time>2026-05-02T15:28:32.997Z</time></trkpt><trkpt lat="45.58421223751738" lon="10.819515366773992"><ele>161.0</ele><time>2026-05-02T15:28:33.997Z</time></trkpt><trkpt lat="45.584191314163235" lon="10.81940256687059"><ele>161.0</ele><time>2026-05-02T15:28:34.997Z</time></trkpt><trkpt lat="45.584168629882484" lon="10.819288304560065"><ele>161.0</ele><time>2026-05-02T15:28:35.998Z</time></trkpt><trkpt lat="45.58414277995846" lon="10.819163986519497"><ele>161.0</ele><time>2026-05-02T15:28:36.998Z</time></trkpt><trkpt lat="45.584123274027846" lon="10.819027679194608"><ele>161.0</ele><time>2026-05-02T15:28:37.998Z</time></trkpt><trkpt lat="45.584113480063984" lon="10.818877092898928"><ele>162.0</ele><time>2026-05-02T15:28:38.998Z</time></trkpt><trkpt lat="45.58411877441657" lon="10.818709836064981"><ele>163.0</ele><time>2026-05-02T15:28:39.998Z</time></trkpt><trkpt lat="45.584134127216046" lon="10.818538312732768"><ele>164.0</ele><time>2026-05-02T15:28:40.998Z</time></trkpt><trkpt lat="45.58415031569667" lon="10.818378356138163"><ele>165.0</ele><time>2026-05-02T15:28:41.998Z</time></trkpt><trkpt lat="45.58416773782719" lon="10.81823576746916"><ele>165.6</ele><time>2026-05-02T15:28:42.998Z</time></trkpt><trkpt lat="45.58418036866608" lon="10.818082915936742"><ele>166.2</ele><time>2026-05-02T15:28:43.998Z</time></trkpt><trkpt lat="45.58418978750266" lon="10.817934716289528"><ele>166.8</ele><time>2026-05-02T15:28:44.998Z</time></trkpt><trkpt lat="45.58419426620954" lon="10.817792342338182"><ele>167.4</ele><time>2026-05-02T15:28:45.998Z</time></trkpt><trkpt lat="45.58418835487042" lon="10.817648146467365"><ele>168.0</ele><time>2026-05-02T15:28:46.998Z</time></trkpt><trkpt lat="45.584186086140456" lon="10.817503201719115"><ele>168.8</ele><time>2026-05-02T15:28:47.998Z</time></trkpt><trkpt lat="45.58419215106761" lon="10.817361098798575"><ele>169.60000000000002</ele><time>2026-05-02T15:28:48.999Z</time></trkpt><trkpt lat="45.584205410405914" lon="10.817212108114097"><ele>170.39999999999998</ele><time>2026-05-02T15:28:49.999Z</time></trkpt><trkpt lat="45.58423425380707" lon="10.817048640311647"><ele>171.2</ele><time>2026-05-02T15:28:50.999Z</time></trkpt><trkpt lat="45.584275848538795" lon="10.81689824748574"><ele>172.0</ele><time>2026-05-02T15:28:51.999Z</time></trkpt><trkpt lat="45.58434018997877" lon="10.816741164133525"><ele>172.0</ele><time>2026-05-02T15:28:52.999Z</time></trkpt><trkpt lat="45.58443560798575" lon="10.8165743646467"><ele>172.0</ele><time>2026-05-02T15:28:53.999Z</time></trkpt><trkpt lat="45.584530789641235" lon="10.816421542237325"><ele>172.0</ele><time>2026-05-02T15:28:54.999Z</time></trkpt><trkpt lat="45.584615313700105" lon="10.816279013566877"><ele>172.0</ele><time>2026-05-02T15:28:55.999Z</time></trkpt><trkpt lat="45.584692530006464" lon="10.816134667760904"><ele>174.25</ele><time>2026-05-02T15:28:56.999Z</time></trkpt><trkpt lat="45.584778596444394" lon="10.81600633616346"><ele>176.5</ele><time>2026-05-02T15:28:57.999Z</time></trkpt><trkpt lat="45.58484480792327" lon="10.815849469800337"><ele>178.75</ele><time>2026-05-02T15:28:58.999Z</time></trkpt><trkpt lat="45.58488170042191" lon="10.815666443490988"><ele>181.0</ele><time>2026-05-02T15:28:59.999Z</time></trkpt><trkpt lat="45.58491609866247" lon="10.815475798536994"><ele>181.0</ele><time>2026-05-02T15:29:00.999Z</time></trkpt><trkpt lat="45.584946739223504" lon="10.815278455862886"><ele>181.0</ele><time>2026-05-02T15:29:01.999Z</time></trkpt><trkpt lat="45.58497167702048" lon="10.815085683009455"><ele>181.0</ele><time>2026-05-02T15:29:02.999Z</time></trkpt><trkpt lat="45.58498712956591" lon="10.81489884276367"><ele>181.0</ele><time>2026-05-02T15:29:03.999Z</time></trkpt><trkpt lat="45.58497911976625" lon="10.81471793202328"><ele>181.0</ele><time>2026-05-02T15:29:04.999Z</time></trkpt><trkpt lat="45.58493283764558" lon="10.814532707223416"><ele>181.0</ele><time>2026-05-02T15:29:05.999Z</time></trkpt><trkpt lat="45.584869049867585" lon="10.814300195965442"><ele>181.0</ele><time>2026-05-02T15:29:06.999Z</time></trkpt><trkpt lat="45.58477457473321" lon="10.814006408405863"><ele>183.0</ele><time>2026-05-02T15:29:07.999Z</time></trkpt><trkpt lat="45.58464992716583" lon="10.813678501606478"><ele>185.0</ele><time>2026-05-02T15:29:08.999Z</time></trkpt><trkpt lat="45.58455611760329" lon="10.813348701482258"><ele>184.66666666666666</ele><time>2026-05-02T15:29:09.999Z</time></trkpt><trkpt lat="45.58450244022106" lon="10.813037011142166"><ele>184.33333333333334</ele><time>2026-05-02T15:29:10.999Z</time></trkpt><trkpt lat="45.58447963185707" lon="10.81274042087381"><ele>184.0</ele><time>2026-05-02T15:29:11.999Z</time></trkpt><trkpt lat="45.58450107206046" lon="10.81245174639255"><ele>185.0</ele><time>2026-05-02T15:29:12.999Z</time></trkpt><trkpt lat="45.58454033955374" lon="10.812153532378701"><ele>186.0</ele><time>2026-05-02T15:29:13.999Z</time></trkpt><trkpt lat="45.58457880172648" lon="10.811873762481143"><ele>187.0</ele><time>2026-05-02T15:29:14.999Z</time></trkpt><trkpt lat="45.584609767688775" lon="10.81161191577899"><ele>187.33333333333334</ele><time>2026-05-02T15:29:15.999Z</time></trkpt><trkpt lat="45.58463973444096" lon="10.811346265887995"><ele>187.66666666666666</ele><time>2026-05-02T15:29:16.999Z</time></trkpt><trkpt lat="45.584657099340895" lon="10.81109323470787"><ele>188.0</ele><time>2026-05-02T15:29:17.999Z</time></trkpt><trkpt lat="45.58466192144656" lon="10.810857556280073"><ele>188.0</ele><time>2026-05-02T15:29:18.999Z</time></trkpt><trkpt lat="45.584664044137895" lon="10.810641905358219"><ele>188.0</ele><time>2026-05-02T15:29:19.999Z</time></trkpt><trkpt lat="45.584658097116" lon="10.810515459247254"><ele>188.0</ele><time>2026-05-02T15:29:20.999Z</time></trkpt><trkpt lat="45.58470581240823" lon="10.810343413552445"><ele>188.0</ele><time>2026-05-02T15:29:22.999Z</time></trkpt><trkpt lat="45.5847146648806" lon="10.810244969364177"><ele>188.0</ele><time>2026-05-02T15:29:23.999Z</time></trkpt><trkpt lat="45.584678491759455" lon="10.810122501729344"><ele>188.0</ele><time>2026-05-02T15:29:24.999Z</time></trkpt><trkpt lat="45.58458833121292" lon="10.80995834754442"><ele>188.0</ele><time>2026-05-02T15:29:25.999Z</time></trkpt><trkpt lat="45.58448431454565" lon="10.809813544795878"><ele>188.0</ele><time>2026-05-02T15:29:26.999Z</time></trkpt><trkpt lat="45.58435856453859" lon="10.809679455778896"><ele>188.0</ele><time>2026-05-02T15:29:27.999Z</time></trkpt><trkpt lat="45.58419958149145" lon="10.809574777960055"><ele>188.0</ele><time>2026-05-02T15:29:28.999Z</time></trkpt><trkpt lat="45.58404320419823" lon="10.809475904458443"><ele>188.0</ele><time>2026-05-02T15:29:29.999Z</time></trkpt><trkpt lat="45.58390303774323" lon="10.809379470455744"><ele>188.0</ele><time>2026-05-02T15:29:30.999Z</time></trkpt><trkpt lat="45.58375623117114" lon="10.809281270826949"><ele>187.0</ele><time>2026-05-02T15:29:31.999Z</time></trkpt><trkpt lat="45.58361263939439" lon="10.8091758436363"><ele>186.0</ele><time>2026-05-02T15:29:32.999Z</time></trkpt><trkpt lat="45.5834635289738" lon="10.80906853568261"><ele>185.0</ele><time>2026-05-02T15:29:33.999Z</time></trkpt><trkpt lat="45.58330768330391" lon="10.808961365435747"><ele>185.0</ele><time>2026-05-02T15:29:34.999Z</time></trkpt><trkpt lat="45.58314214699797" lon="10.80884635712437"><ele>185.0</ele><time>2026-05-02T15:29:35.999Z</time></trkpt><trkpt lat="45.58297674671199" lon="10.808724864483573"><ele>185.0</ele><time>2026-05-02T15:29:36.999Z</time></trkpt><trkpt lat="45.58281364948857" lon="10.808605720454816"><ele>185.33333333333331</ele><time>2026-05-02T15:29:37.999Z</time></trkpt><trkpt lat="45.5826370442144" lon="10.80849559954893"><ele>185.66666666666666</ele><time>2026-05-02T15:29:38.999Z</time></trkpt><trkpt lat="45.58244130647726" lon="10.80840391353785"><ele>186.0</ele><time>2026-05-02T15:29:39.999Z</time></trkpt><trkpt lat="45.58220615176672" lon="10.808330148989233"><ele>185.5</ele><time>2026-05-02T15:29:40.999Z</time></trkpt><trkpt lat="45.58193834256611" lon="10.808259929251792"><ele>185.0</ele><time>2026-05-02T15:29:41.999Z</time></trkpt><trkpt lat="45.58165402159779" lon="10.808186314477066"><ele>185.0</ele><time>2026-05-02T15:29:42.999Z</time></trkpt><trkpt lat="45.58138246239096" lon="10.808115388581717"><ele>185.0</ele><time>2026-05-02T15:29:43.999Z</time></trkpt><trkpt lat="45.58110959964672" lon="10.808037908862659"><ele>185.5</ele><time>2026-05-02T15:29:44.999Z</time></trkpt><trkpt lat="45.58083980832723" lon="10.807965147562511"><ele>186.0</ele><time>2026-05-02T15:29:45.999Z</time></trkpt><trkpt lat="45.58056592450735" lon="10.807892123794183"><ele>185.0</ele><time>2026-05-02T15:29:46.999Z</time></trkpt><trkpt lat="45.58029971970924" lon="10.807812996660896"><ele>184.0</ele><time>2026-05-02T15:29:47.999Z</time></trkpt><trkpt lat="45.58004282242772" lon="10.807714674724355"><ele>185.5</ele><time>2026-05-02T15:29:48.999Z</time></trkpt><trkpt lat="45.57979215111361" lon="10.807596679563675"><ele>187.0</ele><time>2026-05-02T15:29:49.999Z</time></trkpt><trkpt lat="45.57953714741283" lon="10.807463204469002"><ele>185.5</ele><time>2026-05-02T15:29:50.999Z</time></trkpt><trkpt lat="45.57928002799152" lon="10.807318240626653"><ele>184.0</ele><time>2026-05-02T15:29:51.999Z</time></trkpt><trkpt lat="45.57902628702857" lon="10.807164819105477"><ele>184.0</ele><time>2026-05-02T15:29:52.999Z</time></trkpt><trkpt lat="45.57878126454447" lon="10.806993057793546"><ele>184.0</ele><time>2026-05-02T15:29:53.999Z</time></trkpt><trkpt lat="45.57854363775057" lon="10.806799415541533"><ele>183.5</ele><time>2026-05-02T15:29:54.999Z</time></trkpt><trkpt lat="45.57831471533673" lon="10.806587399881998"><ele>183.0</ele><time>2026-05-02T15:29:55.999Z</time></trkpt><trkpt lat="45.57810415781653" lon="10.806369923562741"><ele>183.0</ele><time>2026-05-02T15:29:56.999Z</time></trkpt><trkpt lat="45.57790414958902" lon="10.806141616508702"><ele>183.0</ele><time>2026-05-02T15:29:57.999Z</time></trkpt><trkpt lat="45.577698068317986" lon="10.805912272133497"><ele>184.0</ele><time>2026-05-02T15:29:58.999Z</time></trkpt><trkpt lat="45.57748787398779" lon="10.805689652338572"><ele>185.0</ele><time>2026-05-02T15:29:59.999Z</time></trkpt><trkpt lat="45.57727655847801" lon="10.805466181472315"><ele>185.0</ele><time>2026-05-02T15:30:00.999Z</time></trkpt><trkpt lat="45.57706805717448" lon="10.805244200879923"><ele>185.0</ele><time>2026-05-02T15:30:01.999Z</time></trkpt><trkpt lat="45.576872027860986" lon="10.805031047339613"><ele>186.0</ele><time>2026-05-02T15:30:02.999Z</time></trkpt><trkpt lat="45.576690284140746" lon="10.804836346405668"><ele>187.0</ele><time>2026-05-02T15:30:03.999Z</time></trkpt><trkpt lat="45.57651984207472" lon="10.804652721097098"><ele>188.0</ele><time>2026-05-02T15:30:04.999Z</time></trkpt><trkpt lat="45.576357304369594" lon="10.80447587840736"><ele>188.0</ele><time>2026-05-02T15:30:05.999Z</time></trkpt><trkpt lat="45.576203755074715" lon="10.804311705988912"><ele>188.0</ele><time>2026-05-02T15:30:06.999Z</time></trkpt><trkpt lat="45.576062296800494" lon="10.80417338925419"><ele>188.0</ele><time>2026-05-02T15:30:07.999Z</time></trkpt><trkpt lat="45.5759231610986" lon="10.804062434539217"><ele>188.0</ele><time>2026-05-02T15:30:08.999Z</time></trkpt><trkpt lat="45.5757839160349" lon="10.803975165123813"><ele>188.0</ele><time>2026-05-02T15:30:09.999Z</time></trkpt><trkpt lat="45.57563681801537" lon="10.803910758243841"><ele>188.0</ele><time>2026-05-02T15:30:10.999Z</time></trkpt><trkpt lat="45.57548287339399" lon="10.803873091992966"><ele>188.60000000000002</ele><time>2026-05-02T15:30:11.999Z</time></trkpt><trkpt lat="45.57534273102159" lon="10.803859219562856"><ele>189.20000000000002</ele><time>2026-05-02T15:30:12.999Z</time></trkpt><trkpt lat="45.5752254221129" lon="10.803860986534303"><ele>189.8</ele><time>2026-05-02T15:30:13.999Z</time></trkpt><trkpt lat="45.57513227330574" lon="10.803875640152187"><ele>190.4</ele><time>2026-05-02T15:30:14.999Z</time></trkpt><trkpt lat="45.57506398856791" lon="10.803896889536123"><ele>191.0</ele><time>2026-05-02T15:30:15.999Z</time></trkpt><trkpt lat="45.57496299183372" lon="10.803925024574093"><ele>191.0</ele><time>2026-05-02T15:30:17.999Z</time></trkpt><trkpt lat="45.5748927519905" lon="10.803944708759268"><ele>191.0</ele><time>2026-05-02T15:30:19.999Z</time></trkpt><trkpt lat="45.57482031448687" lon="10.803970022297802"><ele>191.0</ele><time>2026-05-02T15:30:22.999Z</time></trkpt><trkpt lat="45.57474875501403" lon="10.804003257052726"><ele>191.0</ele><time>2026-05-02T15:30:24.999Z</time></trkpt><trkpt lat="45.574688803949066" lon="10.80403302687979"><ele>191.0</ele><time>2026-05-02T15:30:28.999Z</time></trkpt><trkpt lat="45.574598346400464" lon="10.804054387975148"><ele>191.0</ele><time>2026-05-02T15:30:32.999Z</time></trkpt><trkpt lat="45.574527316012464" lon="10.804072686735996"><ele>191.0</ele><time>2026-05-02T15:30:34.999Z</time></trkpt><trkpt lat="45.57446420026545" lon="10.804093438763767"><ele>191.60000000000002</ele><time>2026-05-02T15:30:36.999Z</time></trkpt><trkpt lat="45.574397461805056" lon="10.804052867616768"><ele>192.2</ele><time>2026-05-02T15:30:38.999Z</time></trkpt><trkpt lat="45.574309034316364" lon="10.80394622184751"><ele>192.8</ele><time>2026-05-02T15:30:40.999Z</time></trkpt><trkpt lat="45.57421558598766" lon="10.803836812299838"><ele>193.39999999999998</ele><time>2026-05-02T15:30:42.999Z</time></trkpt><trkpt lat="45.57410213449389" lon="10.803832428951873"><ele>194.0</ele><time>2026-05-02T15:30:44.999Z</time></trkpt><trkpt lat="45.57404645768387" lon="10.803879602183132"><ele>194.0</ele><time>2026-05-02T15:30:45.999Z</time></trkpt><trkpt lat="45.573927505099384" lon="10.803978344668888"><ele>194.0</ele><time>2026-05-02T15:30:47.999Z</time></trkpt><trkpt lat="45.573835239510345" lon="10.804009696564234"><ele>194.0</ele><time>2026-05-02T15:30:48.999Z</time></trkpt><trkpt lat="45.573728110580674" lon="10.804015934997171"><ele>194.0</ele><time>2026-05-02T15:30:49.999Z</time></trkpt><trkpt lat="45.57360248632927" lon="10.803991064202046"><ele>193.75</ele><time>2026-05-02T15:30:50.999Z</time></trkpt><trkpt lat="45.573467035040196" lon="10.803945320156046"><ele>193.5</ele><time>2026-05-02T15:30:51.999Z</time></trkpt><trkpt lat="45.57332764835758" lon="10.803886623900596"><ele>193.25</ele><time>2026-05-02T15:30:52.999Z</time></trkpt><trkpt lat="45.57318008897671" lon="10.803817173816308"><ele>193.0</ele><time>2026-05-02T15:30:53.999Z</time></trkpt><trkpt lat="45.57302746300554" lon="10.803746539483312"><ele>193.0</ele><time>2026-05-02T15:30:54.999Z</time></trkpt><trkpt lat="45.57288022807919" lon="10.803680079892926"><ele>193.0</ele><time>2026-05-02T15:30:55.999Z</time></trkpt><trkpt lat="45.572743212194" lon="10.803617632000503"><ele>193.0</ele><time>2026-05-02T15:30:56.999Z</time></trkpt><trkpt lat="45.57261577877227" lon="10.803555055442486"><ele>193.0</ele><time>2026-05-02T15:30:57.999Z</time></trkpt><trkpt lat="45.572482806764896" lon="10.803492713030241"><ele>193.33333333333331</ele><time>2026-05-02T15:30:58.999Z</time></trkpt><trkpt lat="45.572321301629934" lon="10.803430388834794"><ele>193.66666666666669</ele><time>2026-05-02T15:30:59.999Z</time></trkpt><trkpt lat="45.57213547830864" lon="10.803336276099639"><ele>194.0</ele><time>2026-05-02T15:31:00.999Z</time></trkpt><trkpt lat="45.571914515382495" lon="10.803270978062143"><ele>194.0</ele><time>2026-05-02T15:31:01.999Z</time></trkpt><trkpt lat="45.57172162659533" lon="10.803173878172801"><ele>194.0</ele><time>2026-05-02T15:31:02.999Z</time></trkpt><trkpt lat="45.57154338212709" lon="10.803081995426849"><ele>194.0</ele><time>2026-05-02T15:31:03.999Z</time></trkpt><trkpt lat="45.57137350207114" lon="10.802997910544503"><ele>194.0</ele><time>2026-05-02T15:31:04.999Z</time></trkpt><trkpt lat="45.57120450466501" lon="10.802920518016967"><ele>194.0</ele><time>2026-05-02T15:31:05.999Z</time></trkpt><trkpt lat="45.57102946042477" lon="10.802849218041816"><ele>194.0</ele><time>2026-05-02T15:31:06.999Z</time></trkpt><trkpt lat="45.5708483732021" lon="10.8027791223255"><ele>193.33333333333334</ele><time>2026-05-02T15:31:07.999Z</time></trkpt><trkpt lat="45.57066023328966" lon="10.802703248465674"><ele>192.66666666666669</ele><time>2026-05-02T15:31:08.999Z</time></trkpt><trkpt lat="45.57046100408045" lon="10.802625012292392"><ele>192.0</ele><time>2026-05-02T15:31:09.999Z</time></trkpt><trkpt lat="45.5702690565531" lon="10.802550489908473"><ele>192.0</ele><time>2026-05-02T15:31:10.999Z</time></trkpt><trkpt lat="45.57009087296222" lon="10.802483897281578"><ele>192.0</ele><time>2026-05-02T15:31:11.999Z</time></trkpt><trkpt lat="45.569928457790645" lon="10.802424549198557"><ele>192.0</ele><time>2026-05-02T15:31:12.999Z</time></trkpt><trkpt lat="45.56978544447539" lon="10.802370499630118"><ele>192.0</ele><time>2026-05-02T15:31:13.999Z</time></trkpt><trkpt lat="45.569648043397" lon="10.802309925179426"><ele>192.0</ele><time>2026-05-02T15:31:14.999Z</time></trkpt><trkpt lat="45.569510025303295" lon="10.802246954630393"><ele>192.0</ele><time>2026-05-02T15:31:15.999Z</time></trkpt><trkpt lat="45.56936785041072" lon="10.80218758837358"><ele>192.0</ele><time>2026-05-02T15:31:16.999Z</time></trkpt><trkpt lat="45.569219605384795" lon="10.80214426359947"><ele>191.66666666666666</ele><time>2026-05-02T15:31:17.999Z</time></trkpt><trkpt lat="45.569059464366696" lon="10.802119312282063"><ele>191.33333333333331</ele><time>2026-05-02T15:31:18.999Z</time></trkpt><trkpt lat="45.56884867359213" lon="10.802112554377509"><ele>191.0</ele><time>2026-05-02T15:31:19.999Z</time></trkpt><trkpt lat="45.56858480146743" lon="10.802117997796584"><ele>191.0</ele><time>2026-05-02T15:31:20.999Z</time></trkpt><trkpt lat="45.56827099459349" lon="10.802154977686284"><ele>191.0</ele><time>2026-05-02T15:31:21.999Z</time></trkpt><trkpt lat="45.56792338895142" lon="10.802205712506037"><ele>191.5</ele><time>2026-05-02T15:31:22.999Z</time></trkpt><trkpt lat="45.56760361101535" lon="10.802254652167981"><ele>192.0</ele><time>2026-05-02T15:31:23.999Z</time></trkpt><trkpt lat="45.56730672498251" lon="10.802295980112808"><ele>191.0</ele><time>2026-05-02T15:31:24.999Z</time></trkpt><trkpt lat="45.566961829379174" lon="10.802245985758422"><ele>190.0</ele><time>2026-05-02T15:31:25.999Z</time></trkpt><trkpt lat="45.566637954335576" lon="10.802204589526735"><ele>190.0</ele><time>2026-05-02T15:31:26.999Z</time></trkpt><trkpt lat="45.566326184656354" lon="10.802073823324928"><ele>190.0</ele><time>2026-05-02T15:31:27.999Z</time></trkpt><trkpt lat="45.566021952061156" lon="10.801989965825506"><ele>190.5</ele><time>2026-05-02T15:31:29Z</time></trkpt><trkpt lat="45.56575257556949" lon="10.801923095033413"><ele>191.0</ele><time>2026-05-02T15:31:30Z</time></trkpt><trkpt lat="45.56551072235939" lon="10.801880838224367"><ele>191.0</ele><time>2026-05-02T15:31:31Z</time></trkpt><trkpt lat="45.56528219411687" lon="10.801826165523568"><ele>191.0</ele><time>2026-05-02T15:31:32Z</time></trkpt><trkpt lat="45.56507050458416" lon="10.801772826593673"><ele>191.0</ele><time>2026-05-02T15:31:33Z</time></trkpt><trkpt lat="45.564873105708045" lon="10.80169468485997"><ele>191.0</ele><time>2026-05-02T15:31:34Z</time></trkpt><trkpt lat="45.56467873449293" lon="10.801588414128956"><ele>191.0</ele><time>2026-05-02T15:31:35Z</time></trkpt><trkpt lat="45.564479790818574" lon="10.80143754297551"><ele>191.0</ele><time>2026-05-02T15:31:36Z</time></trkpt><trkpt lat="45.5642737072692" lon="10.801280945344894"><ele>191.0</ele><time>2026-05-02T15:31:37Z</time></trkpt><trkpt lat="45.56408722499377" lon="10.80112671589191"><ele>191.0</ele><time>2026-05-02T15:31:38Z</time></trkpt><trkpt lat="45.56391201195244" lon="10.80097703468716"><ele>191.0</ele><time>2026-05-02T15:31:39Z</time></trkpt><trkpt lat="45.563757794099864" lon="10.800867884269621"><ele>191.0</ele><time>2026-05-02T15:31:40Z</time></trkpt><trkpt lat="45.56362962140858" lon="10.800758624395337"><ele>191.0</ele><time>2026-05-02T15:31:41Z</time></trkpt><trkpt lat="45.56351116203249" lon="10.800651433075384"><ele>191.0</ele><time>2026-05-02T15:31:42Z</time></trkpt><trkpt lat="45.5633913227798" lon="10.800564540390258"><ele>191.0</ele><time>2026-05-02T15:31:43Z</time></trkpt><trkpt lat="45.563264153004134" lon="10.800482577025614"><ele>191.0</ele><time>2026-05-02T15:31:44Z</time></trkpt><trkpt lat="45.563112785459595" lon="10.800402943138243"><ele>191.0</ele><time>2026-05-02T15:31:45Z</time></trkpt><trkpt lat="45.56294704213058" lon="10.800330867625762"><ele>191.0</ele><time>2026-05-02T15:31:46Z</time></trkpt><trkpt lat="45.56279750423003" lon="10.800277803088498"><ele>190.25</ele><time>2026-05-02T15:31:47Z</time></trkpt><trkpt lat="45.562661052901795" lon="10.800225449291803"><ele>189.5</ele><time>2026-05-02T15:31:48Z</time></trkpt><trkpt lat="45.56252616612315" lon="10.800191482532911"><ele>188.75</ele><time>2026-05-02T15:31:49Z</time></trkpt><trkpt lat="45.562385223687436" lon="10.800167156514574"><ele>188.0</ele><time>2026-05-02T15:31:50Z</time></trkpt><trkpt lat="45.562235145822804" lon="10.800147065431803"><ele>187.75</ele><time>2026-05-02T15:31:51Z</time></trkpt><trkpt lat="45.56208733635763" lon="10.800118211575331"><ele>187.5</ele><time>2026-05-02T15:31:52Z</time></trkpt><trkpt lat="45.56196891337374" lon="10.80009326414699"><ele>187.25</ele><time>2026-05-02T15:31:53Z</time></trkpt><trkpt lat="45.561839870092314" lon="10.800083487401166"><ele>187.0</ele><time>2026-05-02T15:31:54Z</time></trkpt><trkpt lat="45.56170202606879" lon="10.80007579876453"><ele>186.66666666666669</ele><time>2026-05-02T15:31:55Z</time></trkpt><trkpt lat="45.561553244995004" lon="10.80005574423485"><ele>186.33333333333334</ele><time>2026-05-02T15:31:56Z</time></trkpt><trkpt lat="45.561401736867936" lon="10.800039284967571"><ele>186.0</ele><time>2026-05-02T15:31:57Z</time></trkpt><trkpt lat="45.56125298058725" lon="10.800023468884756"><ele>185.66666666666666</ele><time>2026-05-02T15:31:58Z</time></trkpt><trkpt lat="45.56110610731364" lon="10.800005060075163"><ele>185.33333333333331</ele><time>2026-05-02T15:31:59Z</time></trkpt><trkpt lat="45.56095686628617" lon="10.799988161021835"><ele>185.0</ele><time>2026-05-02T15:32:00Z</time></trkpt><trkpt lat="45.56080418013441" lon="10.799974394584229"><ele>185.0</ele><time>2026-05-02T15:32:01Z</time></trkpt><trkpt lat="45.56062193320438" lon="10.799938647612574"><ele>185.0</ele><time>2026-05-02T15:32:02Z</time></trkpt><trkpt lat="45.56037608259862" lon="10.799911124070366"><ele>185.0</ele><time>2026-05-02T15:32:03Z</time></trkpt><trkpt lat="45.56010334865958" lon="10.79987820402017"><ele>185.0</ele><time>2026-05-02T15:32:04Z</time></trkpt><trkpt lat="45.559864119718796" lon="10.799868889343625"><ele>185.0</ele><time>2026-05-02T15:32:05Z</time></trkpt><trkpt lat="45.559658395741764" lon="10.799834753288053"><ele>185.0</ele><time>2026-05-02T15:32:06Z</time></trkpt><trkpt lat="45.559465540974394" lon="10.799838711785108"><ele>185.0</ele><time>2026-05-02T15:32:07Z</time></trkpt><trkpt lat="45.5592812761474" lon="10.799881758587512"><ele>185.0</ele><time>2026-05-02T15:32:08Z</time></trkpt><trkpt lat="45.559099043335415" lon="10.799989006611892"><ele>185.0</ele><time>2026-05-02T15:32:09Z</time></trkpt><trkpt lat="45.55892706560638" lon="10.800149643596361"><ele>185.0</ele><time>2026-05-02T15:32:10Z</time></trkpt><trkpt lat="45.55875372537808" lon="10.800366250896626"><ele>185.0</ele><time>2026-05-02T15:32:11Z</time></trkpt><trkpt lat="45.55858443202034" lon="10.800599836493156"><ele>185.0</ele><time>2026-05-02T15:32:12Z</time></trkpt><trkpt lat="45.55841260544611" lon="10.800791455166925"><ele>185.0</ele><time>2026-05-02T15:32:13Z</time></trkpt><trkpt lat="45.55819458006757" lon="10.800976604678835"><ele>185.5</ele><time>2026-05-02T15:32:14Z</time></trkpt><trkpt lat="45.55792797168508" lon="10.801207992306434"><ele>186.0</ele><time>2026-05-02T15:32:15Z</time></trkpt><trkpt lat="45.557658677231544" lon="10.801379197017736"><ele>184.5</ele><time>2026-05-02T15:32:16Z</time></trkpt><trkpt lat="45.55740182714408" lon="10.801588465398408"><ele>183.0</ele><time>2026-05-02T15:32:17Z</time></trkpt><trkpt lat="45.557090441742844" lon="10.80190263388569"><ele>181.5</ele><time>2026-05-02T15:32:18Z</time></trkpt><trkpt lat="45.55677078575085" lon="10.802223707792557"><ele>180.0</ele><time>2026-05-02T15:32:19Z</time></trkpt><trkpt lat="45.55645409624143" lon="10.802482183282432"><ele>179.0</ele><time>2026-05-02T15:32:20Z</time></trkpt><trkpt lat="45.55617858807992" lon="10.80272771579112"><ele>178.0</ele><time>2026-05-02T15:32:21Z</time></trkpt><trkpt lat="45.55594116823989" lon="10.802943799054361"><ele>178.0</ele><time>2026-05-02T15:32:22Z</time></trkpt><trkpt lat="45.55573662387602" lon="10.803132319748801"><ele>178.0</ele><time>2026-05-02T15:32:23Z</time></trkpt><trkpt lat="45.55553243630587" lon="10.803310597963378"><ele>178.0</ele><time>2026-05-02T15:32:24Z</time></trkpt><trkpt lat="45.555327709150546" lon="10.803463466057368"><ele>178.0</ele><time>2026-05-02T15:32:25Z</time></trkpt><trkpt lat="45.555113306600184" lon="10.803559729413092"><ele>178.0</ele><time>2026-05-02T15:32:26Z</time></trkpt><trkpt lat="45.55490277246171" lon="10.80360795757319"><ele>178.0</ele><time>2026-05-02T15:32:27Z</time></trkpt><trkpt lat="45.55468797807795" lon="10.803608418246247"><ele>178.0</ele><time>2026-05-02T15:32:28Z</time></trkpt><trkpt lat="45.554466662782964" lon="10.803584257782923"><ele>176.5</ele><time>2026-05-02T15:32:29Z</time></trkpt><trkpt lat="45.55424061842649" lon="10.803575413789448"><ele>175.0</ele><time>2026-05-02T15:32:30Z</time></trkpt><trkpt lat="45.554016190142804" lon="10.803562851996832"><ele>175.0</ele><time>2026-05-02T15:32:31Z</time></trkpt><trkpt lat="45.55379262675299" lon="10.803579272234531"><ele>175.0</ele><time>2026-05-02T15:32:32Z</time></trkpt><trkpt lat="45.55355672878254" lon="10.803621524717324"><ele>175.0</ele><time>2026-05-02T15:32:33Z</time></trkpt><trkpt lat="45.55331137339515" lon="10.80367556506622"><ele>175.0</ele><time>2026-05-02T15:32:34Z</time></trkpt><trkpt lat="45.553064429445456" lon="10.803723729023329"><ele>173.5</ele><time>2026-05-02T15:32:34.999Z</time></trkpt><trkpt lat="45.55282154752587" lon="10.803768884950955"><ele>172.0</ele><time>2026-05-02T15:32:35.999Z</time></trkpt><trkpt lat="45.55258951742745" lon="10.803810558534364"><ele>172.0</ele><time>2026-05-02T15:32:36.999Z</time></trkpt><trkpt lat="45.552374875099304" lon="10.803844829438631"><ele>172.0</ele><time>2026-05-02T15:32:37.999Z</time></trkpt><trkpt lat="45.552170910445525" lon="10.80387917809094"><ele>172.0</ele><time>2026-05-02T15:32:38.999Z</time></trkpt><trkpt lat="45.55197505180679" lon="10.803898342815975"><ele>172.33333333333334</ele><time>2026-05-02T15:32:39.999Z</time></trkpt><trkpt lat="45.551793860239" lon="10.803911312351087"><ele>172.66666666666666</ele><time>2026-05-02T15:32:40.999Z</time></trkpt><trkpt lat="45.55162598534242" lon="10.803921103148637"><ele>173.0</ele><time>2026-05-02T15:32:41.999Z</time></trkpt><trkpt lat="45.55147412802714" lon="10.803929667637155"><ele>173.0</ele><time>2026-05-02T15:32:42.999Z</time></trkpt><trkpt lat="45.55133820569402" lon="10.80393285466877"><ele>173.0</ele><time>2026-05-02T15:32:43.999Z</time></trkpt><trkpt lat="45.55121589916276" lon="10.80394293922294"><ele>173.0</ele><time>2026-05-02T15:32:44.999Z</time></trkpt><trkpt lat="45.55111371765391" lon="10.803944649372262"><ele>173.0</ele><time>2026-05-02T15:32:45.999Z</time></trkpt><trkpt lat="45.551023354860725" lon="10.803935738593744"><ele>172.66666666666666</ele><time>2026-05-02T15:32:46.999Z</time></trkpt><trkpt lat="45.55095108657184" lon="10.803907562414839"><ele>172.33333333333331</ele><time>2026-05-02T15:32:47.999Z</time></trkpt><trkpt lat="45.55087532154738" lon="10.803841395485598"><ele>172.0</ele><time>2026-05-02T15:32:49.999Z</time></trkpt><trkpt lat="45.55082485833574" lon="10.803786156283874"><ele>171.66666666666666</ele><time>2026-05-02T15:32:52.999Z</time></trkpt><trkpt lat="45.55077255779761" lon="10.803708826311581"><ele>171.33333333333334</ele><time>2026-05-02T15:32:56.999Z</time></trkpt><trkpt lat="45.55068975972962" lon="10.803636095503538"><ele>171.0</ele><time>2026-05-02T15:33:00.999Z</time></trkpt><trkpt lat="45.55062085933988" lon="10.803510108163998"><ele>170.8</ele><time>2026-05-02T15:33:02.999Z</time></trkpt><trkpt lat="45.550527590453896" lon="10.803455783481283"><ele>170.60000000000002</ele><time>2026-05-02T15:33:04.999Z</time></trkpt><trkpt lat="45.55041954261828" lon="10.803473919979687"><ele>170.4</ele><time>2026-05-02T15:33:07Z</time></trkpt><trkpt lat="45.5503633158378" lon="10.803527404426434"><ele>170.2</ele><time>2026-05-02T15:33:08Z</time></trkpt><trkpt lat="45.550283255646924" lon="10.803624207501572"><ele>170.0</ele><time>2026-05-02T15:33:09Z</time></trkpt><trkpt lat="45.5501849171681" lon="10.80373510367937"><ele>170.0</ele><time>2026-05-02T15:33:10Z</time></trkpt><trkpt lat="45.550049123485465" lon="10.80383560023759"><ele>170.0</ele><time>2026-05-02T15:33:11Z</time></trkpt><trkpt lat="45.54989063461165" lon="10.803904890672309"><ele>170.0</ele><time>2026-05-02T15:33:12Z</time></trkpt><trkpt lat="45.5497183935853" lon="10.803941340413273"><ele>169.33333333333331</ele><time>2026-05-02T15:33:13Z</time></trkpt><trkpt lat="45.54953107587848" lon="10.803949145655684"><ele>168.66666666666666</ele><time>2026-05-02T15:33:14Z</time></trkpt><trkpt lat="45.54932181515278" lon="10.803943814058586"><ele>168.0</ele><time>2026-05-02T15:33:15Z</time></trkpt><trkpt lat="45.54909066365749" lon="10.803912687579617"><ele>168.0</ele><time>2026-05-02T15:33:16Z</time></trkpt><trkpt lat="45.548830899125335" lon="10.803852357649038"><ele>168.0</ele><time>2026-05-02T15:33:17Z</time></trkpt><trkpt lat="45.54858207290321" lon="10.803776349648864"><ele>167.0</ele><time>2026-05-02T15:33:18Z</time></trkpt><trkpt lat="45.548356022391005" lon="10.803707691260767"><ele>166.0</ele><time>2026-05-02T15:33:19Z</time></trkpt><trkpt lat="45.54812718295763" lon="10.803640815909803"><ele>166.0</ele><time>2026-05-02T15:33:20Z</time></trkpt><trkpt lat="45.54789579724769" lon="10.803574133158682"><ele>166.0</ele><time>2026-05-02T15:33:21Z</time></trkpt><trkpt lat="45.5476590129836" lon="10.80350806455098"><ele>166.0</ele><time>2026-05-02T15:33:22Z</time></trkpt><trkpt lat="45.54741663503916" lon="10.803436319914804"><ele>166.0</ele><time>2026-05-02T15:33:23Z</time></trkpt><trkpt lat="45.54716534607424" lon="10.803360082105277"><ele>166.0</ele><time>2026-05-02T15:33:24Z</time></trkpt><trkpt lat="45.546893174517876" lon="10.803277027239329"><ele>166.0</ele><time>2026-05-02T15:33:25Z</time></trkpt><trkpt lat="45.54661451607405" lon="10.803188428039006"><ele>166.0</ele><time>2026-05-02T15:33:26Z</time></trkpt><trkpt lat="45.546352791604676" lon="10.803111813292603"><ele>166.0</ele><time>2026-05-02T15:33:27Z</time></trkpt><trkpt lat="45.54610633296354" lon="10.803040758149137"><ele>165.0</ele><time>2026-05-02T15:33:28Z</time></trkpt><trkpt lat="45.5458713944572" lon="10.802971461009099"><ele>164.0</ele><time>2026-05-02T15:33:29Z</time></trkpt><trkpt lat="45.545648036363765" lon="10.802903008709459"><ele>164.0</ele><time>2026-05-02T15:33:30Z</time></trkpt><trkpt lat="45.545448686857625" lon="10.802841979733671"><ele>164.0</ele><time>2026-05-02T15:33:31Z</time></trkpt><trkpt lat="45.54526787767087" lon="10.802787738971409"><ele>164.0</ele><time>2026-05-02T15:33:32Z</time></trkpt><trkpt lat="45.54510008582725" lon="10.80273573777729"><ele>163.66666666666666</ele><time>2026-05-02T15:33:33Z</time></trkpt><trkpt lat="45.54492828092867" lon="10.802686845581396"><ele>163.33333333333334</ele><time>2026-05-02T15:33:34Z</time></trkpt><trkpt lat="45.5447477471196" lon="10.802633047224639"><ele>163.0</ele><time>2026-05-02T15:33:35Z</time></trkpt><trkpt lat="45.544555997433115" lon="10.802574985778007"><ele>162.66666666666669</ele><time>2026-05-02T15:33:36Z</time></trkpt><trkpt lat="45.54435482676098" lon="10.802516694040602"><ele>162.33333333333334</ele><time>2026-05-02T15:33:37Z</time></trkpt><trkpt lat="45.544150352437654" lon="10.802460617357756"><ele>162.0</ele><time>2026-05-02T15:33:38Z</time></trkpt><trkpt lat="45.5439605638089" lon="10.802410938279024"><ele>162.0</ele><time>2026-05-02T15:33:39Z</time></trkpt><trkpt lat="45.54379463731617" lon="10.802371455941447"><ele>162.0</ele><time>2026-05-02T15:33:40Z</time></trkpt><trkpt lat="45.54364292281299" lon="10.80234494934905"><ele>162.0</ele><time>2026-05-02T15:33:41Z</time></trkpt><trkpt lat="45.543474230215246" lon="10.802325578183364"><ele>161.66666666666666</ele><time>2026-05-02T15:33:42Z</time></trkpt><trkpt lat="45.54328988053886" lon="10.8022886957689"><ele>161.33333333333331</ele><time>2026-05-02T15:33:43Z</time></trkpt><trkpt lat="45.543081719338794" lon="10.802235588334016"><ele>161.0</ele><time>2026-05-02T15:33:44Z</time></trkpt><trkpt lat="45.542877785353525" lon="10.802189190491964"><ele>160.0</ele><time>2026-05-02T15:33:45Z</time></trkpt><trkpt lat="45.542702047625745" lon="10.802151715887971"><ele>159.0</ele><time>2026-05-02T15:33:46Z</time></trkpt><trkpt lat="45.542545581494664" lon="10.802110641334933"><ele>158.0</ele><time>2026-05-02T15:33:47Z</time></trkpt><trkpt lat="45.54239040536419" lon="10.802055052825862"><ele>158.0</ele><time>2026-05-02T15:33:48Z</time></trkpt><trkpt lat="45.54224060481222" lon="10.801995377301612"><ele>158.0</ele><time>2026-05-02T15:33:49Z</time></trkpt><trkpt lat="45.54209964483128" lon="10.80193985364931"><ele>158.0</ele><time>2026-05-02T15:33:50Z</time></trkpt><trkpt lat="45.541975794408344" lon="10.8018921262337"><ele>158.0</ele><time>2026-05-02T15:33:51Z</time></trkpt><trkpt lat="45.54186052611565" lon="10.801846356108367"><ele>158.0</ele><time>2026-05-02T15:33:52Z</time></trkpt><trkpt lat="45.54174303861004" lon="10.80180643541529"><ele>158.0</ele><time>2026-05-02T15:33:53Z</time></trkpt><trkpt lat="45.54161629760665" lon="10.801775866372765"><ele>158.0</ele><time>2026-05-02T15:33:54Z</time></trkpt><trkpt lat="45.541497572223676" lon="10.80175753499638"><ele>158.0</ele><time>2026-05-02T15:33:55Z</time></trkpt><trkpt lat="45.54138166702913" lon="10.801740707364631"><ele>158.0</ele><time>2026-05-02T15:33:56Z</time></trkpt><trkpt lat="45.54125371663066" lon="10.801727558861986"><ele>158.0</ele><time>2026-05-02T15:33:57Z</time></trkpt><trkpt lat="45.541107927585514" lon="10.80173724849265"><ele>158.0</ele><time>2026-05-02T15:33:58Z</time></trkpt><trkpt lat="45.54092136201197" lon="10.801770111677365"><ele>158.5</ele><time>2026-05-02T15:33:59Z</time></trkpt><trkpt lat="45.540697579979025" lon="10.801797174698166"><ele>159.0</ele><time>2026-05-02T15:34:00Z</time></trkpt><trkpt lat="45.54044732748902" lon="10.801809927121537"><ele>157.5</ele><time>2026-05-02T15:34:01Z</time></trkpt><trkpt lat="45.540173692364576" lon="10.801801907918064"><ele>156.0</ele><time>2026-05-02T15:34:02Z</time></trkpt><trkpt lat="45.53988170754956" lon="10.801771146302146"><ele>156.0</ele><time>2026-05-02T15:34:03Z</time></trkpt><trkpt lat="45.53958691359468" lon="10.801735719967553"><ele>156.0</ele><time>2026-05-02T15:34:04Z</time></trkpt><trkpt lat="45.53929369743895" lon="10.80171198429815"><ele>155.0</ele><time>2026-05-02T15:34:05Z</time></trkpt><trkpt lat="45.53900531546832" lon="10.801704473617576"><ele>154.0</ele><time>2026-05-02T15:34:06Z</time></trkpt><trkpt lat="45.53871646866265" lon="10.801718937957807"><ele>153.0</ele><time>2026-05-02T15:34:07Z</time></trkpt><trkpt lat="45.53844255227959" lon="10.801752804590606"><ele>152.0</ele><time>2026-05-02T15:34:08Z</time></trkpt><trkpt lat="45.538161476349686" lon="10.801804039744894"><ele>150.5</ele><time>2026-05-02T15:34:09Z</time></trkpt><trkpt lat="45.53789806296449" lon="10.801857421620147"><ele>149.0</ele><time>2026-05-02T15:34:10Z</time></trkpt><trkpt lat="45.53764766734403" lon="10.801880314384208"><ele>149.0</ele><time>2026-05-02T15:34:11Z</time></trkpt><trkpt lat="45.537396288337575" lon="10.801919665864544"><ele>149.0</ele><time>2026-05-02T15:34:12Z</time></trkpt><trkpt lat="45.53714972924597" lon="10.801980361178673"><ele>148.0</ele><time>2026-05-02T15:34:13Z</time></trkpt><trkpt lat="45.53690252911011" lon="10.802019858314567"><ele>147.0</ele><time>2026-05-02T15:34:14Z</time></trkpt><trkpt lat="45.53666431897663" lon="10.802058052082764"><ele>147.0</ele><time>2026-05-02T15:34:15Z</time></trkpt><trkpt lat="45.53643185364081" lon="10.802085427776234"><ele>147.0</ele><time>2026-05-02T15:34:16Z</time></trkpt><trkpt lat="45.53619917623887" lon="10.802092411637965"><ele>146.5</ele><time>2026-05-02T15:34:17Z</time></trkpt><trkpt lat="45.53596507045597" lon="10.802062485437027"><ele>146.0</ele><time>2026-05-02T15:34:18Z</time></trkpt><trkpt lat="45.535742720207026" lon="10.802031672278796"><ele>146.0</ele><time>2026-05-02T15:34:19Z</time></trkpt><trkpt lat="45.535531756604996" lon="10.802000645222165"><ele>146.0</ele><time>2026-05-02T15:34:20Z</time></trkpt><trkpt lat="45.535336935460585" lon="10.801971992276302"><ele>146.0</ele><time>2026-05-02T15:34:21Z</time></trkpt><trkpt lat="45.53515533355373" lon="10.801946216921216"><ele>144.66666666666666</ele><time>2026-05-02T15:34:22Z</time></trkpt><trkpt lat="45.53497071628976" lon="10.801934408650979"><ele>143.33333333333334</ele><time>2026-05-02T15:34:23Z</time></trkpt><trkpt lat="45.53477845844214" lon="10.801905968632969"><ele>142.0</ele><time>2026-05-02T15:34:24Z</time></trkpt><trkpt lat="45.534585628769925" lon="10.801879986759815"><ele>141.66666666666669</ele><time>2026-05-02T15:34:25Z</time></trkpt><trkpt lat="45.53439484511031" lon="10.801855445524701"><ele>141.33333333333334</ele><time>2026-05-02T15:34:26Z</time></trkpt><trkpt lat="45.534205272230516" lon="10.801808653882928"><ele>141.0</ele><time>2026-05-02T15:34:27Z</time></trkpt><trkpt lat="45.53402715799616" lon="10.8017812012039"><ele>141.0</ele><time>2026-05-02T15:34:28Z</time></trkpt><trkpt lat="45.53384896199304" lon="10.801753735917742"><ele>141.0</ele><time>2026-05-02T15:34:29Z</time></trkpt><trkpt lat="45.53366933267898" lon="10.8017320689447"><ele>141.0</ele><time>2026-05-02T15:34:30Z</time></trkpt><trkpt lat="45.53350028744021" lon="10.80174542630363"><ele>141.25</ele><time>2026-05-02T15:34:31Z</time></trkpt><trkpt lat="45.53336757834919" lon="10.801735184623597"><ele>141.5</ele><time>2026-05-02T15:34:32Z</time></trkpt><trkpt lat="45.53323103317269" lon="10.801750759279207"><ele>141.75</ele><time>2026-05-02T15:34:33Z</time></trkpt><trkpt lat="45.53309200247953" lon="10.80177589254794"><ele>142.0</ele><time>2026-05-02T15:34:34Z</time></trkpt><trkpt lat="45.53295860052188" lon="10.801791538734186"><ele>141.75</ele><time>2026-05-02T15:34:35Z</time></trkpt><trkpt lat="45.53282273271531" lon="10.801808634229287"><ele>141.5</ele><time>2026-05-02T15:34:36Z</time></trkpt><trkpt lat="45.53269625213648" lon="10.801826992399047"><ele>141.25</ele><time>2026-05-02T15:34:37Z</time></trkpt><trkpt lat="45.53257717295515" lon="10.801840879703228"><ele>141.0</ele><time>2026-05-02T15:34:38Z</time></trkpt><trkpt lat="45.532459899004536" lon="10.801859516237844"><ele>139.25</ele><time>2026-05-02T15:34:39Z</time></trkpt><trkpt lat="45.53234087392983" lon="10.80187807296054"><ele>137.5</ele><time>2026-05-02T15:34:40Z</time></trkpt><trkpt lat="45.53221565408411" lon="10.801902024269147"><ele>135.75</ele><time>2026-05-02T15:34:40.999Z</time></trkpt><trkpt lat="45.53209138966756" lon="10.801928433861493"><ele>134.0</ele><time>2026-05-02T15:34:41.999Z</time></trkpt><trkpt lat="45.531969879108" lon="10.801966134276475"><ele>132.6</ele><time>2026-05-02T15:34:42.999Z</time></trkpt><trkpt lat="45.531854950160245" lon="10.8020180832459"><ele>131.2</ele><time>2026-05-02T15:34:43.999Z</time></trkpt><trkpt lat="45.53174973074513" lon="10.802079442733735"><ele>129.79999999999998</ele><time>2026-05-02T15:34:44.999Z</time></trkpt><trkpt lat="45.53164773524195" lon="10.802141794558596"><ele>128.4</ele><time>2026-05-02T15:34:45.999Z</time></trkpt><trkpt lat="45.53155321891831" lon="10.80219740784624"><ele>127.0</ele><time>2026-05-02T15:34:46.999Z</time></trkpt><trkpt lat="45.5314677733488" lon="10.802244351631815"><ele>127.0</ele><time>2026-05-02T15:34:47.999Z</time></trkpt><trkpt lat="45.53137849071676" lon="10.802258540159677"><ele>126.99999999999999</ele><time>2026-05-02T15:34:48.999Z</time></trkpt><trkpt lat="45.531282471986295" lon="10.802253610121976"><ele>126.99999999999999</ele><time>2026-05-02T15:34:49.999Z</time></trkpt><trkpt lat="45.531176627053355" lon="10.802219543789818"><ele>127.0</ele><time>2026-05-02T15:34:50.999Z</time></trkpt><trkpt lat="45.53105393503986" lon="10.80216088496216"><ele>127.0</ele><time>2026-05-02T15:34:51.999Z</time></trkpt><trkpt lat="45.530908649656745" lon="10.80207531836295"><ele>125.0</ele><time>2026-05-02T15:34:52.999Z</time></trkpt><trkpt lat="45.530741491965905" lon="10.801983416146072"><ele>123.0</ele><time>2026-05-02T15:34:53.999Z</time></trkpt><trkpt lat="45.53053717484602" lon="10.801865883421579"><ele>121.0</ele><time>2026-05-02T15:34:54.999Z</time></trkpt><trkpt lat="45.530348873139516" lon="10.801769155455073"><ele>121.0</ele><time>2026-05-02T15:34:55.999Z</time></trkpt><trkpt lat="45.53019352584109" lon="10.801707235388621"><ele>121.0</ele><time>2026-05-02T15:34:56.999Z</time></trkpt><trkpt lat="45.530065182897594" lon="10.801632995033897"><ele>121.0</ele><time>2026-05-02T15:34:57.999Z</time></trkpt><trkpt lat="45.529939475059415" lon="10.801572759322495"><ele>121.0</ele><time>2026-05-02T15:34:58.999Z</time></trkpt><trkpt lat="45.529816422977106" lon="10.801512678987557"><ele>121.0</ele><time>2026-05-02T15:34:59.999Z</time></trkpt><trkpt lat="45.529686241981146" lon="10.801447098537762"><ele>121.0</ele><time>2026-05-02T15:35:00.999Z</time></trkpt><trkpt lat="45.52955985241681" lon="10.801379435054109"><ele>121.0</ele><time>2026-05-02T15:35:01.999Z</time></trkpt><trkpt lat="45.529441664361734" lon="10.801321301406917"><ele>121.0</ele><time>2026-05-02T15:35:02.999Z</time></trkpt><trkpt lat="45.529327033217506" lon="10.801264902269638"><ele>118.75</ele><time>2026-05-02T15:35:03.999Z</time></trkpt><trkpt lat="45.52921834527737" lon="10.801208756201717"><ele>116.5</ele><time>2026-05-02T15:35:05Z</time></trkpt><trkpt lat="45.52911476754104" lon="10.801155679362871"><ele>114.25</ele><time>2026-05-02T15:35:06Z</time></trkpt><trkpt lat="45.52900517121732" lon="10.80110452520003"><ele>112.0</ele><time>2026-05-02T15:35:07Z</time></trkpt><trkpt lat="45.528893938761954" lon="10.80105035774459"><ele>112.0</ele><time>2026-05-02T15:35:08Z</time></trkpt><trkpt lat="45.528787580078294" lon="10.801001008475541"><ele>111.99999999999999</ele><time>2026-05-02T15:35:09Z</time></trkpt><trkpt lat="45.52868144711644" lon="10.800955914917925"><ele>111.99999999999999</ele><time>2026-05-02T15:35:10Z</time></trkpt><trkpt lat="45.52858572615207" lon="10.80091173977517"><ele>112.0</ele><time>2026-05-02T15:35:11Z</time></trkpt><trkpt lat="45.528488332137336" lon="10.800869148722992"><ele>112.0</ele><time>2026-05-02T15:35:12Z</time></trkpt><trkpt lat="45.528392964430104" lon="10.800831378591443"><ele>112.50000000000001</ele><time>2026-05-02T15:35:13Z</time></trkpt><trkpt lat="45.52830542003587" lon="10.800793752788612"><ele>113.0</ele><time>2026-05-02T15:35:14Z</time></trkpt><trkpt lat="45.528224746735845" lon="10.800759284352567"><ele>113.5</ele><time>2026-05-02T15:35:15Z</time></trkpt><trkpt lat="45.52814374813569" lon="10.800729732818374"><ele>114.0</ele><time>2026-05-02T15:35:16Z</time></trkpt><trkpt lat="45.52806247536378" lon="10.80070106762472"><ele>114.50000000000001</ele><time>2026-05-02T15:35:17Z</time></trkpt><trkpt lat="45.52798613504124" lon="10.800670249390826"><ele>115.0</ele><time>2026-05-02T15:35:18Z</time></trkpt><trkpt lat="45.527913571954954" lon="10.800636591066233"><ele>113.66666666666667</ele><time>2026-05-02T15:35:19Z</time></trkpt><trkpt lat="45.52783804518424" lon="10.800606652036743"><ele>112.33333333333334</ele><time>2026-05-02T15:35:20Z</time></trkpt><trkpt lat="45.52776154034598" lon="10.800579200805617"><ele>111.0</ele><time>2026-05-02T15:35:21Z</time></trkpt><trkpt lat="45.52768067754497" lon="10.800542531712493"><ele>109.66666666666666</ele><time>2026-05-02T15:35:22Z</time></trkpt><trkpt lat="45.527596580676224" lon="10.800502557443425"><ele>108.33333333333333</ele><time>2026-05-02T15:35:23Z</time></trkpt><trkpt lat="45.527505249052176" lon="10.800454853262504"><ele>107.0</ele><time>2026-05-02T15:35:24Z</time></trkpt><trkpt lat="45.52740725545748" lon="10.800411343233526"><ele>107.0</ele><time>2026-05-02T15:35:25Z</time></trkpt><trkpt lat="45.52731315571347" lon="10.80035250395176"><ele>106.99999999999999</ele><time>2026-05-02T15:35:26Z</time></trkpt><trkpt lat="45.52723078636127" lon="10.800290630168151"><ele>106.99999999999999</ele><time>2026-05-02T15:35:27Z</time></trkpt><trkpt lat="45.527140172141735" lon="10.800226643083088"><ele>107.0</ele><time>2026-05-02T15:35:28Z</time></trkpt><trkpt lat="45.52704860942846" lon="10.800176736033565"><ele>107.0</ele><time>2026-05-02T15:35:29Z</time></trkpt><trkpt lat="45.52695685141739" lon="10.800143711635013"><ele>105.8</ele><time>2026-05-02T15:35:30Z</time></trkpt><trkpt lat="45.52685475046661" lon="10.800132184979033"><ele>104.6</ele><time>2026-05-02T15:35:31Z</time></trkpt><trkpt lat="45.52675630040781" lon="10.800129647947095"><ele>103.39999999999999</ele><time>2026-05-02T15:35:32Z</time></trkpt><trkpt lat="45.52665802683196" lon="10.800130829322718"><ele>102.19999999999999</ele><time>2026-05-02T15:35:33Z</time></trkpt><trkpt lat="45.526556815901486" lon="10.800129824841056"><ele>101.0</ele><time>2026-05-02T15:35:34Z</time></trkpt><trkpt lat="45.526460243693194" lon="10.80012296006985"><ele>101.0</ele><time>2026-05-02T15:35:35Z</time></trkpt><trkpt lat="45.52636836658308" lon="10.8001217508132"><ele>101.0</ele><time>2026-05-02T15:35:36Z</time></trkpt><trkpt lat="45.52627483978188" lon="10.80015572269208"><ele>101.0</ele><time>2026-05-02T15:35:37Z</time></trkpt><trkpt lat="45.526177673798" lon="10.800211781071354"><ele>101.0</ele><time>2026-05-02T15:35:38Z</time></trkpt><trkpt lat="45.52608725963015" lon="10.80032762991118"><ele>101.0</ele><time>2026-05-02T15:35:39Z</time></trkpt><trkpt lat="45.52599577436917" lon="10.800474866990998"><ele>100.75</ele><time>2026-05-02T15:35:40Z</time></trkpt><trkpt lat="45.52590646216701" lon="10.800625601482306"><ele>100.5</ele><time>2026-05-02T15:35:41Z</time></trkpt><trkpt lat="45.52581178142051" lon="10.800769732255434"><ele>100.25</ele><time>2026-05-02T15:35:42Z</time></trkpt><trkpt lat="45.525723835563376" lon="10.800902851807791"><ele>100.0</ele><time>2026-05-02T15:35:43Z</time></trkpt><trkpt lat="45.52563272068685" lon="10.80102572819023"><ele>99.8</ele><time>2026-05-02T15:35:44Z</time></trkpt><trkpt lat="45.52554086873424" lon="10.801125844205492"><ele>99.6</ele><time>2026-05-02T15:35:45Z</time></trkpt><trkpt lat="45.52544116826987" lon="10.801215590337371"><ele>99.4</ele><time>2026-05-02T15:35:46Z</time></trkpt><trkpt lat="45.5253371154192" lon="10.801287923051037"><ele>99.2</ele><time>2026-05-02T15:35:47Z</time></trkpt><trkpt lat="45.52524912749565" lon="10.801350517441982"><ele>99.0</ele><time>2026-05-02T15:35:48Z</time></trkpt><trkpt lat="45.525170813549174" lon="10.801404253693082"><ele>99.0</ele><time>2026-05-02T15:35:49Z</time></trkpt><trkpt lat="45.525100339721384" lon="10.801456203488799"><ele>99.0</ele><time>2026-05-02T15:35:50Z</time></trkpt><trkpt lat="45.52503591486463" lon="10.80150640057895"><ele>99.0</ele><time>2026-05-02T15:35:51Z</time></trkpt><trkpt lat="45.52496698967234" lon="10.801554305280757"><ele>99.0</ele><time>2026-05-02T15:35:52Z</time></trkpt><trkpt lat="45.52488811391453" lon="10.801600753604882"><ele>99.0</ele><time>2026-05-02T15:35:53Z</time></trkpt><trkpt lat="45.52479800898969" lon="10.801649252654464"><ele>99.0</ele><time>2026-05-02T15:35:54Z</time></trkpt><trkpt lat="45.52470473133039" lon="10.801698451175461"><ele>99.0</ele><time>2026-05-02T15:35:55Z</time></trkpt><trkpt lat="45.524608905058194" lon="10.80174664519614"><ele>99.0</ele><time>2026-05-02T15:35:56Z</time></trkpt><trkpt lat="45.52451594815807" lon="10.801787798162746"><ele>99.0</ele><time>2026-05-02T15:35:57Z</time></trkpt><trkpt lat="45.52442438008809" lon="10.801828386262702"><ele>99.0</ele><time>2026-05-02T15:35:58Z</time></trkpt><trkpt lat="45.524333035840534" lon="10.80188807208896"><ele>99.0</ele><time>2026-05-02T15:35:59Z</time></trkpt><trkpt lat="45.52424602503564" lon="10.801975176522408"><ele>98.80000000000001</ele><time>2026-05-02T15:36:00Z</time></trkpt><trkpt lat="45.52416416661013" lon="10.802079701035124"><ele>98.60000000000001</ele><time>2026-05-02T15:36:01Z</time></trkpt><trkpt lat="45.524086120243446" lon="10.80219416416717"><ele>98.4</ele><time>2026-05-02T15:36:02Z</time></trkpt><trkpt lat="45.52401170100825" lon="10.802311013393902"><ele>98.2</ele><time>2026-05-02T15:36:03Z</time></trkpt><trkpt lat="45.52393752458844" lon="10.80241916436565"><ele>98.0</ele><time>2026-05-02T15:36:04Z</time></trkpt><trkpt lat="45.523855185384626" lon="10.802521579050897"><ele>98.0</ele><time>2026-05-02T15:36:05Z</time></trkpt><trkpt lat="45.523769133806766" lon="10.802614684137357"><ele>98.0</ele><time>2026-05-02T15:36:06Z</time></trkpt><trkpt lat="45.52367850081496" lon="10.802684476330283"><ele>98.0</ele><time>2026-05-02T15:36:07Z</time></trkpt><trkpt lat="45.523585015984054" lon="10.802696498765341"><ele>98.0</ele><time>2026-05-02T15:36:08Z</time></trkpt><trkpt lat="45.523510455377256" lon="10.802728824787755"><ele>98.0</ele><time>2026-05-02T15:36:09Z</time></trkpt><trkpt lat="45.52343236028843" lon="10.802715927414152"><ele>98.0</ele><time>2026-05-02T15:36:11Z</time></trkpt><trkpt lat="45.52336786102981" lon="10.802708946880582"><ele>98.0</ele><time>2026-05-02T15:36:13Z</time></trkpt><trkpt lat="45.523275725505655" lon="10.802722865669374"><ele>98.0</ele><time>2026-05-02T15:36:16Z</time></trkpt><trkpt lat="45.52320297987719" lon="10.802718155832096"><ele>98.0</ele><time>2026-05-02T15:36:18Z</time></trkpt><trkpt lat="45.5231353552855" lon="10.802756773359855"><ele>98.0</ele><time>2026-05-02T15:36:20Z</time></trkpt><trkpt lat="45.523061001403704" lon="10.80276711953529"><ele>98.0</ele><time>2026-05-02T15:36:23Z</time></trkpt><trkpt lat="45.52299649725311" lon="10.802780184804917"><ele>98.0</ele><time>2026-05-02T15:36:25Z</time></trkpt><trkpt lat="45.52290112598956" lon="10.802770023369403"><ele>97.80000000000001</ele><time>2026-05-02T15:36:27Z</time></trkpt><trkpt lat="45.52279561653411" lon="10.802740749009295"><ele>97.6</ele><time>2026-05-02T15:36:29Z</time></trkpt><trkpt lat="45.522712917169116" lon="10.802747620873811"><ele>97.4</ele><time>2026-05-02T15:36:31Z</time></trkpt><trkpt lat="45.52257811795421" lon="10.802736603850773"><ele>97.19999999999999</ele><time>2026-05-02T15:36:33Z</time></trkpt><trkpt lat="45.522457415738856" lon="10.802715837860301"><ele>97.0</ele><time>2026-05-02T15:36:34.001Z</time></trkpt><trkpt lat="45.52231365646173" lon="10.802669996328547"><ele>97.0</ele><time>2026-05-02T15:36:35.001Z</time></trkpt><trkpt lat="45.52215320312204" lon="10.80262190840751"><ele>97.0</ele><time>2026-05-02T15:36:36.001Z</time></trkpt><trkpt lat="45.52199830934387" lon="10.802591510360958"><ele>97.0</ele><time>2026-05-02T15:36:37.001Z</time></trkpt><trkpt lat="45.521857676969546" lon="10.802558567438084"><ele>97.0</ele><time>2026-05-02T15:36:38.001Z</time></trkpt><trkpt lat="45.521725806052984" lon="10.80252800056496"><ele>97.0</ele><time>2026-05-02T15:36:39.001Z</time></trkpt><trkpt lat="45.521606353644636" lon="10.802501286132005"><ele>97.0</ele><time>2026-05-02T15:36:40.001Z</time></trkpt><trkpt lat="45.52149846028057" lon="10.802478921799985"><ele>97.0</ele><time>2026-05-02T15:36:41.001Z</time></trkpt><trkpt lat="45.521395145242295" lon="10.802455871592365"><ele>97.0</ele><time>2026-05-02T15:36:42.001Z</time></trkpt><trkpt lat="45.52128298303499" lon="10.802429147993104"><ele>97.0</ele><time>2026-05-02T15:36:43.001Z</time></trkpt><trkpt lat="45.521158776297824" lon="10.802403340259255"><ele>97.0</ele><time>2026-05-02T15:36:44.001Z</time></trkpt><trkpt lat="45.521026957064905" lon="10.802374213943507"><ele>97.0</ele><time>2026-05-02T15:36:45.001Z</time></trkpt><trkpt lat="45.52089486955466" lon="10.802343390838274"><ele>96.5</ele><time>2026-05-02T15:36:46.001Z</time></trkpt><trkpt lat="45.520767610907484" lon="10.802318510621989"><ele>96.0</ele><time>2026-05-02T15:36:47Z</time></trkpt><trkpt lat="45.52064316290107" lon="10.802288086748703"><ele>95.5</ele><time>2026-05-02T15:36:48Z</time></trkpt><trkpt lat="45.520528814352" lon="10.80226435897533"><ele>95.0</ele><time>2026-05-02T15:36:49Z</time></trkpt><trkpt lat="45.520419400759984" lon="10.802235909020402"><ele>94.6</ele><time>2026-05-02T15:36:50Z</time></trkpt><trkpt lat="45.52030989257474" lon="10.802210860454212"><ele>94.2</ele><time>2026-05-02T15:36:51Z</time></trkpt><trkpt lat="45.520200699069505" lon="10.802185659334311"><ele>93.80000000000001</ele><time>2026-05-02T15:36:52Z</time></trkpt><trkpt lat="45.52009004147843" lon="10.8021558587621"><ele>93.4</ele><time>2026-05-02T15:36:53Z</time></trkpt><trkpt lat="45.51998187233626" lon="10.802123617356092"><ele>93.0</ele><time>2026-05-02T15:36:54Z</time></trkpt><trkpt lat="45.51987490868679" lon="10.802095055702706"><ele>93.0</ele><time>2026-05-02T15:36:55Z</time></trkpt><trkpt lat="45.51977725383204" lon="10.802059763793482"><ele>93.0</ele><time>2026-05-02T15:36:56Z</time></trkpt><trkpt lat="45.519686307768296" lon="10.802027786999927"><ele>93.0</ele><time>2026-05-02T15:36:57Z</time></trkpt><trkpt lat="45.51960139457808" lon="10.801996310498327"><ele>93.0</ele><time>2026-05-02T15:36:58Z</time></trkpt><trkpt lat="45.5195156120279" lon="10.801966433677695"><ele>93.0</ele><time>2026-05-02T15:36:59Z</time></trkpt><trkpt lat="45.5194350694116" lon="10.801931760153687"><ele>93.16666666666667</ele><time>2026-05-02T15:37:00Z</time></trkpt><trkpt lat="45.519355708732974" lon="10.801891613865878"><ele>93.33333333333333</ele><time>2026-05-02T15:37:01Z</time></trkpt><trkpt lat="45.519274294877164" lon="10.801856022966584"><ele>93.5</ele><time>2026-05-02T15:37:02Z</time></trkpt><trkpt lat="45.51919202194248" lon="10.801822977077013"><ele>93.66666666666666</ele><time>2026-05-02T15:37:03Z</time></trkpt><trkpt lat="45.5191103775732" lon="10.80179582148421"><ele>93.83333333333333</ele><time>2026-05-02T15:37:04Z</time></trkpt><trkpt lat="45.519027862472676" lon="10.801773054575854"><ele>94.0</ele><time>2026-05-02T15:37:05Z</time></trkpt><trkpt lat="45.51894872446554" lon="10.801763697101109"><ele>94.33333333333333</ele><time>2026-05-02T15:37:06Z</time></trkpt><trkpt lat="45.51887278475701" lon="10.80176281324611"><ele>94.66666666666666</ele><time>2026-05-02T15:37:07Z</time></trkpt><trkpt lat="45.51880190485405" lon="10.801771699472381"><ele>95.0</ele><time>2026-05-02T15:37:08Z</time></trkpt><trkpt lat="45.51873036177424" lon="10.801790139793965"><ele>95.33333333333333</ele><time>2026-05-02T15:37:09Z</time></trkpt><trkpt lat="45.51866465278704" lon="10.801805911358588"><ele>95.66666666666667</ele><time>2026-05-02T15:37:10Z</time></trkpt><trkpt lat="45.518558549987624" lon="10.801830703578775"><ele>96.0</ele><time>2026-05-02T15:37:12Z</time></trkpt><trkpt lat="45.51845286041895" lon="10.801870913790703"><ele>95.99999999999999</ele><time>2026-05-02T15:37:14Z</time></trkpt><trkpt lat="45.51839131826893" lon="10.801904566179257"><ele>96.0</ele><time>2026-05-02T15:37:15Z</time></trkpt><trkpt lat="45.518329098255904" lon="10.801943884500007"><ele>96.0</ele><time>2026-05-02T15:37:16Z</time></trkpt><trkpt lat="45.51826445667194" lon="10.801986899547412"><ele>96.0</ele><time>2026-05-02T15:37:17Z</time></trkpt><trkpt lat="45.51819719915632" lon="10.802031211396278"><ele>96.0</ele><time>2026-05-02T15:37:18Z</time></trkpt><trkpt lat="45.51812897647689" lon="10.802080503242674"><ele>95.99999999999999</ele><time>2026-05-02T15:37:19Z</time></trkpt><trkpt lat="45.51805882720594" lon="10.80212862697046"><ele>96.0</ele><time>2026-05-02T15:37:20Z</time></trkpt><trkpt lat="45.51798626352335" lon="10.802175222201756"><ele>96.0</ele><time>2026-05-02T15:37:21Z</time></trkpt><trkpt lat="45.51790848407909" lon="10.802210021318588"><ele>96.0</ele><time>2026-05-02T15:37:22Z</time></trkpt><trkpt lat="45.517824378474096" lon="10.802238565112866"><ele>96.0</ele><time>2026-05-02T15:37:23Z</time></trkpt><trkpt lat="45.517733864352174" lon="10.802223228453306"><ele>96.0</ele><time>2026-05-02T15:37:24Z</time></trkpt><trkpt lat="45.5176374954709" lon="10.802224949303104"><ele>96.0</ele><time>2026-05-02T15:37:25Z</time></trkpt><trkpt lat="45.517545744909086" lon="10.802245754449984"><ele>96.0</ele><time>2026-05-02T15:37:26Z</time></trkpt><trkpt lat="45.51745377060449" lon="10.802227342412124"><ele>96.0</ele><time>2026-05-02T15:37:27Z</time></trkpt><trkpt lat="45.51736119168045" lon="10.802183935560508"><ele>96.0</ele><time>2026-05-02T15:37:28Z</time></trkpt><trkpt lat="45.517257782547375" lon="10.802086566396838"><ele>96.0</ele><time>2026-05-02T15:37:29Z</time></trkpt><trkpt lat="45.51712885863339" lon="10.80202023420755"><ele>96.0</ele><time>2026-05-02T15:37:30Z</time></trkpt><trkpt lat="45.51701105565944" lon="10.801922323064353"><ele>96.75</ele><time>2026-05-02T15:37:31Z</time></trkpt><trkpt lat="45.51689344904394" lon="10.801825248975742"><ele>97.5</ele><time>2026-05-02T15:37:32Z</time></trkpt><trkpt lat="45.5167715344371" lon="10.801726575732921"><ele>98.25</ele><time>2026-05-02T15:37:33Z</time></trkpt><trkpt lat="45.51666281135411" lon="10.801611801318616"><ele>99.0</ele><time>2026-05-02T15:37:34Z</time></trkpt><trkpt lat="45.516551895872475" lon="10.801480159271327"><ele>99.0</ele><time>2026-05-02T15:37:35Z</time></trkpt><trkpt lat="45.516434013493594" lon="10.801334561631013"><ele>99.0</ele><time>2026-05-02T15:37:36Z</time></trkpt><trkpt lat="45.516310274977705" lon="10.801186446735692"><ele>99.0</ele><time>2026-05-02T15:37:37Z</time></trkpt><trkpt lat="45.51619029754715" lon="10.801042370576624"><ele>99.25</ele><time>2026-05-02T15:37:38Z</time></trkpt><trkpt lat="45.51607558138233" lon="10.800904282025803"><ele>99.5</ele><time>2026-05-02T15:37:39Z</time></trkpt><trkpt lat="45.515968841047126" lon="10.80077511314963"><ele>99.75</ele><time>2026-05-02T15:37:40Z</time></trkpt><trkpt lat="45.51587329085892" lon="10.800658891216044"><ele>100.0</ele><time>2026-05-02T15:37:41Z</time></trkpt><trkpt lat="45.515784388791104" lon="10.800546474061392"><ele>100.00000000000001</ele><time>2026-05-02T15:37:42Z</time></trkpt><trkpt lat="45.51570786306812" lon="10.800440278672575"><ele>100.0</ele><time>2026-05-02T15:37:43Z</time></trkpt><trkpt lat="45.5156462996614" lon="10.800358525570948"><ele>100.0</ele><time>2026-05-02T15:37:44Z</time></trkpt><trkpt lat="45.51559174189614" lon="10.800286785325179"><ele>100.0</ele><time>2026-05-02T15:37:45Z</time></trkpt><trkpt lat="45.51555329055033" lon="10.800205567226657"><ele>100.00000000000001</ele><time>2026-05-02T15:37:46Z</time></trkpt><trkpt lat="45.51552604761487" lon="10.800117336501808"><ele>100.0</ele><time>2026-05-02T15:37:47Z</time></trkpt><trkpt lat="45.51549409129421" lon="10.800025760100567"><ele>100.0</ele><time>2026-05-02T15:37:48Z</time></trkpt><trkpt lat="45.515430578631715" lon="10.799948492246022"><ele>100.0</ele><time>2026-05-02T15:37:49Z</time></trkpt><trkpt lat="45.51535186400991" lon="10.799923682470741"><ele>100.0</ele><time>2026-05-02T15:37:50Z</time></trkpt><trkpt lat="45.515250444553125" lon="10.799888482683938"><ele>100.0</ele><time>2026-05-02T15:37:51Z</time></trkpt><trkpt lat="45.5151429978274" lon="10.79980268067967"><ele>100.0</ele><time>2026-05-02T15:37:52Z</time></trkpt><trkpt lat="45.51502377619182" lon="10.799682600519532"><ele>99.5</ele><time>2026-05-02T15:37:53Z</time></trkpt><trkpt lat="45.514901058082124" lon="10.799559701279971"><ele>99.0</ele><time>2026-05-02T15:37:54Z</time></trkpt><trkpt lat="45.5147766057821" lon="10.799433937308374"><ele>98.5</ele><time>2026-05-02T15:37:55Z</time></trkpt><trkpt lat="45.51467107152472" lon="10.799328192962957"><ele>98.0</ele><time>2026-05-02T15:37:56Z</time></trkpt><trkpt lat="45.51458089055061" lon="10.799242037426817"><ele>98.5</ele><time>2026-05-02T15:37:57Z</time></trkpt><trkpt lat="45.514492645703356" lon="10.799157764349648"><ele>99.0</ele><time>2026-05-02T15:37:58Z</time></trkpt><trkpt lat="45.514396728878005" lon="10.799071981437518"><ele>99.5</ele><time>2026-05-02T15:37:59Z</time></trkpt><trkpt lat="45.5142896362013" lon="10.798981587568814"><ele>100.0</ele><time>2026-05-02T15:38:00Z</time></trkpt><trkpt lat="45.51417018965829" lon="10.798851697271104"><ele>100.0</ele><time>2026-05-02T15:38:01.001Z</time></trkpt><trkpt lat="45.514023603389894" lon="10.798729838556856"><ele>100.0</ele><time>2026-05-02T15:38:02.001Z</time></trkpt><trkpt lat="45.51386436997184" lon="10.7985999692635"><ele>100.0</ele><time>2026-05-02T15:38:03.001Z</time></trkpt><trkpt lat="45.513685966305786" lon="10.798461009961649"><ele>100.66666666666667</ele><time>2026-05-02T15:38:04.001Z</time></trkpt><trkpt lat="45.51350808418371" lon="10.79832560683985"><ele>101.33333333333334</ele><time>2026-05-02T15:38:05.001Z</time></trkpt><trkpt lat="45.51332460565663" lon="10.798193781277364"><ele>102.0</ele><time>2026-05-02T15:38:06.001Z</time></trkpt><trkpt lat="45.513128858290116" lon="10.798059487338165"><ele>102.0</ele><time>2026-05-02T15:38:07.001Z</time></trkpt><trkpt lat="45.51293206461861" lon="10.797929223626705"><ele>102.0</ele><time>2026-05-02T15:38:08.001Z</time></trkpt><trkpt lat="45.51273976929965" lon="10.79783398617409"><ele>102.0</ele><time>2026-05-02T15:38:09.001Z</time></trkpt><trkpt lat="45.51255084797169" lon="10.797730846827973"><ele>105.33333333333334</ele><time>2026-05-02T15:38:10.001Z</time></trkpt><trkpt lat="45.51234988879777" lon="10.797660238460868"><ele>108.66666666666667</ele><time>2026-05-02T15:38:11.001Z</time></trkpt><trkpt lat="45.51214034708978" lon="10.79760403664205"><ele>112.0</ele><time>2026-05-02T15:38:12.001Z</time></trkpt><trkpt lat="45.511925482515004" lon="10.797549966534165"><ele>112.0</ele><time>2026-05-02T15:38:13.001Z</time></trkpt><trkpt lat="45.51171610007663" lon="10.797464879871649"><ele>112.0</ele><time>2026-05-02T15:38:14.001Z</time></trkpt><trkpt lat="45.51149737386413" lon="10.79742749189487"><ele>112.0</ele><time>2026-05-02T15:38:15.001Z</time></trkpt><trkpt lat="45.51128351637157" lon="10.797359280550765"><ele>112.66666666666667</ele><time>2026-05-02T15:38:16.001Z</time></trkpt><trkpt lat="45.51106931877158" lon="10.797293061982657"><ele>113.33333333333334</ele><time>2026-05-02T15:38:17.001Z</time></trkpt><trkpt lat="45.510860937361194" lon="10.797230305675404"><ele>114.0</ele><time>2026-05-02T15:38:18.001Z</time></trkpt><trkpt lat="45.51065891351119" lon="10.797176449920393"><ele>114.0</ele><time>2026-05-02T15:38:19.001Z</time></trkpt><trkpt lat="45.510460778894675" lon="10.797152541666794"><ele>114.0</ele><time>2026-05-02T15:38:20.001Z</time></trkpt><trkpt lat="45.51025985082323" lon="10.797166157425185"><ele>114.0</ele><time>2026-05-02T15:38:21.001Z</time></trkpt><trkpt lat="45.51005658606289" lon="10.79720327815921"><ele>115.0</ele><time>2026-05-02T15:38:22.001Z</time></trkpt><trkpt lat="45.50985283389016" lon="10.79724533180195"><ele>116.0</ele><time>2026-05-02T15:38:23.001Z</time></trkpt><trkpt lat="45.509652724402095" lon="10.797289054131474"><ele>117.0</ele><time>2026-05-02T15:38:24.001Z</time></trkpt><trkpt lat="45.509479138482234" lon="10.797326308373787"><ele>118.5</ele><time>2026-05-02T15:38:25.001Z</time></trkpt><trkpt lat="45.509328262882754" lon="10.797353408501515"><ele>120.0</ele><time>2026-05-02T15:38:26.001Z</time></trkpt><trkpt lat="45.50919505373108" lon="10.79736005938956"><ele>121.5</ele><time>2026-05-02T15:38:27.001Z</time></trkpt><trkpt lat="45.50907126314123" lon="10.797312316769986"><ele>123.0</ele><time>2026-05-02T15:38:28.001Z</time></trkpt><trkpt lat="45.50896079925042" lon="10.79722541264022"><ele>123.0</ele><time>2026-05-02T15:38:29.001Z</time></trkpt><trkpt lat="45.50886213645177" lon="10.797092449483047"><ele>123.0</ele><time>2026-05-02T15:38:30.001Z</time></trkpt><trkpt lat="45.50874713967047" lon="10.796983989763415"><ele>123.0</ele><time>2026-05-02T15:38:31.001Z</time></trkpt><trkpt lat="45.50864554272561" lon="10.796846935869993"><ele>123.0</ele><time>2026-05-02T15:38:32.001Z</time></trkpt><trkpt lat="45.50852468275358" lon="10.796690845834982"><ele>128.33333333333334</ele><time>2026-05-02T15:38:33.001Z</time></trkpt><trkpt lat="45.50840496378026" lon="10.796482967982657"><ele>133.66666666666669</ele><time>2026-05-02T15:38:34.001Z</time></trkpt><trkpt lat="45.5082827226508" lon="10.796281046089833"><ele>139.0</ele><time>2026-05-02T15:38:35.001Z</time></trkpt><trkpt lat="45.508166531926896" lon="10.796098225370516"><ele>141.33333333333334</ele><time>2026-05-02T15:38:36.001Z</time></trkpt><trkpt lat="45.50804184114294" lon="10.795954742194336"><ele>143.66666666666666</ele><time>2026-05-02T15:38:37.001Z</time></trkpt><trkpt lat="45.507931167677306" lon="10.79581214334229"><ele>146.0</ele><time>2026-05-02T15:38:38.001Z</time></trkpt><trkpt lat="45.507806260673675" lon="10.795694244559737"><ele>146.75</ele><time>2026-05-02T15:38:39.001Z</time></trkpt><trkpt lat="45.507679701543594" lon="10.79559346196934"><ele>147.5</ele><time>2026-05-02T15:38:40.001Z</time></trkpt><trkpt lat="45.507566231230314" lon="10.795521202854726"><ele>148.25</ele><time>2026-05-02T15:38:41.001Z</time></trkpt><trkpt lat="45.50746230528667" lon="10.795464011170793"><ele>149.0</ele><time>2026-05-02T15:38:42.001Z</time></trkpt><trkpt lat="45.50735757349002" lon="10.79542017696142"><ele>149.0</ele><time>2026-05-02T15:38:43.001Z</time></trkpt><trkpt lat="45.50725584604576" lon="10.795388209079642"><ele>149.0</ele><time>2026-05-02T15:38:44.001Z</time></trkpt><trkpt lat="45.50716325799688" lon="10.795349601813763"><ele>149.0</ele><time>2026-05-02T15:38:45.001Z</time></trkpt><trkpt lat="45.507082513935224" lon="10.79531586029669"><ele>149.0</ele><time>2026-05-02T15:38:47.001Z</time></trkpt><trkpt lat="45.50700349218277" lon="10.795269911822036"><ele>149.0</ele><time>2026-05-02T15:38:50.001Z</time></trkpt><trkpt lat="45.506915152073255" lon="10.795167824722148"><ele>149.2</ele><time>2026-05-02T15:38:52.001Z</time></trkpt><trkpt lat="45.50685523273429" lon="10.795076627396886"><ele>149.4</ele><time>2026-05-02T15:38:53Z</time></trkpt><trkpt lat="45.50679490981348" lon="10.795024242015478"><ele>149.6</ele><time>2026-05-02T15:38:54Z</time></trkpt><trkpt lat="45.50672005057924" lon="10.795038285027298"><ele>149.8</ele><time>2026-05-02T15:38:55Z</time></trkpt><trkpt lat="45.50662276983657" lon="10.795104458545211"><ele>150.0</ele><time>2026-05-02T15:38:56Z</time></trkpt><trkpt lat="45.506479157358676" lon="10.795215826802902"><ele>150.0</ele><time>2026-05-02T15:38:57Z</time></trkpt><trkpt lat="45.506327885955635" lon="10.795334692800099"><ele>150.0</ele><time>2026-05-02T15:38:58Z</time></trkpt><trkpt lat="45.50618462537221" lon="10.79542724215609"><ele>150.0</ele><time>2026-05-02T15:38:59Z</time></trkpt><trkpt lat="45.506040408094655" lon="10.79550203916521"><ele>150.0</ele><time>2026-05-02T15:39:00Z</time></trkpt><trkpt lat="45.505891384520794" lon="10.795572218728632"><ele>150.0</ele><time>2026-05-02T15:39:01Z</time></trkpt><trkpt lat="45.505731708455464" lon="10.795644046772853"><ele>150.0</ele><time>2026-05-02T15:39:02Z</time></trkpt><trkpt lat="45.50556527984971" lon="10.795688805624817"><ele>151.0</ele><time>2026-05-02T15:39:03Z</time></trkpt><trkpt lat="45.50539736551448" lon="10.795724783016489"><ele>152.0</ele><time>2026-05-02T15:39:04Z</time></trkpt><trkpt lat="45.50525171028143" lon="10.795763601027133"><ele>153.0</ele><time>2026-05-02T15:39:05Z</time></trkpt><trkpt lat="45.505119506045936" lon="10.795811772924477"><ele>153.0</ele><time>2026-05-02T15:39:06Z</time></trkpt><trkpt lat="45.504996126606876" lon="10.795877201796879"><ele>153.0</ele><time>2026-05-02T15:39:07Z</time></trkpt><trkpt lat="45.50488394330648" lon="10.795980744611478"><ele>153.0</ele><time>2026-05-02T15:39:08Z</time></trkpt><trkpt lat="45.50479335235108" lon="10.796119830020539"><ele>153.0</ele><time>2026-05-02T15:39:09Z</time></trkpt><trkpt lat="45.504712162007046" lon="10.796277453394305"><ele>153.0</ele><time>2026-05-02T15:39:10Z</time></trkpt><trkpt lat="45.504631098247636" lon="10.796436540430266"><ele>153.0</ele><time>2026-05-02T15:39:11Z</time></trkpt><trkpt lat="45.50455631911808" lon="10.796582300888712"><ele>153.0</ele><time>2026-05-02T15:39:12Z</time></trkpt><trkpt lat="45.504481302979535" lon="10.796723255446311"><ele>153.0</ele><time>2026-05-02T15:39:13Z</time></trkpt><trkpt lat="45.504413752140614" lon="10.796859978241297"><ele>153.20000000000002</ele><time>2026-05-02T15:39:14Z</time></trkpt><trkpt lat="45.50435192605074" lon="10.796995832727454"><ele>153.4</ele><time>2026-05-02T15:39:15Z</time></trkpt><trkpt lat="45.50428561503423" lon="10.797131019513971"><ele>153.60000000000002</ele><time>2026-05-02T15:39:16Z</time></trkpt><trkpt lat="45.50421902404159" lon="10.797255470351335"><ele>153.8</ele><time>2026-05-02T15:39:17Z</time></trkpt><trkpt lat="45.50415745744871" lon="10.797364102119259"><ele>154.0</ele><time>2026-05-02T15:39:18Z</time></trkpt><trkpt lat="45.504099279020146" lon="10.797474805298165"><ele>154.0</ele><time>2026-05-02T15:39:19Z</time></trkpt><trkpt lat="45.5040341071335" lon="10.797584800212206"><ele>154.0</ele><time>2026-05-02T15:39:20Z</time></trkpt><trkpt lat="45.503961016711045" lon="10.79768873101224"><ele>154.0</ele><time>2026-05-02T15:39:21Z</time></trkpt><trkpt lat="45.50387354131442" lon="10.797784854912603"><ele>154.0</ele><time>2026-05-02T15:39:22Z</time></trkpt><trkpt lat="45.503773857413364" lon="10.797869328545024"><ele>154.0</ele><time>2026-05-02T15:39:23Z</time></trkpt><trkpt lat="45.50365640470901" lon="10.797946049463922"><ele>155.0</ele><time>2026-05-02T15:39:24Z</time></trkpt><trkpt lat="45.503517334115436" lon="10.798020306893987"><ele>156.0</ele><time>2026-05-02T15:39:25Z</time></trkpt><trkpt lat="45.50336213731436" lon="10.798089048532661"><ele>157.0</ele><time>2026-05-02T15:39:26Z</time></trkpt><trkpt lat="45.50320353239472" lon="10.798135158956226"><ele>157.0</ele><time>2026-05-02T15:39:27Z</time></trkpt><trkpt lat="45.503039152355456" lon="10.798171076118042"><ele>157.0</ele><time>2026-05-02T15:39:28Z</time></trkpt><trkpt lat="45.50288692190311" lon="10.798184934608598"><ele>157.0</ele><time>2026-05-02T15:39:29Z</time></trkpt><trkpt lat="45.50274186292826" lon="10.798198760956362"><ele>159.0</ele><time>2026-05-02T15:39:30Z</time></trkpt><trkpt lat="45.502589493251186" lon="10.798209623436248"><ele>161.0</ele><time>2026-05-02T15:39:31Z</time></trkpt><trkpt lat="45.502433889008685" lon="10.798216781666023"><ele>163.0</ele><time>2026-05-02T15:39:32Z</time></trkpt><trkpt lat="45.50227654862545" lon="10.798217321479614"><ele>163.0</ele><time>2026-05-02T15:39:33Z</time></trkpt><trkpt lat="45.50211033286151" lon="10.798219980264355"><ele>163.0</ele><time>2026-05-02T15:39:34Z</time></trkpt><trkpt lat="45.50194015380413" lon="10.798222195838942"><ele>163.0</ele><time>2026-05-02T15:39:35Z</time></trkpt><trkpt lat="45.50177312175742" lon="10.798221315239427"><ele>163.33333333333334</ele><time>2026-05-02T15:39:36Z</time></trkpt><trkpt lat="45.5016092176734" lon="10.798223379741694"><ele>163.66666666666666</ele><time>2026-05-02T15:39:37Z</time></trkpt><trkpt lat="45.50144593323688" lon="10.79822463151999"><ele>164.0</ele><time>2026-05-02T15:39:38Z</time></trkpt><trkpt lat="45.50128319619663" lon="10.798224984834105"><ele>164.66666666666666</ele><time>2026-05-02T15:39:39Z</time></trkpt><trkpt lat="45.501112160623144" lon="10.798232140723645"><ele>165.33333333333334</ele><time>2026-05-02T15:39:40Z</time></trkpt><trkpt lat="45.50094281247839" lon="10.798241543923034"><ele>166.0</ele><time>2026-05-02T15:39:41Z</time></trkpt><trkpt lat="45.500772366302826" lon="10.798258830823103"><ele>166.0</ele><time>2026-05-02T15:39:42Z</time></trkpt><trkpt lat="45.50060427186714" lon="10.798276141133837"><ele>166.0</ele><time>2026-05-02T15:39:43Z</time></trkpt><trkpt lat="45.50043893742148" lon="10.798297170991175"><ele>166.0</ele><time>2026-05-02T15:39:44.001Z</time></trkpt><trkpt lat="45.50027962123564" lon="10.798316085689967"><ele>165.25</ele><time>2026-05-02T15:39:45.001Z</time></trkpt><trkpt lat="45.50013235470374" lon="10.798342087159583"><ele>164.5</ele><time>2026-05-02T15:39:46.001Z</time></trkpt><trkpt lat="45.499990450388154" lon="10.798359310224141"><ele>163.75</ele><time>2026-05-02T15:39:47.001Z</time></trkpt><trkpt lat="45.49985347466509" lon="10.798376407668279"><ele>163.0</ele><time>2026-05-02T15:39:48.001Z</time></trkpt><trkpt lat="45.49971148027999" lon="10.798402673743375"><ele>163.33333333333334</ele><time>2026-05-02T15:39:49.001Z</time></trkpt><trkpt lat="45.499563262767076" lon="10.79843465034649"><ele>163.66666666666666</ele><time>2026-05-02T15:39:50.001Z</time></trkpt><trkpt lat="45.49940842074125" lon="10.798478556731125"><ele>164.0</ele><time>2026-05-02T15:39:51.001Z</time></trkpt><trkpt lat="45.49924779481397" lon="10.798534492761744"><ele>165.66666666666666</ele><time>2026-05-02T15:39:52.001Z</time></trkpt><trkpt lat="45.49908129404031" lon="10.798605059053358"><ele>167.33333333333334</ele><time>2026-05-02T15:39:53.001Z</time></trkpt><trkpt lat="45.49891993630363" lon="10.798674866608641"><ele>169.0</ele><time>2026-05-02T15:39:54.001Z</time></trkpt><trkpt lat="45.498741635733055" lon="10.798749798108055"><ele>170.66666666666669</ele><time>2026-05-02T15:39:55.001Z</time></trkpt><trkpt lat="45.49857862731892" lon="10.798841663449371"><ele>172.33333333333334</ele><time>2026-05-02T15:39:56.001Z</time></trkpt><trkpt lat="45.49841701215399" lon="10.79892707453978"><ele>174.0</ele><time>2026-05-02T15:39:57.001Z</time></trkpt><trkpt lat="45.498265670081004" lon="10.799039571147967"><ele>174.0</ele><time>2026-05-02T15:39:58.001Z</time></trkpt><trkpt lat="45.498128187184186" lon="10.799144777714725"><ele>174.0</ele><time>2026-05-02T15:39:59.001Z</time></trkpt><trkpt lat="45.497993835784875" lon="10.79924983878337"><ele>174.0</ele><time>2026-05-02T15:40:00.001Z</time></trkpt><trkpt lat="45.497867946242664" lon="10.799336579935664"><ele>174.0</ele><time>2026-05-02T15:40:01.001Z</time></trkpt><trkpt lat="45.49774089791333" lon="10.79939664849731"><ele>175.25</ele><time>2026-05-02T15:40:02.001Z</time></trkpt><trkpt lat="45.49761584496302" lon="10.799441586476657"><ele>176.5</ele><time>2026-05-02T15:40:03.001Z</time></trkpt><trkpt lat="45.49748618848484" lon="10.799488176886031"><ele>177.75</ele><time>2026-05-02T15:40:04.001Z</time></trkpt><trkpt lat="45.497343812443994" lon="10.799536290448291"><ele>179.0</ele><time>2026-05-02T15:40:05.001Z</time></trkpt><trkpt lat="45.49720552999898" lon="10.799577053946981"><ele>179.75</ele><time>2026-05-02T15:40:06.001Z</time></trkpt><trkpt lat="45.49705325043133" lon="10.799597020419077"><ele>180.5</ele><time>2026-05-02T15:40:07.001Z</time></trkpt><trkpt lat="45.49691875423178" lon="10.799627942378388"><ele>181.25</ele><time>2026-05-02T15:40:08.001Z</time></trkpt><trkpt lat="45.49678365978272" lon="10.799654030995885"><ele>182.0</ele><time>2026-05-02T15:40:09.001Z</time></trkpt><trkpt lat="45.49666328037564" lon="10.799674385197884"><ele>182.0</ele><time>2026-05-02T15:40:10.001Z</time></trkpt><trkpt lat="45.49655397124314" lon="10.799692290149906"><ele>182.0</ele><time>2026-05-02T15:40:11.001Z</time></trkpt><trkpt lat="45.496458539187465" lon="10.799733482500626"><ele>182.0</ele><time>2026-05-02T15:40:12.001Z</time></trkpt><trkpt lat="45.49635152150558" lon="10.799742170536355"><ele>182.0</ele><time>2026-05-02T15:40:13.001Z</time></trkpt><trkpt lat="45.49623461392539" lon="10.799761761820232"><ele>182.0</ele><time>2026-05-02T15:40:14.001Z</time></trkpt><trkpt lat="45.49611190126889" lon="10.7997865757096"><ele>182.5</ele><time>2026-05-02T15:40:15.001Z</time></trkpt><trkpt lat="45.495985478137776" lon="10.79980669633203"><ele>183.0</ele><time>2026-05-02T15:40:16.001Z</time></trkpt><trkpt lat="45.49585092581169" lon="10.799811467109334"><ele>183.5</ele><time>2026-05-02T15:40:17.001Z</time></trkpt><trkpt lat="45.49570954080234" lon="10.799783607160675"><ele>184.0</ele><time>2026-05-02T15:40:18.001Z</time></trkpt><trkpt lat="45.49556592695389" lon="10.799759436166966"><ele>184.0</ele><time>2026-05-02T15:40:19.001Z</time></trkpt><trkpt lat="45.49542070912304" lon="10.799734343733364"><ele>184.0</ele><time>2026-05-02T15:40:20.001Z</time></trkpt><trkpt lat="45.49528207831937" lon="10.799710010279664"><ele>184.0</ele><time>2026-05-02T15:40:21.001Z</time></trkpt><trkpt lat="45.49514850335104" lon="10.799681483078604"><ele>184.0</ele><time>2026-05-02T15:40:22.001Z</time></trkpt><trkpt lat="45.49501299669552" lon="10.799652819534856"><ele>184.75</ele><time>2026-05-02T15:40:23.001Z</time></trkpt><trkpt lat="45.49487314019749" lon="10.799621299986484"><ele>185.5</ele><time>2026-05-02T15:40:24.001Z</time></trkpt><trkpt lat="45.49473474410973" lon="10.799598430731661"><ele>186.25</ele><time>2026-05-02T15:40:25.001Z</time></trkpt><trkpt lat="45.49459061797705" lon="10.799570997510472"><ele>187.0</ele><time>2026-05-02T15:40:26.001Z</time></trkpt><trkpt lat="45.49444889307128" lon="10.799547221280626"><ele>187.75</ele><time>2026-05-02T15:40:27Z</time></trkpt><trkpt lat="45.494305549564196" lon="10.799522374735158"><ele>188.5</ele><time>2026-05-02T15:40:28Z</time></trkpt><trkpt lat="45.49417552957268" lon="10.799486313139553"><ele>189.25</ele><time>2026-05-02T15:40:29Z</time></trkpt><trkpt lat="45.49405098762197" lon="10.79944020321775"><ele>190.0</ele><time>2026-05-02T15:40:30Z</time></trkpt><trkpt lat="45.49393045956055" lon="10.799373957662734"><ele>189.75</ele><time>2026-05-02T15:40:31Z</time></trkpt><trkpt lat="45.4938064367732" lon="10.799281850840392"><ele>189.5</ele><time>2026-05-02T15:40:32Z</time></trkpt><trkpt lat="45.49369179213422" lon="10.799183691942769"><ele>189.25</ele><time>2026-05-02T15:40:33Z</time></trkpt><trkpt lat="45.493580071516924" lon="10.799089364959608"><ele>189.0</ele><time>2026-05-02T15:40:34Z</time></trkpt><trkpt lat="45.49346794953941" lon="10.79900670220136"><ele>189.0</ele><time>2026-05-02T15:40:35Z</time></trkpt><trkpt lat="45.49337481856194" lon="10.798949319617023"><ele>189.0</ele><time>2026-05-02T15:40:36Z</time></trkpt><trkpt lat="45.49330064892799" lon="10.79891641949236"><ele>189.0</ele><time>2026-05-02T15:40:37Z</time></trkpt><trkpt lat="45.493231913948875" lon="10.798901977242195"><ele>189.0</ele><time>2026-05-02T15:40:38Z</time></trkpt><trkpt lat="45.49316609225712" lon="10.798909716185673"><ele>189.0</ele><time>2026-05-02T15:40:39Z</time></trkpt><trkpt lat="45.493063031992946" lon="10.798934660871106"><ele>189.0</ele><time>2026-05-02T15:40:41Z</time></trkpt><trkpt lat="45.492998861570904" lon="10.798959099586327"><ele>189.0</ele><time>2026-05-02T15:40:43Z</time></trkpt><trkpt lat="45.492936280133975" lon="10.798980945150165"><ele>189.0</ele><time>2026-05-02T15:40:46Z</time></trkpt><trkpt lat="45.49286510605779" lon="10.798998433347439"><ele>189.0</ele><time>2026-05-02T15:40:59.999Z</time></trkpt><trkpt lat="45.492742300556934" lon="10.799103954152713"><ele>189.0</ele><time>2026-05-02T15:41:01.999Z</time></trkpt><trkpt lat="45.49266962411422" lon="10.799184693464195"><ele>189.0</ele><time>2026-05-02T15:41:02.999Z</time></trkpt><trkpt lat="45.492599990935304" lon="10.7992646649308"><ele>189.0</ele><time>2026-05-02T15:41:03.999Z</time></trkpt><trkpt lat="45.49253010897949" lon="10.799353848299067"><ele>189.0</ele><time>2026-05-02T15:41:04.999Z</time></trkpt><trkpt lat="45.492453278502175" lon="10.799438982235884"><ele>189.0</ele><time>2026-05-02T15:41:05.999Z</time></trkpt><trkpt lat="45.49237947447683" lon="10.79952138972107"><ele>189.0</ele><time>2026-05-02T15:41:06.999Z</time></trkpt><trkpt lat="45.492297593804146" lon="10.799600141085094"><ele>189.0</ele><time>2026-05-02T15:41:07.999Z</time></trkpt><trkpt lat="45.49220283839578" lon="10.799664447855955"><ele>189.0</ele><time>2026-05-02T15:41:08.999Z</time></trkpt><trkpt lat="45.492096322145635" lon="10.799696343317605"><ele>189.0</ele><time>2026-05-02T15:41:09.999Z</time></trkpt><trkpt lat="45.49197671980247" lon="10.799688034927938"><ele>189.0</ele><time>2026-05-02T15:41:10.999Z</time></trkpt><trkpt lat="45.491855933157716" lon="10.799664725155298"><ele>189.0</ele><time>2026-05-02T15:41:11.999Z</time></trkpt><trkpt lat="45.49169674137316" lon="10.799609027993974"><ele>188.6</ele><time>2026-05-02T15:41:12.999Z</time></trkpt><trkpt lat="45.4915757700462" lon="10.79961679087781"><ele>188.2</ele><time>2026-05-02T15:41:13.999Z</time></trkpt><trkpt lat="45.491456091534936" lon="10.799616293262998"><ele>187.79999999999998</ele><time>2026-05-02T15:41:14.999Z</time></trkpt><trkpt lat="45.4913583586465" lon="10.799610532759509"><ele>187.39999999999998</ele><time>2026-05-02T15:41:15.999Z</time></trkpt><trkpt lat="45.491279435965325" lon="10.799620020826183"><ele>187.0</ele><time>2026-05-02T15:41:16.999Z</time></trkpt><trkpt lat="45.491197827288254" lon="10.799579640954496"><ele>186.75</ele><time>2026-05-02T15:41:17.999Z</time></trkpt><trkpt lat="45.49112294141858" lon="10.799522834620944"><ele>186.5</ele><time>2026-05-02T15:41:18.999Z</time></trkpt><trkpt lat="45.49107480666665" lon="10.799379609233304"><ele>186.25</ele><time>2026-05-02T15:41:19.999Z</time></trkpt><trkpt lat="45.49098993868051" lon="10.799245863465416"><ele>186.0</ele><time>2026-05-02T15:41:20.999Z</time></trkpt><trkpt lat="45.490905915122305" lon="10.799077770045226"><ele>186.0</ele><time>2026-05-02T15:41:21.999Z</time></trkpt><trkpt lat="45.490841355353695" lon="10.798898909431987"><ele>186.0</ele><time>2026-05-02T15:41:22.999Z</time></trkpt><trkpt lat="45.49079284780851" lon="10.798716227589903"><ele>186.0</ele><time>2026-05-02T15:41:23.999Z</time></trkpt><trkpt lat="45.4907542419065" lon="10.7985371055153"><ele>186.0</ele><time>2026-05-02T15:41:24.999Z</time></trkpt><trkpt lat="45.490687591122956" lon="10.798376395930019"><ele>186.0</ele><time>2026-05-02T15:41:25.999Z</time></trkpt><trkpt lat="45.49056664077892" lon="10.798235673580294"><ele>186.0</ele><time>2026-05-02T15:41:26.999Z</time></trkpt><trkpt lat="45.490426964322914" lon="10.798099734981445"><ele>186.0</ele><time>2026-05-02T15:41:27.999Z</time></trkpt><trkpt lat="45.49027553017906" lon="10.79797150217195"><ele>186.0</ele><time>2026-05-02T15:41:28.999Z</time></trkpt><trkpt lat="45.49013347083063" lon="10.797838730335744"><ele>186.0</ele><time>2026-05-02T15:41:29.999Z</time></trkpt><trkpt lat="45.490000791880966" lon="10.797733648009856"><ele>186.0</ele><time>2026-05-02T15:41:30.999Z</time></trkpt><trkpt lat="45.48989657446279" lon="10.797652216968054"><ele>186.0</ele><time>2026-05-02T15:41:31.999Z</time></trkpt><trkpt lat="45.48981586212747" lon="10.797557619070725"><ele>184.20000000000002</ele><time>2026-05-02T15:41:32.999Z</time></trkpt><trkpt lat="45.489749723149295" lon="10.797419650467274"><ele>182.4</ele><time>2026-05-02T15:41:34Z</time></trkpt><trkpt lat="45.489697717484496" lon="10.797259330041157"><ele>180.6</ele><time>2026-05-02T15:41:35Z</time></trkpt><trkpt lat="45.48965063310501" lon="10.797121768037652"><ele>178.8</ele><time>2026-05-02T15:41:36Z</time></trkpt><trkpt lat="45.48959695884886" lon="10.797015102204702"><ele>177.0</ele><time>2026-05-02T15:41:37Z</time></trkpt><trkpt lat="45.48951625306394" lon="10.796943962042995"><ele>175.0</ele><time>2026-05-02T15:41:38Z</time></trkpt><trkpt lat="45.48941285102822" lon="10.796931062459628"><ele>173.0</ele><time>2026-05-02T15:41:39Z</time></trkpt><trkpt lat="45.489298041042524" lon="10.79695047957388"><ele>171.0</ele><time>2026-05-02T15:41:40Z</time></trkpt><trkpt lat="45.48917471574612" lon="10.796979828668645"><ele>169.0</ele><time>2026-05-02T15:41:41Z</time></trkpt><trkpt lat="45.48905243445551" lon="10.797043594562501"><ele>169.0</ele><time>2026-05-02T15:41:42Z</time></trkpt><trkpt lat="45.488905600836006" lon="10.796885349578021"><ele>169.0</ele><time>2026-05-02T15:41:43Z</time></trkpt><trkpt lat="45.48876748280256" lon="10.796759168818708"><ele>169.0</ele><time>2026-05-02T15:41:44Z</time></trkpt><trkpt lat="45.4886076989347" lon="10.796620098954506"><ele>167.0</ele><time>2026-05-02T15:41:45Z</time></trkpt><trkpt lat="45.48845278648084" lon="10.796444379641551"><ele>165.0</ele><time>2026-05-02T15:41:46Z</time></trkpt><trkpt lat="45.48829947192922" lon="10.796263297025574"><ele>163.0</ele><time>2026-05-02T15:41:47Z</time></trkpt><trkpt lat="45.48814173331928" lon="10.796097149375827"><ele>161.33333333333334</ele><time>2026-05-02T15:41:48Z</time></trkpt><trkpt lat="45.48797655850422" lon="10.795928494818213"><ele>159.66666666666666</ele><time>2026-05-02T15:41:49Z</time></trkpt><trkpt lat="45.48781754554121" lon="10.795753813211077"><ele>158.0</ele><time>2026-05-02T15:41:50Z</time></trkpt><trkpt lat="45.487658043102584" lon="10.795607316206707"><ele>158.0</ele><time>2026-05-02T15:41:51Z</time></trkpt><trkpt lat="45.48749757324618" lon="10.795468634951424"><ele>158.0</ele><time>2026-05-02T15:41:52Z</time></trkpt><trkpt lat="45.48733446118311" lon="10.795332081330434"><ele>158.0</ele><time>2026-05-02T15:41:53Z</time></trkpt><trkpt lat="45.487165816049824" lon="10.795195614715198"><ele>156.66666666666666</ele><time>2026-05-02T15:41:54Z</time></trkpt><trkpt lat="45.48699506059187" lon="10.795056843105773"><ele>155.33333333333334</ele><time>2026-05-02T15:41:55Z</time></trkpt><trkpt lat="45.48682363992216" lon="10.794924735197082"><ele>154.0</ele><time>2026-05-02T15:41:56Z</time></trkpt><trkpt lat="45.48663896024581" lon="10.794822398257852"><ele>154.0</ele><time>2026-05-02T15:41:57Z</time></trkpt><trkpt lat="45.48642253891225" lon="10.79473677350925"><ele>154.0</ele><time>2026-05-02T15:41:58Z</time></trkpt><trkpt lat="45.48621079872204" lon="10.79464584239932"><ele>154.0</ele><time>2026-05-02T15:41:59Z</time></trkpt><trkpt lat="45.48600471432738" lon="10.794559554168833"><ele>153.66666666666669</ele><time>2026-05-02T15:42:00Z</time></trkpt><trkpt lat="45.48582107969999" lon="10.794460272874291"><ele>153.33333333333334</ele><time>2026-05-02T15:42:01Z</time></trkpt><trkpt lat="45.48561447030712" lon="10.79436676555084"><ele>153.0</ele><time>2026-05-02T15:42:02Z</time></trkpt><trkpt lat="45.485419903093806" lon="10.794278707998942"><ele>150.0</ele><time>2026-05-02T15:42:03Z</time></trkpt><trkpt lat="45.485231507857236" lon="10.794193407374745"><ele>147.0</ele><time>2026-05-02T15:42:04Z</time></trkpt><trkpt lat="45.48505232987413" lon="10.794112935698532"><ele>144.0</ele><time>2026-05-02T15:42:05Z</time></trkpt><trkpt lat="45.48488042563711" lon="10.794036301117773"><ele>144.0</ele><time>2026-05-02T15:42:06Z</time></trkpt><trkpt lat="45.48470652853054" lon="10.793982296160992"><ele>144.0</ele><time>2026-05-02T15:42:07Z</time></trkpt><trkpt lat="45.484551121861145" lon="10.793905132208517"><ele>144.0</ele><time>2026-05-02T15:42:08Z</time></trkpt><trkpt lat="45.4843959739946" lon="10.793829781778838"><ele>143.33333333333334</ele><time>2026-05-02T15:42:09Z</time></trkpt><trkpt lat="45.48424242729501" lon="10.793762248824747"><ele>142.66666666666669</ele><time>2026-05-02T15:42:10Z</time></trkpt><trkpt lat="45.48408110492795" lon="10.793692943327988"><ele>142.0</ele><time>2026-05-02T15:42:11Z</time></trkpt><trkpt lat="45.483916507068585" lon="10.793621283480167"><ele>140.66666666666669</ele><time>2026-05-02T15:42:12Z</time></trkpt><trkpt lat="45.48375894654828" lon="10.793556050241884"><ele>139.33333333333334</ele><time>2026-05-02T15:42:13Z</time></trkpt><trkpt lat="45.48359782858822" lon="10.79348838573192"><ele>138.0</ele><time>2026-05-02T15:42:14Z</time></trkpt><trkpt lat="45.48342488897765" lon="10.793428875468745"><ele>137.0</ele><time>2026-05-02T15:42:15Z</time></trkpt><trkpt lat="45.48324093539095" lon="10.793391759728774"><ele>136.0</ele><time>2026-05-02T15:42:16Z</time></trkpt><trkpt lat="45.48305443809266" lon="10.793373686827518"><ele>135.0</ele><time>2026-05-02T15:42:17Z</time></trkpt><trkpt lat="45.482871074772426" lon="10.793381846693139"><ele>134.33333333333334</ele><time>2026-05-02T15:42:18Z</time></trkpt><trkpt lat="45.482699100431205" lon="10.793415144382617"><ele>133.66666666666669</ele><time>2026-05-02T15:42:19Z</time></trkpt><trkpt lat="45.482535456004804" lon="10.793465177292303"><ele>133.0</ele><time>2026-05-02T15:42:20Z</time></trkpt><trkpt lat="45.48236581752393" lon="10.793518655211114"><ele>133.0</ele><time>2026-05-02T15:42:21Z</time></trkpt><trkpt lat="45.4821897658093" lon="10.793566813146002"><ele>133.0</ele><time>2026-05-02T15:42:22Z</time></trkpt><trkpt lat="45.48201008264636" lon="10.79361294315844"><ele>133.0</ele><time>2026-05-02T15:42:23Z</time></trkpt><trkpt lat="45.48183211604708" lon="10.793654823998851"><ele>132.66666666666669</ele><time>2026-05-02T15:42:24Z</time></trkpt><trkpt lat="45.481665336093656" lon="10.79368446904861"><ele>132.33333333333334</ele><time>2026-05-02T15:42:25Z</time></trkpt><trkpt lat="45.48150281971011" lon="10.793690024115351"><ele>132.0</ele><time>2026-05-02T15:42:26Z</time></trkpt><trkpt lat="45.48133952083864" lon="10.793679481724473"><ele>131.66666666666666</ele><time>2026-05-02T15:42:27Z</time></trkpt><trkpt lat="45.48116770204111" lon="10.793661792786123"><ele>131.33333333333331</ele><time>2026-05-02T15:42:28Z</time></trkpt><trkpt lat="45.480981625617304" lon="10.793625853147184"><ele>131.0</ele><time>2026-05-02T15:42:29Z</time></trkpt><trkpt lat="45.48079717524533" lon="10.793566012667531"><ele>131.0</ele><time>2026-05-02T15:42:30Z</time></trkpt><trkpt lat="45.48060656140706" lon="10.793508955869108"><ele>131.0</ele><time>2026-05-02T15:42:31Z</time></trkpt><trkpt lat="45.48042101127027" lon="10.793449743065121"><ele>131.0</ele><time>2026-05-02T15:42:32Z</time></trkpt><trkpt lat="45.48023962629274" lon="10.793384652313526"><ele>131.0</ele><time>2026-05-02T15:42:33Z</time></trkpt><trkpt lat="45.48006574779085" lon="10.793318193345998"><ele>131.0</ele><time>2026-05-02T15:42:34Z</time></trkpt><trkpt lat="45.47990115770451" lon="10.79325354867645"><ele>131.0</ele><time>2026-05-02T15:42:35Z</time></trkpt><trkpt lat="45.47972975114676" lon="10.79319119931726"><ele>130.66666666666666</ele><time>2026-05-02T15:42:36Z</time></trkpt><trkpt lat="45.4795683003608" lon="10.793126387611457"><ele>130.33333333333334</ele><time>2026-05-02T15:42:37Z</time></trkpt><trkpt lat="45.47941128356764" lon="10.793065555828568"><ele>130.0</ele><time>2026-05-02T15:42:38Z</time></trkpt><trkpt lat="45.47925596337724" lon="10.793008118914717"><ele>130.0</ele><time>2026-05-02T15:42:39Z</time></trkpt><trkpt lat="45.4791099782489" lon="10.792965951664904"><ele>130.0</ele><time>2026-05-02T15:42:40Z</time></trkpt><trkpt lat="45.47897532421398" lon="10.792920779129764"><ele>130.0</ele><time>2026-05-02T15:42:41Z</time></trkpt><trkpt lat="45.47884319851449" lon="10.792877006151993"><ele>130.0</ele><time>2026-05-02T15:42:42Z</time></trkpt><trkpt lat="45.47872744655812" lon="10.792834542677456"><ele>130.0</ele><time>2026-05-02T15:42:43Z</time></trkpt><trkpt lat="45.47863547695794" lon="10.792803378587019"><ele>130.0</ele><time>2026-05-02T15:42:44Z</time></trkpt><trkpt lat="45.478563402338025" lon="10.792778034082454"><ele>130.0</ele><time>2026-05-02T15:42:45Z</time></trkpt><trkpt lat="45.47846327912016" lon="10.79274107758608"><ele>130.0</ele><time>2026-05-02T15:42:47Z</time></trkpt><trkpt lat="45.47839078115326" lon="10.792697160747169"><ele>130.0</ele><time>2026-05-02T15:42:49Z</time></trkpt><trkpt lat="45.47831256201365" lon="10.792604795509678"><ele>129.83333333333334</ele><time>2026-05-02T15:42:51Z</time></trkpt><trkpt lat="45.47825071775144" lon="10.792473794062765"><ele>129.66666666666669</ele><time>2026-05-02T15:42:53Z</time></trkpt><trkpt lat="45.478211895814916" lon="10.79238832206258"><ele>129.5</ele><time>2026-05-02T15:42:54Z</time></trkpt><trkpt lat="45.478138589046544" lon="10.792314797846503"><ele>129.33333333333334</ele><time>2026-05-02T15:42:55Z</time></trkpt><trkpt lat="45.47806472204392" lon="10.792290555970633"><ele>129.16666666666666</ele><time>2026-05-02T15:42:56Z</time></trkpt><trkpt lat="45.4779930430095" lon="10.792310581670755"><ele>129.0</ele><time>2026-05-02T15:42:57Z</time></trkpt><trkpt lat="45.47791832195694" lon="10.79236892511681"><ele>129.0</ele><time>2026-05-02T15:42:58Z</time></trkpt><trkpt lat="45.4778194995302" lon="10.792438963339677"><ele>129.0</ele><time>2026-05-02T15:42:59Z</time></trkpt><trkpt lat="45.47771882486574" lon="10.792464445829827"><ele>129.0</ele><time>2026-05-02T15:43:00Z</time></trkpt><trkpt lat="45.47761561287267" lon="10.792458481448609"><ele>129.0</ele><time>2026-05-02T15:43:01Z</time></trkpt><trkpt lat="45.47751776349996" lon="10.79240184760158"><ele>129.0</ele><time>2026-05-02T15:43:02Z</time></trkpt><trkpt lat="45.477412281205716" lon="10.792385017507415"><ele>129.0</ele><time>2026-05-02T15:43:03Z</time></trkpt><trkpt lat="45.47730671896978" lon="10.79234223205403"><ele>129.0</ele><time>2026-05-02T15:43:04Z</time></trkpt><trkpt lat="45.477195868444184" lon="10.792300313676375"><ele>129.0</ele><time>2026-05-02T15:43:04.999Z</time></trkpt><trkpt lat="45.47707028791097" lon="10.79225906737201"><ele>129.0</ele><time>2026-05-02T15:43:05.999Z</time></trkpt><trkpt lat="45.476942303493566" lon="10.79221833652402"><ele>129.25</ele><time>2026-05-02T15:43:06.999Z</time></trkpt><trkpt lat="45.47682060032906" lon="10.792176520306478"><ele>129.5</ele><time>2026-05-02T15:43:07.999Z</time></trkpt><trkpt lat="45.47670916388172" lon="10.792139049645272"><ele>129.75</ele><time>2026-05-02T15:43:08.999Z</time></trkpt><trkpt lat="45.476594587083746" lon="10.792104369514009"><ele>130.0</ele><time>2026-05-02T15:43:09.999Z</time></trkpt><trkpt lat="45.47647436814786" lon="10.792084903243367"><ele>130.0</ele><time>2026-05-02T15:43:10.999Z</time></trkpt><trkpt lat="45.47634928741137" lon="10.79207182547796"><ele>130.0</ele><time>2026-05-02T15:43:11.999Z</time></trkpt><trkpt lat="45.47620760793513" lon="10.792043726601282"><ele>130.0</ele><time>2026-05-02T15:43:12.999Z</time></trkpt><trkpt lat="45.47603157611214" lon="10.792030102085256"><ele>130.0</ele><time>2026-05-02T15:43:13.999Z</time></trkpt><trkpt lat="45.475841147061665" lon="10.792018638571575"><ele>130.33333333333334</ele><time>2026-05-02T15:43:14.999Z</time></trkpt><trkpt lat="45.47564414019665" lon="10.792006658839066"><ele>130.66666666666666</ele><time>2026-05-02T15:43:15.999Z</time></trkpt><trkpt lat="45.47543179211405" lon="10.791989036902642"><ele>131.0</ele><time>2026-05-02T15:43:16.999Z</time></trkpt><trkpt lat="45.47517709554859" lon="10.791965281481078"><ele>131.0</ele><time>2026-05-02T15:43:17.999Z</time></trkpt><trkpt lat="45.474927815534656" lon="10.791949813077276"><ele>131.0</ele><time>2026-05-02T15:43:18.999Z</time></trkpt><trkpt lat="45.474709120407944" lon="10.791933979299168"><ele>130.66666666666666</ele><time>2026-05-02T15:43:19.999Z</time></trkpt><trkpt lat="45.474498214769476" lon="10.791930415964773"><ele>130.33333333333334</ele><time>2026-05-02T15:43:20.999Z</time></trkpt><trkpt lat="45.47429285522293" lon="10.791907133850508"><ele>130.0</ele><time>2026-05-02T15:43:21.999Z</time></trkpt><trkpt lat="45.47407706112958" lon="10.791896583662636"><ele>130.0</ele><time>2026-05-02T15:43:22.999Z</time></trkpt><trkpt lat="45.473857571255294" lon="10.791885486799938"><ele>130.0</ele><time>2026-05-02T15:43:23.999Z</time></trkpt><trkpt lat="45.47363206106933" lon="10.791871665454039"><ele>130.0</ele><time>2026-05-02T15:43:24.999Z</time></trkpt><trkpt lat="45.47340628003967" lon="10.79186181520497"><ele>129.33333333333334</ele><time>2026-05-02T15:43:25.999Z</time></trkpt><trkpt lat="45.47318563977787" lon="10.791846432777437"><ele>128.66666666666666</ele><time>2026-05-02T15:43:26.999Z</time></trkpt><trkpt lat="45.472964893104404" lon="10.791826786857577"><ele>128.0</ele><time>2026-05-02T15:43:27.999Z</time></trkpt><trkpt lat="45.47274016718733" lon="10.79180574373563"><ele>128.0</ele><time>2026-05-02T15:43:29Z</time></trkpt><trkpt lat="45.47250699603829" lon="10.791793093312721"><ele>128.0</ele><time>2026-05-02T15:43:30Z</time></trkpt><trkpt lat="45.47225654596854" lon="10.791793398835573"><ele>128.5</ele><time>2026-05-02T15:43:31Z</time></trkpt><trkpt lat="45.47197985190564" lon="10.791839513762756"><ele>129.0</ele><time>2026-05-02T15:43:32Z</time></trkpt><trkpt lat="45.47170012615864" lon="10.79190102114097"><ele>129.0</ele><time>2026-05-02T15:43:33Z</time></trkpt><trkpt lat="45.47142713662517" lon="10.791967811480198"><ele>129.0</ele><time>2026-05-02T15:43:34Z</time></trkpt><trkpt lat="45.47115803026787" lon="10.792052516622753"><ele>128.0</ele><time>2026-05-02T15:43:35Z</time></trkpt><trkpt lat="45.47089298059167" lon="10.79215991379309"><ele>127.0</ele><time>2026-05-02T15:43:36Z</time></trkpt><trkpt lat="45.47063417763646" lon="10.792265259438087"><ele>128.5</ele><time>2026-05-02T15:43:37Z</time></trkpt><trkpt lat="45.47038208478513" lon="10.792366383524879"><ele>130.0</ele><time>2026-05-02T15:43:38Z</time></trkpt><trkpt lat="45.47013527944412" lon="10.792467359140032"><ele>130.0</ele><time>2026-05-02T15:43:39Z</time></trkpt><trkpt lat="45.469885256289984" lon="10.792567209445982"><ele>130.0</ele><time>2026-05-02T15:43:40Z</time></trkpt><trkpt lat="45.46963787883906" lon="10.792669458484072"><ele>130.0</ele><time>2026-05-02T15:43:41Z</time></trkpt><trkpt lat="45.46938903062035" lon="10.792764736175782"><ele>130.0</ele><time>2026-05-02T15:43:42Z</time></trkpt><trkpt lat="45.46914731239622" lon="10.792853656182277"><ele>130.0</ele><time>2026-05-02T15:43:43Z</time></trkpt><trkpt lat="45.468917890766036" lon="10.792907992382471"><ele>130.0</ele><time>2026-05-02T15:43:44Z</time></trkpt><trkpt lat="45.468685517817" lon="10.792921257959025"><ele>129.5</ele><time>2026-05-02T15:43:45Z</time></trkpt><trkpt lat="45.468447763959986" lon="10.79289966982447"><ele>129.0</ele><time>2026-05-02T15:43:46Z</time></trkpt><trkpt lat="45.468215650804765" lon="10.792842943937842"><ele>129.0</ele><time>2026-05-02T15:43:47Z</time></trkpt><trkpt lat="45.46799601087067" lon="10.79275261298683"><ele>129.0</ele><time>2026-05-02T15:43:48Z</time></trkpt><trkpt lat="45.46778108305994" lon="10.792634951352417"><ele>134.5</ele><time>2026-05-02T15:43:49Z</time></trkpt><trkpt lat="45.4675676957294" lon="10.792488164632472"><ele>140.0</ele><time>2026-05-02T15:43:50Z</time></trkpt><trkpt lat="45.46734126179086" lon="10.792338397072106"><ele>140.0</ele><time>2026-05-02T15:43:51Z</time></trkpt><trkpt lat="45.467115320122396" lon="10.792192001948708"><ele>140.0</ele><time>2026-05-02T15:43:52Z</time></trkpt><trkpt lat="45.46689430786223" lon="10.79204288299578"><ele>143.0</ele><time>2026-05-02T15:43:53Z</time></trkpt><trkpt lat="45.46668021427081" lon="10.791898881741478"><ele>146.0</ele><time>2026-05-02T15:43:54Z</time></trkpt><trkpt lat="45.46647537627493" lon="10.791772752240291"><ele>147.0</ele><time>2026-05-02T15:43:55Z</time></trkpt><trkpt lat="45.46626952797211" lon="10.791665133046733"><ele>148.0</ele><time>2026-05-02T15:43:56Z</time></trkpt><trkpt lat="45.46604036530776" lon="10.791589127284212"><ele>148.0</ele><time>2026-05-02T15:43:57Z</time></trkpt><trkpt lat="45.46580627179345" lon="10.791520413125411"><ele>148.0</ele><time>2026-05-02T15:43:58Z</time></trkpt><trkpt lat="45.46558155765185" lon="10.791420268866196"><ele>148.33333333333334</ele><time>2026-05-02T15:43:59Z</time></trkpt><trkpt lat="45.46538246679394" lon="10.791275299678787"><ele>148.66666666666666</ele><time>2026-05-02T15:44:00Z</time></trkpt><trkpt lat="45.465212484935314" lon="10.791089709378806"><ele>149.0</ele><time>2026-05-02T15:44:01Z</time></trkpt><trkpt lat="45.4650637229522" lon="10.790857385708637"><ele>150.0</ele><time>2026-05-02T15:44:02Z</time></trkpt><trkpt lat="45.46492930018032" lon="10.79060860936034"><ele>151.0</ele><time>2026-05-02T15:44:03Z</time></trkpt><trkpt lat="45.46481094720471" lon="10.790347796002786"><ele>152.0</ele><time>2026-05-02T15:44:04Z</time></trkpt><trkpt lat="45.46470185297075" lon="10.790105833867802"><ele>153.25</ele><time>2026-05-02T15:44:05Z</time></trkpt><trkpt lat="45.46461286115893" lon="10.789895118680873"><ele>154.5</ele><time>2026-05-02T15:44:06Z</time></trkpt><trkpt lat="45.464536395567094" lon="10.789732102940329"><ele>155.75</ele><time>2026-05-02T15:44:07Z</time></trkpt><trkpt lat="45.46445849363317" lon="10.789592579668556"><ele>157.0</ele><time>2026-05-02T15:44:08Z</time></trkpt><trkpt lat="45.46437682884461" lon="10.789476135725542"><ele>157.0</ele><time>2026-05-02T15:44:09Z</time></trkpt><trkpt lat="45.46429216232371" lon="10.78936850753832"><ele>157.0</ele><time>2026-05-02T15:44:10Z</time></trkpt><trkpt lat="45.46419694041416" lon="10.789261763661663"><ele>157.0</ele><time>2026-05-02T15:44:11Z</time></trkpt><trkpt lat="45.46410963911408" lon="10.789161053934798"><ele>157.0</ele><time>2026-05-02T15:44:12Z</time></trkpt><trkpt lat="45.46402885645419" lon="10.789062649807978"><ele>157.2</ele><time>2026-05-02T15:44:13Z</time></trkpt><trkpt lat="45.463946193677245" lon="10.78896221802557"><ele>157.39999999999998</ele><time>2026-05-02T15:44:14Z</time></trkpt><trkpt lat="45.46388053467213" lon="10.788861630239033"><ele>157.60000000000002</ele><time>2026-05-02T15:44:15Z</time></trkpt><trkpt lat="45.46382416203192" lon="10.788754398622123"><ele>157.8</ele><time>2026-05-02T15:44:16Z</time></trkpt><trkpt lat="45.4637692531103" lon="10.788631517617528"><ele>158.0</ele><time>2026-05-02T15:44:17Z</time></trkpt><trkpt lat="45.463711764363666" lon="10.78849892737384"><ele>158.20000000000002</ele><time>2026-05-02T15:44:18Z</time></trkpt><trkpt lat="45.46364906808567" lon="10.788370521402049"><ele>158.4</ele><time>2026-05-02T15:44:19Z</time></trkpt><trkpt lat="45.46358345495851" lon="10.788249626711663"><ele>158.60000000000002</ele><time>2026-05-02T15:44:20Z</time></trkpt><trkpt lat="45.46352331203779" lon="10.788138006591115"><ele>158.8</ele><time>2026-05-02T15:44:21Z</time></trkpt><trkpt lat="45.463457343852724" lon="10.788034795676523"><ele>159.0</ele><time>2026-05-02T15:44:22Z</time></trkpt><trkpt lat="45.46338206365638" lon="10.787926498304017"><ele>159.0</ele><time>2026-05-02T15:44:23Z</time></trkpt><trkpt lat="45.46331315111121" lon="10.78783308569353"><ele>159.0</ele><time>2026-05-02T15:44:24Z</time></trkpt><trkpt lat="45.46325731227636" lon="10.787757606066245"><ele>159.0</ele><time>2026-05-02T15:44:25Z</time></trkpt><trkpt lat="45.46320178045136" lon="10.787684811970532"><ele>159.0</ele><time>2026-05-02T15:44:26Z</time></trkpt><trkpt lat="45.463139908078084" lon="10.78760216214726"><ele>159.0</ele><time>2026-05-02T15:44:27Z</time></trkpt><trkpt lat="45.46306806151601" lon="10.787508778079388"><ele>159.0</ele><time>2026-05-02T15:44:28Z</time></trkpt><trkpt lat="45.46298592220489" lon="10.787402665462343"><ele>158.0</ele><time>2026-05-02T15:44:29Z</time></trkpt><trkpt lat="45.462896689788344" lon="10.787284021185782"><ele>157.0</ele><time>2026-05-02T15:44:30Z</time></trkpt><trkpt lat="45.46280586874949" lon="10.787159223908086"><ele>156.0</ele><time>2026-05-02T15:44:31Z</time></trkpt><trkpt lat="45.462709609642154" lon="10.787033455898305"><ele>155.0</ele><time>2026-05-02T15:44:32Z</time></trkpt><trkpt lat="45.46261145167137" lon="10.786902999507967"><ele>154.25</ele><time>2026-05-02T15:44:33Z</time></trkpt><trkpt lat="45.46251343844846" lon="10.786768837078714"><ele>153.5</ele><time>2026-05-02T15:44:34Z</time></trkpt><trkpt lat="45.462415786752715" lon="10.786630554359464"><ele>152.75</ele><time>2026-05-02T15:44:35Z</time></trkpt><trkpt lat="45.46231942703194" lon="10.786492135707837"><ele>152.0</ele><time>2026-05-02T15:44:36Z</time></trkpt><trkpt lat="45.46222075180506" lon="10.786356096389127"><ele>152.0</ele><time>2026-05-02T15:44:37Z</time></trkpt><trkpt lat="45.462124546374646" lon="10.786220847220717"><ele>152.0</ele><time>2026-05-02T15:44:38Z</time></trkpt><trkpt lat="45.462033824801516" lon="10.78609146438547"><ele>152.0</ele><time>2026-05-02T15:44:39Z</time></trkpt><trkpt lat="45.46195584466661" lon="10.785983213006004"><ele>152.0</ele><time>2026-05-02T15:44:40Z</time></trkpt><trkpt lat="45.461879444863335" lon="10.785879471306785"><ele>151.79999999999998</ele><time>2026-05-02T15:44:41Z</time></trkpt><trkpt lat="45.46180146145366" lon="10.78577484356447"><ele>151.6</ele><time>2026-05-02T15:44:42Z</time></trkpt><trkpt lat="45.461725020253205" lon="10.78566951225274"><ele>151.39999999999998</ele><time>2026-05-02T15:44:43Z</time></trkpt><trkpt lat="45.46164786057484" lon="10.785559267505223"><ele>151.2</ele><time>2026-05-02T15:44:44Z</time></trkpt><trkpt lat="45.461576058565356" lon="10.785456055724541"><ele>151.0</ele><time>2026-05-02T15:44:45Z</time></trkpt><trkpt lat="45.46150483535068" lon="10.785355688077315"><ele>151.0</ele><time>2026-05-02T15:44:46Z</time></trkpt><trkpt lat="45.46143240229477" lon="10.785252468107105"><ele>151.0</ele><time>2026-05-02T15:44:47Z</time></trkpt><trkpt lat="45.4613592906147" lon="10.785155260297952"><ele>151.0</ele><time>2026-05-02T15:44:48Z</time></trkpt><trkpt lat="45.46128603474217" lon="10.785053226967015"><ele>151.0</ele><time>2026-05-02T15:44:49Z</time></trkpt><trkpt lat="45.46121318029654" lon="10.784943326968376"><ele>151.0</ele><time>2026-05-02T15:44:50Z</time></trkpt><trkpt lat="45.46114550269549" lon="10.784820691621249"><ele>150.4</ele><time>2026-05-02T15:44:51Z</time></trkpt><trkpt lat="45.46108139427335" lon="10.784689689668156"><ele>149.8</ele><time>2026-05-02T15:44:52Z</time></trkpt><trkpt lat="45.46102755826585" lon="10.784558212186854"><ele>149.20000000000002</ele><time>2026-05-02T15:44:53Z</time></trkpt><trkpt lat="45.4609769423636" lon="10.784428961932491"><ele>148.6</ele><time>2026-05-02T15:44:54Z</time></trkpt><trkpt lat="45.46092845862996" lon="10.784302651335585"><ele>148.0</ele><time>2026-05-02T15:44:55Z</time></trkpt><trkpt lat="45.46088051377883" lon="10.78417255782743"><ele>147.8</ele><time>2026-05-02T15:44:56Z</time></trkpt><trkpt lat="45.460831175890874" lon="10.784036449141187"><ele>147.60000000000002</ele><time>2026-05-02T15:44:57Z</time></trkpt><trkpt lat="45.46078021861584" lon="10.783895062096748"><ele>147.39999999999998</ele><time>2026-05-02T15:44:58.001Z</time></trkpt><trkpt lat="45.460728663088865" lon="10.783760206652165"><ele>147.2</ele><time>2026-05-02T15:44:59.001Z</time></trkpt><trkpt lat="45.46067827299632" lon="10.783624032056409"><ele>147.0</ele><time>2026-05-02T15:45:00.001Z</time></trkpt><trkpt lat="45.460630756899924" lon="10.783486287501313"><ele>147.0</ele><time>2026-05-02T15:45:01.001Z</time></trkpt><trkpt lat="45.46058453707516" lon="10.783350451734794"><ele>147.0</ele><time>2026-05-02T15:45:02.001Z</time></trkpt><trkpt lat="45.46053871455636" lon="10.783216926783526"><ele>147.0</ele><time>2026-05-02T15:45:03.001Z</time></trkpt><trkpt lat="45.46049117969689" lon="10.783086465185873"><ele>147.0</ele><time>2026-05-02T15:45:04.001Z</time></trkpt><trkpt lat="45.4604433826013" lon="10.782960766804605"><ele>147.0</ele><time>2026-05-02T15:45:05.001Z</time></trkpt><trkpt lat="45.46039910881455" lon="10.782843014844776"><ele>146.33333333333334</ele><time>2026-05-02T15:45:06.001Z</time></trkpt><trkpt lat="45.460357494878174" lon="10.782733018202329"><ele>145.66666666666666</ele><time>2026-05-02T15:45:07.001Z</time></trkpt><trkpt lat="45.46031165832639" lon="10.782632458628315"><ele>145.0</ele><time>2026-05-02T15:45:08.001Z</time></trkpt><trkpt lat="45.46026480610403" lon="10.782539679745847"><ele>144.33333333333331</ele><time>2026-05-02T15:45:09.001Z</time></trkpt><trkpt lat="45.46021374970293" lon="10.782451847881548"><ele>143.66666666666666</ele><time>2026-05-02T15:45:10.001Z</time></trkpt><trkpt lat="45.46016603858319" lon="10.782374735732066"><ele>143.0</ele><time>2026-05-02T15:45:10.999Z</time></trkpt><trkpt lat="45.46011669641461" lon="10.782299225595665"><ele>142.66666666666666</ele><time>2026-05-02T15:45:11.999Z</time></trkpt><trkpt lat="45.460070512240044" lon="10.782230811025713"><ele>142.33333333333331</ele><time>2026-05-02T15:45:12.999Z</time></trkpt><trkpt lat="45.45998373143204" lon="10.782112119167197"><ele>142.0</ele><time>2026-05-02T15:45:14.999Z</time></trkpt><trkpt lat="45.45989914748193" lon="10.781991716042615"><ele>141.66666666666666</ele><time>2026-05-02T15:45:16.999Z</time></trkpt><trkpt lat="45.45986178792218" lon="10.781915601357111"><ele>141.33333333333334</ele><time>2026-05-02T15:45:17.999Z</time></trkpt><trkpt lat="45.45983705881617" lon="10.781824672819617"><ele>141.0</ele><time>2026-05-02T15:45:18.999Z</time></trkpt><trkpt lat="45.45977116204662" lon="10.781799045899449"><ele>140.6</ele><time>2026-05-02T15:45:19.999Z</time></trkpt><trkpt lat="45.45965377963962" lon="10.781713389441519"><ele>140.2</ele><time>2026-05-02T15:45:21.999Z</time></trkpt><trkpt lat="45.45958172559134" lon="10.781648232297282"><ele>139.8</ele><time>2026-05-02T15:45:23Z</time></trkpt><trkpt lat="45.459496095051406" lon="10.781559370346713"><ele>139.4</ele><time>2026-05-02T15:45:24Z</time></trkpt><trkpt lat="45.45939498796652" lon="10.781456288611114"><ele>139.0</ele><time>2026-05-02T15:45:25Z</time></trkpt><trkpt lat="45.45927041990729" lon="10.781324185891615"><ele>138.0</ele><time>2026-05-02T15:45:26Z</time></trkpt><trkpt lat="45.45913992715822" lon="10.781120375350708"><ele>137.0</ele><time>2026-05-02T15:45:27Z</time></trkpt><trkpt lat="45.459004459777006" lon="10.780961733774577"><ele>136.0</ele><time>2026-05-02T15:45:28Z</time></trkpt><trkpt lat="45.4588523493058" lon="10.780835360259161"><ele>136.0</ele><time>2026-05-02T15:45:29Z</time></trkpt><trkpt lat="45.45871890611978" lon="10.780668183415548"><ele>136.0</ele><time>2026-05-02T15:45:30Z</time></trkpt><trkpt lat="45.45860223030227" lon="10.780519858070559"><ele>136.0</ele><time>2026-05-02T15:45:31Z</time></trkpt><trkpt lat="45.45850867051482" lon="10.780401677955398"><ele>136.0</ele><time>2026-05-02T15:45:32Z</time></trkpt><trkpt lat="45.4584271228699" lon="10.780298137397711"><ele>136.0</ele><time>2026-05-02T15:45:33Z</time></trkpt><trkpt lat="45.45834451080471" lon="10.780194956526366"><ele>136.0</ele><time>2026-05-02T15:45:34Z</time></trkpt><trkpt lat="45.45825624758323" lon="10.780091337757025"><ele>136.0</ele><time>2026-05-02T15:45:35Z</time></trkpt><trkpt lat="45.45816981568881" lon="10.779997570400798"><ele>136.0</ele><time>2026-05-02T15:45:36Z</time></trkpt><trkpt lat="45.45808290930122" lon="10.779916577615383"><ele>135.25</ele><time>2026-05-02T15:45:37Z</time></trkpt><trkpt lat="45.45798106414855" lon="10.779840655987773"><ele>134.5</ele><time>2026-05-02T15:45:38Z</time></trkpt><trkpt lat="45.45787219366301" lon="10.77978042437722"><ele>133.75</ele><time>2026-05-02T15:45:39Z</time></trkpt><trkpt lat="45.45776891006395" lon="10.77970003749096"><ele>133.0</ele><time>2026-05-02T15:45:40Z</time></trkpt><trkpt lat="45.457644569471725" lon="10.779626193054956"><ele>132.0</ele><time>2026-05-02T15:45:41Z</time></trkpt><trkpt lat="45.45748136411492" lon="10.77952997143323"><ele>131.0</ele><time>2026-05-02T15:45:42Z</time></trkpt><trkpt lat="45.457317158870104" lon="10.779433377367228"><ele>130.0</ele><time>2026-05-02T15:45:43Z</time></trkpt><trkpt lat="45.457153833606775" lon="10.77933730094999"><ele>128.66666666666669</ele><time>2026-05-02T15:45:44Z</time></trkpt><trkpt lat="45.45698988625218" lon="10.779264074249166"><ele>127.33333333333334</ele><time>2026-05-02T15:45:45Z</time></trkpt><trkpt lat="45.456843488845884" lon="10.77917849681751"><ele>126.0</ele><time>2026-05-02T15:45:46Z</time></trkpt><trkpt lat="45.45670628001015" lon="10.779097594748901"><ele>126.0</ele><time>2026-05-02T15:45:47Z</time></trkpt><trkpt lat="45.4565651316075" lon="10.77901385068224"><ele>126.0</ele><time>2026-05-02T15:45:48Z</time></trkpt><trkpt lat="45.4564108699524" lon="10.77890025107723"><ele>126.0</ele><time>2026-05-02T15:45:49Z</time></trkpt><trkpt lat="45.45621252454433" lon="10.778783573989893"><ele>124.0</ele><time>2026-05-02T15:45:50Z</time></trkpt><trkpt lat="45.455987197387174" lon="10.778651024833568"><ele>122.0</ele><time>2026-05-02T15:45:51Z</time></trkpt><trkpt lat="45.4557653877164" lon="10.778521535906444"><ele>122.0</ele><time>2026-05-02T15:45:52Z</time></trkpt><trkpt lat="45.45555758303499" lon="10.778401847120696"><ele>122.0</ele><time>2026-05-02T15:45:53Z</time></trkpt><trkpt lat="45.45536225942873" lon="10.778289347098271"><ele>122.0</ele><time>2026-05-02T15:45:54Z</time></trkpt><trkpt lat="45.45517499044931" lon="10.778179288633215"><ele>121.33333333333333</ele><time>2026-05-02T15:45:55Z</time></trkpt><trkpt lat="45.45499042316375" lon="10.7780703089557"><ele>120.66666666666666</ele><time>2026-05-02T15:45:56Z</time></trkpt><trkpt lat="45.454798480332144" lon="10.777956974255739"><ele>120.0</ele><time>2026-05-02T15:45:57Z</time></trkpt><trkpt lat="45.45460964617721" lon="10.777865002543113"><ele>119.66666666666666</ele><time>2026-05-02T15:45:58Z</time></trkpt><trkpt lat="45.45443976040764" lon="10.777756583945228"><ele>119.33333333333333</ele><time>2026-05-02T15:45:59Z</time></trkpt><trkpt lat="45.454280050838136" lon="10.777654672473073"><ele>119.0</ele><time>2026-05-02T15:46:00Z</time></trkpt><trkpt lat="45.45412898106664" lon="10.777546168919715"><ele>118.66666666666666</ele><time>2026-05-02T15:46:01Z</time></trkpt><trkpt lat="45.453980721796356" lon="10.777424318718388"><ele>118.33333333333334</ele><time>2026-05-02T15:46:02Z</time></trkpt><trkpt lat="45.45383619612331" lon="10.777299347133965"><ele>118.0</ele><time>2026-05-02T15:46:03Z</time></trkpt><trkpt lat="45.45369615746444" lon="10.777171568163318"><ele>118.0</ele><time>2026-05-02T15:46:04Z</time></trkpt><trkpt lat="45.4535723674355" lon="10.777044555234857"><ele>118.0</ele><time>2026-05-02T15:46:05Z</time></trkpt><trkpt lat="45.45346082690007" lon="10.77691769568434"><ele>118.0</ele><time>2026-05-02T15:46:06Z</time></trkpt><trkpt lat="45.453349178666784" lon="10.776791074916833"><ele>118.0</ele><time>2026-05-02T15:46:07Z</time></trkpt><trkpt lat="45.45327324204182" lon="10.776674436766799"><ele>118.25</ele><time>2026-05-02T15:46:08Z</time></trkpt><trkpt lat="45.45319152022938" lon="10.776578741092454"><ele>118.5</ele><time>2026-05-02T15:46:09Z</time></trkpt><trkpt lat="45.45310211650916" lon="10.776474049736013"><ele>118.75</ele><time>2026-05-02T15:46:10Z</time></trkpt><trkpt lat="45.45299413758531" lon="10.776347606957813"><ele>119.0</ele><time>2026-05-02T15:46:11Z</time></trkpt><trkpt lat="45.45288902050349" lon="10.776223920268702"><ele>118.99999999999999</ele><time>2026-05-02T15:46:12Z</time></trkpt><trkpt lat="45.45280550588222" lon="10.776136192139965"><ele>119.0</ele><time>2026-05-02T15:46:13Z</time></trkpt><trkpt lat="45.45277223579377" lon="10.776045194666892"><ele>119.0</ele><time>2026-05-02T15:46:14Z</time></trkpt><trkpt lat="45.45276790313401" lon="10.775930430939518"><ele>119.0</ele><time>2026-05-02T15:46:15Z</time></trkpt><trkpt lat="45.452761652477434" lon="10.775806360143664"><ele>118.99999999999999</ele><time>2026-05-02T15:46:16Z</time></trkpt><trkpt lat="45.452733410572996" lon="10.775692969191395"><ele>119.0</ele><time>2026-05-02T15:46:17Z</time></trkpt><trkpt lat="45.45262523720595" lon="10.775606188668538"><ele>118.66666666666666</ele><time>2026-05-02T15:46:19Z</time></trkpt><trkpt lat="45.45249816556803" lon="10.775598629098187"><ele>118.33333333333334</ele><time>2026-05-02T15:46:20Z</time></trkpt><trkpt lat="45.45234702614849" lon="10.775600557579414"><ele>118.0</ele><time>2026-05-02T15:46:21Z</time></trkpt><trkpt lat="45.452183656708975" lon="10.775424697152149"><ele>118.0</ele><time>2026-05-02T15:46:22Z</time></trkpt><trkpt lat="45.45203496903011" lon="10.775224395460123"><ele>118.0</ele><time>2026-05-02T15:46:23Z</time></trkpt><trkpt lat="45.451846413727566" lon="10.775005478838517"><ele>118.0</ele><time>2026-05-02T15:46:24Z</time></trkpt><trkpt lat="45.451633436211786" lon="10.77475820766361"><ele>118.0</ele><time>2026-05-02T15:46:25Z</time></trkpt><trkpt lat="45.45142010443836" lon="10.774510261189528"><ele>118.0</ele><time>2026-05-02T15:46:26Z</time></trkpt><trkpt lat="45.45113858166862" lon="10.774197110556292"><ele>118.0</ele><time>2026-05-02T15:46:27Z</time></trkpt><trkpt lat="45.450891771702395" lon="10.773918581487155"><ele>118.0</ele><time>2026-05-02T15:46:28Z</time></trkpt><trkpt lat="45.45067422496371" lon="10.773666890048862"><ele>118.5</ele><time>2026-05-02T15:46:29Z</time></trkpt><trkpt lat="45.45047332290582" lon="10.773424886365843"><ele>119.0</ele><time>2026-05-02T15:46:30Z</time></trkpt><trkpt lat="45.450310406861576" lon="10.773154633562806"><ele>117.5</ele><time>2026-05-02T15:46:31Z</time></trkpt><trkpt lat="45.45016735548025" lon="10.772876295673736"><ele>116.0</ele><time>2026-05-02T15:46:32Z</time></trkpt><trkpt lat="45.450047864963125" lon="10.772586413652455"><ele>116.0</ele><time>2026-05-02T15:46:33Z</time></trkpt><trkpt lat="45.44993628943798" lon="10.77225595471393"><ele>116.0</ele><time>2026-05-02T15:46:34Z</time></trkpt><trkpt lat="45.449825635843624" lon="10.771864964339244"><ele>115.0</ele><time>2026-05-02T15:46:35Z</time></trkpt><trkpt lat="45.449716819734405" lon="10.77150325494813"><ele>114.0</ele><time>2026-05-02T15:46:36Z</time></trkpt><trkpt lat="45.44959188546571" lon="10.771173874336261"><ele>114.5</ele><time>2026-05-02T15:46:37Z</time></trkpt><trkpt lat="45.44945833117307" lon="10.770835003521167"><ele>115.0</ele><time>2026-05-02T15:46:38Z</time></trkpt><trkpt lat="45.44931261881085" lon="10.770513962269343"><ele>115.0</ele><time>2026-05-02T15:46:39Z</time></trkpt><trkpt lat="45.44913682555275" lon="10.770245335416787"><ele>115.0</ele><time>2026-05-02T15:46:40Z</time></trkpt><trkpt lat="45.44895283474406" lon="10.769975383184805"><ele>114.0</ele><time>2026-05-02T15:46:41Z</time></trkpt><trkpt lat="45.4487581123468" lon="10.769719551399572"><ele>113.0</ele><time>2026-05-02T15:46:42Z</time></trkpt><trkpt lat="45.44855655545322" lon="10.769486449319716"><ele>113.5</ele><time>2026-05-02T15:46:43Z</time></trkpt><trkpt lat="45.44834276762013" lon="10.769280608001147"><ele>114.0</ele><time>2026-05-02T15:46:44Z</time></trkpt><trkpt lat="45.4481236018863" lon="10.769104481045337"><ele>114.5</ele><time>2026-05-02T15:46:45Z</time></trkpt><trkpt lat="45.44789568569651" lon="10.76892727922829"><ele>115.0</ele><time>2026-05-02T15:46:46.001Z</time></trkpt><trkpt lat="45.44764887938208" lon="10.768756929024073"><ele>115.0</ele><time>2026-05-02T15:46:47.001Z</time></trkpt><trkpt lat="45.44738358156481" lon="10.768592373547751"><ele>115.0</ele><time>2026-05-02T15:46:48.001Z</time></trkpt><trkpt lat="45.44712627693893" lon="10.768435395990485"><ele>113.5</ele><time>2026-05-02T15:46:49.001Z</time></trkpt><trkpt lat="45.44688880909904" lon="10.768284815457799"><ele>112.0</ele><time>2026-05-02T15:46:50.001Z</time></trkpt><trkpt lat="45.44666043577764" lon="10.768150039143194"><ele>112.0</ele><time>2026-05-02T15:46:51.001Z</time></trkpt><trkpt lat="45.4464121482671" lon="10.76803738660256"><ele>112.0</ele><time>2026-05-02T15:46:52.001Z</time></trkpt><trkpt lat="45.446154488163245" lon="10.767960138755557"><ele>113.0</ele><time>2026-05-02T15:46:53.001Z</time></trkpt><trkpt lat="45.44590540876738" lon="10.767839954204561"><ele>114.0</ele><time>2026-05-02T15:46:54.001Z</time></trkpt><trkpt lat="45.44560753932078" lon="10.767926355159526"><ele>115.0</ele><time>2026-05-02T15:46:55.001Z</time></trkpt><trkpt lat="45.44530609065561" lon="10.767959718665608"><ele>116.0</ele><time>2026-05-02T15:46:56.001Z</time></trkpt><trkpt lat="45.44496858134161" lon="10.768010821857425"><ele>116.0</ele><time>2026-05-02T15:46:57.001Z</time></trkpt><trkpt lat="45.444607261355465" lon="10.768056900548743"><ele>116.0</ele><time>2026-05-02T15:46:58.001Z</time></trkpt><trkpt lat="45.44425098036134" lon="10.76809537513853"><ele>116.0</ele><time>2026-05-02T15:46:59.001Z</time></trkpt><trkpt lat="45.44390685980463" lon="10.768126594953065"><ele>116.0</ele><time>2026-05-02T15:47:00.001Z</time></trkpt><trkpt lat="45.44359716366775" lon="10.768162168064642"><ele>115.5</ele><time>2026-05-02T15:47:01.001Z</time></trkpt><trkpt lat="45.44328954957575" lon="10.768188820814348"><ele>115.0</ele><time>2026-05-02T15:47:02.001Z</time></trkpt><trkpt lat="45.44297340274565" lon="10.768222300996147"><ele>117.0</ele><time>2026-05-02T15:47:03.001Z</time></trkpt><trkpt lat="45.44266732852199" lon="10.768253200869202"><ele>119.0</ele><time>2026-05-02T15:47:04.001Z</time></trkpt><trkpt lat="45.442392418392565" lon="10.768283767705126"><ele>119.0</ele><time>2026-05-02T15:47:05.001Z</time></trkpt><trkpt lat="45.44215176339441" lon="10.768306245248771"><ele>119.0</ele><time>2026-05-02T15:47:06.001Z</time></trkpt><trkpt lat="45.44193467903211" lon="10.768321648816881"><ele>119.33333333333333</ele><time>2026-05-02T15:47:07.001Z</time></trkpt><trkpt lat="45.44171737571414" lon="10.768296887763244"><ele>119.66666666666666</ele><time>2026-05-02T15:47:08.001Z</time></trkpt><trkpt lat="45.441503761062414" lon="10.76823595109696"><ele>120.0</ele><time>2026-05-02T15:47:09.001Z</time></trkpt><trkpt lat="45.4413035994107" lon="10.76815813191046"><ele>120.33333333333334</ele><time>2026-05-02T15:47:10.001Z</time></trkpt><trkpt lat="45.44111060963535" lon="10.768097953901522"><ele>120.66666666666667</ele><time>2026-05-02T15:47:11.001Z</time></trkpt><trkpt lat="45.44092814870936" lon="10.768047771652896"><ele>121.0</ele><time>2026-05-02T15:47:12.001Z</time></trkpt><trkpt lat="45.44075296174777" lon="10.768007256453751"><ele>121.0</ele><time>2026-05-02T15:47:13.001Z</time></trkpt><trkpt lat="45.44058822282236" lon="10.76796000720851"><ele>121.0</ele><time>2026-05-02T15:47:14.001Z</time></trkpt><trkpt lat="45.440444352969934" lon="10.767915484674749"><ele>121.0</ele><time>2026-05-02T15:47:15.001Z</time></trkpt><trkpt lat="45.44031182787156" lon="10.767872484684785"><ele>120.6</ele><time>2026-05-02T15:47:16.001Z</time></trkpt><trkpt lat="45.44018145945647" lon="10.767830187307414"><ele>120.19999999999999</ele><time>2026-05-02T15:47:16.999Z</time></trkpt><trkpt lat="45.44005739776134" lon="10.76778511642736"><ele>119.80000000000001</ele><time>2026-05-02T15:47:17.999Z</time></trkpt><trkpt lat="45.43995265180272" lon="10.767742297381538"><ele>119.4</ele><time>2026-05-02T15:47:18.999Z</time></trkpt><trkpt lat="45.43988492734315" lon="10.767706787367107"><ele>119.0</ele><time>2026-05-02T15:47:19.999Z</time></trkpt><trkpt lat="45.43977913414889" lon="10.767604277615666"><ele>118.66666666666666</ele><time>2026-05-02T15:47:21.999Z</time></trkpt><trkpt lat="45.43971001726568" lon="10.767479756463167"><ele>118.33333333333334</ele><time>2026-05-02T15:47:22.999Z</time></trkpt><trkpt lat="45.439628327851636" lon="10.767273564554579"><ele>118.0</ele><time>2026-05-02T15:47:23.999Z</time></trkpt><trkpt lat="45.43951809407177" lon="10.767003759692765"><ele>116.0</ele><time>2026-05-02T15:47:25Z</time></trkpt><trkpt lat="45.43940922000055" lon="10.76672883958589"><ele>114.0</ele><time>2026-05-02T15:47:26Z</time></trkpt><trkpt lat="45.43932218251207" lon="10.766483069140433"><ele>112.0</ele><time>2026-05-02T15:47:27Z</time></trkpt><trkpt lat="45.439243657722194" lon="10.76622725920159"><ele>111.0</ele><time>2026-05-02T15:47:28Z</time></trkpt><trkpt lat="45.439174891808705" lon="10.76596763065205"><ele>110.0</ele><time>2026-05-02T15:47:29Z</time></trkpt><trkpt lat="45.43911028248746" lon="10.7657141225217"><ele>109.0</ele><time>2026-05-02T15:47:30Z</time></trkpt><trkpt lat="45.439051353217586" lon="10.765468421683579"><ele>109.0</ele><time>2026-05-02T15:47:31Z</time></trkpt><trkpt lat="45.43900201104463" lon="10.765227690247634"><ele>109.0</ele><time>2026-05-02T15:47:32Z</time></trkpt><trkpt lat="45.43894933801358" lon="10.764975957920836"><ele>109.0</ele><time>2026-05-02T15:47:33Z</time></trkpt><trkpt lat="45.438896471823575" lon="10.764713279183558"><ele>108.33333333333334</ele><time>2026-05-02T15:47:34Z</time></trkpt><trkpt lat="45.43884712909039" lon="10.764452908543525"><ele>107.66666666666666</ele><time>2026-05-02T15:47:35Z</time></trkpt><trkpt lat="45.43880404215113" lon="10.76420605611896"><ele>107.0</ele><time>2026-05-02T15:47:36Z</time></trkpt><trkpt lat="45.438759992790786" lon="10.763993922755866"><ele>106.0</ele><time>2026-05-02T15:47:37Z</time></trkpt><trkpt lat="45.43872409816813" lon="10.763813912485146"><ele>104.99999999999999</ele><time>2026-05-02T15:47:38Z</time></trkpt><trkpt lat="45.4386909292983" lon="10.763655830545444"><ele>104.0</ele><time>2026-05-02T15:47:39Z</time></trkpt><trkpt lat="45.43866250216968" lon="10.763511588629287"><ele>103.0</ele><time>2026-05-02T15:47:40Z</time></trkpt><trkpt lat="45.438645670682334" lon="10.7633820352769"><ele>102.0</ele><time>2026-05-02T15:47:41Z</time></trkpt><trkpt lat="45.43862207106885" lon="10.763259640110148"><ele>102.0</ele><time>2026-05-02T15:47:42Z</time></trkpt><trkpt lat="45.438601238177256" lon="10.763144832194891"><ele>102.0</ele><time>2026-05-02T15:47:43Z</time></trkpt><trkpt lat="45.43857964451331" lon="10.763038073898892"><ele>102.0</ele><time>2026-05-02T15:47:44Z</time></trkpt><trkpt lat="45.438565052540405" lon="10.762938898977962"><ele>102.0</ele><time>2026-05-02T15:47:45Z</time></trkpt><trkpt lat="45.438548406303696" lon="10.76284548410849"><ele>102.0</ele><time>2026-05-02T15:47:46Z</time></trkpt><trkpt lat="45.438533428127215" lon="10.762755149637117"><ele>102.0</ele><time>2026-05-02T15:47:47Z</time></trkpt><trkpt lat="45.43852221998322" lon="10.762665382333287"><ele>102.0</ele><time>2026-05-02T15:47:48Z</time></trkpt><trkpt lat="45.43851343880937" lon="10.762562754444053"><ele>102.0</ele><time>2026-05-02T15:47:49Z</time></trkpt><trkpt lat="45.4384970551935" lon="10.762467901514658"><ele>102.0</ele><time>2026-05-02T15:47:50Z</time></trkpt><trkpt lat="45.43848091291555" lon="10.762358601547804"><ele>102.0</ele><time>2026-05-02T15:47:51Z</time></trkpt><trkpt lat="45.43846895149246" lon="10.76222687507118"><ele>102.0</ele><time>2026-05-02T15:47:52Z</time></trkpt><trkpt lat="45.43846069558988" lon="10.762084436113303"><ele>102.0</ele><time>2026-05-02T15:47:53Z</time></trkpt><trkpt lat="45.43844772078644" lon="10.761961310083464"><ele>102.0</ele><time>2026-05-02T15:47:54Z</time></trkpt><trkpt lat="45.43843429276923" lon="10.761853750772922"><ele>102.0</ele><time>2026-05-02T15:47:55Z</time></trkpt><trkpt lat="45.43842870992347" lon="10.761749253630189"><ele>102.0</ele><time>2026-05-02T15:47:56Z</time></trkpt><trkpt lat="45.43842507237291" lon="10.761651404572511"><ele>102.0</ele><time>2026-05-02T15:47:57Z</time></trkpt><trkpt lat="45.438420258279386" lon="10.761554024606543"><ele>102.0</ele><time>2026-05-02T15:47:58Z</time></trkpt><trkpt lat="45.43841518889772" lon="10.76145917355169"><ele>102.0</ele><time>2026-05-02T15:47:59Z</time></trkpt><trkpt lat="45.43840796499057" lon="10.761299989171217"><ele>102.0</ele><time>2026-05-02T15:48:01Z</time></trkpt><trkpt lat="45.43840450355939" lon="10.761191781583397"><ele>102.0</ele><time>2026-05-02T15:48:03Z</time></trkpt><trkpt lat="45.43840346071672" lon="10.761049369210575"><ele>102.0</ele><time>2026-05-02T15:48:06Z</time></trkpt><trkpt lat="45.43839769250862" lon="10.760905746402354"><ele>102.0</ele><time>2026-05-02T15:48:08Z</time></trkpt><trkpt lat="45.43840369028002" lon="10.760772777914076"><ele>102.0</ele><time>2026-05-02T15:48:10Z</time></trkpt><trkpt lat="45.438429794410425" lon="10.76064622030108"><ele>102.0</ele><time>2026-05-02T15:48:12Z</time></trkpt><trkpt lat="45.43842075535174" lon="10.760497231191772"><ele>102.0</ele><time>2026-05-02T15:48:14Z</time></trkpt><trkpt lat="45.43836759302779" lon="10.760417318599675"><ele>102.0</ele><time>2026-05-02T15:48:16Z</time></trkpt><trkpt lat="45.438246731980215" lon="10.760390743500327"><ele>102.0</ele><time>2026-05-02T15:48:18Z</time></trkpt><trkpt lat="45.438173213889165" lon="10.760414375200318"><ele>102.0</ele><time>2026-05-02T15:48:19Z</time></trkpt><trkpt lat="45.43809123414292" lon="10.760417411920917"><ele>102.0</ele><time>2026-05-02T15:48:20Z</time></trkpt><trkpt lat="45.43800406274186" lon="10.760380922143396"><ele>102.0</ele><time>2026-05-02T15:48:21Z</time></trkpt><trkpt lat="45.43791600933691" lon="10.76032602193896"><ele>102.0</ele><time>2026-05-02T15:48:22Z</time></trkpt><trkpt lat="45.43783649456387" lon="10.760269005732361"><ele>102.0</ele><time>2026-05-02T15:48:23Z</time></trkpt><trkpt lat="45.437760907034416" lon="10.760228502867855"><ele>102.0</ele><time>2026-05-02T15:48:24Z</time></trkpt><trkpt lat="45.43769236219167" lon="10.760194746792232"><ele>102.0</ele><time>2026-05-02T15:48:25Z</time></trkpt><trkpt lat="45.437626456213295" lon="10.76015792579501"><ele>102.0</ele><time>2026-05-02T15:48:26Z</time></trkpt><trkpt lat="45.437558229899096" lon="10.760123831012747"><ele>102.0</ele><time>2026-05-02T15:48:27Z</time></trkpt><trkpt lat="45.43748733506231" lon="10.76009162090381"><ele>102.0</ele><time>2026-05-02T15:48:28Z</time></trkpt><trkpt lat="45.437393948103086" lon="10.760063601195986"><ele>102.0</ele><time>2026-05-02T15:48:29Z</time></trkpt><trkpt lat="45.43728691971282" lon="10.760036710320527"><ele>102.0</ele><time>2026-05-02T15:48:30Z</time></trkpt><trkpt lat="45.43713589099837" lon="10.760017626093363"><ele>102.0</ele><time>2026-05-02T15:48:31Z</time></trkpt><trkpt lat="45.43694731118916" lon="10.760032034683922"><ele>102.66666666666666</ele><time>2026-05-02T15:48:32Z</time></trkpt><trkpt lat="45.436757586447" lon="10.760068625015961"><ele>103.33333333333333</ele><time>2026-05-02T15:48:33.001Z</time></trkpt><trkpt lat="45.43659849357861" lon="10.760063589634605"><ele>104.0</ele><time>2026-05-02T15:48:34.001Z</time></trkpt><trkpt lat="45.436453486196484" lon="10.760078483089224"><ele>104.0</ele><time>2026-05-02T15:48:35.001Z</time></trkpt><trkpt lat="45.43631013023206" lon="10.760115568122067"><ele>104.0</ele><time>2026-05-02T15:48:36.001Z</time></trkpt><trkpt lat="45.43615659155549" lon="10.760128015606004"><ele>104.0</ele><time>2026-05-02T15:48:37.001Z</time></trkpt><trkpt lat="45.436002827913605" lon="10.760139599671193"><ele>104.66666666666666</ele><time>2026-05-02T15:48:38.001Z</time></trkpt><trkpt lat="45.43585081485088" lon="10.76014119230735"><ele>105.33333333333334</ele><time>2026-05-02T15:48:39.001Z</time></trkpt><trkpt lat="45.435704172769256" lon="10.760125721445887"><ele>106.0</ele><time>2026-05-02T15:48:40.001Z</time></trkpt><trkpt lat="45.43554631880864" lon="10.760098270288266"><ele>106.0</ele><time>2026-05-02T15:48:41.001Z</time></trkpt><trkpt lat="45.43538243305222" lon="10.760065257474277"><ele>106.0</ele><time>2026-05-02T15:48:42.001Z</time></trkpt><trkpt lat="45.43522628565579" lon="10.76000824295279"><ele>106.0</ele><time>2026-05-02T15:48:43.001Z</time></trkpt><trkpt lat="45.435074662051186" lon="10.759997668237265"><ele>106.0</ele><time>2026-05-02T15:48:44.001Z</time></trkpt><trkpt lat="45.43490421718018" lon="10.759981620482055"><ele>106.0</ele><time>2026-05-02T15:48:45.001Z</time></trkpt><trkpt lat="45.43469694676678" lon="10.760003255637702"><ele>106.0</ele><time>2026-05-02T15:48:46.001Z</time></trkpt><trkpt lat="45.43445467463471" lon="10.760031402670927"><ele>105.33333333333334</ele><time>2026-05-02T15:48:47.001Z</time></trkpt><trkpt lat="45.434247093776435" lon="10.760046535622335"><ele>104.66666666666666</ele><time>2026-05-02T15:48:48.001Z</time></trkpt><trkpt lat="45.43406760393012" lon="10.760044536330756"><ele>104.0</ele><time>2026-05-02T15:48:49.001Z</time></trkpt><trkpt lat="45.43390680103555" lon="10.760015245186093"><ele>103.66666666666666</ele><time>2026-05-02T15:48:50.001Z</time></trkpt><trkpt lat="45.43374396058664" lon="10.759975412105163"><ele>103.33333333333334</ele><time>2026-05-02T15:48:51.001Z</time></trkpt><trkpt lat="45.43357051375912" lon="10.759894566230711"><ele>103.0</ele><time>2026-05-02T15:48:52.001Z</time></trkpt><trkpt lat="45.43340884414649" lon="10.75977831227975"><ele>103.0</ele><time>2026-05-02T15:48:53.001Z</time></trkpt><trkpt lat="45.43326179393932" lon="10.759647539650294"><ele>103.0</ele><time>2026-05-02T15:48:54.001Z</time></trkpt><trkpt lat="45.43311918815799" lon="10.7595112263155"><ele>103.0</ele><time>2026-05-02T15:48:55.001Z</time></trkpt><trkpt lat="45.43298697391762" lon="10.759391091033178"><ele>103.0</ele><time>2026-05-02T15:48:56.001Z</time></trkpt><trkpt lat="45.43286998778273" lon="10.759261928693995"><ele>103.0</ele><time>2026-05-02T15:48:57.001Z</time></trkpt><trkpt lat="45.43274614298894" lon="10.759178423464878"><ele>103.0</ele><time>2026-05-02T15:48:58.001Z</time></trkpt><trkpt lat="45.43263840066053" lon="10.759077187131323"><ele>103.0</ele><time>2026-05-02T15:48:59.001Z</time></trkpt><trkpt lat="45.43252331934294" lon="10.758976744201988"><ele>103.0</ele><time>2026-05-02T15:49:00.001Z</time></trkpt><trkpt lat="45.432406254763094" lon="10.758870453672623"><ele>103.0</ele><time>2026-05-02T15:49:01.001Z</time></trkpt><trkpt lat="45.43228651038307" lon="10.7587600964523"><ele>103.0</ele><time>2026-05-02T15:49:02.001Z</time></trkpt><trkpt lat="45.43215556388847" lon="10.758659055553943"><ele>103.0</ele><time>2026-05-02T15:49:03.001Z</time></trkpt><trkpt lat="45.43203179143351" lon="10.758571111770145"><ele>103.0</ele><time>2026-05-02T15:49:04.001Z</time></trkpt><trkpt lat="45.43191185853535" lon="10.758503641917205"><ele>103.0</ele><time>2026-05-02T15:49:05.001Z</time></trkpt><trkpt lat="45.4317948352718" lon="10.75843071190493"><ele>103.0</ele><time>2026-05-02T15:49:06.001Z</time></trkpt><trkpt lat="45.431685506772105" lon="10.758360673618967"><ele>103.0</ele><time>2026-05-02T15:49:07.001Z</time></trkpt><trkpt lat="45.43157632751324" lon="10.75829977914524"><ele>103.0</ele><time>2026-05-02T15:49:08.001Z</time></trkpt><trkpt lat="45.431468217821134" lon="10.758235803795621"><ele>103.0</ele><time>2026-05-02T15:49:09.001Z</time></trkpt><trkpt lat="45.43135295327819" lon="10.758174382040004"><ele>103.0</ele><time>2026-05-02T15:49:10.001Z</time></trkpt><trkpt lat="45.43122196296009" lon="10.758128454765629"><ele>103.0</ele><time>2026-05-02T15:49:11.001Z</time></trkpt><trkpt lat="45.43108850831871" lon="10.7580903557169"><ele>103.25</ele><time>2026-05-02T15:49:12.001Z</time></trkpt><trkpt lat="45.43094813978513" lon="10.758050969325001"><ele>103.5</ele><time>2026-05-02T15:49:13.001Z</time></trkpt><trkpt lat="45.43080294548251" lon="10.758006291994073"><ele>103.75</ele><time>2026-05-02T15:49:14.001Z</time></trkpt><trkpt lat="45.430662461757876" lon="10.757962559423207"><ele>104.0</ele><time>2026-05-02T15:49:15.001Z</time></trkpt><trkpt lat="45.430526526843344" lon="10.757918089757721"><ele>103.5</ele><time>2026-05-02T15:49:16.001Z</time></trkpt><trkpt lat="45.43038355948438" lon="10.75787810132587"><ele>103.0</ele><time>2026-05-02T15:49:17.001Z</time></trkpt><trkpt lat="45.43024755117038" lon="10.757834562093777"><ele>102.5</ele><time>2026-05-02T15:49:18.001Z</time></trkpt><trkpt lat="45.43012528228104" lon="10.757780503234748"><ele>102.0</ele><time>2026-05-02T15:49:19.001Z</time></trkpt><trkpt lat="45.430012503387964" lon="10.757727046667947"><ele>102.19999999999999</ele><time>2026-05-02T15:49:20.001Z</time></trkpt><trkpt lat="45.429919109707704" lon="10.75768568220561"><ele>102.4</ele><time>2026-05-02T15:49:21.001Z</time></trkpt><trkpt lat="45.4298254902371" lon="10.75764646431037"><ele>102.6</ele><time>2026-05-02T15:49:22.001Z</time></trkpt><trkpt lat="45.42973111577184" lon="10.757609223339278"><ele>102.80000000000001</ele><time>2026-05-02T15:49:23Z</time></trkpt><trkpt lat="45.42964475955409" lon="10.757600975119486"><ele>103.0</ele><time>2026-05-02T15:49:24Z</time></trkpt><trkpt lat="45.42957245174937" lon="10.757567505819447"><ele>103.4</ele><time>2026-05-02T15:49:25Z</time></trkpt><trkpt lat="45.42950895863867" lon="10.757541942441934"><ele>103.80000000000001</ele><time>2026-05-02T15:49:26Z</time></trkpt><trkpt lat="45.42941937986226" lon="10.757455464177342"><ele>104.2</ele><time>2026-05-02T15:49:28Z</time></trkpt><trkpt lat="45.429330161054196" lon="10.757364659091293"><ele>104.6</ele><time>2026-05-02T15:49:30Z</time></trkpt><trkpt lat="45.42920476228224" lon="10.757393431598958"><ele>105.0</ele><time>2026-05-02T15:49:32Z</time></trkpt><trkpt lat="45.429135684390914" lon="10.757428648794846"><ele>105.0</ele><time>2026-05-02T15:49:33Z</time></trkpt><trkpt lat="45.42906998457366" lon="10.757430883860602"><ele>105.0</ele><time>2026-05-02T15:49:34Z</time></trkpt><trkpt lat="45.42894781545274" lon="10.75740550010258"><ele>105.0</ele><time>2026-05-02T15:49:36Z</time></trkpt><trkpt lat="45.42884277381594" lon="10.757307235546056"><ele>105.0</ele><time>2026-05-02T15:49:38Z</time></trkpt><trkpt lat="45.4287687656745" lon="10.757278616249264"><ele>105.0</ele><time>2026-05-02T15:49:39Z</time></trkpt><trkpt lat="45.428686776448735" lon="10.757276534029277"><ele>104.4</ele><time>2026-05-02T15:49:40Z</time></trkpt><trkpt lat="45.42861033305718" lon="10.757301266871426"><ele>103.8</ele><time>2026-05-02T15:49:41Z</time></trkpt><trkpt lat="45.428527166680695" lon="10.757351363050711"><ele>103.19999999999999</ele><time>2026-05-02T15:49:42Z</time></trkpt><trkpt lat="45.42845750516264" lon="10.75746412389908"><ele>102.6</ele><time>2026-05-02T15:49:43Z</time></trkpt><trkpt lat="45.428305403458054" lon="10.757398777334124"><ele>102.0</ele><time>2026-05-02T15:49:44Z</time></trkpt><trkpt lat="45.42818459576149" lon="10.757327847585783"><ele>102.0</ele><time>2026-05-02T15:49:45Z</time></trkpt><trkpt lat="45.428066513970585" lon="10.757281302923243"><ele>102.0</ele><time>2026-05-02T15:49:46Z</time></trkpt><trkpt lat="45.42795184518006" lon="10.757234460136276"><ele>102.0</ele><time>2026-05-02T15:49:47Z</time></trkpt><trkpt lat="45.42783465341849" lon="10.757176038540587"><ele>102.0</ele><time>2026-05-02T15:49:48Z</time></trkpt><trkpt lat="45.427704195857025" lon="10.757105674112088"><ele>101.66666666666666</ele><time>2026-05-02T15:49:49Z</time></trkpt><trkpt lat="45.42756749107635" lon="10.75701692537256"><ele>101.33333333333333</ele><time>2026-05-02T15:49:50Z</time></trkpt><trkpt lat="45.427410070248044" lon="10.756905366221234"><ele>101.0</ele><time>2026-05-02T15:49:51Z</time></trkpt><trkpt lat="45.42723338576366" lon="10.756779119306303"><ele>101.0</ele><time>2026-05-02T15:49:52Z</time></trkpt><trkpt lat="45.42704431722904" lon="10.75663704075468"><ele>101.0</ele><time>2026-05-02T15:49:53Z</time></trkpt><trkpt lat="45.426844293074474" lon="10.756510886948213"><ele>101.0</ele><time>2026-05-02T15:49:54Z</time></trkpt><trkpt lat="45.426653876486796" lon="10.75636877927403"><ele>101.0</ele><time>2026-05-02T15:49:55Z</time></trkpt><trkpt lat="45.42645512492961" lon="10.756227579881255"><ele>101.0</ele><time>2026-05-02T15:49:56Z</time></trkpt><trkpt lat="45.42625419339235" lon="10.756080994499536"><ele>101.0</ele><time>2026-05-02T15:49:57Z</time></trkpt><trkpt lat="45.4260663647118" lon="10.755944428505494"><ele>101.33333333333333</ele><time>2026-05-02T15:49:58Z</time></trkpt><trkpt lat="45.42588460163693" lon="10.755810341945251"><ele>101.66666666666666</ele><time>2026-05-02T15:49:59Z</time></trkpt><trkpt lat="45.42570239431174" lon="10.75567647456121"><ele>102.0</ele><time>2026-05-02T15:50:00Z</time></trkpt><trkpt lat="45.42555277837617" lon="10.755569252977866"><ele>102.25</ele><time>2026-05-02T15:50:01Z</time></trkpt><trkpt lat="45.425440177245065" lon="10.75545536379449"><ele>102.5</ele><time>2026-05-02T15:50:02Z</time></trkpt><trkpt lat="45.425327479760554" lon="10.755359987064592"><ele>102.75</ele><time>2026-05-02T15:50:03Z</time></trkpt><trkpt lat="45.425219724573175" lon="10.755253124238191"><ele>103.0</ele><time>2026-05-02T15:50:04Z</time></trkpt><trkpt lat="45.42512295218369" lon="10.755139533149961"><ele>102.2</ele><time>2026-05-02T15:50:05Z</time></trkpt><trkpt lat="45.42504568104853" lon="10.75503162588355"><ele>101.4</ele><time>2026-05-02T15:50:06Z</time></trkpt><trkpt lat="45.42498074696111" lon="10.754931330029503"><ele>100.60000000000001</ele><time>2026-05-02T15:50:07Z</time></trkpt><trkpt lat="45.42492330013597" lon="10.75482841695855"><ele>99.80000000000001</ele><time>2026-05-02T15:50:09Z</time></trkpt><trkpt lat="45.424881198393855" lon="10.75473447488944"><ele>99.0</ele><time>2026-05-02T15:50:12Z</time></trkpt><trkpt lat="45.42483908718839" lon="10.754644295799018"><ele>99.0</ele><time>2026-05-02T15:50:14Z</time></trkpt><trkpt lat="45.424829380023716" lon="10.754554949580454"><ele>99.0</ele><time>2026-05-02T15:50:15Z</time></trkpt><trkpt lat="45.42486844469452" lon="10.754466708067866"><ele>99.0</ele><time>2026-05-02T15:50:16Z</time></trkpt><trkpt lat="45.4248618059228" lon="10.754365228552455"><ele>99.0</ele><time>2026-05-02T15:50:17Z</time></trkpt><trkpt lat="45.424873406248395" lon="10.754273495113083"><ele>99.0</ele><time>2026-05-02T15:50:18Z</time></trkpt><trkpt lat="45.42485355174494" lon="10.754187594033336"><ele>99.0</ele><time>2026-05-02T15:50:19Z</time></trkpt><trkpt lat="45.42480492073539" lon="10.754119723285495"><ele>99.0</ele><time>2026-05-02T15:50:20Z</time></trkpt><trkpt lat="45.42473781117886" lon="10.754077694426412"><ele>99.4</ele><time>2026-05-02T15:50:21Z</time></trkpt><trkpt lat="45.42465224950388" lon="10.754068872558218"><ele>99.80000000000001</ele><time>2026-05-02T15:50:22Z</time></trkpt><trkpt lat="45.42455731704572" lon="10.754088813357045"><ele>100.19999999999999</ele><time>2026-05-02T15:50:23Z</time></trkpt><trkpt lat="45.42444964270732" lon="10.753983997695853"><ele>100.6</ele><time>2026-05-02T15:50:24Z</time></trkpt><trkpt lat="45.4243401784066" lon="10.75387655380915"><ele>101.0</ele><time>2026-05-02T15:50:25Z</time></trkpt><trkpt lat="45.424216151737475" lon="10.753755203511256"><ele>101.33333333333333</ele><time>2026-05-02T15:50:26Z</time></trkpt><trkpt lat="45.42407870318436" lon="10.753648754252284"><ele>101.66666666666666</ele><time>2026-05-02T15:50:27Z</time></trkpt><trkpt lat="45.42395324137936" lon="10.753499964968903"><ele>102.0</ele><time>2026-05-02T15:50:28Z</time></trkpt><trkpt lat="45.423809697106925" lon="10.753360987609355"><ele>102.0</ele><time>2026-05-02T15:50:29Z</time></trkpt><trkpt lat="45.4236648466009" lon="10.753221523273773"><ele>102.0</ele><time>2026-05-02T15:50:30Z</time></trkpt><trkpt lat="45.42351772179494" lon="10.753081214072582"><ele>102.0</ele><time>2026-05-02T15:50:31Z</time></trkpt><trkpt lat="45.423368965619865" lon="10.752940752504731"><ele>102.0</ele><time>2026-05-02T15:50:32.001Z</time></trkpt><trkpt lat="45.42323206440982" lon="10.752810837798247"><ele>102.0</ele><time>2026-05-02T15:50:33.001Z</time></trkpt><trkpt lat="45.42310467139568" lon="10.752684820342253"><ele>102.0</ele><time>2026-05-02T15:50:34.001Z</time></trkpt><trkpt lat="45.42297270689339" lon="10.752574794085788"><ele>102.33333333333334</ele><time>2026-05-02T15:50:35.001Z</time></trkpt><trkpt lat="45.42283515140284" lon="10.752480693816825"><ele>102.66666666666667</ele><time>2026-05-02T15:50:36.001Z</time></trkpt><trkpt lat="45.422699669710546" lon="10.752350523837642"><ele>103.0</ele><time>2026-05-02T15:50:37.001Z</time></trkpt><trkpt lat="45.42256146603274" lon="10.75222486717511"><ele>103.0</ele><time>2026-05-02T15:50:38.001Z</time></trkpt><trkpt lat="45.42243078259503" lon="10.752107283560981"><ele>103.0</ele><time>2026-05-02T15:50:39.001Z</time></trkpt><trkpt lat="45.42230104150558" lon="10.751996340919773"><ele>103.0</ele><time>2026-05-02T15:50:40.001Z</time></trkpt><trkpt lat="45.42217007421936" lon="10.751893458413885"><ele>102.75</ele><time>2026-05-02T15:50:41.001Z</time></trkpt><trkpt lat="45.42204073188483" lon="10.751801219746623"><ele>102.5</ele><time>2026-05-02T15:50:42.001Z</time></trkpt><trkpt lat="45.421918957321694" lon="10.751709394070245"><ele>102.25</ele><time>2026-05-02T15:50:43.001Z</time></trkpt><trkpt lat="45.42179702966978" lon="10.75161679058268"><ele>102.0</ele><time>2026-05-02T15:50:44.001Z</time></trkpt><trkpt lat="45.421671798274815" lon="10.751495710922434"><ele>102.0</ele><time>2026-05-02T15:50:45.001Z</time></trkpt><trkpt lat="45.42150606221458" lon="10.75137231695524"><ele>102.0</ele><time>2026-05-02T15:50:46.001Z</time></trkpt><trkpt lat="45.4213268217509" lon="10.75124421619357"><ele>102.0</ele><time>2026-05-02T15:50:47.001Z</time></trkpt><trkpt lat="45.421171752167716" lon="10.751135117175943"><ele>102.0</ele><time>2026-05-02T15:50:48.001Z</time></trkpt><trkpt lat="45.42102861793474" lon="10.751054957595688"><ele>102.0</ele><time>2026-05-02T15:50:49.001Z</time></trkpt><trkpt lat="45.420897191445235" lon="10.75096509211019"><ele>102.0</ele><time>2026-05-02T15:50:50.001Z</time></trkpt><trkpt lat="45.420768693069995" lon="10.750887470592485"><ele>102.0</ele><time>2026-05-02T15:50:51.001Z</time></trkpt><trkpt lat="45.42064450472023" lon="10.750812329623601"><ele>102.0</ele><time>2026-05-02T15:50:52.001Z</time></trkpt><trkpt lat="45.42051932642028" lon="10.75071153325337"><ele>102.0</ele><time>2026-05-02T15:50:53.001Z</time></trkpt><trkpt lat="45.42038198944968" lon="10.750633308771691"><ele>102.0</ele><time>2026-05-02T15:50:54.001Z</time></trkpt><trkpt lat="45.42025150910184" lon="10.750566982419269"><ele>102.0</ele><time>2026-05-02T15:50:55.001Z</time></trkpt><trkpt lat="45.420132626701836" lon="10.750508642499481"><ele>102.0</ele><time>2026-05-02T15:50:56.001Z</time></trkpt><trkpt lat="45.42000062749953" lon="10.750474617211218"><ele>102.0</ele><time>2026-05-02T15:50:57.001Z</time></trkpt><trkpt lat="45.419866091137415" lon="10.750417109694009"><ele>102.0</ele><time>2026-05-02T15:50:58.001Z</time></trkpt><trkpt lat="45.41972603060725" lon="10.750380240983143"><ele>102.0</ele><time>2026-05-02T15:50:59.001Z</time></trkpt><trkpt lat="45.41958623048541" lon="10.750337672230785"><ele>102.0</ele><time>2026-05-02T15:51:00.001Z</time></trkpt><trkpt lat="45.41945204681388" lon="10.750301456117446"><ele>102.0</ele><time>2026-05-02T15:51:01.001Z</time></trkpt><trkpt lat="45.41930098812291" lon="10.75025327504776"><ele>102.0</ele><time>2026-05-02T15:51:02.001Z</time></trkpt><trkpt lat="45.419138949267186" lon="10.750200736304171"><ele>102.0</ele><time>2026-05-02T15:51:03.001Z</time></trkpt><trkpt lat="45.41897683375556" lon="10.750148232972931"><ele>102.0</ele><time>2026-05-02T15:51:04.001Z</time></trkpt><trkpt lat="45.418821933622574" lon="10.750100406024105"><ele>102.0</ele><time>2026-05-02T15:51:05.001Z</time></trkpt><trkpt lat="45.41868801231014" lon="10.750060168334967"><ele>102.25</ele><time>2026-05-02T15:51:06.001Z</time></trkpt><trkpt lat="45.418563261635974" lon="10.750021919885965"><ele>102.5</ele><time>2026-05-02T15:51:07.001Z</time></trkpt><trkpt lat="45.41843355194568" lon="10.749981558309004"><ele>102.75</ele><time>2026-05-02T15:51:08.001Z</time></trkpt><trkpt lat="45.41829251100581" lon="10.749914950451583"><ele>103.0</ele><time>2026-05-02T15:51:09.001Z</time></trkpt><trkpt lat="45.41814345333481" lon="10.749868570023672"><ele>102.33333333333334</ele><time>2026-05-02T15:51:10.001Z</time></trkpt><trkpt lat="45.417971834007204" lon="10.749815169289404"><ele>101.66666666666666</ele><time>2026-05-02T15:51:11.001Z</time></trkpt><trkpt lat="45.417796440243606" lon="10.749762548509716"><ele>101.0</ele><time>2026-05-02T15:51:12.001Z</time></trkpt><trkpt lat="45.41761289529692" lon="10.74970944036578"><ele>101.0</ele><time>2026-05-02T15:51:13.001Z</time></trkpt><trkpt lat="45.41742005138335" lon="10.749688424452463"><ele>101.0</ele><time>2026-05-02T15:51:14.001Z</time></trkpt><trkpt lat="45.41722028491067" lon="10.749646151552065"><ele>101.0</ele><time>2026-05-02T15:51:15.001Z</time></trkpt><trkpt lat="45.41701318559367" lon="10.749619186671092"><ele>101.0</ele><time>2026-05-02T15:51:16.001Z</time></trkpt><trkpt lat="45.41679943342499" lon="10.749617182402922"><ele>101.0</ele><time>2026-05-02T15:51:17.001Z</time></trkpt><trkpt lat="45.41657871420533" lon="10.749626611370878"><ele>101.0</ele><time>2026-05-02T15:51:18.001Z</time></trkpt><trkpt lat="45.41635235985213" lon="10.749619502325558"><ele>102.0</ele><time>2026-05-02T15:51:19.001Z</time></trkpt><trkpt lat="45.41613290054682" lon="10.749555435347942"><ele>103.0</ele><time>2026-05-02T15:51:20.001Z</time></trkpt><trkpt lat="45.4159092863509" lon="10.74946952937041"><ele>103.0</ele><time>2026-05-02T15:51:21.001Z</time></trkpt><trkpt lat="45.415687637393944" lon="10.749378321535369"><ele>103.0</ele><time>2026-05-02T15:51:22.001Z</time></trkpt><trkpt lat="45.415462769765064" lon="10.749295424111324"><ele>102.5</ele><time>2026-05-02T15:51:23.001Z</time></trkpt><trkpt lat="45.41524319246219" lon="10.749198650837354"><ele>102.0</ele><time>2026-05-02T15:51:24.001Z</time></trkpt><trkpt lat="45.4150152564443" lon="10.749115925217229"><ele>102.0</ele><time>2026-05-02T15:51:25.001Z</time></trkpt><trkpt lat="45.41478901511445" lon="10.74906537670512"><ele>102.0</ele><time>2026-05-02T15:51:26.001Z</time></trkpt><trkpt lat="45.4145763791729" lon="10.749021392496024"><ele>102.0</ele><time>2026-05-02T15:51:27.001Z</time></trkpt><trkpt lat="45.41437091994083" lon="10.74896326972319"><ele>102.33333333333334</ele><time>2026-05-02T15:51:28.001Z</time></trkpt><trkpt lat="45.41415795673682" lon="10.748882506213896"><ele>102.66666666666667</ele><time>2026-05-02T15:51:28.999Z</time></trkpt><trkpt lat="45.41394840261093" lon="10.748791277369353"><ele>103.0</ele><time>2026-05-02T15:51:29.999Z</time></trkpt><trkpt lat="45.41374350679457" lon="10.74870120508125"><ele>104.0</ele><time>2026-05-02T15:51:30.999Z</time></trkpt><trkpt lat="45.41353578682841" lon="10.748624107122293"><ele>105.0</ele><time>2026-05-02T15:51:31.999Z</time></trkpt><trkpt lat="45.41332328032103" lon="10.74856289082651"><ele>106.0</ele><time>2026-05-02T15:51:32.999Z</time></trkpt><trkpt lat="45.41311083099495" lon="10.748513235066895"><ele>104.33333333333334</ele><time>2026-05-02T15:51:34Z</time></trkpt><trkpt lat="45.41289946190744" lon="10.748479013693833"><ele>102.66666666666666</ele><time>2026-05-02T15:51:35Z</time></trkpt><trkpt lat="45.412690798197616" lon="10.748452035556209"><ele>101.0</ele><time>2026-05-02T15:51:36Z</time></trkpt><trkpt lat="45.4124835063542" lon="10.748432272308765"><ele>101.0</ele><time>2026-05-02T15:51:37Z</time></trkpt><trkpt lat="45.412283004846444" lon="10.748404480074052"><ele>101.0</ele><time>2026-05-02T15:51:38Z</time></trkpt><trkpt lat="45.41208646357523" lon="10.748371421345666"><ele>101.0</ele><time>2026-05-02T15:51:39Z</time></trkpt><trkpt lat="45.411879985436094" lon="10.748342612780638"><ele>101.33333333333333</ele><time>2026-05-02T15:51:40Z</time></trkpt><trkpt lat="45.411662906218304" lon="10.748319645760066"><ele>101.66666666666666</ele><time>2026-05-02T15:51:41Z</time></trkpt><trkpt lat="45.41143371271784" lon="10.748293982634715"><ele>102.0</ele><time>2026-05-02T15:51:42Z</time></trkpt><trkpt lat="45.41119507634826" lon="10.74826657244775"><ele>101.0</ele><time>2026-05-02T15:51:43Z</time></trkpt><trkpt lat="45.410949183329826" lon="10.748241300173188"><ele>100.0</ele><time>2026-05-02T15:51:44Z</time></trkpt><trkpt lat="45.41070280055015" lon="10.748212275941748"><ele>99.0</ele><time>2026-05-02T15:51:45Z</time></trkpt><trkpt lat="45.410450936940464" lon="10.748184855873268"><ele>98.0</ele><time>2026-05-02T15:51:46Z</time></trkpt><trkpt lat="45.410201539574" lon="10.74816595330826"><ele>98.0</ele><time>2026-05-02T15:51:47Z</time></trkpt><trkpt lat="45.40997288764836" lon="10.748142252584952"><ele>98.0</ele><time>2026-05-02T15:51:48Z</time></trkpt><trkpt lat="45.40975470575202" lon="10.748120817311696"><ele>98.0</ele><time>2026-05-02T15:51:49Z</time></trkpt><trkpt lat="45.40953986095951" lon="10.748104843674952"><ele>97.33333333333333</ele><time>2026-05-02T15:51:50Z</time></trkpt><trkpt lat="45.409329676025905" lon="10.748103413414876"><ele>96.66666666666666</ele><time>2026-05-02T15:51:51Z</time></trkpt><trkpt lat="45.40913665561163" lon="10.748100784347136"><ele>96.0</ele><time>2026-05-02T15:51:52Z</time></trkpt><trkpt lat="45.40896323035898" lon="10.748103550922142"><ele>96.0</ele><time>2026-05-02T15:51:53Z</time></trkpt><trkpt lat="45.408801059500774" lon="10.74809848035094"><ele>96.0</ele><time>2026-05-02T15:51:54Z</time></trkpt><trkpt lat="45.408648243665354" lon="10.748087880528937"><ele>96.0</ele><time>2026-05-02T15:51:55Z</time></trkpt><trkpt lat="45.40850801594505" lon="10.748069430902452"><ele>96.0</ele><time>2026-05-02T15:51:56Z</time></trkpt><trkpt lat="45.40837394982081" lon="10.748052167232306"><ele>96.0</ele><time>2026-05-02T15:51:57Z</time></trkpt><trkpt lat="45.40823454600871" lon="10.74803607295707"><ele>96.0</ele><time>2026-05-02T15:51:58Z</time></trkpt><trkpt lat="45.40809703391003" lon="10.748020334165368"><ele>96.0</ele><time>2026-05-02T15:51:59Z</time></trkpt><trkpt lat="45.407977701408285" lon="10.748008724106432"><ele>96.0</ele><time>2026-05-02T15:52:00Z</time></trkpt><trkpt lat="45.40787416257045" lon="10.747996761536339"><ele>96.0</ele><time>2026-05-02T15:52:01Z</time></trkpt><trkpt lat="45.40778403295431" lon="10.74797849836359"><ele>96.0</ele><time>2026-05-02T15:52:02Z</time></trkpt><trkpt lat="45.40771047891981" lon="10.74794995528306"><ele>96.0</ele><time>2026-05-02T15:52:03Z</time></trkpt><trkpt lat="45.40764281151843" lon="10.747877016144056"><ele>96.0</ele><time>2026-05-02T15:52:04Z</time></trkpt><trkpt lat="45.40758429217508" lon="10.747796890913927"><ele>96.0</ele><time>2026-05-02T15:52:05Z</time></trkpt><trkpt lat="45.40751652494019" lon="10.747741788704746"><ele>96.0</ele><time>2026-05-02T15:52:06Z</time></trkpt><trkpt lat="45.40744287490379" lon="10.747754099772528"><ele>96.0</ele><time>2026-05-02T15:52:07Z</time></trkpt><trkpt lat="45.407364983655164" lon="10.747806404113302"><ele>96.0</ele><time>2026-05-02T15:52:08Z</time></trkpt><trkpt lat="45.40727180421979" lon="10.747853241732308"><ele>96.0</ele><time>2026-05-02T15:52:09Z</time></trkpt><trkpt lat="45.40716890120433" lon="10.74786486013755"><ele>96.0</ele><time>2026-05-02T15:52:10Z</time></trkpt><trkpt lat="45.4070473368099" lon="10.747836150976338"><ele>96.33333333333334</ele><time>2026-05-02T15:52:11Z</time></trkpt><trkpt lat="45.40690166571124" lon="10.747799760543774"><ele>96.66666666666667</ele><time>2026-05-02T15:52:12Z</time></trkpt><trkpt lat="45.40675417002912" lon="10.747769403501596"><ele>97.0</ele><time>2026-05-02T15:52:13Z</time></trkpt><trkpt lat="45.40660381183937" lon="10.747718273592376"><ele>96.66666666666667</ele><time>2026-05-02T15:52:14Z</time></trkpt><trkpt lat="45.40645379663998" lon="10.747668776573983"><ele>96.33333333333334</ele><time>2026-05-02T15:52:15Z</time></trkpt><trkpt lat="45.40630747564364" lon="10.747619950502058"><ele>96.0</ele><time>2026-05-02T15:52:16Z</time></trkpt><trkpt lat="45.40615179448468" lon="10.747561748646238"><ele>96.0</ele><time>2026-05-02T15:52:17Z</time></trkpt><trkpt lat="45.405994354365866" lon="10.747506590314737"><ele>96.0</ele><time>2026-05-02T15:52:18Z</time></trkpt><trkpt lat="45.40584490410949" lon="10.747449377452309"><ele>96.0</ele><time>2026-05-02T15:52:19Z</time></trkpt><trkpt lat="45.405708849506645" lon="10.747399036834564"><ele>96.0</ele><time>2026-05-02T15:52:20Z</time></trkpt><trkpt lat="45.4055785182066" lon="10.747351876083158"><ele>96.0</ele><time>2026-05-02T15:52:21Z</time></trkpt><trkpt lat="45.40544398313089" lon="10.747308801655025"><ele>96.0</ele><time>2026-05-02T15:52:22Z</time></trkpt><trkpt lat="45.405301694729516" lon="10.74725997863443"><ele>96.0</ele><time>2026-05-02T15:52:23Z</time></trkpt><trkpt lat="45.405153624956846" lon="10.747207906184405"><ele>96.66666666666666</ele><time>2026-05-02T15:52:24Z</time></trkpt><trkpt lat="45.40500035815133" lon="10.74715460547226"><ele>97.33333333333333</ele><time>2026-05-02T15:52:25Z</time></trkpt><trkpt lat="45.4048411792074" lon="10.7471060773249"><ele>98.0</ele><time>2026-05-02T15:52:26Z</time></trkpt><trkpt lat="45.40468022574716" lon="10.747049522501001"><ele>97.0</ele><time>2026-05-02T15:52:27Z</time></trkpt><trkpt lat="45.404517931597766" lon="10.746994959906667"><ele>96.0</ele><time>2026-05-02T15:52:28Z</time></trkpt><trkpt lat="45.40435854020073" lon="10.746943603807056"><ele>95.0</ele><time>2026-05-02T15:52:29Z</time></trkpt><trkpt lat="45.404208031574704" lon="10.746888735212874"><ele>94.66666666666667</ele><time>2026-05-02T15:52:30Z</time></trkpt><trkpt lat="45.404052333376356" lon="10.746835768097126"><ele>94.33333333333333</ele><time>2026-05-02T15:52:31Z</time></trkpt><trkpt lat="45.40390646541746" lon="10.746769179793342"><ele>94.0</ele><time>2026-05-02T15:52:32Z</time></trkpt><trkpt lat="45.403766760542894" lon="10.746683382626532"><ele>94.0</ele><time>2026-05-02T15:52:33Z</time></trkpt><trkpt lat="45.4036281404631" lon="10.746575686979803"><ele>94.0</ele><time>2026-05-02T15:52:34Z</time></trkpt><trkpt lat="45.40350121339673" lon="10.746446638122992"><ele>94.0</ele><time>2026-05-02T15:52:35.001Z</time></trkpt><trkpt lat="45.40337349409017" lon="10.74631117978937"><ele>94.0</ele><time>2026-05-02T15:52:36.001Z</time></trkpt><trkpt lat="45.40325130493685" lon="10.746180629497385"><ele>94.0</ele><time>2026-05-02T15:52:37.001Z</time></trkpt><trkpt lat="45.40313292008061" lon="10.74605908757263"><ele>94.0</ele><time>2026-05-02T15:52:38.001Z</time></trkpt><trkpt lat="45.40301103985713" lon="10.745932286095613"><ele>94.0</ele><time>2026-05-02T15:52:39.001Z</time></trkpt><trkpt lat="45.402890596776565" lon="10.745800438891907"><ele>94.0</ele><time>2026-05-02T15:52:40.001Z</time></trkpt><trkpt lat="45.40276602528842" lon="10.745670075506562"><ele>94.0</ele><time>2026-05-02T15:52:41.001Z</time></trkpt><trkpt lat="45.40263971859033" lon="10.74553520781378"><ele>94.0</ele><time>2026-05-02T15:52:42.001Z</time></trkpt><trkpt lat="45.40251900100777" lon="10.74540401901846"><ele>94.0</ele><time>2026-05-02T15:52:43.001Z</time></trkpt><trkpt lat="45.402406136707796" lon="10.745284298299733"><ele>94.0</ele><time>2026-05-02T15:52:44.001Z</time></trkpt><trkpt lat="45.40229184773048" lon="10.74517016457189"><ele>94.0</ele><time>2026-05-02T15:52:45.001Z</time></trkpt><trkpt lat="45.402172386093284" lon="10.745072716411538"><ele>94.0</ele><time>2026-05-02T15:52:46.001Z</time></trkpt><trkpt lat="45.40204396723925" lon="10.745002466493029"><ele>94.0</ele><time>2026-05-02T15:52:47.001Z</time></trkpt><trkpt lat="45.401907751119" lon="10.744949054794873"><ele>94.0</ele><time>2026-05-02T15:52:48.001Z</time></trkpt><trkpt lat="45.401761377056815" lon="10.744896179568428"><ele>94.0</ele><time>2026-05-02T15:52:49.001Z</time></trkpt><trkpt lat="45.40160515070352" lon="10.744841926285144"><ele>94.0</ele><time>2026-05-02T15:52:50.001Z</time></trkpt><trkpt lat="45.401441316889375" lon="10.744805338463683"><ele>94.0</ele><time>2026-05-02T15:52:51.001Z</time></trkpt><trkpt lat="45.40127413089347" lon="10.744782854298599"><ele>94.0</ele><time>2026-05-02T15:52:52.001Z</time></trkpt><trkpt lat="45.40110819156653" lon="10.744768448653327"><ele>94.33333333333333</ele><time>2026-05-02T15:52:53.001Z</time></trkpt><trkpt lat="45.400946246609486" lon="10.744752191650985"><ele>94.66666666666667</ele><time>2026-05-02T15:52:54.001Z</time></trkpt><trkpt lat="45.40078609148691" lon="10.744730732386312"><ele>95.0</ele><time>2026-05-02T15:52:55.001Z</time></trkpt><trkpt lat="45.4006222197986" lon="10.744713414548889"><ele>95.0</ele><time>2026-05-02T15:52:56.001Z</time></trkpt><trkpt lat="45.40045030715872" lon="10.744716090528497"><ele>95.0</ele><time>2026-05-02T15:52:57.001Z</time></trkpt><trkpt lat="45.40028035675205" lon="10.744740140759307"><ele>95.0</ele><time>2026-05-02T15:52:58.001Z</time></trkpt><trkpt lat="45.4001110400431" lon="10.744790645013811"><ele>95.0</ele><time>2026-05-02T15:52:59.001Z</time></trkpt><trkpt lat="45.39999239371506" lon="10.744797981526938"><ele>95.0</ele><time>2026-05-02T15:53:00.001Z</time></trkpt><trkpt lat="45.399844817335804" lon="10.74485108687716"><ele>95.0</ele><time>2026-05-02T15:53:01.001Z</time></trkpt><trkpt lat="45.39969122228436" lon="10.744898517311539"><ele>95.0</ele><time>2026-05-02T15:53:02.001Z</time></trkpt><trkpt lat="45.39953607078305" lon="10.744920576862128"><ele>95.66666666666667</ele><time>2026-05-02T15:53:03.001Z</time></trkpt><trkpt lat="45.399382348670144" lon="10.744913205851226"><ele>96.33333333333334</ele><time>2026-05-02T15:53:04.001Z</time></trkpt><trkpt lat="45.39922862967841" lon="10.744892293405574"><ele>97.0</ele><time>2026-05-02T15:53:05.001Z</time></trkpt><trkpt lat="45.399072727080366" lon="10.74487436412302"><ele>97.0</ele><time>2026-05-02T15:53:06.001Z</time></trkpt><trkpt lat="45.3989161532366" lon="10.744858008550883"><ele>97.0</ele><time>2026-05-02T15:53:07.001Z</time></trkpt><trkpt lat="45.39876079147113" lon="10.744837874087876"><ele>97.0</ele><time>2026-05-02T15:53:08.001Z</time></trkpt><trkpt lat="45.39860895997126" lon="10.744814850457882"><ele>97.0</ele><time>2026-05-02T15:53:09.001Z</time></trkpt><trkpt lat="45.39846250770442" lon="10.744783721665295"><ele>97.0</ele><time>2026-05-02T15:53:10.001Z</time></trkpt><trkpt lat="45.39831572986573" lon="10.744739571444784"><ele>97.0</ele><time>2026-05-02T15:53:11.001Z</time></trkpt><trkpt lat="45.398168730843786" lon="10.74468136489876"><ele>97.0</ele><time>2026-05-02T15:53:12.001Z</time></trkpt><trkpt lat="45.398001819128964" lon="10.74461435652589"><ele>97.0</ele><time>2026-05-02T15:53:13.001Z</time></trkpt><trkpt lat="45.397825788149895" lon="10.744529864274636"><ele>97.0</ele><time>2026-05-02T15:53:14.001Z</time></trkpt><trkpt lat="45.397644596872325" lon="10.744427122885735"><ele>97.33333333333334</ele><time>2026-05-02T15:53:15.001Z</time></trkpt><trkpt lat="45.397457183261466" lon="10.74432933658216"><ele>97.66666666666666</ele><time>2026-05-02T15:53:16.001Z</time></trkpt><trkpt lat="45.397280443792845" lon="10.7442374505002"><ele>98.0</ele><time>2026-05-02T15:53:17.001Z</time></trkpt><trkpt lat="45.39711661523363" lon="10.744151512224098"><ele>98.0</ele><time>2026-05-02T15:53:18.001Z</time></trkpt><trkpt lat="45.39696065816275" lon="10.744068155074414"><ele>98.0</ele><time>2026-05-02T15:53:19.001Z</time></trkpt><trkpt lat="45.396807458860685" lon="10.743987391005689"><ele>98.0</ele><time>2026-05-02T15:53:20.001Z</time></trkpt><trkpt lat="45.396653785312814" lon="10.743910222772527"><ele>98.0</ele><time>2026-05-02T15:53:21.001Z</time></trkpt><trkpt lat="45.39649549022701" lon="10.743835435292416"><ele>98.0</ele><time>2026-05-02T15:53:22.001Z</time></trkpt><trkpt lat="45.39633042716108" lon="10.743762350387918"><ele>98.0</ele><time>2026-05-02T15:53:23.001Z</time></trkpt><trkpt lat="45.39613860053249" lon="10.743681179389991"><ele>98.33333333333333</ele><time>2026-05-02T15:53:24.001Z</time></trkpt><trkpt lat="45.39593696077337" lon="10.74358741189935"><ele>98.66666666666666</ele><time>2026-05-02T15:53:25.001Z</time></trkpt><trkpt lat="45.39574854362191" lon="10.743489374911228"><ele>99.0</ele><time>2026-05-02T15:53:26.001Z</time></trkpt><trkpt lat="45.395563724001484" lon="10.743384144634371"><ele>99.66666666666666</ele><time>2026-05-02T15:53:27.001Z</time></trkpt><trkpt lat="45.39537282828832" lon="10.743277015823148"><ele>100.33333333333333</ele><time>2026-05-02T15:53:28.001Z</time></trkpt><trkpt lat="45.39518592189121" lon="10.7431736657331"><ele>101.0</ele><time>2026-05-02T15:53:29.001Z</time></trkpt><trkpt lat="45.39501975683245" lon="10.743067006973446"><ele>101.0</ele><time>2026-05-02T15:53:30.001Z</time></trkpt><trkpt lat="45.3948755666468" lon="10.742929181216512"><ele>101.0</ele><time>2026-05-02T15:53:31.001Z</time></trkpt><trkpt lat="45.39474918573154" lon="10.742754017818719"><ele>101.0</ele><time>2026-05-02T15:53:32.001Z</time></trkpt><trkpt lat="45.39461690577198" lon="10.742548098996934"><ele>101.66666666666666</ele><time>2026-05-02T15:53:33.001Z</time></trkpt><trkpt lat="45.39448073019081" lon="10.742328632616317"><ele>102.33333333333334</ele><time>2026-05-02T15:53:34.001Z</time></trkpt><trkpt lat="45.39433715622228" lon="10.742108918165851"><ele>103.0</ele><time>2026-05-02T15:53:34.999Z</time></trkpt><trkpt lat="45.39418735801992" lon="10.741890320786808"><ele>103.0</ele><time>2026-05-02T15:53:35.999Z</time></trkpt><trkpt lat="45.39403409850978" lon="10.741688328233481"><ele>103.0</ele><time>2026-05-02T15:53:36.999Z</time></trkpt><trkpt lat="45.39387832797779" lon="10.741495212130339"><ele>103.0</ele><time>2026-05-02T15:53:37.999Z</time></trkpt><trkpt lat="45.39372293438257" lon="10.741310451991005"><ele>103.0</ele><time>2026-05-02T15:53:38.999Z</time></trkpt><trkpt lat="45.39356799279747" lon="10.741126636045331"><ele>103.0</ele><time>2026-05-02T15:53:39.999Z</time></trkpt><trkpt lat="45.39340629139296" lon="10.740955852363905"><ele>103.0</ele><time>2026-05-02T15:53:40.999Z</time></trkpt><trkpt lat="45.39323668900586" lon="10.740808702202376"><ele>103.0</ele><time>2026-05-02T15:53:41.999Z</time></trkpt><trkpt lat="45.393055971520894" lon="10.740691027740551"><ele>103.0</ele><time>2026-05-02T15:53:42.999Z</time></trkpt><trkpt lat="45.392860894998336" lon="10.74059626877446"><ele>103.0</ele><time>2026-05-02T15:53:43.999Z</time></trkpt><trkpt lat="45.39265634971217" lon="10.740511852064245"><ele>103.33333333333334</ele><time>2026-05-02T15:53:44.999Z</time></trkpt><trkpt lat="45.39245014884755" lon="10.740429568383112"><ele>103.66666666666666</ele><time>2026-05-02T15:53:45.999Z</time></trkpt><trkpt lat="45.39224528905444" lon="10.740347356738585"><ele>104.0</ele><time>2026-05-02T15:53:46.999Z</time></trkpt><trkpt lat="45.39204439328886" lon="10.740261257768086"><ele>105.0</ele><time>2026-05-02T15:53:47.999Z</time></trkpt><trkpt lat="45.39183686798667" lon="10.740174926255825"><ele>106.0</ele><time>2026-05-02T15:53:48.999Z</time></trkpt><trkpt lat="45.39163009575238" lon="10.740094774520742"><ele>107.0</ele><time>2026-05-02T15:53:49.999Z</time></trkpt><trkpt lat="45.39141499376803" lon="10.740035698617122"><ele>107.33333333333333</ele><time>2026-05-02T15:53:50.999Z</time></trkpt><trkpt lat="45.391197547834636" lon="10.739988859819983"><ele>107.66666666666666</ele><time>2026-05-02T15:53:51.999Z</time></trkpt><trkpt lat="45.3909864695088" lon="10.739942440430339"><ele>108.0</ele><time>2026-05-02T15:53:52.999Z</time></trkpt><trkpt lat="45.390782413924065" lon="10.739894648112271"><ele>108.0</ele><time>2026-05-02T15:53:53.999Z</time></trkpt><trkpt lat="45.39058539379899" lon="10.739837372277806"><ele>108.0</ele><time>2026-05-02T15:53:54.999Z</time></trkpt><trkpt lat="45.39039188138342" lon="10.739759018251156"><ele>108.0</ele><time>2026-05-02T15:53:55.999Z</time></trkpt><trkpt lat="45.3902141723684" lon="10.739634529543213"><ele>108.66666666666666</ele><time>2026-05-02T15:53:57Z</time></trkpt><trkpt lat="45.39005149199411" lon="10.739469623810933"><ele>109.33333333333333</ele><time>2026-05-02T15:53:58Z</time></trkpt><trkpt lat="45.38989458783648" lon="10.739284937394578"><ele>110.0</ele><time>2026-05-02T15:53:59Z</time></trkpt><trkpt lat="45.389728899057125" lon="10.739097863970818"><ele>110.66666666666666</ele><time>2026-05-02T15:54:00Z</time></trkpt><trkpt lat="45.389557957187485" lon="10.738913556215895"><ele>111.33333333333334</ele><time>2026-05-02T15:54:01Z</time></trkpt><trkpt lat="45.38938344194221" lon="10.738722625547732"><ele>112.0</ele><time>2026-05-02T15:54:02Z</time></trkpt><trkpt lat="45.38920659212212" lon="10.738530115484226"><ele>112.33333333333334</ele><time>2026-05-02T15:54:03Z</time></trkpt><trkpt lat="45.38902821624078" lon="10.738347911129193"><ele>112.66666666666666</ele><time>2026-05-02T15:54:04Z</time></trkpt><trkpt lat="45.388854069787136" lon="10.738166173173294"><ele>113.0</ele><time>2026-05-02T15:54:05Z</time></trkpt><trkpt lat="45.388680729669396" lon="10.737987217298837"><ele>114.66666666666666</ele><time>2026-05-02T15:54:06Z</time></trkpt><trkpt lat="45.38850838031448" lon="10.737815651201585"><ele>116.33333333333334</ele><time>2026-05-02T15:54:07Z</time></trkpt><trkpt lat="45.38834498408519" lon="10.737643975245485"><ele>118.0</ele><time>2026-05-02T15:54:08Z</time></trkpt><trkpt lat="45.38818738861824" lon="10.737475553939717"><ele>119.0</ele><time>2026-05-02T15:54:09Z</time></trkpt><trkpt lat="45.38802576768081" lon="10.737328729600184"><ele>120.0</ele><time>2026-05-02T15:54:10Z</time></trkpt><trkpt lat="45.38785611998166" lon="10.737211354440573"><ele>121.0</ele><time>2026-05-02T15:54:11Z</time></trkpt><trkpt lat="45.38767840327583" lon="10.737101680691284"><ele>126.0</ele><time>2026-05-02T15:54:12Z</time></trkpt><trkpt lat="45.38749559160983" lon="10.737004909835665"><ele>131.0</ele><time>2026-05-02T15:54:13Z</time></trkpt><trkpt lat="45.38730615549667" lon="10.736920898348403"><ele>136.0</ele><time>2026-05-02T15:54:14Z</time></trkpt><trkpt lat="45.387117975794425" lon="10.736842791865678"><ele>136.0</ele><time>2026-05-02T15:54:15Z</time></trkpt><trkpt lat="45.386920396311524" lon="10.736764930134768"><ele>136.0</ele><time>2026-05-02T15:54:16Z</time></trkpt><trkpt lat="45.38672539409705" lon="10.736693150171096"><ele>136.0</ele><time>2026-05-02T15:54:17Z</time></trkpt><trkpt lat="45.38653007731952" lon="10.736628369301839"><ele>136.66666666666669</ele><time>2026-05-02T15:54:18Z</time></trkpt><trkpt lat="45.38633389087166" lon="10.736568762899006"><ele>137.33333333333334</ele><time>2026-05-02T15:54:19Z</time></trkpt><trkpt lat="45.386147659103436" lon="10.736506109219551"><ele>138.0</ele><time>2026-05-02T15:54:20Z</time></trkpt><trkpt lat="45.38596234719353" lon="10.736438594044742"><ele>138.0</ele><time>2026-05-02T15:54:21Z</time></trkpt><trkpt lat="45.385791347590185" lon="10.736371088166484"><ele>138.0</ele><time>2026-05-02T15:54:22Z</time></trkpt><trkpt lat="45.385629533119946" lon="10.736307153004962"><ele>138.0</ele><time>2026-05-02T15:54:23Z</time></trkpt><trkpt lat="45.38547357584499" lon="10.736238862799794"><ele>140.66666666666666</ele><time>2026-05-02T15:54:24Z</time></trkpt><trkpt lat="45.38531622785522" lon="10.736181795590912"><ele>143.33333333333331</ele><time>2026-05-02T15:54:25Z</time></trkpt><trkpt lat="45.385148386135" lon="10.73613211465977"><ele>146.0</ele><time>2026-05-02T15:54:26Z</time></trkpt><trkpt lat="45.38497043741756" lon="10.73609860161328"><ele>146.0</ele><time>2026-05-02T15:54:27Z</time></trkpt><trkpt lat="45.38480775015253" lon="10.73607360791882"><ele>146.0</ele><time>2026-05-02T15:54:28Z</time></trkpt><trkpt lat="45.38466343336215" lon="10.736038959337385"><ele>146.0</ele><time>2026-05-02T15:54:29Z</time></trkpt><trkpt lat="45.38454323437422" lon="10.73601183285173"><ele>146.0</ele><time>2026-05-02T15:54:30Z</time></trkpt><trkpt lat="45.38443827391588" lon="10.735992553936468"><ele>142.75</ele><time>2026-05-02T15:54:31Z</time></trkpt><trkpt lat="45.38432444676697" lon="10.735971533133313"><ele>139.5</ele><time>2026-05-02T15:54:32Z</time></trkpt><trkpt lat="45.384194784693534" lon="10.735949365422972"><ele>136.25</ele><time>2026-05-02T15:54:33Z</time></trkpt><trkpt lat="45.38405819765667" lon="10.73592702784634"><ele>133.0</ele><time>2026-05-02T15:54:34Z</time></trkpt><trkpt lat="45.38392836546474" lon="10.73590431475768"><ele>132.75</ele><time>2026-05-02T15:54:35Z</time></trkpt><trkpt lat="45.383806705095935" lon="10.735888522367704"><ele>132.5</ele><time>2026-05-02T15:54:36Z</time></trkpt><trkpt lat="45.383686073033" lon="10.735872535824086"><ele>132.25</ele><time>2026-05-02T15:54:37Z</time></trkpt><trkpt lat="45.38356317477107" lon="10.735860771231307"><ele>132.0</ele><time>2026-05-02T15:54:38Z</time></trkpt><trkpt lat="45.383449703647656" lon="10.735856357510563"><ele>132.0</ele><time>2026-05-02T15:54:39Z</time></trkpt><trkpt lat="45.38333824123329" lon="10.735861013633425"><ele>132.0</ele><time>2026-05-02T15:54:40Z</time></trkpt><trkpt lat="45.3832217828659" lon="10.735876570211753"><ele>132.0</ele><time>2026-05-02T15:54:41Z</time></trkpt><trkpt lat="45.3831065834012" lon="10.735866320949027"><ele>132.0</ele><time>2026-05-02T15:54:42Z</time></trkpt><trkpt lat="45.38298824776564" lon="10.735861794273772"><ele>131.25</ele><time>2026-05-02T15:54:43Z</time></trkpt><trkpt lat="45.38287474190309" lon="10.735862023668622"><ele>130.5</ele><time>2026-05-02T15:54:44Z</time></trkpt><trkpt lat="45.38275768051267" lon="10.735857815439376"><ele>129.75</ele><time>2026-05-02T15:54:45Z</time></trkpt><trkpt lat="45.38264593583162" lon="10.735852791159626"><ele>129.0</ele><time>2026-05-02T15:54:46Z</time></trkpt><trkpt lat="45.38253402583042" lon="10.735834452074547"><ele>129.0</ele><time>2026-05-02T15:54:47Z</time></trkpt><trkpt lat="45.382419676397674" lon="10.735810422989235"><ele>129.0</ele><time>2026-05-02T15:54:48Z</time></trkpt><trkpt lat="45.38230327087157" lon="10.735779482348486"><ele>129.0</ele><time>2026-05-02T15:54:49.001Z</time></trkpt><trkpt lat="45.38218770540367" lon="10.735745193231507"><ele>129.0</ele><time>2026-05-02T15:54:50.001Z</time></trkpt><trkpt lat="45.38206083306761" lon="10.735716653989414"><ele>128.5</ele><time>2026-05-02T15:54:51.001Z</time></trkpt><trkpt lat="45.381913984864404" lon="10.735681659724914"><ele>128.0</ele><time>2026-05-02T15:54:52.001Z</time></trkpt><trkpt lat="45.381793158275656" lon="10.735651412887249"><ele>127.5</ele><time>2026-05-02T15:54:53.001Z</time></trkpt><trkpt lat="45.38167309977065" lon="10.735624180466072"><ele>127.0</ele><time>2026-05-02T15:54:54.001Z</time></trkpt><trkpt lat="45.381566666090684" lon="10.73559765747612"><ele>127.0</ele><time>2026-05-02T15:54:55.001Z</time></trkpt><trkpt lat="45.38146203347738" lon="10.735565552925483"><ele>126.99999999999999</ele><time>2026-05-02T15:54:56.001Z</time></trkpt><trkpt lat="45.38135349648638" lon="10.735537469489733"><ele>126.99999999999999</ele><time>2026-05-02T15:54:57.001Z</time></trkpt><trkpt lat="45.38124425442168" lon="10.735518339181588"><ele>127.0</ele><time>2026-05-02T15:54:58.001Z</time></trkpt><trkpt lat="45.38113326045556" lon="10.735507282974627"><ele>127.0</ele><time>2026-05-02T15:54:59.001Z</time></trkpt><trkpt lat="45.381018491821294" lon="10.735495688328685"><ele>126.5</ele><time>2026-05-02T15:55:00.001Z</time></trkpt><trkpt lat="45.38089982598989" lon="10.73548115202361"><ele>126.0</ele><time>2026-05-02T15:55:01.001Z</time></trkpt><trkpt lat="45.380779338919595" lon="10.735475864254116"><ele>125.5</ele><time>2026-05-02T15:55:02.001Z</time></trkpt><trkpt lat="45.38065844521864" lon="10.735465960145456"><ele>125.0</ele><time>2026-05-02T15:55:03.001Z</time></trkpt><trkpt lat="45.38053748656645" lon="10.735451330182688"><ele>125.0</ele><time>2026-05-02T15:55:04.001Z</time></trkpt><trkpt lat="45.38041576720893" lon="10.735442530511737"><ele>125.0</ele><time>2026-05-02T15:55:05.001Z</time></trkpt><trkpt lat="45.380302119883915" lon="10.735438262742669"><ele>125.0</ele><time>2026-05-02T15:55:06.001Z</time></trkpt><trkpt lat="45.38019162237196" lon="10.735434735260558"><ele>125.0</ele><time>2026-05-02T15:55:07.001Z</time></trkpt><trkpt lat="45.380077575852084" lon="10.735425850520704"><ele>125.0</ele><time>2026-05-02T15:55:08.001Z</time></trkpt><trkpt lat="45.379962066883785" lon="10.735417442793045"><ele>125.0</ele><time>2026-05-02T15:55:09.001Z</time></trkpt><trkpt lat="45.379845473805375" lon="10.735406630469846"><ele>125.0</ele><time>2026-05-02T15:55:10.001Z</time></trkpt><trkpt lat="45.37972362767033" lon="10.735398855239167"><ele>125.0</ele><time>2026-05-02T15:55:11.001Z</time></trkpt><trkpt lat="45.37959249277501" lon="10.735390826329096"><ele>124.66666666666666</ele><time>2026-05-02T15:55:12.001Z</time></trkpt><trkpt lat="45.37944645277148" lon="10.73538105610002"><ele>124.33333333333334</ele><time>2026-05-02T15:55:13.001Z</time></trkpt><trkpt lat="45.37929508740233" lon="10.73537141262309"><ele>124.0</ele><time>2026-05-02T15:55:14.001Z</time></trkpt><trkpt lat="45.37913575967312" lon="10.735358634239752"><ele>124.0</ele><time>2026-05-02T15:55:15.001Z</time></trkpt><trkpt lat="45.37896860198959" lon="10.735342784598899"><ele>124.0</ele><time>2026-05-02T15:55:16.001Z</time></trkpt><trkpt lat="45.37878316181681" lon="10.735332871849494"><ele>124.0</ele><time>2026-05-02T15:55:17.001Z</time></trkpt><trkpt lat="45.37857617334362" lon="10.735319125904432"><ele>122.66666666666667</ele><time>2026-05-02T15:55:18.001Z</time></trkpt><trkpt lat="45.37838281705511" lon="10.735305304170272"><ele>121.33333333333334</ele><time>2026-05-02T15:55:19.001Z</time></trkpt><trkpt lat="45.37818369538284" lon="10.735290931430566"><ele>120.0</ele><time>2026-05-02T15:55:20.001Z</time></trkpt><trkpt lat="45.377986337138545" lon="10.735266591446038"><ele>119.66666666666666</ele><time>2026-05-02T15:55:21.001Z</time></trkpt><trkpt lat="45.377791772972806" lon="10.735242923309338"><ele>119.33333333333333</ele><time>2026-05-02T15:55:22.001Z</time></trkpt><trkpt lat="45.37759382076862" lon="10.735211045427487"><ele>119.0</ele><time>2026-05-02T15:55:23.001Z</time></trkpt><trkpt lat="45.377397792039844" lon="10.735171783190134"><ele>119.0</ele><time>2026-05-02T15:55:24.001Z</time></trkpt><trkpt lat="45.37720146474142" lon="10.735118496728544"><ele>119.0</ele><time>2026-05-02T15:55:25.001Z</time></trkpt><trkpt lat="45.37700048271512" lon="10.735060952350878"><ele>119.0</ele><time>2026-05-02T15:55:26.001Z</time></trkpt><trkpt lat="45.376804807207286" lon="10.734997171956119"><ele>118.0</ele><time>2026-05-02T15:55:27.001Z</time></trkpt><trkpt lat="45.376607566555855" lon="10.734936824064883"><ele>117.0</ele><time>2026-05-02T15:55:28.001Z</time></trkpt><trkpt lat="45.37641158473496" lon="10.734872361101353"><ele>116.0</ele><time>2026-05-02T15:55:29.001Z</time></trkpt><trkpt lat="45.376210441435425" lon="10.734801678593435"><ele>115.33333333333333</ele><time>2026-05-02T15:55:30.001Z</time></trkpt><trkpt lat="45.37601366009773" lon="10.734723113157736"><ele>114.66666666666666</ele><time>2026-05-02T15:55:31.001Z</time></trkpt><trkpt lat="45.37581569460886" lon="10.734633674570919"><ele>114.0</ele><time>2026-05-02T15:55:32.001Z</time></trkpt><trkpt lat="45.37561982069126" lon="10.7345330951953"><ele>113.66666666666666</ele><time>2026-05-02T15:55:33.001Z</time></trkpt><trkpt lat="45.375429156079" lon="10.734431780145254"><ele>113.33333333333333</ele><time>2026-05-02T15:55:34.001Z</time></trkpt><trkpt lat="45.37522879299217" lon="10.73432501125916"><ele>113.0</ele><time>2026-05-02T15:55:35.001Z</time></trkpt><trkpt lat="45.37503194985192" lon="10.734223445645108"><ele>113.0</ele><time>2026-05-02T15:55:36.001Z</time></trkpt><trkpt lat="45.374835637145765" lon="10.734124506645717"><ele>113.0</ele><time>2026-05-02T15:55:37.001Z</time></trkpt><trkpt lat="45.37464269890289" lon="10.734030740451269"><ele>113.0</ele><time>2026-05-02T15:55:38.001Z</time></trkpt><trkpt lat="45.37445682012791" lon="10.733955271191682"><ele>113.0</ele><time>2026-05-02T15:55:39.001Z</time></trkpt><trkpt lat="45.374286155051166" lon="10.7338830933709"><ele>113.0</ele><time>2026-05-02T15:55:40.001Z</time></trkpt><trkpt lat="45.374114511324336" lon="10.733812967250191"><ele>113.0</ele><time>2026-05-02T15:55:40.999Z</time></trkpt><trkpt lat="45.373946809329496" lon="10.733732295487403"><ele>113.66666666666666</ele><time>2026-05-02T15:55:41.999Z</time></trkpt><trkpt lat="45.373783168170725" lon="10.733644516856216"><ele>114.33333333333334</ele><time>2026-05-02T15:55:42.999Z</time></trkpt><trkpt lat="45.37361918083476" lon="10.733527670811664"><ele>115.0</ele><time>2026-05-02T15:55:43.999Z</time></trkpt><trkpt lat="45.37345123340038" lon="10.733406568009492"><ele>114.0</ele><time>2026-05-02T15:55:44.999Z</time></trkpt><trkpt lat="45.37328510455464" lon="10.733290089280892"><ele>113.0</ele><time>2026-05-02T15:55:45.999Z</time></trkpt><trkpt lat="45.37312161117658" lon="10.73317829363234"><ele>112.0</ele><time>2026-05-02T15:55:46.999Z</time></trkpt><trkpt lat="45.37295847001362" lon="10.733078647847604"><ele>112.0</ele><time>2026-05-02T15:55:47.999Z</time></trkpt><trkpt lat="45.372800413697284" lon="10.732997864359875"><ele>112.0</ele><time>2026-05-02T15:55:48.999Z</time></trkpt><trkpt lat="45.372652607527854" lon="10.732936095629233"><ele>112.0</ele><time>2026-05-02T15:55:49.999Z</time></trkpt><trkpt lat="45.37252715464058" lon="10.732892732437588"><ele>112.0</ele><time>2026-05-02T15:55:50.999Z</time></trkpt><trkpt lat="45.372409323256846" lon="10.732861157032902"><ele>111.99999999999999</ele><time>2026-05-02T15:55:51.999Z</time></trkpt><trkpt lat="45.372297716026736" lon="10.732848003178683"><ele>111.99999999999999</ele><time>2026-05-02T15:55:52.999Z</time></trkpt><trkpt lat="45.37220679648251" lon="10.732848011836701"><ele>112.0</ele><time>2026-05-02T15:55:53.999Z</time></trkpt><trkpt lat="45.372135574569725" lon="10.732852897229098"><ele>112.0</ele><time>2026-05-02T15:55:54.999Z</time></trkpt><trkpt lat="45.372057718194235" lon="10.732840988730992"><ele>112.0</ele><time>2026-05-02T15:55:56.999Z</time></trkpt><trkpt lat="45.372012491976584" lon="10.732773004564631"><ele>111.99999999999999</ele><time>2026-05-02T15:55:59.999Z</time></trkpt><trkpt lat="45.37197774418398" lon="10.732597536590779"><ele>111.99999999999999</ele><time>2026-05-02T15:56:01.999Z</time></trkpt><trkpt lat="45.3719775246318" lon="10.732496841431278"><ele>112.0</ele><time>2026-05-02T15:56:02.999Z</time></trkpt><trkpt lat="45.37189850793475" lon="10.73236860865011"><ele>112.0</ele><time>2026-05-02T15:56:04.999Z</time></trkpt><trkpt lat="45.37182085566356" lon="10.732360300293042"><ele>111.75</ele><time>2026-05-02T15:56:06Z</time></trkpt><trkpt lat="45.371733675928525" lon="10.732396490769064"><ele>111.5</ele><time>2026-05-02T15:56:07Z</time></trkpt><trkpt lat="45.37164074558579" lon="10.732476713046704"><ele>111.25</ele><time>2026-05-02T15:56:08Z</time></trkpt><trkpt lat="45.37153392971611" lon="10.732548068515316"><ele>111.0</ele><time>2026-05-02T15:56:09Z</time></trkpt><trkpt lat="45.37139608357537" lon="10.732584673002874"><ele>110.33333333333334</ele><time>2026-05-02T15:56:10Z</time></trkpt><trkpt lat="45.37123504546099" lon="10.732577951005384"><ele>109.66666666666667</ele><time>2026-05-02T15:56:11Z</time></trkpt><trkpt lat="45.371057465129475" lon="10.73255088686881"><ele>109.0</ele><time>2026-05-02T15:56:12Z</time></trkpt><trkpt lat="45.370865320803624" lon="10.732517386804231"><ele>109.0</ele><time>2026-05-02T15:56:13Z</time></trkpt><trkpt lat="45.37066829481929" lon="10.73248757365535"><ele>109.0</ele><time>2026-05-02T15:56:14Z</time></trkpt><trkpt lat="45.37048184033777" lon="10.732467730376596"><ele>109.0</ele><time>2026-05-02T15:56:15Z</time></trkpt><trkpt lat="45.370301578672226" lon="10.732459133311"><ele>108.0</ele><time>2026-05-02T15:56:16Z</time></trkpt><trkpt lat="45.370116045285066" lon="10.732477219501925"><ele>107.0</ele><time>2026-05-02T15:56:17Z</time></trkpt><trkpt lat="45.369930811522664" lon="10.732508334098643"><ele>106.0</ele><time>2026-05-02T15:56:18Z</time></trkpt><trkpt lat="45.36974834245368" lon="10.732565008207457"><ele>106.33333333333334</ele><time>2026-05-02T15:56:19Z</time></trkpt><trkpt lat="45.369566514686085" lon="10.732641075708637"><ele>106.66666666666666</ele><time>2026-05-02T15:56:20Z</time></trkpt><trkpt lat="45.369395404750726" lon="10.73273116567159"><ele>107.0</ele><time>2026-05-02T15:56:21Z</time></trkpt><trkpt lat="45.36924011202528" lon="10.732830533924991"><ele>107.0</ele><time>2026-05-02T15:56:22Z</time></trkpt><trkpt lat="45.36909973328366" lon="10.732926504656563"><ele>107.0</ele><time>2026-05-02T15:56:23Z</time></trkpt><trkpt lat="45.36897389259593" lon="10.73303886295146"><ele>107.0</ele><time>2026-05-02T15:56:24Z</time></trkpt><trkpt lat="45.368831004806395" lon="10.733163281922467"><ele>106.66666666666666</ele><time>2026-05-02T15:56:25Z</time></trkpt><trkpt lat="45.368677725163074" lon="10.733318785618971"><ele>106.33333333333334</ele><time>2026-05-02T15:56:26Z</time></trkpt><trkpt lat="45.368528827159935" lon="10.733521720674766"><ele>106.0</ele><time>2026-05-02T15:56:27Z</time></trkpt><trkpt lat="45.36837963940709" lon="10.733731771911346"><ele>106.0</ele><time>2026-05-02T15:56:28Z</time></trkpt><trkpt lat="45.368244102592136" lon="10.733958105977125"><ele>106.0</ele><time>2026-05-02T15:56:29Z</time></trkpt><trkpt lat="45.36811255306278" lon="10.734203959935671"><ele>106.0</ele><time>2026-05-02T15:56:30Z</time></trkpt><trkpt lat="45.36798711116786" lon="10.734437830728798"><ele>105.0</ele><time>2026-05-02T15:56:31Z</time></trkpt><trkpt lat="45.36787249488947" lon="10.73465375529822"><ele>104.0</ele><time>2026-05-02T15:56:32Z</time></trkpt><trkpt lat="45.36775336458651" lon="10.734887531392692"><ele>103.0</ele><time>2026-05-02T15:56:33Z</time></trkpt><trkpt lat="45.36762409873912" lon="10.735131531149706"><ele>102.5</ele><time>2026-05-02T15:56:34Z</time></trkpt><trkpt lat="45.36748973780756" lon="10.735392573916823"><ele>102.0</ele><time>2026-05-02T15:56:35Z</time></trkpt><trkpt lat="45.36734679876239" lon="10.735662658533446"><ele>102.0</ele><time>2026-05-02T15:56:36Z</time></trkpt><trkpt lat="45.36719773011862" lon="10.735948684253549"><ele>102.0</ele><time>2026-05-02T15:56:37Z</time></trkpt><trkpt lat="45.367053458474736" lon="10.736228885524836"><ele>101.5</ele><time>2026-05-02T15:56:38Z</time></trkpt><trkpt lat="45.36691397723341" lon="10.736505201632482"><ele>101.0</ele><time>2026-05-02T15:56:39Z</time></trkpt><trkpt lat="45.36677084895179" lon="10.736776536324289"><ele>101.0</ele><time>2026-05-02T15:56:40Z</time></trkpt><trkpt lat="45.36663654558223" lon="10.737034194796173"><ele>101.0</ele><time>2026-05-02T15:56:41Z</time></trkpt><trkpt lat="45.36650976600697" lon="10.737271379051002"><ele>101.0</ele><time>2026-05-02T15:56:42Z</time></trkpt><trkpt lat="45.366385280616456" lon="10.737501982679635"><ele>100.5</ele><time>2026-05-02T15:56:43Z</time></trkpt><trkpt lat="45.36626111610692" lon="10.737749290923055"><ele>100.0</ele><time>2026-05-02T15:56:44Z</time></trkpt><trkpt lat="45.36611598965824" lon="10.738040180074885"><ele>100.0</ele><time>2026-05-02T15:56:45Z</time></trkpt><trkpt lat="45.365959287370345" lon="10.738345054099817"><ele>100.0</ele><time>2026-05-02T15:56:46.001Z</time></trkpt><trkpt lat="45.365790375428794" lon="10.738661098235177"><ele>99.5</ele><time>2026-05-02T15:56:47.001Z</time></trkpt><trkpt lat="45.36560781580899" lon="10.738990237477136"><ele>99.0</ele><time>2026-05-02T15:56:48.001Z</time></trkpt><trkpt lat="45.36541914597687" lon="10.739318179898753"><ele>98.0</ele><time>2026-05-02T15:56:49.001Z</time></trkpt><trkpt lat="45.3652162969557" lon="10.739660176570887"><ele>97.0</ele><time>2026-05-02T15:56:50.001Z</time></trkpt><trkpt lat="45.36499944453242" lon="10.740012201517555"><ele>97.0</ele><time>2026-05-02T15:56:51.001Z</time></trkpt><trkpt lat="45.364764177334" lon="10.740359542666097"><ele>97.0</ele><time>2026-05-02T15:56:52.001Z</time></trkpt><trkpt lat="45.36451616370677" lon="10.740689493155777"><ele>96.5</ele><time>2026-05-02T15:56:53.001Z</time></trkpt><trkpt lat="45.364258879577825" lon="10.741004055685082"><ele>96.0</ele><time>2026-05-02T15:56:54.001Z</time></trkpt><trkpt lat="45.36400017132554" lon="10.741314997927624"><ele>95.5</ele><time>2026-05-02T15:56:55.001Z</time></trkpt><trkpt lat="45.363741085683706" lon="10.741623918180032"><ele>95.0</ele><time>2026-05-02T15:56:56.001Z</time></trkpt><trkpt lat="45.36348258466075" lon="10.741928072103676"><ele>93.5</ele><time>2026-05-02T15:56:57.001Z</time></trkpt><trkpt lat="45.36322898242895" lon="10.742222985203956"><ele>92.0</ele><time>2026-05-02T15:56:58.001Z</time></trkpt><trkpt lat="45.3629743669613" lon="10.742518752310017"><ele>92.0</ele><time>2026-05-02T15:56:59.001Z</time></trkpt><trkpt lat="45.36272545164671" lon="10.742808449704295"><ele>92.0</ele><time>2026-05-02T15:57:00.001Z</time></trkpt><trkpt lat="45.362479979745984" lon="10.743097552860178"><ele>92.0</ele><time>2026-05-02T15:57:01.001Z</time></trkpt><trkpt lat="45.36223587405783" lon="10.743386355135193"><ele>92.0</ele><time>2026-05-02T15:57:02.001Z</time></trkpt><trkpt lat="45.36199290170569" lon="10.74367108993086"><ele>91.5</ele><time>2026-05-02T15:57:03.001Z</time></trkpt><trkpt lat="45.36175091897593" lon="10.743951452370153"><ele>91.0</ele><time>2026-05-02T15:57:04.001Z</time></trkpt><trkpt lat="45.361510523360856" lon="10.744224230019356"><ele>90.5</ele><time>2026-05-02T15:57:05.001Z</time></trkpt><trkpt lat="45.36128058713911" lon="10.744485749388126"><ele>90.0</ele><time>2026-05-02T15:57:06.001Z</time></trkpt><trkpt lat="45.36105996317906" lon="10.744744769206273"><ele>90.0</ele><time>2026-05-02T15:57:07.001Z</time></trkpt><trkpt lat="45.36084015756102" lon="10.74500548048463"><ele>90.0</ele><time>2026-05-02T15:57:08.001Z</time></trkpt><trkpt lat="45.36062903824946" lon="10.745255259500532"><ele>89.5</ele><time>2026-05-02T15:57:09.001Z</time></trkpt><trkpt lat="45.360412895728956" lon="10.745521481387343"><ele>89.0</ele><time>2026-05-02T15:57:10.001Z</time></trkpt><trkpt lat="45.36019699852978" lon="10.745791524159367"><ele>89.0</ele><time>2026-05-02T15:57:11.001Z</time></trkpt><trkpt lat="45.36001652251904" lon="10.745969661231593"><ele>89.0</ele><time>2026-05-02T15:57:12.001Z</time></trkpt><trkpt lat="45.35983516018577" lon="10.746171826172647"><ele>88.0</ele><time>2026-05-02T15:57:13.001Z</time></trkpt><trkpt lat="45.3596508482578" lon="10.74636834865426"><ele>87.0</ele><time>2026-05-02T15:57:14.001Z</time></trkpt><trkpt lat="45.35945875574754" lon="10.746563808497331"><ele>87.0</ele><time>2026-05-02T15:57:15.001Z</time></trkpt><trkpt lat="45.35926040705535" lon="10.746751681918186"><ele>87.0</ele><time>2026-05-02T15:57:16.001Z</time></trkpt><trkpt lat="45.35905377040419" lon="10.74692356147534"><ele>87.5</ele><time>2026-05-02T15:57:17.001Z</time></trkpt><trkpt lat="45.35883256366842" lon="10.747087322278455"><ele>88.0</ele><time>2026-05-02T15:57:18.001Z</time></trkpt><trkpt lat="45.35860129638019" lon="10.747229978714701"><ele>88.0</ele><time>2026-05-02T15:57:19.001Z</time></trkpt><trkpt lat="45.358364451219025" lon="10.74735251930924"><ele>88.0</ele><time>2026-05-02T15:57:20.001Z</time></trkpt><trkpt lat="45.35812952755188" lon="10.747467137801538"><ele>88.0</ele><time>2026-05-02T15:57:21.001Z</time></trkpt><trkpt lat="45.357886979884974" lon="10.747560261506003"><ele>88.0</ele><time>2026-05-02T15:57:22.001Z</time></trkpt><trkpt lat="45.357637431920736" lon="10.747637952746073"><ele>88.0</ele><time>2026-05-02T15:57:23.001Z</time></trkpt><trkpt lat="45.35738647269711" lon="10.747700487053503"><ele>88.0</ele><time>2026-05-02T15:57:24.001Z</time></trkpt><trkpt lat="45.35712866726039" lon="10.747751980745802"><ele>87.5</ele><time>2026-05-02T15:57:25.001Z</time></trkpt><trkpt lat="45.35686845540016" lon="10.747790045434725"><ele>87.0</ele><time>2026-05-02T15:57:26.001Z</time></trkpt><trkpt lat="45.35660742974627" lon="10.747817072643373"><ele>87.5</ele><time>2026-05-02T15:57:27.001Z</time></trkpt><trkpt lat="45.356356795361336" lon="10.747843255290235"><ele>88.0</ele><time>2026-05-02T15:57:28.001Z</time></trkpt><trkpt lat="45.35612272970127" lon="10.747862902041415"><ele>88.0</ele><time>2026-05-02T15:57:29.001Z</time></trkpt><trkpt lat="45.35589885881116" lon="10.74788165015777"><ele>88.0</ele><time>2026-05-02T15:57:30.001Z</time></trkpt><trkpt lat="45.35568812539513" lon="10.747899129706633"><ele>88.0</ele><time>2026-05-02T15:57:31.001Z</time></trkpt><trkpt lat="45.355473403293246" lon="10.747918441293765"><ele>87.33333333333333</ele><time>2026-05-02T15:57:32.001Z</time></trkpt><trkpt lat="45.35524972612203" lon="10.747942440493432"><ele>86.66666666666667</ele><time>2026-05-02T15:57:33.001Z</time></trkpt><trkpt lat="45.35502640046033" lon="10.747964625777541"><ele>86.0</ele><time>2026-05-02T15:57:34.001Z</time></trkpt><trkpt lat="45.3548021101113" lon="10.747987951922278"><ele>86.0</ele><time>2026-05-02T15:57:35.001Z</time></trkpt><trkpt lat="45.3545737660037" lon="10.748008747356375"><ele>86.0</ele><time>2026-05-02T15:57:36.001Z</time></trkpt><trkpt lat="45.35433481618429" lon="10.748031679458101"><ele>86.0</ele><time>2026-05-02T15:57:37.001Z</time></trkpt><trkpt lat="45.354089235658535" lon="10.748055414347744"><ele>86.0</ele><time>2026-05-02T15:57:38.001Z</time></trkpt><trkpt lat="45.35383922796198" lon="10.74807857340163"><ele>85.5</ele><time>2026-05-02T15:57:39.001Z</time></trkpt><trkpt lat="45.35360179656622" lon="10.748097464140868"><ele>85.0</ele><time>2026-05-02T15:57:40.001Z</time></trkpt><trkpt lat="45.35337184346122" lon="10.74811164402363"><ele>85.0</ele><time>2026-05-02T15:57:41.001Z</time></trkpt><trkpt lat="45.35313626075633" lon="10.74813052372417"><ele>85.0</ele><time>2026-05-02T15:57:42.002Z</time></trkpt><trkpt lat="45.352883619002476" lon="10.748155672485806"><ele>83.5</ele><time>2026-05-02T15:57:43.002Z</time></trkpt><trkpt lat="45.35261741201464" lon="10.748186910247417"><ele>82.0</ele><time>2026-05-02T15:57:44.002Z</time></trkpt><trkpt lat="45.352347105967105" lon="10.748220849253759"><ele>81.5</ele><time>2026-05-02T15:57:45.002Z</time></trkpt><trkpt lat="45.3520814893723" lon="10.748244080104083"><ele>81.0</ele><time>2026-05-02T15:57:46.002Z</time></trkpt><trkpt lat="45.35182478154105" lon="10.748266119988953"><ele>81.0</ele><time>2026-05-02T15:57:46.999Z</time></trkpt><trkpt lat="45.35157482509888" lon="10.748287318791363"><ele>81.0</ele><time>2026-05-02T15:57:47.999Z</time></trkpt><trkpt lat="45.351338519822654" lon="10.748302713251952"><ele>81.33333333333333</ele><time>2026-05-02T15:57:48.999Z</time></trkpt><trkpt lat="45.35111402140878" lon="10.74830426134385"><ele>81.66666666666666</ele><time>2026-05-02T15:57:49.999Z</time></trkpt><trkpt lat="45.350891950675695" lon="10.748299371308114"><ele>82.0</ele><time>2026-05-02T15:57:50.999Z</time></trkpt><trkpt lat="45.35066688042446" lon="10.748285231731005"><ele>82.0</ele><time>2026-05-02T15:57:51.999Z</time></trkpt><trkpt lat="45.350439047007775" lon="10.748248884954858"><ele>82.0</ele><time>2026-05-02T15:57:52.999Z</time></trkpt><trkpt lat="45.35020840398518" lon="10.748195771652128"><ele>82.0</ele><time>2026-05-02T15:57:53.999Z</time></trkpt><trkpt lat="45.34999112473613" lon="10.74812374080654"><ele>82.0</ele><time>2026-05-02T15:57:54.999Z</time></trkpt><trkpt lat="45.349782057958336" lon="10.748042498687473"><ele>82.0</ele><time>2026-05-02T15:57:55.999Z</time></trkpt><trkpt lat="45.349587776698236" lon="10.74794592760539"><ele>82.0</ele><time>2026-05-02T15:57:56.999Z</time></trkpt><trkpt lat="45.349398120887585" lon="10.747839310687777"><ele>82.0</ele><time>2026-05-02T15:57:57.999Z</time></trkpt><trkpt lat="45.34920911525871" lon="10.747726733011007"><ele>82.0</ele><time>2026-05-02T15:57:58.999Z</time></trkpt><trkpt lat="45.34902249827291" lon="10.747610652405504"><ele>81.66666666666666</ele><time>2026-05-02T15:57:59.999Z</time></trkpt><trkpt lat="45.348833926615974" lon="10.747477677755873"><ele>81.33333333333333</ele><time>2026-05-02T15:58:01Z</time></trkpt><trkpt lat="45.34863576491977" lon="10.74732572069614"><ele>81.0</ele><time>2026-05-02T15:58:02Z</time></trkpt><trkpt lat="45.34841796647849" lon="10.747170249992731"><ele>81.0</ele><time>2026-05-02T15:58:03Z</time></trkpt><trkpt lat="45.348191526914654" lon="10.747001995361737"><ele>81.0</ele><time>2026-05-02T15:58:04Z</time></trkpt><trkpt lat="45.3479623719988" lon="10.746847781024353"><ele>79.5</ele><time>2026-05-02T15:58:05Z</time></trkpt><trkpt lat="45.34771990058867" lon="10.746666991042707"><ele>78.0</ele><time>2026-05-02T15:58:06Z</time></trkpt><trkpt lat="45.34747617259908" lon="10.746483900906293"><ele>78.0</ele><time>2026-05-02T15:58:07Z</time></trkpt><trkpt lat="45.34724618603312" lon="10.746289862156509"><ele>78.0</ele><time>2026-05-02T15:58:08Z</time></trkpt><trkpt lat="45.347013886916486" lon="10.7460977531129"><ele>78.0</ele><time>2026-05-02T15:58:09Z</time></trkpt><trkpt lat="45.34677411147965" lon="10.74590994637099"><ele>78.0</ele><time>2026-05-02T15:58:10Z</time></trkpt><trkpt lat="45.34653393113197" lon="10.745726537959428"><ele>78.5</ele><time>2026-05-02T15:58:11Z</time></trkpt><trkpt lat="45.34628328685448" lon="10.745534248489363"><ele>79.0</ele><time>2026-05-02T15:58:12Z</time></trkpt><trkpt lat="45.34603018035448" lon="10.74534360761793"><ele>79.0</ele><time>2026-05-02T15:58:13Z</time></trkpt><trkpt lat="45.34578240485507" lon="10.745153712400182"><ele>79.0</ele><time>2026-05-02T15:58:14Z</time></trkpt><trkpt lat="45.34553750816812" lon="10.744971858967087"><ele>78.0</ele><time>2026-05-02T15:58:15Z</time></trkpt><trkpt lat="45.345303171363874" lon="10.744792631725263"><ele>77.0</ele><time>2026-05-02T15:58:16Z</time></trkpt><trkpt lat="45.34507874095784" lon="10.744617341014942"><ele>77.0</ele><time>2026-05-02T15:58:17Z</time></trkpt><trkpt lat="45.34485241014152" lon="10.744449357305003"><ele>77.0</ele><time>2026-05-02T15:58:18Z</time></trkpt><trkpt lat="45.34462795336934" lon="10.744281063497974"><ele>77.5</ele><time>2026-05-02T15:58:19Z</time></trkpt><trkpt lat="45.344399575746486" lon="10.744113494215686"><ele>78.0</ele><time>2026-05-02T15:58:20Z</time></trkpt><trkpt lat="45.344173747503376" lon="10.74394149644974"><ele>78.0</ele><time>2026-05-02T15:58:21Z</time></trkpt><trkpt lat="45.34394890133486" lon="10.74377145826836"><ele>78.0</ele><time>2026-05-02T15:58:22Z</time></trkpt><trkpt lat="45.34372107820096" lon="10.743611692514083"><ele>78.0</ele><time>2026-05-02T15:58:23Z</time></trkpt><trkpt lat="45.34351215875959" lon="10.743459330434538"><ele>78.0</ele><time>2026-05-02T15:58:24Z</time></trkpt><trkpt lat="45.34331162106538" lon="10.743314319200502"><ele>78.0</ele><time>2026-05-02T15:58:25Z</time></trkpt><trkpt lat="45.3431114253185" lon="10.74316193057781"><ele>78.0</ele><time>2026-05-02T15:58:26Z</time></trkpt><trkpt lat="45.34291931095518" lon="10.743006133046812"><ele>78.0</ele><time>2026-05-02T15:58:27Z</time></trkpt><trkpt lat="45.34274521226268" lon="10.742869552788923"><ele>77.66666666666667</ele><time>2026-05-02T15:58:28Z</time></trkpt><trkpt lat="45.34257578222413" lon="10.742734825427135"><ele>77.33333333333334</ele><time>2026-05-02T15:58:29Z</time></trkpt><trkpt lat="45.342423434867314" lon="10.742588207555373"><ele>77.0</ele><time>2026-05-02T15:58:30Z</time></trkpt><trkpt lat="45.342287646756034" lon="10.74241885850922"><ele>77.33333333333334</ele><time>2026-05-02T15:58:31Z</time></trkpt><trkpt lat="45.34216423432823" lon="10.742231563497473"><ele>77.66666666666667</ele><time>2026-05-02T15:58:32Z</time></trkpt><trkpt lat="45.34205866085449" lon="10.742026631094785"><ele>78.0</ele><time>2026-05-02T15:58:33Z</time></trkpt><trkpt lat="45.341961422623456" lon="10.741816099892345"><ele>77.33333333333333</ele><time>2026-05-02T15:58:34Z</time></trkpt><trkpt lat="45.34186964187305" lon="10.741605525290545"><ele>76.66666666666666</ele><time>2026-05-02T15:58:35Z</time></trkpt><trkpt lat="45.34177583153415" lon="10.741400735016715"><ele>76.0</ele><time>2026-05-02T15:58:36Z</time></trkpt><trkpt lat="45.34167753399643" lon="10.74120205985797"><ele>76.33333333333333</ele><time>2026-05-02T15:58:37Z</time></trkpt><trkpt lat="45.341574450189256" lon="10.741014199584498"><ele>76.66666666666667</ele><time>2026-05-02T15:58:38.001Z</time></trkpt><trkpt lat="45.341465083036745" lon="10.740839978414083"><ele>77.0</ele><time>2026-05-02T15:58:39.001Z</time></trkpt><trkpt lat="45.341339382755905" lon="10.740692710758408"><ele>77.33333333333334</ele><time>2026-05-02T15:58:40.001Z</time></trkpt><trkpt lat="45.34119118196433" lon="10.740578748397201"><ele>77.66666666666667</ele><time>2026-05-02T15:58:41.001Z</time></trkpt><trkpt lat="45.34102611362556" lon="10.74050754994558"><ele>78.0</ele><time>2026-05-02T15:58:42.001Z</time></trkpt><trkpt lat="45.34084728024384" lon="10.740475379003886"><ele>78.0</ele><time>2026-05-02T15:58:43.001Z</time></trkpt><trkpt lat="45.34066891568422" lon="10.740481924380282"><ele>78.0</ele><time>2026-05-02T15:58:44.001Z</time></trkpt><trkpt lat="45.34048484450452" lon="10.740547484894847"><ele>78.0</ele><time>2026-05-02T15:58:45.001Z</time></trkpt><trkpt lat="45.34030254318825" lon="10.740665547237375"><ele>78.0</ele><time>2026-05-02T15:58:46.001Z</time></trkpt><trkpt lat="45.34011580089959" lon="10.740813031745642"><ele>78.0</ele><time>2026-05-02T15:58:47.001Z</time></trkpt><trkpt lat="45.339907859169564" lon="10.740971891431933"><ele>77.0</ele><time>2026-05-02T15:58:48.001Z</time></trkpt><trkpt lat="45.33967435126461" lon="10.741135953842674"><ele>76.0</ele><time>2026-05-02T15:58:49.001Z</time></trkpt><trkpt lat="45.339432885884754" lon="10.741309344975608"><ele>76.0</ele><time>2026-05-02T15:58:50.001Z</time></trkpt><trkpt lat="45.33918467445712" lon="10.74149089229033"><ele>76.0</ele><time>2026-05-02T15:58:51.001Z</time></trkpt><trkpt lat="45.33893002490086" lon="10.741679000859468"><ele>76.5</ele><time>2026-05-02T15:58:52.001Z</time></trkpt><trkpt lat="45.33867479644162" lon="10.741858416991674"><ele>77.0</ele><time>2026-05-02T15:58:53.001Z</time></trkpt><trkpt lat="45.33841811538224" lon="10.742048124878291"><ele>77.5</ele><time>2026-05-02T15:58:54.001Z</time></trkpt><trkpt lat="45.338151315511006" lon="10.742234775207045"><ele>78.0</ele><time>2026-05-02T15:58:55.001Z</time></trkpt><trkpt lat="45.33787621624647" lon="10.74243519018617"><ele>77.5</ele><time>2026-05-02T15:58:56.001Z</time></trkpt><trkpt lat="45.33759918836718" lon="10.742634066598432"><ele>77.0</ele><time>2026-05-02T15:58:57.001Z</time></trkpt><trkpt lat="45.33731919674662" lon="10.742839430635902"><ele>77.0</ele><time>2026-05-02T15:58:58.001Z</time></trkpt><trkpt lat="45.337039655081846" lon="10.74303767119587"><ele>77.0</ele><time>2026-05-02T15:58:59.001Z</time></trkpt><trkpt lat="45.33676156253137" lon="10.743236729430274"><ele>77.0</ele><time>2026-05-02T15:59:00.001Z</time></trkpt><trkpt lat="45.336484682936415" lon="10.74343674674351"><ele>77.0</ele><time>2026-05-02T15:59:01.001Z</time></trkpt><trkpt lat="45.33620478043207" lon="10.743637605032799"><ele>75.5</ele><time>2026-05-02T15:59:02.001Z</time></trkpt><trkpt lat="45.335925031953856" lon="10.743834615223822"><ele>74.0</ele><time>2026-05-02T15:59:03.001Z</time></trkpt><trkpt lat="45.335643253028664" lon="10.744033163207382"><ele>74.5</ele><time>2026-05-02T15:59:04.001Z</time></trkpt><trkpt lat="45.33535679131572" lon="10.744234316819067"><ele>75.0</ele><time>2026-05-02T15:59:05.001Z</time></trkpt><trkpt lat="45.33506595852465" lon="10.744437672461496"><ele>75.5</ele><time>2026-05-02T15:59:06.001Z</time></trkpt><trkpt lat="45.33477715654006" lon="10.744641898459504"><ele>76.0</ele><time>2026-05-02T15:59:07.001Z</time></trkpt><trkpt lat="45.33449292394092" lon="10.744841483481153"><ele>76.5</ele><time>2026-05-02T15:59:08.001Z</time></trkpt><trkpt lat="45.33421104093016" lon="10.745028816402302"><ele>77.0</ele><time>2026-05-02T15:59:09.001Z</time></trkpt><trkpt lat="45.33392762871403" lon="10.74520268989863"><ele>75.0</ele><time>2026-05-02T15:59:10.001Z</time></trkpt><trkpt lat="45.333641608417985" lon="10.745365149422012"><ele>73.0</ele><time>2026-05-02T15:59:11.001Z</time></trkpt><trkpt lat="45.333349907386" lon="10.745524587358412"><ele>74.0</ele><time>2026-05-02T15:59:12.001Z</time></trkpt><trkpt lat="45.33304923297958" lon="10.74567977111227"><ele>75.0</ele><time>2026-05-02T15:59:13.001Z</time></trkpt><trkpt lat="45.33274729818063" lon="10.745835666473257"><ele>75.0</ele><time>2026-05-02T15:59:14.001Z</time></trkpt><trkpt lat="45.332448348279584" lon="10.745989645276437"><ele>75.0</ele><time>2026-05-02T15:59:15.001Z</time></trkpt><trkpt lat="45.33213714759993" lon="10.746148713941567"><ele>73.5</ele><time>2026-05-02T15:59:16.001Z</time></trkpt><trkpt lat="45.33180845946679" lon="10.746319593504383"><ele>72.0</ele><time>2026-05-02T15:59:17.001Z</time></trkpt><trkpt lat="45.33146592058644" lon="10.746501801566417"><ele>72.0</ele><time>2026-05-02T15:59:18.001Z</time></trkpt><trkpt lat="45.33113187601097" lon="10.74667819034515"><ele>72.0</ele><time>2026-05-02T15:59:19.001Z</time></trkpt><trkpt lat="45.330816327493245" lon="10.746839212593274"><ele>72.0</ele><time>2026-05-02T15:59:20.001Z</time></trkpt><trkpt lat="45.33052198351811" lon="10.746988123667984"><ele>72.0</ele><time>2026-05-02T15:59:21.001Z</time></trkpt><trkpt lat="45.330246727132426" lon="10.747128941699692"><ele>72.0</ele><time>2026-05-02T15:59:22.001Z</time></trkpt><trkpt lat="45.32997694502478" lon="10.747255787124253"><ele>72.0</ele><time>2026-05-02T15:59:23.001Z</time></trkpt><trkpt lat="45.32969335422192" lon="10.747347596098033"><ele>72.0</ele><time>2026-05-02T15:59:24.001Z</time></trkpt><trkpt lat="45.32939600661462" lon="10.747403000649264"><ele>72.0</ele><time>2026-05-02T15:59:25.001Z</time></trkpt><trkpt lat="45.32908666624727" lon="10.747453662303947"><ele>71.5</ele><time>2026-05-02T15:59:26.001Z</time></trkpt><trkpt lat="45.32876303508824" lon="10.747508716619905"><ele>71.0</ele><time>2026-05-02T15:59:27.001Z</time></trkpt><trkpt lat="45.32842767746469" lon="10.74756899748193"><ele>71.0</ele><time>2026-05-02T15:59:28.001Z</time></trkpt><trkpt lat="45.32808629207555" lon="10.747634920725712"><ele>71.0</ele><time>2026-05-02T15:59:29.002Z</time></trkpt><trkpt lat="45.32774433009213" lon="10.747698781753297"><ele>71.0</ele><time>2026-05-02T15:59:30.002Z</time></trkpt><trkpt lat="45.32740493801593" lon="10.747760210763968"><ele>71.0</ele><time>2026-05-02T15:59:31.002Z</time></trkpt><trkpt lat="45.327067112345624" lon="10.7478192448727"><ele>71.0</ele><time>2026-05-02T15:59:32.002Z</time></trkpt><trkpt lat="45.32673223447261" lon="10.74786636618481"><ele>71.0</ele><time>2026-05-02T15:59:33.002Z</time></trkpt><trkpt lat="45.32639772877002" lon="10.747898435180003"><ele>71.0</ele><time>2026-05-02T15:59:34.002Z</time></trkpt><trkpt lat="45.32607314009943" lon="10.747911289150908"><ele>71.0</ele><time>2026-05-02T15:59:35.002Z</time></trkpt><trkpt lat="45.32575149141623" lon="10.747930638712367"><ele>70.5</ele><time>2026-05-02T15:59:36.002Z</time></trkpt><trkpt lat="45.32543086453075" lon="10.74796825009266"><ele>70.0</ele><time>2026-05-02T15:59:37.002Z</time></trkpt><trkpt lat="45.32511514108371" lon="10.748023803420509"><ele>70.0</ele><time>2026-05-02T15:59:38.002Z</time></trkpt><trkpt lat="45.32480305682374" lon="10.748092082609926"><ele>70.0</ele><time>2026-05-02T15:59:39.002Z</time></trkpt><trkpt lat="45.32451071473839" lon="10.748154605870528"><ele>69.0</ele><time>2026-05-02T15:59:40.002Z</time></trkpt><trkpt lat="45.3242350933671" lon="10.748212333650915"><ele>68.0</ele><time>2026-05-02T15:59:41.002Z</time></trkpt><trkpt lat="45.32397520751354" lon="10.74826624598474"><ele>68.0</ele><time>2026-05-02T15:59:42.002Z</time></trkpt><trkpt lat="45.323710859097076" lon="10.748323422611527"><ele>68.0</ele><time>2026-05-02T15:59:43.002Z</time></trkpt><trkpt lat="45.323445841573275" lon="10.74838188672319"><ele>68.0</ele><time>2026-05-02T15:59:44.002Z</time></trkpt><trkpt lat="45.323187812509985" lon="10.748437865842899"><ele>68.0</ele><time>2026-05-02T15:59:45.002Z</time></trkpt><trkpt lat="45.32293130038975" lon="10.748493900610775"><ele>69.0</ele><time>2026-05-02T15:59:46.002Z</time></trkpt><trkpt lat="45.32267713768645" lon="10.748547228889137"><ele>70.0</ele><time>2026-05-02T15:59:47.002Z</time></trkpt><trkpt lat="45.32243692759389" lon="10.748600276029352"><ele>70.0</ele><time>2026-05-02T15:59:48.002Z</time></trkpt><trkpt lat="45.322212843633665" lon="10.748653256355269"><ele>70.0</ele><time>2026-05-02T15:59:49.002Z</time></trkpt><trkpt lat="45.321982816910854" lon="10.748698948653571"><ele>70.0</ele><time>2026-05-02T15:59:50.002Z</time></trkpt><trkpt lat="45.32175114073814" lon="10.748752237882927"><ele>70.0</ele><time>2026-05-02T15:59:51.002Z</time></trkpt><trkpt lat="45.32154003665034" lon="10.748803739277566"><ele>70.0</ele><time>2026-05-02T15:59:52.002Z</time></trkpt><trkpt lat="45.321355638736634" lon="10.74883976659105"><ele>69.33333333333333</ele><time>2026-05-02T15:59:53Z</time></trkpt><trkpt lat="45.3211814076098" lon="10.748868841334476"><ele>68.66666666666667</ele><time>2026-05-02T15:59:54Z</time></trkpt><trkpt lat="45.3210248698893" lon="10.748882979685142"><ele>68.0</ele><time>2026-05-02T15:59:55Z</time></trkpt><trkpt lat="45.32086703383462" lon="10.748914650264568"><ele>68.0</ele><time>2026-05-02T15:59:56Z</time></trkpt><trkpt lat="45.32069971831021" lon="10.748949552459008"><ele>68.0</ele><time>2026-05-02T15:59:57Z</time></trkpt><trkpt lat="45.320521500619236" lon="10.748978237401436"><ele>68.0</ele><time>2026-05-02T15:59:58Z</time></trkpt><trkpt lat="45.32034131014316" lon="10.74900418711266"><ele>67.33333333333334</ele><time>2026-05-02T15:59:59Z</time></trkpt><trkpt lat="45.320164656197186" lon="10.749023649853065"><ele>66.66666666666667</ele><time>2026-05-02T16:00:00Z</time></trkpt><trkpt lat="45.31999254124313" lon="10.749033973442893"><ele>66.0</ele><time>2026-05-02T16:00:01Z</time></trkpt><trkpt lat="45.31981813714727" lon="10.749042163778553"><ele>66.66666666666667</ele><time>2026-05-02T16:00:02Z</time></trkpt><trkpt lat="45.319643158397824" lon="10.749054667419118"><ele>67.33333333333334</ele><time>2026-05-02T16:00:03Z</time></trkpt><trkpt lat="45.319464116312034" lon="10.749059206199467"><ele>68.0</ele><time>2026-05-02T16:00:04Z</time></trkpt><trkpt lat="45.31928577315646" lon="10.749065691513252"><ele>68.0</ele><time>2026-05-02T16:00:05Z</time></trkpt><trkpt lat="45.319116137403036" lon="10.749078388351204"><ele>68.0</ele><time>2026-05-02T16:00:06Z</time></trkpt><trkpt lat="45.31894119654688" lon="10.749096016168023"><ele>68.0</ele><time>2026-05-02T16:00:07Z</time></trkpt><trkpt lat="45.31874916738455" lon="10.749110257325446"><ele>68.0</ele><time>2026-05-02T16:00:08Z</time></trkpt><trkpt lat="45.31855508058353" lon="10.749112064538853"><ele>68.0</ele><time>2026-05-02T16:00:09Z</time></trkpt><trkpt lat="45.31837183350118" lon="10.749111502101286"><ele>68.0</ele><time>2026-05-02T16:00:10Z</time></trkpt><trkpt lat="45.31820118371333" lon="10.749113662717896"><ele>67.66666666666667</ele><time>2026-05-02T16:00:11Z</time></trkpt><trkpt lat="45.31803246435948" lon="10.749115649697007"><ele>67.33333333333333</ele><time>2026-05-02T16:00:12Z</time></trkpt><trkpt lat="45.317860632644575" lon="10.749116149302973"><ele>67.0</ele><time>2026-05-02T16:00:13Z</time></trkpt><trkpt lat="45.317687641705355" lon="10.749119812682473"><ele>67.0</ele><time>2026-05-02T16:00:14Z</time></trkpt><trkpt lat="45.317520572948396" lon="10.749118464447566"><ele>67.0</ele><time>2026-05-02T16:00:15Z</time></trkpt><trkpt lat="45.31734139037384" lon="10.749129699006755"><ele>67.0</ele><time>2026-05-02T16:00:16Z</time></trkpt><trkpt lat="45.31714661922765" lon="10.74914110209986"><ele>66.0</ele><time>2026-05-02T16:00:17Z</time></trkpt><trkpt lat="45.31692399340704" lon="10.749157770238556"><ele>65.0</ele><time>2026-05-02T16:00:18Z</time></trkpt><trkpt lat="45.31665129302724" lon="10.749150879001105"><ele>65.0</ele><time>2026-05-02T16:00:19Z</time></trkpt><trkpt lat="45.31637373547254" lon="10.749174524282946"><ele>65.0</ele><time>2026-05-02T16:00:20.001Z</time></trkpt><trkpt lat="45.31607564319024" lon="10.749186591710778"><ele>65.0</ele><time>2026-05-02T16:00:21.001Z</time></trkpt><trkpt lat="45.31582114630236" lon="10.749214567320536"><ele>65.0</ele><time>2026-05-02T16:00:22.001Z</time></trkpt><trkpt lat="45.31560085810639" lon="10.749235073789839"><ele>64.66666666666667</ele><time>2026-05-02T16:00:23.001Z</time></trkpt><trkpt lat="45.31538534238056" lon="10.749271173539574"><ele>64.33333333333333</ele><time>2026-05-02T16:00:24.001Z</time></trkpt><trkpt lat="45.31518216127603" lon="10.749306727723893"><ele>64.0</ele><time>2026-05-02T16:00:25.001Z</time></trkpt><trkpt lat="45.314987867922845" lon="10.74933767470853"><ele>64.0</ele><time>2026-05-02T16:00:26.001Z</time></trkpt><trkpt lat="45.31478605760508" lon="10.749373084052916"><ele>64.0</ele><time>2026-05-02T16:00:27.001Z</time></trkpt><trkpt lat="45.314572510671894" lon="10.749409012833837"><ele>64.0</ele><time>2026-05-02T16:00:28.001Z</time></trkpt><trkpt lat="45.31434830940575" lon="10.749446741813443"><ele>64.0</ele><time>2026-05-02T16:00:29.001Z</time></trkpt><trkpt lat="45.31411362297377" lon="10.749491977679234"><ele>64.0</ele><time>2026-05-02T16:00:30.001Z</time></trkpt><trkpt lat="45.313863398026875" lon="10.749542320172033"><ele>64.0</ele><time>2026-05-02T16:00:31.001Z</time></trkpt><trkpt lat="45.31361955289955" lon="10.74957489903094"><ele>64.0</ele><time>2026-05-02T16:00:32.001Z</time></trkpt><trkpt lat="45.31340297025916" lon="10.749587041469125"><ele>64.0</ele><time>2026-05-02T16:00:33.001Z</time></trkpt><trkpt lat="45.31319951874302" lon="10.749587917249467"><ele>64.0</ele><time>2026-05-02T16:00:34.001Z</time></trkpt><trkpt lat="45.31300296554669" lon="10.749584434836109"><ele>64.0</ele><time>2026-05-02T16:00:35.001Z</time></trkpt><trkpt lat="45.31281022462905" lon="10.749583621414516"><ele>63.666666666666664</ele><time>2026-05-02T16:00:36.001Z</time></trkpt><trkpt lat="45.31261018339156" lon="10.749594356791597"><ele>63.33333333333333</ele><time>2026-05-02T16:00:37.001Z</time></trkpt><trkpt lat="45.31237252810964" lon="10.749613319313577"><ele>63.0</ele><time>2026-05-02T16:00:38.001Z</time></trkpt><trkpt lat="45.31211499787392" lon="10.749608710475647"><ele>62.5</ele><time>2026-05-02T16:00:39.001Z</time></trkpt><trkpt lat="45.31184489749209" lon="10.74959582467771"><ele>62.0</ele><time>2026-05-02T16:00:40.001Z</time></trkpt><trkpt lat="45.31157573013977" lon="10.74959033034386"><ele>62.0</ele><time>2026-05-02T16:00:41.001Z</time></trkpt><trkpt lat="45.311318002841915" lon="10.749595880381655"><ele>62.0</ele><time>2026-05-02T16:00:42.001Z</time></trkpt><trkpt lat="45.311062664303726" lon="10.749615329651753"><ele>62.0</ele><time>2026-05-02T16:00:43.001Z</time></trkpt><trkpt lat="45.31080938422828" lon="10.749635378887403"><ele>62.0</ele><time>2026-05-02T16:00:44.001Z</time></trkpt><trkpt lat="45.31056975483839" lon="10.749647866048065"><ele>61.66666666666667</ele><time>2026-05-02T16:00:45.001Z</time></trkpt><trkpt lat="45.31034547797595" lon="10.749662760351498"><ele>61.33333333333333</ele><time>2026-05-02T16:00:46.001Z</time></trkpt><trkpt lat="45.31012744281936" lon="10.749690792115292"><ele>61.0</ele><time>2026-05-02T16:00:47.001Z</time></trkpt><trkpt lat="45.30991715001766" lon="10.749728067498445"><ele>61.0</ele><time>2026-05-02T16:00:48.001Z</time></trkpt><trkpt lat="45.30966293828694" lon="10.74975209163483"><ele>61.0</ele><time>2026-05-02T16:00:49.001Z</time></trkpt><trkpt lat="45.309378702550305" lon="10.749763905720268"><ele>61.0</ele><time>2026-05-02T16:00:50.001Z</time></trkpt><trkpt lat="45.3090638378064" lon="10.749760832847425"><ele>61.0</ele><time>2026-05-02T16:00:51.001Z</time></trkpt><trkpt lat="45.30875412460671" lon="10.749765178833261"><ele>61.0</ele><time>2026-05-02T16:00:52.001Z</time></trkpt><trkpt lat="45.308373587834005" lon="10.749765534311823"><ele>61.0</ele><time>2026-05-02T16:00:53.001Z</time></trkpt><trkpt lat="45.307987353521426" lon="10.749747533012886"><ele>61.0</ele><time>2026-05-02T16:00:54.001Z</time></trkpt><trkpt lat="45.307573895410364" lon="10.749702167365061"><ele>61.0</ele><time>2026-05-02T16:00:55.001Z</time></trkpt><trkpt lat="45.30715786643092" lon="10.749641981777602"><ele>61.0</ele><time>2026-05-02T16:00:56.001Z</time></trkpt><trkpt lat="45.30676804669795" lon="10.749570808858497"><ele>61.0</ele><time>2026-05-02T16:00:57.001Z</time></trkpt><trkpt lat="45.30639557490922" lon="10.749505569232788"><ele>60.5</ele><time>2026-05-02T16:00:58.001Z</time></trkpt><trkpt lat="45.30604430222665" lon="10.749448491347353"><ele>60.0</ele><time>2026-05-02T16:00:59.001Z</time></trkpt><trkpt lat="45.30569869424083" lon="10.749404190683506"><ele>60.0</ele><time>2026-05-02T16:01:00.001Z</time></trkpt><trkpt lat="45.30534810423342" lon="10.749377150448767"><ele>60.0</ele><time>2026-05-02T16:01:01.001Z</time></trkpt><trkpt lat="45.30498369593731" lon="10.749377051786407"><ele>59.5</ele><time>2026-05-02T16:01:02.001Z</time></trkpt><trkpt lat="45.30460707091007" lon="10.749395873972054"><ele>59.0</ele><time>2026-05-02T16:01:03.001Z</time></trkpt><trkpt lat="45.30422931123364" lon="10.749403335521786"><ele>59.0</ele><time>2026-05-02T16:01:04.001Z</time></trkpt><trkpt lat="45.30385246737487" lon="10.749408156272867"><ele>59.0</ele><time>2026-05-02T16:01:05.001Z</time></trkpt><trkpt lat="45.303475876871076" lon="10.74941882665964"><ele>59.0</ele><time>2026-05-02T16:01:06.001Z</time></trkpt><trkpt lat="45.30310974099448" lon="10.749425294221787"><ele>59.0</ele><time>2026-05-02T16:01:07.001Z</time></trkpt><trkpt lat="45.302749901156524" lon="10.749422324713136"><ele>59.0</ele><time>2026-05-02T16:01:08.002Z</time></trkpt><trkpt lat="45.30239577182859" lon="10.749407370322556"><ele>59.0</ele><time>2026-05-02T16:01:09.002Z</time></trkpt><trkpt lat="45.30205463319403" lon="10.749388675386447"><ele>58.5</ele><time>2026-05-02T16:01:10.002Z</time></trkpt><trkpt lat="45.30172373901542" lon="10.749374363346101"><ele>58.0</ele><time>2026-05-02T16:01:11.002Z</time></trkpt><trkpt lat="45.30140167956911" lon="10.749360242917001"><ele>57.0</ele><time>2026-05-02T16:01:12.002Z</time></trkpt><trkpt lat="45.30108336812246" lon="10.749345971558288"><ele>56.0</ele><time>2026-05-02T16:01:13.002Z</time></trkpt><trkpt lat="45.30075752351122" lon="10.749316953587499"><ele>56.5</ele><time>2026-05-02T16:01:14.002Z</time></trkpt><trkpt lat="45.30042912167291" lon="10.74928876254743"><ele>57.0</ele><time>2026-05-02T16:01:15.002Z</time></trkpt><trkpt lat="45.30009409768413" lon="10.749249434042598"><ele>57.0</ele><time>2026-05-02T16:01:16.002Z</time></trkpt><trkpt lat="45.299770205245444" lon="10.749205161847474"><ele>57.0</ele><time>2026-05-02T16:01:17.002Z</time></trkpt><trkpt lat="45.29945984707279" lon="10.74916319995629"><ele>56.5</ele><time>2026-05-02T16:01:18.002Z</time></trkpt><trkpt lat="45.29914540123398" lon="10.749105065088717"><ele>56.0</ele><time>2026-05-02T16:01:19.002Z</time></trkpt><trkpt lat="45.29882962441741" lon="10.74901984683262"><ele>56.0</ele><time>2026-05-02T16:01:20.002Z</time></trkpt><trkpt lat="45.2985151367938" lon="10.748916968314726"><ele>56.0</ele><time>2026-05-02T16:01:21.002Z</time></trkpt><trkpt lat="45.29819514619983" lon="10.74880750903207"><ele>56.0</ele><time>2026-05-02T16:01:22.002Z</time></trkpt><trkpt lat="45.29785359619369" lon="10.748734250200762"><ele>56.0</ele><time>2026-05-02T16:01:23.002Z</time></trkpt><trkpt lat="45.297512151016534" lon="10.748674562989377"><ele>56.5</ele><time>2026-05-02T16:01:24.002Z</time></trkpt><trkpt lat="45.2972004653573" lon="10.748615949152539"><ele>57.0</ele><time>2026-05-02T16:01:25.002Z</time></trkpt><trkpt lat="45.29691201447624" lon="10.748556077203288"><ele>55.0</ele><time>2026-05-02T16:01:26.002Z</time></trkpt><trkpt lat="45.29664322959013" lon="10.74850431034963"><ele>53.0</ele><time>2026-05-02T16:01:27.002Z</time></trkpt><trkpt lat="45.29638132144076" lon="10.748446760982027"><ele>53.0</ele><time>2026-05-02T16:01:28.002Z</time></trkpt><trkpt lat="45.29611079546464" lon="10.748428107920695"><ele>53.0</ele><time>2026-05-02T16:01:29.002Z</time></trkpt><trkpt lat="45.29584716705022" lon="10.748417410825203"><ele>53.0</ele><time>2026-05-02T16:01:30.002Z</time></trkpt><trkpt lat="45.29560934816377" lon="10.748428757119576"><ele>53.0</ele><time>2026-05-02T16:01:31.002Z</time></trkpt><trkpt lat="45.29537897051045" lon="10.74844086431399"><ele>53.0</ele><time>2026-05-02T16:01:32.002Z</time></trkpt><trkpt lat="45.29515947026066" lon="10.748459817742303"><ele>53.0</ele><time>2026-05-02T16:01:33.002Z</time></trkpt><trkpt lat="45.29496112972074" lon="10.748477322931791"><ele>53.0</ele><time>2026-05-02T16:01:34.002Z</time></trkpt><trkpt lat="45.2947772646848" lon="10.748492957962833"><ele>53.333333333333336</ele><time>2026-05-02T16:01:35.002Z</time></trkpt><trkpt lat="45.29459058563376" lon="10.748507351913045"><ele>53.66666666666667</ele><time>2026-05-02T16:01:36.002Z</time></trkpt><trkpt lat="45.29440462434833" lon="10.748515714262233"><ele>54.0</ele><time>2026-05-02T16:01:37.002Z</time></trkpt><trkpt lat="45.294229297646986" lon="10.748513577034243"><ele>54.0</ele><time>2026-05-02T16:01:38.002Z</time></trkpt><trkpt lat="45.29404476956297" lon="10.748493702607304"><ele>54.0</ele><time>2026-05-02T16:01:39.002Z</time></trkpt><trkpt lat="45.29382792611029" lon="10.748466409819633"><ele>54.0</ele><time>2026-05-02T16:01:40.002Z</time></trkpt><trkpt lat="45.29359554097685" lon="10.748427586213246"><ele>53.5</ele><time>2026-05-02T16:01:41.002Z</time></trkpt><trkpt lat="45.29336377865378" lon="10.748388414182118"><ele>53.0</ele><time>2026-05-02T16:01:42.002Z</time></trkpt><trkpt lat="45.29314525780975" lon="10.748355378254114"><ele>53.0</ele><time>2026-05-02T16:01:43.002Z</time></trkpt><trkpt lat="45.29294527339346" lon="10.748327564927509"><ele>53.0</ele><time>2026-05-02T16:01:44.001Z</time></trkpt><trkpt lat="45.29274936694562" lon="10.748297005377825"><ele>53.0</ele><time>2026-05-02T16:01:45.001Z</time></trkpt><trkpt lat="45.29253828307118" lon="10.748271432818276"><ele>53.0</ele><time>2026-05-02T16:01:46.001Z</time></trkpt><trkpt lat="45.29232175562908" lon="10.7482371390286"><ele>53.0</ele><time>2026-05-02T16:01:47.001Z</time></trkpt><trkpt lat="45.292108830560224" lon="10.74820314134098"><ele>53.0</ele><time>2026-05-02T16:01:48.001Z</time></trkpt><trkpt lat="45.29189756223923" lon="10.748173680194611"><ele>52.5</ele><time>2026-05-02T16:01:49.001Z</time></trkpt><trkpt lat="45.29166888212732" lon="10.7481585920497"><ele>52.0</ele><time>2026-05-02T16:01:50.001Z</time></trkpt><trkpt lat="45.29140190809657" lon="10.748143445643343"><ele>52.0</ele><time>2026-05-02T16:01:51.001Z</time></trkpt><trkpt lat="45.29111079940272" lon="10.748096030343914"><ele>52.0</ele><time>2026-05-02T16:01:52.001Z</time></trkpt><trkpt lat="45.29080108785458" lon="10.74803038670882"><ele>51.5</ele><time>2026-05-02T16:01:53.001Z</time></trkpt><trkpt lat="45.290477222275236" lon="10.74797603892301"><ele>51.0</ele><time>2026-05-02T16:01:54.001Z</time></trkpt><trkpt lat="45.290146036218914" lon="10.747932497524499"><ele>51.0</ele><time>2026-05-02T16:01:55.001Z</time></trkpt><trkpt lat="45.2898084593203" lon="10.747905998102686"><ele>51.0</ele><time>2026-05-02T16:01:56.001Z</time></trkpt><trkpt lat="45.28946779692658" lon="10.747896275264262"><ele>51.0</ele><time>2026-05-02T16:01:57.001Z</time></trkpt><trkpt lat="45.28912588049084" lon="10.747885096944682"><ele>51.0</ele><time>2026-05-02T16:01:58.001Z</time></trkpt><trkpt lat="45.28878456116355" lon="10.74787687109351"><ele>52.0</ele><time>2026-05-02T16:01:59Z</time></trkpt><trkpt lat="45.28844386447337" lon="10.747862053139725"><ele>53.0</ele><time>2026-05-02T16:02:00Z</time></trkpt><trkpt lat="45.288106743409024" lon="10.74784403275867"><ele>53.0</ele><time>2026-05-02T16:02:01Z</time></trkpt><trkpt lat="45.287771502292586" lon="10.74781653689839"><ele>53.0</ele><time>2026-05-02T16:02:02Z</time></trkpt><trkpt lat="45.287456786296104" lon="10.747785218593977"><ele>51.5</ele><time>2026-05-02T16:02:03Z</time></trkpt><trkpt lat="45.287169486133074" lon="10.74774861748388"><ele>50.0</ele><time>2026-05-02T16:02:04Z</time></trkpt><trkpt lat="45.2869141773546" lon="10.747722849378327"><ele>50.0</ele><time>2026-05-02T16:02:05Z</time></trkpt><trkpt lat="45.286696970297385" lon="10.74771171650528"><ele>50.0</ele><time>2026-05-02T16:02:06Z</time></trkpt><trkpt lat="45.28651469089341" lon="10.747712998223575"><ele>50.0</ele><time>2026-05-02T16:02:07Z</time></trkpt><trkpt lat="45.28635236528391" lon="10.74774515629731"><ele>50.333333333333336</ele><time>2026-05-02T16:02:08Z</time></trkpt><trkpt lat="45.286200901660614" lon="10.747833864178848"><ele>50.66666666666667</ele><time>2026-05-02T16:02:09Z</time></trkpt><trkpt lat="45.286042294529295" lon="10.748012715245522"><ele>51.0</ele><time>2026-05-02T16:02:10Z</time></trkpt><trkpt lat="45.285883086615314" lon="10.748233125420985"><ele>51.0</ele><time>2026-05-02T16:02:11Z</time></trkpt><trkpt lat="45.28571669243933" lon="10.748489363622816"><ele>51.0</ele><time>2026-05-02T16:02:12Z</time></trkpt><trkpt lat="45.28551953940503" lon="10.748733469563406"><ele>50.0</ele><time>2026-05-02T16:02:13Z</time></trkpt><trkpt lat="45.28531732700174" lon="10.748990096433184"><ele>49.0</ele><time>2026-05-02T16:02:14Z</time></trkpt><trkpt lat="45.285122731987734" lon="10.749264302873742"><ele>49.0</ele><time>2026-05-02T16:02:15Z</time></trkpt><trkpt lat="45.28490999712696" lon="10.749532289457617"><ele>49.0</ele><time>2026-05-02T16:02:16Z</time></trkpt><trkpt lat="45.2847091593919" lon="10.749796160187325"><ele>49.0</ele><time>2026-05-02T16:02:17Z</time></trkpt><trkpt lat="45.28449981971278" lon="10.750072304614527"><ele>49.0</ele><time>2026-05-02T16:02:18Z</time></trkpt><trkpt lat="45.284287641446994" lon="10.750363957729284"><ele>48.5</ele><time>2026-05-02T16:02:19Z</time></trkpt><trkpt lat="45.2840725961084" lon="10.750660542475758"><ele>48.0</ele><time>2026-05-02T16:02:20Z</time></trkpt><trkpt lat="45.28384796532169" lon="10.750951737827302"><ele>48.0</ele><time>2026-05-02T16:02:21Z</time></trkpt><trkpt lat="45.28362520579065" lon="10.751233730688856"><ele>48.0</ele><time>2026-05-02T16:02:22Z</time></trkpt><trkpt lat="45.28340764589181" lon="10.751518598103173"><ele>48.0</ele><time>2026-05-02T16:02:23Z</time></trkpt><trkpt lat="45.283198039269706" lon="10.751800381921296"><ele>48.0</ele><time>2026-05-02T16:02:24Z</time></trkpt><trkpt lat="45.28298532216562" lon="10.752078088743303"><ele>48.0</ele><time>2026-05-02T16:02:25Z</time></trkpt><trkpt lat="45.28276861214027" lon="10.752364200352751"><ele>48.0</ele><time>2026-05-02T16:02:26Z</time></trkpt><trkpt lat="45.28254528348366" lon="10.752660713619493"><ele>47.5</ele><time>2026-05-02T16:02:27Z</time></trkpt><trkpt lat="45.2823331647695" lon="10.752948683058136"><ele>47.0</ele><time>2026-05-02T16:02:28Z</time></trkpt><trkpt lat="45.28210069959368" lon="10.753250503155028"><ele>47.0</ele><time>2026-05-02T16:02:29Z</time></trkpt><trkpt lat="45.281869710882305" lon="10.75354626274649"><ele>47.0</ele><time>2026-05-02T16:02:30Z</time></trkpt><trkpt lat="45.28163656396047" lon="10.75383361172459"><ele>47.0</ele><time>2026-05-02T16:02:31Z</time></trkpt><trkpt lat="45.28141389008312" lon="10.754120585879216"><ele>47.0</ele><time>2026-05-02T16:02:32Z</time></trkpt><trkpt lat="45.28119451851787" lon="10.754403945954744"><ele>47.0</ele><time>2026-05-02T16:02:33Z</time></trkpt><trkpt lat="45.280976417171225" lon="10.754677577463847"><ele>47.0</ele><time>2026-05-02T16:02:34Z</time></trkpt><trkpt lat="45.28076036466012" lon="10.754949325383775"><ele>47.0</ele><time>2026-05-02T16:02:35Z</time></trkpt><trkpt lat="45.28054552574381" lon="10.75521471339226"><ele>47.0</ele><time>2026-05-02T16:02:36Z</time></trkpt><trkpt lat="45.28032337088187" lon="10.755494457997976"><ele>47.0</ele><time>2026-05-02T16:02:37Z</time></trkpt><trkpt lat="45.28009463045609" lon="10.755782628433526"><ele>47.0</ele><time>2026-05-02T16:02:38Z</time></trkpt><trkpt lat="45.279868448306566" lon="10.756059697260616"><ele>45.5</ele><time>2026-05-02T16:02:39Z</time></trkpt><trkpt lat="45.27963903444342" lon="10.756336933468168"><ele>44.0</ele><time>2026-05-02T16:02:40Z</time></trkpt><trkpt lat="45.279408909162974" lon="10.75662299812263"><ele>44.5</ele><time>2026-05-02T16:02:41Z</time></trkpt><trkpt lat="45.27917292764943" lon="10.756911302310064"><ele>45.0</ele><time>2026-05-02T16:02:42Z</time></trkpt><trkpt lat="45.27893090675691" lon="10.757208562303644"><ele>45.0</ele><time>2026-05-02T16:02:43Z</time></trkpt><trkpt lat="45.2786780592247" lon="10.757519447595548"><ele>45.0</ele><time>2026-05-02T16:02:44Z</time></trkpt><trkpt lat="45.27842094620653" lon="10.75784139357371"><ele>45.0</ele><time>2026-05-02T16:02:45Z</time></trkpt><trkpt lat="45.27815505932586" lon="10.758185082910826"><ele>45.0</ele><time>2026-05-02T16:02:46Z</time></trkpt><trkpt lat="45.27787910492521" lon="10.758521047630069"><ele>46.0</ele><time>2026-05-02T16:02:47Z</time></trkpt><trkpt lat="45.27759968728795" lon="10.758846502170089"><ele>47.0</ele><time>2026-05-02T16:02:48Z</time></trkpt><trkpt lat="45.27731840929751" lon="10.759165150987954"><ele>45.5</ele><time>2026-05-02T16:02:49Z</time></trkpt><trkpt lat="45.27704053796261" lon="10.759488236043712"><ele>44.0</ele><time>2026-05-02T16:02:50Z</time></trkpt><trkpt lat="45.27676936013258" lon="10.759820327655058"><ele>44.0</ele><time>2026-05-02T16:02:51Z</time></trkpt><trkpt lat="45.27650637177918" lon="10.760155861491002"><ele>44.0</ele><time>2026-05-02T16:02:52Z</time></trkpt><trkpt lat="45.27624733050795" lon="10.760492771926806"><ele>44.0</ele><time>2026-05-02T16:02:53Z</time></trkpt><trkpt lat="45.27599510429547" lon="10.760822502457142"><ele>44.0</ele><time>2026-05-02T16:02:54Z</time></trkpt><trkpt lat="45.27575500304874" lon="10.761139279138145"><ele>42.5</ele><time>2026-05-02T16:02:55Z</time></trkpt><trkpt lat="45.27553724408183" lon="10.761423144609317"><ele>41.0</ele><time>2026-05-02T16:02:56Z</time></trkpt><trkpt lat="45.27533982525992" lon="10.761684238608728"><ele>42.0</ele><time>2026-05-02T16:02:57.001Z</time></trkpt><trkpt lat="45.27516176946345" lon="10.761920804732972"><ele>43.0</ele><time>2026-05-02T16:02:58.001Z</time></trkpt><trkpt lat="45.27500064873002" lon="10.76212917293715"><ele>43.0</ele><time>2026-05-02T16:02:59.001Z</time></trkpt><trkpt lat="45.27485561949064" lon="10.762319315246481"><ele>43.0</ele><time>2026-05-02T16:03:00.001Z</time></trkpt><trkpt lat="45.27472045255823" lon="10.76248947838276"><ele>43.0</ele><time>2026-05-02T16:03:01.001Z</time></trkpt><trkpt lat="45.27459796419107" lon="10.762634387148678"><ele>42.5</ele><time>2026-05-02T16:03:02.001Z</time></trkpt><trkpt lat="45.27448412202585" lon="10.762763660035937"><ele>42.0</ele><time>2026-05-02T16:03:03.001Z</time></trkpt><trkpt lat="45.2743775307587" lon="10.762883100252607"><ele>41.5</ele><time>2026-05-02T16:03:04.001Z</time></trkpt><trkpt lat="45.274268327274726" lon="10.762974718457789"><ele>41.0</ele><time>2026-05-02T16:03:05.001Z</time></trkpt><trkpt lat="45.274154088013766" lon="10.763030230972815"><ele>41.0</ele><time>2026-05-02T16:03:06.001Z</time></trkpt><trkpt lat="45.27402784112615" lon="10.7630415660704"><ele>41.0</ele><time>2026-05-02T16:03:07.001Z</time></trkpt><trkpt lat="45.27389016652515" lon="10.763030017752929"><ele>41.0</ele><time>2026-05-02T16:03:08.001Z</time></trkpt><trkpt lat="45.27375958726942" lon="10.762979868801706"><ele>41.0</ele><time>2026-05-02T16:03:09.001Z</time></trkpt><trkpt lat="45.27364946624067" lon="10.762885860964946"><ele>41.0</ele><time>2026-05-02T16:03:10.001Z</time></trkpt><trkpt lat="45.273537913155145" lon="10.762757039687981"><ele>41.0</ele><time>2026-05-02T16:03:11.001Z</time></trkpt><trkpt lat="45.273404113552196" lon="10.762574804676937"><ele>41.0</ele><time>2026-05-02T16:03:12.001Z</time></trkpt><trkpt lat="45.2732522954882" lon="10.762398145743745"><ele>41.0</ele><time>2026-05-02T16:03:13.001Z</time></trkpt><trkpt lat="45.27304236303837" lon="10.762207335951237"><ele>41.0</ele><time>2026-05-02T16:03:14.001Z</time></trkpt><trkpt lat="45.27281730051875" lon="10.762014208880244"><ele>41.0</ele><time>2026-05-02T16:03:15.001Z</time></trkpt><trkpt lat="45.27257887370806" lon="10.761823960432308"><ele>41.0</ele><time>2026-05-02T16:03:16.001Z</time></trkpt><trkpt lat="45.272312340369915" lon="10.761634481692088"><ele>40.0</ele><time>2026-05-02T16:03:17.001Z</time></trkpt><trkpt lat="45.272046376377986" lon="10.761471632064419"><ele>39.0</ele><time>2026-05-02T16:03:18.001Z</time></trkpt><trkpt lat="45.27178210600553" lon="10.761338810172832"><ele>39.0</ele><time>2026-05-02T16:03:19.001Z</time></trkpt><trkpt lat="45.2715402198194" lon="10.761232985874836"><ele>39.0</ele><time>2026-05-02T16:03:20.001Z</time></trkpt><trkpt lat="45.271308924630205" lon="10.761122364464772"><ele>38.666666666666664</ele><time>2026-05-02T16:03:21.001Z</time></trkpt><trkpt lat="45.271099085983685" lon="10.761021168887565"><ele>38.33333333333333</ele><time>2026-05-02T16:03:22.001Z</time></trkpt><trkpt lat="45.27092532258055" lon="10.760933183642218"><ele>38.0</ele><time>2026-05-02T16:03:23.001Z</time></trkpt><trkpt lat="45.27078657142405" lon="10.760849118132777"><ele>38.0</ele><time>2026-05-02T16:03:24.001Z</time></trkpt><trkpt lat="45.27070908250017" lon="10.760774688086148"><ele>38.0</ele><time>2026-05-02T16:03:25.001Z</time></trkpt><trkpt lat="45.27067356394179" lon="10.76068350535826"><ele>38.0</ele><time>2026-05-02T16:03:26.001Z</time></trkpt><trkpt lat="45.27065583574611" lon="10.760580431936775"><ele>38.0</ele><time>2026-05-02T16:03:27.001Z</time></trkpt><trkpt lat="45.27063316081411" lon="10.760455461137761"><ele>38.0</ele><time>2026-05-02T16:03:28.001Z</time></trkpt><trkpt lat="45.27056859343124" lon="10.760366403759292"><ele>38.0</ele><time>2026-05-02T16:03:29.001Z</time></trkpt><trkpt lat="45.27045530468802" lon="10.760342808229119"><ele>38.33333333333333</ele><time>2026-05-02T16:03:30.001Z</time></trkpt><trkpt lat="45.27031600530044" lon="10.760325391296211"><ele>38.666666666666664</ele><time>2026-05-02T16:03:31.001Z</time></trkpt><trkpt lat="45.270171853605646" lon="10.760221901662481"><ele>39.0</ele><time>2026-05-02T16:03:32.001Z</time></trkpt><trkpt lat="45.27001482504015" lon="10.760042538411593"><ele>39.5</ele><time>2026-05-02T16:03:33.001Z</time></trkpt><trkpt lat="45.26981871343941" lon="10.759802924307115"><ele>40.0</ele><time>2026-05-02T16:03:34.001Z</time></trkpt><trkpt lat="45.26957990359485" lon="10.75951469090314"><ele>40.0</ele><time>2026-05-02T16:03:35.001Z</time></trkpt><trkpt lat="45.26932192493669" lon="10.759202411602178"><ele>40.0</ele><time>2026-05-02T16:03:36.001Z</time></trkpt><trkpt lat="45.269054605281575" lon="10.758874675752534"><ele>40.0</ele><time>2026-05-02T16:03:37.001Z</time></trkpt><trkpt lat="45.26881143927437" lon="10.75857565214754"><ele>40.0</ele><time>2026-05-02T16:03:38.001Z</time></trkpt><trkpt lat="45.26857448247287" lon="10.758286077728426"><ele>40.0</ele><time>2026-05-02T16:03:39.001Z</time></trkpt><trkpt lat="45.26833830077778" lon="10.757997463294327"><ele>40.0</ele><time>2026-05-02T16:03:40.001Z</time></trkpt><trkpt lat="45.26811622688684" lon="10.757722233350707"><ele>40.0</ele><time>2026-05-02T16:03:41.001Z</time></trkpt><trkpt lat="45.267894062594976" lon="10.75744689330216"><ele>40.0</ele><time>2026-05-02T16:03:42.001Z</time></trkpt><trkpt lat="45.26766007868378" lon="10.757168461425739"><ele>40.0</ele><time>2026-05-02T16:03:43.001Z</time></trkpt><trkpt lat="45.267421405794344" lon="10.756885178859877"><ele>40.0</ele><time>2026-05-02T16:03:44.001Z</time></trkpt><trkpt lat="45.2671837493017" lon="10.756599472486755"><ele>40.0</ele><time>2026-05-02T16:03:45.001Z</time></trkpt><trkpt lat="45.26694792056701" lon="10.756313300789467"><ele>40.0</ele><time>2026-05-02T16:03:46.001Z</time></trkpt><trkpt lat="45.26671501712623" lon="10.756049975275566"><ele>39.5</ele><time>2026-05-02T16:03:47.001Z</time></trkpt><trkpt lat="45.26648901279299" lon="10.75581836665922"><ele>39.0</ele><time>2026-05-02T16:03:48.001Z</time></trkpt><trkpt lat="45.26626697855366" lon="10.7556218867792"><ele>39.0</ele><time>2026-05-02T16:03:49.001Z</time></trkpt><trkpt lat="45.266042644588225" lon="10.755448751485735"><ele>39.0</ele><time>2026-05-02T16:03:50.002Z</time></trkpt><trkpt lat="45.265799245463356" lon="10.755294795870276"><ele>39.0</ele><time>2026-05-02T16:03:51.002Z</time></trkpt><trkpt lat="45.26554411356954" lon="10.75516031793739"><ele>39.0</ele><time>2026-05-02T16:03:52.002Z</time></trkpt><trkpt lat="45.26527502400712" lon="10.7550455013088"><ele>39.0</ele><time>2026-05-02T16:03:53.002Z</time></trkpt><trkpt lat="45.26499939098313" lon="10.754947096187323"><ele>39.0</ele><time>2026-05-02T16:03:54.002Z</time></trkpt><trkpt lat="45.26471645947046" lon="10.754880328934643"><ele>37.5</ele><time>2026-05-02T16:03:55.002Z</time></trkpt><trkpt lat="45.26443422607275" lon="10.754845104287094"><ele>36.0</ele><time>2026-05-02T16:03:56.002Z</time></trkpt><trkpt lat="45.264142867881475" lon="10.75484652218222"><ele>38.0</ele><time>2026-05-02T16:03:57.002Z</time></trkpt><trkpt lat="45.26385161516856" lon="10.75486681801635"><ele>40.0</ele><time>2026-05-02T16:03:58.002Z</time></trkpt><trkpt lat="45.263560931769156" lon="10.754923288891966"><ele>40.0</ele><time>2026-05-02T16:03:59.002Z</time></trkpt><trkpt lat="45.2632983829416" lon="10.754997977626598"><ele>40.0</ele><time>2026-05-02T16:04:00.002Z</time></trkpt><trkpt lat="45.26305772331145" lon="10.755098398933885"><ele>39.333333333333336</ele><time>2026-05-02T16:04:01.002Z</time></trkpt><trkpt lat="45.26284265006522" lon="10.755203539682885"><ele>38.666666666666664</ele><time>2026-05-02T16:04:02.002Z</time></trkpt><trkpt lat="45.26265527118984" lon="10.755307309571203"><ele>38.0</ele><time>2026-05-02T16:04:03.002Z</time></trkpt><trkpt lat="45.262490610631616" lon="10.755407066275431"><ele>38.0</ele><time>2026-05-02T16:04:04.002Z</time></trkpt><trkpt lat="45.26234758572318" lon="10.755501615826331"><ele>38.0</ele><time>2026-05-02T16:04:05Z</time></trkpt><trkpt lat="45.26222740026287" lon="10.755578793457287"><ele>38.0</ele><time>2026-05-02T16:04:06Z</time></trkpt><trkpt lat="45.26211706193463" lon="10.755624058177492"><ele>38.0</ele><time>2026-05-02T16:04:07Z</time></trkpt><trkpt lat="45.26200260098803" lon="10.755626485586184"><ele>37.5</ele><time>2026-05-02T16:04:08Z</time></trkpt><trkpt lat="45.26188785168415" lon="10.75561041927745"><ele>37.0</ele><time>2026-05-02T16:04:09Z</time></trkpt><trkpt lat="45.26177144726292" lon="10.755580610606273"><ele>36.5</ele><time>2026-05-02T16:04:10.001Z</time></trkpt><trkpt lat="45.26167121898384" lon="10.755466908660187"><ele>36.0</ele><time>2026-05-02T16:04:11Z</time></trkpt><trkpt lat="45.26158298350239" lon="10.755317518146827"><ele>36.333333333333336</ele><time>2026-05-02T16:04:12Z</time></trkpt><trkpt lat="45.26150530284372" lon="10.755128467275487"><ele>36.66666666666667</ele><time>2026-05-02T16:04:13Z</time></trkpt><trkpt lat="45.26143900955099" lon="10.75486765332539"><ele>37.0</ele><time>2026-05-02T16:04:14Z</time></trkpt><trkpt lat="45.261375057695794" lon="10.754561408957569"><ele>38.5</ele><time>2026-05-02T16:04:15Z</time></trkpt><trkpt lat="45.261303145792624" lon="10.754238078892877"><ele>40.0</ele><time>2026-05-02T16:04:16Z</time></trkpt><trkpt lat="45.261210359490256" lon="10.753917044965643"><ele>40.0</ele><time>2026-05-02T16:04:17Z</time></trkpt><trkpt lat="45.26111496011126" lon="10.753600376589825"><ele>40.0</ele><time>2026-05-02T16:04:18Z</time></trkpt><trkpt lat="45.261012402748754" lon="10.753282155396555"><ele>40.0</ele><time>2026-05-02T16:04:19Z</time></trkpt><trkpt lat="45.2609092453185" lon="10.752956152618639"><ele>40.0</ele><time>2026-05-02T16:04:20Z</time></trkpt><trkpt lat="45.260800990200366" lon="10.75262556630075"><ele>40.0</ele><time>2026-05-02T16:04:21Z</time></trkpt><trkpt lat="45.260693515743185" lon="10.752286444853278"><ele>40.0</ele><time>2026-05-02T16:04:22Z</time></trkpt><trkpt lat="45.26057113956118" lon="10.751928815543222"><ele>39.0</ele><time>2026-05-02T16:04:23Z</time></trkpt><trkpt lat="45.260435361513615" lon="10.751551195184156"><ele>38.0</ele><time>2026-05-02T16:04:24Z</time></trkpt><trkpt lat="45.260300356974746" lon="10.751158547766455"><ele>37.5</ele><time>2026-05-02T16:04:25.001Z</time></trkpt><trkpt lat="45.260168412021" lon="10.750768428701221"><ele>37.0</ele><time>2026-05-02T16:04:26.001Z</time></trkpt><trkpt lat="45.260048438477185" lon="10.750400438010134"><ele>37.5</ele><time>2026-05-02T16:04:27.001Z</time></trkpt><trkpt lat="45.259937275522105" lon="10.750051093244569"><ele>38.0</ele><time>2026-05-02T16:04:28.001Z</time></trkpt><trkpt lat="45.259833037088896" lon="10.749702170516457"><ele>38.0</ele><time>2026-05-02T16:04:29.001Z</time></trkpt><trkpt lat="45.259733896689006" lon="10.749381430447544"><ele>38.0</ele><time>2026-05-02T16:04:30.001Z</time></trkpt><trkpt lat="45.259635156680844" lon="10.749080031271522"><ele>38.0</ele><time>2026-05-02T16:04:31.001Z</time></trkpt><trkpt lat="45.259549217580535" lon="10.748796240716022"><ele>38.0</ele><time>2026-05-02T16:04:32.001Z</time></trkpt><trkpt lat="45.2594543284655" lon="10.748497684483437"><ele>38.0</ele><time>2026-05-02T16:04:33.001Z</time></trkpt><trkpt lat="45.25936006559852" lon="10.748195771096045"><ele>39.0</ele><time>2026-05-02T16:04:34.001Z</time></trkpt><trkpt lat="45.259264334881756" lon="10.747886997808463"><ele>40.0</ele><time>2026-05-02T16:04:35.001Z</time></trkpt><trkpt lat="45.259166092650084" lon="10.747575293478233"><ele>40.5</ele><time>2026-05-02T16:04:36.001Z</time></trkpt><trkpt lat="45.25906802541494" lon="10.747262576352332"><ele>41.0</ele><time>2026-05-02T16:04:37.001Z</time></trkpt><trkpt lat="45.25896945706447" lon="10.74695310938537"><ele>39.5</ele><time>2026-05-02T16:04:38.001Z</time></trkpt><trkpt lat="45.258870824106616" lon="10.746644647677815"><ele>38.0</ele><time>2026-05-02T16:04:39.001Z</time></trkpt><trkpt lat="45.25876668754201" lon="10.746331206092218"><ele>38.5</ele><time>2026-05-02T16:04:40.001Z</time></trkpt><trkpt lat="45.258658987872764" lon="10.746009416556916"><ele>39.0</ele><time>2026-05-02T16:04:41.001Z</time></trkpt><trkpt lat="45.25854381291043" lon="10.745664004928287"><ele>39.0</ele><time>2026-05-02T16:04:42.001Z</time></trkpt><trkpt lat="45.25842002444331" lon="10.745297509867067"><ele>39.0</ele><time>2026-05-02T16:04:43.001Z</time></trkpt><trkpt lat="45.25829912331021" lon="10.744928833899017"><ele>39.0</ele><time>2026-05-02T16:04:44.001Z</time></trkpt><trkpt lat="45.25818375696281" lon="10.74453863161088"><ele>39.0</ele><time>2026-05-02T16:04:45.001Z</time></trkpt><trkpt lat="45.2580686920472" lon="10.74414214705545"><ele>39.0</ele><time>2026-05-02T16:04:46.001Z</time></trkpt><trkpt lat="45.25795134995845" lon="10.743746759197746"><ele>39.0</ele><time>2026-05-02T16:04:47.001Z</time></trkpt><trkpt lat="45.25783818101023" lon="10.743362403947295"><ele>39.0</ele><time>2026-05-02T16:04:48.001Z</time></trkpt><trkpt lat="45.2577194966147" lon="10.742993687207154"><ele>39.0</ele><time>2026-05-02T16:04:49.001Z</time></trkpt><trkpt lat="45.257602582475656" lon="10.742636197662101"><ele>39.0</ele><time>2026-05-02T16:04:50.001Z</time></trkpt><trkpt lat="45.2574865918287" lon="10.742277972319778"><ele>39.0</ele><time>2026-05-02T16:04:51.001Z</time></trkpt><trkpt lat="45.25736992741986" lon="10.7419146630231"><ele>38.5</ele><time>2026-05-02T16:04:52.001Z</time></trkpt><trkpt lat="45.257252437523" lon="10.741551303924357"><ele>38.0</ele><time>2026-05-02T16:04:53.001Z</time></trkpt><trkpt lat="45.25714081941993" lon="10.74120172696491"><ele>39.0</ele><time>2026-05-02T16:04:54.001Z</time></trkpt><trkpt lat="45.257035285377555" lon="10.740875081161471"><ele>40.0</ele><time>2026-05-02T16:04:55.001Z</time></trkpt><trkpt lat="45.25694309058741" lon="10.740576781393449"><ele>40.0</ele><time>2026-05-02T16:04:56.001Z</time></trkpt><trkpt lat="45.25685842017182" lon="10.740305696420515"><ele>40.0</ele><time>2026-05-02T16:04:57.001Z</time></trkpt><trkpt lat="45.25678547012439" lon="10.740080650808922"><ele>40.0</ele><time>2026-05-02T16:04:58.001Z</time></trkpt><trkpt lat="45.25673041913263" lon="10.7398993426747"><ele>39.75</ele><time>2026-05-02T16:04:59.001Z</time></trkpt><trkpt lat="45.25669128771901" lon="10.739730252605568"><ele>39.5</ele><time>2026-05-02T16:05:00.001Z</time></trkpt><trkpt lat="45.256673136419785" lon="10.7395460728796"><ele>39.25</ele><time>2026-05-02T16:05:01.001Z</time></trkpt><trkpt lat="45.25667458737818" lon="10.739346327796632"><ele>39.0</ele><time>2026-05-02T16:05:02.001Z</time></trkpt><trkpt lat="45.2566721575916" lon="10.739170474433028"><ele>39.0</ele><time>2026-05-02T16:05:03.001Z</time></trkpt><trkpt lat="45.256641021487184" lon="10.73899972817246"><ele>39.0</ele><time>2026-05-02T16:05:04.001Z</time></trkpt><trkpt lat="45.25656301143495" lon="10.73884290443274"><ele>39.0</ele><time>2026-05-02T16:05:05.001Z</time></trkpt><trkpt lat="45.25644742591861" lon="10.738685792742961"><ele>39.0</ele><time>2026-05-02T16:05:06.001Z</time></trkpt><trkpt lat="45.25631176064365" lon="10.738500217184749"><ele>39.333333333333336</ele><time>2026-05-02T16:05:07.001Z</time></trkpt><trkpt lat="45.256194570867954" lon="10.738283548938263"><ele>39.66666666666667</ele><time>2026-05-02T16:05:08.001Z</time></trkpt><trkpt lat="45.25611576459667" lon="10.738017603870277"><ele>40.0</ele><time>2026-05-02T16:05:09.001Z</time></trkpt><trkpt lat="45.256033005230485" lon="10.737710434780158"><ele>40.66666666666667</ele><time>2026-05-02T16:05:10.001Z</time></trkpt><trkpt lat="45.2559459068891" lon="10.737419742758844"><ele>41.333333333333336</ele><time>2026-05-02T16:05:11.001Z</time></trkpt><trkpt lat="45.25586505253847" lon="10.737164934537876"><ele>42.0</ele><time>2026-05-02T16:05:12.001Z</time></trkpt><trkpt lat="45.25579992250316" lon="10.736938206516337"><ele>42.0</ele><time>2026-05-02T16:05:13.001Z</time></trkpt><trkpt lat="45.2557426931139" lon="10.736750350120369"><ele>42.0</ele><time>2026-05-02T16:05:14.001Z</time></trkpt><trkpt lat="45.25567659757261" lon="10.736590098680953"><ele>42.0</ele><time>2026-05-02T16:05:15.001Z</time></trkpt><trkpt lat="45.2556036041392" lon="10.736460475653026"><ele>42.0</ele><time>2026-05-02T16:05:16.001Z</time></trkpt><trkpt lat="45.25550603115997" lon="10.736371862299913"><ele>42.0</ele><time>2026-05-02T16:05:17.001Z</time></trkpt><trkpt lat="45.25538896791742" lon="10.736313985932796"><ele>42.0</ele><time>2026-05-02T16:05:18.001Z</time></trkpt><trkpt lat="45.25527473997651" lon="10.736239779881624"><ele>42.0</ele><time>2026-05-02T16:05:19.001Z</time></trkpt><trkpt lat="45.2551976001691" lon="10.736151665690905"><ele>42.0</ele><time>2026-05-02T16:05:20.001Z</time></trkpt><trkpt lat="45.2551448463158" lon="10.73603040386591"><ele>42.0</ele><time>2026-05-02T16:05:21.001Z</time></trkpt><trkpt lat="45.2551118538473" lon="10.735851623741508"><ele>41.6</ele><time>2026-05-02T16:05:22.001Z</time></trkpt><trkpt lat="45.25506776583605" lon="10.73568047048091"><ele>41.2</ele><time>2026-05-02T16:05:23.001Z</time></trkpt><trkpt lat="45.25503674638814" lon="10.735557034226215"><ele>40.8</ele><time>2026-05-02T16:05:24.001Z</time></trkpt><trkpt lat="45.25501538880886" lon="10.735453607539442"><ele>40.4</ele><time>2026-05-02T16:05:25.001Z</time></trkpt><trkpt lat="45.25498334517894" lon="10.735354147156436"><ele>40.0</ele><time>2026-05-02T16:05:26.001Z</time></trkpt><trkpt lat="45.254953776829204" lon="10.735241432356133"><ele>39.25</ele><time>2026-05-02T16:05:27.001Z</time></trkpt><trkpt lat="45.254911844610916" lon="10.735100935311902"><ele>38.5</ele><time>2026-05-02T16:05:28.001Z</time></trkpt><trkpt lat="45.254858779229" lon="10.734917778470022"><ele>37.75</ele><time>2026-05-02T16:05:29.002Z</time></trkpt><trkpt lat="45.25482019460129" lon="10.734694559829018"><ele>37.0</ele><time>2026-05-02T16:05:30.002Z</time></trkpt><trkpt lat="45.25479035404644" lon="10.734452942924948"><ele>36.333333333333336</ele><time>2026-05-02T16:05:31.002Z</time></trkpt><trkpt lat="45.254763142093324" lon="10.734192671806282"><ele>35.666666666666664</ele><time>2026-05-02T16:05:32.002Z</time></trkpt><trkpt lat="45.254733463183186" lon="10.733920074581144"><ele>35.0</ele><time>2026-05-02T16:05:33.002Z</time></trkpt><trkpt lat="45.25470220162554" lon="10.733638655808786"><ele>34.666666666666664</ele><time>2026-05-02T16:05:34.002Z</time></trkpt><trkpt lat="45.25467259822715" lon="10.733351830151868"><ele>34.333333333333336</ele><time>2026-05-02T16:05:35.002Z</time></trkpt><trkpt lat="45.25464003531877" lon="10.733077363670736"><ele>34.0</ele><time>2026-05-02T16:05:36.002Z</time></trkpt><trkpt lat="45.25460937426358" lon="10.732802121284173"><ele>34.333333333333336</ele><time>2026-05-02T16:05:37.002Z</time></trkpt><trkpt lat="45.25457997584321" lon="10.732517246462551"><ele>34.666666666666664</ele><time>2026-05-02T16:05:38.002Z</time></trkpt><trkpt lat="45.2545520318118" lon="10.732212357807164"><ele>35.0</ele><time>2026-05-02T16:05:39.002Z</time></trkpt><trkpt lat="45.25453140025062" lon="10.731888388586587"><ele>35.0</ele><time>2026-05-02T16:05:40.002Z</time></trkpt><trkpt lat="45.254520340369105" lon="10.731541639014987"><ele>35.0</ele><time>2026-05-02T16:05:41.002Z</time></trkpt><trkpt lat="45.25450372824353" lon="10.731168144822815"><ele>34.5</ele><time>2026-05-02T16:05:42.002Z</time></trkpt><trkpt lat="45.25448795562545" lon="10.730785966916644"><ele>34.0</ele><time>2026-05-02T16:05:43.002Z</time></trkpt><trkpt lat="45.25447272900463" lon="10.730403549910394"><ele>33.5</ele><time>2026-05-02T16:05:44.002Z</time></trkpt><trkpt lat="45.25445448710745" lon="10.730012126121393"><ele>33.0</ele><time>2026-05-02T16:05:45.002Z</time></trkpt><trkpt lat="45.254431146262384" lon="10.729588795311216"><ele>34.0</ele><time>2026-05-02T16:05:46.002Z</time></trkpt><trkpt lat="45.25440825548702" lon="10.729130408310217"><ele>35.0</ele><time>2026-05-02T16:05:47.002Z</time></trkpt><trkpt lat="45.25438104343666" lon="10.728656889136692"><ele>34.5</ele><time>2026-05-02T16:05:48.002Z</time></trkpt><trkpt lat="45.25435804372018" lon="10.72821948771899"><ele>34.0</ele><time>2026-05-02T16:05:49.002Z</time></trkpt><trkpt lat="45.25433392494032" lon="10.727811643912172"><ele>33.5</ele><time>2026-05-02T16:05:50.002Z</time></trkpt><trkpt lat="45.25430640427578" lon="10.727409353778977"><ele>33.0</ele><time>2026-05-02T16:05:51.002Z</time></trkpt><trkpt lat="45.254280382153496" lon="10.727003005556197"><ele>34.0</ele><time>2026-05-02T16:05:52.002Z</time></trkpt><trkpt lat="45.25425603698883" lon="10.726591883370773"><ele>35.0</ele><time>2026-05-02T16:05:53.002Z</time></trkpt><trkpt lat="45.254230694623196" lon="10.726176851286143"><ele>34.5</ele><time>2026-05-02T16:05:54.002Z</time></trkpt><trkpt lat="45.25420234096903" lon="10.725761650332068"><ele>34.0</ele><time>2026-05-02T16:05:55.002Z</time></trkpt><trkpt lat="45.254174868513076" lon="10.725352592871792"><ele>33.5</ele><time>2026-05-02T16:05:56.002Z</time></trkpt><trkpt lat="45.25414906665917" lon="10.724950179037247"><ele>33.0</ele><time>2026-05-02T16:05:57.002Z</time></trkpt><trkpt lat="45.25412196188471" lon="10.724555659397634"><ele>34.0</ele><time>2026-05-02T16:05:58.002Z</time></trkpt><trkpt lat="45.25409463436486" lon="10.72416899302247"><ele>35.0</ele><time>2026-05-02T16:05:59.002Z</time></trkpt><trkpt lat="45.254069667545096" lon="10.723785840953779"><ele>35.5</ele><time>2026-05-02T16:06:00.002Z</time></trkpt><trkpt lat="45.25405064259155" lon="10.723418178079278"><ele>36.0</ele><time>2026-05-02T16:06:01.002Z</time></trkpt><trkpt lat="45.254031583631956" lon="10.723063249260973"><ele>35.5</ele><time>2026-05-02T16:06:02.002Z</time></trkpt><trkpt lat="45.254010055131346" lon="10.722705139044988"><ele>35.0</ele><time>2026-05-02T16:06:03.002Z</time></trkpt><trkpt lat="45.25398990760493" lon="10.72234527261058"><ele>35.0</ele><time>2026-05-02T16:06:04.002Z</time></trkpt><trkpt lat="45.25397429347495" lon="10.721980397213237"><ele>35.0</ele><time>2026-05-02T16:06:05.002Z</time></trkpt><trkpt lat="45.25396042797979" lon="10.72160818974841"><ele>35.5</ele><time>2026-05-02T16:06:06.002Z</time></trkpt><trkpt lat="45.253947585595284" lon="10.721233088071532"><ele>36.0</ele><time>2026-05-02T16:06:07.002Z</time></trkpt><trkpt lat="45.2539347135121" lon="10.720880015373966"><ele>36.333333333333336</ele><time>2026-05-02T16:06:08.002Z</time></trkpt><trkpt lat="45.253927699306054" lon="10.720556928962159"><ele>36.66666666666667</ele><time>2026-05-02T16:06:09.002Z</time></trkpt><trkpt lat="45.25392077379611" lon="10.720245047527051"><ele>37.0</ele><time>2026-05-02T16:06:10.001Z</time></trkpt><trkpt lat="45.253911850052525" lon="10.71994465828598"><ele>37.0</ele><time>2026-05-02T16:06:11.001Z</time></trkpt><trkpt lat="45.25391351664201" lon="10.719645224385701"><ele>37.0</ele><time>2026-05-02T16:06:12.001Z</time></trkpt><trkpt lat="45.25393528096675" lon="10.71933181123286"><ele>37.0</ele><time>2026-05-02T16:06:13.001Z</time></trkpt><trkpt lat="45.25397467173584" lon="10.719004928436327"><ele>37.0</ele><time>2026-05-02T16:06:14.001Z</time></trkpt><trkpt lat="45.2540165761983" lon="10.718699261552072"><ele>37.0</ele><time>2026-05-02T16:06:15.001Z</time></trkpt><trkpt lat="45.2540564594506" lon="10.718412320991748"><ele>37.0</ele><time>2026-05-02T16:06:16.001Z</time></trkpt><trkpt lat="45.25409984851927" lon="10.71812559957158"><ele>37.0</ele><time>2026-05-02T16:06:17.001Z</time></trkpt><trkpt lat="45.25414142880868" lon="10.717818093703096"><ele>37.0</ele><time>2026-05-02T16:06:18.001Z</time></trkpt><trkpt lat="45.25418146354015" lon="10.71748184054531"><ele>36.5</ele><time>2026-05-02T16:06:19.001Z</time></trkpt><trkpt lat="45.254225238267914" lon="10.71711010130888"><ele>36.0</ele><time>2026-05-02T16:06:20.001Z</time></trkpt><trkpt lat="45.254273676810975" lon="10.716714399557683"><ele>35.5</ele><time>2026-05-02T16:06:21.001Z</time></trkpt><trkpt lat="45.25432790666528" lon="10.716312754973735"><ele>35.0</ele><time>2026-05-02T16:06:22.001Z</time></trkpt><trkpt lat="45.25438779592204" lon="10.715918722167242"><ele>34.5</ele><time>2026-05-02T16:06:23.001Z</time></trkpt><trkpt lat="45.25445252069875" lon="10.71551668024427"><ele>34.0</ele><time>2026-05-02T16:06:24.001Z</time></trkpt><trkpt lat="45.254526092146186" lon="10.715146095879184"><ele>35.0</ele><time>2026-05-02T16:06:25.001Z</time></trkpt><trkpt lat="45.254578555535595" lon="10.714747038152975"><ele>36.0</ele><time>2026-05-02T16:06:26.001Z</time></trkpt><trkpt lat="45.25463132636885" lon="10.71435789476173"><ele>36.0</ele><time>2026-05-02T16:06:27.001Z</time></trkpt><trkpt lat="45.25468561000314" lon="10.71396149707945"><ele>36.0</ele><time>2026-05-02T16:06:28.001Z</time></trkpt><trkpt lat="45.25474620493214" lon="10.71355925837425"><ele>38.0</ele><time>2026-05-02T16:06:29.001Z</time></trkpt><trkpt lat="45.25480819912956" lon="10.713158396173425"><ele>40.0</ele><time>2026-05-02T16:06:30.001Z</time></trkpt><trkpt lat="45.25487360916252" lon="10.712763278428703"><ele>40.5</ele><time>2026-05-02T16:06:31.001Z</time></trkpt><trkpt lat="45.254942242516194" lon="10.712380717664862"><ele>41.0</ele><time>2026-05-02T16:06:32.001Z</time></trkpt><trkpt lat="45.255006572212906" lon="10.71199467257858"><ele>41.0</ele><time>2026-05-02T16:06:33.001Z</time></trkpt><trkpt lat="45.25506142726745" lon="10.711659885493582"><ele>41.0</ele><time>2026-05-02T16:06:34.001Z</time></trkpt><trkpt lat="45.25511346936967" lon="10.71136821542498"><ele>41.0</ele><time>2026-05-02T16:06:35.001Z</time></trkpt><trkpt lat="45.2551460931636" lon="10.711167047298543"><ele>41.0</ele><time>2026-05-02T16:06:36.001Z</time></trkpt><trkpt lat="45.25518007378291" lon="10.710954513247765"><ele>41.0</ele><time>2026-05-02T16:06:37.001Z</time></trkpt><trkpt lat="45.255213690147826" lon="10.71073581488217"><ele>40.33333333333333</ele><time>2026-05-02T16:06:38.001Z</time></trkpt><trkpt lat="45.25525141595477" lon="10.710509467590416"><ele>39.666666666666664</ele><time>2026-05-02T16:06:39.001Z</time></trkpt><trkpt lat="45.25528692399028" lon="10.71028889965968"><ele>39.0</ele><time>2026-05-02T16:06:40.001Z</time></trkpt><trkpt lat="45.255321636577044" lon="10.710082373516506"><ele>38.0</ele><time>2026-05-02T16:06:41.001Z</time></trkpt><trkpt lat="45.25535460635198" lon="10.709879130293416"><ele>37.0</ele><time>2026-05-02T16:06:42.001Z</time></trkpt><trkpt lat="45.25538907712597" lon="10.709665201996955"><ele>36.0</ele><time>2026-05-02T16:06:43.001Z</time></trkpt><trkpt lat="45.255423859552224" lon="10.709442950278385"><ele>35.333333333333336</ele><time>2026-05-02T16:06:44.001Z</time></trkpt><trkpt lat="45.25546433636594" lon="10.709214108050888"><ele>34.66666666666667</ele><time>2026-05-02T16:06:45.001Z</time></trkpt><trkpt lat="45.25550423105001" lon="10.708982124541706"><ele>34.0</ele><time>2026-05-02T16:06:46.001Z</time></trkpt><trkpt lat="45.255543324479206" lon="10.708749955707656"><ele>33.66666666666667</ele><time>2026-05-02T16:06:47.001Z</time></trkpt><trkpt lat="45.25557776144629" lon="10.708520526544135"><ele>33.333333333333336</ele><time>2026-05-02T16:06:48.001Z</time></trkpt><trkpt lat="45.255598629841664" lon="10.708303381066907"><ele>33.0</ele><time>2026-05-02T16:06:49.001Z</time></trkpt><trkpt lat="45.255601436890174" lon="10.708070091843508"><ele>33.0</ele><time>2026-05-02T16:06:50.001Z</time></trkpt><trkpt lat="45.25559495642634" lon="10.707799253184884"><ele>33.0</ele><time>2026-05-02T16:06:51.001Z</time></trkpt><trkpt lat="45.255584220153324" lon="10.707492204133395"><ele>33.0</ele><time>2026-05-02T16:06:52.001Z</time></trkpt><trkpt lat="45.25557788266439" lon="10.70715871557469"><ele>33.0</ele><time>2026-05-02T16:06:53.001Z</time></trkpt><trkpt lat="45.25557687824822" lon="10.706798881485897"><ele>33.0</ele><time>2026-05-02T16:06:54.001Z</time></trkpt><trkpt lat="45.25557971570344" lon="10.706417405175486"><ele>33.0</ele><time>2026-05-02T16:06:55.001Z</time></trkpt><trkpt lat="45.25558275350259" lon="10.706025873177737"><ele>33.0</ele><time>2026-05-02T16:06:56.001Z</time></trkpt><trkpt lat="45.25558107966256" lon="10.705637178480059"><ele>33.0</ele><time>2026-05-02T16:06:57.001Z</time></trkpt><trkpt lat="45.25557476145491" lon="10.70525686582966"><ele>33.0</ele><time>2026-05-02T16:06:58.001Z</time></trkpt><trkpt lat="45.25556589647305" lon="10.704868983819795"><ele>33.0</ele><time>2026-05-02T16:06:59.001Z</time></trkpt><trkpt lat="45.25555531663039" lon="10.704483911573666"><ele>33.0</ele><time>2026-05-02T16:07:00.001Z</time></trkpt><trkpt lat="45.25554847942617" lon="10.704103056172881"><ele>33.0</ele><time>2026-05-02T16:07:01.001Z</time></trkpt><trkpt lat="45.25553597660352" lon="10.70372529216647"><ele>33.0</ele><time>2026-05-02T16:07:02.001Z</time></trkpt><trkpt lat="45.255522578543385" lon="10.703349268919862"><ele>33.0</ele><time>2026-05-02T16:07:03.001Z</time></trkpt><trkpt lat="45.25550670700933" lon="10.702977108074254"><ele>33.0</ele><time>2026-05-02T16:07:04.001Z</time></trkpt><trkpt lat="45.25548720538707" lon="10.702620508153643"><ele>33.0</ele><time>2026-05-02T16:07:05.001Z</time></trkpt><trkpt lat="45.25546637884342" lon="10.702269622956942"><ele>33.0</ele><time>2026-05-02T16:07:06.001Z</time></trkpt><trkpt lat="45.25544158709672" lon="10.701917077218617"><ele>32.0</ele><time>2026-05-02T16:07:07.001Z</time></trkpt><trkpt lat="45.25541118539975" lon="10.701569791301948"><ele>31.0</ele><time>2026-05-02T16:07:08.001Z</time></trkpt><trkpt lat="45.25537704066226" lon="10.701225492062417"><ele>32.0</ele><time>2026-05-02T16:07:09.001Z</time></trkpt><trkpt lat="45.25534059007188" lon="10.700878079063026"><ele>33.0</ele><time>2026-05-02T16:07:10.001Z</time></trkpt><trkpt lat="45.25529292133332" lon="10.700545535126333"><ele>32.0</ele><time>2026-05-02T16:07:11.001Z</time></trkpt><trkpt lat="45.25524581553596" lon="10.700206785147582"><ele>31.0</ele><time>2026-05-02T16:07:12.001Z</time></trkpt><trkpt lat="45.25520072557554" lon="10.699876740440562"><ele>31.0</ele><time>2026-05-02T16:07:13.001Z</time></trkpt><trkpt lat="45.2551567764281" lon="10.699553521715563"><ele>31.0</ele><time>2026-05-02T16:07:14.001Z</time></trkpt><trkpt lat="45.25511579460477" lon="10.699227264662394"><ele>31.333333333333336</ele><time>2026-05-02T16:07:15.001Z</time></trkpt><trkpt lat="45.255076252630055" lon="10.698921392693611"><ele>31.666666666666664</ele><time>2026-05-02T16:07:16.001Z</time></trkpt><trkpt lat="45.25504064461464" lon="10.698627670971852"><ele>32.0</ele><time>2026-05-02T16:07:17.001Z</time></trkpt><trkpt lat="45.25502073170016" lon="10.698331237551445"><ele>32.0</ele><time>2026-05-02T16:07:18.001Z</time></trkpt><trkpt lat="45.255022864042324" lon="10.69802764735706"><ele>32.0</ele><time>2026-05-02T16:07:19.001Z</time></trkpt><trkpt lat="45.255047516298475" lon="10.697707826158942"><ele>32.0</ele><time>2026-05-02T16:07:20.001Z</time></trkpt><trkpt lat="45.25509272186135" lon="10.697382586462991"><ele>32.5</ele><time>2026-05-02T16:07:21.001Z</time></trkpt><trkpt lat="45.25513874022805" lon="10.697060288371748"><ele>33.0</ele><time>2026-05-02T16:07:22.001Z</time></trkpt><trkpt lat="45.255174131003464" lon="10.696752290454857"><ele>33.0</ele><time>2026-05-02T16:07:23.001Z</time></trkpt><trkpt lat="45.25520716588577" lon="10.69641719313327"><ele>33.0</ele><time>2026-05-02T16:07:24.001Z</time></trkpt><trkpt lat="45.25523849278592" lon="10.696070328252482"><ele>33.0</ele><time>2026-05-02T16:07:25.001Z</time></trkpt><trkpt lat="45.25528658850595" lon="10.69587046873748"><ele>33.0</ele><time>2026-05-02T16:07:26.001Z</time></trkpt><trkpt lat="45.25530560437575" lon="10.69559280225902"><ele>33.0</ele><time>2026-05-02T16:07:27.001Z</time></trkpt><trkpt lat="45.25531846968059" lon="10.695317303212363"><ele>33.333333333333336</ele><time>2026-05-02T16:07:28.001Z</time></trkpt><trkpt lat="45.255311241086865" lon="10.695044557212341"><ele>33.66666666666667</ele><time>2026-05-02T16:07:29.001Z</time></trkpt><trkpt lat="45.2552899536172" lon="10.694760069207547"><ele>34.0</ele><time>2026-05-02T16:07:30.001Z</time></trkpt><trkpt lat="45.25527286791725" lon="10.694478043398265"><ele>33.66666666666667</ele><time>2026-05-02T16:07:31.001Z</time></trkpt><trkpt lat="45.255260000817906" lon="10.694202392540083"><ele>33.333333333333336</ele><time>2026-05-02T16:07:32.001Z</time></trkpt><trkpt lat="45.25524843229633" lon="10.693925257366763"><ele>33.0</ele><time>2026-05-02T16:07:33.002Z</time></trkpt><trkpt lat="45.25523546837758" lon="10.693639538382019"><ele>33.0</ele><time>2026-05-02T16:07:34.001Z</time></trkpt><trkpt lat="45.25522790755414" lon="10.693343290416653"><ele>33.0</ele><time>2026-05-02T16:07:35.001Z</time></trkpt><trkpt lat="45.25521830013999" lon="10.69303147027343"><ele>33.0</ele><time>2026-05-02T16:07:36.002Z</time></trkpt><trkpt lat="45.25520663550395" lon="10.692709921813416"><ele>33.0</ele><time>2026-05-02T16:07:37.002Z</time></trkpt><trkpt lat="45.25519175075959" lon="10.692383233545765"><ele>33.0</ele><time>2026-05-02T16:07:38.002Z</time></trkpt><trkpt lat="45.255180057799386" lon="10.692057677532695"><ele>32.666666666666664</ele><time>2026-05-02T16:07:39.002Z</time></trkpt><trkpt lat="45.255166895732295" lon="10.69174716118782"><ele>32.33333333333333</ele><time>2026-05-02T16:07:40.002Z</time></trkpt><trkpt lat="45.255151210638786" lon="10.691447294323723"><ele>32.0</ele><time>2026-05-02T16:07:41.002Z</time></trkpt><trkpt lat="45.255140615520865" lon="10.69114634626936"><ele>32.33333333333333</ele><time>2026-05-02T16:07:42.002Z</time></trkpt><trkpt lat="45.25513153035409" lon="10.690862940229792"><ele>32.666666666666664</ele><time>2026-05-02T16:07:43.002Z</time></trkpt><trkpt lat="45.25512014965497" lon="10.690580009528324"><ele>33.0</ele><time>2026-05-02T16:07:44.002Z</time></trkpt><trkpt lat="45.255114892868015" lon="10.690297874093066"><ele>32.666666666666664</ele><time>2026-05-02T16:07:45.002Z</time></trkpt><trkpt lat="45.255101199622295" lon="10.690014580939398"><ele>32.33333333333333</ele><time>2026-05-02T16:07:46.002Z</time></trkpt><trkpt lat="45.2550852537958" lon="10.689724642260792"><ele>32.0</ele><time>2026-05-02T16:07:47.002Z</time></trkpt><trkpt lat="45.25506657488867" lon="10.689440362065904"><ele>32.33333333333333</ele><time>2026-05-02T16:07:48.002Z</time></trkpt><trkpt lat="45.25503950570339" lon="10.689152981336186"><ele>32.666666666666664</ele><time>2026-05-02T16:07:49.002Z</time></trkpt><trkpt lat="45.2550010807617" lon="10.688864872102595"><ele>33.0</ele><time>2026-05-02T16:07:50.002Z</time></trkpt><trkpt lat="45.254952286552076" lon="10.68857589521025"><ele>33.333333333333336</ele><time>2026-05-02T16:07:51.002Z</time></trkpt><trkpt lat="45.25488774848687" lon="10.688281086828574"><ele>33.66666666666667</ele><time>2026-05-02T16:07:52.002Z</time></trkpt><trkpt lat="45.25479708115985" lon="10.687988277374124"><ele>34.0</ele><time>2026-05-02T16:07:53.002Z</time></trkpt><trkpt lat="45.25468982123824" lon="10.68769144382752"><ele>32.5</ele><time>2026-05-02T16:07:54.002Z</time></trkpt><trkpt lat="45.25456255139263" lon="10.687394977948646"><ele>31.0</ele><time>2026-05-02T16:07:55.002Z</time></trkpt><trkpt lat="45.25444948778147" lon="10.687103399207661"><ele>31.0</ele><time>2026-05-02T16:07:56.002Z</time></trkpt><trkpt lat="45.25433800866923" lon="10.686825625312963"><ele>31.0</ele><time>2026-05-02T16:07:57.002Z</time></trkpt><trkpt lat="45.254226555662584" lon="10.686557173151707"><ele>31.0</ele><time>2026-05-02T16:07:58.002Z</time></trkpt><trkpt lat="45.25412169247408" lon="10.686295578529306"><ele>31.333333333333336</ele><time>2026-05-02T16:07:59.002Z</time></trkpt><trkpt lat="45.254027655464505" lon="10.686027365565893"><ele>31.666666666666664</ele><time>2026-05-02T16:08:00.002Z</time></trkpt><trkpt lat="45.253938648245146" lon="10.685746807847213"><ele>32.0</ele><time>2026-05-02T16:08:01.002Z</time></trkpt><trkpt lat="45.25386847436299" lon="10.68547066642798"><ele>32.0</ele><time>2026-05-02T16:08:02.002Z</time></trkpt><trkpt lat="45.253803398791206" lon="10.68519756448806"><ele>32.0</ele><time>2026-05-02T16:08:03.002Z</time></trkpt><trkpt lat="45.2537342225572" lon="10.684923218762085"><ele>32.0</ele><time>2026-05-02T16:08:04.002Z</time></trkpt><trkpt lat="45.25366614904771" lon="10.684652957223458"><ele>32.33333333333333</ele><time>2026-05-02T16:08:05.002Z</time></trkpt><trkpt lat="45.25360499399043" lon="10.684401307109582"><ele>32.666666666666664</ele><time>2026-05-02T16:08:06.002Z</time></trkpt><trkpt lat="45.25354437257663" lon="10.68415395755697"><ele>33.0</ele><time>2026-05-02T16:08:07.002Z</time></trkpt><trkpt lat="45.2534818766069" lon="10.683903773091812"><ele>33.0</ele><time>2026-05-02T16:08:08.002Z</time></trkpt><trkpt lat="45.253420995796006" lon="10.683651140160858"><ele>33.0</ele><time>2026-05-02T16:08:09.002Z</time></trkpt><trkpt lat="45.25335583556174" lon="10.683395695116717"><ele>33.0</ele><time>2026-05-02T16:08:10.002Z</time></trkpt><trkpt lat="45.25328846044794" lon="10.6831393890017"><ele>33.0</ele><time>2026-05-02T16:08:11.002Z</time></trkpt><trkpt lat="45.253227930715504" lon="10.682893159619713"><ele>33.0</ele><time>2026-05-02T16:08:12.002Z</time></trkpt><trkpt lat="45.25317463278217" lon="10.682658531263149"><ele>33.0</ele><time>2026-05-02T16:08:13.002Z</time></trkpt><trkpt lat="45.25311966332277" lon="10.682430366729646"><ele>33.0</ele><time>2026-05-02T16:08:14.002Z</time></trkpt><trkpt lat="45.25306990005149" lon="10.682200600168658"><ele>33.0</ele><time>2026-05-02T16:08:15.002Z</time></trkpt><trkpt lat="45.253028740128784" lon="10.681967843364719"><ele>33.0</ele><time>2026-05-02T16:08:16.001Z</time></trkpt><trkpt lat="45.25298994299977" lon="10.681746494834789"><ele>33.0</ele><time>2026-05-02T16:08:17.001Z</time></trkpt><trkpt lat="45.25295807976439" lon="10.681524289928426"><ele>33.0</ele><time>2026-05-02T16:08:18.001Z</time></trkpt><trkpt lat="45.25294963082958" lon="10.681298793164563"><ele>33.0</ele><time>2026-05-02T16:08:19.001Z</time></trkpt><trkpt lat="45.25296902292508" lon="10.681070592034322"><ele>32.666666666666664</ele><time>2026-05-02T16:08:20.001Z</time></trkpt><trkpt lat="45.25301925402749" lon="10.680837509613578"><ele>32.33333333333333</ele><time>2026-05-02T16:08:21.001Z</time></trkpt><trkpt lat="45.253075709810055" lon="10.680595475066548"><ele>32.0</ele><time>2026-05-02T16:08:22.001Z</time></trkpt><trkpt lat="45.25313597301149" lon="10.680348818437098"><ele>31.0</ele><time>2026-05-02T16:08:23.001Z</time></trkpt><trkpt lat="45.25318785578026" lon="10.680104057118694"><ele>30.0</ele><time>2026-05-02T16:08:24.001Z</time></trkpt><trkpt lat="45.2532192328663" lon="10.67987046323616"><ele>29.0</ele><time>2026-05-02T16:08:25.001Z</time></trkpt><trkpt lat="45.253247790376825" lon="10.679657542838504"><ele>29.0</ele><time>2026-05-02T16:08:26.001Z</time></trkpt><trkpt lat="45.253274833546364" lon="10.67946146133706"><ele>29.0</ele><time>2026-05-02T16:08:27.001Z</time></trkpt><trkpt lat="45.253311180573085" lon="10.679280900727392"><ele>29.0</ele><time>2026-05-02T16:08:28.001Z</time></trkpt><trkpt lat="45.25334765073838" lon="10.679104462264265"><ele>29.0</ele><time>2026-05-02T16:08:29.001Z</time></trkpt><trkpt lat="45.25338749980621" lon="10.678924274047601"><ele>29.25</ele><time>2026-05-02T16:08:30.001Z</time></trkpt><trkpt lat="45.25342804971242" lon="10.678740320108645"><ele>29.5</ele><time>2026-05-02T16:08:31.001Z</time></trkpt><trkpt lat="45.253464378947584" lon="10.678555719282414"><ele>29.75</ele><time>2026-05-02T16:08:32.001Z</time></trkpt><trkpt lat="45.253501482151826" lon="10.678378944492152"><ele>30.0</ele><time>2026-05-02T16:08:33.001Z</time></trkpt><trkpt lat="45.25353858454277" lon="10.6782166549955"><ele>30.4</ele><time>2026-05-02T16:08:34.001Z</time></trkpt><trkpt lat="45.25357033299879" lon="10.678063413205582"><ele>30.8</ele><time>2026-05-02T16:08:35.001Z</time></trkpt><trkpt lat="45.25359876831865" lon="10.677913601749642"><ele>31.200000000000003</ele><time>2026-05-02T16:08:36.001Z</time></trkpt><trkpt lat="45.25362305595783" lon="10.67776905683742"><ele>31.6</ele><time>2026-05-02T16:08:37.001Z</time></trkpt><trkpt lat="45.253631125252525" lon="10.677629850208652"><ele>32.0</ele><time>2026-05-02T16:08:38.001Z</time></trkpt><trkpt lat="45.25362029745098" lon="10.677500252085105"><ele>31.999999999999996</ele><time>2026-05-02T16:08:39.001Z</time></trkpt><trkpt lat="45.253586791859036" lon="10.677376323597326"><ele>32.0</ele><time>2026-05-02T16:08:40.001Z</time></trkpt><trkpt lat="45.253555171351906" lon="10.677263856233647"><ele>32.0</ele><time>2026-05-02T16:08:41.001Z</time></trkpt><trkpt lat="45.25352555609907" lon="10.677159441065026"><ele>32.0</ele><time>2026-05-02T16:08:42.001Z</time></trkpt><trkpt lat="45.25350327098363" lon="10.677071274137608"><ele>31.999999999999996</ele><time>2026-05-02T16:08:43.001Z</time></trkpt><trkpt lat="45.25347902600255" lon="10.676943053205592"><ele>32.0</ele><time>2026-05-02T16:08:45.001Z</time></trkpt><trkpt lat="45.25347967762972" lon="10.676828084829769"><ele>31.999999999999996</ele><time>2026-05-02T16:08:47.001Z</time></trkpt><trkpt lat="45.2535043858861" lon="10.676727343567643"><ele>32.0</ele><time>2026-05-02T16:08:49.001Z</time></trkpt><trkpt lat="45.25353183700975" lon="10.6766282204216"><ele>32.0</ele><time>2026-05-02T16:08:52.001Z</time></trkpt><trkpt lat="45.253562425844066" lon="10.67652028980348"><ele>32.0</ele><time>2026-05-02T16:08:54.001Z</time></trkpt><trkpt lat="45.25360539420428" lon="10.67636772078429"><ele>31.999999999999996</ele><time>2026-05-02T16:08:56.001Z</time></trkpt><trkpt lat="45.253641255872125" lon="10.676233843878213"><ele>32.0</ele><time>2026-05-02T16:08:58.001Z</time></trkpt><trkpt lat="45.25367982223527" lon="10.67609940709116"><ele>31.8</ele><time>2026-05-02T16:09:00.001Z</time></trkpt><trkpt lat="45.2537219168601" lon="10.67594727496451"><ele>31.6</ele><time>2026-05-02T16:09:02.001Z</time></trkpt><trkpt lat="45.25375778629386" lon="10.675822900577172"><ele>31.400000000000002</ele><time>2026-05-02T16:09:04.001Z</time></trkpt><trkpt lat="45.25379122838704" lon="10.675706070114357"><ele>31.200000000000003</ele><time>2026-05-02T16:09:06.001Z</time></trkpt><trkpt lat="45.253827043149755" lon="10.675608026973284"><ele>31.0</ele><time>2026-05-02T16:09:09.001Z</time></trkpt><trkpt lat="45.25385772753286" lon="10.675488353342647"><ele>31.0</ele><time>2026-05-02T16:09:12.001Z</time></trkpt><trkpt lat="45.25389249466697" lon="10.675368972514494"><ele>31.0</ele><time>2026-05-02T16:09:14.001Z</time></trkpt><trkpt lat="45.253934296619065" lon="10.67523452276953"><ele>31.0</ele><time>2026-05-02T16:09:16.001Z</time></trkpt><trkpt lat="45.25398277583482" lon="10.675098369406932"><ele>31.0</ele><time>2026-05-02T16:09:18.001Z</time></trkpt><trkpt lat="45.25402009409082" lon="10.674980354115151"><ele>31.0</ele><time>2026-05-02T16:09:20.001Z</time></trkpt><trkpt lat="45.254057352273506" lon="10.674853771086626"><ele>31.200000000000003</ele><time>2026-05-02T16:09:22.001Z</time></trkpt><trkpt lat="45.25409430951789" lon="10.674731291244022"><ele>31.400000000000002</ele><time>2026-05-02T16:09:24.001Z</time></trkpt><trkpt lat="45.25412692694136" lon="10.674626741257878"><ele>31.6</ele><time>2026-05-02T16:09:27.001Z</time></trkpt><trkpt lat="45.25415657976242" lon="10.674533871888395"><ele>31.8</ele><time>2026-05-02T16:09:31.001Z</time></trkpt><trkpt lat="45.254186799631945" lon="10.674409019333506"><ele>32.0</ele><time>2026-05-02T16:09:33.001Z</time></trkpt><trkpt lat="45.25423680079946" lon="10.674244849400774"><ele>32.0</ele><time>2026-05-02T16:09:35.001Z</time></trkpt><trkpt lat="45.254284128091996" lon="10.674076290096995"><ele>32.0</ele><time>2026-05-02T16:09:37.001Z</time></trkpt><trkpt lat="45.254306967815864" lon="10.673988482767507"><ele>32.0</ele><time>2026-05-02T16:09:38.001Z</time></trkpt><trkpt lat="45.254339516560414" lon="10.673846349787352"><ele>32.0</ele><time>2026-05-02T16:09:40.001Z</time></trkpt><trkpt lat="45.25438086512603" lon="10.673681301630277"><ele>32.0</ele><time>2026-05-02T16:09:42.001Z</time></trkpt><trkpt lat="45.25440580281794" lon="10.673551317762993"><ele>31.8</ele><time>2026-05-02T16:09:43.001Z</time></trkpt><trkpt lat="45.25443225860151" lon="10.673421475786514"><ele>31.6</ele><time>2026-05-02T16:09:44.001Z</time></trkpt><trkpt lat="45.25446711140968" lon="10.67328912210776"><ele>31.400000000000002</ele><time>2026-05-02T16:09:45.001Z</time></trkpt><trkpt lat="45.25447704802067" lon="10.673142638636875"><ele>31.200000000000003</ele><time>2026-05-02T16:09:46.001Z</time></trkpt><trkpt lat="45.25448916703005" lon="10.673028560856114"><ele>31.0</ele><time>2026-05-02T16:09:47.001Z</time></trkpt><trkpt lat="45.254503065330965" lon="10.672908583680346"><ele>31.000000000000004</ele><time>2026-05-02T16:09:48.001Z</time></trkpt><trkpt lat="45.254515383396026" lon="10.672772528504817"><ele>31.0</ele><time>2026-05-02T16:09:49.001Z</time></trkpt><trkpt lat="45.2545247977443" lon="10.672633189325582"><ele>31.0</ele><time>2026-05-02T16:09:50.001Z</time></trkpt><trkpt lat="45.25453370994809" lon="10.672518004530836"><ele>31.0</ele><time>2026-05-02T16:09:51.001Z</time></trkpt><trkpt lat="45.25454033412836" lon="10.672407310014759"><ele>31.000000000000004</ele><time>2026-05-02T16:09:52.002Z</time></trkpt><trkpt lat="45.25454624976994" lon="10.672289582836951"><ele>31.0</ele><time>2026-05-02T16:09:53.002Z</time></trkpt><trkpt lat="45.25454645253728" lon="10.672177539308922"><ele>31.000000000000004</ele><time>2026-05-02T16:09:54.002Z</time></trkpt><trkpt lat="45.254540623760924" lon="10.67206752545171"><ele>31.0</ele><time>2026-05-02T16:09:55.002Z</time></trkpt><trkpt lat="45.25453380754891" lon="10.671963312080077"><ele>31.0</ele><time>2026-05-02T16:09:56.002Z</time></trkpt><trkpt lat="45.25451892708171" lon="10.671853690252386"><ele>31.0</ele><time>2026-05-02T16:09:57.002Z</time></trkpt><trkpt lat="45.25450016789921" lon="10.671730576501755"><ele>31.000000000000004</ele><time>2026-05-02T16:09:58.002Z</time></trkpt><trkpt lat="45.25448575422116" lon="10.671608486181825"><ele>31.0</ele><time>2026-05-02T16:09:59.002Z</time></trkpt><trkpt lat="45.25447201278913" lon="10.67148565563295"><ele>31.166666666666668</ele><time>2026-05-02T16:10:00.002Z</time></trkpt><trkpt lat="45.25445721750569" lon="10.671364778706906"><ele>31.333333333333336</ele><time>2026-05-02T16:10:01.002Z</time></trkpt><trkpt lat="45.25443823379545" lon="10.671251446529128"><ele>31.5</ele><time>2026-05-02T16:10:02.002Z</time></trkpt><trkpt lat="45.25442083400361" lon="10.671147729461675"><ele>31.666666666666664</ele><time>2026-05-02T16:10:03.002Z</time></trkpt><trkpt lat="45.25440428664179" lon="10.671042678636745"><ele>31.833333333333332</ele><time>2026-05-02T16:10:04.002Z</time></trkpt><trkpt lat="45.254385613396344" lon="10.670938726341044"><ele>32.0</ele><time>2026-05-02T16:10:05.002Z</time></trkpt><trkpt lat="45.25436869339003" lon="10.670834185377867"><ele>31.833333333333332</ele><time>2026-05-02T16:10:06.002Z</time></trkpt><trkpt lat="45.25435260166332" lon="10.670725735317244"><ele>31.666666666666664</ele><time>2026-05-02T16:10:07.002Z</time></trkpt><trkpt lat="45.25432696582252" lon="10.670624381804672"><ele>31.5</ele><time>2026-05-02T16:10:08.002Z</time></trkpt><trkpt lat="45.25429679462535" lon="10.670514356913813"><ele>31.333333333333336</ele><time>2026-05-02T16:10:09.002Z</time></trkpt><trkpt lat="45.254265110043164" lon="10.670401450219263"><ele>31.166666666666668</ele><time>2026-05-02T16:10:10.002Z</time></trkpt><trkpt lat="45.2542227769025" lon="10.670289291026467"><ele>31.0</ele><time>2026-05-02T16:10:11.002Z</time></trkpt><trkpt lat="45.2541711625016" lon="10.670176240861714"><ele>31.0</ele><time>2026-05-02T16:10:12.002Z</time></trkpt><trkpt lat="45.25410793706192" lon="10.670054955505902"><ele>31.0</ele><time>2026-05-02T16:10:13.002Z</time></trkpt><trkpt lat="45.254026344635335" lon="10.669932779342458"><ele>31.0</ele><time>2026-05-02T16:10:14.002Z</time></trkpt><trkpt lat="45.253945676644925" lon="10.669812069966616"><ele>31.0</ele><time>2026-05-02T16:10:15.002Z</time></trkpt><trkpt lat="45.25386779131095" lon="10.6696854485023"><ele>31.25</ele><time>2026-05-02T16:10:16.002Z</time></trkpt><trkpt lat="45.253788584755384" lon="10.669567598244901"><ele>31.5</ele><time>2026-05-02T16:10:17.002Z</time></trkpt><trkpt lat="45.25370720147167" lon="10.669447414870476"><ele>31.75</ele><time>2026-05-02T16:10:18.002Z</time></trkpt><trkpt lat="45.25362472125651" lon="10.669320354734417"><ele>32.0</ele><time>2026-05-02T16:10:19.002Z</time></trkpt><trkpt lat="45.25355000565881" lon="10.669182668224089"><ele>32.25</ele><time>2026-05-02T16:10:20.002Z</time></trkpt><trkpt lat="45.253489487415074" lon="10.669033864319932"><ele>32.5</ele><time>2026-05-02T16:10:21.002Z</time></trkpt><trkpt lat="45.25344370741684" lon="10.668877452620825"><ele>32.75</ele><time>2026-05-02T16:10:22.001Z</time></trkpt><trkpt lat="45.25342475765906" lon="10.668698066208117"><ele>33.0</ele><time>2026-05-02T16:10:23.001Z</time></trkpt><trkpt lat="45.253429154830975" lon="10.668513826846215"><ele>33.0</ele><time>2026-05-02T16:10:24.001Z</time></trkpt><trkpt lat="45.253460015210216" lon="10.668335622140047"><ele>33.0</ele><time>2026-05-02T16:10:25.001Z</time></trkpt><trkpt lat="45.253501537150285" lon="10.668161937736638"><ele>33.0</ele><time>2026-05-02T16:10:26.001Z</time></trkpt><trkpt lat="45.253551120393425" lon="10.66800004256463"><ele>33.0</ele><time>2026-05-02T16:10:27.001Z</time></trkpt><trkpt lat="45.253600500640744" lon="10.66784398600701"><ele>34.25</ele><time>2026-05-02T16:10:28.001Z</time></trkpt><trkpt lat="45.2536495088033" lon="10.667686378184248"><ele>35.5</ele><time>2026-05-02T16:10:29.001Z</time></trkpt><trkpt lat="45.25369900432876" lon="10.667531546566467"><ele>36.75</ele><time>2026-05-02T16:10:30.001Z</time></trkpt><trkpt lat="45.25374850589063" lon="10.667376519805199"><ele>38.0</ele><time>2026-05-02T16:10:31.001Z</time></trkpt><trkpt lat="45.25379959124572" lon="10.667220371393306"><ele>38.0</ele><time>2026-05-02T16:10:32.001Z</time></trkpt><trkpt lat="45.253856185383796" lon="10.667063157735022"><ele>38.0</ele><time>2026-05-02T16:10:33.001Z</time></trkpt><trkpt lat="45.253910286432934" lon="10.666903468688282"><ele>38.0</ele><time>2026-05-02T16:10:34.001Z</time></trkpt><trkpt lat="45.25396198062963" lon="10.666747491685188"><ele>38.0</ele><time>2026-05-02T16:10:35.001Z</time></trkpt><trkpt lat="45.25401037668255" lon="10.666613287654235"><ele>37.666666666666664</ele><time>2026-05-02T16:10:36.001Z</time></trkpt><trkpt lat="45.254059371314696" lon="10.666497264305205"><ele>37.33333333333333</ele><time>2026-05-02T16:10:37.001Z</time></trkpt><trkpt lat="45.254104703259685" lon="10.66638668902649"><ele>37.0</ele><time>2026-05-02T16:10:38.001Z</time></trkpt><trkpt lat="45.25414431406815" lon="10.666277777041438"><ele>36.666666666666664</ele><time>2026-05-02T16:10:39.001Z</time></trkpt><trkpt lat="45.25417870084873" lon="10.666175297279546"><ele>36.333333333333336</ele><time>2026-05-02T16:10:40.001Z</time></trkpt><trkpt lat="45.2542070630521" lon="10.666064691413723"><ele>36.0</ele><time>2026-05-02T16:10:41.001Z</time></trkpt><trkpt lat="45.25423201389616" lon="10.665954080860155"><ele>36.0</ele><time>2026-05-02T16:10:42.001Z</time></trkpt><trkpt lat="45.25427266730313" lon="10.66584917076805"><ele>36.0</ele><time>2026-05-02T16:10:43.001Z</time></trkpt><trkpt lat="45.25433391577445" lon="10.665764960528975"><ele>36.0</ele><time>2026-05-02T16:10:44.001Z</time></trkpt><trkpt lat="45.254400004465204" lon="10.665697640775337"><ele>36.0</ele><time>2026-05-02T16:10:45.001Z</time></trkpt><trkpt lat="45.254461369265194" lon="10.665632365810996"><ele>36.0</ele><time>2026-05-02T16:10:46.001Z</time></trkpt><trkpt lat="45.254510265815554" lon="10.665543622921044"><ele>36.0</ele><time>2026-05-02T16:10:47.001Z</time></trkpt><trkpt lat="45.25453145113611" lon="10.665435374516067"><ele>36.0</ele><time>2026-05-02T16:10:48.001Z</time></trkpt><trkpt lat="45.254524703553" lon="10.665326512505054"><ele>36.0</ele><time>2026-05-02T16:10:49.001Z</time></trkpt><trkpt lat="45.25449815953147" lon="10.665229268474018"><ele>36.0</ele><time>2026-05-02T16:10:50.001Z</time></trkpt><trkpt lat="45.25444482212978" lon="10.665144341092248"><ele>36.0</ele><time>2026-05-02T16:10:51.001Z</time></trkpt><trkpt lat="45.25437296490057" lon="10.66508686904105"><ele>36.0</ele><time>2026-05-02T16:10:52.001Z</time></trkpt><trkpt lat="45.2542914909166" lon="10.665058828351555"><ele>36.0</ele><time>2026-05-02T16:10:53.001Z</time></trkpt><trkpt lat="45.2541981596015" lon="10.66504342077446"><ele>36.4</ele><time>2026-05-02T16:10:54.001Z</time></trkpt><trkpt lat="45.25409592944744" lon="10.665027405057629"><ele>36.8</ele><time>2026-05-02T16:10:55.001Z</time></trkpt><trkpt lat="45.253986162101015" lon="10.664991037204661"><ele>37.199999999999996</ele><time>2026-05-02T16:10:56.001Z</time></trkpt><trkpt lat="45.253876135703635" lon="10.664931336623383"><ele>37.6</ele><time>2026-05-02T16:10:57.001Z</time></trkpt><trkpt lat="45.25377310065673" lon="10.664876113125063"><ele>38.0</ele><time>2026-05-02T16:10:58.001Z</time></trkpt><trkpt lat="45.25367280201775" lon="10.66483691059967"><ele>38.199999999999996</ele><time>2026-05-02T16:10:59.001Z</time></trkpt><trkpt lat="45.25356956241462" lon="10.664802462381608"><ele>38.4</ele><time>2026-05-02T16:11:00.001Z</time></trkpt><trkpt lat="45.253466044228276" lon="10.664767650231289"><ele>38.599999999999994</ele><time>2026-05-02T16:11:01.001Z</time></trkpt><trkpt lat="45.253357778451296" lon="10.664743489149695"><ele>38.8</ele><time>2026-05-02T16:11:02.001Z</time></trkpt><trkpt lat="45.2532472901307" lon="10.664725135754528"><ele>39.0</ele><time>2026-05-02T16:11:03.001Z</time></trkpt><trkpt lat="45.25315203457699" lon="10.664709600970598"><ele>38.8</ele><time>2026-05-02T16:11:04.001Z</time></trkpt><trkpt lat="45.253062482713474" lon="10.66470427182997"><ele>38.599999999999994</ele><time>2026-05-02T16:11:05.001Z</time></trkpt><trkpt lat="45.25296455228259" lon="10.664709270268922"><ele>38.4</ele><time>2026-05-02T16:11:06.001Z</time></trkpt><trkpt lat="45.25286276024572" lon="10.664720718800545"><ele>38.199999999999996</ele><time>2026-05-02T16:11:07.001Z</time></trkpt><trkpt lat="45.252760388393966" lon="10.664739450497255"><ele>38.0</ele><time>2026-05-02T16:11:08.001Z</time></trkpt><trkpt lat="45.25265261631531" lon="10.664774147192606"><ele>38.0</ele><time>2026-05-02T16:11:09.001Z</time></trkpt><trkpt lat="45.25254208352324" lon="10.664823327600969"><ele>38.0</ele><time>2026-05-02T16:11:10.001Z</time></trkpt><trkpt lat="45.25242736493609" lon="10.664879328293987"><ele>38.0</ele><time>2026-05-02T16:11:11.001Z</time></trkpt><trkpt lat="45.25231356367029" lon="10.664951158749856"><ele>38.0</ele><time>2026-05-02T16:11:12.001Z</time></trkpt><trkpt lat="45.252200883595705" lon="10.665030620054548"><ele>38.0</ele><time>2026-05-02T16:11:13.001Z</time></trkpt><trkpt lat="45.25208893851859" lon="10.665118540704873"><ele>38.0</ele><time>2026-05-02T16:11:14.001Z</time></trkpt><trkpt lat="45.251983729134835" lon="10.665221243345108"><ele>38.0</ele><time>2026-05-02T16:11:15.001Z</time></trkpt><trkpt lat="45.2518832670093" lon="10.665328208353747"><ele>38.0</ele><time>2026-05-02T16:11:16.001Z</time></trkpt><trkpt lat="45.25179027545999" lon="10.665429682308824"><ele>38.0</ele><time>2026-05-02T16:11:17.001Z</time></trkpt><trkpt lat="45.25170363456181" lon="10.665515480727224"><ele>38.0</ele><time>2026-05-02T16:11:18.001Z</time></trkpt><trkpt lat="45.251623650662765" lon="10.665581605754612"><ele>38.0</ele><time>2026-05-02T16:11:19.001Z</time></trkpt><trkpt lat="45.251540581101786" lon="10.665620074770194"><ele>38.0</ele><time>2026-05-02T16:11:20.001Z</time></trkpt><trkpt lat="45.25145146835534" lon="10.665617860534118"><ele>38.0</ele><time>2026-05-02T16:11:21.001Z</time></trkpt><trkpt lat="45.25135737745641" lon="10.665579839311173"><ele>38.25</ele><time>2026-05-02T16:11:22.001Z</time></trkpt><trkpt lat="45.251265573414706" lon="10.665505401912895"><ele>38.5</ele><time>2026-05-02T16:11:23.001Z</time></trkpt><trkpt lat="45.251185500048116" lon="10.665383716296098"><ele>38.75</ele><time>2026-05-02T16:11:24.001Z</time></trkpt><trkpt lat="45.25110398866066" lon="10.66524145314079"><ele>39.0</ele><time>2026-05-02T16:11:25.001Z</time></trkpt><trkpt lat="45.25099769789547" lon="10.665017901001201"><ele>39.0</ele><time>2026-05-02T16:11:26.001Z</time></trkpt><trkpt lat="45.25087527274871" lon="10.664809980763595"><ele>39.0</ele><time>2026-05-02T16:11:27.001Z</time></trkpt><trkpt lat="45.25075225285287" lon="10.664605967668571"><ele>39.0</ele><time>2026-05-02T16:11:28.001Z</time></trkpt><trkpt lat="45.25063297922319" lon="10.664409299181376"><ele>38.666666666666664</ele><time>2026-05-02T16:11:29.001Z</time></trkpt><trkpt lat="45.25051276576228" lon="10.664214984189782"><ele>38.33333333333333</ele><time>2026-05-02T16:11:30.001Z</time></trkpt><trkpt lat="45.2503934427064" lon="10.664020127952123"><ele>38.0</ele><time>2026-05-02T16:11:31.001Z</time></trkpt><trkpt lat="45.250278561885416" lon="10.663838254538724"><ele>38.0</ele><time>2026-05-02T16:11:32.001Z</time></trkpt><trkpt lat="45.25016453787857" lon="10.663656712964286"><ele>38.0</ele><time>2026-05-02T16:11:33.001Z</time></trkpt><trkpt lat="45.25005732767643" lon="10.663480095744482"><ele>38.0</ele><time>2026-05-02T16:11:34.001Z</time></trkpt><trkpt lat="45.249961868740634" lon="10.663319729666428"><ele>38.0</ele><time>2026-05-02T16:11:35.001Z</time></trkpt><trkpt lat="45.24987100678768" lon="10.66316620857485"><ele>38.0</ele><time>2026-05-02T16:11:36.001Z</time></trkpt><trkpt lat="45.24978447386463" lon="10.663021589174916"><ele>38.0</ele><time>2026-05-02T16:11:37.001Z</time></trkpt><trkpt lat="45.24969258008161" lon="10.662878422635313"><ele>38.0</ele><time>2026-05-02T16:11:38.001Z</time></trkpt><trkpt lat="45.24959669567396" lon="10.66272023920886"><ele>38.33333333333333</ele><time>2026-05-02T16:11:39.001Z</time></trkpt><trkpt lat="45.249493917136704" lon="10.662556016496383"><ele>38.666666666666664</ele><time>2026-05-02T16:11:40.001Z</time></trkpt><trkpt lat="45.24938232418919" lon="10.662381780398244"><ele>39.0</ele><time>2026-05-02T16:11:41.001Z</time></trkpt><trkpt lat="45.249269424644886" lon="10.662199220447533"><ele>39.0</ele><time>2026-05-02T16:11:42.001Z</time></trkpt><trkpt lat="45.24914946372393" lon="10.662004085538918"><ele>39.0</ele><time>2026-05-02T16:11:43.001Z</time></trkpt><trkpt lat="45.24903020308042" lon="10.661811100788311"><ele>39.0</ele><time>2026-05-02T16:11:44.001Z</time></trkpt><trkpt lat="45.24891415155873" lon="10.661623898237456"><ele>38.666666666666664</ele><time>2026-05-02T16:11:45.001Z</time></trkpt><trkpt lat="45.24880246208443" lon="10.661442564578135"><ele>38.33333333333333</ele><time>2026-05-02T16:11:46.001Z</time></trkpt><trkpt lat="45.248689340297425" lon="10.66126016214181"><ele>38.0</ele><time>2026-05-02T16:11:47.001Z</time></trkpt><trkpt lat="45.24857612774118" lon="10.661082578774124"><ele>37.666666666666664</ele><time>2026-05-02T16:11:48.001Z</time></trkpt><trkpt lat="45.248462296085584" lon="10.660903617867364"><ele>37.333333333333336</ele><time>2026-05-02T16:11:49.001Z</time></trkpt><trkpt lat="45.248344990057994" lon="10.660723825780542"><ele>37.0</ele><time>2026-05-02T16:11:50.001Z</time></trkpt><trkpt lat="45.248215768589596" lon="10.660530228816283"><ele>37.0</ele><time>2026-05-02T16:11:51.001Z</time></trkpt><trkpt lat="45.24807229630781" lon="10.660306977780776"><ele>37.0</ele><time>2026-05-02T16:11:52.001Z</time></trkpt><trkpt lat="45.247925139141934" lon="10.660065586813541"><ele>37.0</ele><time>2026-05-02T16:11:53.001Z</time></trkpt><trkpt lat="45.24777345940944" lon="10.659812750579066"><ele>37.0</ele><time>2026-05-02T16:11:54.001Z</time></trkpt><trkpt lat="45.24762562893139" lon="10.659564413205011"><ele>37.0</ele><time>2026-05-02T16:11:55.001Z</time></trkpt><trkpt lat="45.24748065420484" lon="10.659318690254034"><ele>37.5</ele><time>2026-05-02T16:11:56.001Z</time></trkpt><trkpt lat="45.24733352518862" lon="10.659070976463491"><ele>38.0</ele><time>2026-05-02T16:11:57.001Z</time></trkpt><trkpt lat="45.24717662400072" lon="10.658816673176947"><ele>37.0</ele><time>2026-05-02T16:11:58.001Z</time></trkpt><trkpt lat="45.24701533081733" lon="10.658551013128067"><ele>36.0</ele><time>2026-05-02T16:11:59.001Z</time></trkpt><trkpt lat="45.24684743680724" lon="10.65827483010878"><ele>36.0</ele><time>2026-05-02T16:12:00.001Z</time></trkpt><trkpt lat="45.24667250380086" lon="10.65799340052316"><ele>36.0</ele><time>2026-05-02T16:12:01.001Z</time></trkpt><trkpt lat="45.24649475351442" lon="10.657706085383719"><ele>35.5</ele><time>2026-05-02T16:12:02.001Z</time></trkpt><trkpt lat="45.24631928736713" lon="10.657420176260484"><ele>35.0</ele><time>2026-05-02T16:12:03.001Z</time></trkpt><trkpt lat="45.246143620854994" lon="10.657132907205792"><ele>34.5</ele><time>2026-05-02T16:12:04.001Z</time></trkpt><trkpt lat="45.24596463992242" lon="10.656839991008347"><ele>34.0</ele><time>2026-05-02T16:12:05.001Z</time></trkpt><trkpt lat="45.24578102264654" lon="10.656539780977369"><ele>34.0</ele><time>2026-05-02T16:12:06.001Z</time></trkpt><trkpt lat="45.24559574707377" lon="10.656239221566945"><ele>34.0</ele><time>2026-05-02T16:12:07.001Z</time></trkpt><trkpt lat="45.24541021412422" lon="10.655938193225529"><ele>33.5</ele><time>2026-05-02T16:12:08.001Z</time></trkpt><trkpt lat="45.245224720101426" lon="10.655637063995627"><ele>33.0</ele><time>2026-05-02T16:12:09.001Z</time></trkpt><trkpt lat="45.24503757290206" lon="10.655334144530133"><ele>32.5</ele><time>2026-05-02T16:12:10.001Z</time></trkpt><trkpt lat="45.24485104878976" lon="10.655031605289523"><ele>32.0</ele><time>2026-05-02T16:12:11.001Z</time></trkpt><trkpt lat="45.244667532653246" lon="10.654734075066417"><ele>32.5</ele><time>2026-05-02T16:12:12.001Z</time></trkpt><trkpt lat="45.244487697827445" lon="10.654442163824204"><ele>33.0</ele><time>2026-05-02T16:12:13.001Z</time></trkpt><trkpt lat="45.24431065948604" lon="10.654155481930683"><ele>33.0</ele><time>2026-05-02T16:12:14.002Z</time></trkpt><trkpt lat="45.24413489711635" lon="10.653869504757395"><ele>33.0</ele><time>2026-05-02T16:12:15.002Z</time></trkpt><trkpt lat="45.24395690720562" lon="10.653582776107491"><ele>34.0</ele><time>2026-05-02T16:12:16.002Z</time></trkpt><trkpt lat="45.24377957664865" lon="10.653292659074658"><ele>35.0</ele><time>2026-05-02T16:12:17.002Z</time></trkpt><trkpt lat="45.24359979322796" lon="10.652999908035252"><ele>34.0</ele><time>2026-05-02T16:12:18.002Z</time></trkpt><trkpt lat="45.243420985453774" lon="10.652706453718386"><ele>33.0</ele><time>2026-05-02T16:12:19.002Z</time></trkpt><trkpt lat="45.243237664333904" lon="10.652408834308142"><ele>34.0</ele><time>2026-05-02T16:12:20.002Z</time></trkpt><trkpt lat="45.24305015173253" lon="10.652105930652924"><ele>35.0</ele><time>2026-05-02T16:12:21.002Z</time></trkpt><trkpt lat="45.24286076103845" lon="10.65180106226378"><ele>35.0</ele><time>2026-05-02T16:12:22.002Z</time></trkpt><trkpt lat="45.24266811516139" lon="10.651489627923299"><ele>35.0</ele><time>2026-05-02T16:12:23.002Z</time></trkpt><trkpt lat="45.24247411395081" lon="10.651172589461535"><ele>35.0</ele><time>2026-05-02T16:12:24.002Z</time></trkpt><trkpt lat="45.242280475901374" lon="10.650856163826367"><ele>35.0</ele><time>2026-05-02T16:12:25.002Z</time></trkpt><trkpt lat="45.24208648676892" lon="10.650538878028428"><ele>34.5</ele><time>2026-05-02T16:12:26.002Z</time></trkpt><trkpt lat="45.24189250243964" lon="10.650225569106185"><ele>34.0</ele><time>2026-05-02T16:12:27.002Z</time></trkpt><trkpt lat="45.24170017535784" lon="10.64991107399662"><ele>34.0</ele><time>2026-05-02T16:12:28Z</time></trkpt><trkpt lat="45.24150816069578" lon="10.649596659426663"><ele>34.0</ele><time>2026-05-02T16:12:29Z</time></trkpt><trkpt lat="45.241315643079005" lon="10.649281385776101"><ele>34.0</ele><time>2026-05-02T16:12:30Z</time></trkpt><trkpt lat="45.24112159916859" lon="10.64896998163534"><ele>34.0</ele><time>2026-05-02T16:12:31Z</time></trkpt><trkpt lat="45.24092946802456" lon="10.648661320014716"><ele>34.0</ele><time>2026-05-02T16:12:32Z</time></trkpt><trkpt lat="45.240741293844735" lon="10.648356314201921"><ele>34.0</ele><time>2026-05-02T16:12:33Z</time></trkpt><trkpt lat="45.24056029780364" lon="10.648059765336074"><ele>33.5</ele><time>2026-05-02T16:12:34Z</time></trkpt><trkpt lat="45.240388139987765" lon="10.64777294463304"><ele>33.0</ele><time>2026-05-02T16:12:35Z</time></trkpt><trkpt lat="45.24022217556645" lon="10.64749253888209"><ele>33.0</ele><time>2026-05-02T16:12:36Z</time></trkpt><trkpt lat="45.24005869820017" lon="10.647213576190511"><ele>33.0</ele><time>2026-05-02T16:12:37Z</time></trkpt><trkpt lat="45.23989867344172" lon="10.646937267260284"><ele>33.0</ele><time>2026-05-02T16:12:38Z</time></trkpt><trkpt lat="45.239661723926034" lon="10.646603367473373"><ele>33.0</ele><time>2026-05-02T16:12:39Z</time></trkpt><trkpt lat="45.23948768082742" lon="10.646311847878195"><ele>33.5</ele><time>2026-05-02T16:12:40Z</time></trkpt><trkpt lat="45.23930859198487" lon="10.6460276456701"><ele>34.0</ele><time>2026-05-02T16:12:41Z</time></trkpt><trkpt lat="45.23913210899181" lon="10.645747662568173"><ele>34.0</ele><time>2026-05-02T16:12:42Z</time></trkpt><trkpt lat="45.23896144567198" lon="10.64547389627991"><ele>34.0</ele><time>2026-05-02T16:12:43Z</time></trkpt><trkpt lat="45.23878654523699" lon="10.645196906238267"><ele>33.5</ele><time>2026-05-02T16:12:44Z</time></trkpt><trkpt lat="45.23861455455526" lon="10.64491386794977"><ele>33.0</ele><time>2026-05-02T16:12:45Z</time></trkpt><trkpt lat="45.23843501464935" lon="10.644617146808141"><ele>33.0</ele><time>2026-05-02T16:12:46Z</time></trkpt><trkpt lat="45.23825542718026" lon="10.644314525364113"><ele>33.0</ele><time>2026-05-02T16:12:47Z</time></trkpt><trkpt lat="45.238071134590626" lon="10.644019420043055"><ele>33.0</ele><time>2026-05-02T16:12:48Z</time></trkpt><trkpt lat="45.23788757705051" lon="10.643724422981478"><ele>33.0</ele><time>2026-05-02T16:12:49Z</time></trkpt><trkpt lat="45.23770729195574" lon="10.643429880030679"><ele>33.0</ele><time>2026-05-02T16:12:50Z</time></trkpt><trkpt lat="45.237522760860266" lon="10.643136864205331"><ele>33.0</ele><time>2026-05-02T16:12:51Z</time></trkpt><trkpt lat="45.23733393553336" lon="10.64284137522183"><ele>34.5</ele><time>2026-05-02T16:12:52Z</time></trkpt><trkpt lat="45.23714213625767" lon="10.642544660204909"><ele>36.0</ele><time>2026-05-02T16:12:53Z</time></trkpt><trkpt lat="45.236951953732344" lon="10.64224979623256"><ele>36.0</ele><time>2026-05-02T16:12:54Z</time></trkpt><trkpt lat="45.2367605555177" lon="10.64195116366807"><ele>36.0</ele><time>2026-05-02T16:12:55Z</time></trkpt><trkpt lat="45.23656691882193" lon="10.641654047873596"><ele>35.5</ele><time>2026-05-02T16:12:56Z</time></trkpt><trkpt lat="45.23637595996846" lon="10.641358295706342"><ele>35.0</ele><time>2026-05-02T16:12:57Z</time></trkpt><trkpt lat="45.23617764859561" lon="10.641059733970433"><ele>35.0</ele><time>2026-05-02T16:12:58Z</time></trkpt><trkpt lat="45.23598673939823" lon="10.640758594441005"><ele>35.0</ele><time>2026-05-02T16:12:59Z</time></trkpt><trkpt lat="45.23579585616892" lon="10.640465628645563"><ele>34.0</ele><time>2026-05-02T16:13:00Z</time></trkpt><trkpt lat="45.23560447440126" lon="10.640178796641946"><ele>33.0</ele><time>2026-05-02T16:13:01Z</time></trkpt><trkpt lat="45.23541538762806" lon="10.639893048504817"><ele>33.0</ele><time>2026-05-02T16:13:02Z</time></trkpt><trkpt lat="45.235231797201024" lon="10.639605043122103"><ele>33.0</ele><time>2026-05-02T16:13:03Z</time></trkpt><trkpt lat="45.23505099311667" lon="10.63931495363754"><ele>33.0</ele><time>2026-05-02T16:13:04Z</time></trkpt><trkpt lat="45.23486897442219" lon="10.639011689717178"><ele>33.0</ele><time>2026-05-02T16:13:05Z</time></trkpt><trkpt lat="45.23468770065737" lon="10.638708972700465"><ele>33.5</ele><time>2026-05-02T16:13:06Z</time></trkpt><trkpt lat="45.23450506177502" lon="10.638399768235985"><ele>34.0</ele><time>2026-05-02T16:13:07Z</time></trkpt><trkpt lat="45.23431543235963" lon="10.638084328685622"><ele>34.5</ele><time>2026-05-02T16:13:08Z</time></trkpt><trkpt lat="45.234122203987624" lon="10.637763572265625"><ele>35.0</ele><time>2026-05-02T16:13:09Z</time></trkpt><trkpt lat="45.23393655916171" lon="10.637442478083605"><ele>35.0</ele><time>2026-05-02T16:13:10Z</time></trkpt><trkpt lat="45.2337553788599" lon="10.63712514045937"><ele>35.0</ele><time>2026-05-02T16:13:11Z</time></trkpt><trkpt lat="45.23357488136734" lon="10.636816953445106"><ele>35.5</ele><time>2026-05-02T16:13:12.001Z</time></trkpt><trkpt lat="45.233392372767455" lon="10.636510831319669"><ele>36.0</ele><time>2026-05-02T16:13:13.001Z</time></trkpt><trkpt lat="45.23320903000574" lon="10.636212977419516"><ele>35.0</ele><time>2026-05-02T16:13:14.001Z</time></trkpt><trkpt lat="45.23302646289439" lon="10.635910119050177"><ele>34.0</ele><time>2026-05-02T16:13:15.001Z</time></trkpt><trkpt lat="45.23284036904915" lon="10.635613194659976"><ele>34.0</ele><time>2026-05-02T16:13:16.001Z</time></trkpt><trkpt lat="45.23266578405871" lon="10.635320981722879"><ele>34.0</ele><time>2026-05-02T16:13:17.001Z</time></trkpt><trkpt lat="45.23248976257397" lon="10.635030337069702"><ele>34.0</ele><time>2026-05-02T16:13:18.001Z</time></trkpt><trkpt lat="45.23231529393524" lon="10.634742386360708"><ele>34.0</ele><time>2026-05-02T16:13:19.001Z</time></trkpt><trkpt lat="45.2321405103747" lon="10.634456395968762"><ele>34.5</ele><time>2026-05-02T16:13:20.001Z</time></trkpt><trkpt lat="45.23196995814963" lon="10.634173355027638"><ele>35.0</ele><time>2026-05-02T16:13:21.001Z</time></trkpt><trkpt lat="45.23180209062934" lon="10.633895005822955"><ele>35.0</ele><time>2026-05-02T16:13:22.001Z</time></trkpt><trkpt lat="45.23163158999202" lon="10.633616918555745"><ele>35.0</ele><time>2026-05-02T16:13:23.001Z</time></trkpt><trkpt lat="45.231453468637675" lon="10.633328361099156"><ele>35.0</ele><time>2026-05-02T16:13:24.001Z</time></trkpt><trkpt lat="45.23126884207259" lon="10.633026960785966"><ele>35.0</ele><time>2026-05-02T16:13:25.001Z</time></trkpt><trkpt lat="45.231078165555715" lon="10.632715781652108"><ele>34.0</ele><time>2026-05-02T16:13:26.001Z</time></trkpt><trkpt lat="45.23087981733039" lon="10.63239077197449"><ele>33.0</ele><time>2026-05-02T16:13:27.001Z</time></trkpt><trkpt lat="45.23068082623956" lon="10.63206026316138"><ele>33.5</ele><time>2026-05-02T16:13:28.001Z</time></trkpt><trkpt lat="45.23047346712084" lon="10.63171865630849"><ele>34.0</ele><time>2026-05-02T16:13:29.001Z</time></trkpt><trkpt lat="45.2302678781419" lon="10.631378871340834"><ele>34.5</ele><time>2026-05-02T16:13:30.001Z</time></trkpt><trkpt lat="45.23006356782308" lon="10.631043157561674"><ele>35.0</ele><time>2026-05-02T16:13:31.001Z</time></trkpt><trkpt lat="45.22985755175909" lon="10.630707317070387"><ele>35.0</ele><time>2026-05-02T16:13:32.001Z</time></trkpt><trkpt lat="45.229645010483715" lon="10.63037000832661"><ele>35.0</ele><time>2026-05-02T16:13:33.001Z</time></trkpt><trkpt lat="45.22943909445172" lon="10.630042563886787"><ele>34.5</ele><time>2026-05-02T16:13:34.001Z</time></trkpt><trkpt lat="45.22922761403179" lon="10.629711943289138"><ele>34.0</ele><time>2026-05-02T16:13:35.001Z</time></trkpt><trkpt lat="45.229018619100536" lon="10.629375585880945"><ele>34.0</ele><time>2026-05-02T16:13:36.001Z</time></trkpt><trkpt lat="45.228811705628004" lon="10.629034786486388"><ele>34.0</ele><time>2026-05-02T16:13:37.001Z</time></trkpt><trkpt lat="45.228602888896496" lon="10.628688379708098"><ele>34.0</ele><time>2026-05-02T16:13:38.001Z</time></trkpt><trkpt lat="45.22839932178439" lon="10.628336200068231"><ele>34.0</ele><time>2026-05-02T16:13:39.001Z</time></trkpt><trkpt lat="45.228204978215835" lon="10.627984399302884"><ele>34.0</ele><time>2026-05-02T16:13:40.001Z</time></trkpt><trkpt lat="45.22800195544746" lon="10.627641173042978"><ele>34.0</ele><time>2026-05-02T16:13:41.001Z</time></trkpt><trkpt lat="45.22779871136725" lon="10.627314743676308"><ele>34.0</ele><time>2026-05-02T16:13:42.001Z</time></trkpt><trkpt lat="45.227601352040566" lon="10.626990643742994"><ele>34.0</ele><time>2026-05-02T16:13:43.001Z</time></trkpt><trkpt lat="45.22741128943143" lon="10.626681391801844"><ele>34.0</ele><time>2026-05-02T16:13:44.001Z</time></trkpt><trkpt lat="45.2272258961544" lon="10.626381127627035"><ele>34.0</ele><time>2026-05-02T16:13:45.001Z</time></trkpt><trkpt lat="45.22703883584239" lon="10.626074480502705"><ele>34.5</ele><time>2026-05-02T16:13:46.001Z</time></trkpt><trkpt lat="45.22685244988939" lon="10.625770027040524"><ele>35.0</ele><time>2026-05-02T16:13:47.001Z</time></trkpt><trkpt lat="45.226665166590514" lon="10.625461267532703"><ele>35.5</ele><time>2026-05-02T16:13:48.001Z</time></trkpt><trkpt lat="45.22648662453601" lon="10.62516586071063"><ele>36.0</ele><time>2026-05-02T16:13:49.001Z</time></trkpt><trkpt lat="45.22631633296019" lon="10.624881551425657"><ele>35.0</ele><time>2026-05-02T16:13:50.001Z</time></trkpt><trkpt lat="45.22614965867656" lon="10.624600579159948"><ele>34.0</ele><time>2026-05-02T16:13:51.001Z</time></trkpt><trkpt lat="45.225978898000044" lon="10.624319958850132"><ele>34.0</ele><time>2026-05-02T16:13:52.001Z</time></trkpt><trkpt lat="45.22580866462571" lon="10.62404127672069"><ele>34.0</ele><time>2026-05-02T16:13:53.001Z</time></trkpt><trkpt lat="45.22563561223287" lon="10.623756827763108"><ele>34.0</ele><time>2026-05-02T16:13:54.001Z</time></trkpt><trkpt lat="45.22546255021561" lon="10.623469772636403"><ele>34.0</ele><time>2026-05-02T16:13:55.001Z</time></trkpt><trkpt lat="45.225281590212234" lon="10.6231819652628"><ele>34.0</ele><time>2026-05-02T16:13:56.001Z</time></trkpt><trkpt lat="45.22509863452852" lon="10.622887975752976"><ele>34.0</ele><time>2026-05-02T16:13:57.001Z</time></trkpt><trkpt lat="45.224915099421175" lon="10.622590119128866"><ele>34.5</ele><time>2026-05-02T16:13:58.001Z</time></trkpt><trkpt lat="45.224733070700495" lon="10.622284352403534"><ele>35.0</ele><time>2026-05-02T16:13:59.001Z</time></trkpt><trkpt lat="45.2245422417684" lon="10.621973863774494"><ele>35.0</ele><time>2026-05-02T16:14:00.001Z</time></trkpt><trkpt lat="45.2243511395691" lon="10.621660182780936"><ele>35.0</ele><time>2026-05-02T16:14:01.001Z</time></trkpt><trkpt lat="45.224161159085575" lon="10.62134865949501"><ele>34.5</ele><time>2026-05-02T16:14:02.001Z</time></trkpt><trkpt lat="45.223970373561336" lon="10.62103298221395"><ele>34.0</ele><time>2026-05-02T16:14:03.001Z</time></trkpt><trkpt lat="45.22377696163833" lon="10.620716947602736"><ele>34.0</ele><time>2026-05-02T16:14:04.001Z</time></trkpt><trkpt lat="45.22358444379139" lon="10.620402304349877"><ele>34.0</ele><time>2026-05-02T16:14:05.001Z</time></trkpt><trkpt lat="45.22339128897844" lon="10.620084759878576"><ele>34.0</ele><time>2026-05-02T16:14:06.001Z</time></trkpt><trkpt lat="45.22320072583832" lon="10.61976904126996"><ele>34.0</ele><time>2026-05-02T16:14:07.001Z</time></trkpt><trkpt lat="45.22300791545495" lon="10.619455779175082"><ele>34.0</ele><time>2026-05-02T16:14:08.001Z</time></trkpt><trkpt lat="45.22281360692804" lon="10.619144437593757"><ele>34.0</ele><time>2026-05-02T16:14:09.001Z</time></trkpt><trkpt lat="45.22262156848333" lon="10.618831059594951"><ele>34.0</ele><time>2026-05-02T16:14:10.001Z</time></trkpt><trkpt lat="45.22242885789135" lon="10.618518777250666"><ele>34.0</ele><time>2026-05-02T16:14:11.001Z</time></trkpt><trkpt lat="45.22224404491148" lon="10.618214469945958"><ele>34.0</ele><time>2026-05-02T16:14:12.001Z</time></trkpt><trkpt lat="45.22207066890482" lon="10.61792698691901"><ele>34.0</ele><time>2026-05-02T16:14:13.001Z</time></trkpt><trkpt lat="45.22190645486654" lon="10.617657982243946"><ele>34.0</ele><time>2026-05-02T16:14:14.001Z</time></trkpt><trkpt lat="45.22174882632681" lon="10.617399533138553"><ele>34.0</ele><time>2026-05-02T16:14:15.001Z</time></trkpt><trkpt lat="45.22159815400757" lon="10.617153127781236"><ele>34.333333333333336</ele><time>2026-05-02T16:14:16.001Z</time></trkpt><trkpt lat="45.22145174491072" lon="10.616909693723748"><ele>34.666666666666664</ele><time>2026-05-02T16:14:17.001Z</time></trkpt><trkpt lat="45.22130903130324" lon="10.61667213475518"><ele>35.0</ele><time>2026-05-02T16:14:18.001Z</time></trkpt><trkpt lat="45.221165680136984" lon="10.616439053742006"><ele>35.0</ele><time>2026-05-02T16:14:19.001Z</time></trkpt><trkpt lat="45.22102850465934" lon="10.616214869568969"><ele>35.0</ele><time>2026-05-02T16:14:20.001Z</time></trkpt><trkpt lat="45.22090045217928" lon="10.616004369967582"><ele>35.0</ele><time>2026-05-02T16:14:21.001Z</time></trkpt><trkpt lat="45.22077887130052" lon="10.615804990179369"><ele>35.0</ele><time>2026-05-02T16:14:22.001Z</time></trkpt><trkpt lat="45.22066719379304" lon="10.615620423225076"><ele>35.0</ele><time>2026-05-02T16:14:23.001Z</time></trkpt><trkpt lat="45.22056432037769" lon="10.615457514575352"><ele>35.0</ele><time>2026-05-02T16:14:24.001Z</time></trkpt><trkpt lat="45.22046958663409" lon="10.615291292822494"><ele>35.0</ele><time>2026-05-02T16:14:25.001Z</time></trkpt><trkpt lat="45.220389186879" lon="10.615113215418257"><ele>35.0</ele><time>2026-05-02T16:14:26.001Z</time></trkpt><trkpt lat="45.220317065989306" lon="10.614921493110874"><ele>35.0</ele><time>2026-05-02T16:14:27.001Z</time></trkpt><trkpt lat="45.22025054602202" lon="10.61471425469125"><ele>35.0</ele><time>2026-05-02T16:14:28.001Z</time></trkpt><trkpt lat="45.220174847536775" lon="10.614501209967992"><ele>35.0</ele><time>2026-05-02T16:14:29.001Z</time></trkpt><trkpt lat="45.22007082352941" lon="10.61429176168076"><ele>35.0</ele><time>2026-05-02T16:14:30.001Z</time></trkpt><trkpt lat="45.2199193626636" lon="10.614097806660986"><ele>34.0</ele><time>2026-05-02T16:14:31.002Z</time></trkpt><trkpt lat="45.219725339222755" lon="10.613907336739507"><ele>33.0</ele><time>2026-05-02T16:14:32.002Z</time></trkpt><trkpt lat="45.21953407377855" lon="10.61370643357793"><ele>32.666666666666664</ele><time>2026-05-02T16:14:33.002Z</time></trkpt><trkpt lat="45.21937579238993" lon="10.613520714429114"><ele>32.33333333333333</ele><time>2026-05-02T16:14:34Z</time></trkpt><trkpt lat="45.21924221337695" lon="10.613304080383891"><ele>32.0</ele><time>2026-05-02T16:14:35Z</time></trkpt><trkpt lat="45.219106557708045" lon="10.613095795075193"><ele>32.0</ele><time>2026-05-02T16:14:36Z</time></trkpt><trkpt lat="45.21896313128698" lon="10.612831783679287"><ele>32.0</ele><time>2026-05-02T16:14:37Z</time></trkpt><trkpt lat="45.21881689506074" lon="10.612592061516839"><ele>32.5</ele><time>2026-05-02T16:14:38Z</time></trkpt><trkpt lat="45.218670920645586" lon="10.612352093611062"><ele>33.0</ele><time>2026-05-02T16:14:39Z</time></trkpt><trkpt lat="45.218518626544196" lon="10.612097461405474"><ele>33.5</ele><time>2026-05-02T16:14:40Z</time></trkpt><trkpt lat="45.21835605155268" lon="10.61183314736123"><ele>34.0</ele><time>2026-05-02T16:14:41Z</time></trkpt><trkpt lat="45.218192083082236" lon="10.611561728708747"><ele>34.0</ele><time>2026-05-02T16:14:42Z</time></trkpt><trkpt lat="45.218023614276554" lon="10.611279907607798"><ele>34.0</ele><time>2026-05-02T16:14:43Z</time></trkpt><trkpt lat="45.21784493908774" lon="10.610987835824139"><ele>34.0</ele><time>2026-05-02T16:14:44Z</time></trkpt><trkpt lat="45.2176624224847" lon="10.610685176658745"><ele>34.0</ele><time>2026-05-02T16:14:45Z</time></trkpt><trkpt lat="45.217476510164275" lon="10.61037728761094"><ele>34.5</ele><time>2026-05-02T16:14:46Z</time></trkpt><trkpt lat="45.217286202075684" lon="10.610066584793982"><ele>35.0</ele><time>2026-05-02T16:14:47Z</time></trkpt><trkpt lat="45.217101632349646" lon="10.609762561223395"><ele>35.0</ele><time>2026-05-02T16:14:48Z</time></trkpt><trkpt lat="45.21692047869886" lon="10.609467994763426"><ele>35.0</ele><time>2026-05-02T16:14:49Z</time></trkpt><trkpt lat="45.2167383323304" lon="10.6091637614493"><ele>35.0</ele><time>2026-05-02T16:14:50Z</time></trkpt><trkpt lat="45.216568473985056" lon="10.608884229284975"><ele>35.0</ele><time>2026-05-02T16:14:51Z</time></trkpt><trkpt lat="45.21640457913134" lon="10.608608021091273"><ele>35.0</ele><time>2026-05-02T16:14:52Z</time></trkpt><trkpt lat="45.21623467800915" lon="10.608332946535029"><ele>35.0</ele><time>2026-05-02T16:14:53Z</time></trkpt><trkpt lat="45.21606674498873" lon="10.608059506371738"><ele>35.0</ele><time>2026-05-02T16:14:54Z</time></trkpt><trkpt lat="45.21590009732494" lon="10.607785350500993"><ele>35.0</ele><time>2026-05-02T16:14:55Z</time></trkpt><trkpt lat="45.21573095423884" lon="10.607507248280946"><ele>35.0</ele><time>2026-05-02T16:14:56Z</time></trkpt><trkpt lat="45.215561032435886" lon="10.607227191417426"><ele>35.0</ele><time>2026-05-02T16:14:57Z</time></trkpt><trkpt lat="45.21539698137754" lon="10.60695370737154"><ele>35.0</ele><time>2026-05-02T16:14:58Z</time></trkpt><trkpt lat="45.21523775224237" lon="10.606690431978153"><ele>35.0</ele><time>2026-05-02T16:14:59Z</time></trkpt><trkpt lat="45.21508041451241" lon="10.60643075800249"><ele>35.0</ele><time>2026-05-02T16:15:00Z</time></trkpt><trkpt lat="45.2149256404541" lon="10.606174297308593"><ele>35.0</ele><time>2026-05-02T16:15:01Z</time></trkpt><trkpt lat="45.21477672098414" lon="10.605929247005486"><ele>34.5</ele><time>2026-05-02T16:15:02Z</time></trkpt><trkpt lat="45.21462647297869" lon="10.605685650753044"><ele>34.0</ele><time>2026-05-02T16:15:03Z</time></trkpt><trkpt lat="45.21447537220717" lon="10.605440842574412"><ele>34.0</ele><time>2026-05-02T16:15:04Z</time></trkpt><trkpt lat="45.21432503984486" lon="10.605195359208901"><ele>34.0</ele><time>2026-05-02T16:15:05Z</time></trkpt><trkpt lat="45.214176483817816" lon="10.604945885561387"><ele>34.0</ele><time>2026-05-02T16:15:06Z</time></trkpt><trkpt lat="45.21402251931453" lon="10.604689722873665"><ele>34.0</ele><time>2026-05-02T16:15:07Z</time></trkpt><trkpt lat="45.21387124676228" lon="10.60443894001002"><ele>35.0</ele><time>2026-05-02T16:15:08Z</time></trkpt><trkpt lat="45.213710905703174" lon="10.604177047042095"><ele>36.0</ele><time>2026-05-02T16:15:09Z</time></trkpt><trkpt lat="45.213550630910966" lon="10.603907145139921"><ele>35.5</ele><time>2026-05-02T16:15:10Z</time></trkpt><trkpt lat="45.213387294825544" lon="10.603632692083014"><ele>35.0</ele><time>2026-05-02T16:15:11Z</time></trkpt><trkpt lat="45.2132297207989" lon="10.60336957533266"><ele>35.0</ele><time>2026-05-02T16:15:12Z</time></trkpt><trkpt lat="45.21308183557001" lon="10.60312457141063"><ele>35.0</ele><time>2026-05-02T16:15:13Z</time></trkpt><trkpt lat="45.21294362635248" lon="10.60288824077857"><ele>35.0</ele><time>2026-05-02T16:15:14Z</time></trkpt><trkpt lat="45.21280870463544" lon="10.602671265840527"><ele>35.0</ele><time>2026-05-02T16:15:15Z</time></trkpt><trkpt lat="45.21267990183989" lon="10.602445596184722"><ele>35.0</ele><time>2026-05-02T16:15:16Z</time></trkpt><trkpt lat="45.2125492671256" lon="10.602233120196434"><ele>35.0</ele><time>2026-05-02T16:15:17Z</time></trkpt><trkpt lat="45.21242153195015" lon="10.602024681218772"><ele>35.0</ele><time>2026-05-02T16:15:18Z</time></trkpt><trkpt lat="45.212288623057546" lon="10.601814001632873"><ele>35.0</ele><time>2026-05-02T16:15:19Z</time></trkpt><trkpt lat="45.21216370424215" lon="10.601608833859796"><ele>35.0</ele><time>2026-05-02T16:15:20Z</time></trkpt><trkpt lat="45.21204831823635" lon="10.60141808387602"><ele>35.0</ele><time>2026-05-02T16:15:21Z</time></trkpt><trkpt lat="45.21193515426214" lon="10.601230572901647"><ele>35.0</ele><time>2026-05-02T16:15:22Z</time></trkpt><trkpt lat="45.211826937719714" lon="10.601047869758679"><ele>35.0</ele><time>2026-05-02T16:15:23Z</time></trkpt><trkpt lat="45.211718112666915" lon="10.600864518822274"><ele>35.0</ele><time>2026-05-02T16:15:24Z</time></trkpt><trkpt lat="45.21160527571697" lon="10.600678937477428"><ele>35.0</ele><time>2026-05-02T16:15:25Z</time></trkpt><trkpt lat="45.211487318305196" lon="10.60048713879661"><ele>35.0</ele><time>2026-05-02T16:15:26Z</time></trkpt><trkpt lat="45.21136219312929" lon="10.600282819776327"><ele>34.666666666666664</ele><time>2026-05-02T16:15:27Z</time></trkpt><trkpt lat="45.211226661313454" lon="10.600067238723488"><ele>34.333333333333336</ele><time>2026-05-02T16:15:28Z</time></trkpt><trkpt lat="45.21109290416733" lon="10.599849742170084"><ele>34.0</ele><time>2026-05-02T16:15:29Z</time></trkpt><trkpt lat="45.21096114471023" lon="10.599631173604342"><ele>34.0</ele><time>2026-05-02T16:15:30Z</time></trkpt><trkpt lat="45.21083543011757" lon="10.599425320299522"><ele>34.0</ele><time>2026-05-02T16:15:31.001Z</time></trkpt><trkpt lat="45.21070686840098" lon="10.599210712342238"><ele>34.0</ele><time>2026-05-02T16:15:32.001Z</time></trkpt><trkpt lat="45.210572915246516" lon="10.598989425698248"><ele>34.0</ele><time>2026-05-02T16:15:33.001Z</time></trkpt><trkpt lat="45.21044360358744" lon="10.598768433819968"><ele>34.0</ele><time>2026-05-02T16:15:34.001Z</time></trkpt><trkpt lat="45.210315386445274" lon="10.598554155574766"><ele>34.0</ele><time>2026-05-02T16:15:35.001Z</time></trkpt><trkpt lat="45.210187765115805" lon="10.598338773039636"><ele>34.0</ele><time>2026-05-02T16:15:36.001Z</time></trkpt><trkpt lat="45.21006709302664" lon="10.598133219211745"><ele>34.0</ele><time>2026-05-02T16:15:37.001Z</time></trkpt><trkpt lat="45.2099499503875" lon="10.597929981061661"><ele>34.0</ele><time>2026-05-02T16:15:38.001Z</time></trkpt><trkpt lat="45.20983225872335" lon="10.597738655889867"><ele>34.66666666666667</ele><time>2026-05-02T16:15:39.001Z</time></trkpt><trkpt lat="45.209718418477685" lon="10.597546648318136"><ele>35.333333333333336</ele><time>2026-05-02T16:15:40.001Z</time></trkpt><trkpt lat="45.20960753664014" lon="10.597355960916321"><ele>36.0</ele><time>2026-05-02T16:15:41.001Z</time></trkpt><trkpt lat="45.20949380382982" lon="10.59715916748333"><ele>35.666666666666664</ele><time>2026-05-02T16:15:42.001Z</time></trkpt><trkpt lat="45.20937605283065" lon="10.596964828793332"><ele>35.33333333333333</ele><time>2026-05-02T16:15:43.001Z</time></trkpt><trkpt lat="45.209254206143115" lon="10.596776079214472"><ele>35.0</ele><time>2026-05-02T16:15:44.001Z</time></trkpt><trkpt lat="45.20912765294921" lon="10.596585993927075"><ele>35.0</ele><time>2026-05-02T16:15:45.001Z</time></trkpt><trkpt lat="45.20899981130366" lon="10.59638063766348"><ele>35.0</ele><time>2026-05-02T16:15:46.001Z</time></trkpt><trkpt lat="45.20886325531579" lon="10.59617916542007"><ele>35.0</ele><time>2026-05-02T16:15:47.001Z</time></trkpt><trkpt lat="45.20873140061358" lon="10.595981068425186"><ele>35.33333333333333</ele><time>2026-05-02T16:15:48.001Z</time></trkpt><trkpt lat="45.20859533939844" lon="10.595774052739861"><ele>35.666666666666664</ele><time>2026-05-02T16:15:49.001Z</time></trkpt><trkpt lat="45.20846100336702" lon="10.595566858691333"><ele>36.0</ele><time>2026-05-02T16:15:50.001Z</time></trkpt><trkpt lat="45.20832139927738" lon="10.595356539725943"><ele>36.0</ele><time>2026-05-02T16:15:51.001Z</time></trkpt><trkpt lat="45.20818007311001" lon="10.595146875411137"><ele>36.0</ele><time>2026-05-02T16:15:52.001Z</time></trkpt><trkpt lat="45.20804226816603" lon="10.594930757723679"><ele>36.0</ele><time>2026-05-02T16:15:53.001Z</time></trkpt><trkpt lat="45.207897334059574" lon="10.594720021922566"><ele>35.666666666666664</ele><time>2026-05-02T16:15:54.001Z</time></trkpt><trkpt lat="45.20776206984766" lon="10.59450452018686"><ele>35.33333333333333</ele><time>2026-05-02T16:15:55.001Z</time></trkpt><trkpt lat="45.207650476013974" lon="10.594298695629089"><ele>35.0</ele><time>2026-05-02T16:15:56.001Z</time></trkpt><trkpt lat="45.207531431215216" lon="10.59409374801086"><ele>35.0</ele><time>2026-05-02T16:15:57.001Z</time></trkpt><trkpt lat="45.20740542394806" lon="10.593891316836674"><ele>35.0</ele><time>2026-05-02T16:15:58.001Z</time></trkpt><trkpt lat="45.20729132597638" lon="10.593694219033603"><ele>35.0</ele><time>2026-05-02T16:15:59.001Z</time></trkpt><trkpt lat="45.20717357366551" lon="10.593499417354938"><ele>35.0</ele><time>2026-05-02T16:16:00.001Z</time></trkpt><trkpt lat="45.20704889460475" lon="10.59329803169525"><ele>35.0</ele><time>2026-05-02T16:16:01.001Z</time></trkpt><trkpt lat="45.20692361567056" lon="10.593091136804034"><ele>35.0</ele><time>2026-05-02T16:16:02.001Z</time></trkpt><trkpt lat="45.206794549621144" lon="10.592878154540342"><ele>34.666666666666664</ele><time>2026-05-02T16:16:03.001Z</time></trkpt><trkpt lat="45.20666849698551" lon="10.592667829558899"><ele>34.333333333333336</ele><time>2026-05-02T16:16:04.001Z</time></trkpt><trkpt lat="45.206549646518205" lon="10.592465311622167"><ele>34.0</ele><time>2026-05-02T16:16:05.001Z</time></trkpt><trkpt lat="45.206432610238465" lon="10.592269296291628"><ele>34.0</ele><time>2026-05-02T16:16:06.001Z</time></trkpt><trkpt lat="45.20632002252268" lon="10.592083385487092"><ele>34.0</ele><time>2026-05-02T16:16:07.001Z</time></trkpt><trkpt lat="45.20621308733675" lon="10.591906862121453"><ele>34.0</ele><time>2026-05-02T16:16:08.001Z</time></trkpt><trkpt lat="45.20611286074412" lon="10.59173424960966"><ele>34.0</ele><time>2026-05-02T16:16:09.001Z</time></trkpt><trkpt lat="45.206007535436946" lon="10.591557237665729"><ele>34.0</ele><time>2026-05-02T16:16:10.001Z</time></trkpt><trkpt lat="45.20589868713193" lon="10.591383799261344"><ele>34.0</ele><time>2026-05-02T16:16:11.001Z</time></trkpt><trkpt lat="45.2057920771888" lon="10.591208627176544"><ele>34.0</ele><time>2026-05-02T16:16:12.001Z</time></trkpt><trkpt lat="45.20568579695632" lon="10.59103149396448"><ele>34.0</ele><time>2026-05-02T16:16:13.001Z</time></trkpt><trkpt lat="45.20558093719394" lon="10.590855439544441"><ele>34.0</ele><time>2026-05-02T16:16:14.001Z</time></trkpt><trkpt lat="45.20547543249335" lon="10.590680655015293"><ele>34.0</ele><time>2026-05-02T16:16:15.001Z</time></trkpt><trkpt lat="45.20537104662536" lon="10.59050729743024"><ele>34.0</ele><time>2026-05-02T16:16:16.001Z</time></trkpt><trkpt lat="45.2052700094274" lon="10.59034114319558"><ele>34.0</ele><time>2026-05-02T16:16:17.001Z</time></trkpt><trkpt lat="45.205172396995955" lon="10.590176211619458"><ele>34.0</ele><time>2026-05-02T16:16:18.001Z</time></trkpt><trkpt lat="45.205074440328985" lon="10.590014340713447"><ele>34.0</ele><time>2026-05-02T16:16:19.001Z</time></trkpt><trkpt lat="45.2049805966594" lon="10.589855833799351"><ele>34.0</ele><time>2026-05-02T16:16:20.001Z</time></trkpt><trkpt lat="45.20489522473722" lon="10.589710311259408"><ele>34.0</ele><time>2026-05-02T16:16:21.001Z</time></trkpt><trkpt lat="45.20481396482764" lon="10.589573869382503"><ele>34.0</ele><time>2026-05-02T16:16:22.001Z</time></trkpt><trkpt lat="45.20474003185359" lon="10.589450450560449"><ele>34.0</ele><time>2026-05-02T16:16:23.001Z</time></trkpt><trkpt lat="45.20467087888431" lon="10.589331974151383"><ele>34.0</ele><time>2026-05-02T16:16:24.001Z</time></trkpt><trkpt lat="45.20460501734566" lon="10.589219255342053"><ele>34.0</ele><time>2026-05-02T16:16:25.001Z</time></trkpt><trkpt lat="45.204537447748976" lon="10.589107255994971"><ele>34.0</ele><time>2026-05-02T16:16:26.001Z</time></trkpt><trkpt lat="45.204470826524" lon="10.588995450802736"><ele>34.0</ele><time>2026-05-02T16:16:27.001Z</time></trkpt><trkpt lat="45.204405244680764" lon="10.588882425930976"><ele>34.0</ele><time>2026-05-02T16:16:28.001Z</time></trkpt><trkpt lat="45.20434305875158" lon="10.588775632698773"><ele>34.0</ele><time>2026-05-02T16:16:29.001Z</time></trkpt><trkpt lat="45.20428434054014" lon="10.588674513550401"><ele>34.0</ele><time>2026-05-02T16:16:30.001Z</time></trkpt><trkpt lat="45.204230098362714" lon="10.58858196917536"><ele>34.0</ele><time>2026-05-02T16:16:31.001Z</time></trkpt><trkpt lat="45.20417311546818" lon="10.588487489964434"><ele>34.0</ele><time>2026-05-02T16:16:32.001Z</time></trkpt><trkpt lat="45.20411834832996" lon="10.588386908489937"><ele>34.0</ele><time>2026-05-02T16:16:33.001Z</time></trkpt><trkpt lat="45.20405558054566" lon="10.588273573180432"><ele>34.0</ele><time>2026-05-02T16:16:34.001Z</time></trkpt><trkpt lat="45.20399111403957" lon="10.588157791593154"><ele>34.0</ele><time>2026-05-02T16:16:35.001Z</time></trkpt><trkpt lat="45.20392742307947" lon="10.588045984304879"><ele>34.0</ele><time>2026-05-02T16:16:36.001Z</time></trkpt><trkpt lat="45.20386866889858" lon="10.587946448867635"><ele>34.0</ele><time>2026-05-02T16:16:37.001Z</time></trkpt><trkpt lat="45.203807744385415" lon="10.58784419421418"><ele>34.0</ele><time>2026-05-02T16:16:38.001Z</time></trkpt><trkpt lat="45.203743994053255" lon="10.587731551916836"><ele>34.0</ele><time>2026-05-02T16:16:39Z</time></trkpt><trkpt lat="45.20367878307062" lon="10.587615613199702"><ele>34.0</ele><time>2026-05-02T16:16:40Z</time></trkpt><trkpt lat="45.20361175384075" lon="10.58750060822321"><ele>34.0</ele><time>2026-05-02T16:16:41Z</time></trkpt><trkpt lat="45.20354053614038" lon="10.587380135008205"><ele>34.0</ele><time>2026-05-02T16:16:42Z</time></trkpt><trkpt lat="45.20347016128207" lon="10.587252549882336"><ele>34.0</ele><time>2026-05-02T16:16:43Z</time></trkpt><trkpt lat="45.20340576812704" lon="10.587137867869744"><ele>34.0</ele><time>2026-05-02T16:16:44Z</time></trkpt><trkpt lat="45.20333895880719" lon="10.58702437874062"><ele>34.0</ele><time>2026-05-02T16:16:45Z</time></trkpt><trkpt lat="45.20327400226755" lon="10.586912952237522"><ele>34.0</ele><time>2026-05-02T16:16:46Z</time></trkpt><trkpt lat="45.20320903684115" lon="10.58679759502625"><ele>34.2</ele><time>2026-05-02T16:16:47Z</time></trkpt><trkpt lat="45.20314209531997" lon="10.586679257568761"><ele>34.4</ele><time>2026-05-02T16:16:48Z</time></trkpt><trkpt lat="45.20307705285305" lon="10.58657299391306"><ele>34.6</ele><time>2026-05-02T16:16:49Z</time></trkpt><trkpt lat="45.20301291475447" lon="10.586463836529367"><ele>34.8</ele><time>2026-05-02T16:16:50Z</time></trkpt><trkpt lat="45.202950315871036" lon="10.586351396265412"><ele>35.0</ele><time>2026-05-02T16:16:51Z</time></trkpt><trkpt lat="45.20288444332078" lon="10.586240791428972"><ele>35.0</ele><time>2026-05-02T16:16:52Z</time></trkpt><trkpt lat="45.20282388386563" lon="10.586136679294382"><ele>35.0</ele><time>2026-05-02T16:16:53Z</time></trkpt><trkpt lat="45.20276572949204" lon="10.586037669731569"><ele>35.0</ele><time>2026-05-02T16:16:54Z</time></trkpt><trkpt lat="45.20270841112593" lon="10.585940684184074"><ele>35.0</ele><time>2026-05-02T16:16:55Z</time></trkpt><trkpt lat="45.20264623558824" lon="10.585843620575345"><ele>35.0</ele><time>2026-05-02T16:16:56Z</time></trkpt><trkpt lat="45.20258428385495" lon="10.585747980007916"><ele>35.0</ele><time>2026-05-02T16:16:57Z</time></trkpt><trkpt lat="45.202519545837355" lon="10.58564897009659"><ele>35.0</ele><time>2026-05-02T16:16:58Z</time></trkpt><trkpt lat="45.202452264214216" lon="10.585543759960062"><ele>35.0</ele><time>2026-05-02T16:16:59Z</time></trkpt><trkpt lat="45.20238774650286" lon="10.585439080741084"><ele>35.0</ele><time>2026-05-02T16:17:00Z</time></trkpt><trkpt lat="45.202321072788465" lon="10.58533396268576"><ele>35.0</ele><time>2026-05-02T16:17:01Z</time></trkpt><trkpt lat="45.20224966742843" lon="10.585230851362939"><ele>35.0</ele><time>2026-05-02T16:17:02Z</time></trkpt><trkpt lat="45.20218040508197" lon="10.585130370049919"><ele>35.0</ele><time>2026-05-02T16:17:03Z</time></trkpt><trkpt lat="45.202116194995504" lon="10.585029777042074"><ele>35.0</ele><time>2026-05-02T16:17:04Z</time></trkpt><trkpt lat="45.20205398497018" lon="10.58493634253663"><ele>35.0</ele><time>2026-05-02T16:17:05Z</time></trkpt><trkpt lat="45.20198847435276" lon="10.584841092178767"><ele>35.0</ele><time>2026-05-02T16:17:06Z</time></trkpt><trkpt lat="45.20192456841939" lon="10.58474754409115"><ele>35.0</ele><time>2026-05-02T16:17:07Z</time></trkpt><trkpt lat="45.201859131538846" lon="10.584657723647114"><ele>35.0</ele><time>2026-05-02T16:17:08Z</time></trkpt><trkpt lat="45.201794595012004" lon="10.58456122251583"><ele>35.0</ele><time>2026-05-02T16:17:09Z</time></trkpt><trkpt lat="45.201730600210034" lon="10.584461213723962"><ele>35.0</ele><time>2026-05-02T16:17:10Z</time></trkpt><trkpt lat="45.20166821638595" lon="10.584358258573038"><ele>35.0</ele><time>2026-05-02T16:17:11Z</time></trkpt><trkpt lat="45.20160085945711" lon="10.58425534261365"><ele>35.0</ele><time>2026-05-02T16:17:12Z</time></trkpt><trkpt lat="45.2015327332875" lon="10.5841446968261"><ele>35.0</ele><time>2026-05-02T16:17:13Z</time></trkpt><trkpt lat="45.20146323970916" lon="10.58403298082062"><ele>35.0</ele><time>2026-05-02T16:17:14Z</time></trkpt><trkpt lat="45.201394940096996" lon="10.58392188365445"><ele>35.0</ele><time>2026-05-02T16:17:15Z</time></trkpt><trkpt lat="45.201324510678496" lon="10.583805917246039"><ele>35.0</ele><time>2026-05-02T16:17:16Z</time></trkpt><trkpt lat="45.201253127804" lon="10.583696417681152"><ele>35.0</ele><time>2026-05-02T16:17:17Z</time></trkpt><trkpt lat="45.20118653806488" lon="10.583571015473586"><ele>35.0</ele><time>2026-05-02T16:17:18Z</time></trkpt><trkpt lat="45.20111844649574" lon="10.583451100798019"><ele>35.0</ele><time>2026-05-02T16:17:19Z</time></trkpt><trkpt lat="45.201050008987885" lon="10.58333007509758"><ele>35.0</ele><time>2026-05-02T16:17:20Z</time></trkpt><trkpt lat="45.2009796884237" lon="10.583210579776829"><ele>35.0</ele><time>2026-05-02T16:17:21Z</time></trkpt><trkpt lat="45.200912683809484" lon="10.583080508159568"><ele>35.0</ele><time>2026-05-02T16:17:22Z</time></trkpt><trkpt lat="45.20084625698923" lon="10.582957065400828"><ele>35.0</ele><time>2026-05-02T16:17:23Z</time></trkpt><trkpt lat="45.20078638506373" lon="10.582839926122896"><ele>35.0</ele><time>2026-05-02T16:17:24Z</time></trkpt><trkpt lat="45.200727170697434" lon="10.582718400054528"><ele>35.0</ele><time>2026-05-02T16:17:25Z</time></trkpt><trkpt lat="45.20066991261828" lon="10.58259992782756"><ele>35.0</ele><time>2026-05-02T16:17:26Z</time></trkpt><trkpt lat="45.20061514310231" lon="10.582480945136261"><ele>35.0</ele><time>2026-05-02T16:17:27Z</time></trkpt><trkpt lat="45.20055886854135" lon="10.582360278248455"><ele>35.0</ele><time>2026-05-02T16:17:28Z</time></trkpt><trkpt lat="45.20049603980239" lon="10.582240737756994"><ele>35.0</ele><time>2026-05-02T16:17:29.001Z</time></trkpt><trkpt lat="45.200427200992856" lon="10.582117326182027"><ele>35.0</ele><time>2026-05-02T16:17:30.001Z</time></trkpt><trkpt lat="45.20035837330289" lon="10.582002150157802"><ele>35.0</ele><time>2026-05-02T16:17:31.001Z</time></trkpt><trkpt lat="45.20028689360765" lon="10.581893450885007"><ele>35.0</ele><time>2026-05-02T16:17:32.001Z</time></trkpt><trkpt lat="45.20021482924321" lon="10.581785688842006"><ele>35.0</ele><time>2026-05-02T16:17:33.001Z</time></trkpt><trkpt lat="45.20014163404727" lon="10.581678432550577"><ele>35.0</ele><time>2026-05-02T16:17:34.001Z</time></trkpt><trkpt lat="45.2000648150767" lon="10.581571002326232"><ele>35.0</ele><time>2026-05-02T16:17:35.001Z</time></trkpt><trkpt lat="45.19999072129074" lon="10.581466738177078"><ele>35.0</ele><time>2026-05-02T16:17:36.001Z</time></trkpt><trkpt lat="45.19992031922437" lon="10.581365912851709"><ele>35.0</ele><time>2026-05-02T16:17:37.001Z</time></trkpt><trkpt lat="45.19985564271852" lon="10.581273373740972"><ele>35.0</ele><time>2026-05-02T16:17:38.001Z</time></trkpt><trkpt lat="45.19979563014993" lon="10.581177031518296"><ele>35.0</ele><time>2026-05-02T16:17:39.001Z</time></trkpt><trkpt lat="45.19974114854891" lon="10.581082004902647"><ele>35.0</ele><time>2026-05-02T16:17:40.001Z</time></trkpt><trkpt lat="45.19968930005351" lon="10.580988155945619"><ele>35.0</ele><time>2026-05-02T16:17:41.001Z</time></trkpt><trkpt lat="45.19963703929962" lon="10.580896180661465"><ele>35.0</ele><time>2026-05-02T16:17:42.001Z</time></trkpt><trkpt lat="45.19958162183873" lon="10.580800648497624"><ele>35.2</ele><time>2026-05-02T16:17:43.001Z</time></trkpt><trkpt lat="45.19952411526036" lon="10.580703181237812"><ele>35.4</ele><time>2026-05-02T16:17:44.001Z</time></trkpt><trkpt lat="45.19946658606545" lon="10.580603923586406"><ele>35.6</ele><time>2026-05-02T16:17:45.001Z</time></trkpt><trkpt lat="45.19940875994108" lon="10.580500566305115"><ele>35.8</ele><time>2026-05-02T16:17:46.001Z</time></trkpt><trkpt lat="45.199348264635226" lon="10.580397463875942"><ele>36.0</ele><time>2026-05-02T16:17:47.001Z</time></trkpt><trkpt lat="45.19928796375444" lon="10.580293593770136"><ele>36.2</ele><time>2026-05-02T16:17:48.001Z</time></trkpt><trkpt lat="45.19922688101543" lon="10.580189387297207"><ele>36.400000000000006</ele><time>2026-05-02T16:17:49.001Z</time></trkpt><trkpt lat="45.19916360452249" lon="10.580083298832038"><ele>36.6</ele><time>2026-05-02T16:17:50.001Z</time></trkpt><trkpt lat="45.19909965011891" lon="10.579971180513374"><ele>36.800000000000004</ele><time>2026-05-02T16:17:51.001Z</time></trkpt><trkpt lat="45.19903387425212" lon="10.579853675103024"><ele>37.0</ele><time>2026-05-02T16:17:52.001Z</time></trkpt><trkpt lat="45.19896921157617" lon="10.57973721124666"><ele>36.800000000000004</ele><time>2026-05-02T16:17:53.001Z</time></trkpt><trkpt lat="45.19890414483425" lon="10.579621857132505"><ele>36.6</ele><time>2026-05-02T16:17:54.001Z</time></trkpt><trkpt lat="45.19883801719236" lon="10.579505145477697"><ele>36.400000000000006</ele><time>2026-05-02T16:17:55.001Z</time></trkpt><trkpt lat="45.19877229193457" lon="10.579389804222389"><ele>36.2</ele><time>2026-05-02T16:17:56.001Z</time></trkpt><trkpt lat="45.19870814043445" lon="10.579269170977955"><ele>36.0</ele><time>2026-05-02T16:17:57.001Z</time></trkpt><trkpt lat="45.19863377853344" lon="10.579144409243971"><ele>36.0</ele><time>2026-05-02T16:17:58.001Z</time></trkpt><trkpt lat="45.19855494690275" lon="10.579007167258947"><ele>36.0</ele><time>2026-05-02T16:17:59.001Z</time></trkpt><trkpt lat="45.19847541126339" lon="10.578864450225122"><ele>36.0</ele><time>2026-05-02T16:18:00.001Z</time></trkpt><trkpt lat="45.19839236598103" lon="10.578721536599462"><ele>36.0</ele><time>2026-05-02T16:18:01.001Z</time></trkpt><trkpt lat="45.198309894883366" lon="10.578578639570436"><ele>35.75</ele><time>2026-05-02T16:18:02.001Z</time></trkpt><trkpt lat="45.19822749121902" lon="10.578444578958388"><ele>35.5</ele><time>2026-05-02T16:18:03.001Z</time></trkpt><trkpt lat="45.19814815247257" lon="10.578310346629015"><ele>35.25</ele><time>2026-05-02T16:18:04.001Z</time></trkpt><trkpt lat="45.19806443335103" lon="10.578172851319795"><ele>35.0</ele><time>2026-05-02T16:18:05.001Z</time></trkpt><trkpt lat="45.197978648884586" lon="10.578026037762491"><ele>34.75</ele><time>2026-05-02T16:18:06.001Z</time></trkpt><trkpt lat="45.197888672786476" lon="10.577880504161612"><ele>34.5</ele><time>2026-05-02T16:18:07.001Z</time></trkpt><trkpt lat="45.19780030364142" lon="10.577733723582728"><ele>34.25</ele><time>2026-05-02T16:18:08.001Z</time></trkpt><trkpt lat="45.19771941106229" lon="10.577598366851722"><ele>34.0</ele><time>2026-05-02T16:18:09.001Z</time></trkpt><trkpt lat="45.19763725930486" lon="10.577461717268351"><ele>34.0</ele><time>2026-05-02T16:18:10.001Z</time></trkpt><trkpt lat="45.197555153022286" lon="10.577322998088313"><ele>34.0</ele><time>2026-05-02T16:18:11.001Z</time></trkpt><trkpt lat="45.197469834779355" lon="10.577187693999253"><ele>34.0</ele><time>2026-05-02T16:18:12.001Z</time></trkpt><trkpt lat="45.19738148401947" lon="10.57704746853764"><ele>34.0</ele><time>2026-05-02T16:18:13.001Z</time></trkpt><trkpt lat="45.19729108407044" lon="10.576892007785244"><ele>34.25</ele><time>2026-05-02T16:18:14.001Z</time></trkpt><trkpt lat="45.197196944782476" lon="10.576731869116518"><ele>34.5</ele><time>2026-05-02T16:18:15.001Z</time></trkpt><trkpt lat="45.19710111198625" lon="10.57657219398807"><ele>34.75</ele><time>2026-05-02T16:18:16.001Z</time></trkpt><trkpt lat="45.19701171625564" lon="10.576423182104657"><ele>35.0</ele><time>2026-05-02T16:18:17.001Z</time></trkpt><trkpt lat="45.196926538899135" lon="10.576278630731895"><ele>35.0</ele><time>2026-05-02T16:18:18.001Z</time></trkpt><trkpt lat="45.19684572804293" lon="10.576139028325132"><ele>35.0</ele><time>2026-05-02T16:18:19.001Z</time></trkpt><trkpt lat="45.19676337681449" lon="10.576004143253323"><ele>35.0</ele><time>2026-05-02T16:18:20.001Z</time></trkpt><trkpt lat="45.19667992114231" lon="10.575864038405495"><ele>35.0</ele><time>2026-05-02T16:18:21.001Z</time></trkpt><trkpt lat="45.196590177584596" lon="10.575719603464684"><ele>34.75</ele><time>2026-05-02T16:18:22.001Z</time></trkpt><trkpt lat="45.196498999312624" lon="10.575562905523345"><ele>34.5</ele><time>2026-05-02T16:18:23.001Z</time></trkpt><trkpt lat="45.19640391320657" lon="10.575405514165016"><ele>34.25</ele><time>2026-05-02T16:18:24.001Z</time></trkpt><trkpt lat="45.196307575910275" lon="10.575248379602915"><ele>34.0</ele><time>2026-05-02T16:18:25.001Z</time></trkpt><trkpt lat="45.196214739805065" lon="10.575090798370196"><ele>33.66666666666667</ele><time>2026-05-02T16:18:26.001Z</time></trkpt><trkpt lat="45.196120372705984" lon="10.574933609675726"><ele>33.333333333333336</ele><time>2026-05-02T16:18:27.001Z</time></trkpt><trkpt lat="45.196022048390084" lon="10.574770003162556"><ele>33.0</ele><time>2026-05-02T16:18:28.001Z</time></trkpt><trkpt lat="45.19592317386729" lon="10.574602175359827"><ele>33.0</ele><time>2026-05-02T16:18:29.001Z</time></trkpt><trkpt lat="45.19582565270291" lon="10.574435805187097"><ele>33.0</ele><time>2026-05-02T16:18:30.001Z</time></trkpt><trkpt lat="45.1957284085023" lon="10.574270137507883"><ele>33.0</ele><time>2026-05-02T16:18:31.001Z</time></trkpt><trkpt lat="45.19563040545756" lon="10.574106137692233"><ele>33.0</ele><time>2026-05-02T16:18:32.001Z</time></trkpt><trkpt lat="45.19553890539095" lon="10.573954582769549"><ele>33.0</ele><time>2026-05-02T16:18:33.001Z</time></trkpt><trkpt lat="45.19545165560702" lon="10.57380973231576"><ele>33.0</ele><time>2026-05-02T16:18:34.001Z</time></trkpt><trkpt lat="45.19536708065849" lon="10.573668419155407"><ele>33.0</ele><time>2026-05-02T16:18:35.001Z</time></trkpt><trkpt lat="45.195282036484855" lon="10.573526571328415"><ele>33.0</ele><time>2026-05-02T16:18:36.001Z</time></trkpt><trkpt lat="45.195194441092546" lon="10.573379474811881"><ele>33.0</ele><time>2026-05-02T16:18:37.001Z</time></trkpt><trkpt lat="45.1951065443137" lon="10.573237479737967"><ele>33.0</ele><time>2026-05-02T16:18:38.001Z</time></trkpt><trkpt lat="45.19502593791646" lon="10.57310246317867"><ele>33.0</ele><time>2026-05-02T16:18:39.001Z</time></trkpt><trkpt lat="45.19495370192772" lon="10.572981285356835"><ele>33.0</ele><time>2026-05-02T16:18:40.001Z</time></trkpt><trkpt lat="45.194894741475764" lon="10.57286643614627"><ele>33.0</ele><time>2026-05-02T16:18:41.002Z</time></trkpt><trkpt lat="45.19484764219182" lon="10.57274198006812"><ele>33.0</ele><time>2026-05-02T16:18:42.002Z</time></trkpt><trkpt lat="45.194809246196485" lon="10.572604753417355"><ele>33.0</ele><time>2026-05-02T16:18:43.002Z</time></trkpt><trkpt lat="45.19478320428391" lon="10.572471408323482"><ele>33.0</ele><time>2026-05-02T16:18:44.002Z</time></trkpt><trkpt lat="45.19476401362417" lon="10.572345763418392"><ele>32.833333333333336</ele><time>2026-05-02T16:18:45Z</time></trkpt><trkpt lat="45.19475286148814" lon="10.572230018304829"><ele>32.666666666666664</ele><time>2026-05-02T16:18:46Z</time></trkpt><trkpt lat="45.19475061398715" lon="10.572110349921664"><ele>32.5</ele><time>2026-05-02T16:18:47Z</time></trkpt><trkpt lat="45.194758152869824" lon="10.571983917462088"><ele>32.33333333333333</ele><time>2026-05-02T16:18:48Z</time></trkpt><trkpt lat="45.19478000195412" lon="10.571866055844312"><ele>32.166666666666664</ele><time>2026-05-02T16:18:49Z</time></trkpt><trkpt lat="45.19480495153607" lon="10.571748970459613"><ele>32.0</ele><time>2026-05-02T16:18:50Z</time></trkpt><trkpt lat="45.194818634127245" lon="10.571625612781075"><ele>31.999999999999996</ele><time>2026-05-02T16:18:51Z</time></trkpt><trkpt lat="45.19480664455555" lon="10.571505353357647"><ele>32.0</ele><time>2026-05-02T16:18:52Z</time></trkpt><trkpt lat="45.19476259565569" lon="10.571391765379676"><ele>32.0</ele><time>2026-05-02T16:18:53Z</time></trkpt><trkpt lat="45.1946940798139" lon="10.57131608796481"><ele>32.0</ele><time>2026-05-02T16:18:54Z</time></trkpt><trkpt lat="45.19461649539782" lon="10.57127976854856"><ele>31.999999999999996</ele><time>2026-05-02T16:18:55Z</time></trkpt><trkpt lat="45.194533729273495" lon="10.571277915309237"><ele>32.0</ele><time>2026-05-02T16:18:56Z</time></trkpt><trkpt lat="45.19444276938849" lon="10.571300788298897"><ele>32.0</ele><time>2026-05-02T16:18:57Z</time></trkpt><trkpt lat="45.19434388024941" lon="10.57132319146292"><ele>32.0</ele><time>2026-05-02T16:18:58Z</time></trkpt><trkpt lat="45.194242870013746" lon="10.571321551752435"><ele>32.0</ele><time>2026-05-02T16:18:59Z</time></trkpt><trkpt lat="45.19413388978495" lon="10.571286781491994"><ele>32.0</ele><time>2026-05-02T16:19:00Z</time></trkpt><trkpt lat="45.194025265925255" lon="10.571215966060253"><ele>32.0</ele><time>2026-05-02T16:19:01Z</time></trkpt><trkpt lat="45.19391977656711" lon="10.571126985652638"><ele>32.5</ele><time>2026-05-02T16:19:02Z</time></trkpt><trkpt lat="45.19382260302019" lon="10.571027448419446"><ele>33.0</ele><time>2026-05-02T16:19:03Z</time></trkpt><trkpt lat="45.19373543082653" lon="10.57091311494844"><ele>33.5</ele><time>2026-05-02T16:19:04Z</time></trkpt><trkpt lat="45.193648093819284" lon="10.570776203134104"><ele>34.0</ele><time>2026-05-02T16:19:05Z</time></trkpt><trkpt lat="45.19355132193383" lon="10.570622471929079"><ele>34.0</ele><time>2026-05-02T16:19:06Z</time></trkpt><trkpt lat="45.19345118024856" lon="10.57046362120016"><ele>34.0</ele><time>2026-05-02T16:19:07Z</time></trkpt><trkpt lat="45.193353408947885" lon="10.570301290305094"><ele>34.0</ele><time>2026-05-02T16:19:08Z</time></trkpt><trkpt lat="45.19325331951957" lon="10.570128538297798"><ele>33.0</ele><time>2026-05-02T16:19:09Z</time></trkpt><trkpt lat="45.19314498654388" lon="10.569950365945198"><ele>32.0</ele><time>2026-05-02T16:19:10Z</time></trkpt><trkpt lat="45.193028320290686" lon="10.569759115086137"><ele>31.0</ele><time>2026-05-02T16:19:11Z</time></trkpt><trkpt lat="45.192902628347895" lon="10.569549449536598"><ele>31.333333333333336</ele><time>2026-05-02T16:19:12Z</time></trkpt><trkpt lat="45.19276662450346" lon="10.569323955842199"><ele>31.666666666666664</ele><time>2026-05-02T16:19:13Z</time></trkpt><trkpt lat="45.19262218470251" lon="10.569088622738052"><ele>32.0</ele><time>2026-05-02T16:19:14.001Z</time></trkpt><trkpt lat="45.19247108967328" lon="10.568842213379316"><ele>32.0</ele><time>2026-05-02T16:19:15.001Z</time></trkpt><trkpt lat="45.192314061822685" lon="10.568588913721959"><ele>32.0</ele><time>2026-05-02T16:19:16.001Z</time></trkpt><trkpt lat="45.19216276830313" lon="10.56833740088296"><ele>32.0</ele><time>2026-05-02T16:19:17.001Z</time></trkpt><trkpt lat="45.19201849826211" lon="10.56809335776725"><ele>32.0</ele><time>2026-05-02T16:19:18.001Z</time></trkpt><trkpt lat="45.19188487476961" lon="10.567862725963728"><ele>32.0</ele><time>2026-05-02T16:19:19.001Z</time></trkpt><trkpt lat="45.19175878701338" lon="10.5676456285652"><ele>32.33333333333333</ele><time>2026-05-02T16:19:20.001Z</time></trkpt><trkpt lat="45.19163864580276" lon="10.56743926594602"><ele>32.666666666666664</ele><time>2026-05-02T16:19:21.001Z</time></trkpt><trkpt lat="45.19152068398885" lon="10.567232146906795"><ele>33.0</ele><time>2026-05-02T16:19:22.001Z</time></trkpt><trkpt lat="45.191398867510195" lon="10.567022514146347"><ele>33.0</ele><time>2026-05-02T16:19:23.001Z</time></trkpt><trkpt lat="45.1912718669576" lon="10.566806307858638"><ele>33.0</ele><time>2026-05-02T16:19:24.001Z</time></trkpt><trkpt lat="45.19113596997158" lon="10.56658446565298"><ele>33.0</ele><time>2026-05-02T16:19:25.001Z</time></trkpt><trkpt lat="45.190999107850395" lon="10.566358556766469"><ele>33.0</ele><time>2026-05-02T16:19:26.001Z</time></trkpt><trkpt lat="45.19086262331146" lon="10.566130088351386"><ele>33.0</ele><time>2026-05-02T16:19:27.001Z</time></trkpt><trkpt lat="45.19072318992728" lon="10.565896881843166"><ele>33.0</ele><time>2026-05-02T16:19:28.001Z</time></trkpt><trkpt lat="45.19057923860461" lon="10.565653512822603"><ele>33.0</ele><time>2026-05-02T16:19:29.001Z</time></trkpt><trkpt lat="45.19042678248399" lon="10.56540332420845"><ele>33.0</ele><time>2026-05-02T16:19:30.001Z</time></trkpt><trkpt lat="45.190271188762004" lon="10.565144610750249"><ele>33.0</ele><time>2026-05-02T16:19:31.001Z</time></trkpt><trkpt lat="45.19010922695953" lon="10.564877223724912"><ele>33.0</ele><time>2026-05-02T16:19:32.001Z</time></trkpt><trkpt lat="45.1899468603699" lon="10.564604267433921"><ele>32.5</ele><time>2026-05-02T16:19:33.001Z</time></trkpt><trkpt lat="45.18978627684389" lon="10.564329042594148"><ele>32.0</ele><time>2026-05-02T16:19:34.001Z</time></trkpt><trkpt lat="45.18962233276036" lon="10.56405386645364"><ele>32.0</ele><time>2026-05-02T16:19:35.001Z</time></trkpt><trkpt lat="45.18945801049164" lon="10.563776829355628"><ele>32.0</ele><time>2026-05-02T16:19:36.001Z</time></trkpt><trkpt lat="45.189295736049566" lon="10.563506185484963"><ele>32.0</ele><time>2026-05-02T16:19:37.001Z</time></trkpt><trkpt lat="45.189133442808426" lon="10.563233072882992"><ele>32.0</ele><time>2026-05-02T16:19:38.001Z</time></trkpt><trkpt lat="45.188973540083516" lon="10.562962353163284"><ele>32.0</ele><time>2026-05-02T16:19:39.001Z</time></trkpt><trkpt lat="45.18881369380505" lon="10.562694664908502"><ele>32.0</ele><time>2026-05-02T16:19:40.001Z</time></trkpt><trkpt lat="45.188653451477066" lon="10.562426882841617"><ele>32.0</ele><time>2026-05-02T16:19:41.001Z</time></trkpt><trkpt lat="45.188496628930444" lon="10.562166950028416"><ele>32.0</ele><time>2026-05-02T16:19:42.001Z</time></trkpt><trkpt lat="45.18834833290351" lon="10.561918935937696"><ele>32.0</ele><time>2026-05-02T16:19:43.001Z</time></trkpt><trkpt lat="45.188204734394326" lon="10.561679567195185"><ele>32.0</ele><time>2026-05-02T16:19:44.001Z</time></trkpt><trkpt lat="45.18806180513129" lon="10.56144394804579"><ele>32.0</ele><time>2026-05-02T16:19:45.001Z</time></trkpt><trkpt lat="45.18791882378553" lon="10.561205248735272"><ele>32.33333333333333</ele><time>2026-05-02T16:19:46.001Z</time></trkpt><trkpt lat="45.1877775741065" lon="10.560969510111397"><ele>32.666666666666664</ele><time>2026-05-02T16:19:47.001Z</time></trkpt><trkpt lat="45.18763454498774" lon="10.56072917152934"><ele>33.0</ele><time>2026-05-02T16:19:48.001Z</time></trkpt><trkpt lat="45.187486182133995" lon="10.560478876395974"><ele>33.0</ele><time>2026-05-02T16:19:49.001Z</time></trkpt><trkpt lat="45.18733116807074" lon="10.560218751496892"><ele>33.0</ele><time>2026-05-02T16:19:50.001Z</time></trkpt><trkpt lat="45.18716965257055" lon="10.559953395759765"><ele>33.0</ele><time>2026-05-02T16:19:51.001Z</time></trkpt><trkpt lat="45.187005516330466" lon="10.559685878903142"><ele>33.0</ele><time>2026-05-02T16:19:52.001Z</time></trkpt><trkpt lat="45.186834084696166" lon="10.559406330070349"><ele>33.5</ele><time>2026-05-02T16:19:53.001Z</time></trkpt><trkpt lat="45.18665941905167" lon="10.559122914100165"><ele>34.0</ele><time>2026-05-02T16:19:54.001Z</time></trkpt><trkpt lat="45.18648019803393" lon="10.558832492019564"><ele>33.0</ele><time>2026-05-02T16:19:55.001Z</time></trkpt><trkpt lat="45.18629540001412" lon="10.55852864567844"><ele>32.0</ele><time>2026-05-02T16:19:56.001Z</time></trkpt><trkpt lat="45.18610838824133" lon="10.55821804035137"><ele>32.0</ele><time>2026-05-02T16:19:57.001Z</time></trkpt><trkpt lat="45.18593302736442" lon="10.557915390803629"><ele>32.0</ele><time>2026-05-02T16:19:58.001Z</time></trkpt><trkpt lat="45.18576477004564" lon="10.55762439277864"><ele>32.0</ele><time>2026-05-02T16:19:59.001Z</time></trkpt><trkpt lat="45.185570186868894" lon="10.55729808092694"><ele>32.0</ele><time>2026-05-02T16:20:00.001Z</time></trkpt><trkpt lat="45.18537041195859" lon="10.556978240039623"><ele>32.5</ele><time>2026-05-02T16:20:01.001Z</time></trkpt><trkpt lat="45.18518530884935" lon="10.556666928317082"><ele>33.0</ele><time>2026-05-02T16:20:02.001Z</time></trkpt><trkpt lat="45.18499298090982" lon="10.556347193566415"><ele>33.0</ele><time>2026-05-02T16:20:03.001Z</time></trkpt><trkpt lat="45.18480025728939" lon="10.556023383770334"><ele>33.0</ele><time>2026-05-02T16:20:04.001Z</time></trkpt><trkpt lat="45.18460763028749" lon="10.555698510821744"><ele>33.0</ele><time>2026-05-02T16:20:05.001Z</time></trkpt><trkpt lat="45.18442141833992" lon="10.55538567454965"><ele>33.0</ele><time>2026-05-02T16:20:06.001Z</time></trkpt><trkpt lat="45.18424979769497" lon="10.555082271761348"><ele>33.0</ele><time>2026-05-02T16:20:07.001Z</time></trkpt><trkpt lat="45.18407328194839" lon="10.554781018990328"><ele>33.0</ele><time>2026-05-02T16:20:08.001Z</time></trkpt><trkpt lat="45.183919885735065" lon="10.554504049550594"><ele>32.5</ele><time>2026-05-02T16:20:09.001Z</time></trkpt><trkpt lat="45.18375799782927" lon="10.55423279513226"><ele>32.0</ele><time>2026-05-02T16:20:10.001Z</time></trkpt><trkpt lat="45.18360036412465" lon="10.553969967846323"><ele>32.0</ele><time>2026-05-02T16:20:11.001Z</time></trkpt><trkpt lat="45.183453454428374" lon="10.553724858703323"><ele>32.0</ele><time>2026-05-02T16:20:12.001Z</time></trkpt><trkpt lat="45.1833103119904" lon="10.55348056398515"><ele>32.0</ele><time>2026-05-02T16:20:13.001Z</time></trkpt><trkpt lat="45.18317734251783" lon="10.553243740315448"><ele>32.0</ele><time>2026-05-02T16:20:14.001Z</time></trkpt><trkpt lat="45.183051153293555" lon="10.553025996551984"><ele>32.0</ele><time>2026-05-02T16:20:15.001Z</time></trkpt><trkpt lat="45.18292530146549" lon="10.552822407550039"><ele>32.33333333333333</ele><time>2026-05-02T16:20:16.001Z</time></trkpt><trkpt lat="45.18280084118198" lon="10.552624571125751"><ele>32.666666666666664</ele><time>2026-05-02T16:20:17.001Z</time></trkpt><trkpt lat="45.182676995251626" lon="10.552419514115462"><ele>33.0</ele><time>2026-05-02T16:20:18.001Z</time></trkpt><trkpt lat="45.182550703550106" lon="10.552215042870396"><ele>32.666666666666664</ele><time>2026-05-02T16:20:19.001Z</time></trkpt><trkpt lat="45.1824171465117" lon="10.551986175180042"><ele>32.33333333333333</ele><time>2026-05-02T16:20:20.001Z</time></trkpt><trkpt lat="45.18228039236687" lon="10.5517630777857"><ele>32.0</ele><time>2026-05-02T16:20:21.001Z</time></trkpt><trkpt lat="45.182148564188296" lon="10.551549986162295"><ele>32.0</ele><time>2026-05-02T16:20:22.001Z</time></trkpt><trkpt lat="45.18202025683718" lon="10.551324754203508"><ele>32.0</ele><time>2026-05-02T16:20:23.001Z</time></trkpt><trkpt lat="45.18188216863986" lon="10.551094185729093"><ele>32.0</ele><time>2026-05-02T16:20:24.002Z</time></trkpt><trkpt lat="45.18173205843246" lon="10.550859160358954"><ele>32.0</ele><time>2026-05-02T16:20:25.002Z</time></trkpt><trkpt lat="45.18155369866737" lon="10.550574445704873"><ele>32.0</ele><time>2026-05-02T16:20:26.002Z</time></trkpt><trkpt lat="45.181370336557286" lon="10.550274556907581"><ele>31.0</ele><time>2026-05-02T16:20:27.002Z</time></trkpt><trkpt lat="45.181184042854056" lon="10.549951975771755"><ele>30.0</ele><time>2026-05-02T16:20:28.002Z</time></trkpt><trkpt lat="45.18100149428745" lon="10.549629481774412"><ele>30.5</ele><time>2026-05-02T16:20:29.002Z</time></trkpt><trkpt lat="45.180827263663296" lon="10.549327278515676"><ele>31.0</ele><time>2026-05-02T16:20:30.002Z</time></trkpt><trkpt lat="45.18066101657979" lon="10.549040626938686"><ele>31.0</ele><time>2026-05-02T16:20:31.002Z</time></trkpt><trkpt lat="45.18050303800255" lon="10.548775812782061"><ele>31.0</ele><time>2026-05-02T16:20:32.002Z</time></trkpt><trkpt lat="45.18035313921671" lon="10.548528727922546"><ele>31.0</ele><time>2026-05-02T16:20:33.002Z</time></trkpt><trkpt lat="45.18021364123234" lon="10.548291117195134"><ele>31.0</ele><time>2026-05-02T16:20:34.002Z</time></trkpt><trkpt lat="45.18007875887184" lon="10.54806373205575"><ele>31.0</ele><time>2026-05-02T16:20:35.002Z</time></trkpt><trkpt lat="45.1799553859556" lon="10.547860222422367"><ele>30.666666666666668</ele><time>2026-05-02T16:20:36.002Z</time></trkpt><trkpt lat="45.17984068206147" lon="10.547667677295149"><ele>30.333333333333336</ele><time>2026-05-02T16:20:37.002Z</time></trkpt><trkpt lat="45.179730777169006" lon="10.547480535077868"><ele>30.0</ele><time>2026-05-02T16:20:38.002Z</time></trkpt><trkpt lat="45.1796270496262" lon="10.54730404533026"><ele>30.0</ele><time>2026-05-02T16:20:39.002Z</time></trkpt><trkpt lat="45.17952631822008" lon="10.54713404026567"><ele>30.0</ele><time>2026-05-02T16:20:40.002Z</time></trkpt><trkpt lat="45.179430648628625" lon="10.54697552618787"><ele>30.0</ele><time>2026-05-02T16:20:41.002Z</time></trkpt><trkpt lat="45.17933775363848" lon="10.54682412401555"><ele>30.0</ele><time>2026-05-02T16:20:42.002Z</time></trkpt><trkpt lat="45.179248149218694" lon="10.546677201983526"><ele>30.2</ele><time>2026-05-02T16:20:43.002Z</time></trkpt><trkpt lat="45.17916158610181" lon="10.546528525305142"><ele>30.4</ele><time>2026-05-02T16:20:44.002Z</time></trkpt><trkpt lat="45.17908479275868" lon="10.546402310556317"><ele>30.6</ele><time>2026-05-02T16:20:45.002Z</time></trkpt><trkpt lat="45.17901761302368" lon="10.546312361132577"><ele>30.8</ele><time>2026-05-02T16:20:46.002Z</time></trkpt><trkpt lat="45.17895700459824" lon="10.546268305987548"><ele>31.0</ele><time>2026-05-02T16:20:47.002Z</time></trkpt><trkpt lat="45.178844975161354" lon="10.546346541702174"><ele>30.5</ele><time>2026-05-02T16:20:49.002Z</time></trkpt><trkpt lat="45.178807906908816" lon="10.546445304914748"><ele>30.0</ele><time>2026-05-02T16:20:50.002Z</time></trkpt><trkpt lat="45.17875449517016" lon="10.546589799093404"><ele>29.5</ele><time>2026-05-02T16:20:51Z</time></trkpt><trkpt lat="45.17867396542119" lon="10.546769292212492"><ele>29.0</ele><time>2026-05-02T16:20:52Z</time></trkpt><trkpt lat="45.178576386955896" lon="10.546972205921543"><ele>29.666666666666664</ele><time>2026-05-02T16:20:53Z</time></trkpt><trkpt lat="45.17845820257766" lon="10.547189520307583"><ele>30.333333333333336</ele><time>2026-05-02T16:20:54Z</time></trkpt><trkpt lat="45.17831733590215" lon="10.547395540565434"><ele>31.0</ele><time>2026-05-02T16:20:55Z</time></trkpt><trkpt lat="45.1781444140842" lon="10.547578658798157"><ele>31.0</ele><time>2026-05-02T16:20:56Z</time></trkpt><trkpt lat="45.17794112328938" lon="10.547744754259234"><ele>31.0</ele><time>2026-05-02T16:20:57Z</time></trkpt><trkpt lat="45.1777330667471" lon="10.547919077111171"><ele>31.0</ele><time>2026-05-02T16:20:58Z</time></trkpt><trkpt lat="45.17753705196267" lon="10.548079688438035"><ele>31.0</ele><time>2026-05-02T16:20:59Z</time></trkpt><trkpt lat="45.177352682930355" lon="10.548210122104427"><ele>31.0</ele><time>2026-05-02T16:21:00Z</time></trkpt><trkpt lat="45.17716942536228" lon="10.548305813065696"><ele>31.333333333333336</ele><time>2026-05-02T16:21:01Z</time></trkpt><trkpt lat="45.17698912888993" lon="10.548355281469485"><ele>31.666666666666664</ele><time>2026-05-02T16:21:02Z</time></trkpt><trkpt lat="45.17681142366597" lon="10.548360391575136"><ele>32.0</ele><time>2026-05-02T16:21:03Z</time></trkpt><trkpt lat="45.17664700406133" lon="10.548300516844469"><ele>31.0</ele><time>2026-05-02T16:21:04Z</time></trkpt><trkpt lat="45.176504770375615" lon="10.548207892939141"><ele>30.0</ele><time>2026-05-02T16:21:05Z</time></trkpt><trkpt lat="45.176357446444136" lon="10.548176665479918"><ele>29.0</ele><time>2026-05-02T16:21:06Z</time></trkpt><trkpt lat="45.17620484915913" lon="10.548232944963756"><ele>29.0</ele><time>2026-05-02T16:21:07Z</time></trkpt><trkpt lat="45.176064155074165" lon="10.54837207957102"><ele>29.0</ele><time>2026-05-02T16:21:08Z</time></trkpt><trkpt lat="45.17591685712123" lon="10.548531414177837"><ele>29.0</ele><time>2026-05-02T16:21:09Z</time></trkpt><trkpt lat="45.17574432902399" lon="10.54871407502468"><ele>30.0</ele><time>2026-05-02T16:21:10.001Z</time></trkpt><trkpt lat="45.175554361463675" lon="10.548889208651095"><ele>31.0</ele><time>2026-05-02T16:21:11.001Z</time></trkpt><trkpt lat="45.175352526510345" lon="10.549066110653895"><ele>31.0</ele><time>2026-05-02T16:21:12.001Z</time></trkpt><trkpt lat="45.17514008173105" lon="10.54923657478887"><ele>31.0</ele><time>2026-05-02T16:21:13.001Z</time></trkpt><trkpt lat="45.174916990792774" lon="10.549392445340702"><ele>31.0</ele><time>2026-05-02T16:21:14.001Z</time></trkpt><trkpt lat="45.17468979905779" lon="10.549542553576183"><ele>31.0</ele><time>2026-05-02T16:21:15.001Z</time></trkpt><trkpt lat="45.17445473533287" lon="10.549700847593614"><ele>31.0</ele><time>2026-05-02T16:21:16.001Z</time></trkpt><trkpt lat="45.17422175884756" lon="10.549859232999454"><ele>31.0</ele><time>2026-05-02T16:21:17.001Z</time></trkpt><trkpt lat="45.17396579644088" lon="10.549991806269814"><ele>29.5</ele><time>2026-05-02T16:21:18.001Z</time></trkpt><trkpt lat="45.1737205463598" lon="10.550135548892417"><ele>28.0</ele><time>2026-05-02T16:21:19.001Z</time></trkpt><trkpt lat="45.17348995071024" lon="10.550311474989087"><ele>29.0</ele><time>2026-05-02T16:21:20.001Z</time></trkpt><trkpt lat="45.17327477589647" lon="10.550536735613816"><ele>30.0</ele><time>2026-05-02T16:21:21.001Z</time></trkpt><trkpt lat="45.173074242949774" lon="10.550799129044723"><ele>30.0</ele><time>2026-05-02T16:21:22.001Z</time></trkpt><trkpt lat="45.17287505169865" lon="10.55107239252645"><ele>30.0</ele><time>2026-05-02T16:21:23.001Z</time></trkpt><trkpt lat="45.172679098283034" lon="10.551342076302465"><ele>30.5</ele><time>2026-05-02T16:21:24.001Z</time></trkpt><trkpt lat="45.172495653659375" lon="10.551615331958818"><ele>31.0</ele><time>2026-05-02T16:21:25.001Z</time></trkpt><trkpt lat="45.172335314883135" lon="10.551900663353125"><ele>31.0</ele><time>2026-05-02T16:21:26.001Z</time></trkpt><trkpt lat="45.17219294936438" lon="10.55219377320139"><ele>31.0</ele><time>2026-05-02T16:21:27.001Z</time></trkpt><trkpt lat="45.1720656697095" lon="10.552478289962496"><ele>31.0</ele><time>2026-05-02T16:21:28.001Z</time></trkpt><trkpt lat="45.17195686768703" lon="10.552756547359081"><ele>31.0</ele><time>2026-05-02T16:21:29.001Z</time></trkpt><trkpt lat="45.17186510095186" lon="10.553038632094486"><ele>31.0</ele><time>2026-05-02T16:21:30.001Z</time></trkpt><trkpt lat="45.171807122813824" lon="10.553319152945233"><ele>31.666666666666668</ele><time>2026-05-02T16:21:31.001Z</time></trkpt><trkpt lat="45.17177497395681" lon="10.553598282401087"><ele>32.333333333333336</ele><time>2026-05-02T16:21:32.001Z</time></trkpt><trkpt lat="45.17177950135604" lon="10.553891211689296"><ele>33.0</ele><time>2026-05-02T16:21:33.001Z</time></trkpt><trkpt lat="45.17179125446468" lon="10.554197427435039"><ele>33.0</ele><time>2026-05-02T16:21:34.001Z</time></trkpt><trkpt lat="45.17179350412172" lon="10.554495930440476"><ele>33.0</ele><time>2026-05-02T16:21:35.001Z</time></trkpt><trkpt lat="45.17179820899588" lon="10.554772485544104"><ele>33.0</ele><time>2026-05-02T16:21:36.001Z</time></trkpt><trkpt lat="45.171796109667724" lon="10.555016740813121"><ele>32.5</ele><time>2026-05-02T16:21:37.001Z</time></trkpt><trkpt lat="45.17175921078555" lon="10.555245960659077"><ele>32.0</ele><time>2026-05-02T16:21:38.001Z</time></trkpt><trkpt lat="45.17169736742229" lon="10.555383659004383"><ele>31.5</ele><time>2026-05-02T16:21:39.001Z</time></trkpt><trkpt lat="45.171602330588094" lon="10.5555025224448"><ele>31.0</ele><time>2026-05-02T16:21:40.001Z</time></trkpt><trkpt lat="45.17147909568588" lon="10.555578687452956"><ele>31.0</ele><time>2026-05-02T16:21:41.001Z</time></trkpt><trkpt lat="45.17133437737083" lon="10.555610946721547"><ele>31.0</ele><time>2026-05-02T16:21:42.001Z</time></trkpt><trkpt lat="45.171175630832764" lon="10.555589666846906"><ele>31.0</ele><time>2026-05-02T16:21:43.001Z</time></trkpt><trkpt lat="45.17101258648979" lon="10.555512367842258"><ele>31.0</ele><time>2026-05-02T16:21:44.001Z</time></trkpt><trkpt lat="45.17083237469135" lon="10.55540696741712"><ele>31.0</ele><time>2026-05-02T16:21:45.001Z</time></trkpt><trkpt lat="45.17063564017725" lon="10.555311243575566"><ele>31.0</ele><time>2026-05-02T16:21:46.001Z</time></trkpt><trkpt lat="45.17041768397414" lon="10.555209802404029"><ele>31.0</ele><time>2026-05-02T16:21:47.001Z</time></trkpt><trkpt lat="45.17018137275144" lon="10.55510621209413"><ele>31.0</ele><time>2026-05-02T16:21:48.001Z</time></trkpt><trkpt lat="45.169943541666925" lon="10.554996618736052"><ele>30.5</ele><time>2026-05-02T16:21:49.001Z</time></trkpt><trkpt lat="45.16969383671346" lon="10.554880951498314"><ele>30.0</ele><time>2026-05-02T16:21:50.001Z</time></trkpt><trkpt lat="45.169431938488366" lon="10.554766105650806"><ele>30.0</ele><time>2026-05-02T16:21:51.001Z</time></trkpt><trkpt lat="45.169167798188326" lon="10.55465033924727"><ele>30.0</ele><time>2026-05-02T16:21:52.001Z</time></trkpt><trkpt lat="45.16889716956355" lon="10.554533725877091"><ele>29.5</ele><time>2026-05-02T16:21:53.001Z</time></trkpt><trkpt lat="45.16862625528289" lon="10.554404389182698"><ele>29.0</ele><time>2026-05-02T16:21:54.001Z</time></trkpt><trkpt lat="45.16835188094281" lon="10.554271537615419"><ele>29.5</ele><time>2026-05-02T16:21:55.001Z</time></trkpt><trkpt lat="45.168072103685354" lon="10.554120665389313"><ele>30.0</ele><time>2026-05-02T16:21:56.001Z</time></trkpt><trkpt lat="45.16778926985487" lon="10.553975421668344"><ele>30.0</ele><time>2026-05-02T16:21:57.001Z</time></trkpt><trkpt lat="45.16750349557912" lon="10.553826792695608"><ele>30.0</ele><time>2026-05-02T16:21:58.001Z</time></trkpt><trkpt lat="45.167216815117165" lon="10.553676043787041"><ele>29.0</ele><time>2026-05-02T16:21:59.001Z</time></trkpt><trkpt lat="45.16692994433498" lon="10.553526677512004"><ele>28.0</ele><time>2026-05-02T16:22:00.001Z</time></trkpt><trkpt lat="45.16664084902635" lon="10.553382127644229"><ele>28.0</ele><time>2026-05-02T16:22:01.001Z</time></trkpt><trkpt lat="45.16635036979801" lon="10.553234214859991"><ele>28.0</ele><time>2026-05-02T16:22:02.001Z</time></trkpt><trkpt lat="45.16605680881635" lon="10.553084035482804"><ele>28.0</ele><time>2026-05-02T16:22:03.001Z</time></trkpt><trkpt lat="45.16576092725999" lon="10.552931284553244"><ele>28.0</ele><time>2026-05-02T16:22:04.001Z</time></trkpt><trkpt lat="45.16546248961314" lon="10.552779543063984"><ele>28.0</ele><time>2026-05-02T16:22:05.001Z</time></trkpt><trkpt lat="45.165163314715414" lon="10.552625818139202"><ele>28.0</ele><time>2026-05-02T16:22:06.001Z</time></trkpt><trkpt lat="45.16486045286223" lon="10.552472544385594"><ele>28.0</ele><time>2026-05-02T16:22:07.001Z</time></trkpt><trkpt lat="45.16455843838286" lon="10.552316136252823"><ele>28.0</ele><time>2026-05-02T16:22:08.001Z</time></trkpt><trkpt lat="45.16425819354848" lon="10.552155401944198"><ele>28.5</ele><time>2026-05-02T16:22:09.001Z</time></trkpt><trkpt lat="45.16395682209549" lon="10.551992863173949"><ele>29.0</ele><time>2026-05-02T16:22:10.001Z</time></trkpt><trkpt lat="45.163658365080806" lon="10.551825751444849"><ele>29.0</ele><time>2026-05-02T16:22:11.001Z</time></trkpt><trkpt lat="45.16336185489511" lon="10.551654252528454"><ele>29.0</ele><time>2026-05-02T16:22:12.001Z</time></trkpt><trkpt lat="45.163064786865604" lon="10.551485752231661"><ele>28.5</ele><time>2026-05-02T16:22:13.001Z</time></trkpt><trkpt lat="45.16276650628693" lon="10.551319203561846"><ele>28.0</ele><time>2026-05-02T16:22:14.001Z</time></trkpt><trkpt lat="45.16247284671492" lon="10.551149297833923"><ele>28.0</ele><time>2026-05-02T16:22:15.001Z</time></trkpt><trkpt lat="45.16218068701445" lon="10.550981797582777"><ele>28.0</ele><time>2026-05-02T16:22:16.001Z</time></trkpt><trkpt lat="45.16188879774365" lon="10.550817525652626"><ele>28.0</ele><time>2026-05-02T16:22:17.001Z</time></trkpt><trkpt lat="45.16160061612924" lon="10.550653976149947"><ele>28.0</ele><time>2026-05-02T16:22:18.001Z</time></trkpt><trkpt lat="45.161317499801676" lon="10.550491363149622"><ele>28.5</ele><time>2026-05-02T16:22:19.001Z</time></trkpt><trkpt lat="45.16103667559012" lon="10.550330159302803"><ele>29.0</ele><time>2026-05-02T16:22:20.001Z</time></trkpt><trkpt lat="45.160759987652106" lon="10.550165720744559"><ele>29.5</ele><time>2026-05-02T16:22:21.001Z</time></trkpt><trkpt lat="45.16048519262995" lon="10.54999973332566"><ele>30.0</ele><time>2026-05-02T16:22:22.002Z</time></trkpt><trkpt lat="45.16021107948098" lon="10.549835708554436"><ele>30.0</ele><time>2026-05-02T16:22:23.002Z</time></trkpt><trkpt lat="45.15993704835471" lon="10.549671059696022"><ele>30.0</ele><time>2026-05-02T16:22:24.002Z</time></trkpt><trkpt lat="45.15966059812242" lon="10.54950073621363"><ele>29.5</ele><time>2026-05-02T16:22:25.002Z</time></trkpt><trkpt lat="45.15938480753791" lon="10.549324953059227"><ele>29.0</ele><time>2026-05-02T16:22:26.002Z</time></trkpt><trkpt lat="45.15910548334397" lon="10.549154526044145"><ele>29.0</ele><time>2026-05-02T16:22:27.002Z</time></trkpt><trkpt lat="45.15882060956672" lon="10.548982920698192"><ele>29.0</ele><time>2026-05-02T16:22:28.002Z</time></trkpt><trkpt lat="45.15854020762908" lon="10.548807518865726"><ele>28.0</ele><time>2026-05-02T16:22:29.002Z</time></trkpt><trkpt lat="45.15826038263887" lon="10.548633041761352"><ele>27.0</ele><time>2026-05-02T16:22:30.002Z</time></trkpt><trkpt lat="45.15798670763939" lon="10.548466593697546"><ele>26.5</ele><time>2026-05-02T16:22:31.002Z</time></trkpt><trkpt lat="45.15772092103069" lon="10.548301260063191"><ele>26.0</ele><time>2026-05-02T16:22:32.002Z</time></trkpt><trkpt lat="45.15746267531577" lon="10.548143490686257"><ele>26.5</ele><time>2026-05-02T16:22:33.002Z</time></trkpt><trkpt lat="45.1572110987757" lon="10.547989132314601"><ele>27.0</ele><time>2026-05-02T16:22:34.002Z</time></trkpt><trkpt lat="45.156961660092534" lon="10.54784165614068"><ele>27.0</ele><time>2026-05-02T16:22:35.002Z</time></trkpt><trkpt lat="45.15671078430455" lon="10.54768632683509"><ele>27.0</ele><time>2026-05-02T16:22:36.002Z</time></trkpt><trkpt lat="45.15646247407156" lon="10.547537442071159"><ele>27.0</ele><time>2026-05-02T16:22:37.002Z</time></trkpt><trkpt lat="45.15621078346329" lon="10.547387130690963"><ele>27.0</ele><time>2026-05-02T16:22:38.002Z</time></trkpt><trkpt lat="45.15595852672806" lon="10.547232062655404"><ele>27.0</ele><time>2026-05-02T16:22:39.002Z</time></trkpt><trkpt lat="45.15570524430465" lon="10.54707871921694"><ele>27.0</ele><time>2026-05-02T16:22:40.002Z</time></trkpt><trkpt lat="45.155447762745965" lon="10.546922451884932"><ele>28.5</ele><time>2026-05-02T16:22:41.002Z</time></trkpt><trkpt lat="45.15518129320747" lon="10.546764972679739"><ele>30.0</ele><time>2026-05-02T16:22:42.002Z</time></trkpt><trkpt lat="45.154910867904654" lon="10.546601195510089"><ele>28.5</ele><time>2026-05-02T16:22:43.002Z</time></trkpt><trkpt lat="45.15464075110125" lon="10.546435121381453"><ele>27.0</ele><time>2026-05-02T16:22:44.002Z</time></trkpt><trkpt lat="45.1543663464206" lon="10.546266031119474"><ele>27.0</ele><time>2026-05-02T16:22:45.002Z</time></trkpt><trkpt lat="45.154087982814104" lon="10.54609442134217"><ele>27.0</ele><time>2026-05-02T16:22:46.002Z</time></trkpt><trkpt lat="45.153807791627244" lon="10.545923532881849"><ele>27.0</ele><time>2026-05-02T16:22:47.002Z</time></trkpt><trkpt lat="45.153530671650515" lon="10.545754035104807"><ele>27.0</ele><time>2026-05-02T16:22:48.002Z</time></trkpt><trkpt lat="45.15325214423243" lon="10.54558359334633"><ele>27.0</ele><time>2026-05-02T16:22:49.002Z</time></trkpt><trkpt lat="45.15297322847429" lon="10.545412469229014"><ele>27.0</ele><time>2026-05-02T16:22:50.002Z</time></trkpt><trkpt lat="45.15269266426127" lon="10.545242847862927"><ele>27.0</ele><time>2026-05-02T16:22:51.002Z</time></trkpt><trkpt lat="45.152415045000026" lon="10.545081464348621"><ele>27.0</ele><time>2026-05-02T16:22:52.002Z</time></trkpt><trkpt lat="45.1521448868401" lon="10.54492469041532"><ele>27.0</ele><time>2026-05-02T16:22:53.002Z</time></trkpt><trkpt lat="45.15187537227313" lon="10.544778903091709"><ele>27.0</ele><time>2026-05-02T16:22:54.002Z</time></trkpt><trkpt lat="45.15160708381654" lon="10.544631769729449"><ele>27.5</ele><time>2026-05-02T16:22:55.002Z</time></trkpt><trkpt lat="45.15133791359149" lon="10.544485054753086"><ele>28.0</ele><time>2026-05-02T16:22:56.002Z</time></trkpt><trkpt lat="45.151072354603656" lon="10.544339844956749"><ele>28.0</ele><time>2026-05-02T16:22:57Z</time></trkpt><trkpt lat="45.15080272258126" lon="10.544190840409728"><ele>28.0</ele><time>2026-05-02T16:22:58Z</time></trkpt><trkpt lat="45.15053461563372" lon="10.544043046761834"><ele>26.5</ele><time>2026-05-02T16:22:59Z</time></trkpt><trkpt lat="45.15026308364738" lon="10.543896593930215"><ele>25.0</ele><time>2026-05-02T16:23:00Z</time></trkpt><trkpt lat="45.149989951871824" lon="10.54374902881106"><ele>26.0</ele><time>2026-05-02T16:23:01Z</time></trkpt><trkpt lat="45.14972571138291" lon="10.543605288078746"><ele>27.0</ele><time>2026-05-02T16:23:02Z</time></trkpt><trkpt lat="45.149457105189654" lon="10.543458739339926"><ele>27.0</ele><time>2026-05-02T16:23:03Z</time></trkpt><trkpt lat="45.14919101415" lon="10.543312265306179"><ele>27.0</ele><time>2026-05-02T16:23:04Z</time></trkpt><trkpt lat="45.14892657816857" lon="10.543172103489711"><ele>26.5</ele><time>2026-05-02T16:23:05Z</time></trkpt><trkpt lat="45.14866644883442" lon="10.543035332044978"><ele>26.0</ele><time>2026-05-02T16:23:05.999Z</time></trkpt><trkpt lat="45.148418308809696" lon="10.542892905000276"><ele>26.0</ele><time>2026-05-02T16:23:06.999Z</time></trkpt><trkpt lat="45.14817989288746" lon="10.542762608152954"><ele>26.0</ele><time>2026-05-02T16:23:07.999Z</time></trkpt><trkpt lat="45.1479537994059" lon="10.542642198334965"><ele>26.0</ele><time>2026-05-02T16:23:08.999Z</time></trkpt><trkpt lat="45.14774524657142" lon="10.542526948341235"><ele>26.0</ele><time>2026-05-02T16:23:09.999Z</time></trkpt><trkpt lat="45.14756718060914" lon="10.542427643073914"><ele>26.0</ele><time>2026-05-02T16:23:10.999Z</time></trkpt><trkpt lat="45.14741181181147" lon="10.542339906378396"><ele>25.75</ele><time>2026-05-02T16:23:11.999Z</time></trkpt><trkpt lat="45.147270073916786" lon="10.542276207388024"><ele>25.5</ele><time>2026-05-02T16:23:12.999Z</time></trkpt><trkpt lat="45.147139799098895" lon="10.542271123205824"><ele>25.25</ele><time>2026-05-02T16:23:13.999Z</time></trkpt><trkpt lat="45.147014342053815" lon="10.542318475510164"><ele>25.0</ele><time>2026-05-02T16:23:14.999Z</time></trkpt><trkpt lat="45.14689880135401" lon="10.542401842385345"><ele>25.0</ele><time>2026-05-02T16:23:15.999Z</time></trkpt><trkpt lat="45.14680557194883" lon="10.54255163717639"><ele>25.0</ele><time>2026-05-02T16:23:16.999Z</time></trkpt><trkpt lat="45.146715785293296" lon="10.542737191464525"><ele>25.0</ele><time>2026-05-02T16:23:17.999Z</time></trkpt><trkpt lat="45.146612787779944" lon="10.542944657503204"><ele>24.666666666666668</ele><time>2026-05-02T16:23:18.999Z</time></trkpt><trkpt lat="45.14649854255873" lon="10.543171244943249"><ele>24.333333333333336</ele><time>2026-05-02T16:23:19.999Z</time></trkpt><trkpt lat="45.14637697874681" lon="10.543413250242272"><ele>24.0</ele><time>2026-05-02T16:23:20.999Z</time></trkpt><trkpt lat="45.14627056835243" lon="10.543635990165571"><ele>24.5</ele><time>2026-05-02T16:23:21.999Z</time></trkpt><trkpt lat="45.14613530014348" lon="10.543911425842996"><ele>25.0</ele><time>2026-05-02T16:23:22.999Z</time></trkpt><trkpt lat="45.14599383887052" lon="10.544184376501393"><ele>25.0</ele><time>2026-05-02T16:23:23.999Z</time></trkpt><trkpt lat="45.14585710569556" lon="10.5444592588303"><ele>25.0</ele><time>2026-05-02T16:23:24.999Z</time></trkpt><trkpt lat="45.145722083997214" lon="10.544721107411883"><ele>25.333333333333336</ele><time>2026-05-02T16:23:25.999Z</time></trkpt><trkpt lat="45.145592766350774" lon="10.544977377637503"><ele>25.666666666666664</ele><time>2026-05-02T16:23:26.999Z</time></trkpt><trkpt lat="45.14545578241651" lon="10.545231952073912"><ele>26.0</ele><time>2026-05-02T16:23:27.999Z</time></trkpt><trkpt lat="45.14532270895212" lon="10.545496328597586"><ele>26.5</ele><time>2026-05-02T16:23:28.999Z</time></trkpt><trkpt lat="45.145182811918204" lon="10.545769787059832"><ele>27.0</ele><time>2026-05-02T16:23:29.999Z</time></trkpt><trkpt lat="45.14504033635157" lon="10.54604562835818"><ele>27.0</ele><time>2026-05-02T16:23:30.999Z</time></trkpt><trkpt lat="45.14490558486791" lon="10.546317448979996"><ele>27.0</ele><time>2026-05-02T16:23:31.999Z</time></trkpt><trkpt lat="45.14478408230214" lon="10.54655834712782"><ele>27.0</ele><time>2026-05-02T16:23:32.999Z</time></trkpt><trkpt lat="45.14465217434176" lon="10.546790288582741"><ele>27.0</ele><time>2026-05-02T16:23:33.999Z</time></trkpt><trkpt lat="45.14451775349364" lon="10.547000988055753"><ele>27.0</ele><time>2026-05-02T16:23:34.999Z</time></trkpt><trkpt lat="45.14438334056197" lon="10.547194574435487"><ele>27.0</ele><time>2026-05-02T16:23:35.999Z</time></trkpt><trkpt lat="45.144255593686964" lon="10.54736396597432"><ele>27.0</ele><time>2026-05-02T16:23:36.999Z</time></trkpt><trkpt lat="45.144134703997324" lon="10.547498677997675"><ele>27.0</ele><time>2026-05-02T16:23:37.999Z</time></trkpt><trkpt lat="45.14402506604868" lon="10.547614062919"><ele>27.0</ele><time>2026-05-02T16:23:38.999Z</time></trkpt><trkpt lat="45.14392714823124" lon="10.547691906212329"><ele>27.0</ele><time>2026-05-02T16:23:39.999Z</time></trkpt><trkpt lat="45.143826054462586" lon="10.547722394865946"><ele>27.25</ele><time>2026-05-02T16:23:40.999Z</time></trkpt><trkpt lat="45.143714302419276" lon="10.547704648008805"><ele>27.5</ele><time>2026-05-02T16:23:41.999Z</time></trkpt><trkpt lat="45.14359373743964" lon="10.547640613867978"><ele>27.75</ele><time>2026-05-02T16:23:42.999Z</time></trkpt><trkpt lat="45.14347030393158" lon="10.547542788690508"><ele>28.0</ele><time>2026-05-02T16:23:43.999Z</time></trkpt><trkpt lat="45.14334524053582" lon="10.547397898818977"><ele>28.0</ele><time>2026-05-02T16:23:44.999Z</time></trkpt><trkpt lat="45.14321610578025" lon="10.547295520017174"><ele>28.0</ele><time>2026-05-02T16:23:45.999Z</time></trkpt><trkpt lat="45.14308470102785" lon="10.547204266580103"><ele>28.0</ele><time>2026-05-02T16:23:46.999Z</time></trkpt><trkpt lat="45.142951039507885" lon="10.547121524666142"><ele>28.0</ele><time>2026-05-02T16:23:47.999Z</time></trkpt><trkpt lat="45.142826715254365" lon="10.54704549000628"><ele>27.75</ele><time>2026-05-02T16:23:48.999Z</time></trkpt><trkpt lat="45.14271449292178" lon="10.546973777488924"><ele>27.5</ele><time>2026-05-02T16:23:49.999Z</time></trkpt><trkpt lat="45.14262107663709" lon="10.5469250169219"><ele>27.25</ele><time>2026-05-02T16:23:50.999Z</time></trkpt><trkpt lat="45.14251172075063" lon="10.546845358623038"><ele>27.0</ele><time>2026-05-02T16:23:51.999Z</time></trkpt><trkpt lat="45.14241532774286" lon="10.546786055723913"><ele>27.0</ele><time>2026-05-02T16:23:52.999Z</time></trkpt><trkpt lat="45.14231694723785" lon="10.546727778566199"><ele>27.000000000000004</ele><time>2026-05-02T16:23:53.999Z</time></trkpt><trkpt lat="45.14221992111314" lon="10.546665132303954"><ele>27.000000000000004</ele><time>2026-05-02T16:23:54.999Z</time></trkpt><trkpt lat="45.14211702760996" lon="10.546589736712063"><ele>27.0</ele><time>2026-05-02T16:23:55.999Z</time></trkpt><trkpt lat="45.142019966552965" lon="10.546533867890467"><ele>27.0</ele><time>2026-05-02T16:23:56.999Z</time></trkpt><trkpt lat="45.141925529158925" lon="10.546473419323656"><ele>27.0</ele><time>2026-05-02T16:23:57.999Z</time></trkpt><trkpt lat="45.14182938191302" lon="10.546413559987426"><ele>27.000000000000004</ele><time>2026-05-02T16:23:58.999Z</time></trkpt><trkpt lat="45.14173711307098" lon="10.546354471799491"><ele>27.000000000000004</ele><time>2026-05-02T16:23:59.999Z</time></trkpt><trkpt lat="45.141642692801504" lon="10.546289002589004"><ele>27.0</ele><time>2026-05-02T16:24:00.999Z</time></trkpt><trkpt lat="45.14154777085509" lon="10.546226511745655"><ele>27.0</ele><time>2026-05-02T16:24:01.999Z</time></trkpt><trkpt lat="45.14144388731792" lon="10.546161871135402"><ele>27.25</ele><time>2026-05-02T16:24:02.999Z</time></trkpt><trkpt lat="45.14133612918064" lon="10.546099538884704"><ele>27.5</ele><time>2026-05-02T16:24:03.999Z</time></trkpt><trkpt lat="45.14122776015286" lon="10.546040093532273"><ele>27.75</ele><time>2026-05-02T16:24:04.999Z</time></trkpt><trkpt lat="45.14112012982057" lon="10.545972470946003"><ele>28.0</ele><time>2026-05-02T16:24:05.999Z</time></trkpt><trkpt lat="45.14101392839329" lon="10.545902368394476"><ele>28.0</ele><time>2026-05-02T16:24:06.999Z</time></trkpt><trkpt lat="45.140916748737816" lon="10.545834317732998"><ele>27.999999999999996</ele><time>2026-05-02T16:24:07.999Z</time></trkpt><trkpt lat="45.14082680902798" lon="10.545778281916487"><ele>27.999999999999996</ele><time>2026-05-02T16:24:08.999Z</time></trkpt><trkpt lat="45.14073878183681" lon="10.545724359705664"><ele>28.0</ele><time>2026-05-02T16:24:09.999Z</time></trkpt><trkpt lat="45.140649894324454" lon="10.545677946234557"><ele>28.0</ele><time>2026-05-02T16:24:10.999Z</time></trkpt><trkpt lat="45.14057196568824" lon="10.545627434954008"><ele>28.000000000000004</ele><time>2026-05-02T16:24:11.999Z</time></trkpt><trkpt lat="45.140501887557946" lon="10.54558487589858"><ele>28.0</ele><time>2026-05-02T16:24:12.999Z</time></trkpt><trkpt lat="45.140442534115095" lon="10.545550907965897"><ele>28.0</ele><time>2026-05-02T16:24:13.999Z</time></trkpt><trkpt lat="45.140331566701185" lon="10.545488511387422"><ele>28.0</ele><time>2026-05-02T16:24:15.999Z</time></trkpt><trkpt lat="45.14026917735488" lon="10.545431683008974"><ele>28.000000000000004</ele><time>2026-05-02T16:24:17.999Z</time></trkpt><trkpt lat="45.140236298309105" lon="10.545331314353458"><ele>28.0</ele><time>2026-05-02T16:24:20.999Z</time></trkpt><trkpt lat="45.140251853228754" lon="10.545236537695176"><ele>28.0</ele><time>2026-05-02T16:24:23.999Z</time></trkpt><trkpt lat="45.14027801086734" lon="10.545154307355942"><ele>28.0</ele><time>2026-05-02T16:24:27.999Z</time></trkpt><trkpt lat="45.14021614989424" lon="10.545131633397407"><ele>28.0</ele><time>2026-05-02T16:25:51Z</time></trkpt></trkseg></trk></gpx>